<?xml version='1.0' encoding='UTF-8'?><gpx version="1.1" creator="JPX - https://github.com/jenetics/jpx" xmlns="http://www.topografix.com/GPX/1/1"><trk><trkseg><trkpt lat="40.01216136855875" lon="18.177776277972548"><ele>144.0</ele><time>2026-04-05T09:18:20Z</time></trkpt><trkpt lat="40.012129323590926" lon="18.177695194342423"><ele>144.0</ele><time>2026-04-05T09:18:22Z</time></trkpt><trkpt lat="40.01209302220476" lon="18.17760200061605"><ele>144.0</ele><time>2026-04-05T09:18:25Z</time></trkpt><trkpt lat="40.01208970469881" lon="18.17749607493787"><ele>144.0</ele><time>2026-04-05T09:18:29Z</time></trkpt><trkpt lat="40.01214655582231" lon="18.17743773267116"><ele>144.0</ele><time>2026-04-05T09:18:31Z</time></trkpt><trkpt lat="40.01225759141146" lon="18.177383523263764"><ele>144.0</ele><time>2026-04-05T09:18:33Z</time></trkpt><trkpt lat="40.012337214959565" lon="18.17735242025499"><ele>143.8</ele><time>2026-04-05T09:18:35Z</time></trkpt><trkpt lat="40.01241570079844" lon="18.17731282351368"><ele>143.60000000000002</ele><time>2026-04-05T09:18:37Z</time></trkpt><trkpt lat="40.012494682714404" lon="18.177283165228985"><ele>143.4</ele><time>2026-04-05T09:18:40Z</time></trkpt><trkpt lat="40.01255136075348" lon="18.177326328892132"><ele>143.20000000000002</ele><time>2026-04-05T09:18:47Z</time></trkpt><trkpt lat="40.01261120781697" lon="18.177457440174262"><ele>143.0</ele><time>2026-04-05T09:18:49Z</time></trkpt><trkpt lat="40.012665141362795" lon="18.17759812532656"><ele>143.0</ele><time>2026-04-05T09:18:51Z</time></trkpt><trkpt lat="40.01268983681736" lon="18.17767466896442"><ele>143.0</ele><time>2026-04-05T09:18:52Z</time></trkpt><trkpt lat="40.01271322442329" lon="18.17776093001757"><ele>143.0</ele><time>2026-04-05T09:18:53Z</time></trkpt><trkpt lat="40.01274142911879" lon="18.177861662036737"><ele>143.0</ele><time>2026-04-05T09:18:54Z</time></trkpt><trkpt lat="40.012771210493504" lon="18.177964116984"><ele>143.0</ele><time>2026-04-05T09:18:55Z</time></trkpt><trkpt lat="40.01280722977382" lon="18.17807062018797"><ele>143.0</ele><time>2026-04-05T09:18:56Z</time></trkpt><trkpt lat="40.01283662848504" lon="18.17817701800321"><ele>142.8</ele><time>2026-04-05T09:18:57Z</time></trkpt><trkpt lat="40.01286753284013" lon="18.178283023278862"><ele>142.60000000000002</ele><time>2026-04-05T09:18:58Z</time></trkpt><trkpt lat="40.0129031950834" lon="18.178395348221173"><ele>142.39999999999998</ele><time>2026-04-05T09:18:59Z</time></trkpt><trkpt lat="40.01293831718762" lon="18.178511744484304"><ele>142.2</ele><time>2026-04-05T09:19:00Z</time></trkpt><trkpt lat="40.01297495793636" lon="18.17862661821691"><ele>142.0</ele><time>2026-04-05T09:19:01Z</time></trkpt><trkpt lat="40.01301208041761" lon="18.178745771478237"><ele>142.0</ele><time>2026-04-05T09:19:02Z</time></trkpt><trkpt lat="40.013043883013616" lon="18.178864645437272"><ele>142.0</ele><time>2026-04-05T09:19:03Z</time></trkpt><trkpt lat="40.013080707666795" lon="18.178986454749012"><ele>142.0</ele><time>2026-04-05T09:19:04Z</time></trkpt><trkpt lat="40.01311446158213" lon="18.179110854600914"><ele>142.0</ele><time>2026-04-05T09:19:05Z</time></trkpt><trkpt lat="40.01315333897267" lon="18.179226221546557"><ele>142.0</ele><time>2026-04-05T09:19:06Z</time></trkpt><trkpt lat="40.013194398966604" lon="18.179344362994726"><ele>141.83333333333334</ele><time>2026-04-05T09:19:07Z</time></trkpt><trkpt lat="40.0132232870638" lon="18.179461036143937"><ele>141.66666666666669</ele><time>2026-04-05T09:19:08Z</time></trkpt><trkpt lat="40.0132601380824" lon="18.179568461668357"><ele>141.5</ele><time>2026-04-05T09:19:09Z</time></trkpt><trkpt lat="40.013292753797" lon="18.17967256039578"><ele>141.33333333333334</ele><time>2026-04-05T09:19:10Z</time></trkpt><trkpt lat="40.01332179207202" lon="18.179764415632096"><ele>141.16666666666666</ele><time>2026-04-05T09:19:11Z</time></trkpt><trkpt lat="40.01334377177185" lon="18.179846238817206"><ele>141.0</ele><time>2026-04-05T09:19:12Z</time></trkpt><trkpt lat="40.013387909654746" lon="18.179935664736877"><ele>141.0</ele><time>2026-04-05T09:19:14Z</time></trkpt><trkpt lat="40.01348737406883" lon="18.179924078262477"><ele>141.0</ele><time>2026-04-05T09:19:16Z</time></trkpt><trkpt lat="40.013540848554776" lon="18.17987136977433"><ele>141.0</ele><time>2026-04-05T09:19:17Z</time></trkpt><trkpt lat="40.01359736171732" lon="18.17981614798987"><ele>141.0</ele><time>2026-04-05T09:19:18Z</time></trkpt><trkpt lat="40.013661156724694" lon="18.179762627072545"><ele>141.0</ele><time>2026-04-05T09:19:19Z</time></trkpt><trkpt lat="40.01374130076578" lon="18.179708242588916"><ele>141.0</ele><time>2026-04-05T09:19:20Z</time></trkpt><trkpt lat="40.01382590085051" lon="18.179642874257404"><ele>140.8</ele><time>2026-04-05T09:19:21Z</time></trkpt><trkpt lat="40.01391158351612" lon="18.179583284211525"><ele>140.6</ele><time>2026-04-05T09:19:22Z</time></trkpt><trkpt lat="40.01399872393225" lon="18.179516969622203"><ele>140.4</ele><time>2026-04-05T09:19:23Z</time></trkpt><trkpt lat="40.01408699247501" lon="18.179445712131937"><ele>140.2</ele><time>2026-04-05T09:19:24Z</time></trkpt><trkpt lat="40.014178990590146" lon="18.179372049058838"><ele>140.0</ele><time>2026-04-05T09:19:25Z</time></trkpt><trkpt lat="40.01427727065602" lon="18.17929512526712"><ele>139.75</ele><time>2026-04-05T09:19:26Z</time></trkpt><trkpt lat="40.014379681335264" lon="18.179210032795652"><ele>139.5</ele><time>2026-04-05T09:19:27Z</time></trkpt><trkpt lat="40.01448315068373" lon="18.179129754157778"><ele>139.25</ele><time>2026-04-05T09:19:28Z</time></trkpt><trkpt lat="40.01458563007343" lon="18.1790555673184"><ele>139.0</ele><time>2026-04-05T09:19:29Z</time></trkpt><trkpt lat="40.014682635586894" lon="18.178979659290274"><ele>138.75</ele><time>2026-04-05T09:19:30Z</time></trkpt><trkpt lat="40.0147788895212" lon="18.17890546581588"><ele>138.5</ele><time>2026-04-05T09:19:31Z</time></trkpt><trkpt lat="40.01487834329878" lon="18.17882855296323"><ele>138.25</ele><time>2026-04-05T09:19:32Z</time></trkpt><trkpt lat="40.01498550407336" lon="18.178748148194607"><ele>138.0</ele><time>2026-04-05T09:19:33Z</time></trkpt><trkpt lat="40.01509443474606" lon="18.178670382941828"><ele>139.0</ele><time>2026-04-05T09:19:34Z</time></trkpt><trkpt lat="40.01520524296317" lon="18.178591342262457"><ele>140.0</ele><time>2026-04-05T09:19:35Z</time></trkpt><trkpt lat="40.01531554655955" lon="18.178511761749373"><ele>141.0</ele><time>2026-04-05T09:19:36Z</time></trkpt><trkpt lat="40.01542486152277" lon="18.17842769919704"><ele>142.0</ele><time>2026-04-05T09:19:37Z</time></trkpt><trkpt lat="40.015533461281116" lon="18.178339393271127"><ele>142.0</ele><time>2026-04-05T09:19:38Z</time></trkpt><trkpt lat="40.01565317605742" lon="18.178241313639496"><ele>142.0</ele><time>2026-04-05T09:19:39Z</time></trkpt><trkpt lat="40.01577273007617" lon="18.17814603374408"><ele>142.0</ele><time>2026-04-05T09:19:40Z</time></trkpt><trkpt lat="40.01589589945713" lon="18.178053190369898"><ele>142.0</ele><time>2026-04-05T09:19:41Z</time></trkpt><trkpt lat="40.0160204693501" lon="18.177963182516187"><ele>142.25</ele><time>2026-04-05T09:19:42Z</time></trkpt><trkpt lat="40.016147318434115" lon="18.177874010143846"><ele>142.5</ele><time>2026-04-05T09:19:43Z</time></trkpt><trkpt lat="40.01627217192568" lon="18.177795226408744"><ele>142.75</ele><time>2026-04-05T09:19:44Z</time></trkpt><trkpt lat="40.016393452179784" lon="18.177711776327772"><ele>143.0</ele><time>2026-04-05T09:19:45Z</time></trkpt><trkpt lat="40.01651504989564" lon="18.177628944941855"><ele>143.0</ele><time>2026-04-05T09:19:46Z</time></trkpt><trkpt lat="40.01663462276251" lon="18.177545909553043"><ele>143.0</ele><time>2026-04-05T09:19:47Z</time></trkpt><trkpt lat="40.01675378963193" lon="18.17746285375431"><ele>143.0</ele><time>2026-04-05T09:19:48Z</time></trkpt><trkpt lat="40.01687301652386" lon="18.177381246376573"><ele>143.0</ele><time>2026-04-05T09:19:49Z</time></trkpt><trkpt lat="40.016995603935676" lon="18.177303236705487"><ele>144.25</ele><time>2026-04-05T09:19:50Z</time></trkpt><trkpt lat="40.0171197931786" lon="18.177227221900978"><ele>145.5</ele><time>2026-04-05T09:19:51Z</time></trkpt><trkpt lat="40.01724247469412" lon="18.177150550895103"><ele>146.75</ele><time>2026-04-05T09:19:52Z</time></trkpt><trkpt lat="40.01737365446689" lon="18.177076689536563"><ele>148.0</ele><time>2026-04-05T09:19:53.001Z</time></trkpt><trkpt lat="40.01748473038703" lon="18.17696997968902"><ele>147.75</ele><time>2026-04-05T09:19:54.001Z</time></trkpt><trkpt lat="40.01759920796501" lon="18.17687065190255"><ele>147.5</ele><time>2026-04-05T09:19:55.001Z</time></trkpt><trkpt lat="40.0177190027331" lon="18.176774143967503"><ele>147.25</ele><time>2026-04-05T09:19:56.001Z</time></trkpt><trkpt lat="40.01784814082044" lon="18.17666815112677"><ele>147.0</ele><time>2026-04-05T09:19:57Z</time></trkpt><trkpt lat="40.01798138347738" lon="18.17656719210271"><ele>147.33333333333334</ele><time>2026-04-05T09:19:58Z</time></trkpt><trkpt lat="40.01810959824656" lon="18.176464280145485"><ele>147.66666666666669</ele><time>2026-04-05T09:19:59.001Z</time></trkpt><trkpt lat="40.01824221981317" lon="18.176368006102358"><ele>148.0</ele><time>2026-04-05T09:20:00Z</time></trkpt><trkpt lat="40.01837950624563" lon="18.176272259585264"><ele>148.0</ele><time>2026-04-05T09:20:01Z</time></trkpt><trkpt lat="40.01850344130635" lon="18.176181261567976"><ele>148.0</ele><time>2026-04-05T09:20:02.001Z</time></trkpt><trkpt lat="40.01862884091112" lon="18.176088498664395"><ele>148.0</ele><time>2026-04-05T09:20:03Z</time></trkpt><trkpt lat="40.01874228389442" lon="18.176003646538774"><ele>148.0</ele><time>2026-04-05T09:20:04Z</time></trkpt><trkpt lat="40.0188447984638" lon="18.175933381194838"><ele>148.0</ele><time>2026-04-05T09:20:05Z</time></trkpt><trkpt lat="40.01893268764156" lon="18.175866346261646"><ele>148.0</ele><time>2026-04-05T09:20:06Z</time></trkpt><trkpt lat="40.019016836363" lon="18.175801865389868"><ele>148.0</ele><time>2026-04-05T09:20:07Z</time></trkpt><trkpt lat="40.01910883141984" lon="18.175736881492487"><ele>148.0</ele><time>2026-04-05T09:20:08Z</time></trkpt><trkpt lat="40.019208066252766" lon="18.175658727393913"><ele>148.0</ele><time>2026-04-05T09:20:09Z</time></trkpt><trkpt lat="40.01932165142183" lon="18.175573995569987"><ele>148.0</ele><time>2026-04-05T09:20:10Z</time></trkpt><trkpt lat="40.019442923499" lon="18.175481496744492"><ele>148.0</ele><time>2026-04-05T09:20:11Z</time></trkpt><trkpt lat="40.01957095492145" lon="18.175377096184747"><ele>148.0</ele><time>2026-04-05T09:20:12Z</time></trkpt><trkpt lat="40.01969988585681" lon="18.17526931204695"><ele>148.0</ele><time>2026-04-05T09:20:13Z</time></trkpt><trkpt lat="40.019825149234755" lon="18.175159168111506"><ele>148.0</ele><time>2026-04-05T09:20:14Z</time></trkpt><trkpt lat="40.01995470029883" lon="18.17504135834621"><ele>148.0</ele><time>2026-04-05T09:20:15Z</time></trkpt><trkpt lat="40.02008768299309" lon="18.174919211464964"><ele>148.0</ele><time>2026-04-05T09:20:16Z</time></trkpt><trkpt lat="40.02022313589028" lon="18.174786712904908"><ele>148.66666666666669</ele><time>2026-04-05T09:20:17Z</time></trkpt><trkpt lat="40.020358969397144" lon="18.17465364851392"><ele>149.33333333333334</ele><time>2026-04-05T09:20:18Z</time></trkpt><trkpt lat="40.02049473298285" lon="18.174515490865986"><ele>150.0</ele><time>2026-04-05T09:20:19Z</time></trkpt><trkpt lat="40.02062430477312" lon="18.17437986843536"><ele>150.0</ele><time>2026-04-05T09:20:20Z</time></trkpt><trkpt lat="40.020750224928946" lon="18.174238072556825"><ele>150.0</ele><time>2026-04-05T09:20:21Z</time></trkpt><trkpt lat="40.02087754032282" lon="18.174090721580246"><ele>150.0</ele><time>2026-04-05T09:20:22Z</time></trkpt><trkpt lat="40.021005657926914" lon="18.173941959976965"><ele>151.0</ele><time>2026-04-05T09:20:23Z</time></trkpt><trkpt lat="40.02113297083746" lon="18.17379152021964"><ele>152.0</ele><time>2026-04-05T09:20:24Z</time></trkpt><trkpt lat="40.02126796448501" lon="18.1736290408146"><ele>153.0</ele><time>2026-04-05T09:20:25Z</time></trkpt><trkpt lat="40.021399240735796" lon="18.17348269106241"><ele>153.0</ele><time>2026-04-05T09:20:26Z</time></trkpt><trkpt lat="40.02152954412943" lon="18.173333670382995"><ele>153.0</ele><time>2026-04-05T09:20:27Z</time></trkpt><trkpt lat="40.02165928059912" lon="18.173184504821677"><ele>153.0</ele><time>2026-04-05T09:20:28Z</time></trkpt><trkpt lat="40.02178951573669" lon="18.1730375297138"><ele>152.33333333333334</ele><time>2026-04-05T09:20:29Z</time></trkpt><trkpt lat="40.021921934123654" lon="18.172889026832017"><ele>151.66666666666669</ele><time>2026-04-05T09:20:30Z</time></trkpt><trkpt lat="40.02205275477341" lon="18.172737853944906"><ele>151.0</ele><time>2026-04-05T09:20:31Z</time></trkpt><trkpt lat="40.02218483540036" lon="18.172584874897787"><ele>151.0</ele><time>2026-04-05T09:20:32Z</time></trkpt><trkpt lat="40.02231760885686" lon="18.172436370248363"><ele>151.0</ele><time>2026-04-05T09:20:33Z</time></trkpt><trkpt lat="40.02245310490137" lon="18.17228597058796"><ele>151.0</ele><time>2026-04-05T09:20:34Z</time></trkpt><trkpt lat="40.02258666700195" lon="18.172135740844773"><ele>151.0</ele><time>2026-04-05T09:20:35Z</time></trkpt><trkpt lat="40.02272159199684" lon="18.17198205425526"><ele>151.0</ele><time>2026-04-05T09:20:36Z</time></trkpt><trkpt lat="40.02285404266104" lon="18.171829768713636"><ele>151.0</ele><time>2026-04-05T09:20:37Z</time></trkpt><trkpt lat="40.02299132703364" lon="18.171678114614775"><ele>151.0</ele><time>2026-04-05T09:20:38Z</time></trkpt><trkpt lat="40.02312585999372" lon="18.171525655392177"><ele>151.0</ele><time>2026-04-05T09:20:39Z</time></trkpt><trkpt lat="40.02326144028647" lon="18.17137086479986"><ele>151.0</ele><time>2026-04-05T09:20:40Z</time></trkpt><trkpt lat="40.02339705714545" lon="18.171222363335524"><ele>151.0</ele><time>2026-04-05T09:20:41Z</time></trkpt><trkpt lat="40.02353735620611" lon="18.171064803965155"><ele>151.0</ele><time>2026-04-05T09:20:42Z</time></trkpt><trkpt lat="40.023668389186724" lon="18.170917386770306"><ele>151.0</ele><time>2026-04-05T09:20:43Z</time></trkpt><trkpt lat="40.023784169372995" lon="18.170787939674078"><ele>150.5</ele><time>2026-04-05T09:20:44Z</time></trkpt><trkpt lat="40.02389447252635" lon="18.170661303782797"><ele>150.0</ele><time>2026-04-05T09:20:45Z</time></trkpt><trkpt lat="40.0239944583454" lon="18.170541849475278"><ele>149.5</ele><time>2026-04-05T09:20:46Z</time></trkpt><trkpt lat="40.024083617735485" lon="18.170438544367265"><ele>149.0</ele><time>2026-04-05T09:20:47Z</time></trkpt><trkpt lat="40.02417496570978" lon="18.170338148169204"><ele>149.0</ele><time>2026-04-05T09:20:48Z</time></trkpt><trkpt lat="40.02425683178697" lon="18.170243276793947"><ele>149.0</ele><time>2026-04-05T09:20:49Z</time></trkpt><trkpt lat="40.02433312515812" lon="18.17016122457464"><ele>149.0</ele><time>2026-04-05T09:20:50Z</time></trkpt><trkpt lat="40.024405816051804" lon="18.170077452374457"><ele>149.0</ele><time>2026-04-05T09:20:51Z</time></trkpt><trkpt lat="40.02447497813081" lon="18.169997819178462"><ele>149.0</ele><time>2026-04-05T09:20:52Z</time></trkpt><trkpt lat="40.024559603242935" lon="18.1699028597983"><ele>149.0</ele><time>2026-04-05T09:20:53Z</time></trkpt><trkpt lat="40.02465740863413" lon="18.169797729913977"><ele>149.0</ele><time>2026-04-05T09:20:54Z</time></trkpt><trkpt lat="40.024768560696494" lon="18.169677476759272"><ele>149.0</ele><time>2026-04-05T09:20:55Z</time></trkpt><trkpt lat="40.02488029213512" lon="18.169556086767148"><ele>149.0</ele><time>2026-04-05T09:20:56Z</time></trkpt><trkpt lat="40.02500015326308" lon="18.16942109322956"><ele>149.0</ele><time>2026-04-05T09:20:57Z</time></trkpt><trkpt lat="40.025119476928694" lon="18.16927749871647"><ele>149.0</ele><time>2026-04-05T09:20:58Z</time></trkpt><trkpt lat="40.025244751208504" lon="18.169128823356658"><ele>149.0</ele><time>2026-04-05T09:20:59Z</time></trkpt><trkpt lat="40.025371425575145" lon="18.16897107987931"><ele>148.0</ele><time>2026-04-05T09:21:00Z</time></trkpt><trkpt lat="40.02549829355317" lon="18.168833603916156"><ele>147.0</ele><time>2026-04-05T09:21:01Z</time></trkpt><trkpt lat="40.02562464636552" lon="18.16869147768548"><ele>146.0</ele><time>2026-04-05T09:21:02Z</time></trkpt><trkpt lat="40.02575625933455" lon="18.168550619021993"><ele>146.0</ele><time>2026-04-05T09:21:03Z</time></trkpt><trkpt lat="40.02588734649635" lon="18.168406824392704"><ele>146.0</ele><time>2026-04-05T09:21:04Z</time></trkpt><trkpt lat="40.026019122062664" lon="18.16826217691492"><ele>146.0</ele><time>2026-04-05T09:21:04.999Z</time></trkpt><trkpt lat="40.0261527758642" lon="18.16811104776988"><ele>146.0</ele><time>2026-04-05T09:21:05.999Z</time></trkpt><trkpt lat="40.02628682266667" lon="18.16795822746582"><ele>146.0</ele><time>2026-04-05T09:21:06.999Z</time></trkpt><trkpt lat="40.02642434356324" lon="18.167805373336375"><ele>146.0</ele><time>2026-04-05T09:21:07.999Z</time></trkpt><trkpt lat="40.026547553624766" lon="18.167665282510846"><ele>146.0</ele><time>2026-04-05T09:21:08.999Z</time></trkpt><trkpt lat="40.02665563869708" lon="18.167535799553054"><ele>146.0</ele><time>2026-04-05T09:21:09.999Z</time></trkpt><trkpt lat="40.02675683204563" lon="18.16742127313703"><ele>146.0</ele><time>2026-04-05T09:21:10.999Z</time></trkpt><trkpt lat="40.02685259600968" lon="18.16730989636757"><ele>146.0</ele><time>2026-04-05T09:21:11.999Z</time></trkpt><trkpt lat="40.0269383952444" lon="18.167212935562667"><ele>146.0</ele><time>2026-04-05T09:21:12.999Z</time></trkpt><trkpt lat="40.02702267455228" lon="18.16712314229685"><ele>146.0</ele><time>2026-04-05T09:21:13.999Z</time></trkpt><trkpt lat="40.027094770339986" lon="18.167047914685316"><ele>146.0</ele><time>2026-04-05T09:21:14.999Z</time></trkpt><trkpt lat="40.027167118188636" lon="18.166975670821245"><ele>146.0</ele><time>2026-04-05T09:21:15.999Z</time></trkpt><trkpt lat="40.027249404056434" lon="18.16692091753225"><ele>146.0</ele><time>2026-04-05T09:21:16.999Z</time></trkpt><trkpt lat="40.02733932675235" lon="18.166901831577437"><ele>146.0</ele><time>2026-04-05T09:21:17.999Z</time></trkpt><trkpt lat="40.02742921180863" lon="18.166897730105198"><ele>146.0</ele><time>2026-04-05T09:21:18.999Z</time></trkpt><trkpt lat="40.02753108319486" lon="18.166911154154825"><ele>146.0</ele><time>2026-04-05T09:21:19.999Z</time></trkpt><trkpt lat="40.027629040931366" lon="18.16696359995796"><ele>146.0</ele><time>2026-04-05T09:21:20.999Z</time></trkpt><trkpt lat="40.02772640004884" lon="18.167035361960284"><ele>146.0</ele><time>2026-04-05T09:21:21.999Z</time></trkpt><trkpt lat="40.02783845718494" lon="18.167128087462704"><ele>146.0</ele><time>2026-04-05T09:21:22.999Z</time></trkpt><trkpt lat="40.02796989772719" lon="18.167217381015604"><ele>146.0</ele><time>2026-04-05T09:21:23.999Z</time></trkpt><trkpt lat="40.028101776431214" lon="18.167311085952"><ele>146.0</ele><time>2026-04-05T09:21:24.999Z</time></trkpt><trkpt lat="40.02825667574986" lon="18.167411106095923"><ele>146.66666666666666</ele><time>2026-04-05T09:21:25.999Z</time></trkpt><trkpt lat="40.02841748342213" lon="18.167518626825213"><ele>147.33333333333334</ele><time>2026-04-05T09:21:26.999Z</time></trkpt><trkpt lat="40.028580330981725" lon="18.167625387780422"><ele>148.0</ele><time>2026-04-05T09:21:27.999Z</time></trkpt><trkpt lat="40.02874184613294" lon="18.167732597264063"><ele>148.0</ele><time>2026-04-05T09:21:28.999Z</time></trkpt><trkpt lat="40.028909555330266" lon="18.167836660339713"><ele>148.0</ele><time>2026-04-05T09:21:29.999Z</time></trkpt><trkpt lat="40.02907923859255" lon="18.167941524601023"><ele>148.0</ele><time>2026-04-05T09:21:30.999Z</time></trkpt><trkpt lat="40.029256692111865" lon="18.168037827395757"><ele>148.66666666666669</ele><time>2026-04-05T09:21:31.999Z</time></trkpt><trkpt lat="40.029434052537496" lon="18.168113265680955"><ele>149.33333333333334</ele><time>2026-04-05T09:21:32.999Z</time></trkpt><trkpt lat="40.02962185208534" lon="18.16816829943393"><ele>150.0</ele><time>2026-04-05T09:21:33.999Z</time></trkpt><trkpt lat="40.02980855892425" lon="18.168210347093293"><ele>150.66666666666666</ele><time>2026-04-05T09:21:34.999Z</time></trkpt><trkpt lat="40.02999533671845" lon="18.168248536429417"><ele>151.33333333333331</ele><time>2026-04-05T09:21:35.999Z</time></trkpt><trkpt lat="40.03017973262706" lon="18.168303886246253"><ele>152.0</ele><time>2026-04-05T09:21:36.999Z</time></trkpt><trkpt lat="40.03035340649932" lon="18.168361921873036"><ele>152.0</ele><time>2026-04-05T09:21:37.999Z</time></trkpt><trkpt lat="40.03051477632653" lon="18.168431076479894"><ele>152.0</ele><time>2026-04-05T09:21:38.999Z</time></trkpt><trkpt lat="40.030654076125835" lon="18.168493141252494"><ele>152.0</ele><time>2026-04-05T09:21:39.999Z</time></trkpt><trkpt lat="40.03076618820081" lon="18.168533181065737"><ele>152.0</ele><time>2026-04-05T09:21:40.999Z</time></trkpt><trkpt lat="40.03085814658931" lon="18.168570676360396"><ele>152.33333333333331</ele><time>2026-04-05T09:21:41.999Z</time></trkpt><trkpt lat="40.03093409238081" lon="18.16860839455547"><ele>152.66666666666666</ele><time>2026-04-05T09:21:42.999Z</time></trkpt><trkpt lat="40.03099020026865" lon="18.168664159731016"><ele>153.0</ele><time>2026-04-05T09:21:43.999Z</time></trkpt><trkpt lat="40.031046810004185" lon="18.1687313332236"><ele>153.33333333333334</ele><time>2026-04-05T09:21:44.999Z</time></trkpt><trkpt lat="40.03111095016202" lon="18.16878706517658"><ele>153.66666666666669</ele><time>2026-04-05T09:21:45.999Z</time></trkpt><trkpt lat="40.03117764486109" lon="18.168810972908947"><ele>154.0</ele><time>2026-04-05T09:21:46.999Z</time></trkpt><trkpt lat="40.031255180523" lon="18.16878937213831"><ele>154.0</ele><time>2026-04-05T09:21:47.999Z</time></trkpt><trkpt lat="40.03133025358733" lon="18.16873138272127"><ele>154.0</ele><time>2026-04-05T09:21:48.999Z</time></trkpt><trkpt lat="40.031412576292155" lon="18.1686687583158"><ele>154.0</ele><time>2026-04-05T09:21:49.999Z</time></trkpt><trkpt lat="40.0315040430388" lon="18.168616115685783"><ele>154.0</ele><time>2026-04-05T09:21:50.999Z</time></trkpt><trkpt lat="40.03163834822365" lon="18.168589174645472"><ele>154.0</ele><time>2026-04-05T09:21:51.999Z</time></trkpt><trkpt lat="40.03178618948393" lon="18.168591670252944"><ele>155.0</ele><time>2026-04-05T09:21:52.999Z</time></trkpt><trkpt lat="40.03194288206043" lon="18.168603801168697"><ele>156.0</ele><time>2026-04-05T09:21:53.999Z</time></trkpt><trkpt lat="40.03210415043894" lon="18.168620551403432"><ele>157.0</ele><time>2026-04-05T09:21:54.999Z</time></trkpt><trkpt lat="40.03226902549176" lon="18.16864943751276"><ele>157.0</ele><time>2026-04-05T09:21:55.999Z</time></trkpt><trkpt lat="40.03244340085314" lon="18.168676998243473"><ele>157.0</ele><time>2026-04-05T09:21:56.999Z</time></trkpt><trkpt lat="40.032611133664446" lon="18.16870618073608"><ele>157.0</ele><time>2026-04-05T09:21:57.999Z</time></trkpt><trkpt lat="40.03278434225468" lon="18.16873069813217"><ele>157.0</ele><time>2026-04-05T09:21:58.999Z</time></trkpt><trkpt lat="40.03294956551434" lon="18.168761071263734"><ele>157.0</ele><time>2026-04-05T09:21:59.999Z</time></trkpt><trkpt lat="40.0331024099294" lon="18.16877839672716"><ele>157.0</ele><time>2026-04-05T09:22:00.999Z</time></trkpt><trkpt lat="40.033242400762596" lon="18.16880109059226"><ele>158.0</ele><time>2026-04-05T09:22:01.999Z</time></trkpt><trkpt lat="40.03338557993407" lon="18.168835746806163"><ele>159.0</ele><time>2026-04-05T09:22:02.999Z</time></trkpt><trkpt lat="40.03352775195754" lon="18.168865535738696"><ele>160.0</ele><time>2026-04-05T09:22:03.999Z</time></trkpt><trkpt lat="40.03366520626346" lon="18.168892418104907"><ele>161.0</ele><time>2026-04-05T09:22:04.999Z</time></trkpt><trkpt lat="40.03379622813993" lon="18.16891636945483"><ele>161.0</ele><time>2026-04-05T09:22:05.999Z</time></trkpt><trkpt lat="40.03392133565376" lon="18.16894344952437"><ele>161.0</ele><time>2026-04-05T09:22:06.999Z</time></trkpt><trkpt lat="40.03403164532032" lon="18.16897233819054"><ele>161.0</ele><time>2026-04-05T09:22:07.999Z</time></trkpt><trkpt lat="40.034143763670784" lon="18.169011691956243"><ele>161.0</ele><time>2026-04-05T09:22:08.999Z</time></trkpt><trkpt lat="40.034241669962945" lon="18.169059083712423"><ele>160.8</ele><time>2026-04-05T09:22:09.999Z</time></trkpt><trkpt lat="40.034343494774696" lon="18.1690914757361"><ele>160.60000000000002</ele><time>2026-04-05T09:22:10.999Z</time></trkpt><trkpt lat="40.03443844489295" lon="18.169129392704924"><ele>160.4</ele><time>2026-04-05T09:22:11.999Z</time></trkpt><trkpt lat="40.034544602104766" lon="18.16916379286533"><ele>160.2</ele><time>2026-04-05T09:22:12.999Z</time></trkpt><trkpt lat="40.034659292248826" lon="18.169186853514248"><ele>160.0</ele><time>2026-04-05T09:22:13.999Z</time></trkpt><trkpt lat="40.03479960887769" lon="18.169217449928592"><ele>160.0</ele><time>2026-04-05T09:22:14.999Z</time></trkpt><trkpt lat="40.03496588274403" lon="18.169244662153854"><ele>160.0</ele><time>2026-04-05T09:22:15.999Z</time></trkpt><trkpt lat="40.03513802490781" lon="18.169281403343494"><ele>160.0</ele><time>2026-04-05T09:22:16.999Z</time></trkpt><trkpt lat="40.03531400898821" lon="18.169289686180825"><ele>160.66666666666669</ele><time>2026-04-05T09:22:17.999Z</time></trkpt><trkpt lat="40.03548873102434" lon="18.169293783081116"><ele>161.33333333333334</ele><time>2026-04-05T09:22:18.999Z</time></trkpt><trkpt lat="40.03566281696512" lon="18.16931118373163"><ele>162.0</ele><time>2026-04-05T09:22:19.999Z</time></trkpt><trkpt lat="40.03585081452114" lon="18.169328769948166"><ele>162.33333333333334</ele><time>2026-04-05T09:22:20.999Z</time></trkpt><trkpt lat="40.03603643332729" lon="18.169340621768402"><ele>162.66666666666669</ele><time>2026-04-05T09:22:21.999Z</time></trkpt><trkpt lat="40.036225106384336" lon="18.169351888110373"><ele>163.0</ele><time>2026-04-05T09:22:22.999Z</time></trkpt><trkpt lat="40.03641194596361" lon="18.169363569206837"><ele>163.0</ele><time>2026-04-05T09:22:23.999Z</time></trkpt><trkpt lat="40.03660277075938" lon="18.169383096603628"><ele>163.0</ele><time>2026-04-05T09:22:24.999Z</time></trkpt><trkpt lat="40.03679999682537" lon="18.169435972650138"><ele>163.0</ele><time>2026-04-05T09:22:25.999Z</time></trkpt><trkpt lat="40.036995139026196" lon="18.169486018775928"><ele>163.33333333333334</ele><time>2026-04-05T09:22:26.999Z</time></trkpt><trkpt lat="40.037190092460435" lon="18.169547887795193"><ele>163.66666666666666</ele><time>2026-04-05T09:22:27.999Z</time></trkpt><trkpt lat="40.0373956425937" lon="18.169614632459876"><ele>164.0</ele><time>2026-04-05T09:22:28.999Z</time></trkpt><trkpt lat="40.03759813894615" lon="18.169666117174334"><ele>164.0</ele><time>2026-04-05T09:22:29.999Z</time></trkpt><trkpt lat="40.03779699832727" lon="18.16970467247723"><ele>164.0</ele><time>2026-04-05T09:22:30.999Z</time></trkpt><trkpt lat="40.0379976658831" lon="18.16973176238009"><ele>164.0</ele><time>2026-04-05T09:22:31.999Z</time></trkpt><trkpt lat="40.038203733444675" lon="18.169758541016986"><ele>164.0</ele><time>2026-04-05T09:22:32.999Z</time></trkpt><trkpt lat="40.03839574376617" lon="18.169792747349792"><ele>164.0</ele><time>2026-04-05T09:22:33.999Z</time></trkpt><trkpt lat="40.038569408030284" lon="18.169826455944253"><ele>164.0</ele><time>2026-04-05T09:22:34.999Z</time></trkpt><trkpt lat="40.03873373429687" lon="18.16987367769058"><ele>164.66666666666666</ele><time>2026-04-05T09:22:35.999Z</time></trkpt><trkpt lat="40.03888962873057" lon="18.16993446305122"><ele>165.33333333333334</ele><time>2026-04-05T09:22:36.999Z</time></trkpt><trkpt lat="40.03905061976223" lon="18.17002079158727"><ele>166.0</ele><time>2026-04-05T09:22:37.999Z</time></trkpt><trkpt lat="40.03921270743139" lon="18.170107598879696"><ele>166.0</ele><time>2026-04-05T09:22:38.999Z</time></trkpt><trkpt lat="40.039379807388556" lon="18.170202830281585"><ele>166.0</ele><time>2026-04-05T09:22:39.999Z</time></trkpt><trkpt lat="40.03954397955559" lon="18.170296201906165"><ele>166.0</ele><time>2026-04-05T09:22:40.999Z</time></trkpt><trkpt lat="40.039715695598204" lon="18.170383708773542"><ele>166.0</ele><time>2026-04-05T09:22:41.999Z</time></trkpt><trkpt lat="40.03988933196961" lon="18.17047883362602"><ele>166.0</ele><time>2026-04-05T09:22:42.999Z</time></trkpt><trkpt lat="40.04006035394126" lon="18.17057331118732"><ele>166.0</ele><time>2026-04-05T09:22:43.999Z</time></trkpt><trkpt lat="40.04023344402713" lon="18.170673236363726"><ele>164.66666666666669</ele><time>2026-04-05T09:22:44.999Z</time></trkpt><trkpt lat="40.040410266658675" lon="18.170773043963795"><ele>163.33333333333334</ele><time>2026-04-05T09:22:45.999Z</time></trkpt><trkpt lat="40.04059484937775" lon="18.170876149985126"><ele>162.0</ele><time>2026-04-05T09:22:46.999Z</time></trkpt><trkpt lat="40.040783827354176" lon="18.170984177931746"><ele>161.0</ele><time>2026-04-05T09:22:47.999Z</time></trkpt><trkpt lat="40.04097716707131" lon="18.1710963569439"><ele>160.0</ele><time>2026-04-05T09:22:48.999Z</time></trkpt><trkpt lat="40.04116465571353" lon="18.171205894264016"><ele>159.0</ele><time>2026-04-05T09:22:49.999Z</time></trkpt><trkpt lat="40.04135807175179" lon="18.17130851604004"><ele>159.0</ele><time>2026-04-05T09:22:50.999Z</time></trkpt><trkpt lat="40.04155473551931" lon="18.171399923119957"><ele>159.0</ele><time>2026-04-05T09:22:51.999Z</time></trkpt><trkpt lat="40.04176273550553" lon="18.171471974826414"><ele>159.0</ele><time>2026-04-05T09:22:52.999Z</time></trkpt><trkpt lat="40.04197175830381" lon="18.171517543078558"><ele>158.66666666666666</ele><time>2026-04-05T09:22:53.999Z</time></trkpt><trkpt lat="40.04218771288929" lon="18.171547550137362"><ele>158.33333333333331</ele><time>2026-04-05T09:22:54.999Z</time></trkpt><trkpt lat="40.04240113261713" lon="18.171567049838334"><ele>158.0</ele><time>2026-04-05T09:22:55.999Z</time></trkpt><trkpt lat="40.04261688860791" lon="18.17158186714264"><ele>157.66666666666666</ele><time>2026-04-05T09:22:56.999Z</time></trkpt><trkpt lat="40.04283310992994" lon="18.171595008984326"><ele>157.33333333333334</ele><time>2026-04-05T09:22:57.999Z</time></trkpt><trkpt lat="40.04304667533186" lon="18.171601876169944"><ele>157.0</ele><time>2026-04-05T09:22:58.999Z</time></trkpt><trkpt lat="40.04326068449713" lon="18.171613804087674"><ele>156.5</ele><time>2026-04-05T09:22:59.999Z</time></trkpt><trkpt lat="40.04347541701711" lon="18.171621517054906"><ele>156.0</ele><time>2026-04-05T09:23:00.999Z</time></trkpt><trkpt lat="40.04371868616077" lon="18.1716399296531"><ele>156.0</ele><time>2026-04-05T09:23:01.999Z</time></trkpt><trkpt lat="40.043975852077374" lon="18.17166698044563"><ele>156.0</ele><time>2026-04-05T09:23:02.999Z</time></trkpt><trkpt lat="40.04426764021007" lon="18.171699831472633"><ele>157.0</ele><time>2026-04-05T09:23:03.999Z</time></trkpt><trkpt lat="40.04435581186535" lon="18.171690564166198"><ele>158.0</ele><time>2026-04-05T09:23:04.999Z</time></trkpt><trkpt lat="40.04457672559315" lon="18.17170394297866"><ele>159.0</ele><time>2026-04-05T09:23:05.999Z</time></trkpt><trkpt lat="40.044795124771376" lon="18.171714621520326"><ele>158.0</ele><time>2026-04-05T09:23:06.999Z</time></trkpt><trkpt lat="40.04501527643646" lon="18.171722091758465"><ele>157.0</ele><time>2026-04-05T09:23:07.999Z</time></trkpt><trkpt lat="40.04523816564783" lon="18.171721307858903"><ele>156.0</ele><time>2026-04-05T09:23:08.999Z</time></trkpt><trkpt lat="40.045453303968394" lon="18.171690567982974"><ele>156.0</ele><time>2026-04-05T09:23:09.999Z</time></trkpt><trkpt lat="40.04567204351823" lon="18.17164231076929"><ele>156.0</ele><time>2026-04-05T09:23:10.999Z</time></trkpt><trkpt lat="40.045884872283644" lon="18.17157420251307"><ele>156.0</ele><time>2026-04-05T09:23:11.999Z</time></trkpt><trkpt lat="40.04609440334774" lon="18.171486383275425"><ele>156.33333333333334</ele><time>2026-04-05T09:23:12.999Z</time></trkpt><trkpt lat="40.04630178899885" lon="18.17138586255525"><ele>156.66666666666669</ele><time>2026-04-05T09:23:13.999Z</time></trkpt><trkpt lat="40.04650497110355" lon="18.1712869942438"><ele>157.0</ele><time>2026-04-05T09:23:14.999Z</time></trkpt><trkpt lat="40.046707079534954" lon="18.17119050736256"><ele>157.0</ele><time>2026-04-05T09:23:15.999Z</time></trkpt><trkpt lat="40.046913883042755" lon="18.1710977919585"><ele>157.0</ele><time>2026-04-05T09:23:16.999Z</time></trkpt><trkpt lat="40.04711855444871" lon="18.17100869940162"><ele>157.0</ele><time>2026-04-05T09:23:17.999Z</time></trkpt><trkpt lat="40.04731761669542" lon="18.170904241771314"><ele>157.0</ele><time>2026-04-05T09:23:18.999Z</time></trkpt><trkpt lat="40.04751437340844" lon="18.17079011259616"><ele>157.0</ele><time>2026-04-05T09:23:19.999Z</time></trkpt><trkpt lat="40.0477090334248" lon="18.170668246574664"><ele>157.0</ele><time>2026-04-05T09:23:20.999Z</time></trkpt><trkpt lat="40.04790303296568" lon="18.170546724283437"><ele>157.0</ele><time>2026-04-05T09:23:21.999Z</time></trkpt><trkpt lat="40.048097442997125" lon="18.170424918746722"><ele>157.0</ele><time>2026-04-05T09:23:22.999Z</time></trkpt><trkpt lat="40.0482940306636" lon="18.170294013919687"><ele>157.0</ele><time>2026-04-05T09:23:23.999Z</time></trkpt><trkpt lat="40.04849445813169" lon="18.170170400036703"><ele>156.66666666666669</ele><time>2026-04-05T09:23:24.999Z</time></trkpt><trkpt lat="40.048695766079696" lon="18.17004819995563"><ele>156.33333333333334</ele><time>2026-04-05T09:23:25.999Z</time></trkpt><trkpt lat="40.048893022736074" lon="18.169924220199857"><ele>156.0</ele><time>2026-04-05T09:23:26.999Z</time></trkpt><trkpt lat="40.04909139649678" lon="18.169785518634413"><ele>156.0</ele><time>2026-04-05T09:23:27.999Z</time></trkpt><trkpt lat="40.049287513829285" lon="18.16965001080385"><ele>156.0</ele><time>2026-04-05T09:23:28.999Z</time></trkpt><trkpt lat="40.04949029054505" lon="18.169530249892965"><ele>156.0</ele><time>2026-04-05T09:23:29.999Z</time></trkpt><trkpt lat="40.04969770065533" lon="18.169419056987774"><ele>156.0</ele><time>2026-04-05T09:23:30.999Z</time></trkpt><trkpt lat="40.04990800766662" lon="18.169314637400895"><ele>156.0</ele><time>2026-04-05T09:23:31.999Z</time></trkpt><trkpt lat="40.05012268796605" lon="18.169225876041498"><ele>154.33333333333334</ele><time>2026-04-05T09:23:32.999Z</time></trkpt><trkpt lat="40.05033518586952" lon="18.169145729024034"><ele>152.66666666666669</ele><time>2026-04-05T09:23:33.999Z</time></trkpt><trkpt lat="40.050553047132475" lon="18.169086786573967"><ele>151.0</ele><time>2026-04-05T09:23:34.998Z</time></trkpt><trkpt lat="40.05077601935972" lon="18.169036984265716"><ele>151.66666666666669</ele><time>2026-04-05T09:23:35.998Z</time></trkpt><trkpt lat="40.050997951897656" lon="18.168981540883994"><ele>152.33333333333334</ele><time>2026-04-05T09:23:36.998Z</time></trkpt><trkpt lat="40.0512147209236" lon="18.168918008957327"><ele>153.0</ele><time>2026-04-05T09:23:37.998Z</time></trkpt><trkpt lat="40.05143310187525" lon="18.168855084573053"><ele>152.33333333333334</ele><time>2026-04-05T09:23:38.998Z</time></trkpt><trkpt lat="40.05164605926488" lon="18.168786786957998"><ele>151.66666666666669</ele><time>2026-04-05T09:23:39.998Z</time></trkpt><trkpt lat="40.05185975567195" lon="18.168728996231373"><ele>151.0</ele><time>2026-04-05T09:23:40.998Z</time></trkpt><trkpt lat="40.05207673426353" lon="18.168670183882266"><ele>151.0</ele><time>2026-04-05T09:23:41.998Z</time></trkpt><trkpt lat="40.052296131166806" lon="18.16861245870185"><ele>151.0</ele><time>2026-04-05T09:23:42.998Z</time></trkpt><trkpt lat="40.052516042768154" lon="18.168561247676635"><ele>151.0</ele><time>2026-04-05T09:23:43.998Z</time></trkpt><trkpt lat="40.0527329564325" lon="18.16849812001182"><ele>149.66666666666669</ele><time>2026-04-05T09:23:44.998Z</time></trkpt><trkpt lat="40.05295478757175" lon="18.16844216308929"><ele>148.33333333333334</ele><time>2026-04-05T09:23:45.998Z</time></trkpt><trkpt lat="40.053176745312896" lon="18.16842974137679"><ele>147.0</ele><time>2026-04-05T09:23:46.998Z</time></trkpt><trkpt lat="40.05339992776863" lon="18.168450312779505"><ele>144.5</ele><time>2026-04-05T09:23:47.998Z</time></trkpt><trkpt lat="40.05362973346064" lon="18.16847735831437"><ele>142.0</ele><time>2026-04-05T09:23:48.998Z</time></trkpt><trkpt lat="40.05385809391744" lon="18.168489581484874"><ele>142.0</ele><time>2026-04-05T09:23:49.998Z</time></trkpt><trkpt lat="40.05408602498982" lon="18.168490023989918"><ele>142.0</ele><time>2026-04-05T09:23:50.998Z</time></trkpt><trkpt lat="40.05431563550298" lon="18.168477106051757"><ele>139.5</ele><time>2026-04-05T09:23:51.998Z</time></trkpt><trkpt lat="40.05454467942743" lon="18.168474016676807"><ele>137.0</ele><time>2026-04-05T09:23:52.998Z</time></trkpt><trkpt lat="40.05477419654467" lon="18.16847501127174"><ele>136.0</ele><time>2026-04-05T09:23:53.998Z</time></trkpt><trkpt lat="40.05499386003455" lon="18.168478635823803"><ele>135.0</ele><time>2026-04-05T09:23:54.998Z</time></trkpt><trkpt lat="40.0552184444013" lon="18.168500637188703"><ele>134.0</ele><time>2026-04-05T09:23:55.998Z</time></trkpt><trkpt lat="40.05545062291507" lon="18.1685004076519"><ele>134.0</ele><time>2026-04-05T09:23:56.998Z</time></trkpt><trkpt lat="40.05570359522788" lon="18.168487347439644"><ele>134.0</ele><time>2026-04-05T09:23:57.998Z</time></trkpt><trkpt lat="40.05596548984755" lon="18.168495304040174"><ele>132.0</ele><time>2026-04-05T09:23:58.998Z</time></trkpt><trkpt lat="40.056219648773784" lon="18.168505043319772"><ele>130.0</ele><time>2026-04-05T09:23:59.998Z</time></trkpt><trkpt lat="40.05647855559727" lon="18.16849274068784"><ele>129.0</ele><time>2026-04-05T09:24:00.998Z</time></trkpt><trkpt lat="40.056743964590964" lon="18.168448057576352"><ele>128.0</ele><time>2026-04-05T09:24:01.998Z</time></trkpt><trkpt lat="40.05699562929445" lon="18.168384244008152"><ele>128.0</ele><time>2026-04-05T09:24:02.998Z</time></trkpt><trkpt lat="40.05724532585686" lon="18.16831857076885"><ele>128.0</ele><time>2026-04-05T09:24:03.998Z</time></trkpt><trkpt lat="40.05749245133967" lon="18.168250522929647"><ele>128.5</ele><time>2026-04-05T09:24:04.998Z</time></trkpt><trkpt lat="40.057738525681394" lon="18.168187896080294"><ele>129.0</ele><time>2026-04-05T09:24:05.998Z</time></trkpt><trkpt lat="40.05798422360098" lon="18.168133153561943"><ele>129.0</ele><time>2026-04-05T09:24:06.998Z</time></trkpt><trkpt lat="40.05822163353573" lon="18.168074886102563"><ele>129.0</ele><time>2026-04-05T09:24:07.998Z</time></trkpt><trkpt lat="40.05845698579528" lon="18.16801778704835"><ele>128.0</ele><time>2026-04-05T09:24:08.998Z</time></trkpt><trkpt lat="40.05869141408291" lon="18.167958921586756"><ele>127.0</ele><time>2026-04-05T09:24:09.998Z</time></trkpt><trkpt lat="40.058922933712275" lon="18.167895355886134"><ele>126.5</ele><time>2026-04-05T09:24:10.998Z</time></trkpt><trkpt lat="40.05915186359904" lon="18.167826077805994"><ele>126.0</ele><time>2026-04-05T09:24:11.998Z</time></trkpt><trkpt lat="40.059384379505836" lon="18.167763442472392"><ele>126.0</ele><time>2026-04-05T09:24:12.998Z</time></trkpt><trkpt lat="40.05961439832963" lon="18.167713252575354"><ele>126.0</ele><time>2026-04-05T09:24:13.998Z</time></trkpt><trkpt lat="40.05984126839684" lon="18.167648662952534"><ele>125.5</ele><time>2026-04-05T09:24:14.998Z</time></trkpt><trkpt lat="40.0600684722757" lon="18.16758252420935"><ele>125.0</ele><time>2026-04-05T09:24:15.998Z</time></trkpt><trkpt lat="40.06029371842341" lon="18.167516056626507"><ele>125.0</ele><time>2026-04-05T09:24:16.998Z</time></trkpt><trkpt lat="40.06052229712654" lon="18.16745489735916"><ele>125.0</ele><time>2026-04-05T09:24:17.998Z</time></trkpt><trkpt lat="40.060746445046625" lon="18.16738808728596"><ele>126.5</ele><time>2026-04-05T09:24:18.998Z</time></trkpt><trkpt lat="40.06096654465514" lon="18.16732445902003"><ele>128.0</ele><time>2026-04-05T09:24:19.998Z</time></trkpt><trkpt lat="40.06118974050082" lon="18.167258062469877"><ele>128.0</ele><time>2026-04-05T09:24:20.998Z</time></trkpt><trkpt lat="40.06141449089617" lon="18.167197354227714"><ele>128.0</ele><time>2026-04-05T09:24:21.998Z</time></trkpt><trkpt lat="40.061640108227486" lon="18.167134607870846"><ele>127.5</ele><time>2026-04-05T09:24:22.998Z</time></trkpt><trkpt lat="40.06187001245336" lon="18.167057247080372"><ele>127.0</ele><time>2026-04-05T09:24:23.998Z</time></trkpt><trkpt lat="40.062075224758495" lon="18.166983976788828"><ele>127.0</ele><time>2026-04-05T09:24:24.998Z</time></trkpt><trkpt lat="40.062249678323255" lon="18.166915656923713"><ele>127.0</ele><time>2026-04-05T09:24:25.998Z</time></trkpt><trkpt lat="40.06242600422187" lon="18.16681904807585"><ele>127.0</ele><time>2026-04-05T09:24:26.998Z</time></trkpt><trkpt lat="40.062610436419455" lon="18.16667920501394"><ele>126.66666666666667</ele><time>2026-04-05T09:24:27.998Z</time></trkpt><trkpt lat="40.06278471459835" lon="18.166519317463358"><ele>126.33333333333334</ele><time>2026-04-05T09:24:28.998Z</time></trkpt><trkpt lat="40.06294342576578" lon="18.166343308607818"><ele>126.0</ele><time>2026-04-05T09:24:29.998Z</time></trkpt><trkpt lat="40.06310889265383" lon="18.166159931567645"><ele>126.0</ele><time>2026-04-05T09:24:30.998Z</time></trkpt><trkpt lat="40.063274932922674" lon="18.165986630681367"><ele>126.0</ele><time>2026-04-05T09:24:31.998Z</time></trkpt><trkpt lat="40.063451226720524" lon="18.165806107085718"><ele>126.0</ele><time>2026-04-05T09:24:32.998Z</time></trkpt><trkpt lat="40.06359345098226" lon="18.16565674988264"><ele>125.33333333333334</ele><time>2026-04-05T09:24:33.998Z</time></trkpt><trkpt lat="40.06374200141161" lon="18.165534815096954"><ele>124.66666666666667</ele><time>2026-04-05T09:24:34.998Z</time></trkpt><trkpt lat="40.0638874915943" lon="18.165438132119817"><ele>124.0</ele><time>2026-04-05T09:24:35.998Z</time></trkpt><trkpt lat="40.064040529362444" lon="18.165348843796263"><ele>124.0</ele><time>2026-04-05T09:24:36.998Z</time></trkpt><trkpt lat="40.06421598240327" lon="18.16526174410386"><ele>124.0</ele><time>2026-04-05T09:24:37.998Z</time></trkpt><trkpt lat="40.064392849298926" lon="18.16519542518705"><ele>124.0</ele><time>2026-04-05T09:24:38.998Z</time></trkpt><trkpt lat="40.06457078043902" lon="18.16513723013391"><ele>124.0</ele><time>2026-04-05T09:24:39.998Z</time></trkpt><trkpt lat="40.064752200213924" lon="18.16509837737837"><ele>124.0</ele><time>2026-04-05T09:24:40.998Z</time></trkpt><trkpt lat="40.06493873504707" lon="18.16506727183077"><ele>124.0</ele><time>2026-04-05T09:24:41.998Z</time></trkpt><trkpt lat="40.06510574146915" lon="18.165060247537138"><ele>124.0</ele><time>2026-04-05T09:24:42.998Z</time></trkpt><trkpt lat="40.065262660002894" lon="18.16506383900063"><ele>124.0</ele><time>2026-04-05T09:24:43.998Z</time></trkpt><trkpt lat="40.06541416439251" lon="18.165096022905946"><ele>124.0</ele><time>2026-04-05T09:24:44.998Z</time></trkpt><trkpt lat="40.06557913777283" lon="18.16515348559352"><ele>124.0</ele><time>2026-04-05T09:24:45.998Z</time></trkpt><trkpt lat="40.065744246889935" lon="18.16516677149382"><ele>124.0</ele><time>2026-04-05T09:24:46.998Z</time></trkpt><trkpt lat="40.065908969667774" lon="18.165123094809154"><ele>124.0</ele><time>2026-04-05T09:24:47.998Z</time></trkpt><trkpt lat="40.06605999825175" lon="18.16505083178807"><ele>124.0</ele><time>2026-04-05T09:24:48.998Z</time></trkpt><trkpt lat="40.06622090571791" lon="18.16495713910778"><ele>124.0</ele><time>2026-04-05T09:24:49.998Z</time></trkpt><trkpt lat="40.0663819356592" lon="18.164881313865365"><ele>124.0</ele><time>2026-04-05T09:24:50.998Z</time></trkpt><trkpt lat="40.066539741340215" lon="18.164812932335117"><ele>123.80000000000001</ele><time>2026-04-05T09:24:51.998Z</time></trkpt><trkpt lat="40.06667239240206" lon="18.164765557932967"><ele>123.60000000000001</ele><time>2026-04-05T09:24:52.998Z</time></trkpt><trkpt lat="40.06678427793182" lon="18.164733483386993"><ele>123.4</ele><time>2026-04-05T09:24:53.998Z</time></trkpt><trkpt lat="40.06686684804145" lon="18.16469200521338"><ele>123.2</ele><time>2026-04-05T09:24:54.998Z</time></trkpt><trkpt lat="40.06695543398546" lon="18.164641341935848"><ele>123.0</ele><time>2026-04-05T09:24:56.998Z</time></trkpt><trkpt lat="40.067035938756064" lon="18.164576144952136"><ele>123.0</ele><time>2026-04-05T09:25:00.998Z</time></trkpt><trkpt lat="40.0670980003385" lon="18.164521810461302"><ele>123.00000000000001</ele><time>2026-04-05T09:25:01.998Z</time></trkpt><trkpt lat="40.06719162453423" lon="18.164447642851247"><ele>123.00000000000001</ele><time>2026-04-05T09:25:02.998Z</time></trkpt><trkpt lat="40.06730383037297" lon="18.16438459232879"><ele>123.0</ele><time>2026-04-05T09:25:03.998Z</time></trkpt><trkpt lat="40.06742383398047" lon="18.164318872635253"><ele>123.0</ele><time>2026-04-05T09:25:04.998Z</time></trkpt><trkpt lat="40.06753548154351" lon="18.164248116662897"><ele>123.0</ele><time>2026-04-05T09:25:05.998Z</time></trkpt><trkpt lat="40.06764002485899" lon="18.164178881760826"><ele>123.00000000000001</ele><time>2026-04-05T09:25:06.998Z</time></trkpt><trkpt lat="40.067741718185985" lon="18.16412581484295"><ele>123.00000000000001</ele><time>2026-04-05T09:25:07.998Z</time></trkpt><trkpt lat="40.067834996422754" lon="18.164071418159455"><ele>123.0</ele><time>2026-04-05T09:25:08.998Z</time></trkpt><trkpt lat="40.067917627774435" lon="18.16401618651076"><ele>123.0</ele><time>2026-04-05T09:25:09.998Z</time></trkpt><trkpt lat="40.06800788293283" lon="18.16397237151697"><ele>123.0</ele><time>2026-04-05T09:25:10.998Z</time></trkpt><trkpt lat="40.068091138669025" lon="18.163927427304408"><ele>123.0</ele><time>2026-04-05T09:25:11.998Z</time></trkpt><trkpt lat="40.06816914679056" lon="18.163883211239085"><ele>123.0</ele><time>2026-04-05T09:25:12.998Z</time></trkpt><trkpt lat="40.06824473263173" lon="18.16384522757563"><ele>123.0</ele><time>2026-04-05T09:25:13.998Z</time></trkpt><trkpt lat="40.06831787422731" lon="18.163807038933196"><ele>123.0</ele><time>2026-04-05T09:25:14.998Z</time></trkpt><trkpt lat="40.06840052703684" lon="18.16377632201007"><ele>123.0</ele><time>2026-04-05T09:25:15.998Z</time></trkpt><trkpt lat="40.06848603028982" lon="18.163736042509825"><ele>123.0</ele><time>2026-04-05T09:25:16.998Z</time></trkpt><trkpt lat="40.06856845179535" lon="18.163692425644147"><ele>123.0</ele><time>2026-04-05T09:25:17.998Z</time></trkpt><trkpt lat="40.068639264131555" lon="18.163656839032647"><ele>123.0</ele><time>2026-04-05T09:25:18.998Z</time></trkpt><trkpt lat="40.0687293930605" lon="18.16361593022454"><ele>123.0</ele><time>2026-04-05T09:25:20.998Z</time></trkpt><trkpt lat="40.06879589317696" lon="18.16357560337731"><ele>123.0</ele><time>2026-04-05T09:25:23.998Z</time></trkpt><trkpt lat="40.06888682354384" lon="18.16361006358864"><ele>123.0</ele><time>2026-04-05T09:25:27.998Z</time></trkpt><trkpt lat="40.06896057524818" lon="18.163741235608946"><ele>123.0</ele><time>2026-04-05T09:25:29.998Z</time></trkpt><trkpt lat="40.06901335596226" lon="18.163883201808474"><ele>123.00000000000001</ele><time>2026-04-05T09:25:31.998Z</time></trkpt><trkpt lat="40.0690784700452" lon="18.164004036776674"><ele>123.00000000000001</ele><time>2026-04-05T09:25:33.998Z</time></trkpt><trkpt lat="40.069134157666824" lon="18.16411078036638"><ele>123.0</ele><time>2026-04-05T09:25:35.998Z</time></trkpt><trkpt lat="40.06918896569954" lon="18.164212427536317"><ele>123.0</ele><time>2026-04-05T09:25:37.998Z</time></trkpt><trkpt lat="40.06924203505581" lon="18.164316875582188"><ele>122.85714285714288</ele><time>2026-04-05T09:25:39.998Z</time></trkpt><trkpt lat="40.06928564084059" lon="18.16440015418686"><ele>122.71428571428572</ele><time>2026-04-05T09:25:42.998Z</time></trkpt><trkpt lat="40.06933376186666" lon="18.164469045508184"><ele>122.57142857142857</ele><time>2026-04-05T09:25:48.998Z</time></trkpt><trkpt lat="40.06940922414821" lon="18.164440058138425"><ele>122.42857142857143</ele><time>2026-04-05T09:25:50.998Z</time></trkpt><trkpt lat="40.06946178911138" lon="18.16439301513323"><ele>122.28571428571428</ele><time>2026-04-05T09:25:51.998Z</time></trkpt><trkpt lat="40.06952324557416" lon="18.16433481825185"><ele>122.14285714285712</ele><time>2026-04-05T09:25:52.998Z</time></trkpt><trkpt lat="40.06958273247023" lon="18.164271550658256"><ele>121.99999999999999</ele><time>2026-04-05T09:25:53.998Z</time></trkpt><trkpt lat="40.06963782581725" lon="18.164215949528977"><ele>122.0</ele><time>2026-04-05T09:25:54.998Z</time></trkpt><trkpt lat="40.0696936440068" lon="18.16416090518671"><ele>121.99999999999999</ele><time>2026-04-05T09:25:55.998Z</time></trkpt><trkpt lat="40.06975460713392" lon="18.164097313047883"><ele>121.99999999999999</ele><time>2026-04-05T09:25:56.998Z</time></trkpt><trkpt lat="40.069824388344834" lon="18.16403534676482"><ele>122.0</ele><time>2026-04-05T09:25:57.998Z</time></trkpt><trkpt lat="40.06990680364995" lon="18.16396853315867"><ele>122.0</ele><time>2026-04-05T09:25:58.998Z</time></trkpt><trkpt lat="40.070007153856814" lon="18.163880176966444"><ele>121.8</ele><time>2026-04-05T09:25:59.998Z</time></trkpt><trkpt lat="40.07008739271508" lon="18.163818174740154"><ele>121.6</ele><time>2026-04-05T09:26:00.998Z</time></trkpt><trkpt lat="40.070148962477234" lon="18.163762333230967"><ele>121.39999999999999</ele><time>2026-04-05T09:26:01.998Z</time></trkpt><trkpt lat="40.070201177208546" lon="18.163715132602324"><ele>121.19999999999999</ele><time>2026-04-05T09:26:02.998Z</time></trkpt><trkpt lat="40.07029558355369" lon="18.16364190293912"><ele>121.0</ele><time>2026-04-05T09:26:04.998Z</time></trkpt><trkpt lat="40.070389224739024" lon="18.163559391003208"><ele>121.0</ele><time>2026-04-05T09:26:06.997Z</time></trkpt><trkpt lat="40.07045230173221" lon="18.163511846673394"><ele>121.0</ele><time>2026-04-05T09:26:07.997Z</time></trkpt><trkpt lat="40.07050941818618" lon="18.163464703736167"><ele>121.0</ele><time>2026-04-05T09:26:08.997Z</time></trkpt><trkpt lat="40.070607904389966" lon="18.163381388324193"><ele>121.0</ele><time>2026-04-05T09:26:10.997Z</time></trkpt><trkpt lat="40.07067885843179" lon="18.16328913809519"><ele>121.0</ele><time>2026-04-05T09:26:12.997Z</time></trkpt><trkpt lat="40.07074488781749" lon="18.16319672816187"><ele>121.00000000000001</ele><time>2026-04-05T09:26:14.997Z</time></trkpt><trkpt lat="40.07080780039216" lon="18.163123400357723"><ele>121.0</ele><time>2026-04-05T09:26:16.997Z</time></trkpt><trkpt lat="40.07085770561497" lon="18.16305705773087"><ele>121.0</ele><time>2026-04-05T09:26:18.997Z</time></trkpt><trkpt lat="40.07092337477689" lon="18.163008603292376"><ele>121.0</ele><time>2026-04-05T09:26:22.997Z</time></trkpt><trkpt lat="40.07100659494709" lon="18.16307583886537"><ele>121.00000000000001</ele><time>2026-04-05T09:26:25.997Z</time></trkpt><trkpt lat="40.07104423179987" lon="18.163144289543375"><ele>121.0</ele><time>2026-04-05T09:26:26.997Z</time></trkpt><trkpt lat="40.07108322715743" lon="18.163209592593493"><ele>121.16666666666667</ele><time>2026-04-05T09:26:27.997Z</time></trkpt><trkpt lat="40.07113399029918" lon="18.163288872145042"><ele>121.33333333333334</ele><time>2026-04-05T09:26:28.997Z</time></trkpt><trkpt lat="40.07119789160152" lon="18.1633699695547"><ele>121.5</ele><time>2026-04-05T09:26:29.997Z</time></trkpt><trkpt lat="40.071260425199895" lon="18.163454557970013"><ele>121.66666666666666</ele><time>2026-04-05T09:26:30.997Z</time></trkpt><trkpt lat="40.07132342700449" lon="18.163538880207817"><ele>121.83333333333333</ele><time>2026-04-05T09:26:31.997Z</time></trkpt><trkpt lat="40.07137352560995" lon="18.163618159293705"><ele>122.0</ele><time>2026-04-05T09:26:32.997Z</time></trkpt><trkpt lat="40.07142393316833" lon="18.16368943404135"><ele>121.99999999999999</ele><time>2026-04-05T09:26:33.997Z</time></trkpt><trkpt lat="40.07146871602148" lon="18.163756818398422"><ele>122.0</ele><time>2026-04-05T09:26:34.997Z</time></trkpt><trkpt lat="40.07152042028177" lon="18.16382739908251"><ele>122.0</ele><time>2026-04-05T09:26:35.997Z</time></trkpt><trkpt lat="40.07156907787806" lon="18.16389906823068"><ele>122.0</ele><time>2026-04-05T09:26:36.997Z</time></trkpt><trkpt lat="40.0716092451118" lon="18.163967498620654"><ele>121.99999999999999</ele><time>2026-04-05T09:26:37.997Z</time></trkpt><trkpt lat="40.071645154896615" lon="18.16403688097201"><ele>122.0</ele><time>2026-04-05T09:26:38.997Z</time></trkpt><trkpt lat="40.07172182076125" lon="18.16415761645257"><ele>121.0</ele><time>2026-04-05T09:26:40.997Z</time></trkpt><trkpt lat="40.07178842103891" lon="18.164260445807667"><ele>121.0</ele><time>2026-04-05T09:26:42.997Z</time></trkpt><trkpt lat="40.071840929525244" lon="18.164354632863283"><ele>121.0</ele><time>2026-04-05T09:26:44.997Z</time></trkpt><trkpt lat="40.0718678516994" lon="18.16445775298009"><ele>121.0</ele><time>2026-04-05T09:26:47.997Z</time></trkpt><trkpt lat="40.071914307521475" lon="18.164515524001217"><ele>121.0</ele><time>2026-04-05T09:26:50.997Z</time></trkpt></trkseg><trkseg><trkpt lat="40.07200475159666" lon="18.16455604293995"><ele>121.0</ele><time>2026-04-05T10:39:55.992Z</time></trkpt><trkpt lat="40.072084661309205" lon="18.16467344284009"><ele>121.0</ele><time>2026-04-05T10:39:57.992Z</time></trkpt><trkpt lat="40.07216308456213" lon="18.164793077319864"><ele>121.0</ele><time>2026-04-05T10:39:58.992Z</time></trkpt><trkpt lat="40.072250759137404" lon="18.164975766259488"><ele>121.0</ele><time>2026-04-05T10:39:59.992Z</time></trkpt><trkpt lat="40.072356732511864" lon="18.165133082927508"><ele>120.8</ele><time>2026-04-05T10:40:00.992Z</time></trkpt><trkpt lat="40.072433982317186" lon="18.16525508457723"><ele>120.6</ele><time>2026-04-05T10:40:01.992Z</time></trkpt><trkpt lat="40.07249426482031" lon="18.165356670970823"><ele>120.4</ele><time>2026-04-05T10:40:02.992Z</time></trkpt><trkpt lat="40.072555264179485" lon="18.165452630844083"><ele>120.2</ele><time>2026-04-05T10:40:03.992Z</time></trkpt><trkpt lat="40.07261721745223" lon="18.165543335890217"><ele>120.0</ele><time>2026-04-05T10:40:04.992Z</time></trkpt><trkpt lat="40.07267014336839" lon="18.165635906744225"><ele>119.6</ele><time>2026-04-05T10:40:05.992Z</time></trkpt><trkpt lat="40.072717085348344" lon="18.165731382441923"><ele>119.2</ele><time>2026-04-05T10:40:06.992Z</time></trkpt><trkpt lat="40.0727696087603" lon="18.165837037895542"><ele>118.80000000000001</ele><time>2026-04-05T10:40:07.992Z</time></trkpt><trkpt lat="40.07280685479699" lon="18.165957390857717"><ele>118.4</ele><time>2026-04-05T10:40:08.992Z</time></trkpt><trkpt lat="40.0728241564984" lon="18.166076506490576"><ele>118.0</ele><time>2026-04-05T10:40:09.992Z</time></trkpt><trkpt lat="40.07281057620983" lon="18.166185037883906"><ele>118.0</ele><time>2026-04-05T10:40:10.992Z</time></trkpt><trkpt lat="40.07280534696724" lon="18.166280872422792"><ele>118.0</ele><time>2026-04-05T10:40:11.992Z</time></trkpt><trkpt lat="40.07280524119403" lon="18.166368298051296"><ele>118.0</ele><time>2026-04-05T10:40:12.992Z</time></trkpt><trkpt lat="40.07280501095733" lon="18.16645181225918"><ele>118.0</ele><time>2026-04-05T10:40:13.992Z</time></trkpt><trkpt lat="40.072788594486816" lon="18.166533311918705"><ele>118.0</ele><time>2026-04-05T10:40:14.992Z</time></trkpt><trkpt lat="40.07277715923359" lon="18.16662594133059"><ele>118.0</ele><time>2026-04-05T10:40:15.992Z</time></trkpt><trkpt lat="40.072766690202336" lon="18.166722378566984"><ele>118.0</ele><time>2026-04-05T10:40:16.992Z</time></trkpt><trkpt lat="40.07274399247433" lon="18.16682515792643"><ele>118.0</ele><time>2026-04-05T10:40:17.992Z</time></trkpt><trkpt lat="40.072726776201776" lon="18.166939375718528"><ele>118.00000000000001</ele><time>2026-04-05T10:40:18.99Z</time></trkpt><trkpt lat="40.07271582906693" lon="18.16704460196287"><ele>118.00000000000001</ele><time>2026-04-05T10:40:19.99Z</time></trkpt><trkpt lat="40.07270279386354" lon="18.167161248331535"><ele>118.0</ele><time>2026-04-05T10:40:20.99Z</time></trkpt><trkpt lat="40.072686614115526" lon="18.167290464684086"><ele>118.0</ele><time>2026-04-05T10:40:21.99Z</time></trkpt><trkpt lat="40.072669829808014" lon="18.167418280081453"><ele>118.4</ele><time>2026-04-05T10:40:22.99Z</time></trkpt><trkpt lat="40.07264485292701" lon="18.167545640446733"><ele>118.80000000000001</ele><time>2026-04-05T10:40:23.99Z</time></trkpt><trkpt lat="40.07261744002098" lon="18.16766943184846"><ele>119.2</ele><time>2026-04-05T10:40:24.99Z</time></trkpt><trkpt lat="40.07259543966766" lon="18.16779273480739"><ele>119.6</ele><time>2026-04-05T10:40:25.99Z</time></trkpt><trkpt lat="40.072572233046" lon="18.16791761020141"><ele>120.0</ele><time>2026-04-05T10:40:26.99Z</time></trkpt><trkpt lat="40.07255333249568" lon="18.16803370574748"><ele>120.0</ele><time>2026-04-05T10:40:27.99Z</time></trkpt><trkpt lat="40.072529993052285" lon="18.16815619285962"><ele>120.0</ele><time>2026-04-05T10:40:28.99Z</time></trkpt><trkpt lat="40.07251044004281" lon="18.168277698201173"><ele>120.0</ele><time>2026-04-05T10:40:29.99Z</time></trkpt><trkpt lat="40.072488356377136" lon="18.16840540890262"><ele>120.0</ele><time>2026-04-05T10:40:30.99Z</time></trkpt><trkpt lat="40.0724672178106" lon="18.168532419505944"><ele>120.0</ele><time>2026-04-05T10:40:31.989Z</time></trkpt><trkpt lat="40.072448642857964" lon="18.16865283267558"><ele>120.0</ele><time>2026-04-05T10:40:32.989Z</time></trkpt><trkpt lat="40.07243139541125" lon="18.168763848974223"><ele>120.0</ele><time>2026-04-05T10:40:33.989Z</time></trkpt><trkpt lat="40.0724137307288" lon="18.16886836309436"><ele>120.0</ele><time>2026-04-05T10:40:34.989Z</time></trkpt><trkpt lat="40.07240055784572" lon="18.168976585529418"><ele>120.0</ele><time>2026-04-05T10:40:35.989Z</time></trkpt><trkpt lat="40.07238297734907" lon="18.169092098530136"><ele>120.0</ele><time>2026-04-05T10:40:36.989Z</time></trkpt><trkpt lat="40.07235700283538" lon="18.169202436400724"><ele>120.0</ele><time>2026-04-05T10:40:37.989Z</time></trkpt><trkpt lat="40.072332912898574" lon="18.169303700187527"><ele>120.0</ele><time>2026-04-05T10:40:38.989Z</time></trkpt><trkpt lat="40.07231261771086" lon="18.16939794255875"><ele>120.0</ele><time>2026-04-05T10:40:39.989Z</time></trkpt><trkpt lat="40.0722930895369" lon="18.16948428361828"><ele>120.0</ele><time>2026-04-05T10:40:40.989Z</time></trkpt><trkpt lat="40.07226559167799" lon="18.169655339536565"><ele>120.0</ele><time>2026-04-05T10:40:42.989Z</time></trkpt><trkpt lat="40.072260872903115" lon="18.169762682626363"><ele>120.0</ele><time>2026-04-05T10:40:43.989Z</time></trkpt><trkpt lat="40.0722502059129" lon="18.169874441458788"><ele>120.0</ele><time>2026-04-05T10:40:44.989Z</time></trkpt><trkpt lat="40.072240139513475" lon="18.169980320765426"><ele>120.2</ele><time>2026-04-05T10:40:45.989Z</time></trkpt><trkpt lat="40.07222507763723" lon="18.170092423134243"><ele>120.4</ele><time>2026-04-05T10:40:46.989Z</time></trkpt><trkpt lat="40.07220677014377" lon="18.170225106874565"><ele>120.6</ele><time>2026-04-05T10:40:47.989Z</time></trkpt><trkpt lat="40.07216240729568" lon="18.170374066331114"><ele>120.8</ele><time>2026-04-05T10:40:48.989Z</time></trkpt><trkpt lat="40.072132792887295" lon="18.170508739045786"><ele>121.0</ele><time>2026-04-05T10:40:49.989Z</time></trkpt><trkpt lat="40.072109943566794" lon="18.17064571132352"><ele>121.00000000000001</ele><time>2026-04-05T10:40:50.989Z</time></trkpt><trkpt lat="40.07208699010002" lon="18.17076457953799"><ele>121.0</ele><time>2026-04-05T10:40:51.989Z</time></trkpt><trkpt lat="40.07206654510734" lon="18.170875989401665"><ele>121.0</ele><time>2026-04-05T10:40:52.989Z</time></trkpt><trkpt lat="40.072062642383344" lon="18.170976449124353"><ele>121.0</ele><time>2026-04-05T10:40:53.989Z</time></trkpt><trkpt lat="40.072058296707944" lon="18.171059244291705"><ele>121.00000000000001</ele><time>2026-04-05T10:40:54.989Z</time></trkpt><trkpt lat="40.07205398271368" lon="18.17122463455182"><ele>121.0</ele><time>2026-04-05T10:40:56.989Z</time></trkpt><trkpt lat="40.07205380836225" lon="18.17133593396142"><ele>121.0</ele><time>2026-04-05T10:40:57.989Z</time></trkpt><trkpt lat="40.07205063462971" lon="18.171457391840114"><ele>121.0</ele><time>2026-04-05T10:40:58.989Z</time></trkpt><trkpt lat="40.07203839330266" lon="18.171580153660376"><ele>121.0</ele><time>2026-04-05T10:40:59.989Z</time></trkpt><trkpt lat="40.07202089939042" lon="18.17170455083781"><ele>121.0</ele><time>2026-04-05T10:41:00.989Z</time></trkpt><trkpt lat="40.07198321597345" lon="18.17183887295086"><ele>121.0</ele><time>2026-04-05T10:41:01.989Z</time></trkpt><trkpt lat="40.071939326245484" lon="18.17197115534841"><ele>121.00000000000001</ele><time>2026-04-05T10:41:02.989Z</time></trkpt><trkpt lat="40.07190810840125" lon="18.172093089443262"><ele>121.0</ele><time>2026-04-05T10:41:03.989Z</time></trkpt><trkpt lat="40.07187922110745" lon="18.172210591229327"><ele>121.0</ele><time>2026-04-05T10:41:04.989Z</time></trkpt><trkpt lat="40.07185261527715" lon="18.172320089356795"><ele>121.0</ele><time>2026-04-05T10:41:05.989Z</time></trkpt><trkpt lat="40.07184042940725" lon="18.172419739102597"><ele>121.00000000000001</ele><time>2026-04-05T10:41:06.989Z</time></trkpt><trkpt lat="40.07182273152244" lon="18.17251502424157"><ele>121.0</ele><time>2026-04-05T10:41:07.989Z</time></trkpt><trkpt lat="40.0718137114514" lon="18.172613322672238"><ele>121.00000000000001</ele><time>2026-04-05T10:41:08.989Z</time></trkpt><trkpt lat="40.07179630916871" lon="18.172710703799677"><ele>121.0</ele><time>2026-04-05T10:41:09.989Z</time></trkpt><trkpt lat="40.07178780310155" lon="18.17280960097685"><ele>121.0</ele><time>2026-04-05T10:41:10.989Z</time></trkpt><trkpt lat="40.07177668202118" lon="18.172907722102124"><ele>121.0</ele><time>2026-04-05T10:41:11.989Z</time></trkpt><trkpt lat="40.07175956484033" lon="18.172996569239263"><ele>121.00000000000001</ele><time>2026-04-05T10:41:12.989Z</time></trkpt><trkpt lat="40.071742320530085" lon="18.17309287157348"><ele>121.0</ele><time>2026-04-05T10:41:13.989Z</time></trkpt><trkpt lat="40.0717278028091" lon="18.17319279866091"><ele>120.8</ele><time>2026-04-05T10:41:14.989Z</time></trkpt><trkpt lat="40.07170316930113" lon="18.17330558868661"><ele>120.6</ele><time>2026-04-05T10:41:15.989Z</time></trkpt><trkpt lat="40.07167763005136" lon="18.173433331542572"><ele>120.4</ele><time>2026-04-05T10:41:16.989Z</time></trkpt><trkpt lat="40.07165566911887" lon="18.17356526516311"><ele>120.2</ele><time>2026-04-05T10:41:17.989Z</time></trkpt><trkpt lat="40.07163063518613" lon="18.173711522758275"><ele>120.0</ele><time>2026-04-05T10:41:18.989Z</time></trkpt><trkpt lat="40.071601444644635" lon="18.1738618655136"><ele>120.0</ele><time>2026-04-05T10:41:19.989Z</time></trkpt><trkpt lat="40.0715726767042" lon="18.17401458638457"><ele>120.0</ele><time>2026-04-05T10:41:20.989Z</time></trkpt><trkpt lat="40.07154270782678" lon="18.174167270288986"><ele>120.0</ele><time>2026-04-05T10:41:21.989Z</time></trkpt><trkpt lat="40.07151174725018" lon="18.174319034448224"><ele>120.0</ele><time>2026-04-05T10:41:22.989Z</time></trkpt><trkpt lat="40.071485234319965" lon="18.17447154177127"><ele>119.75</ele><time>2026-04-05T10:41:23.989Z</time></trkpt><trkpt lat="40.07145690675689" lon="18.174627808145292"><ele>119.5</ele><time>2026-04-05T10:41:24.989Z</time></trkpt><trkpt lat="40.0714271244271" lon="18.174786962526415"><ele>119.25</ele><time>2026-04-05T10:41:25.989Z</time></trkpt><trkpt lat="40.07139516737144" lon="18.174949505049135"><ele>119.0</ele><time>2026-04-05T10:41:26.989Z</time></trkpt><trkpt lat="40.07136760582822" lon="18.175109305967215"><ele>119.0</ele><time>2026-04-05T10:41:27.989Z</time></trkpt><trkpt lat="40.07133892131055" lon="18.17527216593827"><ele>119.0</ele><time>2026-04-05T10:41:28.989Z</time></trkpt><trkpt lat="40.071310117465174" lon="18.1754393807992"><ele>119.0</ele><time>2026-04-05T10:41:29.989Z</time></trkpt><trkpt lat="40.07127755286143" lon="18.175610193130606"><ele>119.0</ele><time>2026-04-05T10:41:30.989Z</time></trkpt><trkpt lat="40.07125075338167" lon="18.175777966396897"><ele>118.75</ele><time>2026-04-05T10:41:31.989Z</time></trkpt><trkpt lat="40.07123643320742" lon="18.175923587165382"><ele>118.5</ele><time>2026-04-05T10:41:32.989Z</time></trkpt><trkpt lat="40.07121840371661" lon="18.17606238870385"><ele>118.25</ele><time>2026-04-05T10:41:33.989Z</time></trkpt><trkpt lat="40.07118984216753" lon="18.176205256742634"><ele>118.0</ele><time>2026-04-05T10:41:34.989Z</time></trkpt><trkpt lat="40.071160281801994" lon="18.176361701758704"><ele>118.5</ele><time>2026-04-05T10:41:35.989Z</time></trkpt><trkpt lat="40.07112383288883" lon="18.17653265257529"><ele>119.0</ele><time>2026-04-05T10:41:36.989Z</time></trkpt><trkpt lat="40.07109135165263" lon="18.1767142455352"><ele>119.5</ele><time>2026-04-05T10:41:37.989Z</time></trkpt><trkpt lat="40.071058931642895" lon="18.176909688400077"><ele>120.0</ele><time>2026-04-05T10:41:38.989Z</time></trkpt><trkpt lat="40.07102402554015" lon="18.177113946510914"><ele>120.0</ele><time>2026-04-05T10:41:39.989Z</time></trkpt><trkpt lat="40.07099089250112" lon="18.177319226087207"><ele>120.0</ele><time>2026-04-05T10:41:40.989Z</time></trkpt><trkpt lat="40.0709589015905" lon="18.177522474750006"><ele>120.0</ele><time>2026-04-05T10:41:41.989Z</time></trkpt><trkpt lat="40.070921737082735" lon="18.17773071179421"><ele>120.33333333333334</ele><time>2026-04-05T10:41:42.989Z</time></trkpt><trkpt lat="40.070889884220364" lon="18.177935793679673"><ele>120.66666666666667</ele><time>2026-04-05T10:41:43.989Z</time></trkpt><trkpt lat="40.070850338718" lon="18.178148332806003"><ele>121.0</ele><time>2026-04-05T10:41:44.989Z</time></trkpt><trkpt lat="40.07081252773104" lon="18.178361441764135"><ele>120.66666666666667</ele><time>2026-04-05T10:41:45.989Z</time></trkpt><trkpt lat="40.07077121877233" lon="18.17858354792615"><ele>120.33333333333334</ele><time>2026-04-05T10:41:46.989Z</time></trkpt><trkpt lat="40.070732371826665" lon="18.178810695263632"><ele>120.0</ele><time>2026-04-05T10:41:47.989Z</time></trkpt><trkpt lat="40.07069013786627" lon="18.17904602135948"><ele>120.0</ele><time>2026-04-05T10:41:48.989Z</time></trkpt><trkpt lat="40.070654252279304" lon="18.179280355097"><ele>120.0</ele><time>2026-04-05T10:41:49.989Z</time></trkpt><trkpt lat="40.07061538663432" lon="18.179516481452215"><ele>120.0</ele><time>2026-04-05T10:41:50.989Z</time></trkpt><trkpt lat="40.070575782161264" lon="18.179757158043483"><ele>120.33333333333334</ele><time>2026-04-05T10:41:51.989Z</time></trkpt><trkpt lat="40.07053749369119" lon="18.179996879064902"><ele>120.66666666666667</ele><time>2026-04-05T10:41:52.989Z</time></trkpt><trkpt lat="40.07050184699249" lon="18.180230132152996"><ele>121.0</ele><time>2026-04-05T10:41:53.989Z</time></trkpt><trkpt lat="40.070462973164254" lon="18.18046209968953"><ele>120.66666666666667</ele><time>2026-04-05T10:41:54.989Z</time></trkpt><trkpt lat="40.07042589548697" lon="18.18069033259919"><ele>120.33333333333334</ele><time>2026-04-05T10:41:55.989Z</time></trkpt><trkpt lat="40.070389018199535" lon="18.180917569047484"><ele>120.0</ele><time>2026-04-05T10:41:56.989Z</time></trkpt><trkpt lat="40.07035238581378" lon="18.181146792164263"><ele>120.0</ele><time>2026-04-05T10:41:57.989Z</time></trkpt><trkpt lat="40.07031625248175" lon="18.181372834193418"><ele>120.0</ele><time>2026-04-05T10:41:58.989Z</time></trkpt><trkpt lat="40.07027681884171" lon="18.181600175638366"><ele>120.0</ele><time>2026-04-05T10:41:59.989Z</time></trkpt><trkpt lat="40.07023846714885" lon="18.181827243047156"><ele>119.66666666666666</ele><time>2026-04-05T10:42:00.989Z</time></trkpt><trkpt lat="40.070201339010346" lon="18.182055411400363"><ele>119.33333333333333</ele><time>2026-04-05T10:42:01.989Z</time></trkpt><trkpt lat="40.07016377700685" lon="18.182284407110323"><ele>119.0</ele><time>2026-04-05T10:42:02.989Z</time></trkpt><trkpt lat="40.07012513596003" lon="18.18251710254906"><ele>119.0</ele><time>2026-04-05T10:42:03.989Z</time></trkpt><trkpt lat="40.070087583704705" lon="18.182749582215532"><ele>119.0</ele><time>2026-04-05T10:42:04.989Z</time></trkpt><trkpt lat="40.07004814677418" lon="18.182978224640316"><ele>119.0</ele><time>2026-04-05T10:42:05.989Z</time></trkpt><trkpt lat="40.07000879113532" lon="18.18321094726043"><ele>118.66666666666666</ele><time>2026-04-05T10:42:06.989Z</time></trkpt><trkpt lat="40.06996571831206" lon="18.183441548996242"><ele>118.33333333333334</ele><time>2026-04-05T10:42:07.989Z</time></trkpt><trkpt lat="40.069923797722026" lon="18.183672932837773"><ele>118.0</ele><time>2026-04-05T10:42:08.989Z</time></trkpt><trkpt lat="40.06988525818765" lon="18.183909728990145"><ele>117.66666666666667</ele><time>2026-04-05T10:42:09.989Z</time></trkpt><trkpt lat="40.06984574866561" lon="18.184137431834454"><ele>117.33333333333334</ele><time>2026-04-05T10:42:10.989Z</time></trkpt><trkpt lat="40.0698061499011" lon="18.184369756624005"><ele>117.0</ele><time>2026-04-05T10:42:11.989Z</time></trkpt><trkpt lat="40.06976558294423" lon="18.18460431394498"><ele>117.0</ele><time>2026-04-05T10:42:12.989Z</time></trkpt><trkpt lat="40.06972429608524" lon="18.184841197277958"><ele>117.0</ele><time>2026-04-05T10:42:13.989Z</time></trkpt><trkpt lat="40.06968260518114" lon="18.185084389529482"><ele>117.0</ele><time>2026-04-05T10:42:14.989Z</time></trkpt><trkpt lat="40.06965798039314" lon="18.18533275078709"><ele>117.0</ele><time>2026-04-05T10:42:15.989Z</time></trkpt><trkpt lat="40.06963166759014" lon="18.18558022351692"><ele>117.0</ele><time>2026-04-05T10:42:16.989Z</time></trkpt><trkpt lat="40.06960708726275" lon="18.18583393833621"><ele>117.0</ele><time>2026-04-05T10:42:17.988Z</time></trkpt><trkpt lat="40.06959112986707" lon="18.186089643671888"><ele>117.0</ele><time>2026-04-05T10:42:18.988Z</time></trkpt><trkpt lat="40.069586738111056" lon="18.186347565976217"><ele>117.0</ele><time>2026-04-05T10:42:19.988Z</time></trkpt><trkpt lat="40.06958020853647" lon="18.18660293031721"><ele>117.0</ele><time>2026-04-05T10:42:20.988Z</time></trkpt><trkpt lat="40.06957675651483" lon="18.18684550011473"><ele>117.33333333333334</ele><time>2026-04-05T10:42:21.988Z</time></trkpt><trkpt lat="40.069567467255375" lon="18.187092722628808"><ele>117.66666666666667</ele><time>2026-04-05T10:42:22.988Z</time></trkpt><trkpt lat="40.0695312613485" lon="18.187334780856315"><ele>118.0</ele><time>2026-04-05T10:42:23.988Z</time></trkpt><trkpt lat="40.06948019229748" lon="18.1875800019319"><ele>118.33333333333334</ele><time>2026-04-05T10:42:24.988Z</time></trkpt><trkpt lat="40.069421336289345" lon="18.18783341311635"><ele>118.66666666666666</ele><time>2026-04-05T10:42:25.988Z</time></trkpt><trkpt lat="40.06932742690728" lon="18.188077611501917"><ele>119.0</ele><time>2026-04-05T10:42:26.988Z</time></trkpt><trkpt lat="40.06924270376909" lon="18.18833229197555"><ele>118.33333333333333</ele><time>2026-04-05T10:42:27.988Z</time></trkpt><trkpt lat="40.0691831473997" lon="18.188587132955988"><ele>117.66666666666666</ele><time>2026-04-05T10:42:28.987Z</time></trkpt><trkpt lat="40.069126842262804" lon="18.188836045323875"><ele>117.0</ele><time>2026-04-05T10:42:29.987Z</time></trkpt><trkpt lat="40.069076293597696" lon="18.189085072939505"><ele>117.0</ele><time>2026-04-05T10:42:30.987Z</time></trkpt><trkpt lat="40.0690125188896" lon="18.18932141385345"><ele>117.0</ele><time>2026-04-05T10:42:31.987Z</time></trkpt><trkpt lat="40.06894911394119" lon="18.18954250713825"><ele>117.0</ele><time>2026-04-05T10:42:32.987Z</time></trkpt><trkpt lat="40.06887740387486" lon="18.189756301482454"><ele>117.0</ele><time>2026-04-05T10:42:33.987Z</time></trkpt><trkpt lat="40.06878448432827" lon="18.189962747558695"><ele>117.0</ele><time>2026-04-05T10:42:34.987Z</time></trkpt><trkpt lat="40.06867673074251" lon="18.190146089514474"><ele>117.0</ele><time>2026-04-05T10:42:35.987Z</time></trkpt><trkpt lat="40.06856328075137" lon="18.19032131747792"><ele>117.0</ele><time>2026-04-05T10:42:36.987Z</time></trkpt><trkpt lat="40.06843807745522" lon="18.190475543383602"><ele>117.0</ele><time>2026-04-05T10:42:37.987Z</time></trkpt><trkpt lat="40.0682892565512" lon="18.19061965538619"><ele>117.0</ele><time>2026-04-05T10:42:38.987Z</time></trkpt><trkpt lat="40.06864534427646" lon="18.19081694337633"><ele>117.0</ele><time>2026-04-05T10:42:39.987Z</time></trkpt><trkpt lat="40.06860062516877" lon="18.19094595598811"><ele>117.0</ele><time>2026-04-05T10:42:40.987Z</time></trkpt><trkpt lat="40.06855401140727" lon="18.191055928345364"><ele>117.0</ele><time>2026-04-05T10:42:41.987Z</time></trkpt><trkpt lat="40.068499963814006" lon="18.191145254130276"><ele>117.0</ele><time>2026-04-05T10:42:42.987Z</time></trkpt><trkpt lat="40.06843427748733" lon="18.191206153958227"><ele>117.0</ele><time>2026-04-05T10:42:43.987Z</time></trkpt><trkpt lat="40.06836318354348" lon="18.19124188779753"><ele>117.0</ele><time>2026-04-05T10:42:44.987Z</time></trkpt><trkpt lat="40.06830507787791" lon="18.191294016177046"><ele>117.16666666666667</ele><time>2026-04-05T10:42:45.987Z</time></trkpt><trkpt lat="40.068270316956706" lon="18.191379007279593"><ele>117.33333333333334</ele><time>2026-04-05T10:42:46.987Z</time></trkpt><trkpt lat="40.06826015011821" lon="18.191477518084593"><ele>117.5</ele><time>2026-04-05T10:42:47.987Z</time></trkpt><trkpt lat="40.06828348341205" lon="18.191559404904975"><ele>117.66666666666667</ele><time>2026-04-05T10:42:48.987Z</time></trkpt><trkpt lat="40.06833578864772" lon="18.19164539756738"><ele>117.83333333333334</ele><time>2026-04-05T10:42:49.987Z</time></trkpt><trkpt lat="40.06841407404564" lon="18.191729816624196"><ele>118.0</ele><time>2026-04-05T10:42:50.987Z</time></trkpt><trkpt lat="40.068492276549385" lon="18.19183309531364"><ele>117.0</ele><time>2026-04-05T10:42:51.987Z</time></trkpt><trkpt lat="40.06855065347318" lon="18.191984585374204"><ele>116.0</ele><time>2026-04-05T10:42:52.987Z</time></trkpt><trkpt lat="40.06859317240901" lon="18.192185104325706"><ele>115.0</ele><time>2026-04-05T10:42:53.987Z</time></trkpt><trkpt lat="40.06864182601976" lon="18.192417695641257"><ele>114.0</ele><time>2026-04-05T10:42:54.987Z</time></trkpt><trkpt lat="40.0686897714159" lon="18.19268655157789"><ele>113.0</ele><time>2026-04-05T10:42:55.987Z</time></trkpt><trkpt lat="40.06874218776876" lon="18.192951310884695"><ele>112.0</ele><time>2026-04-05T10:42:56.986Z</time></trkpt><trkpt lat="40.068788441191266" lon="18.193183874393046"><ele>110.66666666666667</ele><time>2026-04-05T10:42:57.986Z</time></trkpt><trkpt lat="40.06882784828338" lon="18.19340314304675"><ele>109.33333333333334</ele><time>2026-04-05T10:42:58.986Z</time></trkpt><trkpt lat="40.06886294802652" lon="18.19362147638461"><ele>108.0</ele><time>2026-04-05T10:42:59.986Z</time></trkpt><trkpt lat="40.06889725494173" lon="18.19384501502552"><ele>107.33333333333334</ele><time>2026-04-05T10:43:00.986Z</time></trkpt><trkpt lat="40.06893159799198" lon="18.19406766634439"><ele>106.66666666666667</ele><time>2026-04-05T10:43:01.986Z</time></trkpt><trkpt lat="40.06896680278911" lon="18.19429904593751"><ele>106.0</ele><time>2026-04-05T10:43:02.986Z</time></trkpt><trkpt lat="40.06900350708068" lon="18.19454597740419"><ele>106.0</ele><time>2026-04-05T10:43:03.986Z</time></trkpt><trkpt lat="40.069035562352816" lon="18.19477009165942"><ele>106.0</ele><time>2026-04-05T10:43:04.986Z</time></trkpt><trkpt lat="40.06907024911037" lon="18.19499653803672"><ele>106.0</ele><time>2026-04-05T10:43:05.986Z</time></trkpt><trkpt lat="40.069105969104015" lon="18.195221614076456"><ele>106.33333333333334</ele><time>2026-04-05T10:43:06.986Z</time></trkpt><trkpt lat="40.069137065446704" lon="18.195444127376724"><ele>106.66666666666666</ele><time>2026-04-05T10:43:07.986Z</time></trkpt><trkpt lat="40.06916791097197" lon="18.195665414258045"><ele>107.0</ele><time>2026-04-05T10:43:08.986Z</time></trkpt><trkpt lat="40.06920330816287" lon="18.195889687423428"><ele>106.66666666666666</ele><time>2026-04-05T10:43:09.986Z</time></trkpt><trkpt lat="40.069238305458974" lon="18.196110268987173"><ele>106.33333333333334</ele><time>2026-04-05T10:43:10.986Z</time></trkpt><trkpt lat="40.06927520063199" lon="18.196331462895884"><ele>106.0</ele><time>2026-04-05T10:43:11.986Z</time></trkpt><trkpt lat="40.06930926032647" lon="18.196552918412205"><ele>106.0</ele><time>2026-04-05T10:43:12.986Z</time></trkpt><trkpt lat="40.069342568773614" lon="18.196780134352576"><ele>106.0</ele><time>2026-04-05T10:43:13.986Z</time></trkpt><trkpt lat="40.069374608386596" lon="18.197010967336563"><ele>106.0</ele><time>2026-04-05T10:43:14.986Z</time></trkpt><trkpt lat="40.0694045346977" lon="18.197241476049783"><ele>106.0</ele><time>2026-04-05T10:43:15.986Z</time></trkpt><trkpt lat="40.06943436763726" lon="18.19747126488037"><ele>106.0</ele><time>2026-04-05T10:43:16.986Z</time></trkpt><trkpt lat="40.06946779823225" lon="18.19769992609298"><ele>106.0</ele><time>2026-04-05T10:43:17.986Z</time></trkpt><trkpt lat="40.069501959787516" lon="18.19792867760497"><ele>106.0</ele><time>2026-04-05T10:43:18.986Z</time></trkpt><trkpt lat="40.06953682734703" lon="18.198160440785543"><ele>106.0</ele><time>2026-04-05T10:43:19.986Z</time></trkpt><trkpt lat="40.069567324489654" lon="18.198392741981852"><ele>106.0</ele><time>2026-04-05T10:43:20.986Z</time></trkpt><trkpt lat="40.069593696792175" lon="18.198628352979647"><ele>106.0</ele><time>2026-04-05T10:43:21.986Z</time></trkpt><trkpt lat="40.069629218132555" lon="18.198856151150462"><ele>106.0</ele><time>2026-04-05T10:43:22.986Z</time></trkpt><trkpt lat="40.06966224540279" lon="18.199086040134194"><ele>106.0</ele><time>2026-04-05T10:43:23.986Z</time></trkpt><trkpt lat="40.06969597899833" lon="18.199315229477023"><ele>106.0</ele><time>2026-04-05T10:43:24.986Z</time></trkpt><trkpt lat="40.069729639144114" lon="18.199545287435406"><ele>106.0</ele><time>2026-04-05T10:43:25.986Z</time></trkpt><trkpt lat="40.06976119886623" lon="18.199772293096473"><ele>106.0</ele><time>2026-04-05T10:43:26.986Z</time></trkpt><trkpt lat="40.06979451791669" lon="18.200002084710214"><ele>106.0</ele><time>2026-04-05T10:43:27.986Z</time></trkpt><trkpt lat="40.06982771653683" lon="18.200231193467705"><ele>106.0</ele><time>2026-04-05T10:43:28.986Z</time></trkpt><trkpt lat="40.06986029083827" lon="18.200460014120214"><ele>106.0</ele><time>2026-04-05T10:43:29.986Z</time></trkpt><trkpt lat="40.06989579098461" lon="18.200688279861"><ele>107.0</ele><time>2026-04-05T10:43:30.986Z</time></trkpt><trkpt lat="40.06992576857053" lon="18.20091792566153"><ele>108.0</ele><time>2026-04-05T10:43:31.986Z</time></trkpt><trkpt lat="40.069959857470835" lon="18.20114697594689"><ele>109.0</ele><time>2026-04-05T10:43:32.986Z</time></trkpt><trkpt lat="40.06999171606524" lon="18.2013680767769"><ele>110.0</ele><time>2026-04-05T10:43:33.986Z</time></trkpt><trkpt lat="40.07002516427318" lon="18.20158998478778"><ele>111.0</ele><time>2026-04-05T10:43:34.986Z</time></trkpt><trkpt lat="40.070058812561776" lon="18.201811910552777"><ele>112.0</ele><time>2026-04-05T10:43:35.986Z</time></trkpt><trkpt lat="40.070090574561604" lon="18.20202768055221"><ele>112.0</ele><time>2026-04-05T10:43:36.986Z</time></trkpt><trkpt lat="40.07012342065566" lon="18.202246600881917"><ele>112.0</ele><time>2026-04-05T10:43:37.986Z</time></trkpt><trkpt lat="40.070153280779415" lon="18.20246748232686"><ele>112.0</ele><time>2026-04-05T10:43:38.986Z</time></trkpt><trkpt lat="40.07019221619389" lon="18.2026700857778"><ele>112.25</ele><time>2026-04-05T10:43:39.986Z</time></trkpt><trkpt lat="40.07022016449067" lon="18.202871035577587"><ele>112.5</ele><time>2026-04-05T10:43:40.986Z</time></trkpt><trkpt lat="40.07024678462347" lon="18.203065568960525"><ele>112.75</ele><time>2026-04-05T10:43:41.986Z</time></trkpt><trkpt lat="40.07027030514862" lon="18.20323951645854"><ele>113.0</ele><time>2026-04-05T10:43:42.986Z</time></trkpt><trkpt lat="40.07029251411979" lon="18.20339257891099"><ele>112.99999999999999</ele><time>2026-04-05T10:43:43.986Z</time></trkpt><trkpt lat="40.07031132502218" lon="18.203532352057586"><ele>113.0</ele><time>2026-04-05T10:43:44.986Z</time></trkpt><trkpt lat="40.07032069079003" lon="18.203651647448385"><ele>113.0</ele><time>2026-04-05T10:43:45.986Z</time></trkpt><trkpt lat="40.07032420124242" lon="18.20375658676337"><ele>113.0</ele><time>2026-04-05T10:43:46.986Z</time></trkpt><trkpt lat="40.07032026301276" lon="18.20385329490077"><ele>112.99999999999999</ele><time>2026-04-05T10:43:47.986Z</time></trkpt><trkpt lat="40.07030230949961" lon="18.203943329671823"><ele>113.0</ele><time>2026-04-05T10:43:48.986Z</time></trkpt><trkpt lat="40.070256155294736" lon="18.204035345586544"><ele>113.2</ele><time>2026-04-05T10:43:49.986Z</time></trkpt><trkpt lat="40.07021183049727" lon="18.204134779825566"><ele>113.4</ele><time>2026-04-05T10:43:50.986Z</time></trkpt><trkpt lat="40.07019817125248" lon="18.204241488319166"><ele>113.60000000000001</ele><time>2026-04-05T10:43:51.986Z</time></trkpt><trkpt lat="40.07022217125281" lon="18.20434956191461"><ele>113.80000000000001</ele><time>2026-04-05T10:43:52.986Z</time></trkpt><trkpt lat="40.07028106848002" lon="18.204448164225514"><ele>114.0</ele><time>2026-04-05T10:43:53.986Z</time></trkpt><trkpt lat="40.07035601363523" lon="18.204535583561032"><ele>114.0</ele><time>2026-04-05T10:43:54.986Z</time></trkpt><trkpt lat="40.07043684332905" lon="18.204632002039705"><ele>114.0</ele><time>2026-04-05T10:43:55.986Z</time></trkpt><trkpt lat="40.07048902352157" lon="18.204742412822537"><ele>114.0</ele><time>2026-04-05T10:43:56.986Z</time></trkpt><trkpt lat="40.070515225327505" lon="18.20488686880996"><ele>114.0</ele><time>2026-04-05T10:43:57.986Z</time></trkpt><trkpt lat="40.07053511017079" lon="18.205073137406973"><ele>114.0</ele><time>2026-04-05T10:43:58.986Z</time></trkpt><trkpt lat="40.07055824168084" lon="18.20528736962612"><ele>114.0</ele><time>2026-04-05T10:43:59.986Z</time></trkpt><trkpt lat="40.07058628963416" lon="18.205513518768264"><ele>114.0</ele><time>2026-04-05T10:44:00.986Z</time></trkpt><trkpt lat="40.070619978645965" lon="18.205748963514935"><ele>113.33333333333334</ele><time>2026-04-05T10:44:01.986Z</time></trkpt><trkpt lat="40.07065440499756" lon="18.206000660926556"><ele>112.66666666666667</ele><time>2026-04-05T10:44:02.986Z</time></trkpt><trkpt lat="40.07069136764467" lon="18.20624247162359"><ele>112.0</ele><time>2026-04-05T10:44:03.986Z</time></trkpt><trkpt lat="40.07072761185256" lon="18.206481458756517"><ele>112.0</ele><time>2026-04-05T10:44:04.986Z</time></trkpt><trkpt lat="40.07076216396573" lon="18.206719069673724"><ele>112.0</ele><time>2026-04-05T10:44:05.986Z</time></trkpt><trkpt lat="40.07079605128372" lon="18.2069528823903"><ele>112.0</ele><time>2026-04-05T10:44:06.986Z</time></trkpt><trkpt lat="40.07082585576122" lon="18.207188847828277"><ele>112.33333333333334</ele><time>2026-04-05T10:44:07.986Z</time></trkpt><trkpt lat="40.07086050253636" lon="18.207425226243213"><ele>112.66666666666666</ele><time>2026-04-05T10:44:08.986Z</time></trkpt><trkpt lat="40.070895348204" lon="18.207664042051377"><ele>113.0</ele><time>2026-04-05T10:44:09.986Z</time></trkpt><trkpt lat="40.070927266072225" lon="18.207903760395652"><ele>113.0</ele><time>2026-04-05T10:44:10.986Z</time></trkpt><trkpt lat="40.070963153199" lon="18.20814424237539"><ele>113.0</ele><time>2026-04-05T10:44:11.986Z</time></trkpt><trkpt lat="40.07099560476774" lon="18.208389185975722"><ele>113.0</ele><time>2026-04-05T10:44:12.986Z</time></trkpt><trkpt lat="40.07103291847575" lon="18.208625851044328"><ele>113.0</ele><time>2026-04-05T10:44:13.986Z</time></trkpt><trkpt lat="40.071066261409925" lon="18.208856637081492"><ele>113.0</ele><time>2026-04-05T10:44:14.986Z</time></trkpt><trkpt lat="40.07109720633089" lon="18.209086328499687"><ele>113.0</ele><time>2026-04-05T10:44:15.986Z</time></trkpt><trkpt lat="40.07113317481827" lon="18.209313899977356"><ele>113.0</ele><time>2026-04-05T10:44:16.986Z</time></trkpt><trkpt lat="40.07116541899505" lon="18.209545201299907"><ele>113.0</ele><time>2026-04-05T10:44:17.986Z</time></trkpt><trkpt lat="40.071196996325" lon="18.2097721828979"><ele>113.0</ele><time>2026-04-05T10:44:18.986Z</time></trkpt><trkpt lat="40.07122862566989" lon="18.21000259274502"><ele>113.0</ele><time>2026-04-05T10:44:19.986Z</time></trkpt><trkpt lat="40.07126089402114" lon="18.210230892089623"><ele>113.0</ele><time>2026-04-05T10:44:20.986Z</time></trkpt><trkpt lat="40.07129871091189" lon="18.21046003577519"><ele>113.0</ele><time>2026-04-05T10:44:21.986Z</time></trkpt><trkpt lat="40.07133554621606" lon="18.21068975608205"><ele>113.0</ele><time>2026-04-05T10:44:22.986Z</time></trkpt><trkpt lat="40.07137170785606" lon="18.210924135149455"><ele>113.0</ele><time>2026-04-05T10:44:23.986Z</time></trkpt><trkpt lat="40.07140985324839" lon="18.21116095667146"><ele>113.0</ele><time>2026-04-05T10:44:24.986Z</time></trkpt><trkpt lat="40.07145774348969" lon="18.211391558975603"><ele>113.0</ele><time>2026-04-05T10:44:25.986Z</time></trkpt><trkpt lat="40.07151460337288" lon="18.211611213553468"><ele>113.0</ele><time>2026-04-05T10:44:26.986Z</time></trkpt><trkpt lat="40.07157324982868" lon="18.211828226372223"><ele>113.0</ele><time>2026-04-05T10:44:27.986Z</time></trkpt><trkpt lat="40.07163962130307" lon="18.21204496704014"><ele>113.0</ele><time>2026-04-05T10:44:28.986Z</time></trkpt><trkpt lat="40.07171184416903" lon="18.212256502297482"><ele>113.0</ele><time>2026-04-05T10:44:29.986Z</time></trkpt><trkpt lat="40.071793035249826" lon="18.212463898765183"><ele>113.0</ele><time>2026-04-05T10:44:30.986Z</time></trkpt><trkpt lat="40.07187521990961" lon="18.212665877748147"><ele>113.0</ele><time>2026-04-05T10:44:31.986Z</time></trkpt><trkpt lat="40.07196480080108" lon="18.21285819927508"><ele>113.0</ele><time>2026-04-05T10:44:32.986Z</time></trkpt><trkpt lat="40.07206180922148" lon="18.213040310514003"><ele>113.0</ele><time>2026-04-05T10:44:33.986Z</time></trkpt><trkpt lat="40.07216150380553" lon="18.213218488671984"><ele>112.66666666666666</ele><time>2026-04-05T10:44:34.986Z</time></trkpt><trkpt lat="40.072267498085836" lon="18.21339866943122"><ele>112.33333333333334</ele><time>2026-04-05T10:44:35.986Z</time></trkpt><trkpt lat="40.072370591297606" lon="18.21358006398613"><ele>112.0</ele><time>2026-04-05T10:44:36.985Z</time></trkpt><trkpt lat="40.07247500193361" lon="18.213764153934385"><ele>112.0</ele><time>2026-04-05T10:44:37.985Z</time></trkpt><trkpt lat="40.07257549764344" lon="18.213944179067035"><ele>112.0</ele><time>2026-04-05T10:44:38.985Z</time></trkpt><trkpt lat="40.07267505057137" lon="18.21412414355435"><ele>112.0</ele><time>2026-04-05T10:44:39.985Z</time></trkpt><trkpt lat="40.072776366902126" lon="18.214307126024128"><ele>112.33333333333334</ele><time>2026-04-05T10:44:40.985Z</time></trkpt><trkpt lat="40.07288533300681" lon="18.214492391816403"><ele>112.66666666666666</ele><time>2026-04-05T10:44:41.985Z</time></trkpt><trkpt lat="40.0729907857235" lon="18.214673827801512"><ele>113.0</ele><time>2026-04-05T10:44:42.985Z</time></trkpt><trkpt lat="40.073090692771906" lon="18.214858121525182"><ele>113.0</ele><time>2026-04-05T10:44:43.985Z</time></trkpt><trkpt lat="40.07318772997229" lon="18.2150341950564"><ele>113.0</ele><time>2026-04-05T10:44:44.985Z</time></trkpt><trkpt lat="40.07328858154574" lon="18.215210073056337"><ele>113.0</ele><time>2026-04-05T10:44:45.985Z</time></trkpt><trkpt lat="40.07338835524176" lon="18.21539272470447"><ele>113.0</ele><time>2026-04-05T10:44:46.985Z</time></trkpt><trkpt lat="40.07349459951214" lon="18.215578004477578"><ele>113.0</ele><time>2026-04-05T10:44:47.985Z</time></trkpt><trkpt lat="40.07359968637869" lon="18.215765411398998"><ele>113.0</ele><time>2026-04-05T10:44:48.985Z</time></trkpt><trkpt lat="40.07370569763845" lon="18.215954087766857"><ele>113.33333333333333</ele><time>2026-04-05T10:44:49.985Z</time></trkpt><trkpt lat="40.073812714823944" lon="18.21614064650161"><ele>113.66666666666666</ele><time>2026-04-05T10:44:50.985Z</time></trkpt><trkpt lat="40.07392113226892" lon="18.216330403859498"><ele>114.0</ele><time>2026-04-05T10:44:51.985Z</time></trkpt><trkpt lat="40.074027558001625" lon="18.216518367092203"><ele>113.0</ele><time>2026-04-05T10:44:52.985Z</time></trkpt><trkpt lat="40.074136100310525" lon="18.216712362121985"><ele>112.0</ele><time>2026-04-05T10:44:53.985Z</time></trkpt><trkpt lat="40.074244103603206" lon="18.216905919204503"><ele>111.0</ele><time>2026-04-05T10:44:54.985Z</time></trkpt><trkpt lat="40.07435082695225" lon="18.217094350951232"><ele>111.0</ele><time>2026-04-05T10:44:55.985Z</time></trkpt><trkpt lat="40.07446099208794" lon="18.217277769963708"><ele>111.0</ele><time>2026-04-05T10:44:56.985Z</time></trkpt><trkpt lat="40.07456793415199" lon="18.217464026808404"><ele>111.0</ele><time>2026-04-05T10:44:57.985Z</time></trkpt><trkpt lat="40.07466873899383" lon="18.217645386911048"><ele>111.0</ele><time>2026-04-05T10:44:58.985Z</time></trkpt><trkpt lat="40.07477187449318" lon="18.21782925229118"><ele>111.0</ele><time>2026-04-05T10:44:59.985Z</time></trkpt><trkpt lat="40.07487713037453" lon="18.218021158455134"><ele>111.0</ele><time>2026-04-05T10:45:00.985Z</time></trkpt><trkpt lat="40.0749851365099" lon="18.218213317447134"><ele>111.33333333333334</ele><time>2026-04-05T10:45:01.985Z</time></trkpt><trkpt lat="40.0750960262043" lon="18.218405322289463"><ele>111.66666666666667</ele><time>2026-04-05T10:45:02.985Z</time></trkpt><trkpt lat="40.07520303985099" lon="18.218599044936074"><ele>112.0</ele><time>2026-04-05T10:45:03.985Z</time></trkpt><trkpt lat="40.07530869282407" lon="18.218781837486915"><ele>112.0</ele><time>2026-04-05T10:45:04.985Z</time></trkpt><trkpt lat="40.07541160327973" lon="18.21896019641217"><ele>112.0</ele><time>2026-04-05T10:45:05.985Z</time></trkpt><trkpt lat="40.075512870668135" lon="18.219140800366144"><ele>112.0</ele><time>2026-04-05T10:45:06.985Z</time></trkpt><trkpt lat="40.075613637183125" lon="18.219312757157947"><ele>112.0</ele><time>2026-04-05T10:45:07.985Z</time></trkpt><trkpt lat="40.07570328738724" lon="18.219468263067373"><ele>112.0</ele><time>2026-04-05T10:45:08.985Z</time></trkpt><trkpt lat="40.07578502894082" lon="18.21961597188197"><ele>112.0</ele><time>2026-04-05T10:45:09.985Z</time></trkpt><trkpt lat="40.07585647038584" lon="18.219756879613072"><ele>112.0</ele><time>2026-04-05T10:45:10.985Z</time></trkpt><trkpt lat="40.07592433171499" lon="18.219879868733564"><ele>111.6</ele><time>2026-04-05T10:45:11.985Z</time></trkpt><trkpt lat="40.07597455396848" lon="18.219988194151686"><ele>111.19999999999999</ele><time>2026-04-05T10:45:12.985Z</time></trkpt><trkpt lat="40.07603726021724" lon="18.220108184251956"><ele>110.8</ele><time>2026-04-05T10:45:13.985Z</time></trkpt><trkpt lat="40.07606657340322" lon="18.220220790981923"><ele>110.4</ele><time>2026-04-05T10:45:14.985Z</time></trkpt><trkpt lat="40.076071171266356" lon="18.220328856255527"><ele>110.0</ele><time>2026-04-05T10:45:15.985Z</time></trkpt><trkpt lat="40.07606995441294" lon="18.22043771684877"><ele>110.0</ele><time>2026-04-05T10:45:16.985Z</time></trkpt><trkpt lat="40.07609756727477" lon="18.22052888070091"><ele>110.0</ele><time>2026-04-05T10:45:17.985Z</time></trkpt><trkpt lat="40.076144675803334" lon="18.220603344718594"><ele>110.0</ele><time>2026-04-05T10:45:18.985Z</time></trkpt><trkpt lat="40.07621748760402" lon="18.220659322821586"><ele>110.0</ele><time>2026-04-05T10:45:19.985Z</time></trkpt><trkpt lat="40.076319296850066" lon="18.220708485962223"><ele>110.0</ele><time>2026-04-05T10:45:20.985Z</time></trkpt><trkpt lat="40.07642502002867" lon="18.220782087836607"><ele>110.33333333333333</ele><time>2026-04-05T10:45:21.985Z</time></trkpt><trkpt lat="40.07652719775724" lon="18.220905900791575"><ele>110.66666666666666</ele><time>2026-04-05T10:45:22.985Z</time></trkpt><trkpt lat="40.076618515496385" lon="18.221062662099236"><ele>111.0</ele><time>2026-04-05T10:45:23.985Z</time></trkpt><trkpt lat="40.076713305400084" lon="18.221243188938153"><ele>110.33333333333334</ele><time>2026-04-05T10:45:24.985Z</time></trkpt><trkpt lat="40.07681994199429" lon="18.22143299559735"><ele>109.66666666666667</ele><time>2026-04-05T10:45:25.985Z</time></trkpt><trkpt lat="40.07693027582499" lon="18.221630560675646"><ele>109.0</ele><time>2026-04-05T10:45:26.985Z</time></trkpt><trkpt lat="40.07704655831724" lon="18.22183667624342"><ele>109.0</ele><time>2026-04-05T10:45:27.985Z</time></trkpt><trkpt lat="40.07716084061035" lon="18.222045720057604"><ele>109.0</ele><time>2026-04-05T10:45:28.985Z</time></trkpt><trkpt lat="40.07727628263782" lon="18.222255364864616"><ele>109.0</ele><time>2026-04-05T10:45:29.985Z</time></trkpt><trkpt lat="40.07739336104616" lon="18.222467476323608"><ele>109.0</ele><time>2026-04-05T10:45:30.985Z</time></trkpt><trkpt lat="40.07751225299815" lon="18.22267760442272"><ele>109.0</ele><time>2026-04-05T10:45:31.985Z</time></trkpt><trkpt lat="40.077626168022064" lon="18.2228909319286"><ele>109.0</ele><time>2026-04-05T10:45:32.985Z</time></trkpt><trkpt lat="40.07774476920542" lon="18.223109224531548"><ele>108.66666666666667</ele><time>2026-04-05T10:45:33.985Z</time></trkpt><trkpt lat="40.077865768020835" lon="18.223326741278868"><ele>108.33333333333334</ele><time>2026-04-05T10:45:34.985Z</time></trkpt><trkpt lat="40.07799105670949" lon="18.223543560359552"><ele>108.0</ele><time>2026-04-05T10:45:35.985Z</time></trkpt><trkpt lat="40.07812290830099" lon="18.22377710576395"><ele>108.0</ele><time>2026-04-05T10:45:36.985Z</time></trkpt><trkpt lat="40.078246835140575" lon="18.223996065549255"><ele>108.0</ele><time>2026-04-05T10:45:37.985Z</time></trkpt><trkpt lat="40.07836977527802" lon="18.22421424296768"><ele>108.0</ele><time>2026-04-05T10:45:38.985Z</time></trkpt><trkpt lat="40.07848755560898" lon="18.224426027797396"><ele>108.33333333333334</ele><time>2026-04-05T10:45:39.985Z</time></trkpt><trkpt lat="40.07860263204708" lon="18.22463372257004"><ele>108.66666666666667</ele><time>2026-04-05T10:45:40.984Z</time></trkpt><trkpt lat="40.078719819454335" lon="18.22484288656286"><ele>109.0</ele><time>2026-04-05T10:45:41.984Z</time></trkpt><trkpt lat="40.07883739935919" lon="18.22505439634964"><ele>109.0</ele><time>2026-04-05T10:45:42.984Z</time></trkpt><trkpt lat="40.07895876614583" lon="18.22525716864766"><ele>109.0</ele><time>2026-04-05T10:45:43.984Z</time></trkpt><trkpt lat="40.07907917724251" lon="18.225462023314645"><ele>109.0</ele><time>2026-04-05T10:45:44.984Z</time></trkpt><trkpt lat="40.07919456247608" lon="18.22567304358664"><ele>109.0</ele><time>2026-04-05T10:45:45.984Z</time></trkpt><trkpt lat="40.07930975398338" lon="18.225883962781413"><ele>109.0</ele><time>2026-04-05T10:45:46.984Z</time></trkpt><trkpt lat="40.07942546208209" lon="18.226091669840063"><ele>109.0</ele><time>2026-04-05T10:45:47.984Z</time></trkpt><trkpt lat="40.07953755995564" lon="18.226298352242345"><ele>108.66666666666667</ele><time>2026-04-05T10:45:48.984Z</time></trkpt><trkpt lat="40.07965628181011" lon="18.22650618437424"><ele>108.33333333333334</ele><time>2026-04-05T10:45:49.984Z</time></trkpt><trkpt lat="40.07977600842952" lon="18.226714567739318"><ele>108.0</ele><time>2026-04-05T10:45:50.984Z</time></trkpt><trkpt lat="40.07989992995785" lon="18.226929231092736"><ele>108.33333333333334</ele><time>2026-04-05T10:45:51.984Z</time></trkpt><trkpt lat="40.080018450670394" lon="18.227160207753077"><ele>108.66666666666667</ele><time>2026-04-05T10:45:52.984Z</time></trkpt><trkpt lat="40.08014481277316" lon="18.22738442858879"><ele>109.0</ele><time>2026-04-05T10:45:53.984Z</time></trkpt><trkpt lat="40.080272595486065" lon="18.227608985298314"><ele>108.33333333333334</ele><time>2026-04-05T10:45:54.984Z</time></trkpt><trkpt lat="40.08039719816339" lon="18.22783789079867"><ele>107.66666666666666</ele><time>2026-04-05T10:45:55.984Z</time></trkpt><trkpt lat="40.08052859309174" lon="18.22806709135271"><ele>107.0</ele><time>2026-04-05T10:45:56.984Z</time></trkpt><trkpt lat="40.08065968300135" lon="18.22830234077837"><ele>106.66666666666666</ele><time>2026-04-05T10:45:57.984Z</time></trkpt><trkpt lat="40.08079502224884" lon="18.228534954821704"><ele>106.33333333333334</ele><time>2026-04-05T10:45:58.984Z</time></trkpt><trkpt lat="40.080920650805865" lon="18.228758772625103"><ele>106.0</ele><time>2026-04-05T10:45:59.984Z</time></trkpt><trkpt lat="40.08104658438925" lon="18.228981664498352"><ele>106.66666666666667</ele><time>2026-04-05T10:46:00.984Z</time></trkpt><trkpt lat="40.081168401058775" lon="18.22920523873745"><ele>107.33333333333334</ele><time>2026-04-05T10:46:01.984Z</time></trkpt><trkpt lat="40.081293945022544" lon="18.22942356596789"><ele>108.0</ele><time>2026-04-05T10:46:02.984Z</time></trkpt><trkpt lat="40.081412547643616" lon="18.229642592848325"><ele>108.33333333333334</ele><time>2026-04-05T10:46:03.984Z</time></trkpt><trkpt lat="40.081528742160536" lon="18.22987070968329"><ele>108.66666666666667</ele><time>2026-04-05T10:46:04.984Z</time></trkpt><trkpt lat="40.08163018834553" lon="18.23009190359884"><ele>109.0</ele><time>2026-04-05T10:46:05.984Z</time></trkpt><trkpt lat="40.081774154488905" lon="18.23029789909771"><ele>109.33333333333334</ele><time>2026-04-05T10:46:06.984Z</time></trkpt><trkpt lat="40.081898955793676" lon="18.230507800780785"><ele>109.66666666666666</ele><time>2026-04-05T10:46:07.984Z</time></trkpt><trkpt lat="40.082025786625266" lon="18.230716340214762"><ele>110.0</ele><time>2026-04-05T10:46:08.984Z</time></trkpt><trkpt lat="40.082143904260626" lon="18.23093199772105"><ele>110.0</ele><time>2026-04-05T10:46:09.984Z</time></trkpt><trkpt lat="40.082264435914894" lon="18.23115029080202"><ele>110.0</ele><time>2026-04-05T10:46:10.984Z</time></trkpt><trkpt lat="40.08238519044879" lon="18.231373354293154"><ele>110.0</ele><time>2026-04-05T10:46:11.984Z</time></trkpt><trkpt lat="40.08250781754258" lon="18.23159856449632"><ele>109.66666666666666</ele><time>2026-04-05T10:46:12.984Z</time></trkpt><trkpt lat="40.0826214755312" lon="18.231835661873266"><ele>109.33333333333334</ele><time>2026-04-05T10:46:13.984Z</time></trkpt><trkpt lat="40.082751679816724" lon="18.23205467216048"><ele>109.0</ele><time>2026-04-05T10:46:14.984Z</time></trkpt><trkpt lat="40.08288403493639" lon="18.232267633248128"><ele>108.66666666666667</ele><time>2026-04-05T10:46:15.984Z</time></trkpt><trkpt lat="40.08301730376544" lon="18.23248645893199"><ele>108.33333333333334</ele><time>2026-04-05T10:46:16.984Z</time></trkpt><trkpt lat="40.083145169315024" lon="18.23271040908654"><ele>108.0</ele><time>2026-04-05T10:46:17.984Z</time></trkpt><trkpt lat="40.08327241735732" lon="18.232944237417037"><ele>107.66666666666666</ele><time>2026-04-05T10:46:18.984Z</time></trkpt><trkpt lat="40.08340200454212" lon="18.23317966198196"><ele>107.33333333333333</ele><time>2026-04-05T10:46:19.984Z</time></trkpt><trkpt lat="40.08353045687418" lon="18.23341470722291"><ele>107.0</ele><time>2026-04-05T10:46:20.984Z</time></trkpt><trkpt lat="40.08366178206531" lon="18.233648484549207"><ele>107.0</ele><time>2026-04-05T10:46:21.984Z</time></trkpt><trkpt lat="40.083792419434275" lon="18.233880391054942"><ele>107.0</ele><time>2026-04-05T10:46:22.984Z</time></trkpt><trkpt lat="40.083926676445486" lon="18.23411479739722"><ele>107.0</ele><time>2026-04-05T10:46:23.984Z</time></trkpt><trkpt lat="40.084059488646034" lon="18.234342925808093"><ele>107.0</ele><time>2026-04-05T10:46:24.984Z</time></trkpt><trkpt lat="40.084190236532805" lon="18.23458125250679"><ele>107.0</ele><time>2026-04-05T10:46:25.984Z</time></trkpt><trkpt lat="40.08432030755103" lon="18.234818398059055"><ele>107.0</ele><time>2026-04-05T10:46:26.984Z</time></trkpt><trkpt lat="40.08444974157407" lon="18.235055987084564"><ele>107.0</ele><time>2026-04-05T10:46:27.984Z</time></trkpt><trkpt lat="40.0845788698398" lon="18.2352883902671"><ele>107.0</ele><time>2026-04-05T10:46:28.984Z</time></trkpt><trkpt lat="40.08470915051086" lon="18.235522940355242"><ele>107.0</ele><time>2026-04-05T10:46:29.984Z</time></trkpt><trkpt lat="40.08483896051578" lon="18.235759718197052"><ele>107.33333333333333</ele><time>2026-04-05T10:46:30.984Z</time></trkpt><trkpt lat="40.08497272804566" lon="18.235993117575163"><ele>107.66666666666666</ele><time>2026-04-05T10:46:31.984Z</time></trkpt><trkpt lat="40.08510296850846" lon="18.236230513214405"><ele>108.0</ele><time>2026-04-05T10:46:32.984Z</time></trkpt><trkpt lat="40.085234010458464" lon="18.23646359439518"><ele>107.66666666666666</ele><time>2026-04-05T10:46:33.984Z</time></trkpt><trkpt lat="40.08536771324189" lon="18.23670042736035"><ele>107.33333333333333</ele><time>2026-04-05T10:46:34.984Z</time></trkpt><trkpt lat="40.085497858731244" lon="18.236934904017776"><ele>107.0</ele><time>2026-04-05T10:46:35.984Z</time></trkpt><trkpt lat="40.08562911167041" lon="18.23716872729582"><ele>107.0</ele><time>2026-04-05T10:46:36.985Z</time></trkpt><trkpt lat="40.08575995751722" lon="18.237398964336347"><ele>107.0</ele><time>2026-04-05T10:46:37.985Z</time></trkpt><trkpt lat="40.08589135180178" lon="18.237635322943262"><ele>107.0</ele><time>2026-04-05T10:46:38.984Z</time></trkpt><trkpt lat="40.08602518224125" lon="18.237868460813505"><ele>106.66666666666666</ele><time>2026-04-05T10:46:39.985Z</time></trkpt><trkpt lat="40.08615546002178" lon="18.23809882537662"><ele>106.33333333333334</ele><time>2026-04-05T10:46:40.984Z</time></trkpt><trkpt lat="40.08628345138962" lon="18.238333434295622"><ele>106.0</ele><time>2026-04-05T10:46:41.984Z</time></trkpt><trkpt lat="40.08640921849566" lon="18.238568090305403"><ele>106.0</ele><time>2026-04-05T10:46:42.984Z</time></trkpt><trkpt lat="40.08653617867485" lon="18.238799950909883"><ele>106.0</ele><time>2026-04-05T10:46:43.984Z</time></trkpt><trkpt lat="40.086665469212335" lon="18.239028149584666"><ele>106.0</ele><time>2026-04-05T10:46:44.984Z</time></trkpt><trkpt lat="40.08679559615136" lon="18.239257623686186"><ele>106.0</ele><time>2026-04-05T10:46:45.984Z</time></trkpt><trkpt lat="40.08692736396263" lon="18.239483967034026"><ele>106.0</ele><time>2026-04-05T10:46:46.984Z</time></trkpt><trkpt lat="40.087056076396756" lon="18.239710318610342"><ele>106.0</ele><time>2026-04-05T10:46:47.984Z</time></trkpt><trkpt lat="40.08718337189785" lon="18.239938935514385"><ele>105.66666666666667</ele><time>2026-04-05T10:46:48.984Z</time></trkpt><trkpt lat="40.087307025622785" lon="18.24016396521179"><ele>105.33333333333334</ele><time>2026-04-05T10:46:49.984Z</time></trkpt><trkpt lat="40.08743590386501" lon="18.24039082662885"><ele>105.0</ele><time>2026-04-05T10:46:50.984Z</time></trkpt><trkpt lat="40.08756368306509" lon="18.24061733145415"><ele>104.33333333333334</ele><time>2026-04-05T10:46:51.984Z</time></trkpt><trkpt lat="40.087692486551354" lon="18.24084568985566"><ele>103.66666666666667</ele><time>2026-04-05T10:46:52.984Z</time></trkpt><trkpt lat="40.08782087598594" lon="18.241073848913455"><ele>103.0</ele><time>2026-04-05T10:46:53.984Z</time></trkpt><trkpt lat="40.08794860025103" lon="18.241300326669514"><ele>102.33333333333334</ele><time>2026-04-05T10:46:54.984Z</time></trkpt><trkpt lat="40.08807942197588" lon="18.241531253627983"><ele>101.66666666666666</ele><time>2026-04-05T10:46:55.984Z</time></trkpt><trkpt lat="40.088211421412296" lon="18.24176502549039"><ele>101.0</ele><time>2026-04-05T10:46:56.984Z</time></trkpt><trkpt lat="40.08834463563155" lon="18.242003789435632"><ele>100.0</ele><time>2026-04-05T10:46:57.984Z</time></trkpt><trkpt lat="40.08847836530123" lon="18.242245148138093"><ele>99.0</ele><time>2026-04-05T10:46:58.984Z</time></trkpt><trkpt lat="40.0886124130334" lon="18.24249235809226"><ele>98.5</ele><time>2026-04-05T10:46:59.984Z</time></trkpt><trkpt lat="40.08874995936662" lon="18.24274542139813"><ele>98.0</ele><time>2026-04-05T10:47:00.984Z</time></trkpt><trkpt lat="40.08888570083406" lon="18.242992289578517"><ele>98.0</ele><time>2026-04-05T10:47:01.984Z</time></trkpt><trkpt lat="40.08902309482961" lon="18.24323849389654"><ele>98.0</ele><time>2026-04-05T10:47:02.984Z</time></trkpt><trkpt lat="40.08916352225066" lon="18.24348417788663"><ele>97.5</ele><time>2026-04-05T10:47:03.984Z</time></trkpt><trkpt lat="40.08930170693584" lon="18.243725364496346"><ele>97.0</ele><time>2026-04-05T10:47:04.984Z</time></trkpt><trkpt lat="40.08943976698732" lon="18.243968412747893"><ele>97.0</ele><time>2026-04-05T10:47:05.984Z</time></trkpt><trkpt lat="40.08957521316143" lon="18.244208470322704"><ele>97.0</ele><time>2026-04-05T10:47:06.984Z</time></trkpt><trkpt lat="40.089708016026066" lon="18.244450359849036"><ele>97.0</ele><time>2026-04-05T10:47:07.984Z</time></trkpt><trkpt lat="40.089844180254765" lon="18.244694475961825"><ele>97.0</ele><time>2026-04-05T10:47:08.984Z</time></trkpt><trkpt lat="40.089983132541235" lon="18.244943009918952"><ele>95.0</ele><time>2026-04-05T10:47:09.984Z</time></trkpt><trkpt lat="40.09012128152884" lon="18.24518915056294"><ele>93.0</ele><time>2026-04-05T10:47:10.984Z</time></trkpt><trkpt lat="40.090258972351855" lon="18.245440254727548"><ele>94.0</ele><time>2026-04-05T10:47:11.984Z</time></trkpt><trkpt lat="40.09039838255885" lon="18.24568804471843"><ele>95.0</ele><time>2026-04-05T10:47:12.984Z</time></trkpt><trkpt lat="40.0905359657741" lon="18.245937006434264"><ele>95.0</ele><time>2026-04-05T10:47:13.984Z</time></trkpt><trkpt lat="40.09067494173664" lon="18.246185989996448"><ele>95.0</ele><time>2026-04-05T10:47:14.984Z</time></trkpt><trkpt lat="40.09081229526484" lon="18.246431829964205"><ele>92.5</ele><time>2026-04-05T10:47:15.984Z</time></trkpt><trkpt lat="40.090949813724066" lon="18.246676477853875"><ele>90.0</ele><time>2026-04-05T10:47:16.984Z</time></trkpt><trkpt lat="40.091087483076265" lon="18.246916551121252"><ele>90.0</ele><time>2026-04-05T10:47:17.984Z</time></trkpt><trkpt lat="40.0912235431608" lon="18.24715423109997"><ele>90.0</ele><time>2026-04-05T10:47:18.984Z</time></trkpt><trkpt lat="40.09135924692049" lon="18.24738981718703"><ele>90.0</ele><time>2026-04-05T10:47:19.984Z</time></trkpt><trkpt lat="40.09149077399249" lon="18.24762410540769"><ele>90.0</ele><time>2026-04-05T10:47:20.984Z</time></trkpt><trkpt lat="40.09162060255919" lon="18.24785263879667"><ele>90.0</ele><time>2026-04-05T10:47:21.984Z</time></trkpt><trkpt lat="40.09174954367697" lon="18.248078330297094"><ele>90.33333333333333</ele><time>2026-04-05T10:47:22.984Z</time></trkpt><trkpt lat="40.091874708414956" lon="18.248299747321788"><ele>90.66666666666666</ele><time>2026-04-05T10:47:23.984Z</time></trkpt><trkpt lat="40.09200009270856" lon="18.24852022583672"><ele>91.0</ele><time>2026-04-05T10:47:24.984Z</time></trkpt><trkpt lat="40.09212906788966" lon="18.248745001823455"><ele>90.5</ele><time>2026-04-05T10:47:25.984Z</time></trkpt><trkpt lat="40.092261688252314" lon="18.248977117816114"><ele>90.0</ele><time>2026-04-05T10:47:26.984Z</time></trkpt><trkpt lat="40.09239926276642" lon="18.249221278100276"><ele>90.0</ele><time>2026-04-05T10:47:27.984Z</time></trkpt><trkpt lat="40.09254592124545" lon="18.249469686063648"><ele>90.0</ele><time>2026-04-05T10:47:28.984Z</time></trkpt><trkpt lat="40.09269036143751" lon="18.249722877089354"><ele>89.0</ele><time>2026-04-05T10:47:29.984Z</time></trkpt><trkpt lat="40.092834236097254" lon="18.24998577310857"><ele>88.0</ele><time>2026-04-05T10:47:30.984Z</time></trkpt><trkpt lat="40.09298528825869" lon="18.250255488318217"><ele>88.0</ele><time>2026-04-05T10:47:31.984Z</time></trkpt><trkpt lat="40.09313715882317" lon="18.25052448534609"><ele>88.0</ele><time>2026-04-05T10:47:32.984Z</time></trkpt><trkpt lat="40.09328008776761" lon="18.250784878775814"><ele>88.0</ele><time>2026-04-05T10:47:33.984Z</time></trkpt><trkpt lat="40.09340461767681" lon="18.251016613510455"><ele>88.0</ele><time>2026-04-05T10:47:34.984Z</time></trkpt><trkpt lat="40.09351115624077" lon="18.251212808152157"><ele>88.0</ele><time>2026-04-05T10:47:35.984Z</time></trkpt><trkpt lat="40.09361646929079" lon="18.25139256401845"><ele>88.0</ele><time>2026-04-05T10:47:36.984Z</time></trkpt><trkpt lat="40.09370830637407" lon="18.251571796316128"><ele>88.0</ele><time>2026-04-05T10:47:37.984Z</time></trkpt><trkpt lat="40.093804154776414" lon="18.25174637679116"><ele>88.0</ele><time>2026-04-05T10:47:38.984Z</time></trkpt><trkpt lat="40.093894490815686" lon="18.25192232488332"><ele>88.0</ele><time>2026-04-05T10:47:39.984Z</time></trkpt><trkpt lat="40.09398598510978" lon="18.25210067608201"><ele>88.0</ele><time>2026-04-05T10:47:40.984Z</time></trkpt><trkpt lat="40.094080844906465" lon="18.252265542958533"><ele>88.0</ele><time>2026-04-05T10:47:41.984Z</time></trkpt><trkpt lat="40.09417274130837" lon="18.252427157316525"><ele>88.0</ele><time>2026-04-05T10:47:42.984Z</time></trkpt><trkpt lat="40.09426144102928" lon="18.25257738461099"><ele>88.0</ele><time>2026-04-05T10:47:43.984Z</time></trkpt><trkpt lat="40.09434899626751" lon="18.25272199238707"><ele>88.0</ele><time>2026-04-05T10:47:44.984Z</time></trkpt><trkpt lat="40.09442228230987" lon="18.252845994900348"><ele>88.0</ele><time>2026-04-05T10:47:45.984Z</time></trkpt><trkpt lat="40.094476488506395" lon="18.252945036704162"><ele>88.0</ele><time>2026-04-05T10:47:46.984Z</time></trkpt><trkpt lat="40.094523068506746" lon="18.25302438117415"><ele>88.0</ele><time>2026-04-05T10:47:47.984Z</time></trkpt><trkpt lat="40.09456580778003" lon="18.253088741979468"><ele>88.0</ele><time>2026-04-05T10:47:48.984Z</time></trkpt><trkpt lat="40.09460921303854" lon="18.25315125125936"><ele>88.0</ele><time>2026-04-05T10:47:49.984Z</time></trkpt><trkpt lat="40.09466692472973" lon="18.253257328161297"><ele>88.0</ele><time>2026-04-05T10:47:50.984Z</time></trkpt><trkpt lat="40.09474954715147" lon="18.25341935155366"><ele>87.66666666666666</ele><time>2026-04-05T10:47:51.984Z</time></trkpt><trkpt lat="40.09485629236581" lon="18.25362002719495"><ele>87.33333333333333</ele><time>2026-04-05T10:47:52.984Z</time></trkpt><trkpt lat="40.094985379729195" lon="18.253857249011354"><ele>87.0</ele><time>2026-04-05T10:47:53.984Z</time></trkpt><trkpt lat="40.09512290014912" lon="18.254101627809128"><ele>88.0</ele><time>2026-04-05T10:47:54.984Z</time></trkpt><trkpt lat="40.09526931612933" lon="18.254359267724375"><ele>89.0</ele><time>2026-04-05T10:47:55.984Z</time></trkpt><trkpt lat="40.095419834205224" lon="18.254636126820674"><ele>87.0</ele><time>2026-04-05T10:47:56.984Z</time></trkpt><trkpt lat="40.095581334909554" lon="18.25491615144696"><ele>85.0</ele><time>2026-04-05T10:47:57.984Z</time></trkpt><trkpt lat="40.095741161847435" lon="18.25519302204857"><ele>86.0</ele><time>2026-04-05T10:47:58.984Z</time></trkpt><trkpt lat="40.09589748433082" lon="18.255472546616698"><ele>87.0</ele><time>2026-04-05T10:47:59.984Z</time></trkpt><trkpt lat="40.09604461586434" lon="18.255732920213884"><ele>87.0</ele><time>2026-04-05T10:48:00.984Z</time></trkpt><trkpt lat="40.09618718699785" lon="18.255981206360186"><ele>87.0</ele><time>2026-04-05T10:48:01.984Z</time></trkpt><trkpt lat="40.09632199140322" lon="18.256211925318684"><ele>87.0</ele><time>2026-04-05T10:48:02.984Z</time></trkpt><trkpt lat="40.09644705579973" lon="18.25643164390807"><ele>87.0</ele><time>2026-04-05T10:48:03.984Z</time></trkpt><trkpt lat="40.09656825995274" lon="18.25663908391897"><ele>87.0</ele><time>2026-04-05T10:48:04.984Z</time></trkpt><trkpt lat="40.09667653684403" lon="18.256832630922975"><ele>88.0</ele><time>2026-04-05T10:48:05.984Z</time></trkpt><trkpt lat="40.096780522099145" lon="18.25702461567993"><ele>89.0</ele><time>2026-04-05T10:48:06.984Z</time></trkpt><trkpt lat="40.09688863741357" lon="18.257211847680257"><ele>90.0</ele><time>2026-04-05T10:48:07.984Z</time></trkpt><trkpt lat="40.09700330391952" lon="18.2574037049521"><ele>91.66666666666667</ele><time>2026-04-05T10:48:08.984Z</time></trkpt><trkpt lat="40.09711204514311" lon="18.257613711880772"><ele>93.33333333333334</ele><time>2026-04-05T10:48:09.984Z</time></trkpt><trkpt lat="40.09722289112751" lon="18.257839340366456"><ele>95.0</ele><time>2026-04-05T10:48:10.984Z</time></trkpt><trkpt lat="40.0973410676042" lon="18.258077305843184"><ele>91.5</ele><time>2026-04-05T10:48:11.984Z</time></trkpt><trkpt lat="40.097475747841514" lon="18.258317183883833"><ele>88.0</ele><time>2026-04-05T10:48:12.984Z</time></trkpt><trkpt lat="40.097617562441876" lon="18.25856170017317"><ele>88.0</ele><time>2026-04-05T10:48:13.984Z</time></trkpt><trkpt lat="40.09775692460044" lon="18.258819895554055"><ele>88.0</ele><time>2026-04-05T10:48:14.984Z</time></trkpt><trkpt lat="40.097898751611055" lon="18.25908885051804"><ele>87.5</ele><time>2026-04-05T10:48:15.984Z</time></trkpt><trkpt lat="40.098052645215525" lon="18.259361254571346"><ele>87.0</ele><time>2026-04-05T10:48:16.984Z</time></trkpt><trkpt lat="40.09820877913354" lon="18.259637192179184"><ele>86.0</ele><time>2026-04-05T10:48:17.984Z</time></trkpt><trkpt lat="40.09836699394551" lon="18.25990791639005"><ele>85.0</ele><time>2026-04-05T10:48:18.984Z</time></trkpt><trkpt lat="40.09851972932634" lon="18.26018314205325"><ele>85.0</ele><time>2026-04-05T10:48:19.984Z</time></trkpt><trkpt lat="40.09867655839299" lon="18.260455028222136"><ele>85.0</ele><time>2026-04-05T10:48:20.984Z</time></trkpt><trkpt lat="40.09882925669626" lon="18.260733425414497"><ele>84.5</ele><time>2026-04-05T10:48:21.984Z</time></trkpt><trkpt lat="40.098985437115715" lon="18.26100792383248"><ele>84.0</ele><time>2026-04-05T10:48:22.984Z</time></trkpt><trkpt lat="40.09914165893251" lon="18.261284178413632"><ele>83.0</ele><time>2026-04-05T10:48:23.984Z</time></trkpt><trkpt lat="40.099291579253574" lon="18.261569159070213"><ele>82.0</ele><time>2026-04-05T10:48:24.984Z</time></trkpt><trkpt lat="40.09944730352879" lon="18.261843442291323"><ele>82.0</ele><time>2026-04-05T10:48:25.984Z</time></trkpt><trkpt lat="40.0996011313113" lon="18.26211109518954"><ele>82.0</ele><time>2026-04-05T10:48:26.984Z</time></trkpt><trkpt lat="40.09974323199334" lon="18.262378741488487"><ele>82.0</ele><time>2026-04-05T10:48:27.984Z</time></trkpt><trkpt lat="40.09989296522163" lon="18.262642372695677"><ele>82.0</ele><time>2026-04-05T10:48:28.984Z</time></trkpt><trkpt lat="40.100037771238384" lon="18.26290125802313"><ele>83.0</ele><time>2026-04-05T10:48:29.984Z</time></trkpt><trkpt lat="40.100186326669096" lon="18.263150496394285"><ele>84.0</ele><time>2026-04-05T10:48:30.984Z</time></trkpt><trkpt lat="40.100330377129445" lon="18.263398553449946"><ele>84.0</ele><time>2026-04-05T10:48:31.984Z</time></trkpt><trkpt lat="40.100468831317585" lon="18.26365558220205"><ele>84.0</ele><time>2026-04-05T10:48:32.984Z</time></trkpt><trkpt lat="40.10060778469962" lon="18.26390923727112"><ele>84.5</ele><time>2026-04-05T10:48:33.984Z</time></trkpt><trkpt lat="40.10074731333452" lon="18.264160109949152"><ele>85.0</ele><time>2026-04-05T10:48:34.984Z</time></trkpt><trkpt lat="40.10088881725911" lon="18.26441094423549"><ele>84.5</ele><time>2026-04-05T10:48:35.984Z</time></trkpt><trkpt lat="40.10102964005478" lon="18.264664500357732"><ele>84.0</ele><time>2026-04-05T10:48:36.984Z</time></trkpt><trkpt lat="40.10117215071545" lon="18.264922027018702"><ele>84.0</ele><time>2026-04-05T10:48:37.983Z</time></trkpt><trkpt lat="40.10131695414021" lon="18.265177858209597"><ele>84.0</ele><time>2026-04-05T10:48:38.983Z</time></trkpt><trkpt lat="40.101462946240666" lon="18.26543714119578"><ele>85.0</ele><time>2026-04-05T10:48:39.983Z</time></trkpt><trkpt lat="40.10161038491652" lon="18.265696833986045"><ele>86.0</ele><time>2026-04-05T10:48:40.983Z</time></trkpt><trkpt lat="40.10175868269945" lon="18.265961092342735"><ele>86.0</ele><time>2026-04-05T10:48:41.983Z</time></trkpt><trkpt lat="40.10190533254259" lon="18.266229274444257"><ele>86.0</ele><time>2026-04-05T10:48:42.983Z</time></trkpt><trkpt lat="40.10205329989102" lon="18.26649875916261"><ele>86.0</ele><time>2026-04-05T10:48:43.983Z</time></trkpt><trkpt lat="40.10220186185154" lon="18.266762780592636"><ele>86.0</ele><time>2026-04-05T10:48:44.983Z</time></trkpt><trkpt lat="40.102351645582715" lon="18.267030808040197"><ele>85.0</ele><time>2026-04-05T10:48:45.983Z</time></trkpt><trkpt lat="40.10250692395206" lon="18.26730052137801"><ele>84.0</ele><time>2026-04-05T10:48:46.983Z</time></trkpt><trkpt lat="40.10266019173981" lon="18.267568894225196"><ele>84.0</ele><time>2026-04-05T10:48:47.983Z</time></trkpt><trkpt lat="40.1028111973151" lon="18.26783947707008"><ele>84.0</ele><time>2026-04-05T10:48:48.983Z</time></trkpt><trkpt lat="40.10296272531359" lon="18.268110448559362"><ele>84.0</ele><time>2026-04-05T10:48:49.983Z</time></trkpt><trkpt lat="40.103114889778546" lon="18.26838007003361"><ele>84.0</ele><time>2026-04-05T10:48:50.983Z</time></trkpt><trkpt lat="40.10326709996217" lon="18.268651027965348"><ele>82.5</ele><time>2026-04-05T10:48:51.983Z</time></trkpt><trkpt lat="40.10341922976935" lon="18.26892420016198"><ele>81.0</ele><time>2026-04-05T10:48:52.983Z</time></trkpt><trkpt lat="40.103571716396786" lon="18.269192341249116"><ele>80.5</ele><time>2026-04-05T10:48:53.983Z</time></trkpt><trkpt lat="40.103723549538856" lon="18.269458987371262"><ele>80.0</ele><time>2026-04-05T10:48:54.982Z</time></trkpt><trkpt lat="40.10387197480509" lon="18.269724466285652"><ele>79.5</ele><time>2026-04-05T10:48:55.983Z</time></trkpt><trkpt lat="40.10401637423256" lon="18.269985689525498"><ele>79.0</ele><time>2026-04-05T10:48:56.983Z</time></trkpt><trkpt lat="40.104159626651494" lon="18.270241180465735"><ele>79.0</ele><time>2026-04-05T10:48:57.983Z</time></trkpt><trkpt lat="40.104301896032574" lon="18.27048974353488"><ele>79.0</ele><time>2026-04-05T10:48:58.983Z</time></trkpt><trkpt lat="40.10444688921115" lon="18.270735943633696"><ele>79.0</ele><time>2026-04-05T10:48:59.983Z</time></trkpt><trkpt lat="40.10458906667251" lon="18.270985719270765"><ele>79.0</ele><time>2026-04-05T10:49:00.983Z</time></trkpt><trkpt lat="40.10472542782373" lon="18.271237498202957"><ele>79.33333333333333</ele><time>2026-04-05T10:49:01.983Z</time></trkpt><trkpt lat="40.104857186704585" lon="18.271472006601286"><ele>79.66666666666667</ele><time>2026-04-05T10:49:02.983Z</time></trkpt><trkpt lat="40.104983229838396" lon="18.271695712971002"><ele>80.0</ele><time>2026-04-05T10:49:03.983Z</time></trkpt><trkpt lat="40.10510825996937" lon="18.27192037704409"><ele>80.0</ele><time>2026-04-05T10:49:04.983Z</time></trkpt><trkpt lat="40.10523550220751" lon="18.272148359224545"><ele>80.0</ele><time>2026-04-05T10:49:05.983Z</time></trkpt><trkpt lat="40.10535170599874" lon="18.272366369311825"><ele>80.0</ele><time>2026-04-05T10:49:06.983Z</time></trkpt><trkpt lat="40.105460026830855" lon="18.272548661156584"><ele>80.33333333333334</ele><time>2026-04-05T10:49:07.983Z</time></trkpt><trkpt lat="40.10555965091325" lon="18.272711269004898"><ele>80.66666666666667</ele><time>2026-04-05T10:49:08.983Z</time></trkpt><trkpt lat="40.10565458360584" lon="18.272871201486875"><ele>81.0</ele><time>2026-04-05T10:49:09.983Z</time></trkpt><trkpt lat="40.10573838341781" lon="18.273023087717714"><ele>80.5</ele><time>2026-04-05T10:49:10.983Z</time></trkpt><trkpt lat="40.10582055497701" lon="18.273169101322218"><ele>80.0</ele><time>2026-04-05T10:49:11.983Z</time></trkpt><trkpt lat="40.105893107148056" lon="18.273323949002396"><ele>79.5</ele><time>2026-04-05T10:49:12.983Z</time></trkpt><trkpt lat="40.10596831880408" lon="18.273467223533196"><ele>79.0</ele><time>2026-04-05T10:49:13.983Z</time></trkpt><trkpt lat="40.10604008211245" lon="18.27360018867858"><ele>79.0</ele><time>2026-04-05T10:49:14.983Z</time></trkpt><trkpt lat="40.106120641440384" lon="18.27374075003865"><ele>79.0</ele><time>2026-04-05T10:49:15.983Z</time></trkpt><trkpt lat="40.10620377304884" lon="18.27389638771711"><ele>79.0</ele><time>2026-04-05T10:49:16.983Z</time></trkpt><trkpt lat="40.106304093012305" lon="18.274051562444473"><ele>79.0</ele><time>2026-04-05T10:49:17.983Z</time></trkpt><trkpt lat="40.10640650565399" lon="18.27422484658343"><ele>79.0</ele><time>2026-04-05T10:49:18.983Z</time></trkpt><trkpt lat="40.10651256205002" lon="18.274408139960883"><ele>79.0</ele><time>2026-04-05T10:49:19.983Z</time></trkpt><trkpt lat="40.10661303291817" lon="18.274608113488163"><ele>79.0</ele><time>2026-04-05T10:49:20.983Z</time></trkpt><trkpt lat="40.10672404898205" lon="18.274806864964255"><ele>78.66666666666666</ele><time>2026-04-05T10:49:21.983Z</time></trkpt><trkpt lat="40.106849861213334" lon="18.275026175369053"><ele>78.33333333333333</ele><time>2026-04-05T10:49:22.983Z</time></trkpt><trkpt lat="40.106992967396835" lon="18.27526173648356"><ele>78.0</ele><time>2026-04-05T10:49:23.983Z</time></trkpt><trkpt lat="40.10713987585111" lon="18.275507127762562"><ele>78.0</ele><time>2026-04-05T10:49:24.983Z</time></trkpt><trkpt lat="40.10729679102869" lon="18.275769107991675"><ele>78.0</ele><time>2026-04-05T10:49:25.983Z</time></trkpt><trkpt lat="40.10744987688865" lon="18.27604079334724"><ele>78.0</ele><time>2026-04-05T10:49:26.983Z</time></trkpt><trkpt lat="40.107596428971924" lon="18.27631111359683"><ele>78.0</ele><time>2026-04-05T10:49:27.983Z</time></trkpt><trkpt lat="40.10773745793911" lon="18.276572394895783"><ele>79.5</ele><time>2026-04-05T10:49:28.983Z</time></trkpt><trkpt lat="40.10786388247602" lon="18.276808775916994"><ele>81.0</ele><time>2026-04-05T10:49:29.983Z</time></trkpt><trkpt lat="40.10799836479737" lon="18.27705574912866"><ele>81.0</ele><time>2026-04-05T10:49:30.983Z</time></trkpt><trkpt lat="40.10813488386692" lon="18.27729909817164"><ele>81.0</ele><time>2026-04-05T10:49:31.983Z</time></trkpt><trkpt lat="40.108272650447304" lon="18.277539375294065"><ele>80.66666666666667</ele><time>2026-04-05T10:49:32.983Z</time></trkpt><trkpt lat="40.10840132208551" lon="18.2777850567774"><ele>80.33333333333334</ele><time>2026-04-05T10:49:33.982Z</time></trkpt><trkpt lat="40.1085294534453" lon="18.278019049204204"><ele>80.0</ele><time>2026-04-05T10:49:34.982Z</time></trkpt><trkpt lat="40.108656185938294" lon="18.278245627907783"><ele>80.0</ele><time>2026-04-05T10:49:35.982Z</time></trkpt><trkpt lat="40.10878259976167" lon="18.278472668356578"><ele>80.0</ele><time>2026-04-05T10:49:36.982Z</time></trkpt><trkpt lat="40.108909917826125" lon="18.278698223122184"><ele>80.0</ele><time>2026-04-05T10:49:37.982Z</time></trkpt><trkpt lat="40.10903389206896" lon="18.278924216226404"><ele>81.66666666666667</ele><time>2026-04-05T10:49:38.982Z</time></trkpt><trkpt lat="40.10915645902762" lon="18.27914724296069"><ele>83.33333333333333</ele><time>2026-04-05T10:49:39.982Z</time></trkpt><trkpt lat="40.10928349668485" lon="18.279369193724733"><ele>85.0</ele><time>2026-04-05T10:49:40.982Z</time></trkpt><trkpt lat="40.10940404988686" lon="18.279580684395032"><ele>85.66666666666666</ele><time>2026-04-05T10:49:41.982Z</time></trkpt><trkpt lat="40.109519644360745" lon="18.279793764703705"><ele>86.33333333333333</ele><time>2026-04-05T10:49:42.982Z</time></trkpt><trkpt lat="40.10963335251325" lon="18.28000569189175"><ele>87.0</ele><time>2026-04-05T10:49:43.982Z</time></trkpt><trkpt lat="40.10974883719458" lon="18.280217560653135"><ele>87.0</ele><time>2026-04-05T10:49:44.982Z</time></trkpt><trkpt lat="40.1098691284418" lon="18.280425843660346"><ele>87.0</ele><time>2026-04-05T10:49:45.982Z</time></trkpt><trkpt lat="40.109991537206355" lon="18.280631149545904"><ele>87.0</ele><time>2026-04-05T10:49:46.982Z</time></trkpt><trkpt lat="40.11011429007257" lon="18.280844295287004"><ele>88.0</ele><time>2026-04-05T10:49:47.982Z</time></trkpt><trkpt lat="40.11023426436681" lon="18.281061429698138"><ele>89.0</ele><time>2026-04-05T10:49:48.982Z</time></trkpt><trkpt lat="40.11035430038646" lon="18.28128010703427"><ele>90.0</ele><time>2026-04-05T10:49:49.982Z</time></trkpt><trkpt lat="40.1104724054138" lon="18.281504323615323"><ele>90.33333333333333</ele><time>2026-04-05T10:49:50.982Z</time></trkpt><trkpt lat="40.11059356582106" lon="18.281733020165625"><ele>90.66666666666666</ele><time>2026-04-05T10:49:51.982Z</time></trkpt><trkpt lat="40.11072249727025" lon="18.281959162323737"><ele>91.0</ele><time>2026-04-05T10:49:52.982Z</time></trkpt><trkpt lat="40.11085117551915" lon="18.28219218913608"><ele>90.33333333333333</ele><time>2026-04-05T10:49:53.982Z</time></trkpt><trkpt lat="40.11098468183247" lon="18.282422518742944"><ele>89.66666666666667</ele><time>2026-04-05T10:49:54.982Z</time></trkpt><trkpt lat="40.11111505787143" lon="18.282658428467936"><ele>89.0</ele><time>2026-04-05T10:49:55.982Z</time></trkpt><trkpt lat="40.11125019787637" lon="18.282894194472092"><ele>88.5</ele><time>2026-04-05T10:49:56.982Z</time></trkpt><trkpt lat="40.11137580719961" lon="18.283134453018743"><ele>88.0</ele><time>2026-04-05T10:49:57.982Z</time></trkpt><trkpt lat="40.11151943442457" lon="18.283368874566605"><ele>88.0</ele><time>2026-04-05T10:49:58.982Z</time></trkpt><trkpt lat="40.11165159208089" lon="18.28361186676598"><ele>88.0</ele><time>2026-04-05T10:49:59.982Z</time></trkpt><trkpt lat="40.11178686754742" lon="18.283852162586694"><ele>87.0</ele><time>2026-04-05T10:50:00.982Z</time></trkpt><trkpt lat="40.111924349590545" lon="18.284082886216435"><ele>86.0</ele><time>2026-04-05T10:50:01.982Z</time></trkpt><trkpt lat="40.11204585174077" lon="18.28431035894197"><ele>85.0</ele><time>2026-04-05T10:50:02.982Z</time></trkpt><trkpt lat="40.11216946875731" lon="18.284520576685914"><ele>85.0</ele><time>2026-04-05T10:50:03.982Z</time></trkpt><trkpt lat="40.112279626546794" lon="18.284725499529745"><ele>85.0</ele><time>2026-04-05T10:50:04.982Z</time></trkpt><trkpt lat="40.11239369656372" lon="18.284923007675395"><ele>85.0</ele><time>2026-04-05T10:50:05.982Z</time></trkpt><trkpt lat="40.112509917080594" lon="18.28513231090808"><ele>84.33333333333333</ele><time>2026-04-05T10:50:06.982Z</time></trkpt><trkpt lat="40.11262496995003" lon="18.285343953606546"><ele>83.66666666666667</ele><time>2026-04-05T10:50:07.982Z</time></trkpt><trkpt lat="40.112744227772176" lon="18.285552458408617"><ele>83.0</ele><time>2026-04-05T10:50:08.982Z</time></trkpt><trkpt lat="40.11286003905583" lon="18.285765886525837"><ele>82.66666666666667</ele><time>2026-04-05T10:50:09.982Z</time></trkpt><trkpt lat="40.11297976047126" lon="18.28597812618476"><ele>82.33333333333333</ele><time>2026-04-05T10:50:10.982Z</time></trkpt><trkpt lat="40.11309777569791" lon="18.286192808956347"><ele>82.0</ele><time>2026-04-05T10:50:11.982Z</time></trkpt><trkpt lat="40.11322638946115" lon="18.286398933044826"><ele>83.0</ele><time>2026-04-05T10:50:12.982Z</time></trkpt><trkpt lat="40.11334911319565" lon="18.286613063869513"><ele>84.0</ele><time>2026-04-05T10:50:13.982Z</time></trkpt><trkpt lat="40.113466847437316" lon="18.286830290622113"><ele>85.0</ele><time>2026-04-05T10:50:14.982Z</time></trkpt><trkpt lat="40.11358650260998" lon="18.28705060118753"><ele>83.66666666666666</ele><time>2026-04-05T10:50:15.982Z</time></trkpt><trkpt lat="40.113707751962224" lon="18.28726145768583"><ele>82.33333333333333</ele><time>2026-04-05T10:50:16.982Z</time></trkpt><trkpt lat="40.113828467280975" lon="18.28747625110313"><ele>81.0</ele><time>2026-04-05T10:50:17.982Z</time></trkpt><trkpt lat="40.11395023622872" lon="18.287689343503345"><ele>81.0</ele><time>2026-04-05T10:50:18.982Z</time></trkpt><trkpt lat="40.11407037167984" lon="18.287906480055725"><ele>81.0</ele><time>2026-04-05T10:50:19.982Z</time></trkpt><trkpt lat="40.11419535930104" lon="18.288112846366168"><ele>81.0</ele><time>2026-04-05T10:50:20.982Z</time></trkpt><trkpt lat="40.11431202780597" lon="18.28831277750661"><ele>81.0</ele><time>2026-04-05T10:50:21.982Z</time></trkpt><trkpt lat="40.114420319870156" lon="18.28851584215334"><ele>81.0</ele><time>2026-04-05T10:50:22.982Z</time></trkpt><trkpt lat="40.114532915226036" lon="18.28871602495023"><ele>81.0</ele><time>2026-04-05T10:50:23.982Z</time></trkpt><trkpt lat="40.11464779632803" lon="18.28891721770055"><ele>81.33333333333333</ele><time>2026-04-05T10:50:24.982Z</time></trkpt><trkpt lat="40.114762973740525" lon="18.289123357917056"><ele>81.66666666666666</ele><time>2026-04-05T10:50:25.982Z</time></trkpt><trkpt lat="40.11487201758996" lon="18.28932689601879"><ele>82.0</ele><time>2026-04-05T10:50:26.982Z</time></trkpt><trkpt lat="40.11497562937053" lon="18.289525350426054"><ele>82.0</ele><time>2026-04-05T10:50:27.982Z</time></trkpt><trkpt lat="40.11507364761401" lon="18.28969859583918"><ele>82.0</ele><time>2026-04-05T10:50:28.982Z</time></trkpt><trkpt lat="40.11517016532119" lon="18.289868252291775"><ele>82.0</ele><time>2026-04-05T10:50:29.982Z</time></trkpt><trkpt lat="40.115266471114154" lon="18.290037340692255"><ele>84.0</ele><time>2026-04-05T10:50:30.982Z</time></trkpt><trkpt lat="40.11536835044432" lon="18.290211576674846"><ele>86.0</ele><time>2026-04-05T10:50:31.982Z</time></trkpt><trkpt lat="40.11546834319884" lon="18.29038055613846"><ele>88.0</ele><time>2026-04-05T10:50:32.982Z</time></trkpt><trkpt lat="40.11556306149751" lon="18.29055151146723"><ele>88.66666666666666</ele><time>2026-04-05T10:50:33.982Z</time></trkpt><trkpt lat="40.115654027102615" lon="18.290722861139468"><ele>89.33333333333333</ele><time>2026-04-05T10:50:34.982Z</time></trkpt><trkpt lat="40.11575015378766" lon="18.29088274303441"><ele>90.0</ele><time>2026-04-05T10:50:35.982Z</time></trkpt><trkpt lat="40.115834798309216" lon="18.291044304254452"><ele>90.0</ele><time>2026-04-05T10:50:36.982Z</time></trkpt><trkpt lat="40.11592377643513" lon="18.291199414904142"><ele>90.0</ele><time>2026-04-05T10:50:37.982Z</time></trkpt><trkpt lat="40.116004722456324" lon="18.291359235452905"><ele>90.0</ele><time>2026-04-05T10:50:38.982Z</time></trkpt><trkpt lat="40.11609046661618" lon="18.29150046593146"><ele>90.0</ele><time>2026-04-05T10:50:39.982Z</time></trkpt><trkpt lat="40.11615818021046" lon="18.29163719209985"><ele>90.0</ele><time>2026-04-05T10:50:40.982Z</time></trkpt><trkpt lat="40.116225051982106" lon="18.291748247528847"><ele>90.0</ele><time>2026-04-05T10:50:41.982Z</time></trkpt><trkpt lat="40.11628623207765" lon="18.291848831734235"><ele>90.0</ele><time>2026-04-05T10:50:42.982Z</time></trkpt><trkpt lat="40.11634170463205" lon="18.291938978291572"><ele>90.0</ele><time>2026-04-05T10:50:43.982Z</time></trkpt><trkpt lat="40.11639397075366" lon="18.292038881175692"><ele>90.0</ele><time>2026-04-05T10:50:44.982Z</time></trkpt><trkpt lat="40.116451309473355" lon="18.29214009946946"><ele>90.0</ele><time>2026-04-05T10:50:45.982Z</time></trkpt><trkpt lat="40.11651269674489" lon="18.292254882178483"><ele>90.0</ele><time>2026-04-05T10:50:46.982Z</time></trkpt><trkpt lat="40.11657436347483" lon="18.292374048706183"><ele>90.0</ele><time>2026-04-05T10:50:47.982Z</time></trkpt><trkpt lat="40.11664182396875" lon="18.292495722096305"><ele>90.0</ele><time>2026-04-05T10:50:48.982Z</time></trkpt><trkpt lat="40.11671071252847" lon="18.29262755350123"><ele>90.0</ele><time>2026-04-05T10:50:49.982Z</time></trkpt><trkpt lat="40.116776171069695" lon="18.292759660556392"><ele>90.0</ele><time>2026-04-05T10:50:50.982Z</time></trkpt><trkpt lat="40.11684194420989" lon="18.292876173329407"><ele>90.0</ele><time>2026-04-05T10:50:51.981Z</time></trkpt><trkpt lat="40.116910479872615" lon="18.29300020487145"><ele>90.0</ele><time>2026-04-05T10:50:52.981Z</time></trkpt><trkpt lat="40.1169802630229" lon="18.293129238880304"><ele>90.0</ele><time>2026-04-05T10:50:53.981Z</time></trkpt><trkpt lat="40.11704351881046" lon="18.293251745372018"><ele>90.0</ele><time>2026-04-05T10:50:54.982Z</time></trkpt><trkpt lat="40.11709980147349" lon="18.293369808902224"><ele>90.0</ele><time>2026-04-05T10:50:55.981Z</time></trkpt><trkpt lat="40.11714126193324" lon="18.2935044240352"><ele>90.0</ele><time>2026-04-05T10:50:56.981Z</time></trkpt><trkpt lat="40.11717304278612" lon="18.29366967423902"><ele>90.0</ele><time>2026-04-05T10:50:57.982Z</time></trkpt><trkpt lat="40.11722148164883" lon="18.29381619677846"><ele>90.0</ele><time>2026-04-05T10:50:58.981Z</time></trkpt><trkpt lat="40.11725383962691" lon="18.293959227488745"><ele>90.0</ele><time>2026-04-05T10:50:59.981Z</time></trkpt><trkpt lat="40.11728056193821" lon="18.294096567525536"><ele>90.0</ele><time>2026-04-05T10:51:00.982Z</time></trkpt><trkpt lat="40.117303954794544" lon="18.29422270415313"><ele>90.0</ele><time>2026-04-05T10:51:01.982Z</time></trkpt><trkpt lat="40.11732111559921" lon="18.29435348325615"><ele>89.8</ele><time>2026-04-05T10:51:02.982Z</time></trkpt><trkpt lat="40.11734490167652" lon="18.294480283789742"><ele>89.6</ele><time>2026-04-05T10:51:03.982Z</time></trkpt><trkpt lat="40.11734953210742" lon="18.29459699832475"><ele>89.4</ele><time>2026-04-05T10:51:04.982Z</time></trkpt><trkpt lat="40.117363495352684" lon="18.294699029262848"><ele>89.2</ele><time>2026-04-05T10:51:05.982Z</time></trkpt><trkpt lat="40.11737079200887" lon="18.294830812118086"><ele>89.0</ele><time>2026-04-05T10:51:07.982Z</time></trkpt><trkpt lat="40.11741623269723" lon="18.294926376473438"><ele>88.66666666666667</ele><time>2026-04-05T10:51:09.982Z</time></trkpt><trkpt lat="40.1174268393077" lon="18.29504156141348"><ele>88.33333333333334</ele><time>2026-04-05T10:51:11.982Z</time></trkpt><trkpt lat="40.117439789173694" lon="18.2952004445066"><ele>88.0</ele><time>2026-04-05T10:51:13.981Z</time></trkpt><trkpt lat="40.11745341941098" lon="18.295284965119716"><ele>87.66666666666667</ele><time>2026-04-05T10:51:14.981Z</time></trkpt><trkpt lat="40.11746991991203" lon="18.295372921669998"><ele>87.33333333333333</ele><time>2026-04-05T10:51:15.981Z</time></trkpt><trkpt lat="40.11747850229787" lon="18.29545690931061"><ele>87.0</ele><time>2026-04-05T10:51:16.981Z</time></trkpt><trkpt lat="40.117480205025785" lon="18.295547363715983"><ele>87.0</ele><time>2026-04-05T10:51:17.981Z</time></trkpt><trkpt lat="40.11750293875208" lon="18.295700811239428"><ele>87.0</ele><time>2026-04-05T10:51:19.981Z</time></trkpt><trkpt lat="40.11751512609111" lon="18.295783185423645"><ele>87.0</ele><time>2026-04-05T10:51:20.981Z</time></trkpt><trkpt lat="40.11752609454595" lon="18.295873895515957"><ele>87.0</ele><time>2026-04-05T10:51:21.981Z</time></trkpt><trkpt lat="40.1175399836433" lon="18.29596904922807"><ele>87.0</ele><time>2026-04-05T10:51:22.981Z</time></trkpt><trkpt lat="40.11755599689714" lon="18.29605972152865"><ele>87.0</ele><time>2026-04-05T10:51:23.981Z</time></trkpt><trkpt lat="40.11757041488698" lon="18.296211501727903"><ele>87.0</ele><time>2026-04-05T10:51:25.981Z</time></trkpt><trkpt lat="40.11758337573184" lon="18.296348371057753"><ele>87.0</ele><time>2026-04-05T10:51:27.981Z</time></trkpt><trkpt lat="40.11759412236489" lon="18.29646471839858"><ele>87.0</ele><time>2026-04-05T10:51:29.981Z</time></trkpt><trkpt lat="40.11760605500444" lon="18.29658651715782"><ele>87.0</ele><time>2026-04-05T10:51:31.981Z</time></trkpt><trkpt lat="40.117652727819454" lon="18.29672983681153"><ele>87.0</ele><time>2026-04-05T10:51:33.981Z</time></trkpt><trkpt lat="40.117676415467585" lon="18.296885355042974"><ele>86.6</ele><time>2026-04-05T10:51:35.981Z</time></trkpt><trkpt lat="40.117695066840064" lon="18.297047074709642"><ele>86.19999999999999</ele><time>2026-04-05T10:51:37.981Z</time></trkpt><trkpt lat="40.11770543589566" lon="18.297129900544252"><ele>85.8</ele><time>2026-04-05T10:51:38.981Z</time></trkpt><trkpt lat="40.117726725257214" lon="18.297282571217675"><ele>85.4</ele><time>2026-04-05T10:51:40.981Z</time></trkpt><trkpt lat="40.117737508066114" lon="18.297420431232744"><ele>85.0</ele><time>2026-04-05T10:51:42.981Z</time></trkpt><trkpt lat="40.117747000483625" lon="18.297523550077656"><ele>84.8</ele><time>2026-04-05T10:51:44.981Z</time></trkpt><trkpt lat="40.117759357449835" lon="18.2976220365646"><ele>84.6</ele><time>2026-04-05T10:51:46.981Z</time></trkpt><trkpt lat="40.11776769312207" lon="18.297776215758027"><ele>84.4</ele><time>2026-04-05T10:51:48.981Z</time></trkpt><trkpt lat="40.11778850914976" lon="18.297917547906255"><ele>84.2</ele><time>2026-04-05T10:51:50.981Z</time></trkpt><trkpt lat="40.117805226932624" lon="18.298049744604473"><ele>84.0</ele><time>2026-04-05T10:51:52.981Z</time></trkpt><trkpt lat="40.117834679193315" lon="18.298184029570855"><ele>84.0</ele><time>2026-04-05T10:51:54.981Z</time></trkpt><trkpt lat="40.11785902508368" lon="18.2983297401719"><ele>84.0</ele><time>2026-04-05T10:51:56.981Z</time></trkpt><trkpt lat="40.11787746014898" lon="18.298469193131382"><ele>84.0</ele><time>2026-04-05T10:51:58.981Z</time></trkpt><trkpt lat="40.117910951131705" lon="18.298595450889483"><ele>84.0</ele><time>2026-04-05T10:52:00.981Z</time></trkpt><trkpt lat="40.11793773263597" lon="18.298722422938656"><ele>84.0</ele><time>2026-04-05T10:52:02.981Z</time></trkpt><trkpt lat="40.11795844749147" lon="18.29887127545418"><ele>83.85714285714286</ele><time>2026-04-05T10:52:04.981Z</time></trkpt><trkpt lat="40.11796996288278" lon="18.29895509479013"><ele>83.71428571428572</ele><time>2026-04-05T10:52:05.981Z</time></trkpt><trkpt lat="40.11797838466297" lon="18.299047944093402"><ele>83.57142857142857</ele><time>2026-04-05T10:52:06.981Z</time></trkpt><trkpt lat="40.117989144052345" lon="18.299141670714487"><ele>83.42857142857143</ele><time>2026-04-05T10:52:07.981Z</time></trkpt><trkpt lat="40.11800522472242" lon="18.299232879063283"><ele>83.28571428571429</ele><time>2026-04-05T10:52:08.981Z</time></trkpt><trkpt lat="40.11801727920951" lon="18.299334234683247"><ele>83.14285714285714</ele><time>2026-04-05T10:52:09.981Z</time></trkpt><trkpt lat="40.118032644708165" lon="18.299435943477658"><ele>83.0</ele><time>2026-04-05T10:52:10.981Z</time></trkpt><trkpt lat="40.11804588743425" lon="18.29952392686752"><ele>83.0</ele><time>2026-04-05T10:52:11.981Z</time></trkpt><trkpt lat="40.118068337426905" lon="18.299657721266236"><ele>83.0</ele><time>2026-04-05T10:52:13.981Z</time></trkpt><trkpt lat="40.11808004631998" lon="18.299775516274927"><ele>83.0</ele><time>2026-04-05T10:52:15.981Z</time></trkpt><trkpt lat="40.11806807583504" lon="18.299929648944758"><ele>83.0</ele><time>2026-04-05T10:52:17.981Z</time></trkpt><trkpt lat="40.118048391823294" lon="18.300069228080694"><ele>83.0</ele><time>2026-04-05T10:52:19.981Z</time></trkpt><trkpt lat="40.11802276878788" lon="18.300224214686303"><ele>83.33333333333334</ele><time>2026-04-05T10:52:21.981Z</time></trkpt><trkpt lat="40.117984294040426" lon="18.300314613112217"><ele>83.66666666666667</ele><time>2026-04-05T10:52:22.981Z</time></trkpt><trkpt lat="40.11796000827721" lon="18.30045501788492"><ele>84.0</ele><time>2026-04-05T10:52:24.981Z</time></trkpt><trkpt lat="40.117992668031825" lon="18.300529118268376"><ele>84.33333333333333</ele><time>2026-04-05T10:52:26.981Z</time></trkpt><trkpt lat="40.11808713694588" lon="18.30058167625418"><ele>84.66666666666666</ele><time>2026-04-05T10:52:28.981Z</time></trkpt><trkpt lat="40.11815509304452" lon="18.300605298009714"><ele>85.0</ele><time>2026-04-05T10:52:29.981Z</time></trkpt><trkpt lat="40.11824442231152" lon="18.300645518498516"><ele>85.0</ele><time>2026-04-05T10:52:30.981Z</time></trkpt><trkpt lat="40.118335037628995" lon="18.30067983466729"><ele>85.0</ele><time>2026-04-05T10:52:31.981Z</time></trkpt><trkpt lat="40.11842085544509" lon="18.300701560523176"><ele>85.0</ele><time>2026-04-05T10:52:32.981Z</time></trkpt><trkpt lat="40.11849853763689" lon="18.300749205186545"><ele>85.0</ele><time>2026-04-05T10:52:33.981Z</time></trkpt><trkpt lat="40.11860333446544" lon="18.300800393858704"><ele>85.0</ele><time>2026-04-05T10:52:34.981Z</time></trkpt><trkpt lat="40.11871465363238" lon="18.300888466369717"><ele>85.0</ele><time>2026-04-05T10:52:35.981Z</time></trkpt><trkpt lat="40.11881743856502" lon="18.300991539308978"><ele>85.0</ele><time>2026-04-05T10:52:36.981Z</time></trkpt><trkpt lat="40.11892630378251" lon="18.30105038068977"><ele>85.0</ele><time>2026-04-05T10:52:37.981Z</time></trkpt><trkpt lat="40.11902814439146" lon="18.30109380025236"><ele>85.0</ele><time>2026-04-05T10:52:38.981Z</time></trkpt><trkpt lat="40.119127485002814" lon="18.301139924986153"><ele>84.8</ele><time>2026-04-05T10:52:39.981Z</time></trkpt><trkpt lat="40.11923121028329" lon="18.30117054129439"><ele>84.6</ele><time>2026-04-05T10:52:40.981Z</time></trkpt><trkpt lat="40.11933979936092" lon="18.301187902193025"><ele>84.4</ele><time>2026-04-05T10:52:41.981Z</time></trkpt><trkpt lat="40.119444665682884" lon="18.301196025255006"><ele>84.2</ele><time>2026-04-05T10:52:42.981Z</time></trkpt><trkpt lat="40.119547335734076" lon="18.301235271144087"><ele>84.0</ele><time>2026-04-05T10:52:43.981Z</time></trkpt><trkpt lat="40.11964702414183" lon="18.30124122931662"><ele>84.0</ele><time>2026-04-05T10:52:44.981Z</time></trkpt><trkpt lat="40.11972757054582" lon="18.30126345747764"><ele>84.0</ele><time>2026-04-05T10:52:46.981Z</time></trkpt><trkpt lat="40.119812388206306" lon="18.301277346016384"><ele>84.0</ele><time>2026-04-05T10:52:47.981Z</time></trkpt><trkpt lat="40.119886430678825" lon="18.301267399681358"><ele>84.0</ele><time>2026-04-05T10:52:48.981Z</time></trkpt><trkpt lat="40.120015589190665" lon="18.30128109074051"><ele>84.0</ele><time>2026-04-05T10:52:50.981Z</time></trkpt><trkpt lat="40.120088257679214" lon="18.301317506021533"><ele>84.0</ele><time>2026-04-05T10:52:51.981Z</time></trkpt><trkpt lat="40.12016447061989" lon="18.301366344836744"><ele>84.0</ele><time>2026-04-05T10:52:52.981Z</time></trkpt><trkpt lat="40.12023323619114" lon="18.3014415140411"><ele>84.0</ele><time>2026-04-05T10:52:53.981Z</time></trkpt><trkpt lat="40.12030467492355" lon="18.30147693980356"><ele>84.0</ele><time>2026-04-05T10:52:54.98Z</time></trkpt><trkpt lat="40.120379666690155" lon="18.30153153510985"><ele>84.0</ele><time>2026-04-05T10:52:56.98Z</time></trkpt><trkpt lat="40.12049878240772" lon="18.30153406522445"><ele>84.0</ele><time>2026-04-05T10:52:58.98Z</time></trkpt><trkpt lat="40.12057028398827" lon="18.301517596036483"><ele>84.0</ele><time>2026-04-05T10:52:59.98Z</time></trkpt><trkpt lat="40.12065054348655" lon="18.30149655549951"><ele>84.0</ele><time>2026-04-05T10:53:00.981Z</time></trkpt><trkpt lat="40.12073002751252" lon="18.301485150711198"><ele>84.0</ele><time>2026-04-05T10:53:01.98Z</time></trkpt><trkpt lat="40.1208079473587" lon="18.301479772665125"><ele>84.0</ele><time>2026-04-05T10:53:02.98Z</time></trkpt><trkpt lat="40.12087721489307" lon="18.301470167658746"><ele>84.0</ele><time>2026-04-05T10:53:03.98Z</time></trkpt><trkpt lat="40.120971192062115" lon="18.301505037375748"><ele>84.6</ele><time>2026-04-05T10:53:05.98Z</time></trkpt><trkpt lat="40.12100340114838" lon="18.30164656804129"><ele>85.2</ele><time>2026-04-05T10:53:08.98Z</time></trkpt><trkpt lat="40.12101333079311" lon="18.301748591770608"><ele>85.8</ele><time>2026-04-05T10:53:09.98Z</time></trkpt><trkpt lat="40.121025258355296" lon="18.301882707058553"><ele>86.39999999999999</ele><time>2026-04-05T10:53:10.98Z</time></trkpt><trkpt lat="40.12102364844708" lon="18.302016732824505"><ele>87.0</ele><time>2026-04-05T10:53:11.98Z</time></trkpt><trkpt lat="40.12098141429881" lon="18.302145352506923"><ele>87.0</ele><time>2026-04-05T10:53:13.98Z</time></trkpt><trkpt lat="40.12095239970405" lon="18.302219373847468"><ele>87.0</ele><time>2026-04-05T10:53:15.98Z</time></trkpt><trkpt lat="40.12099172682916" lon="18.302293503904636"><ele>87.0</ele><time>2026-04-05T10:53:30.98Z</time></trkpt><trkpt lat="40.1210245366595" lon="18.30238319511638"><ele>87.0</ele><time>2026-04-05T10:53:32.98Z</time></trkpt><trkpt lat="40.12102485121015" lon="18.302479856162087"><ele>87.0</ele><time>2026-04-05T10:53:34.98Z</time></trkpt><trkpt lat="40.12106185983236" lon="18.30261210421654"><ele>87.0</ele><time>2026-04-05T10:53:36.98Z</time></trkpt><trkpt lat="40.1210785542301" lon="18.302701285167263"><ele>86.5</ele><time>2026-04-05T10:53:37.98Z</time></trkpt><trkpt lat="40.12109847500932" lon="18.302804544052528"><ele>86.0</ele><time>2026-04-05T10:53:38.98Z</time></trkpt><trkpt lat="40.12111081485892" lon="18.302896942478018"><ele>85.5</ele><time>2026-04-05T10:53:39.98Z</time></trkpt><trkpt lat="40.12112531444353" lon="18.30299140513477"><ele>85.0</ele><time>2026-04-05T10:53:40.98Z</time></trkpt><trkpt lat="40.121143160751345" lon="18.303089264742017"><ele>84.5</ele><time>2026-04-05T10:53:41.98Z</time></trkpt><trkpt lat="40.12116856752218" lon="18.303188083261514"><ele>84.0</ele><time>2026-04-05T10:53:42.98Z</time></trkpt><trkpt lat="40.12119466108011" lon="18.303289162366752"><ele>83.6</ele><time>2026-04-05T10:53:43.98Z</time></trkpt><trkpt lat="40.12121510713438" lon="18.303393754441835"><ele>83.2</ele><time>2026-04-05T10:53:44.98Z</time></trkpt><trkpt lat="40.12122996994671" lon="18.303507318640648"><ele>82.8</ele><time>2026-04-05T10:53:45.98Z</time></trkpt><trkpt lat="40.121269678444584" lon="18.30363346830436"><ele>82.39999999999999</ele><time>2026-04-05T10:53:46.98Z</time></trkpt><trkpt lat="40.12130411627557" lon="18.303772324838675"><ele>82.0</ele><time>2026-04-05T10:53:47.98Z</time></trkpt><trkpt lat="40.12132009447816" lon="18.303923142416192"><ele>81.8</ele><time>2026-04-05T10:53:48.98Z</time></trkpt><trkpt lat="40.121340734417736" lon="18.304064383988045"><ele>81.6</ele><time>2026-04-05T10:53:49.98Z</time></trkpt><trkpt lat="40.12135004815554" lon="18.304204901314364"><ele>81.39999999999999</ele><time>2026-04-05T10:53:50.98Z</time></trkpt><trkpt lat="40.121374619071304" lon="18.304326490214017"><ele>81.19999999999999</ele><time>2026-04-05T10:53:51.98Z</time></trkpt><trkpt lat="40.12140487572364" lon="18.304476992657676"><ele>81.0</ele><time>2026-04-05T10:53:52.98Z</time></trkpt><trkpt lat="40.12144425810741" lon="18.304639961384744"><ele>81.25</ele><time>2026-04-05T10:53:53.98Z</time></trkpt><trkpt lat="40.121482294443325" lon="18.30479923177786"><ele>81.5</ele><time>2026-04-05T10:53:54.98Z</time></trkpt><trkpt lat="40.12152307205147" lon="18.304958216066556"><ele>81.75</ele><time>2026-04-05T10:53:55.98Z</time></trkpt><trkpt lat="40.121568012286154" lon="18.305159564165173"><ele>82.0</ele><time>2026-04-05T10:53:56.98Z</time></trkpt><trkpt lat="40.121581097105945" lon="18.30530698590933"><ele>82.0</ele><time>2026-04-05T10:53:57.98Z</time></trkpt><trkpt lat="40.12158151575239" lon="18.30539907821994"><ele>82.0</ele><time>2026-04-05T10:53:58.98Z</time></trkpt><trkpt lat="40.121563676413516" lon="18.3055479334253"><ele>82.0</ele><time>2026-04-05T10:54:00.98Z</time></trkpt><trkpt lat="40.12154250461801" lon="18.30569976944701"><ele>82.0</ele><time>2026-04-05T10:54:02.98Z</time></trkpt><trkpt lat="40.121533386901135" lon="18.30579399427996"><ele>82.0</ele><time>2026-04-05T10:54:03.98Z</time></trkpt><trkpt lat="40.12153725421689" lon="18.3058979437886"><ele>82.0</ele><time>2026-04-05T10:54:04.98Z</time></trkpt><trkpt lat="40.12154419043407" lon="18.306023687760828"><ele>82.0</ele><time>2026-04-05T10:54:05.98Z</time></trkpt><trkpt lat="40.12155464656381" lon="18.306157942748296"><ele>82.0</ele><time>2026-04-05T10:54:06.98Z</time></trkpt><trkpt lat="40.12156265861533" lon="18.306310541160553"><ele>82.0</ele><time>2026-04-05T10:54:07.979Z</time></trkpt><trkpt lat="40.12158343590461" lon="18.306458553044667"><ele>82.0</ele><time>2026-04-05T10:54:08.979Z</time></trkpt><trkpt lat="40.121607776831404" lon="18.306599750377774"><ele>81.6</ele><time>2026-04-05T10:54:09.979Z</time></trkpt><trkpt lat="40.12162925347791" lon="18.30673524928487"><ele>81.19999999999999</ele><time>2026-04-05T10:54:10.979Z</time></trkpt><trkpt lat="40.12164399456131" lon="18.306865259866758"><ele>80.8</ele><time>2026-04-05T10:54:11.979Z</time></trkpt><trkpt lat="40.121658805255265" lon="18.30699300293729"><ele>80.4</ele><time>2026-04-05T10:54:12.979Z</time></trkpt><trkpt lat="40.12167686135807" lon="18.30712743097347"><ele>80.0</ele><time>2026-04-05T10:54:13.979Z</time></trkpt><trkpt lat="40.12169368454781" lon="18.307276524805115"><ele>80.0</ele><time>2026-04-05T10:54:14.979Z</time></trkpt><trkpt lat="40.121710272338476" lon="18.3074325371632"><ele>80.0</ele><time>2026-04-05T10:54:15.979Z</time></trkpt><trkpt lat="40.12172512086114" lon="18.30760209479177"><ele>80.0</ele><time>2026-04-05T10:54:16.979Z</time></trkpt><trkpt lat="40.12174457166996" lon="18.30776786165257"><ele>80.0</ele><time>2026-04-05T10:54:17.979Z</time></trkpt><trkpt lat="40.12176704849133" lon="18.30791806761855"><ele>80.0</ele><time>2026-04-05T10:54:18.979Z</time></trkpt><trkpt lat="40.12178455186101" lon="18.308070054988754"><ele>80.0</ele><time>2026-04-05T10:54:19.979Z</time></trkpt><trkpt lat="40.12180411422479" lon="18.308232757917725"><ele>80.0</ele><time>2026-04-05T10:54:20.979Z</time></trkpt><trkpt lat="40.121819425459485" lon="18.308411888059748"><ele>80.0</ele><time>2026-04-05T10:54:21.979Z</time></trkpt><trkpt lat="40.12183304358509" lon="18.30859127640142"><ele>80.25</ele><time>2026-04-05T10:54:22.979Z</time></trkpt><trkpt lat="40.12184849425132" lon="18.308750433652477"><ele>80.5</ele><time>2026-04-05T10:54:23.979Z</time></trkpt><trkpt lat="40.12187318303843" lon="18.308915303790315"><ele>80.75</ele><time>2026-04-05T10:54:24.979Z</time></trkpt><trkpt lat="40.12189448305201" lon="18.309089745984334"><ele>81.0</ele><time>2026-04-05T10:54:25.979Z</time></trkpt><trkpt lat="40.12189582194351" lon="18.30928792800122"><ele>81.66666666666667</ele><time>2026-04-05T10:54:26.979Z</time></trkpt><trkpt lat="40.121895613662474" lon="18.309490266989943"><ele>82.33333333333334</ele><time>2026-04-05T10:54:27.979Z</time></trkpt><trkpt lat="40.121894515180415" lon="18.309690770825032"><ele>83.0</ele><time>2026-04-05T10:54:28.979Z</time></trkpt><trkpt lat="40.1219011265943" lon="18.309876712455416"><ele>83.0</ele><time>2026-04-05T10:54:29.979Z</time></trkpt><trkpt lat="40.12190808761513" lon="18.310049989711242"><ele>83.0</ele><time>2026-04-05T10:54:30.979Z</time></trkpt><trkpt lat="40.12192362407659" lon="18.310234687213008"><ele>83.0</ele><time>2026-04-05T10:54:31.979Z</time></trkpt><trkpt lat="40.121953514392224" lon="18.310415140365684"><ele>83.0</ele><time>2026-04-05T10:54:32.979Z</time></trkpt><trkpt lat="40.12200431121603" lon="18.310598572969415"><ele>83.25</ele><time>2026-04-05T10:54:33.979Z</time></trkpt><trkpt lat="40.12205577080228" lon="18.310767591411707"><ele>83.5</ele><time>2026-04-05T10:54:34.979Z</time></trkpt><trkpt lat="40.12209090358975" lon="18.310935538885982"><ele>83.75</ele><time>2026-04-05T10:54:35.979Z</time></trkpt><trkpt lat="40.122121000067835" lon="18.31110450612713"><ele>84.0</ele><time>2026-04-05T10:54:36.979Z</time></trkpt><trkpt lat="40.12214356537867" lon="18.311273436378254"><ele>83.5</ele><time>2026-04-05T10:54:37.979Z</time></trkpt><trkpt lat="40.122164781203224" lon="18.311444394363573"><ele>83.0</ele><time>2026-04-05T10:54:38.979Z</time></trkpt><trkpt lat="40.122190706952196" lon="18.311613815480175"><ele>82.5</ele><time>2026-04-05T10:54:39.979Z</time></trkpt><trkpt lat="40.12221698538331" lon="18.311776121261612"><ele>82.0</ele><time>2026-04-05T10:54:40.979Z</time></trkpt><trkpt lat="40.12223878699381" lon="18.3119439558803"><ele>82.0</ele><time>2026-04-05T10:54:41.979Z</time></trkpt><trkpt lat="40.12226377193605" lon="18.312112800884307"><ele>82.0</ele><time>2026-04-05T10:54:42.979Z</time></trkpt><trkpt lat="40.12228758516354" lon="18.312275119996695"><ele>82.0</ele><time>2026-04-05T10:54:43.979Z</time></trkpt><trkpt lat="40.12230834534595" lon="18.312431185114537"><ele>82.0</ele><time>2026-04-05T10:54:44.979Z</time></trkpt><trkpt lat="40.12233223656827" lon="18.31257502967541"><ele>82.0</ele><time>2026-04-05T10:54:45.979Z</time></trkpt><trkpt lat="40.122348947127406" lon="18.312718857970715"><ele>82.0</ele><time>2026-04-05T10:54:46.979Z</time></trkpt><trkpt lat="40.12236335979733" lon="18.312865271529216"><ele>82.0</ele><time>2026-04-05T10:54:47.979Z</time></trkpt><trkpt lat="40.122380396721155" lon="18.313017125656657"><ele>82.0</ele><time>2026-04-05T10:54:48.979Z</time></trkpt><trkpt lat="40.12239967292458" lon="18.313171026538612"><ele>82.39999999999999</ele><time>2026-04-05T10:54:49.979Z</time></trkpt><trkpt lat="40.12241807018892" lon="18.31331653038457"><ele>82.8</ele><time>2026-04-05T10:54:50.979Z</time></trkpt><trkpt lat="40.12243586811802" lon="18.31345410789662"><ele>83.2</ele><time>2026-04-05T10:54:51.979Z</time></trkpt><trkpt lat="40.12245358563332" lon="18.313585068625564"><ele>83.6</ele><time>2026-04-05T10:54:52.979Z</time></trkpt><trkpt lat="40.12246759075296" lon="18.313721284217507"><ele>84.0</ele><time>2026-04-05T10:54:53.979Z</time></trkpt><trkpt lat="40.122484879357145" lon="18.31385755917032"><ele>84.16666666666667</ele><time>2026-04-05T10:54:54.979Z</time></trkpt><trkpt lat="40.12250248168628" lon="18.313985009881122"><ele>84.33333333333333</ele><time>2026-04-05T10:54:55.979Z</time></trkpt><trkpt lat="40.122521258009954" lon="18.314093249513597"><ele>84.5</ele><time>2026-04-05T10:54:56.979Z</time></trkpt><trkpt lat="40.12253639370007" lon="18.314177868207096"><ele>84.66666666666666</ele><time>2026-04-05T10:54:57.979Z</time></trkpt><trkpt lat="40.12255534057562" lon="18.314288994940785"><ele>84.83333333333333</ele><time>2026-04-05T10:54:59.979Z</time></trkpt><trkpt lat="40.12253788703936" lon="18.314378504201322"><ele>85.0</ele><time>2026-04-05T10:55:07.978Z</time></trkpt><trkpt lat="40.12254097295849" lon="18.314488580772128"><ele>85.0</ele><time>2026-04-05T10:55:09.978Z</time></trkpt><trkpt lat="40.122514806760954" lon="18.314608060095175"><ele>85.0</ele><time>2026-04-05T10:55:11.978Z</time></trkpt><trkpt lat="40.12250466040662" lon="18.314759368221456"><ele>85.0</ele><time>2026-04-05T10:55:13.979Z</time></trkpt><trkpt lat="40.122527772528656" lon="18.314854852808136"><ele>85.0</ele><time>2026-04-05T10:55:14.979Z</time></trkpt><trkpt lat="40.12256300059373" lon="18.314964261862904"><ele>85.0</ele><time>2026-04-05T10:55:15.979Z</time></trkpt><trkpt lat="40.1225907725896" lon="18.315084166118474"><ele>85.25</ele><time>2026-04-05T10:55:16.979Z</time></trkpt><trkpt lat="40.12260588943298" lon="18.315216306444484"><ele>85.5</ele><time>2026-04-05T10:55:17.979Z</time></trkpt><trkpt lat="40.12260935113849" lon="18.31537039186883"><ele>85.75</ele><time>2026-04-05T10:55:18.979Z</time></trkpt><trkpt lat="40.122613169037876" lon="18.31553214856986"><ele>86.0</ele><time>2026-04-05T10:55:19.979Z</time></trkpt><trkpt lat="40.12262628197928" lon="18.315707899880415"><ele>86.0</ele><time>2026-04-05T10:55:20.979Z</time></trkpt><trkpt lat="40.12264209451592" lon="18.31586986179914"><ele>86.0</ele><time>2026-04-05T10:55:21.979Z</time></trkpt><trkpt lat="40.122661139009146" lon="18.3160570359251"><ele>86.0</ele><time>2026-04-05T10:55:22.979Z</time></trkpt><trkpt lat="40.122675399955945" lon="18.316251599399063"><ele>86.0</ele><time>2026-04-05T10:55:23.979Z</time></trkpt><trkpt lat="40.12268178943678" lon="18.316427424553268"><ele>86.0</ele><time>2026-04-05T10:55:24.979Z</time></trkpt><trkpt lat="40.12270433999086" lon="18.316593891712756"><ele>86.0</ele><time>2026-04-05T10:55:25.979Z</time></trkpt><trkpt lat="40.12273410101556" lon="18.316766514870004"><ele>86.0</ele><time>2026-04-05T10:55:26.979Z</time></trkpt><trkpt lat="40.12273182374766" lon="18.316949036970367"><ele>86.0</ele><time>2026-04-05T10:55:27.979Z</time></trkpt><trkpt lat="40.12273026232884" lon="18.31713763623002"><ele>85.75</ele><time>2026-04-05T10:55:28.979Z</time></trkpt><trkpt lat="40.1227389623618" lon="18.31732912591396"><ele>85.5</ele><time>2026-04-05T10:55:29.979Z</time></trkpt><trkpt lat="40.122751114376015" lon="18.317513173734582"><ele>85.25</ele><time>2026-04-05T10:55:30.979Z</time></trkpt><trkpt lat="40.12277130748647" lon="18.317687451814194"><ele>85.0</ele><time>2026-04-05T10:55:31.979Z</time></trkpt><trkpt lat="40.12281867419135" lon="18.31783855501697"><ele>85.0</ele><time>2026-04-05T10:55:32.979Z</time></trkpt><trkpt lat="40.122863886082555" lon="18.317986527004795"><ele>85.0</ele><time>2026-04-05T10:55:33.979Z</time></trkpt><trkpt lat="40.12293550609603" lon="18.318131789997754"><ele>85.0</ele><time>2026-04-05T10:55:34.979Z</time></trkpt><trkpt lat="40.122969627446906" lon="18.3182550462725"><ele>85.0</ele><time>2026-04-05T10:55:35.979Z</time></trkpt><trkpt lat="40.12299094565888" lon="18.31836333620489"><ele>85.0</ele><time>2026-04-05T10:55:36.979Z</time></trkpt><trkpt lat="40.123021632798626" lon="18.31850022725767"><ele>84.83333333333333</ele><time>2026-04-05T10:55:38.978Z</time></trkpt><trkpt lat="40.123028225580306" lon="18.31859109359285"><ele>84.66666666666666</ele><time>2026-04-05T10:55:40.978Z</time></trkpt><trkpt lat="40.12297911905472" lon="18.318733242183523"><ele>84.5</ele><time>2026-04-05T10:55:42.978Z</time></trkpt><trkpt lat="40.12297377120776" lon="18.318823277436994"><ele>84.33333333333333</ele><time>2026-04-05T10:55:43.978Z</time></trkpt><trkpt lat="40.12298784437027" lon="18.318918559838338"><ele>84.16666666666667</ele><time>2026-04-05T10:55:44.978Z</time></trkpt><trkpt lat="40.12302091319993" lon="18.319009395897364"><ele>84.0</ele><time>2026-04-05T10:55:45.978Z</time></trkpt><trkpt lat="40.12306325080856" lon="18.31909579545501"><ele>84.0</ele><time>2026-04-05T10:55:46.978Z</time></trkpt><trkpt lat="40.123101367310376" lon="18.319191341783984"><ele>84.0</ele><time>2026-04-05T10:55:47.978Z</time></trkpt><trkpt lat="40.12312507075637" lon="18.319301930458124"><ele>84.0</ele><time>2026-04-05T10:55:48.978Z</time></trkpt><trkpt lat="40.12313898612496" lon="18.31944577535589"><ele>84.0</ele><time>2026-04-05T10:55:49.978Z</time></trkpt><trkpt lat="40.12315224626425" lon="18.319626271512682"><ele>84.0</ele><time>2026-04-05T10:55:50.978Z</time></trkpt><trkpt lat="40.12317262449674" lon="18.31983384754822"><ele>84.0</ele><time>2026-04-05T10:55:51.978Z</time></trkpt><trkpt lat="40.123197170514146" lon="18.32004307615219"><ele>84.0</ele><time>2026-04-05T10:55:52.978Z</time></trkpt><trkpt lat="40.12323629229101" lon="18.320215604511386"><ele>84.0</ele><time>2026-04-05T10:55:53.978Z</time></trkpt><trkpt lat="40.123278701162896" lon="18.3203941559177"><ele>84.0</ele><time>2026-04-05T10:55:54.978Z</time></trkpt><trkpt lat="40.123335641061075" lon="18.320555411371352"><ele>84.0</ele><time>2026-04-05T10:55:55.978Z</time></trkpt><trkpt lat="40.12339951576009" lon="18.320716707383294"><ele>84.0</ele><time>2026-04-05T10:55:56.978Z</time></trkpt><trkpt lat="40.12346365095618" lon="18.320874962342188"><ele>84.0</ele><time>2026-04-05T10:55:57.978Z</time></trkpt><trkpt lat="40.12353569468278" lon="18.321020098884752"><ele>84.0</ele><time>2026-04-05T10:55:58.978Z</time></trkpt><trkpt lat="40.123598601727565" lon="18.32118768832902"><ele>84.0</ele><time>2026-04-05T10:55:59.978Z</time></trkpt><trkpt lat="40.123652223381505" lon="18.321381331246606"><ele>84.0</ele><time>2026-04-05T10:56:00.978Z</time></trkpt><trkpt lat="40.12367584705597" lon="18.321613225305704"><ele>84.0</ele><time>2026-04-05T10:56:01.978Z</time></trkpt><trkpt lat="40.12370424600647" lon="18.321856419110002"><ele>85.0</ele><time>2026-04-05T10:56:02.978Z</time></trkpt><trkpt lat="40.12381355277724" lon="18.32201341595733"><ele>86.0</ele><time>2026-04-05T10:56:03.978Z</time></trkpt><trkpt lat="40.123398342881124" lon="18.322714200410225"><ele>86.0</ele><time>2026-04-05T10:56:04.978Z</time></trkpt><trkpt lat="40.12342606848746" lon="18.322950879759816"><ele>86.0</ele><time>2026-04-05T10:56:05.978Z</time></trkpt><trkpt lat="40.12345243010505" lon="18.323191005099094"><ele>86.0</ele><time>2026-04-05T10:56:06.978Z</time></trkpt><trkpt lat="40.12347748480652" lon="18.323426709403257"><ele>85.66666666666667</ele><time>2026-04-05T10:56:07.978Z</time></trkpt><trkpt lat="40.12350267735029" lon="18.32367014464158"><ele>85.33333333333333</ele><time>2026-04-05T10:56:08.978Z</time></trkpt><trkpt lat="40.123527441492286" lon="18.32391604948246"><ele>85.0</ele><time>2026-04-05T10:56:09.978Z</time></trkpt><trkpt lat="40.12355450930267" lon="18.324158943514004"><ele>85.0</ele><time>2026-04-05T10:56:10.978Z</time></trkpt><trkpt lat="40.123579223037204" lon="18.324397217233834"><ele>85.0</ele><time>2026-04-05T10:56:11.978Z</time></trkpt><trkpt lat="40.123605899110835" lon="18.324623759639927"><ele>85.0</ele><time>2026-04-05T10:56:12.978Z</time></trkpt><trkpt lat="40.12362926829529" lon="18.324852897386926"><ele>85.0</ele><time>2026-04-05T10:56:13.978Z</time></trkpt><trkpt lat="40.123654601223876" lon="18.3250813941009"><ele>85.0</ele><time>2026-04-05T10:56:14.978Z</time></trkpt><trkpt lat="40.123679741603716" lon="18.32530937351354"><ele>85.0</ele><time>2026-04-05T10:56:15.978Z</time></trkpt><trkpt lat="40.12370734839218" lon="18.325538602401892"><ele>84.66666666666666</ele><time>2026-04-05T10:56:16.978Z</time></trkpt><trkpt lat="40.12373493570428" lon="18.32576571936181"><ele>84.33333333333333</ele><time>2026-04-05T10:56:17.978Z</time></trkpt><trkpt lat="40.123760956706434" lon="18.325989763452853"><ele>84.0</ele><time>2026-04-05T10:56:18.978Z</time></trkpt><trkpt lat="40.12378945053258" lon="18.326214172635655"><ele>83.66666666666667</ele><time>2026-04-05T10:56:19.978Z</time></trkpt><trkpt lat="40.12381682221833" lon="18.326443026875808"><ele>83.33333333333334</ele><time>2026-04-05T10:56:20.978Z</time></trkpt><trkpt lat="40.12384524899638" lon="18.326675437852188"><ele>83.0</ele><time>2026-04-05T10:56:21.978Z</time></trkpt><trkpt lat="40.123874325985824" lon="18.326914813046983"><ele>83.0</ele><time>2026-04-05T10:56:22.978Z</time></trkpt><trkpt lat="40.12390920407181" lon="18.32716586132245"><ele>83.0</ele><time>2026-04-05T10:56:23.978Z</time></trkpt><trkpt lat="40.12394621749284" lon="18.327426203954694"><ele>83.0</ele><time>2026-04-05T10:56:24.978Z</time></trkpt><trkpt lat="40.123981112964834" lon="18.32767806556012"><ele>83.66666666666667</ele><time>2026-04-05T10:56:25.978Z</time></trkpt><trkpt lat="40.12401324064805" lon="18.32793674899581"><ele>84.33333333333333</ele><time>2026-04-05T10:56:26.978Z</time></trkpt><trkpt lat="40.12404257091282" lon="18.3281665849649"><ele>85.0</ele><time>2026-04-05T10:56:27.978Z</time></trkpt><trkpt lat="40.12406058604108" lon="18.328394269595105"><ele>84.66666666666666</ele><time>2026-04-05T10:56:28.978Z</time></trkpt><trkpt lat="40.12409541462552" lon="18.328632921597077"><ele>84.33333333333333</ele><time>2026-04-05T10:56:29.978Z</time></trkpt><trkpt lat="40.124127645866054" lon="18.328876094498707"><ele>84.0</ele><time>2026-04-05T10:56:30.978Z</time></trkpt><trkpt lat="40.12415205343464" lon="18.32912482500852"><ele>84.0</ele><time>2026-04-05T10:56:31.978Z</time></trkpt><trkpt lat="40.12416503137929" lon="18.329373422127848"><ele>84.0</ele><time>2026-04-05T10:56:32.978Z</time></trkpt><trkpt lat="40.12420108671419" lon="18.32964230647688"><ele>84.0</ele><time>2026-04-05T10:56:33.978Z</time></trkpt><trkpt lat="40.12424634802078" lon="18.329907266869093"><ele>84.0</ele><time>2026-04-05T10:56:34.978Z</time></trkpt><trkpt lat="40.124283481279505" lon="18.330161705113518"><ele>84.0</ele><time>2026-04-05T10:56:35.978Z</time></trkpt><trkpt lat="40.12430836609185" lon="18.330421518157085"><ele>84.0</ele><time>2026-04-05T10:56:36.978Z</time></trkpt><trkpt lat="40.124340751143954" lon="18.33065771064016"><ele>84.33333333333333</ele><time>2026-04-05T10:56:37.978Z</time></trkpt><trkpt lat="40.124376733346786" lon="18.33089131568957"><ele>84.66666666666666</ele><time>2026-04-05T10:56:38.978Z</time></trkpt><trkpt lat="40.124403718955705" lon="18.331142498578405"><ele>85.0</ele><time>2026-04-05T10:56:39.978Z</time></trkpt><trkpt lat="40.124424913565306" lon="18.331399683225623"><ele>85.0</ele><time>2026-04-05T10:56:40.978Z</time></trkpt><trkpt lat="40.12444162637433" lon="18.331638247147097"><ele>85.0</ele><time>2026-04-05T10:56:41.978Z</time></trkpt><trkpt lat="40.12446268664357" lon="18.33187244792166"><ele>85.0</ele><time>2026-04-05T10:56:42.978Z</time></trkpt><trkpt lat="40.12448873446185" lon="18.33211219065987"><ele>84.66666666666666</ele><time>2026-04-05T10:56:43.978Z</time></trkpt><trkpt lat="40.12451047906273" lon="18.332336441964458"><ele>84.33333333333333</ele><time>2026-04-05T10:56:44.978Z</time></trkpt><trkpt lat="40.12453417046568" lon="18.332553377504443"><ele>84.0</ele><time>2026-04-05T10:56:45.978Z</time></trkpt><trkpt lat="40.12454987322675" lon="18.33276686916474"><ele>84.0</ele><time>2026-04-05T10:56:46.978Z</time></trkpt><trkpt lat="40.124566117090524" lon="18.332981685994163"><ele>84.0</ele><time>2026-04-05T10:56:47.978Z</time></trkpt><trkpt lat="40.12458009742222" lon="18.3332048494609"><ele>84.0</ele><time>2026-04-05T10:56:48.978Z</time></trkpt><trkpt lat="40.12459538818371" lon="18.333435170479316"><ele>84.33333333333333</ele><time>2026-04-05T10:56:49.978Z</time></trkpt><trkpt lat="40.124614388052876" lon="18.333660921467274"><ele>84.66666666666666</ele><time>2026-04-05T10:56:50.978Z</time></trkpt><trkpt lat="40.12463479942909" lon="18.3338861712048"><ele>85.0</ele><time>2026-04-05T10:56:51.978Z</time></trkpt><trkpt lat="40.12465925234265" lon="18.334106376309578"><ele>84.33333333333333</ele><time>2026-04-05T10:56:52.978Z</time></trkpt><trkpt lat="40.124682018356815" lon="18.334319449645104"><ele>83.66666666666667</ele><time>2026-04-05T10:56:53.978Z</time></trkpt><trkpt lat="40.12470575407776" lon="18.334517947881054"><ele>83.0</ele><time>2026-04-05T10:56:54.978Z</time></trkpt><trkpt lat="40.124730010681944" lon="18.33471298077697"><ele>83.25</ele><time>2026-04-05T10:56:55.978Z</time></trkpt><trkpt lat="40.12474893535783" lon="18.334897346669752"><ele>83.5</ele><time>2026-04-05T10:56:56.978Z</time></trkpt><trkpt lat="40.124764313898424" lon="18.335060754373824"><ele>83.75</ele><time>2026-04-05T10:56:57.978Z</time></trkpt><trkpt lat="40.12478000414869" lon="18.33519715378573"><ele>84.0</ele><time>2026-04-05T10:56:58.978Z</time></trkpt><trkpt lat="40.12479241783714" lon="18.33531639355741"><ele>84.0</ele><time>2026-04-05T10:56:59.978Z</time></trkpt><trkpt lat="40.12480104045396" lon="18.33541278944953"><ele>84.0</ele><time>2026-04-05T10:57:00.978Z</time></trkpt><trkpt lat="40.124789394389275" lon="18.335543464869097"><ele>84.0</ele><time>2026-04-05T10:57:02.978Z</time></trkpt><trkpt lat="40.124750645882095" lon="18.335618934726746"><ele>84.0</ele><time>2026-04-05T10:57:04.978Z</time></trkpt><trkpt lat="40.12470031404621" lon="18.33569613394679"><ele>84.0</ele><time>2026-04-05T10:57:06.977Z</time></trkpt><trkpt lat="40.12468862281005" lon="18.335780534348228"><ele>84.0</ele><time>2026-04-05T10:57:10.977Z</time></trkpt><trkpt lat="40.124693167776" lon="18.33587521261743"><ele>84.16666666666667</ele><time>2026-04-05T10:57:13.977Z</time></trkpt><trkpt lat="40.12469482146862" lon="18.33599472615891"><ele>84.33333333333333</ele><time>2026-04-05T11:00:34.976Z</time></trkpt><trkpt lat="40.124711808324086" lon="18.336090032289263"><ele>84.5</ele><time>2026-04-05T11:02:00.976Z</time></trkpt><trkpt lat="40.1247412094266" lon="18.33617542808214"><ele>84.66666666666666</ele><time>2026-04-05T11:02:07.976Z</time></trkpt><trkpt lat="40.12477209236716" lon="18.336248890382176"><ele>84.83333333333333</ele><time>2026-04-05T11:02:09.976Z</time></trkpt><trkpt lat="40.12482611575206" lon="18.336345503530072"><ele>85.0</ele><time>2026-04-05T11:02:12.976Z</time></trkpt><trkpt lat="40.12487056310758" lon="18.336447071213996"><ele>85.0</ele><time>2026-04-05T11:02:14.976Z</time></trkpt><trkpt lat="40.12489255170339" lon="18.336533714112743"><ele>85.0</ele><time>2026-04-05T11:02:15.976Z</time></trkpt><trkpt lat="40.12491084970943" lon="18.336631869724766"><ele>85.0</ele><time>2026-04-05T11:02:16.976Z</time></trkpt><trkpt lat="40.12492874453087" lon="18.336744205809264"><ele>85.0</ele><time>2026-04-05T11:02:17.976Z</time></trkpt><trkpt lat="40.12494646652266" lon="18.336869522263335"><ele>85.0</ele><time>2026-04-05T11:02:18.976Z</time></trkpt><trkpt lat="40.12495632799047" lon="18.33701400074639"><ele>85.0</ele><time>2026-04-05T11:02:19.976Z</time></trkpt><trkpt lat="40.124962452789816" lon="18.337163282271355"><ele>85.0</ele><time>2026-04-05T11:02:20.976Z</time></trkpt><trkpt lat="40.12497310693769" lon="18.337321105696255"><ele>85.0</ele><time>2026-04-05T11:02:21.976Z</time></trkpt><trkpt lat="40.124989732184915" lon="18.33748495402273"><ele>85.0</ele><time>2026-04-05T11:02:22.976Z</time></trkpt><trkpt lat="40.125016191020215" lon="18.337665914283885"><ele>85.0</ele><time>2026-04-05T11:02:23.976Z</time></trkpt><trkpt lat="40.125039157916255" lon="18.337841029937906"><ele>85.0</ele><time>2026-04-05T11:02:24.976Z</time></trkpt><trkpt lat="40.12506506199221" lon="18.33801476113898"><ele>85.0</ele><time>2026-04-05T11:02:25.976Z</time></trkpt><trkpt lat="40.12507321067806" lon="18.33820900136908"><ele>85.0</ele><time>2026-04-05T11:02:26.976Z</time></trkpt><trkpt lat="40.125058043225906" lon="18.338426982680915"><ele>85.25</ele><time>2026-04-05T11:02:27.976Z</time></trkpt><trkpt lat="40.12504285423959" lon="18.338620382851524"><ele>85.5</ele><time>2026-04-05T11:02:28.976Z</time></trkpt><trkpt lat="40.12505564925775" lon="18.338787830039376"><ele>85.75</ele><time>2026-04-05T11:02:29.976Z</time></trkpt><trkpt lat="40.125080815431346" lon="18.33892963219237"><ele>86.0</ele><time>2026-04-05T11:02:30.976Z</time></trkpt><trkpt lat="40.12511927928473" lon="18.339066493841965"><ele>86.0</ele><time>2026-04-05T11:02:31.976Z</time></trkpt><trkpt lat="40.125164207301324" lon="18.33920610388689"><ele>86.0</ele><time>2026-04-05T11:02:32.976Z</time></trkpt><trkpt lat="40.125198171777946" lon="18.33934336727456"><ele>86.0</ele><time>2026-04-05T11:02:33.976Z</time></trkpt><trkpt lat="40.12522113980301" lon="18.339488077920564"><ele>86.0</ele><time>2026-04-05T11:02:34.975Z</time></trkpt><trkpt lat="40.12524317025518" lon="18.33964081086745"><ele>85.75</ele><time>2026-04-05T11:02:35.975Z</time></trkpt><trkpt lat="40.12526858675933" lon="18.33979599201255"><ele>85.5</ele><time>2026-04-05T11:02:36.975Z</time></trkpt><trkpt lat="40.125293665614116" lon="18.339955661918705"><ele>85.25</ele><time>2026-04-05T11:02:37.975Z</time></trkpt><trkpt lat="40.12532159014652" lon="18.34011092462835"><ele>85.0</ele><time>2026-04-05T11:02:38.975Z</time></trkpt><trkpt lat="40.12534797204987" lon="18.340252104641216"><ele>85.0</ele><time>2026-04-05T11:02:39.975Z</time></trkpt><trkpt lat="40.125367996609086" lon="18.340385556708704"><ele>85.0</ele><time>2026-04-05T11:02:40.975Z</time></trkpt><trkpt lat="40.125383896404024" lon="18.34051218779771"><ele>85.0</ele><time>2026-04-05T11:02:41.975Z</time></trkpt><trkpt lat="40.125397115290205" lon="18.340655620201446"><ele>85.0</ele><time>2026-04-05T11:02:42.975Z</time></trkpt><trkpt lat="40.12541744618202" lon="18.340825141402632"><ele>85.0</ele><time>2026-04-05T11:02:43.975Z</time></trkpt><trkpt lat="40.12543171430442" lon="18.34102541846212"><ele>85.0</ele><time>2026-04-05T11:02:44.975Z</time></trkpt><trkpt lat="40.12545102142518" lon="18.34125132060739"><ele>85.0</ele><time>2026-04-05T11:02:45.975Z</time></trkpt><trkpt lat="40.12547708405713" lon="18.341493599248015"><ele>85.0</ele><time>2026-04-05T11:02:46.975Z</time></trkpt><trkpt lat="40.12550723018599" lon="18.341736742606912"><ele>85.0</ele><time>2026-04-05T11:02:47.975Z</time></trkpt><trkpt lat="40.1255412476833" lon="18.34198346423247"><ele>85.0</ele><time>2026-04-05T11:02:48.975Z</time></trkpt><trkpt lat="40.12557858513371" lon="18.342242498736987"><ele>85.0</ele><time>2026-04-05T11:02:49.975Z</time></trkpt><trkpt lat="40.12561496097894" lon="18.342507460489813"><ele>85.0</ele><time>2026-04-05T11:02:50.975Z</time></trkpt><trkpt lat="40.125647378694126" lon="18.342778247706544"><ele>85.0</ele><time>2026-04-05T11:02:51.975Z</time></trkpt><trkpt lat="40.125688638837765" lon="18.34306536234829"><ele>85.0</ele><time>2026-04-05T11:02:52.975Z</time></trkpt><trkpt lat="40.125736723223" lon="18.343368928523528"><ele>85.5</ele><time>2026-04-05T11:02:53.975Z</time></trkpt><trkpt lat="40.12577817401834" lon="18.343695999416134"><ele>86.0</ele><time>2026-04-05T11:02:54.975Z</time></trkpt><trkpt lat="40.12581726699154" lon="18.344040784652957"><ele>86.0</ele><time>2026-04-05T11:02:55.975Z</time></trkpt><trkpt lat="40.12585080072074" lon="18.344392175830006"><ele>86.0</ele><time>2026-04-05T11:02:56.975Z</time></trkpt><trkpt lat="40.12588616222109" lon="18.34475363185188"><ele>87.0</ele><time>2026-04-05T11:02:57.975Z</time></trkpt><trkpt lat="40.12591849653678" lon="18.34511076121353"><ele>88.0</ele><time>2026-04-05T11:02:58.975Z</time></trkpt><trkpt lat="40.12595176836187" lon="18.345452134361523"><ele>87.5</ele><time>2026-04-05T11:02:59.975Z</time></trkpt><trkpt lat="40.12597921281061" lon="18.345795222639776"><ele>87.0</ele><time>2026-04-05T11:03:00.975Z</time></trkpt><trkpt lat="40.12600424298904" lon="18.346129228374053"><ele>87.0</ele><time>2026-04-05T11:03:01.975Z</time></trkpt><trkpt lat="40.12603088883318" lon="18.346457968953413"><ele>87.0</ele><time>2026-04-05T11:03:02.975Z</time></trkpt><trkpt lat="40.12606043087892" lon="18.346785180776205"><ele>87.0</ele><time>2026-04-05T11:03:03.975Z</time></trkpt><trkpt lat="40.1260909915355" lon="18.347108775817034"><ele>87.0</ele><time>2026-04-05T11:03:04.975Z</time></trkpt><trkpt lat="40.12612114106488" lon="18.347418459696733"><ele>86.0</ele><time>2026-04-05T11:03:05.975Z</time></trkpt><trkpt lat="40.1261530006977" lon="18.347714072981766"><ele>85.0</ele><time>2026-04-05T11:03:06.975Z</time></trkpt><trkpt lat="40.12618824729239" lon="18.34800413243377"><ele>85.0</ele><time>2026-04-05T11:03:07.975Z</time></trkpt><trkpt lat="40.126218674627445" lon="18.348291232205167"><ele>85.0</ele><time>2026-04-05T11:03:08.975Z</time></trkpt><trkpt lat="40.12625409011247" lon="18.348575543171663"><ele>85.0</ele><time>2026-04-05T11:03:09.975Z</time></trkpt><trkpt lat="40.12628809732868" lon="18.348859846889177"><ele>86.0</ele><time>2026-04-05T11:03:10.975Z</time></trkpt><trkpt lat="40.12632154353126" lon="18.34914443108423"><ele>87.0</ele><time>2026-04-05T11:03:11.975Z</time></trkpt><trkpt lat="40.12635437570605" lon="18.34942759546807"><ele>88.0</ele><time>2026-04-05T11:03:12.975Z</time></trkpt><trkpt lat="40.126382076680954" lon="18.349710573490725"><ele>88.0</ele><time>2026-04-05T11:03:13.975Z</time></trkpt><trkpt lat="40.126413107603504" lon="18.34998965691139"><ele>88.0</ele><time>2026-04-05T11:03:14.975Z</time></trkpt><trkpt lat="40.12644511393405" lon="18.35026875983067"><ele>88.0</ele><time>2026-04-05T11:03:15.975Z</time></trkpt><trkpt lat="40.126479141173284" lon="18.350545614223428"><ele>88.0</ele><time>2026-04-05T11:03:16.975Z</time></trkpt><trkpt lat="40.12651617891593" lon="18.35082193679103"><ele>88.0</ele><time>2026-04-05T11:03:17.975Z</time></trkpt><trkpt lat="40.12655329032201" lon="18.351099240108017"><ele>88.0</ele><time>2026-04-05T11:03:18.975Z</time></trkpt><trkpt lat="40.126586755294305" lon="18.35137704080354"><ele>88.33333333333333</ele><time>2026-04-05T11:03:19.975Z</time></trkpt><trkpt lat="40.12661435950219" lon="18.351659219318506"><ele>88.66666666666667</ele><time>2026-04-05T11:03:20.975Z</time></trkpt><trkpt lat="40.12664039944063" lon="18.351945388414546"><ele>89.0</ele><time>2026-04-05T11:03:21.975Z</time></trkpt><trkpt lat="40.12667080925475" lon="18.352232505237666"><ele>89.33333333333334</ele><time>2026-04-05T11:03:22.975Z</time></trkpt><trkpt lat="40.126699070828" lon="18.352523398505795"><ele>89.66666666666667</ele><time>2026-04-05T11:03:23.975Z</time></trkpt><trkpt lat="40.12673020651856" lon="18.35281121685799"><ele>90.0</ele><time>2026-04-05T11:03:24.975Z</time></trkpt><trkpt lat="40.12676088581378" lon="18.353102275456237"><ele>90.0</ele><time>2026-04-05T11:03:25.975Z</time></trkpt><trkpt lat="40.12679511871727" lon="18.35338959773858"><ele>90.0</ele><time>2026-04-05T11:03:26.975Z</time></trkpt><trkpt lat="40.12683075348813" lon="18.353676215703008"><ele>90.0</ele><time>2026-04-05T11:03:27.975Z</time></trkpt><trkpt lat="40.12686749167592" lon="18.353959892163303"><ele>90.0</ele><time>2026-04-05T11:03:28.975Z</time></trkpt><trkpt lat="40.12690456632692" lon="18.354240224742185"><ele>90.0</ele><time>2026-04-05T11:03:29.975Z</time></trkpt><trkpt lat="40.126939345296435" lon="18.354526016891135"><ele>90.0</ele><time>2026-04-05T11:03:30.975Z</time></trkpt><trkpt lat="40.126979763918136" lon="18.35480856028351"><ele>90.0</ele><time>2026-04-05T11:03:31.975Z</time></trkpt><trkpt lat="40.12702365341131" lon="18.35509304672959"><ele>90.0</ele><time>2026-04-05T11:03:32.975Z</time></trkpt><trkpt lat="40.12706238075512" lon="18.355378450518984"><ele>90.0</ele><time>2026-04-05T11:03:33.976Z</time></trkpt><trkpt lat="40.127101031552655" lon="18.355663925243583"><ele>89.66666666666667</ele><time>2026-04-05T11:03:34.976Z</time></trkpt><trkpt lat="40.12714110408234" lon="18.35594752241066"><ele>89.33333333333334</ele><time>2026-04-05T11:03:35.975Z</time></trkpt><trkpt lat="40.12717943584723" lon="18.35622915432486"><ele>89.0</ele><time>2026-04-05T11:03:36.976Z</time></trkpt><trkpt lat="40.12721861583053" lon="18.356509737981597"><ele>89.0</ele><time>2026-04-05T11:03:37.976Z</time></trkpt><trkpt lat="40.12725697860526" lon="18.3567896951255"><ele>89.0</ele><time>2026-04-05T11:03:38.976Z</time></trkpt><trkpt lat="40.1272955548283" lon="18.357072004031014"><ele>89.0</ele><time>2026-04-05T11:03:39.976Z</time></trkpt><trkpt lat="40.12733390631049" lon="18.35735540482166"><ele>89.66666666666667</ele><time>2026-04-05T11:03:40.976Z</time></trkpt><trkpt lat="40.12737461309431" lon="18.357633208375503"><ele>90.33333333333333</ele><time>2026-04-05T11:03:41.976Z</time></trkpt><trkpt lat="40.12741249327265" lon="18.357915447126015"><ele>91.0</ele><time>2026-04-05T11:03:42.976Z</time></trkpt><trkpt lat="40.127449108921134" lon="18.35819982696831"><ele>91.0</ele><time>2026-04-05T11:03:43.976Z</time></trkpt><trkpt lat="40.12748573628551" lon="18.35848080888457"><ele>91.0</ele><time>2026-04-05T11:03:44.976Z</time></trkpt><trkpt lat="40.12752185790753" lon="18.358765232135564"><ele>91.0</ele><time>2026-04-05T11:03:45.976Z</time></trkpt><trkpt lat="40.12755663609772" lon="18.35904922027312"><ele>91.0</ele><time>2026-04-05T11:03:46.976Z</time></trkpt><trkpt lat="40.12759280078149" lon="18.359334291411354"><ele>91.0</ele><time>2026-04-05T11:03:47.976Z</time></trkpt><trkpt lat="40.12762662002211" lon="18.359619856185137"><ele>91.0</ele><time>2026-04-05T11:03:48.976Z</time></trkpt><trkpt lat="40.12765732983056" lon="18.359905164267186"><ele>91.0</ele><time>2026-04-05T11:03:49.976Z</time></trkpt><trkpt lat="40.12768868554319" lon="18.360186708548984"><ele>91.0</ele><time>2026-04-05T11:03:50.975Z</time></trkpt><trkpt lat="40.12771992193606" lon="18.360469398166085"><ele>91.0</ele><time>2026-04-05T11:03:51.975Z</time></trkpt><trkpt lat="40.12774943931302" lon="18.360753838878086"><ele>91.0</ele><time>2026-04-05T11:03:52.975Z</time></trkpt><trkpt lat="40.12778381881326" lon="18.361036380165068"><ele>91.0</ele><time>2026-04-05T11:03:53.975Z</time></trkpt><trkpt lat="40.12781661858631" lon="18.361318431396803"><ele>91.0</ele><time>2026-04-05T11:03:54.975Z</time></trkpt><trkpt lat="40.127847884289196" lon="18.361602530789522"><ele>90.66666666666666</ele><time>2026-04-05T11:03:55.975Z</time></trkpt><trkpt lat="40.12787897154737" lon="18.361888573578863"><ele>90.33333333333333</ele><time>2026-04-05T11:03:56.975Z</time></trkpt><trkpt lat="40.12791034413572" lon="18.36217385692282"><ele>90.0</ele><time>2026-04-05T11:03:57.975Z</time></trkpt><trkpt lat="40.12794307479567" lon="18.362459471247348"><ele>89.66666666666667</ele><time>2026-04-05T11:03:58.975Z</time></trkpt><trkpt lat="40.12797261642556" lon="18.362745007882896"><ele>89.33333333333334</ele><time>2026-04-05T11:03:59.975Z</time></trkpt><trkpt lat="40.12800379285162" lon="18.363029785015836"><ele>89.0</ele><time>2026-04-05T11:04:00.975Z</time></trkpt><trkpt lat="40.128029311339766" lon="18.36331286376753"><ele>89.66666666666667</ele><time>2026-04-05T11:04:01.975Z</time></trkpt><trkpt lat="40.12805786891837" lon="18.363600172427144"><ele>90.33333333333333</ele><time>2026-04-05T11:04:02.975Z</time></trkpt><trkpt lat="40.1280871305457" lon="18.36388128279274"><ele>91.0</ele><time>2026-04-05T11:04:03.975Z</time></trkpt><trkpt lat="40.12811664513711" lon="18.364165418976725"><ele>91.0</ele><time>2026-04-05T11:04:04.975Z</time></trkpt><trkpt lat="40.12814644484465" lon="18.364447739241836"><ele>91.0</ele><time>2026-04-05T11:04:05.975Z</time></trkpt><trkpt lat="40.128178135709106" lon="18.364731384195675"><ele>91.0</ele><time>2026-04-05T11:04:06.975Z</time></trkpt><trkpt lat="40.128209409569735" lon="18.36501497672676"><ele>90.66666666666666</ele><time>2026-04-05T11:04:07.975Z</time></trkpt><trkpt lat="40.128236830317014" lon="18.36529776685718"><ele>90.33333333333333</ele><time>2026-04-05T11:04:08.975Z</time></trkpt><trkpt lat="40.1282636395384" lon="18.365579247387895"><ele>90.0</ele><time>2026-04-05T11:04:09.975Z</time></trkpt><trkpt lat="40.12828645453201" lon="18.365861231668696"><ele>90.0</ele><time>2026-04-05T11:04:10.975Z</time></trkpt><trkpt lat="40.12831012287722" lon="18.366139354992423"><ele>90.0</ele><time>2026-04-05T11:04:11.975Z</time></trkpt><trkpt lat="40.12833183051629" lon="18.36642108597908"><ele>90.0</ele><time>2026-04-05T11:04:12.975Z</time></trkpt><trkpt lat="40.12834269356948" lon="18.36670729325794"><ele>90.0</ele><time>2026-04-05T11:04:13.975Z</time></trkpt><trkpt lat="40.12834884103867" lon="18.366995602730164"><ele>90.0</ele><time>2026-04-05T11:04:14.975Z</time></trkpt><trkpt lat="40.128353907383755" lon="18.367283087401535"><ele>90.0</ele><time>2026-04-05T11:04:15.975Z</time></trkpt><trkpt lat="40.12835089941972" lon="18.367572426004003"><ele>90.0</ele><time>2026-04-05T11:04:16.975Z</time></trkpt><trkpt lat="40.12834589281222" lon="18.36785940198833"><ele>90.0</ele><time>2026-04-05T11:04:17.975Z</time></trkpt><trkpt lat="40.128331950495244" lon="18.368149351222442"><ele>90.0</ele><time>2026-04-05T11:04:18.975Z</time></trkpt><trkpt lat="40.12831438151964" lon="18.368438769985087"><ele>90.0</ele><time>2026-04-05T11:04:19.975Z</time></trkpt><trkpt lat="40.12829207967362" lon="18.368725818928397"><ele>90.0</ele><time>2026-04-05T11:04:20.975Z</time></trkpt><trkpt lat="40.12826615717223" lon="18.36901226836126"><ele>90.0</ele><time>2026-04-05T11:04:21.975Z</time></trkpt><trkpt lat="40.12823728287256" lon="18.369297551532046"><ele>89.33333333333333</ele><time>2026-04-05T11:04:22.975Z</time></trkpt><trkpt lat="40.12820358510312" lon="18.369577973362233"><ele>88.66666666666666</ele><time>2026-04-05T11:04:23.975Z</time></trkpt><trkpt lat="40.12816419375791" lon="18.36986062556044"><ele>88.0</ele><time>2026-04-05T11:04:24.975Z</time></trkpt><trkpt lat="40.12812378184578" lon="18.37014124498897"><ele>87.66666666666666</ele><time>2026-04-05T11:04:25.975Z</time></trkpt><trkpt lat="40.128076925562304" lon="18.370423868633825"><ele>87.33333333333333</ele><time>2026-04-05T11:04:26.975Z</time></trkpt><trkpt lat="40.12802100347774" lon="18.370707011323947"><ele>87.0</ele><time>2026-04-05T11:04:27.975Z</time></trkpt><trkpt lat="40.127964354545625" lon="18.370983670651462"><ele>86.66666666666667</ele><time>2026-04-05T11:04:28.975Z</time></trkpt><trkpt lat="40.12790517237802" lon="18.371257790840126"><ele>86.33333333333334</ele><time>2026-04-05T11:04:29.975Z</time></trkpt><trkpt lat="40.12783805412238" lon="18.371533533478615"><ele>86.0</ele><time>2026-04-05T11:04:30.975Z</time></trkpt><trkpt lat="40.12776239822073" lon="18.371807105575847"><ele>86.0</ele><time>2026-04-05T11:04:31.975Z</time></trkpt><trkpt lat="40.12768336984152" lon="18.37207449948087"><ele>86.0</ele><time>2026-04-05T11:04:32.975Z</time></trkpt><trkpt lat="40.127603505590834" lon="18.37234120392728"><ele>86.0</ele><time>2026-04-05T11:04:33.975Z</time></trkpt><trkpt lat="40.12751896265409" lon="18.372601880923487"><ele>86.33333333333334</ele><time>2026-04-05T11:04:34.975Z</time></trkpt><trkpt lat="40.12743309026945" lon="18.372865809090925"><ele>86.66666666666667</ele><time>2026-04-05T11:04:35.975Z</time></trkpt><trkpt lat="40.127347459093144" lon="18.373124647932432"><ele>87.0</ele><time>2026-04-05T11:04:36.975Z</time></trkpt><trkpt lat="40.12726055841254" lon="18.37338706484364"><ele>87.33333333333333</ele><time>2026-04-05T11:04:37.975Z</time></trkpt><trkpt lat="40.127174960548565" lon="18.37364979786254"><ele>87.66666666666666</ele><time>2026-04-05T11:04:38.975Z</time></trkpt><trkpt lat="40.12708764747587" lon="18.373911964308277"><ele>88.0</ele><time>2026-04-05T11:04:39.975Z</time></trkpt><trkpt lat="40.12700035770521" lon="18.374176830503693"><ele>88.33333333333333</ele><time>2026-04-05T11:04:40.975Z</time></trkpt><trkpt lat="40.12691471574858" lon="18.37444468080108"><ele>88.66666666666667</ele><time>2026-04-05T11:04:41.975Z</time></trkpt><trkpt lat="40.12682968820248" lon="18.37471053685068"><ele>89.0</ele><time>2026-04-05T11:04:42.975Z</time></trkpt><trkpt lat="40.126748442133945" lon="18.374971627194885"><ele>89.66666666666667</ele><time>2026-04-05T11:04:43.975Z</time></trkpt><trkpt lat="40.126666685156714" lon="18.37523467110101"><ele>90.33333333333333</ele><time>2026-04-05T11:04:44.975Z</time></trkpt><trkpt lat="40.12658477232628" lon="18.375506219032918"><ele>91.0</ele><time>2026-04-05T11:04:45.975Z</time></trkpt><trkpt lat="40.12650871668589" lon="18.375780220662932"><ele>91.33333333333333</ele><time>2026-04-05T11:04:46.975Z</time></trkpt><trkpt lat="40.126439704364316" lon="18.376055411562067"><ele>91.66666666666667</ele><time>2026-04-05T11:04:47.975Z</time></trkpt><trkpt lat="40.12637728497467" lon="18.376332738506274"><ele>92.0</ele><time>2026-04-05T11:04:48.975Z</time></trkpt><trkpt lat="40.12632171511078" lon="18.376611836258622"><ele>92.0</ele><time>2026-04-05T11:04:49.975Z</time></trkpt><trkpt lat="40.12627050226583" lon="18.376894640104446"><ele>92.0</ele><time>2026-04-05T11:04:50.975Z</time></trkpt><trkpt lat="40.12622800980103" lon="18.377177931514"><ele>92.0</ele><time>2026-04-05T11:04:51.975Z</time></trkpt><trkpt lat="40.126195777133205" lon="18.377464198692866"><ele>92.0</ele><time>2026-04-05T11:04:52.975Z</time></trkpt><trkpt lat="40.126170911195864" lon="18.377748077377795"><ele>92.0</ele><time>2026-04-05T11:04:53.975Z</time></trkpt><trkpt lat="40.12615238835921" lon="18.37803294159263"><ele>92.0</ele><time>2026-04-05T11:04:54.975Z</time></trkpt><trkpt lat="40.126138562206016" lon="18.378322589071463"><ele>93.0</ele><time>2026-04-05T11:04:55.975Z</time></trkpt><trkpt lat="40.12612820697136" lon="18.378609417739252"><ele>94.0</ele><time>2026-04-05T11:04:56.975Z</time></trkpt><trkpt lat="40.126125094866644" lon="18.378898612396352"><ele>95.0</ele><time>2026-04-05T11:04:57.975Z</time></trkpt><trkpt lat="40.12613263846788" lon="18.37918364856693"><ele>95.33333333333334</ele><time>2026-04-05T11:04:58.975Z</time></trkpt><trkpt lat="40.126144489398314" lon="18.37947260023256"><ele>95.66666666666667</ele><time>2026-04-05T11:04:59.975Z</time></trkpt><trkpt lat="40.12616217926917" lon="18.379757839694882"><ele>96.0</ele><time>2026-04-05T11:05:00.975Z</time></trkpt><trkpt lat="40.12618552451927" lon="18.380042850948954"><ele>96.33333333333334</ele><time>2026-04-05T11:05:01.975Z</time></trkpt><trkpt lat="40.12621562534542" lon="18.380328943187806"><ele>96.66666666666667</ele><time>2026-04-05T11:05:02.975Z</time></trkpt><trkpt lat="40.12625502161973" lon="18.38061147626655"><ele>97.0</ele><time>2026-04-05T11:05:03.975Z</time></trkpt><trkpt lat="40.12630069101137" lon="18.380894548859267"><ele>97.33333333333334</ele><time>2026-04-05T11:05:04.975Z</time></trkpt><trkpt lat="40.126351723618484" lon="18.381173823700475"><ele>97.66666666666666</ele><time>2026-04-05T11:05:05.975Z</time></trkpt><trkpt lat="40.12640921695537" lon="18.381450143239178"><ele>98.0</ele><time>2026-04-05T11:05:06.975Z</time></trkpt><trkpt lat="40.12647311225435" lon="18.381721736176615"><ele>98.33333333333333</ele><time>2026-04-05T11:05:07.975Z</time></trkpt><trkpt lat="40.126542827379076" lon="18.38198719551172"><ele>98.66666666666666</ele><time>2026-04-05T11:05:08.975Z</time></trkpt><trkpt lat="40.12661867712496" lon="18.382251458745188"><ele>99.0</ele><time>2026-04-05T11:05:09.975Z</time></trkpt><trkpt lat="40.12669721504113" lon="18.382508851196185"><ele>99.0</ele><time>2026-04-05T11:05:10.975Z</time></trkpt><trkpt lat="40.12678961812096" lon="18.38275371194048"><ele>99.0</ele><time>2026-04-05T11:05:11.975Z</time></trkpt><trkpt lat="40.12688989495431" lon="18.382999223900654"><ele>99.0</ele><time>2026-04-05T11:05:12.975Z</time></trkpt><trkpt lat="40.12699346345401" lon="18.38326212110171"><ele>99.0</ele><time>2026-04-05T11:05:13.975Z</time></trkpt><trkpt lat="40.12709610648269" lon="18.383534385759248"><ele>99.0</ele><time>2026-04-05T11:05:14.975Z</time></trkpt><trkpt lat="40.12719812532447" lon="18.383792952826376"><ele>99.0</ele><time>2026-04-05T11:05:15.975Z</time></trkpt><trkpt lat="40.12731385585695" lon="18.38404539910654"><ele>99.0</ele><time>2026-04-05T11:05:16.975Z</time></trkpt><trkpt lat="40.12743399741552" lon="18.384283875079372"><ele>99.0</ele><time>2026-04-05T11:05:17.975Z</time></trkpt><trkpt lat="40.12756255630053" lon="18.38451450032822"><ele>98.0</ele><time>2026-04-05T11:05:18.975Z</time></trkpt><trkpt lat="40.127698426555845" lon="18.384740780153997"><ele>97.0</ele><time>2026-04-05T11:05:19.975Z</time></trkpt><trkpt lat="40.12783793808764" lon="18.384963872189992"><ele>96.0</ele><time>2026-04-05T11:05:20.975Z</time></trkpt><trkpt lat="40.12797900774084" lon="18.38518763514567"><ele>96.0</ele><time>2026-04-05T11:05:21.975Z</time></trkpt><trkpt lat="40.128120834359684" lon="18.385407359463553"><ele>96.0</ele><time>2026-04-05T11:05:22.975Z</time></trkpt><trkpt lat="40.128267113696474" lon="18.385623979500604"><ele>96.0</ele><time>2026-04-05T11:05:23.975Z</time></trkpt><trkpt lat="40.12841673008968" lon="18.3858372033966"><ele>95.33333333333333</ele><time>2026-04-05T11:05:24.975Z</time></trkpt><trkpt lat="40.12856819174264" lon="18.386046588838436"><ele>94.66666666666666</ele><time>2026-04-05T11:05:25.975Z</time></trkpt><trkpt lat="40.1287194614335" lon="18.386255097973304"><ele>94.0</ele><time>2026-04-05T11:05:26.975Z</time></trkpt><trkpt lat="40.12887111837593" lon="18.38646506988715"><ele>93.0</ele><time>2026-04-05T11:05:27.975Z</time></trkpt><trkpt lat="40.12902186369178" lon="18.38667571561773"><ele>92.0</ele><time>2026-04-05T11:05:28.975Z</time></trkpt><trkpt lat="40.129170880608974" lon="18.386888115479135"><ele>91.0</ele><time>2026-04-05T11:05:29.975Z</time></trkpt><trkpt lat="40.12932015609805" lon="18.387102844353645"><ele>91.0</ele><time>2026-04-05T11:05:30.975Z</time></trkpt><trkpt lat="40.12947328894235" lon="18.387312688515372"><ele>91.0</ele><time>2026-04-05T11:05:31.975Z</time></trkpt><trkpt lat="40.129622331827065" lon="18.387517590795678"><ele>91.0</ele><time>2026-04-05T11:05:32.975Z</time></trkpt><trkpt lat="40.129772772862566" lon="18.387726576096416"><ele>91.33333333333333</ele><time>2026-04-05T11:05:33.975Z</time></trkpt><trkpt lat="40.12992399269055" lon="18.387937146789625"><ele>91.66666666666667</ele><time>2026-04-05T11:05:34.975Z</time></trkpt><trkpt lat="40.13007607799057" lon="18.38814939428848"><ele>92.0</ele><time>2026-04-05T11:05:35.975Z</time></trkpt><trkpt lat="40.13022743449944" lon="18.388359448602806"><ele>92.33333333333334</ele><time>2026-04-05T11:05:36.974Z</time></trkpt><trkpt lat="40.130378604627765" lon="18.38856974908158"><ele>92.66666666666667</ele><time>2026-04-05T11:05:37.974Z</time></trkpt><trkpt lat="40.13052990438669" lon="18.388779358420802"><ele>93.0</ele><time>2026-04-05T11:05:38.975Z</time></trkpt><trkpt lat="40.130680801269456" lon="18.388988778375836"><ele>93.66666666666667</ele><time>2026-04-05T11:05:39.974Z</time></trkpt><trkpt lat="40.130833147701786" lon="18.389198269815243"><ele>94.33333333333334</ele><time>2026-04-05T11:05:40.974Z</time></trkpt><trkpt lat="40.13098231992825" lon="18.389409151610785"><ele>95.0</ele><time>2026-04-05T11:05:41.974Z</time></trkpt><trkpt lat="40.13113668155955" lon="18.389617233195178"><ele>95.0</ele><time>2026-04-05T11:05:42.975Z</time></trkpt><trkpt lat="40.13129022449155" lon="18.389825197655743"><ele>95.0</ele><time>2026-04-05T11:05:43.975Z</time></trkpt><trkpt lat="40.13144092693758" lon="18.390034862774357"><ele>95.0</ele><time>2026-04-05T11:05:44.975Z</time></trkpt><trkpt lat="40.13159071898162" lon="18.390248460489115"><ele>96.0</ele><time>2026-04-05T11:05:45.975Z</time></trkpt><trkpt lat="40.13173822814449" lon="18.39046396586961"><ele>97.0</ele><time>2026-04-05T11:05:46.975Z</time></trkpt><trkpt lat="40.131883967532154" lon="18.39068280634082"><ele>98.0</ele><time>2026-04-05T11:05:47.975Z</time></trkpt><trkpt lat="40.13202456344745" lon="18.390902563244623"><ele>98.33333333333333</ele><time>2026-04-05T11:05:48.975Z</time></trkpt><trkpt lat="40.13216048361182" lon="18.391130504200916"><ele>98.66666666666666</ele><time>2026-04-05T11:05:49.975Z</time></trkpt><trkpt lat="40.13229192567632" lon="18.39136689419659"><ele>99.0</ele><time>2026-04-05T11:05:50.975Z</time></trkpt><trkpt lat="40.13241931581962" lon="18.391601308827955"><ele>99.33333333333334</ele><time>2026-04-05T11:05:51.975Z</time></trkpt><trkpt lat="40.13253909385011" lon="18.391842637141092"><ele>99.66666666666667</ele><time>2026-04-05T11:05:52.975Z</time></trkpt><trkpt lat="40.13265172777613" lon="18.392086137922096"><ele>100.0</ele><time>2026-04-05T11:05:53.975Z</time></trkpt><trkpt lat="40.13276380803504" lon="18.392335696634664"><ele>100.33333333333334</ele><time>2026-04-05T11:05:54.975Z</time></trkpt><trkpt lat="40.13286692443291" lon="18.39258564869176"><ele>100.66666666666666</ele><time>2026-04-05T11:05:55.975Z</time></trkpt><trkpt lat="40.132964260609995" lon="18.392843957216677"><ele>101.0</ele><time>2026-04-05T11:05:56.975Z</time></trkpt><trkpt lat="40.133052125556034" lon="18.393106334248326"><ele>101.0</ele><time>2026-04-05T11:05:57.975Z</time></trkpt><trkpt lat="40.1331368040195" lon="18.393371015808555"><ele>101.0</ele><time>2026-04-05T11:05:58.975Z</time></trkpt><trkpt lat="40.13321611901414" lon="18.39363925363946"><ele>101.0</ele><time>2026-04-05T11:05:59.975Z</time></trkpt><trkpt lat="40.13329036452972" lon="18.3939115425612"><ele>101.0</ele><time>2026-04-05T11:06:00.975Z</time></trkpt><trkpt lat="40.13335670027966" lon="18.39418687276984"><ele>101.0</ele><time>2026-04-05T11:06:01.975Z</time></trkpt><trkpt lat="40.13341541973462" lon="18.394460739076084"><ele>101.0</ele><time>2026-04-05T11:06:02.975Z</time></trkpt><trkpt lat="40.133472985800566" lon="18.394735583773798"><ele>100.33333333333333</ele><time>2026-04-05T11:06:03.975Z</time></trkpt><trkpt lat="40.133530420762455" lon="18.395009391650337"><ele>99.66666666666666</ele><time>2026-04-05T11:06:04.975Z</time></trkpt><trkpt lat="40.13358515881124" lon="18.39528519108027"><ele>99.0</ele><time>2026-04-05T11:06:05.975Z</time></trkpt><trkpt lat="40.13363850894657" lon="18.395562844117915"><ele>98.66666666666666</ele><time>2026-04-05T11:06:06.975Z</time></trkpt><trkpt lat="40.13369437263304" lon="18.395838171318186"><ele>98.33333333333333</ele><time>2026-04-05T11:06:07.975Z</time></trkpt><trkpt lat="40.13374160965952" lon="18.39611558749847"><ele>98.0</ele><time>2026-04-05T11:06:08.975Z</time></trkpt><trkpt lat="40.13378830751805" lon="18.396399009421632"><ele>97.66666666666666</ele><time>2026-04-05T11:06:09.975Z</time></trkpt><trkpt lat="40.13383924506253" lon="18.396682152906045"><ele>97.33333333333334</ele><time>2026-04-05T11:06:10.975Z</time></trkpt><trkpt lat="40.1338915686302" lon="18.396961318522322"><ele>97.0</ele><time>2026-04-05T11:06:11.975Z</time></trkpt><trkpt lat="40.13394758845869" lon="18.39723884460531"><ele>97.33333333333334</ele><time>2026-04-05T11:06:12.975Z</time></trkpt><trkpt lat="40.13400056008586" lon="18.39752022770146"><ele>97.66666666666666</ele><time>2026-04-05T11:06:13.975Z</time></trkpt><trkpt lat="40.134052574035714" lon="18.397799782710045"><ele>98.0</ele><time>2026-04-05T11:06:14.975Z</time></trkpt><trkpt lat="40.13410256039209" lon="18.398079056972268"><ele>98.0</ele><time>2026-04-05T11:06:15.975Z</time></trkpt><trkpt lat="40.13415444723492" lon="18.39835828364547"><ele>98.0</ele><time>2026-04-05T11:06:16.975Z</time></trkpt><trkpt lat="40.13420205005602" lon="18.398636726810768"><ele>98.0</ele><time>2026-04-05T11:06:17.975Z</time></trkpt><trkpt lat="40.1342521245566" lon="18.398920166257884"><ele>97.33333333333333</ele><time>2026-04-05T11:06:18.975Z</time></trkpt><trkpt lat="40.13430332051672" lon="18.399203683360682"><ele>96.66666666666666</ele><time>2026-04-05T11:06:19.975Z</time></trkpt><trkpt lat="40.134356319540395" lon="18.39948312503228"><ele>96.0</ele><time>2026-04-05T11:06:20.975Z</time></trkpt><trkpt lat="40.13440850077941" lon="18.39976431371077"><ele>94.66666666666667</ele><time>2026-04-05T11:06:21.975Z</time></trkpt><trkpt lat="40.13445900298782" lon="18.40004842651484"><ele>93.33333333333334</ele><time>2026-04-05T11:06:22.975Z</time></trkpt><trkpt lat="40.13450973117683" lon="18.400328032749584"><ele>92.0</ele><time>2026-04-05T11:06:23.975Z</time></trkpt><trkpt lat="40.1345595157665" lon="18.40060903394489"><ele>91.66666666666667</ele><time>2026-04-05T11:06:24.975Z</time></trkpt><trkpt lat="40.13460996724111" lon="18.400887575836606"><ele>91.33333333333333</ele><time>2026-04-05T11:06:25.975Z</time></trkpt><trkpt lat="40.13466243700486" lon="18.40116554802101"><ele>91.0</ele><time>2026-04-05T11:06:26.975Z</time></trkpt><trkpt lat="40.13471695837538" lon="18.401443333143128"><ele>91.0</ele><time>2026-04-05T11:06:27.975Z</time></trkpt><trkpt lat="40.134767037816964" lon="18.401720242597452"><ele>91.0</ele><time>2026-04-05T11:06:28.975Z</time></trkpt><trkpt lat="40.13481569739058" lon="18.402003016552364"><ele>91.0</ele><time>2026-04-05T11:06:29.975Z</time></trkpt><trkpt lat="40.13486238862646" lon="18.402281084714975"><ele>89.66666666666666</ele><time>2026-04-05T11:06:30.975Z</time></trkpt><trkpt lat="40.13490939137964" lon="18.402562114766933"><ele>88.33333333333333</ele><time>2026-04-05T11:06:31.975Z</time></trkpt><trkpt lat="40.13495814366747" lon="18.402847406968895"><ele>87.0</ele><time>2026-04-05T11:06:32.975Z</time></trkpt><trkpt lat="40.135009196827816" lon="18.40312679583879"><ele>85.66666666666667</ele><time>2026-04-05T11:06:33.974Z</time></trkpt><trkpt lat="40.135063009720376" lon="18.403407236417546"><ele>84.33333333333334</ele><time>2026-04-05T11:06:34.974Z</time></trkpt><trkpt lat="40.135116141863044" lon="18.403689232409064"><ele>83.0</ele><time>2026-04-05T11:06:35.974Z</time></trkpt><trkpt lat="40.13516953939459" lon="18.403969759740942"><ele>81.33333333333334</ele><time>2026-04-05T11:06:36.974Z</time></trkpt><trkpt lat="40.135223436176496" lon="18.404250546613106"><ele>79.66666666666667</ele><time>2026-04-05T11:06:37.974Z</time></trkpt><trkpt lat="40.1352777571087" lon="18.404530146632524"><ele>78.0</ele><time>2026-04-05T11:06:38.974Z</time></trkpt><trkpt lat="40.135330853153576" lon="18.40481243573606"><ele>78.0</ele><time>2026-04-05T11:06:39.974Z</time></trkpt><trkpt lat="40.13538125358702" lon="18.405096300835705"><ele>78.0</ele><time>2026-04-05T11:06:40.974Z</time></trkpt><trkpt lat="40.13543149835332" lon="18.405378794752142"><ele>78.0</ele><time>2026-04-05T11:06:41.974Z</time></trkpt><trkpt lat="40.135483816100326" lon="18.40565873398715"><ele>77.33333333333333</ele><time>2026-04-05T11:06:42.974Z</time></trkpt><trkpt lat="40.13553580781689" lon="18.405935820434134"><ele>76.66666666666666</ele><time>2026-04-05T11:06:43.974Z</time></trkpt><trkpt lat="40.1355868106587" lon="18.406211293698803"><ele>76.0</ele><time>2026-04-05T11:06:44.974Z</time></trkpt><trkpt lat="40.13563720619281" lon="18.406488360530282"><ele>75.0</ele><time>2026-04-05T11:06:45.974Z</time></trkpt><trkpt lat="40.135688333217956" lon="18.40676437442049"><ele>74.0</ele><time>2026-04-05T11:06:46.974Z</time></trkpt><trkpt lat="40.135741143266785" lon="18.407040972210837"><ele>73.0</ele><time>2026-04-05T11:06:47.974Z</time></trkpt><trkpt lat="40.135792582742" lon="18.40731741622348"><ele>71.66666666666666</ele><time>2026-04-05T11:06:48.974Z</time></trkpt><trkpt lat="40.135848962462354" lon="18.407592775423094"><ele>70.33333333333333</ele><time>2026-04-05T11:06:49.974Z</time></trkpt><trkpt lat="40.13590397035134" lon="18.407868207926278"><ele>69.0</ele><time>2026-04-05T11:06:50.974Z</time></trkpt><trkpt lat="40.135956257034344" lon="18.408143776725773"><ele>69.0</ele><time>2026-04-05T11:06:51.974Z</time></trkpt><trkpt lat="40.13600932312328" lon="18.408419731217034"><ele>69.0</ele><time>2026-04-05T11:06:52.974Z</time></trkpt><trkpt lat="40.13606405737554" lon="18.408697955587748"><ele>69.0</ele><time>2026-04-05T11:06:53.974Z</time></trkpt><trkpt lat="40.13611289291529" lon="18.40897822597513"><ele>69.0</ele><time>2026-04-05T11:06:54.974Z</time></trkpt><trkpt lat="40.13616278132935" lon="18.409256796649526"><ele>69.0</ele><time>2026-04-05T11:06:55.974Z</time></trkpt><trkpt lat="40.136213682494365" lon="18.409536082425493"><ele>69.0</ele><time>2026-04-05T11:06:56.974Z</time></trkpt><trkpt lat="40.136267877176635" lon="18.409813437774215"><ele>68.33333333333333</ele><time>2026-04-05T11:06:57.974Z</time></trkpt><trkpt lat="40.13631968505376" lon="18.41009295373257"><ele>67.66666666666666</ele><time>2026-04-05T11:06:58.974Z</time></trkpt><trkpt lat="40.13637109736398" lon="18.410375456323518"><ele>67.0</ele><time>2026-04-05T11:06:59.974Z</time></trkpt><trkpt lat="40.13642173006979" lon="18.410653901565905"><ele>67.0</ele><time>2026-04-05T11:07:00.974Z</time></trkpt><trkpt lat="40.13647480346546" lon="18.410935552293108"><ele>67.0</ele><time>2026-04-05T11:07:01.974Z</time></trkpt><trkpt lat="40.136527844291734" lon="18.411218519333595"><ele>67.0</ele><time>2026-04-05T11:07:02.974Z</time></trkpt><trkpt lat="40.13658224890863" lon="18.411497247594543"><ele>66.66666666666666</ele><time>2026-04-05T11:07:03.974Z</time></trkpt><trkpt lat="40.136632115666565" lon="18.41177595155229"><ele>66.33333333333333</ele><time>2026-04-05T11:07:04.974Z</time></trkpt><trkpt lat="40.13668146079247" lon="18.412053197542537"><ele>66.0</ele><time>2026-04-05T11:07:05.974Z</time></trkpt><trkpt lat="40.13673247311558" lon="18.412331438115583"><ele>66.0</ele><time>2026-04-05T11:07:06.974Z</time></trkpt><trkpt lat="40.13678094075211" lon="18.412607486334426"><ele>66.0</ele><time>2026-04-05T11:07:07.974Z</time></trkpt><trkpt lat="40.13683120967242" lon="18.41288299044829"><ele>66.0</ele><time>2026-04-05T11:07:08.974Z</time></trkpt><trkpt lat="40.136883567076296" lon="18.413162218660986"><ele>65.66666666666667</ele><time>2026-04-05T11:07:09.974Z</time></trkpt><trkpt lat="40.13693621413219" lon="18.413441606612356"><ele>65.33333333333334</ele><time>2026-04-05T11:07:10.974Z</time></trkpt><trkpt lat="40.13698826695084" lon="18.41371922703655"><ele>65.0</ele><time>2026-04-05T11:07:11.974Z</time></trkpt><trkpt lat="40.137038800533965" lon="18.413999004609227"><ele>65.0</ele><time>2026-04-05T11:07:12.974Z</time></trkpt><trkpt lat="40.13709047790092" lon="18.414277290357937"><ele>65.0</ele><time>2026-04-05T11:07:13.974Z</time></trkpt><trkpt lat="40.13714379093239" lon="18.414554671567288"><ele>65.0</ele><time>2026-04-05T11:07:14.974Z</time></trkpt><trkpt lat="40.1371962286625" lon="18.41483110423828"><ele>65.0</ele><time>2026-04-05T11:07:15.974Z</time></trkpt><trkpt lat="40.137246019920404" lon="18.41510777783719"><ele>65.0</ele><time>2026-04-05T11:07:16.974Z</time></trkpt><trkpt lat="40.13729686272635" lon="18.415383813470726"><ele>65.0</ele><time>2026-04-05T11:07:17.974Z</time></trkpt><trkpt lat="40.137349068574096" lon="18.415661225732205"><ele>64.0</ele><time>2026-04-05T11:07:18.974Z</time></trkpt><trkpt lat="40.137401771160626" lon="18.41594079718191"><ele>63.0</ele><time>2026-04-05T11:07:19.974Z</time></trkpt><trkpt lat="40.13745318823234" lon="18.41621746441941"><ele>62.0</ele><time>2026-04-05T11:07:20.974Z</time></trkpt><trkpt lat="40.13750309444958" lon="18.416494191190942"><ele>62.0</ele><time>2026-04-05T11:07:21.974Z</time></trkpt><trkpt lat="40.13755234449611" lon="18.416773511119082"><ele>62.0</ele><time>2026-04-05T11:07:22.974Z</time></trkpt><trkpt lat="40.137603130625834" lon="18.417050389454978"><ele>62.0</ele><time>2026-04-05T11:07:23.974Z</time></trkpt><trkpt lat="40.137650991455054" lon="18.41731747577728"><ele>62.0</ele><time>2026-04-05T11:07:24.974Z</time></trkpt><trkpt lat="40.13770570554194" lon="18.417587634465434"><ele>62.0</ele><time>2026-04-05T11:07:25.974Z</time></trkpt><trkpt lat="40.137757098460874" lon="18.41786139747521"><ele>62.0</ele><time>2026-04-05T11:07:26.974Z</time></trkpt><trkpt lat="40.13780340733791" lon="18.41814647489309"><ele>62.0</ele><time>2026-04-05T11:07:27.974Z</time></trkpt><trkpt lat="40.1378553932145" lon="18.418430791392268"><ele>62.0</ele><time>2026-04-05T11:07:28.974Z</time></trkpt><trkpt lat="40.137908140222734" lon="18.418716501871394"><ele>62.0</ele><time>2026-04-05T11:07:29.974Z</time></trkpt><trkpt lat="40.137963697378424" lon="18.41900172594081"><ele>62.0</ele><time>2026-04-05T11:07:30.974Z</time></trkpt><trkpt lat="40.13801614870434" lon="18.419288548555624"><ele>62.0</ele><time>2026-04-05T11:07:31.974Z</time></trkpt><trkpt lat="40.13806932462199" lon="18.41956981909547"><ele>62.0</ele><time>2026-04-05T11:07:32.974Z</time></trkpt><trkpt lat="40.13812252508793" lon="18.419849855411304"><ele>61.66666666666667</ele><time>2026-04-05T11:07:33.974Z</time></trkpt><trkpt lat="40.138177318029335" lon="18.4201288939008"><ele>61.33333333333333</ele><time>2026-04-05T11:07:34.974Z</time></trkpt><trkpt lat="40.13822980790033" lon="18.420410983960025"><ele>61.0</ele><time>2026-04-05T11:07:35.974Z</time></trkpt><trkpt lat="40.13828194660661" lon="18.420690200998077"><ele>61.0</ele><time>2026-04-05T11:07:36.974Z</time></trkpt><trkpt lat="40.138332328253604" lon="18.420968728359693"><ele>61.0</ele><time>2026-04-05T11:07:37.974Z</time></trkpt><trkpt lat="40.138383625141266" lon="18.421249488220255"><ele>61.0</ele><time>2026-04-05T11:07:38.974Z</time></trkpt><trkpt lat="40.138431608056685" lon="18.42152819149747"><ele>60.666666666666664</ele><time>2026-04-05T11:07:39.974Z</time></trkpt><trkpt lat="40.13848732850985" lon="18.421806442247696"><ele>60.33333333333333</ele><time>2026-04-05T11:07:40.974Z</time></trkpt><trkpt lat="40.13853950132462" lon="18.422084791204973"><ele>60.0</ele><time>2026-04-05T11:07:41.974Z</time></trkpt><trkpt lat="40.13858899803231" lon="18.422365550515607"><ele>60.0</ele><time>2026-04-05T11:07:42.974Z</time></trkpt><trkpt lat="40.13863857433164" lon="18.42264397838392"><ele>60.0</ele><time>2026-04-05T11:07:43.974Z</time></trkpt><trkpt lat="40.13868796675934" lon="18.422924597674147"><ele>60.0</ele><time>2026-04-05T11:07:44.974Z</time></trkpt><trkpt lat="40.138737249391" lon="18.42320531021619"><ele>60.0</ele><time>2026-04-05T11:07:45.974Z</time></trkpt><trkpt lat="40.13878671064235" lon="18.423483248645013"><ele>60.0</ele><time>2026-04-05T11:07:46.974Z</time></trkpt><trkpt lat="40.13883650104704" lon="18.42376432619691"><ele>60.0</ele><time>2026-04-05T11:07:47.974Z</time></trkpt><trkpt lat="40.13888628669644" lon="18.42404505188468"><ele>60.0</ele><time>2026-04-05T11:07:48.974Z</time></trkpt><trkpt lat="40.13893653475659" lon="18.42432520631829"><ele>60.0</ele><time>2026-04-05T11:07:49.974Z</time></trkpt><trkpt lat="40.13898597017424" lon="18.424606609523735"><ele>60.0</ele><time>2026-04-05T11:07:50.974Z</time></trkpt><trkpt lat="40.13903683851963" lon="18.4248864544602"><ele>60.0</ele><time>2026-04-05T11:07:51.974Z</time></trkpt><trkpt lat="40.139091621316304" lon="18.42516792410871"><ele>60.0</ele><time>2026-04-05T11:07:52.974Z</time></trkpt><trkpt lat="40.13914451424685" lon="18.425448276494993"><ele>60.0</ele><time>2026-04-05T11:07:53.974Z</time></trkpt><trkpt lat="40.139198010704256" lon="18.42573089698569"><ele>59.66666666666667</ele><time>2026-04-05T11:07:54.974Z</time></trkpt><trkpt lat="40.13925082295108" lon="18.426009071770793"><ele>59.333333333333336</ele><time>2026-04-05T11:07:55.974Z</time></trkpt><trkpt lat="40.13930201957544" lon="18.426290274893653"><ele>59.0</ele><time>2026-04-05T11:07:56.974Z</time></trkpt><trkpt lat="40.13935684115376" lon="18.426567456467232"><ele>58.333333333333336</ele><time>2026-04-05T11:07:57.974Z</time></trkpt><trkpt lat="40.13941140064276" lon="18.426847320201055"><ele>57.66666666666667</ele><time>2026-04-05T11:07:58.974Z</time></trkpt><trkpt lat="40.13946534860881" lon="18.427126592870085"><ele>57.0</ele><time>2026-04-05T11:07:59.974Z</time></trkpt><trkpt lat="40.139517772506785" lon="18.4274071413662"><ele>57.0</ele><time>2026-04-05T11:08:00.974Z</time></trkpt><trkpt lat="40.139569423141936" lon="18.42768604683508"><ele>57.0</ele><time>2026-04-05T11:08:01.974Z</time></trkpt><trkpt lat="40.13962040644393" lon="18.42796466810846"><ele>57.0</ele><time>2026-04-05T11:08:02.974Z</time></trkpt><trkpt lat="40.13967288675302" lon="18.42824375616105"><ele>57.0</ele><time>2026-04-05T11:08:03.974Z</time></trkpt><trkpt lat="40.139722717135704" lon="18.428522902757525"><ele>57.0</ele><time>2026-04-05T11:08:04.974Z</time></trkpt><trkpt lat="40.13976851399809" lon="18.428804066241078"><ele>57.0</ele><time>2026-04-05T11:08:05.974Z</time></trkpt><trkpt lat="40.139813348091465" lon="18.42908144538505"><ele>57.0</ele><time>2026-04-05T11:08:06.974Z</time></trkpt><trkpt lat="40.139858030805435" lon="18.42935910536377"><ele>57.0</ele><time>2026-04-05T11:08:07.974Z</time></trkpt><trkpt lat="40.13990281502455" lon="18.42963596430264"><ele>57.0</ele><time>2026-04-05T11:08:08.974Z</time></trkpt><trkpt lat="40.13994818133137" lon="18.429916563232833"><ele>56.66666666666667</ele><time>2026-04-05T11:08:09.974Z</time></trkpt><trkpt lat="40.13999346100373" lon="18.430195309427805"><ele>56.333333333333336</ele><time>2026-04-05T11:08:10.974Z</time></trkpt><trkpt lat="40.14003483339472" lon="18.4304789589"><ele>56.0</ele><time>2026-04-05T11:08:11.974Z</time></trkpt><trkpt lat="40.14008155784366" lon="18.430758642348213"><ele>55.66666666666667</ele><time>2026-04-05T11:08:12.974Z</time></trkpt><trkpt lat="40.14012772764717" lon="18.431041250879836"><ele>55.33333333333333</ele><time>2026-04-05T11:08:13.974Z</time></trkpt><trkpt lat="40.1401713577639" lon="18.43132507040956"><ele>55.0</ele><time>2026-04-05T11:08:14.974Z</time></trkpt><trkpt lat="40.14021732774369" lon="18.431607800998748"><ele>54.666666666666664</ele><time>2026-04-05T11:08:15.974Z</time></trkpt><trkpt lat="40.14026376938145" lon="18.431890090311402"><ele>54.33333333333333</ele><time>2026-04-05T11:08:16.974Z</time></trkpt><trkpt lat="40.140311556090474" lon="18.432168793148925"><ele>54.0</ele><time>2026-04-05T11:08:17.974Z</time></trkpt><trkpt lat="40.14036103396363" lon="18.432450587850447"><ele>54.0</ele><time>2026-04-05T11:08:18.974Z</time></trkpt><trkpt lat="40.14040944788288" lon="18.432734855646277"><ele>54.0</ele><time>2026-04-05T11:08:19.974Z</time></trkpt><trkpt lat="40.14045673561492" lon="18.43301934421571"><ele>54.0</ele><time>2026-04-05T11:08:20.974Z</time></trkpt><trkpt lat="40.14050568950062" lon="18.433301965678883"><ele>54.33333333333333</ele><time>2026-04-05T11:08:21.974Z</time></trkpt><trkpt lat="40.14055736420875" lon="18.433581500663344"><ele>54.666666666666664</ele><time>2026-04-05T11:08:22.974Z</time></trkpt><trkpt lat="40.14060988791738" lon="18.433860138248615"><ele>55.0</ele><time>2026-04-05T11:08:23.974Z</time></trkpt><trkpt lat="40.14066253504007" lon="18.434138964282045"><ele>55.0</ele><time>2026-04-05T11:08:24.974Z</time></trkpt><trkpt lat="40.14071523873635" lon="18.4344195629008"><ele>55.0</ele><time>2026-04-05T11:08:25.974Z</time></trkpt><trkpt lat="40.14076787352521" lon="18.434696821167456"><ele>55.0</ele><time>2026-04-05T11:08:26.974Z</time></trkpt><trkpt lat="40.14082074251104" lon="18.434975027334584"><ele>54.666666666666664</ele><time>2026-04-05T11:08:27.974Z</time></trkpt><trkpt lat="40.140875318671455" lon="18.43525170224849"><ele>54.33333333333333</ele><time>2026-04-05T11:08:28.974Z</time></trkpt><trkpt lat="40.14093006967592" lon="18.435530706796374"><ele>54.0</ele><time>2026-04-05T11:08:29.974Z</time></trkpt><trkpt lat="40.14098637191566" lon="18.435808038573178"><ele>54.0</ele><time>2026-04-05T11:08:30.974Z</time></trkpt><trkpt lat="40.141039928921224" lon="18.436086700886406"><ele>54.0</ele><time>2026-04-05T11:08:31.974Z</time></trkpt><trkpt lat="40.14109493422646" lon="18.436363556466482"><ele>54.0</ele><time>2026-04-05T11:08:32.974Z</time></trkpt><trkpt lat="40.14115342941108" lon="18.436639863034188"><ele>54.0</ele><time>2026-04-05T11:08:33.974Z</time></trkpt><trkpt lat="40.141210243510216" lon="18.436914089997412"><ele>54.0</ele><time>2026-04-05T11:08:34.974Z</time></trkpt><trkpt lat="40.14126834836398" lon="18.437187730759252"><ele>54.0</ele><time>2026-04-05T11:08:35.974Z</time></trkpt><trkpt lat="40.141327159925254" lon="18.437463006411264"><ele>54.0</ele><time>2026-04-05T11:08:36.974Z</time></trkpt><trkpt lat="40.14138577598463" lon="18.437737864181997"><ele>54.0</ele><time>2026-04-05T11:08:37.974Z</time></trkpt><trkpt lat="40.14144282689609" lon="18.438015533163643"><ele>54.0</ele><time>2026-04-05T11:08:38.974Z</time></trkpt><trkpt lat="40.14149914961692" lon="18.438295308308586"><ele>53.33333333333333</ele><time>2026-04-05T11:08:39.974Z</time></trkpt><trkpt lat="40.14155674095034" lon="18.43856955771705"><ele>52.666666666666664</ele><time>2026-04-05T11:08:40.974Z</time></trkpt><trkpt lat="40.141610309838306" lon="18.438849635407188"><ele>52.0</ele><time>2026-04-05T11:08:41.974Z</time></trkpt><trkpt lat="40.14166139129133" lon="18.439131311464404"><ele>51.0</ele><time>2026-04-05T11:08:42.974Z</time></trkpt><trkpt lat="40.14171452047562" lon="18.43940902282725"><ele>50.0</ele><time>2026-04-05T11:08:43.974Z</time></trkpt><trkpt lat="40.1417705503772" lon="18.439682634589506"><ele>49.0</ele><time>2026-04-05T11:08:44.974Z</time></trkpt><trkpt lat="40.141823796050645" lon="18.43996014397638"><ele>49.0</ele><time>2026-04-05T11:08:45.974Z</time></trkpt><trkpt lat="40.14187893490943" lon="18.440235465406094"><ele>49.0</ele><time>2026-04-05T11:08:46.974Z</time></trkpt><trkpt lat="40.14193452824572" lon="18.440514843145518"><ele>49.0</ele><time>2026-04-05T11:08:47.974Z</time></trkpt><trkpt lat="40.141986799524226" lon="18.440794308401518"><ele>49.33333333333333</ele><time>2026-04-05T11:08:48.974Z</time></trkpt><trkpt lat="40.14203990779469" lon="18.441076679122673"><ele>49.66666666666667</ele><time>2026-04-05T11:08:49.974Z</time></trkpt><trkpt lat="40.142092849696915" lon="18.44135396542184"><ele>50.0</ele><time>2026-04-05T11:08:50.974Z</time></trkpt><trkpt lat="40.14214899201282" lon="18.441636560576598"><ele>50.0</ele><time>2026-04-05T11:08:51.974Z</time></trkpt><trkpt lat="40.142201746145815" lon="18.44191978824387"><ele>50.0</ele><time>2026-04-05T11:08:52.974Z</time></trkpt><trkpt lat="40.14225250783587" lon="18.44220235489356"><ele>50.0</ele><time>2026-04-05T11:08:53.974Z</time></trkpt><trkpt lat="40.14230214093992" lon="18.44248473315414"><ele>48.0</ele><time>2026-04-05T11:08:54.974Z</time></trkpt><trkpt lat="40.1423537715149" lon="18.4427625270274"><ele>46.0</ele><time>2026-04-05T11:08:55.974Z</time></trkpt><trkpt lat="40.14240010682878" lon="18.44304417215315"><ele>44.0</ele><time>2026-04-05T11:08:56.973Z</time></trkpt><trkpt lat="40.14245042695224" lon="18.443327937969695"><ele>43.0</ele><time>2026-04-05T11:08:57.973Z</time></trkpt><trkpt lat="40.14250430941088" lon="18.4436066357779"><ele>42.0</ele><time>2026-04-05T11:08:58.973Z</time></trkpt><trkpt lat="40.142561571427905" lon="18.443886092120987"><ele>41.0</ele><time>2026-04-05T11:08:59.973Z</time></trkpt><trkpt lat="40.142617577841335" lon="18.444163894138114"><ele>40.0</ele><time>2026-04-05T11:09:00.973Z</time></trkpt><trkpt lat="40.142671747322666" lon="18.444441640425296"><ele>39.0</ele><time>2026-04-05T11:09:01.973Z</time></trkpt><trkpt lat="40.142722934510715" lon="18.444718938679628"><ele>38.0</ele><time>2026-04-05T11:09:02.973Z</time></trkpt><trkpt lat="40.142775037861064" lon="18.444994844965112"><ele>37.666666666666664</ele><time>2026-04-05T11:09:03.973Z</time></trkpt><trkpt lat="40.142823906545985" lon="18.445270797176846"><ele>37.333333333333336</ele><time>2026-04-05T11:09:04.973Z</time></trkpt><trkpt lat="40.14287573567626" lon="18.445545918310437"><ele>37.0</ele><time>2026-04-05T11:09:05.973Z</time></trkpt><trkpt lat="40.14292892282857" lon="18.445825023362023"><ele>37.0</ele><time>2026-04-05T11:09:06.973Z</time></trkpt><trkpt lat="40.14298075549842" lon="18.44610518174295"><ele>37.0</ele><time>2026-04-05T11:09:07.973Z</time></trkpt><trkpt lat="40.14302991409329" lon="18.446385484950902"><ele>37.0</ele><time>2026-04-05T11:09:08.973Z</time></trkpt><trkpt lat="40.143079980600206" lon="18.446664533613998"><ele>36.66666666666667</ele><time>2026-04-05T11:09:09.973Z</time></trkpt><trkpt lat="40.14313235459373" lon="18.446942251220495"><ele>36.333333333333336</ele><time>2026-04-05T11:09:10.973Z</time></trkpt><trkpt lat="40.143181130213684" lon="18.44721936867863"><ele>36.0</ele><time>2026-04-05T11:09:11.973Z</time></trkpt><trkpt lat="40.14323424685431" lon="18.44749639915069"><ele>35.666666666666664</ele><time>2026-04-05T11:09:12.973Z</time></trkpt><trkpt lat="40.143287192883236" lon="18.447773130231287"><ele>35.33333333333333</ele><time>2026-04-05T11:09:13.973Z</time></trkpt><trkpt lat="40.14334193768274" lon="18.44805105565658"><ele>35.0</ele><time>2026-04-05T11:09:14.973Z</time></trkpt><trkpt lat="40.14339675305633" lon="18.448329191405193"><ele>36.0</ele><time>2026-04-05T11:09:15.973Z</time></trkpt><trkpt lat="40.14345358336864" lon="18.448605313284823"><ele>37.0</ele><time>2026-04-05T11:09:16.973Z</time></trkpt><trkpt lat="40.14350813812304" lon="18.448886129965498"><ele>38.0</ele><time>2026-04-05T11:09:17.973Z</time></trkpt><trkpt lat="40.143560220866206" lon="18.449163115366737"><ele>38.33333333333333</ele><time>2026-04-05T11:09:18.973Z</time></trkpt><trkpt lat="40.14361220958643" lon="18.449442406382676"><ele>38.666666666666664</ele><time>2026-04-05T11:09:19.973Z</time></trkpt><trkpt lat="40.14366443728218" lon="18.449721798163022"><ele>39.0</ele><time>2026-04-05T11:09:20.973Z</time></trkpt><trkpt lat="40.14371441461282" lon="18.450004166656754"><ele>39.333333333333336</ele><time>2026-04-05T11:09:21.973Z</time></trkpt><trkpt lat="40.14376843073339" lon="18.45028520415854"><ele>39.66666666666667</ele><time>2026-04-05T11:09:22.973Z</time></trkpt><trkpt lat="40.143820828248366" lon="18.450561781176486"><ele>40.0</ele><time>2026-04-05T11:09:23.973Z</time></trkpt><trkpt lat="40.143871333031086" lon="18.45084132093975"><ele>40.0</ele><time>2026-04-05T11:09:24.973Z</time></trkpt><trkpt lat="40.14392682807955" lon="18.451120602096857"><ele>40.0</ele><time>2026-04-05T11:09:25.973Z</time></trkpt><trkpt lat="40.14398347837371" lon="18.45139854832656"><ele>40.0</ele><time>2026-04-05T11:09:26.973Z</time></trkpt><trkpt lat="40.1440383088132" lon="18.45167521045955"><ele>39.66666666666667</ele><time>2026-04-05T11:09:27.973Z</time></trkpt><trkpt lat="40.14409300629717" lon="18.45195211408866"><ele>39.333333333333336</ele><time>2026-04-05T11:09:28.973Z</time></trkpt><trkpt lat="40.14414906344239" lon="18.452224556353386"><ele>39.0</ele><time>2026-04-05T11:09:29.973Z</time></trkpt><trkpt lat="40.144202201163296" lon="18.45250279746895"><ele>39.0</ele><time>2026-04-05T11:09:30.973Z</time></trkpt><trkpt lat="40.14425843192362" lon="18.45277957635912"><ele>39.0</ele><time>2026-04-05T11:09:31.973Z</time></trkpt><trkpt lat="40.14431369625447" lon="18.453055765554936"><ele>39.0</ele><time>2026-04-05T11:09:32.973Z</time></trkpt><trkpt lat="40.1443675857276" lon="18.453333297600402"><ele>39.0</ele><time>2026-04-05T11:09:33.973Z</time></trkpt><trkpt lat="40.14442221714627" lon="18.45361022433284"><ele>39.0</ele><time>2026-04-05T11:09:34.973Z</time></trkpt><trkpt lat="40.144472555299714" lon="18.45388673961752"><ele>39.0</ele><time>2026-04-05T11:09:35.973Z</time></trkpt><trkpt lat="40.14452452809922" lon="18.454164940266654"><ele>39.0</ele><time>2026-04-05T11:09:36.973Z</time></trkpt><trkpt lat="40.144577089610195" lon="18.454445026681707"><ele>39.0</ele><time>2026-04-05T11:09:37.973Z</time></trkpt><trkpt lat="40.144630482455355" lon="18.45472223832206"><ele>39.0</ele><time>2026-04-05T11:09:38.973Z</time></trkpt><trkpt lat="40.14468304123483" lon="18.45500077141123"><ele>39.333333333333336</ele><time>2026-04-05T11:09:39.973Z</time></trkpt><trkpt lat="40.14473472181973" lon="18.455281247124066"><ele>39.66666666666667</ele><time>2026-04-05T11:09:40.973Z</time></trkpt><trkpt lat="40.14478625510681" lon="18.455560010705888"><ele>40.0</ele><time>2026-04-05T11:09:41.974Z</time></trkpt><trkpt lat="40.14483988343665" lon="18.45583664771474"><ele>40.0</ele><time>2026-04-05T11:09:42.973Z</time></trkpt><trkpt lat="40.14489220990851" lon="18.456118245176008"><ele>40.0</ele><time>2026-04-05T11:09:43.973Z</time></trkpt><trkpt lat="40.144943301348796" lon="18.45639768329572"><ele>40.0</ele><time>2026-04-05T11:09:44.973Z</time></trkpt><trkpt lat="40.14499375346306" lon="18.456679220649885"><ele>40.0</ele><time>2026-04-05T11:09:45.973Z</time></trkpt><trkpt lat="40.14504171254579" lon="18.45696009478826"><ele>40.0</ele><time>2026-04-05T11:09:46.973Z</time></trkpt><trkpt lat="40.14509034028343" lon="18.457237593348218"><ele>40.0</ele><time>2026-04-05T11:09:47.974Z</time></trkpt><trkpt lat="40.14514048003089" lon="18.45751661325936"><ele>40.0</ele><time>2026-04-05T11:09:48.973Z</time></trkpt><trkpt lat="40.145191888842014" lon="18.457795576403015"><ele>40.0</ele><time>2026-04-05T11:09:49.973Z</time></trkpt><trkpt lat="40.145245703417686" lon="18.4580748758792"><ele>40.0</ele><time>2026-04-05T11:09:50.973Z</time></trkpt><trkpt lat="40.145296913907686" lon="18.45835996416009"><ele>40.0</ele><time>2026-04-05T11:09:51.973Z</time></trkpt><trkpt lat="40.14535185629544" lon="18.45863984316719"><ele>40.0</ele><time>2026-04-05T11:09:52.973Z</time></trkpt><trkpt lat="40.145404661434824" lon="18.45891622397699"><ele>40.0</ele><time>2026-04-05T11:09:53.973Z</time></trkpt><trkpt lat="40.145460822996945" lon="18.459192842381817"><ele>40.0</ele><time>2026-04-05T11:09:54.973Z</time></trkpt><trkpt lat="40.145512548937226" lon="18.459471744118762"><ele>40.0</ele><time>2026-04-05T11:09:55.973Z</time></trkpt><trkpt lat="40.145564506603456" lon="18.45975166340793"><ele>40.0</ele><time>2026-04-05T11:09:56.973Z</time></trkpt><trkpt lat="40.14561653845211" lon="18.460030476882345"><ele>40.0</ele><time>2026-04-05T11:09:57.973Z</time></trkpt><trkpt lat="40.14566872106879" lon="18.460313248920613"><ele>40.0</ele><time>2026-04-05T11:09:58.973Z</time></trkpt><trkpt lat="40.14571923802971" lon="18.46059475959481"><ele>40.0</ele><time>2026-04-05T11:09:59.973Z</time></trkpt><trkpt lat="40.14576994305058" lon="18.46087766145617"><ele>39.66666666666667</ele><time>2026-04-05T11:10:00.973Z</time></trkpt><trkpt lat="40.14582154103306" lon="18.461158958539144"><ele>39.333333333333336</ele><time>2026-04-05T11:10:01.973Z</time></trkpt><trkpt lat="40.145874760583226" lon="18.46144132690516"><ele>39.0</ele><time>2026-04-05T11:10:02.973Z</time></trkpt><trkpt lat="40.14592583742219" lon="18.461722235513655"><ele>38.666666666666664</ele><time>2026-04-05T11:10:03.973Z</time></trkpt><trkpt lat="40.14597743314511" lon="18.462002256658128"><ele>38.33333333333333</ele><time>2026-04-05T11:10:04.973Z</time></trkpt><trkpt lat="40.146031259462355" lon="18.462278396410678"><ele>38.0</ele><time>2026-04-05T11:10:05.973Z</time></trkpt><trkpt lat="40.14608194822282" lon="18.462559990557573"><ele>37.666666666666664</ele><time>2026-04-05T11:10:06.973Z</time></trkpt><trkpt lat="40.14613419759409" lon="18.46284027423811"><ele>37.333333333333336</ele><time>2026-04-05T11:10:07.973Z</time></trkpt><trkpt lat="40.14618718949541" lon="18.463115465597248"><ele>37.0</ele><time>2026-04-05T11:10:08.973Z</time></trkpt><trkpt lat="40.14624121794674" lon="18.463394544129713"><ele>36.333333333333336</ele><time>2026-04-05T11:10:09.973Z</time></trkpt><trkpt lat="40.146293662339716" lon="18.463672143084576"><ele>35.666666666666664</ele><time>2026-04-05T11:10:10.973Z</time></trkpt><trkpt lat="40.14634363845627" lon="18.4639480171439"><ele>35.0</ele><time>2026-04-05T11:10:11.973Z</time></trkpt><trkpt lat="40.146397666201025" lon="18.464226511318017"><ele>35.0</ele><time>2026-04-05T11:10:12.973Z</time></trkpt><trkpt lat="40.14645367995116" lon="18.464503151549373"><ele>35.0</ele><time>2026-04-05T11:10:13.973Z</time></trkpt><trkpt lat="40.14650789782906" lon="18.464778927704906"><ele>35.0</ele><time>2026-04-05T11:10:14.972Z</time></trkpt><trkpt lat="40.14656056175421" lon="18.46505701832764"><ele>34.666666666666664</ele><time>2026-04-05T11:10:15.972Z</time></trkpt><trkpt lat="40.146609660007215" lon="18.465338286100152"><ele>34.333333333333336</ele><time>2026-04-05T11:10:16.972Z</time></trkpt><trkpt lat="40.146662091660296" lon="18.465615923503297"><ele>34.0</ele><time>2026-04-05T11:10:17.972Z</time></trkpt><trkpt lat="40.146711980678525" lon="18.465897459281827"><ele>33.66666666666667</ele><time>2026-04-05T11:10:18.972Z</time></trkpt><trkpt lat="40.14676503110773" lon="18.466176760229537"><ele>33.333333333333336</ele><time>2026-04-05T11:10:19.972Z</time></trkpt><trkpt lat="40.146817556325075" lon="18.46645464607928"><ele>33.0</ele><time>2026-04-05T11:10:20.972Z</time></trkpt><trkpt lat="40.14686938687552" lon="18.466733419038658"><ele>32.666666666666664</ele><time>2026-04-05T11:10:21.972Z</time></trkpt><trkpt lat="40.14692375374084" lon="18.467012773674337"><ele>32.33333333333333</ele><time>2026-04-05T11:10:22.972Z</time></trkpt><trkpt lat="40.14697608062187" lon="18.467294216583"><ele>32.0</ele><time>2026-04-05T11:10:23.972Z</time></trkpt><trkpt lat="40.14702949785618" lon="18.467575449328937"><ele>31.0</ele><time>2026-04-05T11:10:24.972Z</time></trkpt><trkpt lat="40.147081238803004" lon="18.467851787085102"><ele>30.0</ele><time>2026-04-05T11:10:25.972Z</time></trkpt><trkpt lat="40.147131685964645" lon="18.468124960495125"><ele>29.0</ele><time>2026-04-05T11:10:26.972Z</time></trkpt><trkpt lat="40.147178470446725" lon="18.468390892427003"><ele>27.666666666666664</ele><time>2026-04-05T11:10:27.972Z</time></trkpt><trkpt lat="40.147226083203634" lon="18.468657239627642"><ele>26.333333333333336</ele><time>2026-04-05T11:10:28.972Z</time></trkpt><trkpt lat="40.147267458056575" lon="18.46893380145505"><ele>25.0</ele><time>2026-04-05T11:10:29.972Z</time></trkpt><trkpt lat="40.14728778925301" lon="18.469216615660386"><ele>25.0</ele><time>2026-04-05T11:10:30.972Z</time></trkpt><trkpt lat="40.14728728543936" lon="18.469523129968103"><ele>25.0</ele><time>2026-04-05T11:10:31.972Z</time></trkpt><trkpt lat="40.14728266916557" lon="18.469842186118576"><ele>25.0</ele><time>2026-04-05T11:10:32.972Z</time></trkpt><trkpt lat="40.147268199198685" lon="18.47017245449496"><ele>25.0</ele><time>2026-04-05T11:10:33.972Z</time></trkpt><trkpt lat="40.147245541263395" lon="18.470510495458743"><ele>27.0</ele><time>2026-04-05T11:10:34.972Z</time></trkpt><trkpt lat="40.147230628147256" lon="18.470846697793643"><ele>29.0</ele><time>2026-04-05T11:10:35.972Z</time></trkpt><trkpt lat="40.14761495569738" lon="18.47069768360073"><ele>30.0</ele><time>2026-04-05T11:10:36.972Z</time></trkpt><trkpt lat="40.14766049750039" lon="18.47094667856176"><ele>31.0</ele><time>2026-04-05T11:10:37.972Z</time></trkpt><trkpt lat="40.14771111026459" lon="18.471198376370847"><ele>32.0</ele><time>2026-04-05T11:10:38.972Z</time></trkpt><trkpt lat="40.14775671492236" lon="18.471451858004023"><ele>32.33333333333333</ele><time>2026-04-05T11:10:39.972Z</time></trkpt><trkpt lat="40.147807604711964" lon="18.47171250237901"><ele>32.666666666666664</ele><time>2026-04-05T11:10:40.972Z</time></trkpt><trkpt lat="40.14785537826146" lon="18.47196426735305"><ele>33.0</ele><time>2026-04-05T11:10:41.972Z</time></trkpt><trkpt lat="40.14790418065203" lon="18.472214012773755"><ele>33.0</ele><time>2026-04-05T11:10:42.972Z</time></trkpt><trkpt lat="40.14795190487859" lon="18.47246873883797"><ele>33.0</ele><time>2026-04-05T11:10:43.972Z</time></trkpt><trkpt lat="40.14800079489594" lon="18.472705451370256"><ele>33.0</ele><time>2026-04-05T11:10:44.972Z</time></trkpt><trkpt lat="40.14805162009155" lon="18.472930410669207"><ele>33.0</ele><time>2026-04-05T11:10:45.972Z</time></trkpt><trkpt lat="40.14810324382705" lon="18.473157618449726"><ele>33.0</ele><time>2026-04-05T11:10:46.972Z</time></trkpt><trkpt lat="40.1481499694041" lon="18.473372371497618"><ele>33.0</ele><time>2026-04-05T11:10:47.972Z</time></trkpt><trkpt lat="40.1481964111153" lon="18.473577367148394"><ele>32.666666666666664</ele><time>2026-04-05T11:10:48.972Z</time></trkpt><trkpt lat="40.1482384176466" lon="18.47378012319813"><ele>32.33333333333333</ele><time>2026-04-05T11:10:49.972Z</time></trkpt><trkpt lat="40.14828672694184" lon="18.473996501346576"><ele>32.0</ele><time>2026-04-05T11:10:50.972Z</time></trkpt><trkpt lat="40.148329989766346" lon="18.474210426444763"><ele>32.0</ele><time>2026-04-05T11:10:51.972Z</time></trkpt><trkpt lat="40.14837602916659" lon="18.47441706666732"><ele>32.0</ele><time>2026-04-05T11:10:52.972Z</time></trkpt><trkpt lat="40.14842143171828" lon="18.474606840236856"><ele>32.0</ele><time>2026-04-05T11:10:53.972Z</time></trkpt><trkpt lat="40.14845600326994" lon="18.474776522343475"><ele>31.6</ele><time>2026-04-05T11:10:54.972Z</time></trkpt><trkpt lat="40.14848598984457" lon="18.474917861460728"><ele>31.200000000000003</ele><time>2026-04-05T11:10:55.972Z</time></trkpt><trkpt lat="40.14850875510711" lon="18.475029205235487"><ele>30.8</ele><time>2026-04-05T11:10:56.972Z</time></trkpt><trkpt lat="40.14850932050976" lon="18.47516562945996"><ele>30.4</ele><time>2026-04-05T11:10:58.972Z</time></trkpt><trkpt lat="40.14843920008783" lon="18.475214958397007"><ele>30.0</ele><time>2026-04-05T11:11:00.972Z</time></trkpt><trkpt lat="40.1483672348601" lon="18.475287224075238"><ele>30.0</ele><time>2026-04-05T11:11:01.972Z</time></trkpt><trkpt lat="40.148285479785756" lon="18.47536827841303"><ele>30.0</ele><time>2026-04-05T11:11:02.972Z</time></trkpt><trkpt lat="40.14822062155054" lon="18.47545334417376"><ele>30.0</ele><time>2026-04-05T11:11:03.972Z</time></trkpt><trkpt lat="40.14825624274204" lon="18.475575800473543"><ele>30.0</ele><time>2026-04-05T11:11:04.972Z</time></trkpt><trkpt lat="40.148290425873725" lon="18.4756732637763"><ele>30.0</ele><time>2026-04-05T11:11:05.972Z</time></trkpt><trkpt lat="40.14834852660308" lon="18.475753059847804"><ele>29.833333333333332</ele><time>2026-04-05T11:11:06.972Z</time></trkpt><trkpt lat="40.14840804495379" lon="18.47581499662988"><ele>29.666666666666664</ele><time>2026-04-05T11:11:07.972Z</time></trkpt><trkpt lat="40.14847977244272" lon="18.475847436309166"><ele>29.5</ele><time>2026-04-05T11:11:08.972Z</time></trkpt><trkpt lat="40.1485717639272" lon="18.47585392664215"><ele>29.333333333333332</ele><time>2026-04-05T11:11:09.972Z</time></trkpt><trkpt lat="40.14864826647618" lon="18.475823613288412"><ele>29.166666666666664</ele><time>2026-04-05T11:11:10.972Z</time></trkpt><trkpt lat="40.14872363388696" lon="18.475745725318788"><ele>29.0</ele><time>2026-04-05T11:11:11.972Z</time></trkpt><trkpt lat="40.14879141165808" lon="18.47565120374717"><ele>29.0</ele><time>2026-04-05T11:11:12.972Z</time></trkpt><trkpt lat="40.14887939725962" lon="18.475564713303672"><ele>29.0</ele><time>2026-04-05T11:11:13.972Z</time></trkpt><trkpt lat="40.14903260191977" lon="18.475543421531096"><ele>29.0</ele><time>2026-04-05T11:11:14.972Z</time></trkpt><trkpt lat="40.14922563043655" lon="18.475564137580513"><ele>29.333333333333332</ele><time>2026-04-05T11:11:15.972Z</time></trkpt><trkpt lat="40.14941865318118" lon="18.47550507208548"><ele>29.666666666666664</ele><time>2026-04-05T11:11:16.972Z</time></trkpt><trkpt lat="40.14956637066135" lon="18.475407035167077"><ele>30.0</ele><time>2026-04-05T11:11:17.972Z</time></trkpt><trkpt lat="40.14969082284478" lon="18.475226784466788"><ele>30.0</ele><time>2026-04-05T11:11:18.972Z</time></trkpt><trkpt lat="40.149810719679024" lon="18.475044335408093"><ele>30.0</ele><time>2026-04-05T11:11:19.972Z</time></trkpt><trkpt lat="40.149914810737116" lon="18.474836622803057"><ele>30.0</ele><time>2026-04-05T11:11:20.972Z</time></trkpt><trkpt lat="40.15000723773545" lon="18.474619830241462"><ele>30.0</ele><time>2026-04-05T11:11:21.972Z</time></trkpt><trkpt lat="40.150089854563696" lon="18.474396299976434"><ele>30.0</ele><time>2026-04-05T11:11:22.972Z</time></trkpt><trkpt lat="40.15016152304624" lon="18.474172816159903"><ele>30.0</ele><time>2026-04-05T11:11:23.972Z</time></trkpt><trkpt lat="40.15022400050685" lon="18.473945175028327"><ele>30.0</ele><time>2026-04-05T11:11:24.972Z</time></trkpt><trkpt lat="40.150284527019096" lon="18.473718345820235"><ele>30.0</ele><time>2026-04-05T11:11:25.972Z</time></trkpt><trkpt lat="40.15034969459059" lon="18.47349027693384"><ele>30.0</ele><time>2026-04-05T11:11:26.972Z</time></trkpt><trkpt lat="40.1504103421874" lon="18.47327155163889"><ele>30.0</ele><time>2026-04-05T11:11:27.972Z</time></trkpt><trkpt lat="40.15047361898442" lon="18.47306468356177"><ele>30.0</ele><time>2026-04-05T11:11:28.972Z</time></trkpt><trkpt lat="40.150532629564864" lon="18.47287131425686"><ele>30.0</ele><time>2026-04-05T11:11:29.972Z</time></trkpt><trkpt lat="40.150584816461645" lon="18.472700460647612"><ele>30.0</ele><time>2026-04-05T11:11:30.972Z</time></trkpt><trkpt lat="40.15063743732259" lon="18.472536413455877"><ele>30.0</ele><time>2026-04-05T11:11:31.972Z</time></trkpt><trkpt lat="40.15067907917933" lon="18.472380762897348"><ele>30.0</ele><time>2026-04-05T11:11:32.972Z</time></trkpt><trkpt lat="40.150716468855485" lon="18.472241033778968"><ele>30.0</ele><time>2026-04-05T11:11:33.972Z</time></trkpt><trkpt lat="40.15075716066611" lon="18.472096439234914"><ele>31.0</ele><time>2026-04-05T11:11:34.972Z</time></trkpt><trkpt lat="40.150794238185156" lon="18.471936692722903"><ele>32.0</ele><time>2026-04-05T11:11:35.972Z</time></trkpt><trkpt lat="40.15085212170489" lon="18.471775409794873"><ele>33.0</ele><time>2026-04-05T11:11:36.972Z</time></trkpt><trkpt lat="40.15090583761168" lon="18.471605285566074"><ele>34.0</ele><time>2026-04-05T11:11:37.972Z</time></trkpt><trkpt lat="40.15096529489529" lon="18.471421706850226"><ele>34.66666666666667</ele><time>2026-04-05T11:11:38.972Z</time></trkpt><trkpt lat="40.15103237219366" lon="18.4712236208567"><ele>35.333333333333336</ele><time>2026-04-05T11:11:39.972Z</time></trkpt><trkpt lat="40.15109171637749" lon="18.47102383750944"><ele>36.0</ele><time>2026-04-05T11:11:40.972Z</time></trkpt><trkpt lat="40.15115191909098" lon="18.470824231227745"><ele>36.0</ele><time>2026-04-05T11:11:41.972Z</time></trkpt><trkpt lat="40.15122994236782" lon="18.47061234606109"><ele>36.0</ele><time>2026-04-05T11:11:42.972Z</time></trkpt><trkpt lat="40.15130061794136" lon="18.470387119247924"><ele>36.0</ele><time>2026-04-05T11:11:43.972Z</time></trkpt><trkpt lat="40.151369854184246" lon="18.470153668894596"><ele>35.0</ele><time>2026-04-05T11:11:44.972Z</time></trkpt><trkpt lat="40.15145149829437" lon="18.469915525046762"><ele>34.0</ele><time>2026-04-05T11:11:45.972Z</time></trkpt><trkpt lat="40.1515198777067" lon="18.469684437922258"><ele>33.0</ele><time>2026-04-05T11:11:46.972Z</time></trkpt><trkpt lat="40.15160155359377" lon="18.46944600564899"><ele>33.0</ele><time>2026-04-05T11:11:47.972Z</time></trkpt><trkpt lat="40.15167918598136" lon="18.469194876587842"><ele>33.0</ele><time>2026-04-05T11:11:48.972Z</time></trkpt><trkpt lat="40.15176505758195" lon="18.46893480676954"><ele>33.0</ele><time>2026-04-05T11:11:49.972Z</time></trkpt><trkpt lat="40.15184246112017" lon="18.468678280801345"><ele>32.666666666666664</ele><time>2026-04-05T11:11:50.973Z</time></trkpt><trkpt lat="40.15192008752619" lon="18.468422514825512"><ele>32.33333333333333</ele><time>2026-04-05T11:11:51.972Z</time></trkpt><trkpt lat="40.151995354547886" lon="18.46817008358846"><ele>32.0</ele><time>2026-04-05T11:11:52.972Z</time></trkpt><trkpt lat="40.15206979005797" lon="18.46791744410751"><ele>32.0</ele><time>2026-04-05T11:11:53.972Z</time></trkpt><trkpt lat="40.15213814012305" lon="18.467683548474156"><ele>32.0</ele><time>2026-04-05T11:11:54.972Z</time></trkpt><trkpt lat="40.152214927554155" lon="18.467454847199008"><ele>32.0</ele><time>2026-04-05T11:11:55.972Z</time></trkpt><trkpt lat="40.152293389975945" lon="18.467206383503402"><ele>32.0</ele><time>2026-04-05T11:11:56.972Z</time></trkpt><trkpt lat="40.15237228885291" lon="18.46695941793123"><ele>32.0</ele><time>2026-04-05T11:11:57.972Z</time></trkpt><trkpt lat="40.15245075127516" lon="18.466717696725457"><ele>32.0</ele><time>2026-04-05T11:11:58.972Z</time></trkpt><trkpt lat="40.152522093314246" lon="18.466505586905537"><ele>32.0</ele><time>2026-04-05T11:11:59.972Z</time></trkpt><trkpt lat="40.152587648393" lon="18.46630347790063"><ele>32.0</ele><time>2026-04-05T11:12:00.973Z</time></trkpt><trkpt lat="40.15264504286379" lon="18.466122246253068"><ele>32.0</ele><time>2026-04-05T11:12:01.973Z</time></trkpt><trkpt lat="40.152695484477704" lon="18.465965516633148"><ele>32.0</ele><time>2026-04-05T11:12:02.973Z</time></trkpt><trkpt lat="40.152737809496344" lon="18.465826911710668"><ele>32.5</ele><time>2026-04-05T11:12:03.973Z</time></trkpt><trkpt lat="40.15277432791094" lon="18.46570572919812"><ele>33.0</ele><time>2026-04-05T11:12:04.973Z</time></trkpt><trkpt lat="40.15280949763464" lon="18.46559305737478"><ele>33.5</ele><time>2026-04-05T11:12:05.973Z</time></trkpt><trkpt lat="40.152840564567356" lon="18.46549102545631"><ele>34.0</ele><time>2026-04-05T11:12:06.973Z</time></trkpt><trkpt lat="40.15286706574231" lon="18.465398028593235"><ele>34.5</ele><time>2026-04-05T11:12:07.973Z</time></trkpt><trkpt lat="40.152894716795394" lon="18.465313487777482"><ele>35.0</ele><time>2026-04-05T11:12:08.972Z</time></trkpt><trkpt lat="40.15292775272954" lon="18.46521542613309"><ele>35.0</ele><time>2026-04-05T11:12:09.972Z</time></trkpt><trkpt lat="40.1529659941691" lon="18.46508086924835"><ele>35.0</ele><time>2026-04-05T11:12:10.972Z</time></trkpt><trkpt lat="40.15301221269906" lon="18.46492184014618"><ele>35.0</ele><time>2026-04-05T11:12:11.972Z</time></trkpt><trkpt lat="40.15307097003298" lon="18.464742917705525"><ele>35.0</ele><time>2026-04-05T11:12:12.972Z</time></trkpt><trkpt lat="40.15313016973798" lon="18.464538124773167"><ele>34.0</ele><time>2026-04-05T11:12:13.972Z</time></trkpt><trkpt lat="40.153198171846554" lon="18.464313846797243"><ele>33.0</ele><time>2026-04-05T11:12:14.972Z</time></trkpt><trkpt lat="40.15327595852195" lon="18.46406887468857"><ele>32.0</ele><time>2026-04-05T11:12:15.972Z</time></trkpt><trkpt lat="40.153358434917465" lon="18.46381112956309"><ele>31.333333333333332</ele><time>2026-04-05T11:12:16.972Z</time></trkpt><trkpt lat="40.15343947666232" lon="18.463545001185793"><ele>30.666666666666664</ele><time>2026-04-05T11:12:17.972Z</time></trkpt><trkpt lat="40.15352531317477" lon="18.46327673458639"><ele>30.0</ele><time>2026-04-05T11:12:18.972Z</time></trkpt><trkpt lat="40.15361341850546" lon="18.46299151617986"><ele>30.0</ele><time>2026-04-05T11:12:19.972Z</time></trkpt><trkpt lat="40.15370306814849" lon="18.462699278127793"><ele>30.0</ele><time>2026-04-05T11:12:20.972Z</time></trkpt><trkpt lat="40.153794598093995" lon="18.462417135783287"><ele>30.0</ele><time>2026-04-05T11:12:21.972Z</time></trkpt><trkpt lat="40.1538796053019" lon="18.462125235471223"><ele>30.0</ele><time>2026-04-05T11:12:22.972Z</time></trkpt><trkpt lat="40.153967186290686" lon="18.4618423402801"><ele>28.0</ele><time>2026-04-05T11:12:23.972Z</time></trkpt><trkpt lat="40.154055638562" lon="18.461558312542138"><ele>26.0</ele><time>2026-04-05T11:12:24.972Z</time></trkpt><trkpt lat="40.15413915324349" lon="18.461289092344593"><ele>26.0</ele><time>2026-04-05T11:12:25.972Z</time></trkpt><trkpt lat="40.15421581925989" lon="18.46104886352024"><ele>26.0</ele><time>2026-04-05T11:12:26.972Z</time></trkpt><trkpt lat="40.15428909327809" lon="18.460817205348672"><ele>26.0</ele><time>2026-04-05T11:12:27.972Z</time></trkpt><trkpt lat="40.15436382801468" lon="18.460582028358132"><ele>26.0</ele><time>2026-04-05T11:12:28.972Z</time></trkpt><trkpt lat="40.15443836874885" lon="18.46033809508878"><ele>26.0</ele><time>2026-04-05T11:12:29.972Z</time></trkpt><trkpt lat="40.154513954752154" lon="18.460096259742084"><ele>26.0</ele><time>2026-04-05T11:12:30.972Z</time></trkpt><trkpt lat="40.1545886637126" lon="18.459855691217815"><ele>27.0</ele><time>2026-04-05T11:12:31.972Z</time></trkpt><trkpt lat="40.15466568723128" lon="18.459613050689647"><ele>28.0</ele><time>2026-04-05T11:12:32.972Z</time></trkpt><trkpt lat="40.15474759673208" lon="18.459371693977026"><ele>29.0</ele><time>2026-04-05T11:12:33.972Z</time></trkpt><trkpt lat="40.15481903523317" lon="18.459130448783508"><ele>27.333333333333332</ele><time>2026-04-05T11:12:34.972Z</time></trkpt><trkpt lat="40.15489711773748" lon="18.458881822426214"><ele>25.666666666666664</ele><time>2026-04-05T11:12:35.972Z</time></trkpt><trkpt lat="40.154977166103016" lon="18.458630693872728"><ele>24.0</ele><time>2026-04-05T11:12:36.972Z</time></trkpt><trkpt lat="40.15504642820556" lon="18.45837717451559"><ele>24.0</ele><time>2026-04-05T11:12:37.972Z</time></trkpt><trkpt lat="40.15512788310546" lon="18.458126798751433"><ele>24.0</ele><time>2026-04-05T11:12:38.972Z</time></trkpt><trkpt lat="40.155207285915324" lon="18.45787021968137"><ele>24.0</ele><time>2026-04-05T11:12:39.972Z</time></trkpt><trkpt lat="40.15528551027611" lon="18.457610903198287"><ele>24.0</ele><time>2026-04-05T11:12:40.972Z</time></trkpt><trkpt lat="40.155361967360314" lon="18.457359653343083"><ele>24.0</ele><time>2026-04-05T11:12:41.972Z</time></trkpt><trkpt lat="40.15544121050103" lon="18.4571040785874"><ele>24.0</ele><time>2026-04-05T11:12:42.972Z</time></trkpt><trkpt lat="40.155516376535985" lon="18.456853353456395"><ele>24.0</ele><time>2026-04-05T11:12:43.972Z</time></trkpt><trkpt lat="40.155596529130996" lon="18.456592417607702"><ele>24.0</ele><time>2026-04-05T11:12:44.972Z</time></trkpt><trkpt lat="40.15567700488021" lon="18.4563419705958"><ele>24.0</ele><time>2026-04-05T11:12:45.972Z</time></trkpt><trkpt lat="40.15575697645673" lon="18.45609735515998"><ele>23.666666666666668</ele><time>2026-04-05T11:12:46.972Z</time></trkpt><trkpt lat="40.155837335394665" lon="18.45584808325768"><ele>23.333333333333336</ele><time>2026-04-05T11:12:47.972Z</time></trkpt><trkpt lat="40.155910510744626" lon="18.45559870510798"><ele>23.0</ele><time>2026-04-05T11:12:48.972Z</time></trkpt><trkpt lat="40.15598427603152" lon="18.45535528726227"><ele>23.0</ele><time>2026-04-05T11:12:49.972Z</time></trkpt><trkpt lat="40.15605849111045" lon="18.455120971887496"><ele>23.0</ele><time>2026-04-05T11:12:50.972Z</time></trkpt><trkpt lat="40.15613413414915" lon="18.454889876359356"><ele>23.0</ele><time>2026-04-05T11:12:51.972Z</time></trkpt><trkpt lat="40.15620122076503" lon="18.454665047304406"><ele>23.0</ele><time>2026-04-05T11:12:52.972Z</time></trkpt><trkpt lat="40.15626510132568" lon="18.45444988853771"><ele>23.0</ele><time>2026-04-05T11:12:53.972Z</time></trkpt><trkpt lat="40.15632564001093" lon="18.454237381009673"><ele>23.0</ele><time>2026-04-05T11:12:54.972Z</time></trkpt><trkpt lat="40.15638453192594" lon="18.454031906886733"><ele>23.0</ele><time>2026-04-05T11:12:55.972Z</time></trkpt><trkpt lat="40.15644999251594" lon="18.45384627125173"><ele>23.0</ele><time>2026-04-05T11:12:56.972Z</time></trkpt><trkpt lat="40.156508904548474" lon="18.453668173822887"><ele>23.0</ele><time>2026-04-05T11:12:57.972Z</time></trkpt><trkpt lat="40.15656367874281" lon="18.45350417245061"><ele>23.0</ele><time>2026-04-05T11:12:58.972Z</time></trkpt><trkpt lat="40.156618491011415" lon="18.453350415690732"><ele>23.0</ele><time>2026-04-05T11:12:59.972Z</time></trkpt><trkpt lat="40.15667151563433" lon="18.453215457701752"><ele>23.0</ele><time>2026-04-05T11:13:00.972Z</time></trkpt><trkpt lat="40.1567267979037" lon="18.453097107312335"><ele>23.0</ele><time>2026-04-05T11:13:01.972Z</time></trkpt><trkpt lat="40.156782284940036" lon="18.45300211386082"><ele>23.0</ele><time>2026-04-05T11:13:02.972Z</time></trkpt><trkpt lat="40.15684607012592" lon="18.452932200951267"><ele>23.0</ele><time>2026-04-05T11:13:03.972Z</time></trkpt><trkpt lat="40.15692044837246" lon="18.452867728521785"><ele>23.0</ele><time>2026-04-05T11:13:04.972Z</time></trkpt><trkpt lat="40.157001381733295" lon="18.452817233807068"><ele>23.0</ele><time>2026-04-05T11:13:05.972Z</time></trkpt><trkpt lat="40.157101759346105" lon="18.452776960281177"><ele>23.0</ele><time>2026-04-05T11:13:06.972Z</time></trkpt><trkpt lat="40.157230648961175" lon="18.452736322882608"><ele>23.0</ele><time>2026-04-05T11:13:07.972Z</time></trkpt><trkpt lat="40.15738799942544" lon="18.452694420416318"><ele>22.333333333333336</ele><time>2026-04-05T11:13:08.972Z</time></trkpt><trkpt lat="40.15758968172605" lon="18.452624035687457"><ele>21.666666666666668</ele><time>2026-04-05T11:13:09.972Z</time></trkpt><trkpt lat="40.15779313368018" lon="18.452545469164036"><ele>21.0</ele><time>2026-04-05T11:13:10.972Z</time></trkpt><trkpt lat="40.158019602260076" lon="18.45245898840007"><ele>20.0</ele><time>2026-04-05T11:13:11.972Z</time></trkpt><trkpt lat="40.15824406423803" lon="18.45237267400376"><ele>19.0</ele><time>2026-04-05T11:13:12.972Z</time></trkpt><trkpt lat="40.15844444891771" lon="18.45230122940429"><ele>18.0</ele><time>2026-04-05T11:13:13.972Z</time></trkpt><trkpt lat="40.15862875969014" lon="18.45223105368008"><ele>18.0</ele><time>2026-04-05T11:13:14.972Z</time></trkpt><trkpt lat="40.15879926765427" lon="18.452167724577354"><ele>18.0</ele><time>2026-04-05T11:13:15.972Z</time></trkpt><trkpt lat="40.158961435701094" lon="18.452126852730025"><ele>18.0</ele><time>2026-04-05T11:13:16.972Z</time></trkpt><trkpt lat="40.15913918031066" lon="18.452099719142648"><ele>17.333333333333332</ele><time>2026-04-05T11:13:17.972Z</time></trkpt><trkpt lat="40.15932732315759" lon="18.45207977033901"><ele>16.666666666666664</ele><time>2026-04-05T11:13:18.972Z</time></trkpt><trkpt lat="40.15951655774279" lon="18.4520781244323"><ele>16.0</ele><time>2026-04-05T11:13:19.972Z</time></trkpt><trkpt lat="40.159704827841686" lon="18.452118438597402"><ele>16.0</ele><time>2026-04-05T11:13:20.972Z</time></trkpt><trkpt lat="40.159877066896044" lon="18.452160721961345"><ele>16.0</ele><time>2026-04-05T11:13:21.972Z</time></trkpt><trkpt lat="40.160088907298295" lon="18.452199884707554"><ele>16.0</ele><time>2026-04-05T11:13:22.972Z</time></trkpt><trkpt lat="40.16030989174377" lon="18.452295734454655"><ele>16.0</ele><time>2026-04-05T11:13:23.972Z</time></trkpt><trkpt lat="40.1605420620471" lon="18.4524063303781"><ele>16.0</ele><time>2026-04-05T11:13:24.972Z</time></trkpt><trkpt lat="40.16078258261951" lon="18.452514591845834"><ele>15.0</ele><time>2026-04-05T11:13:25.972Z</time></trkpt><trkpt lat="40.16102166789312" lon="18.45261838823895"><ele>14.0</ele><time>2026-04-05T11:13:26.972Z</time></trkpt><trkpt lat="40.1612622175955" lon="18.452722811217665"><ele>14.0</ele><time>2026-04-05T11:13:27.972Z</time></trkpt><trkpt lat="40.16148565047783" lon="18.45282310758769"><ele>14.0</ele><time>2026-04-05T11:13:28.972Z</time></trkpt><trkpt lat="40.16169815304248" lon="18.45291660615654"><ele>12.666666666666668</ele><time>2026-04-05T11:13:29.972Z</time></trkpt><trkpt lat="40.16190387329211" lon="18.453005328705334"><ele>11.333333333333334</ele><time>2026-04-05T11:13:30.972Z</time></trkpt><trkpt lat="40.16209738585629" lon="18.453086613915232"><ele>10.0</ele><time>2026-04-05T11:13:31.972Z</time></trkpt><trkpt lat="40.162277930437114" lon="18.45317071042741"><ele>9.333333333333334</ele><time>2026-04-05T11:13:32.972Z</time></trkpt><trkpt lat="40.16244847998132" lon="18.453249611299878"><ele>8.666666666666666</ele><time>2026-04-05T11:13:33.972Z</time></trkpt><trkpt lat="40.162629754058514" lon="18.453313501562814"><ele>8.0</ele><time>2026-04-05T11:13:34.972Z</time></trkpt><trkpt lat="40.1628073520782" lon="18.453373236104596"><ele>8.0</ele><time>2026-04-05T11:13:35.972Z</time></trkpt><trkpt lat="40.16299815069026" lon="18.453420766820958"><ele>8.0</ele><time>2026-04-05T11:13:36.972Z</time></trkpt><trkpt lat="40.16318859393118" lon="18.45345056087119"><ele>8.0</ele><time>2026-04-05T11:13:37.972Z</time></trkpt><trkpt lat="40.16337774642867" lon="18.45349916203984"><ele>7.333333333333333</ele><time>2026-04-05T11:13:38.972Z</time></trkpt><trkpt lat="40.16357217261853" lon="18.453517803302894"><ele>6.666666666666666</ele><time>2026-04-05T11:13:39.972Z</time></trkpt><trkpt lat="40.16375441019029" lon="18.453560330944608"><ele>6.0</ele><time>2026-04-05T11:13:40.972Z</time></trkpt><trkpt lat="40.16392726315404" lon="18.453604908856168"><ele>6.0</ele><time>2026-04-05T11:13:41.972Z</time></trkpt><trkpt lat="40.16410568147764" lon="18.453651205236223"><ele>6.0</ele><time>2026-04-05T11:13:42.972Z</time></trkpt><trkpt lat="40.1642707558269" lon="18.453702301904404"><ele>6.0</ele><time>2026-04-05T11:13:43.972Z</time></trkpt><trkpt lat="40.16441864250977" lon="18.453770982163995"><ele>6.333333333333334</ele><time>2026-04-05T11:13:44.972Z</time></trkpt><trkpt lat="40.16458139490614" lon="18.45385866359006"><ele>6.666666666666667</ele><time>2026-04-05T11:13:45.972Z</time></trkpt><trkpt lat="40.16474713408351" lon="18.4539675912388"><ele>7.0</ele><time>2026-04-05T11:13:46.972Z</time></trkpt><trkpt lat="40.16490960952396" lon="18.454096252387558"><ele>7.0</ele><time>2026-04-05T11:13:47.972Z</time></trkpt><trkpt lat="40.16507759900706" lon="18.45422117807799"><ele>7.0</ele><time>2026-04-05T11:13:48.972Z</time></trkpt><trkpt lat="40.16524220181954" lon="18.45435996693036"><ele>7.0</ele><time>2026-04-05T11:13:49.972Z</time></trkpt><trkpt lat="40.165408132456506" lon="18.45450316886754"><ele>7.0</ele><time>2026-04-05T11:13:50.972Z</time></trkpt><trkpt lat="40.1655733895542" lon="18.45464943065355"><ele>7.0</ele><time>2026-04-05T11:13:51.972Z</time></trkpt><trkpt lat="40.165744264984575" lon="18.454790903377265"><ele>7.0</ele><time>2026-04-05T11:13:52.972Z</time></trkpt><trkpt lat="40.165916285854436" lon="18.45493322210529"><ele>7.0</ele><time>2026-04-05T11:13:53.972Z</time></trkpt><trkpt lat="40.16609396629588" lon="18.455073661453373"><ele>7.0</ele><time>2026-04-05T11:13:54.971Z</time></trkpt><trkpt lat="40.166271514391816" lon="18.455213048062543"><ele>7.0</ele><time>2026-04-05T11:13:55.971Z</time></trkpt><trkpt lat="40.16644493067696" lon="18.455350663858432"><ele>7.333333333333334</ele><time>2026-04-05T11:13:56.972Z</time></trkpt><trkpt lat="40.16661770696508" lon="18.455492059960253"><ele>7.666666666666666</ele><time>2026-04-05T11:13:57.972Z</time></trkpt><trkpt lat="40.1667886213547" lon="18.45563584633431"><ele>8.0</ele><time>2026-04-05T11:13:58.972Z</time></trkpt><trkpt lat="40.16695347681748" lon="18.4557753622118"><ele>8.0</ele><time>2026-04-05T11:13:59.971Z</time></trkpt><trkpt lat="40.1671014708279" lon="18.45590674502382"><ele>8.0</ele><time>2026-04-05T11:14:00.971Z</time></trkpt><trkpt lat="40.167246222441015" lon="18.456026525926017"><ele>8.0</ele><time>2026-04-05T11:14:01.971Z</time></trkpt><trkpt lat="40.16738033724693" lon="18.456151004146864"><ele>7.333333333333333</ele><time>2026-04-05T11:14:02.972Z</time></trkpt><trkpt lat="40.16750335261065" lon="18.456297496580095"><ele>6.666666666666666</ele><time>2026-04-05T11:14:03.971Z</time></trkpt><trkpt lat="40.167611753151085" lon="18.456460345007283"><ele>6.0</ele><time>2026-04-05T11:14:04.971Z</time></trkpt><trkpt lat="40.16771275106728" lon="18.456630540444475"><ele>6.0</ele><time>2026-04-05T11:14:05.972Z</time></trkpt><trkpt lat="40.16782041724465" lon="18.456821237155783"><ele>6.0</ele><time>2026-04-05T11:14:06.972Z</time></trkpt><trkpt lat="40.1679144491264" lon="18.457021248378503"><ele>6.0</ele><time>2026-04-05T11:14:07.972Z</time></trkpt><trkpt lat="40.168019649528986" lon="18.45719898999806"><ele>6.666666666666666</ele><time>2026-04-05T11:14:08.972Z</time></trkpt><trkpt lat="40.1681227750467" lon="18.457363055956325"><ele>7.333333333333333</ele><time>2026-04-05T11:14:09.972Z</time></trkpt><trkpt lat="40.168234091916865" lon="18.457497190515596"><ele>8.0</ele><time>2026-04-05T11:14:10.972Z</time></trkpt><trkpt lat="40.16835873973076" lon="18.457613489324988"><ele>8.0</ele><time>2026-04-05T11:14:11.972Z</time></trkpt><trkpt lat="40.1684845931429" lon="18.457722084502112"><ele>8.0</ele><time>2026-04-05T11:14:12.972Z</time></trkpt><trkpt lat="40.16863156682983" lon="18.457817430889534"><ele>8.0</ele><time>2026-04-05T11:14:13.972Z</time></trkpt><trkpt lat="40.168783124794814" lon="18.457905692018688"><ele>10.0</ele><time>2026-04-05T11:14:14.972Z</time></trkpt><trkpt lat="40.1689434503494" lon="18.45796521932166"><ele>12.0</ele><time>2026-04-05T11:14:15.972Z</time></trkpt><trkpt lat="40.169104778462355" lon="18.4580066956392"><ele>14.0</ele><time>2026-04-05T11:14:16.972Z</time></trkpt><trkpt lat="40.16926478198763" lon="18.45802389211446"><ele>14.666666666666668</ele><time>2026-04-05T11:14:17.972Z</time></trkpt><trkpt lat="40.169437079632" lon="18.45801663076704"><ele>15.333333333333332</ele><time>2026-04-05T11:14:18.971Z</time></trkpt><trkpt lat="40.16960748978631" lon="18.45800529946601"><ele>16.0</ele><time>2026-04-05T11:14:19.971Z</time></trkpt><trkpt lat="40.16976965722778" lon="18.45799599599461"><ele>15.333333333333332</ele><time>2026-04-05T11:14:20.971Z</time></trkpt><trkpt lat="40.169928927185175" lon="18.45798139596013"><ele>14.666666666666668</ele><time>2026-04-05T11:14:21.971Z</time></trkpt><trkpt lat="40.170089052138536" lon="18.45798057647302"><ele>14.0</ele><time>2026-04-05T11:14:22.971Z</time></trkpt><trkpt lat="40.17025580558593" lon="18.4579698771945"><ele>14.0</ele><time>2026-04-05T11:14:23.971Z</time></trkpt><trkpt lat="40.17041697889388" lon="18.457967398299672"><ele>14.0</ele><time>2026-04-05T11:14:24.971Z</time></trkpt><trkpt lat="40.17058920832291" lon="18.457944089417463"><ele>14.0</ele><time>2026-04-05T11:14:25.971Z</time></trkpt><trkpt lat="40.17075521537029" lon="18.45792861542879"><ele>11.666666666666668</ele><time>2026-04-05T11:14:26.971Z</time></trkpt><trkpt lat="40.17093310175207" lon="18.45787443145469"><ele>9.333333333333334</ele><time>2026-04-05T11:14:27.971Z</time></trkpt><trkpt lat="40.17110303709296" lon="18.457823968569816"><ele>7.0</ele><time>2026-04-05T11:14:28.971Z</time></trkpt><trkpt lat="40.171275732941126" lon="18.45776824452312"><ele>7.0</ele><time>2026-04-05T11:14:29.971Z</time></trkpt><trkpt lat="40.171449106707634" lon="18.457713253456372"><ele>7.0</ele><time>2026-04-05T11:14:30.971Z</time></trkpt><trkpt lat="40.171616243278294" lon="18.45766545856865"><ele>7.0</ele><time>2026-04-05T11:14:31.971Z</time></trkpt><trkpt lat="40.17177988998622" lon="18.45762968737292"><ele>7.0</ele><time>2026-04-05T11:14:32.971Z</time></trkpt><trkpt lat="40.17194168578232" lon="18.4575919276105"><ele>7.0</ele><time>2026-04-05T11:14:33.971Z</time></trkpt><trkpt lat="40.172101656097865" lon="18.45754850280167"><ele>7.0</ele><time>2026-04-05T11:14:34.971Z</time></trkpt><trkpt lat="40.172260472150036" lon="18.457512668322202"><ele>7.666666666666667</ele><time>2026-04-05T11:14:35.971Z</time></trkpt><trkpt lat="40.172417257746126" lon="18.45747906524687"><ele>8.333333333333334</ele><time>2026-04-05T11:14:36.971Z</time></trkpt><trkpt lat="40.172585570078496" lon="18.45743941923733"><ele>9.0</ele><time>2026-04-05T11:14:37.971Z</time></trkpt><trkpt lat="40.17275556378429" lon="18.457389498309006"><ele>9.0</ele><time>2026-04-05T11:14:38.971Z</time></trkpt><trkpt lat="40.17293421837647" lon="18.45733194743193"><ele>9.0</ele><time>2026-04-05T11:14:39.971Z</time></trkpt><trkpt lat="40.17312023448924" lon="18.457282296923143"><ele>9.0</ele><time>2026-04-05T11:14:40.971Z</time></trkpt><trkpt lat="40.17330524657482" lon="18.457233695678784"><ele>10.0</ele><time>2026-04-05T11:14:41.971Z</time></trkpt><trkpt lat="40.17349677618175" lon="18.4571803629635"><ele>11.0</ele><time>2026-04-05T11:14:42.971Z</time></trkpt><trkpt lat="40.17369652361081" lon="18.457136966931888"><ele>12.0</ele><time>2026-04-05T11:14:43.971Z</time></trkpt><trkpt lat="40.17387891940936" lon="18.457086736971537"><ele>10.333333333333334</ele><time>2026-04-05T11:14:44.971Z</time></trkpt><trkpt lat="40.17406802492442" lon="18.45702792013101"><ele>8.666666666666668</ele><time>2026-04-05T11:14:45.971Z</time></trkpt><trkpt lat="40.17426527309407" lon="18.456975922842123"><ele>7.0</ele><time>2026-04-05T11:14:46.971Z</time></trkpt><trkpt lat="40.174462385179815" lon="18.456928517971328"><ele>7.0</ele><time>2026-04-05T11:14:47.971Z</time></trkpt><trkpt lat="40.17465569946792" lon="18.456870900747578"><ele>7.0</ele><time>2026-04-05T11:14:48.971Z</time></trkpt><trkpt lat="40.174851431701185" lon="18.456824361261756"><ele>7.0</ele><time>2026-04-05T11:14:49.971Z</time></trkpt><trkpt lat="40.175039007699716" lon="18.456761363269823"><ele>7.0</ele><time>2026-04-05T11:14:50.971Z</time></trkpt><trkpt lat="40.17523829245333" lon="18.456711323068635"><ele>7.0</ele><time>2026-04-05T11:14:51.971Z</time></trkpt><trkpt lat="40.17543559850746" lon="18.45666070321496"><ele>7.0</ele><time>2026-04-05T11:14:52.971Z</time></trkpt><trkpt lat="40.17563485378221" lon="18.456611254495915"><ele>7.666666666666667</ele><time>2026-04-05T11:14:53.971Z</time></trkpt><trkpt lat="40.17582787675302" lon="18.45656289036717"><ele>8.333333333333334</ele><time>2026-04-05T11:14:54.971Z</time></trkpt><trkpt lat="40.17603266125671" lon="18.456501285543272"><ele>9.0</ele><time>2026-04-05T11:14:55.971Z</time></trkpt><trkpt lat="40.17623829201042" lon="18.456436557385366"><ele>9.0</ele><time>2026-04-05T11:14:56.971Z</time></trkpt><trkpt lat="40.176436439405904" lon="18.456372269739934"><ele>9.0</ele><time>2026-04-05T11:14:57.971Z</time></trkpt><trkpt lat="40.17663315681024" lon="18.456291564335295"><ele>9.0</ele><time>2026-04-05T11:14:58.971Z</time></trkpt><trkpt lat="40.176826088565214" lon="18.456212625417923"><ele>8.333333333333334</ele><time>2026-04-05T11:14:59.971Z</time></trkpt><trkpt lat="40.1770169724737" lon="18.45613964937548"><ele>7.666666666666667</ele><time>2026-04-05T11:15:00.971Z</time></trkpt><trkpt lat="40.17720214194487" lon="18.45606108942503"><ele>7.0</ele><time>2026-04-05T11:15:01.971Z</time></trkpt><trkpt lat="40.177391807943316" lon="18.45598242093833"><ele>7.0</ele><time>2026-04-05T11:15:02.971Z</time></trkpt><trkpt lat="40.177576753351794" lon="18.455899953202707"><ele>7.0</ele><time>2026-04-05T11:15:03.971Z</time></trkpt><trkpt lat="40.17775270890144" lon="18.45583181600266"><ele>7.0</ele><time>2026-04-05T11:15:04.971Z</time></trkpt><trkpt lat="40.1779321604154" lon="18.455762329431426"><ele>7.0</ele><time>2026-04-05T11:15:05.971Z</time></trkpt><trkpt lat="40.17811021038267" lon="18.455685608684337"><ele>7.0</ele><time>2026-04-05T11:15:06.971Z</time></trkpt><trkpt lat="40.17829223113465" lon="18.45561840556404"><ele>7.0</ele><time>2026-04-05T11:15:07.971Z</time></trkpt><trkpt lat="40.178474845645766" lon="18.455549222868385"><ele>8.0</ele><time>2026-04-05T11:15:08.971Z</time></trkpt><trkpt lat="40.17865401601847" lon="18.455472665442638"><ele>9.0</ele><time>2026-04-05T11:15:09.971Z</time></trkpt><trkpt lat="40.17882650034177" lon="18.455397461776464"><ele>10.0</ele><time>2026-04-05T11:15:10.971Z</time></trkpt><trkpt lat="40.178997930667" lon="18.4553044007973"><ele>9.0</ele><time>2026-04-05T11:15:11.971Z</time></trkpt><trkpt lat="40.17915858024889" lon="18.45519841886033"><ele>8.0</ele><time>2026-04-05T11:15:12.971Z</time></trkpt><trkpt lat="40.17930540604441" lon="18.455078537559388"><ele>7.0</ele><time>2026-04-05T11:15:13.971Z</time></trkpt><trkpt lat="40.17944828961803" lon="18.45494006325129"><ele>7.0</ele><time>2026-04-05T11:15:14.971Z</time></trkpt><trkpt lat="40.179581009025085" lon="18.454802046932343"><ele>7.0</ele><time>2026-04-05T11:15:15.971Z</time></trkpt><trkpt lat="40.17970987303567" lon="18.454668048341002"><ele>7.0</ele><time>2026-04-05T11:15:16.971Z</time></trkpt><trkpt lat="40.17983407725672" lon="18.454539969568753"><ele>7.0</ele><time>2026-04-05T11:15:17.971Z</time></trkpt><trkpt lat="40.17995668754197" lon="18.454404968297467"><ele>7.0</ele><time>2026-04-05T11:15:18.971Z</time></trkpt><trkpt lat="40.18007474667595" lon="18.45427531351565"><ele>7.0</ele><time>2026-04-05T11:15:19.971Z</time></trkpt><trkpt lat="40.18020302645064" lon="18.454149156614424"><ele>7.0</ele><time>2026-04-05T11:15:20.971Z</time></trkpt><trkpt lat="40.1803405738359" lon="18.45401343111834"><ele>7.0</ele><time>2026-04-05T11:15:21.971Z</time></trkpt><trkpt lat="40.180479500761756" lon="18.45386769301154"><ele>7.0</ele><time>2026-04-05T11:15:22.971Z</time></trkpt><trkpt lat="40.18062578181288" lon="18.453724913783937"><ele>6.666666666666667</ele><time>2026-04-05T11:15:23.971Z</time></trkpt><trkpt lat="40.18076972434588" lon="18.453576809726744"><ele>6.333333333333334</ele><time>2026-04-05T11:15:24.971Z</time></trkpt><trkpt lat="40.18091137827538" lon="18.453428463997692"><ele>6.0</ele><time>2026-04-05T11:15:25.971Z</time></trkpt><trkpt lat="40.18105440516439" lon="18.453292213618614"><ele>6.0</ele><time>2026-04-05T11:15:26.971Z</time></trkpt><trkpt lat="40.18119500573573" lon="18.453148744603002"><ele>6.0</ele><time>2026-04-05T11:15:27.971Z</time></trkpt><trkpt lat="40.18133561830671" lon="18.45302039279249"><ele>6.0</ele><time>2026-04-05T11:15:28.971Z</time></trkpt><trkpt lat="40.181477152198234" lon="18.45289401292573"><ele>5.666666666666667</ele><time>2026-04-05T11:15:29.971Z</time></trkpt><trkpt lat="40.18162935621452" lon="18.452785231198295"><ele>5.333333333333334</ele><time>2026-04-05T11:15:30.971Z</time></trkpt><trkpt lat="40.18178727482121" lon="18.452681625179864"><ele>5.0</ele><time>2026-04-05T11:15:31.971Z</time></trkpt><trkpt lat="40.18194575709495" lon="18.452600529432768"><ele>5.0</ele><time>2026-04-05T11:15:32.971Z</time></trkpt><trkpt lat="40.18211192178739" lon="18.452538058907393"><ele>5.0</ele><time>2026-04-05T11:15:33.971Z</time></trkpt><trkpt lat="40.1822773206865" lon="18.452457662390394"><ele>5.0</ele><time>2026-04-05T11:15:34.971Z</time></trkpt><trkpt lat="40.182448518038335" lon="18.45239087444231"><ele>5.666666666666667</ele><time>2026-04-05T11:15:35.971Z</time></trkpt><trkpt lat="40.18263060280473" lon="18.45230777705713"><ele>6.333333333333334</ele><time>2026-04-05T11:15:36.971Z</time></trkpt><trkpt lat="40.18280728119748" lon="18.452224985373213"><ele>7.0</ele><time>2026-04-05T11:15:37.971Z</time></trkpt><trkpt lat="40.182996297337255" lon="18.452143329427976"><ele>7.0</ele><time>2026-04-05T11:15:38.971Z</time></trkpt><trkpt lat="40.18317511618442" lon="18.45206284948345"><ele>7.0</ele><time>2026-04-05T11:15:39.971Z</time></trkpt><trkpt lat="40.18335186800203" lon="18.451976959203595"><ele>7.0</ele><time>2026-04-05T11:15:40.971Z</time></trkpt><trkpt lat="40.18352788831035" lon="18.451904608977323"><ele>7.0</ele><time>2026-04-05T11:15:41.971Z</time></trkpt><trkpt lat="40.183706301389414" lon="18.451825059407938"><ele>7.0</ele><time>2026-04-05T11:15:42.971Z</time></trkpt><trkpt lat="40.18387809121139" lon="18.451752632426366"><ele>7.0</ele><time>2026-04-05T11:15:43.971Z</time></trkpt><trkpt lat="40.18404869360417" lon="18.451674696083472"><ele>7.666666666666667</ele><time>2026-04-05T11:15:44.971Z</time></trkpt><trkpt lat="40.184216629263666" lon="18.45160362232824"><ele>8.333333333333334</ele><time>2026-04-05T11:15:45.971Z</time></trkpt><trkpt lat="40.184391809687384" lon="18.45151869829366"><ele>9.0</ele><time>2026-04-05T11:15:46.971Z</time></trkpt><trkpt lat="40.18456313108117" lon="18.451447064080146"><ele>9.0</ele><time>2026-04-05T11:15:47.971Z</time></trkpt><trkpt lat="40.18473660519585" lon="18.451369302340225"><ele>9.0</ele><time>2026-04-05T11:15:48.971Z</time></trkpt><trkpt lat="40.184904962039624" lon="18.451293999913567"><ele>9.0</ele><time>2026-04-05T11:15:49.971Z</time></trkpt><trkpt lat="40.18506742679272" lon="18.451223458041763"><ele>8.666666666666666</ele><time>2026-04-05T11:15:50.971Z</time></trkpt><trkpt lat="40.18522930431217" lon="18.451143399189267"><ele>8.333333333333332</ele><time>2026-04-05T11:15:51.971Z</time></trkpt><trkpt lat="40.18539149116782" lon="18.451070198819373"><ele>8.0</ele><time>2026-04-05T11:15:52.971Z</time></trkpt><trkpt lat="40.1855553370196" lon="18.450994639901765"><ele>9.333333333333332</ele><time>2026-04-05T11:15:53.971Z</time></trkpt><trkpt lat="40.185725260458554" lon="18.450923364433617"><ele>10.666666666666666</ele><time>2026-04-05T11:15:54.971Z</time></trkpt><trkpt lat="40.18589450950509" lon="18.450846729141066"><ele>12.0</ele><time>2026-04-05T11:15:55.971Z</time></trkpt><trkpt lat="40.18606763385564" lon="18.45077086241367"><ele>12.0</ele><time>2026-04-05T11:15:56.971Z</time></trkpt><trkpt lat="40.18624466977921" lon="18.45069287452807"><ele>12.0</ele><time>2026-04-05T11:15:57.971Z</time></trkpt><trkpt lat="40.18641919629608" lon="18.450617392484503"><ele>12.0</ele><time>2026-04-05T11:15:58.971Z</time></trkpt><trkpt lat="40.18659898880289" lon="18.450537046085213"><ele>11.666666666666666</ele><time>2026-04-05T11:15:59.971Z</time></trkpt><trkpt lat="40.18677278466561" lon="18.450460201237107"><ele>11.333333333333332</ele><time>2026-04-05T11:16:00.97Z</time></trkpt><trkpt lat="40.1869426969172" lon="18.450390664001986"><ele>11.0</ele><time>2026-04-05T11:16:01.97Z</time></trkpt><trkpt lat="40.1871201725708" lon="18.450319147491157"><ele>11.0</ele><time>2026-04-05T11:16:02.971Z</time></trkpt><trkpt lat="40.187291800657555" lon="18.45025567097984"><ele>11.0</ele><time>2026-04-05T11:16:03.97Z</time></trkpt><trkpt lat="40.18746605458693" lon="18.45018906513394"><ele>11.0</ele><time>2026-04-05T11:16:04.97Z</time></trkpt><trkpt lat="40.18764497906499" lon="18.450121928529917"><ele>11.333333333333332</ele><time>2026-04-05T11:16:05.97Z</time></trkpt><trkpt lat="40.18781738714958" lon="18.450053337517755"><ele>11.666666666666666</ele><time>2026-04-05T11:16:06.97Z</time></trkpt><trkpt lat="40.18798994464124" lon="18.44998880719691"><ele>12.0</ele><time>2026-04-05T11:16:07.97Z</time></trkpt><trkpt lat="40.18816838458422" lon="18.44992354349314"><ele>12.333333333333332</ele><time>2026-04-05T11:16:08.97Z</time></trkpt><trkpt lat="40.188342574908525" lon="18.44986136383576"><ele>12.666666666666666</ele><time>2026-04-05T11:16:09.97Z</time></trkpt><trkpt lat="40.188518370175764" lon="18.44979691222442"><ele>13.0</ele><time>2026-04-05T11:16:10.97Z</time></trkpt><trkpt lat="40.18869199787923" lon="18.449733723184426"><ele>13.0</ele><time>2026-04-05T11:16:11.97Z</time></trkpt><trkpt lat="40.18886705194121" lon="18.44966626303372"><ele>13.0</ele><time>2026-04-05T11:16:12.971Z</time></trkpt><trkpt lat="40.18904522965661" lon="18.449602058632586"><ele>13.0</ele><time>2026-04-05T11:16:13.971Z</time></trkpt><trkpt lat="40.18922355237513" lon="18.449537869657995"><ele>12.333333333333332</ele><time>2026-04-05T11:16:14.971Z</time></trkpt><trkpt lat="40.18940660032972" lon="18.449473127096716"><ele>11.666666666666666</ele><time>2026-04-05T11:16:15.971Z</time></trkpt><trkpt lat="40.18958472906215" lon="18.449388157838424"><ele>11.0</ele><time>2026-04-05T11:16:16.971Z</time></trkpt><trkpt lat="40.18974355091031" lon="18.44930441802494"><ele>11.333333333333332</ele><time>2026-04-05T11:16:17.971Z</time></trkpt><trkpt lat="40.18988368223922" lon="18.449194219266076"><ele>11.666666666666666</ele><time>2026-04-05T11:16:18.971Z</time></trkpt><trkpt lat="40.19000680684943" lon="18.449070990759495"><ele>12.0</ele><time>2026-04-05T11:16:19.971Z</time></trkpt><trkpt lat="40.19010693731159" lon="18.448957166711327"><ele>12.0</ele><time>2026-04-05T11:16:20.971Z</time></trkpt><trkpt lat="40.19019909027844" lon="18.448864688513193"><ele>12.0</ele><time>2026-04-05T11:16:21.971Z</time></trkpt><trkpt lat="40.19042226361404" lon="18.44909257092185"><ele>12.0</ele><time>2026-04-05T11:16:22.97Z</time></trkpt><trkpt lat="40.19050653718517" lon="18.44905462118668"><ele>12.0</ele><time>2026-04-05T11:16:23.97Z</time></trkpt><trkpt lat="40.19057780780906" lon="18.449024497246732"><ele>12.0</ele><time>2026-04-05T11:16:24.97Z</time></trkpt><trkpt lat="40.190674512565984" lon="18.4490122850104"><ele>12.0</ele><time>2026-04-05T11:16:26.97Z</time></trkpt><trkpt lat="40.19074447265817" lon="18.449044106678475"><ele>12.0</ele><time>2026-04-05T11:16:28.97Z</time></trkpt><trkpt lat="40.190851783961804" lon="18.449118210012983"><ele>12.0</ele><time>2026-04-05T11:16:30.97Z</time></trkpt><trkpt lat="40.19091244938377" lon="18.44918661288936"><ele>12.0</ele><time>2026-04-05T11:16:31.97Z</time></trkpt><trkpt lat="40.19097670438605" lon="18.449283765489287"><ele>12.25</ele><time>2026-04-05T11:16:32.97Z</time></trkpt><trkpt lat="40.19103576682492" lon="18.449410666079643"><ele>12.5</ele><time>2026-04-05T11:16:33.97Z</time></trkpt><trkpt lat="40.19109479754946" lon="18.44957578996134"><ele>12.75</ele><time>2026-04-05T11:16:34.97Z</time></trkpt><trkpt lat="40.19114783278761" lon="18.449751430687606"><ele>13.0</ele><time>2026-04-05T11:16:35.97Z</time></trkpt><trkpt lat="40.19119363550135" lon="18.44994655350668"><ele>14.0</ele><time>2026-04-05T11:16:36.97Z</time></trkpt><trkpt lat="40.191234777682446" lon="18.450142692384173"><ele>15.0</ele><time>2026-04-05T11:16:37.97Z</time></trkpt><trkpt lat="40.19128184223116" lon="18.45034738927925"><ele>16.0</ele><time>2026-04-05T11:16:38.97Z</time></trkpt><trkpt lat="40.19133460274159" lon="18.450552130742434"><ele>16.0</ele><time>2026-04-05T11:16:39.97Z</time></trkpt><trkpt lat="40.19138344428684" lon="18.450766325867257"><ele>16.0</ele><time>2026-04-05T11:16:40.97Z</time></trkpt><trkpt lat="40.1914388121264" lon="18.450969703640503"><ele>16.0</ele><time>2026-04-05T11:16:41.97Z</time></trkpt><trkpt lat="40.19148419431146" lon="18.451152464807556"><ele>15.5</ele><time>2026-04-05T11:16:42.97Z</time></trkpt><trkpt lat="40.19152704188011" lon="18.451326982679582"><ele>15.0</ele><time>2026-04-05T11:16:43.97Z</time></trkpt><trkpt lat="40.19157017836485" lon="18.451487104579787"><ele>14.5</ele><time>2026-04-05T11:16:44.97Z</time></trkpt><trkpt lat="40.19160358577485" lon="18.451656488391784"><ele>14.0</ele><time>2026-04-05T11:16:45.97Z</time></trkpt><trkpt lat="40.19164285977896" lon="18.451789068498112"><ele>14.000000000000002</ele><time>2026-04-05T11:16:46.97Z</time></trkpt><trkpt lat="40.19167338368694" lon="18.45189237236969"><ele>14.0</ele><time>2026-04-05T11:16:47.97Z</time></trkpt><trkpt lat="40.191693987299104" lon="18.452013017343127"><ele>14.0</ele><time>2026-04-05T11:16:49.97Z</time></trkpt><trkpt lat="40.19174886478472" lon="18.45207877914069"><ele>14.0</ele><time>2026-04-05T11:16:52.97Z</time></trkpt><trkpt lat="40.191850777405044" lon="18.452099736459093"><ele>14.000000000000002</ele><time>2026-04-05T11:16:54.97Z</time></trkpt><trkpt lat="40.19193960035398" lon="18.4521239581669"><ele>14.0</ele><time>2026-04-05T11:16:56.97Z</time></trkpt><trkpt lat="40.19204975255903" lon="18.452170221647393"><ele>13.833333333333334</ele><time>2026-04-05T11:16:58.97Z</time></trkpt><trkpt lat="40.192166300725006" lon="18.452240561853017"><ele>13.666666666666668</ele><time>2026-04-05T11:17:00.97Z</time></trkpt><trkpt lat="40.1922332268869" lon="18.452282546934455"><ele>13.5</ele><time>2026-04-05T11:17:01.97Z</time></trkpt><trkpt lat="40.19230371093424" lon="18.452346217378693"><ele>13.333333333333332</ele><time>2026-04-05T11:17:02.97Z</time></trkpt><trkpt lat="40.19236484833977" lon="18.452400720274536"><ele>13.166666666666666</ele><time>2026-04-05T11:17:03.97Z</time></trkpt><trkpt lat="40.19242854439285" lon="18.452459380792842"><ele>13.0</ele><time>2026-04-05T11:17:04.97Z</time></trkpt><trkpt lat="40.192499970272614" lon="18.4525310809723"><ele>12.666666666666666</ele><time>2026-04-05T11:17:05.97Z</time></trkpt><trkpt lat="40.1925695760364" lon="18.452590299647554"><ele>12.333333333333332</ele><time>2026-04-05T11:17:06.97Z</time></trkpt><trkpt lat="40.192639668711834" lon="18.452658061569764"><ele>12.0</ele><time>2026-04-05T11:17:07.97Z</time></trkpt><trkpt lat="40.19270406425013" lon="18.452719350137446"><ele>11.666666666666666</ele><time>2026-04-05T11:17:08.97Z</time></trkpt><trkpt lat="40.1927695228849" lon="18.452789235996278"><ele>11.333333333333332</ele><time>2026-04-05T11:17:09.97Z</time></trkpt><trkpt lat="40.19282939572919" lon="18.45286142911514"><ele>11.0</ele><time>2026-04-05T11:17:10.97Z</time></trkpt><trkpt lat="40.1928874809021" lon="18.452912542979146"><ele>11.0</ele><time>2026-04-05T11:17:11.97Z</time></trkpt><trkpt lat="40.192997940421805" lon="18.45298066155244"><ele>11.0</ele><time>2026-04-05T11:17:13.97Z</time></trkpt><trkpt lat="40.19305737893038" lon="18.453011911478633"><ele>11.0</ele><time>2026-04-05T11:17:14.97Z</time></trkpt><trkpt lat="40.193138931183704" lon="18.453028567680764"><ele>11.0</ele><time>2026-04-05T11:17:16.97Z</time></trkpt><trkpt lat="40.193187117147396" lon="18.45310249913466"><ele>11.0</ele><time>2026-04-05T11:17:19.97Z</time></trkpt><trkpt lat="40.193246179463856" lon="18.45317808530597"><ele>11.0</ele><time>2026-04-05T11:17:22.97Z</time></trkpt><trkpt lat="40.19330577790881" lon="18.453206350358755"><ele>10.600000000000001</ele><time>2026-04-05T11:17:23.97Z</time></trkpt><trkpt lat="40.19338470209565" lon="18.45321401795639"><ele>10.200000000000001</ele><time>2026-04-05T11:17:24.97Z</time></trkpt><trkpt lat="40.19348305558234" lon="18.45321520797384"><ele>9.8</ele><time>2026-04-05T11:17:25.97Z</time></trkpt><trkpt lat="40.19359277794942" lon="18.453226438025624"><ele>9.4</ele><time>2026-04-05T11:17:26.97Z</time></trkpt><trkpt lat="40.193717861617486" lon="18.453223389829486"><ele>9.0</ele><time>2026-04-05T11:17:27.97Z</time></trkpt><trkpt lat="40.19385021695281" lon="18.45324108260405"><ele>9.0</ele><time>2026-04-05T11:17:28.97Z</time></trkpt><trkpt lat="40.19401652110905" lon="18.45324961096388"><ele>9.0</ele><time>2026-04-05T11:17:29.97Z</time></trkpt><trkpt lat="40.1941808594683" lon="18.453257263878378"><ele>9.0</ele><time>2026-04-05T11:17:30.97Z</time></trkpt><trkpt lat="40.19434857893594" lon="18.453263809504076"><ele>9.0</ele><time>2026-04-05T11:17:31.97Z</time></trkpt><trkpt lat="40.1945149866332" lon="18.453275245337444"><ele>9.0</ele><time>2026-04-05T11:17:32.97Z</time></trkpt><trkpt lat="40.194672549979025" lon="18.453281667956745"><ele>9.0</ele><time>2026-04-05T11:17:33.97Z</time></trkpt><trkpt lat="40.194829284357176" lon="18.453283596555316"><ele>9.0</ele><time>2026-04-05T11:17:34.97Z</time></trkpt><trkpt lat="40.19498207144213" lon="18.453294300319765"><ele>9.0</ele><time>2026-04-05T11:17:35.97Z</time></trkpt><trkpt lat="40.19513907965679" lon="18.453302157805425"><ele>9.0</ele><time>2026-04-05T11:17:36.97Z</time></trkpt><trkpt lat="40.19529963022752" lon="18.45331351013446"><ele>9.0</ele><time>2026-04-05T11:17:37.97Z</time></trkpt><trkpt lat="40.19546445076504" lon="18.453318041998717"><ele>9.0</ele><time>2026-04-05T11:17:38.97Z</time></trkpt><trkpt lat="40.19562886275385" lon="18.453330499120206"><ele>9.0</ele><time>2026-04-05T11:17:39.97Z</time></trkpt><trkpt lat="40.19579937753319" lon="18.453342966793787"><ele>8.333333333333334</ele><time>2026-04-05T11:17:40.97Z</time></trkpt><trkpt lat="40.19596663770483" lon="18.45334455649759"><ele>7.666666666666667</ele><time>2026-04-05T11:17:41.97Z</time></trkpt><trkpt lat="40.19612100891536" lon="18.45335572683807"><ele>7.0</ele><time>2026-04-05T11:17:42.97Z</time></trkpt><trkpt lat="40.19627170409951" lon="18.45337377009587"><ele>7.0</ele><time>2026-04-05T11:17:43.97Z</time></trkpt><trkpt lat="40.19642069896717" lon="18.453383487529912"><ele>7.0</ele><time>2026-04-05T11:17:44.97Z</time></trkpt><trkpt lat="40.19656277868841" lon="18.45338575361439"><ele>7.0</ele><time>2026-04-05T11:17:45.97Z</time></trkpt><trkpt lat="40.19672221181673" lon="18.45338996586938"><ele>6.666666666666667</ele><time>2026-04-05T11:17:46.97Z</time></trkpt><trkpt lat="40.19688111176543" lon="18.453390955088512"><ele>6.333333333333334</ele><time>2026-04-05T11:17:47.97Z</time></trkpt><trkpt lat="40.197043280929826" lon="18.453393512991347"><ele>6.0</ele><time>2026-04-05T11:17:48.97Z</time></trkpt><trkpt lat="40.19721335161047" lon="18.453400852235596"><ele>6.666666666666666</ele><time>2026-04-05T11:17:49.97Z</time></trkpt><trkpt lat="40.197379258963224" lon="18.45340535880929"><ele>7.333333333333333</ele><time>2026-04-05T11:17:50.97Z</time></trkpt><trkpt lat="40.19754932377034" lon="18.453416529096614"><ele>8.0</ele><time>2026-04-05T11:17:51.97Z</time></trkpt><trkpt lat="40.197722832837584" lon="18.453423133896244"><ele>8.0</ele><time>2026-04-05T11:17:52.97Z</time></trkpt><trkpt lat="40.19789151917837" lon="18.453423222820312"><ele>8.0</ele><time>2026-04-05T11:17:53.97Z</time></trkpt><trkpt lat="40.19805371665178" lon="18.453429058270785"><ele>8.0</ele><time>2026-04-05T11:17:54.97Z</time></trkpt><trkpt lat="40.198223217592044" lon="18.453435768170067"><ele>8.0</ele><time>2026-04-05T11:17:55.97Z</time></trkpt><trkpt lat="40.19838913015834" lon="18.453442127849883"><ele>8.0</ele><time>2026-04-05T11:17:56.97Z</time></trkpt><trkpt lat="40.19855685241514" lon="18.45344591392244"><ele>8.0</ele><time>2026-04-05T11:17:57.97Z</time></trkpt><trkpt lat="40.19872479553616" lon="18.453440754457606"><ele>8.0</ele><time>2026-04-05T11:17:58.97Z</time></trkpt><trkpt lat="40.19888820945346" lon="18.453445970848023"><ele>8.0</ele><time>2026-04-05T11:17:59.97Z</time></trkpt><trkpt lat="40.199048141102786" lon="18.453450950858205"><ele>8.0</ele><time>2026-04-05T11:18:00.97Z</time></trkpt><trkpt lat="40.199208977992335" lon="18.453461115632116"><ele>8.0</ele><time>2026-04-05T11:18:01.97Z</time></trkpt><trkpt lat="40.19936877727101" lon="18.453461883967712"><ele>8.0</ele><time>2026-04-05T11:18:02.97Z</time></trkpt><trkpt lat="40.19953149718268" lon="18.45346903623318"><ele>8.0</ele><time>2026-04-05T11:18:03.97Z</time></trkpt><trkpt lat="40.199696069227485" lon="18.453476778138132"><ele>9.25</ele><time>2026-04-05T11:18:04.97Z</time></trkpt><trkpt lat="40.199852222172694" lon="18.453488313689682"><ele>10.5</ele><time>2026-04-05T11:18:05.969Z</time></trkpt><trkpt lat="40.19999768188089" lon="18.453519031937326"><ele>11.75</ele><time>2026-04-05T11:18:06.969Z</time></trkpt><trkpt lat="40.20013858230604" lon="18.4535667183488"><ele>13.0</ele><time>2026-04-05T11:18:07.969Z</time></trkpt><trkpt lat="40.20027425082456" lon="18.453636745365394"><ele>13.0</ele><time>2026-04-05T11:18:08.97Z</time></trkpt><trkpt lat="40.20040561539624" lon="18.453727331322945"><ele>13.0</ele><time>2026-04-05T11:18:09.97Z</time></trkpt><trkpt lat="40.20053104638966" lon="18.453845377200718"><ele>13.0</ele><time>2026-04-05T11:18:10.97Z</time></trkpt><trkpt lat="40.200646527255316" lon="18.453988504238243"><ele>13.0</ele><time>2026-04-05T11:18:11.97Z</time></trkpt><trkpt lat="40.20075663170633" lon="18.454150756254915"><ele>13.0</ele><time>2026-04-05T11:18:12.969Z</time></trkpt><trkpt lat="40.20087919952525" lon="18.454318730686687"><ele>13.0</ele><time>2026-04-05T11:18:13.969Z</time></trkpt><trkpt lat="40.20099916605583" lon="18.454481295344394"><ele>13.666666666666666</ele><time>2026-04-05T11:18:14.97Z</time></trkpt><trkpt lat="40.201117885556236" lon="18.45464646661825"><ele>14.333333333333332</ele><time>2026-04-05T11:18:15.969Z</time></trkpt><trkpt lat="40.20124186096008" lon="18.45480248100221"><ele>15.0</ele><time>2026-04-05T11:18:16.969Z</time></trkpt><trkpt lat="40.201364311335716" lon="18.45496218235952"><ele>15.0</ele><time>2026-04-05T11:18:17.97Z</time></trkpt><trkpt lat="40.2014801431143" lon="18.455118479215887"><ele>15.0</ele><time>2026-04-05T11:18:18.97Z</time></trkpt><trkpt lat="40.201600188372915" lon="18.455276071991204"><ele>15.0</ele><time>2026-04-05T11:18:19.97Z</time></trkpt><trkpt lat="40.201713684005966" lon="18.455429481598593"><ele>15.666666666666668</ele><time>2026-04-05T11:18:20.97Z</time></trkpt><trkpt lat="40.2018398883204" lon="18.45558982882826"><ele>16.333333333333336</ele><time>2026-04-05T11:18:21.97Z</time></trkpt><trkpt lat="40.20196579031849" lon="18.455764728582906"><ele>17.0</ele><time>2026-04-05T11:18:22.97Z</time></trkpt><trkpt lat="40.20209016768899" lon="18.455943384825368"><ele>17.0</ele><time>2026-04-05T11:18:23.97Z</time></trkpt><trkpt lat="40.20220551805735" lon="18.456107235548817"><ele>17.0</ele><time>2026-04-05T11:18:24.97Z</time></trkpt><trkpt lat="40.2023090628022" lon="18.45625973303079"><ele>17.0</ele><time>2026-04-05T11:18:25.97Z</time></trkpt><trkpt lat="40.20241056552589" lon="18.456398488241987"><ele>15.25</ele><time>2026-04-05T11:18:26.97Z</time></trkpt><trkpt lat="40.20250985367239" lon="18.45653022401126"><ele>13.5</ele><time>2026-04-05T11:18:27.97Z</time></trkpt><trkpt lat="40.202608246088246" lon="18.45665824392618"><ele>11.75</ele><time>2026-04-05T11:18:28.97Z</time></trkpt><trkpt lat="40.20270742341703" lon="18.456785707794793"><ele>10.0</ele><time>2026-04-05T11:18:29.97Z</time></trkpt><trkpt lat="40.20280684629961" lon="18.456897717515275"><ele>10.0</ele><time>2026-04-05T11:18:30.97Z</time></trkpt><trkpt lat="40.20291280285021" lon="18.45698537420558"><ele>10.0</ele><time>2026-04-05T11:18:31.97Z</time></trkpt><trkpt lat="40.20302200523885" lon="18.4570588648356"><ele>10.0</ele><time>2026-04-05T11:18:32.97Z</time></trkpt><trkpt lat="40.20313934187662" lon="18.457118922727954"><ele>10.0</ele><time>2026-04-05T11:18:33.97Z</time></trkpt><trkpt lat="40.203262560150684" lon="18.457157628518473"><ele>8.25</ele><time>2026-04-05T11:18:34.97Z</time></trkpt><trkpt lat="40.203392963272584" lon="18.45719345897395"><ele>6.5</ele><time>2026-04-05T11:18:35.97Z</time></trkpt><trkpt lat="40.20351596136926" lon="18.457208488295354"><ele>4.75</ele><time>2026-04-05T11:18:36.97Z</time></trkpt><trkpt lat="40.20364481434644" lon="18.45719481793056"><ele>3.0</ele><time>2026-04-05T11:18:37.97Z</time></trkpt><trkpt lat="40.20377665184713" lon="18.457170693886756"><ele>3.0</ele><time>2026-04-05T11:18:38.97Z</time></trkpt><trkpt lat="40.20390939178427" lon="18.45713351932393"><ele>3.0</ele><time>2026-04-05T11:18:39.97Z</time></trkpt><trkpt lat="40.20404632957331" lon="18.457114441709905"><ele>3.0</ele><time>2026-04-05T11:18:40.97Z</time></trkpt><trkpt lat="40.20416295475019" lon="18.457105767961433"><ele>3.0</ele><time>2026-04-05T11:18:41.97Z</time></trkpt><trkpt lat="40.20426760784065" lon="18.457095417806304"><ele>1.0</ele><time>2026-04-05T11:18:42.97Z</time></trkpt><trkpt lat="40.20436488205446" lon="18.457090422238053"><ele>1.0</ele><time>2026-04-05T11:18:43.97Z</time></trkpt><trkpt lat="40.204443402336416" lon="18.457091314077484"><ele>1.0</ele><time>2026-04-05T11:18:44.97Z</time></trkpt><trkpt lat="40.204543493393736" lon="18.45710895961963"><ele>1.0</ele><time>2026-04-05T11:18:46.97Z</time></trkpt><trkpt lat="40.20459818197871" lon="18.457163944166496"><ele>1.0</ele><time>2026-04-05T11:18:50.97Z</time></trkpt></trkseg><trkseg><trkpt lat="40.20467162203503" lon="18.45711047174264"><ele>1.0</ele><time>2026-04-05T11:44:55.957Z</time></trkpt><trkpt lat="40.20461411682881" lon="18.457039870764262"><ele>1.0</ele><time>2026-04-05T11:45:03.957Z</time></trkpt><trkpt lat="40.20453434177995" lon="18.45703723506299"><ele>1.0</ele><time>2026-04-05T11:45:04.957Z</time></trkpt><trkpt lat="40.19519240445149" lon="18.453296504773306"><ele>3.6666666666666665</ele><time>2026-04-05T11:46:05.956Z</time></trkpt><trkpt lat="40.19497905893356" lon="18.45329027074238"><ele>6.333333333333333</ele><time>2026-04-05T11:46:06.956Z</time></trkpt><trkpt lat="40.19477112360473" lon="18.453285946287792"><ele>9.0</ele><time>2026-04-05T11:46:07.956Z</time></trkpt><trkpt lat="40.19456663506068" lon="18.45328074317014"><ele>9.0</ele><time>2026-04-05T11:46:08.956Z</time></trkpt><trkpt lat="40.19436222205923" lon="18.45327428871239"><ele>9.0</ele><time>2026-04-05T11:46:09.956Z</time></trkpt><trkpt lat="40.19415376434134" lon="18.453262391071757"><ele>9.0</ele><time>2026-04-05T11:46:10.956Z</time></trkpt><trkpt lat="40.19394623820969" lon="18.453256113688326"><ele>9.0</ele><time>2026-04-05T11:46:11.956Z</time></trkpt><trkpt lat="40.19374187052679" lon="18.45325244805524"><ele>9.0</ele><time>2026-04-05T11:46:12.956Z</time></trkpt><trkpt lat="40.19352935069358" lon="18.453245331250113"><ele>9.0</ele><time>2026-04-05T11:46:13.956Z</time></trkpt><trkpt lat="40.19332185971016" lon="18.45323447889843"><ele>9.666666666666666</ele><time>2026-04-05T11:46:14.956Z</time></trkpt><trkpt lat="40.19312808163119" lon="18.453225594349412"><ele>10.333333333333332</ele><time>2026-04-05T11:46:15.956Z</time></trkpt><trkpt lat="40.192956836089806" lon="18.453222444027038"><ele>11.0</ele><time>2026-04-05T11:46:16.956Z</time></trkpt><trkpt lat="40.192787776448284" lon="18.45324263621859"><ele>11.0</ele><time>2026-04-05T11:46:17.955Z</time></trkpt><trkpt lat="40.19261649083921" lon="18.453288491381695"><ele>11.0</ele><time>2026-04-05T11:46:18.955Z</time></trkpt><trkpt lat="40.19246351853414" lon="18.45334979385942"><ele>11.0</ele><time>2026-04-05T11:46:19.956Z</time></trkpt><trkpt lat="40.192315619255766" lon="18.45341255115635"><ele>11.4</ele><time>2026-04-05T11:46:20.955Z</time></trkpt><trkpt lat="40.1922046199115" lon="18.453489413530054"><ele>11.8</ele><time>2026-04-05T11:46:21.955Z</time></trkpt><trkpt lat="40.19211301139462" lon="18.4535431478667"><ele>12.200000000000001</ele><time>2026-04-05T11:46:22.956Z</time></trkpt><trkpt lat="40.19204858527314" lon="18.453548411732392"><ele>12.600000000000001</ele><time>2026-04-05T11:46:23.955Z</time></trkpt><trkpt lat="40.191944691192916" lon="18.453484258573155"><ele>13.0</ele><time>2026-04-05T11:46:25.955Z</time></trkpt><trkpt lat="40.19186305587972" lon="18.45336284893453"><ele>12.999999999999998</ele><time>2026-04-05T11:46:27.955Z</time></trkpt><trkpt lat="40.19180644143656" lon="18.45332162235133"><ele>13.0</ele><time>2026-04-05T11:46:28.955Z</time></trkpt><trkpt lat="40.191699282932056" lon="18.453364125430802"><ele>13.0</ele><time>2026-04-05T11:46:30.955Z</time></trkpt><trkpt lat="40.191655634803396" lon="18.45342799630058"><ele>13.0</ele><time>2026-04-05T11:46:31.955Z</time></trkpt><trkpt lat="40.19163297514899" lon="18.45351878441709"><ele>12.999999999999998</ele><time>2026-04-05T11:46:32.955Z</time></trkpt><trkpt lat="40.19162647357283" lon="18.453615677131413"><ele>13.0</ele><time>2026-04-05T11:46:33.955Z</time></trkpt><trkpt lat="40.19161794913326" lon="18.45371382731785"><ele>12.666666666666666</ele><time>2026-04-05T11:46:34.955Z</time></trkpt><trkpt lat="40.191598721139414" lon="18.45380834774279"><ele>12.333333333333332</ele><time>2026-04-05T11:46:35.955Z</time></trkpt><trkpt lat="40.19156126586214" lon="18.453881005630727"><ele>12.0</ele><time>2026-04-05T11:46:36.955Z</time></trkpt><trkpt lat="40.191515934464135" lon="18.453950678378206"><ele>11.666666666666666</ele><time>2026-04-05T11:46:37.955Z</time></trkpt><trkpt lat="40.1914517265454" lon="18.454017361933463"><ele>11.333333333333332</ele><time>2026-04-05T11:46:38.955Z</time></trkpt><trkpt lat="40.19136461284572" lon="18.45408166086496"><ele>11.0</ele><time>2026-04-05T11:46:39.955Z</time></trkpt><trkpt lat="40.19125943202935" lon="18.454155741718335"><ele>11.0</ele><time>2026-04-05T11:46:40.955Z</time></trkpt><trkpt lat="40.19111353603871" lon="18.454234351214545"><ele>11.0</ele><time>2026-04-05T11:46:41.955Z</time></trkpt><trkpt lat="40.19096227603138" lon="18.454324922393067"><ele>11.0</ele><time>2026-04-05T11:46:42.955Z</time></trkpt><trkpt lat="40.19080046565945" lon="18.45442529724605"><ele>11.333333333333332</ele><time>2026-04-05T11:46:43.955Z</time></trkpt><trkpt lat="40.190623326779665" lon="18.45452820356286"><ele>11.666666666666666</ele><time>2026-04-05T11:46:44.955Z</time></trkpt><trkpt lat="40.19043486287192" lon="18.454640710842654"><ele>12.0</ele><time>2026-04-05T11:46:45.955Z</time></trkpt><trkpt lat="40.190254247899475" lon="18.4547570918924"><ele>11.333333333333334</ele><time>2026-04-05T11:46:46.955Z</time></trkpt><trkpt lat="40.19006431840776" lon="18.45486923705729"><ele>10.666666666666668</ele><time>2026-04-05T11:46:47.955Z</time></trkpt><trkpt lat="40.189872405554596" lon="18.454990798602985"><ele>10.0</ele><time>2026-04-05T11:46:48.955Z</time></trkpt><trkpt lat="40.18967331909557" lon="18.455113610524577"><ele>10.0</ele><time>2026-04-05T11:46:49.955Z</time></trkpt><trkpt lat="40.18948502572832" lon="18.45523611909562"><ele>10.0</ele><time>2026-04-05T11:46:50.955Z</time></trkpt><trkpt lat="40.18928618049957" lon="18.45535187645279"><ele>10.0</ele><time>2026-04-05T11:46:51.955Z</time></trkpt><trkpt lat="40.189082786275975" lon="18.45546949131724"><ele>10.0</ele><time>2026-04-05T11:46:52.955Z</time></trkpt><trkpt lat="40.188879962307176" lon="18.455589336354983"><ele>10.0</ele><time>2026-04-05T11:46:53.955Z</time></trkpt><trkpt lat="40.188684018898" lon="18.45569575948057"><ele>10.0</ele><time>2026-04-05T11:46:54.955Z</time></trkpt><trkpt lat="40.18848979596033" lon="18.455807531393248"><ele>10.0</ele><time>2026-04-05T11:46:55.955Z</time></trkpt><trkpt lat="40.18828886741285" lon="18.455912540105444"><ele>10.0</ele><time>2026-04-05T11:46:56.955Z</time></trkpt><trkpt lat="40.188079400525474" lon="18.456006290325394"><ele>10.0</ele><time>2026-04-05T11:46:57.955Z</time></trkpt><trkpt lat="40.187868002200766" lon="18.45608140521828"><ele>9.666666666666668</ele><time>2026-04-05T11:46:58.955Z</time></trkpt><trkpt lat="40.18765315318475" lon="18.456170923000105"><ele>9.333333333333334</ele><time>2026-04-05T11:46:59.955Z</time></trkpt><trkpt lat="40.18744408084982" lon="18.456269183147644"><ele>9.0</ele><time>2026-04-05T11:47:00.955Z</time></trkpt><trkpt lat="40.18723017599726" lon="18.456364035413824"><ele>10.0</ele><time>2026-04-05T11:47:01.955Z</time></trkpt><trkpt lat="40.18701439162442" lon="18.456456168891144"><ele>11.0</ele><time>2026-04-05T11:47:02.955Z</time></trkpt><trkpt lat="40.18680048657016" lon="18.45654345179464"><ele>11.0</ele><time>2026-04-05T11:47:03.955Z</time></trkpt><trkpt lat="40.18658105971248" lon="18.456639692755903"><ele>11.0</ele><time>2026-04-05T11:47:04.955Z</time></trkpt><trkpt lat="40.17489814175239" lon="18.463901117522056"><ele>17.0</ele><time>2026-04-05T11:48:05.954Z</time></trkpt><trkpt lat="40.17464210387978" lon="18.46397349032531"><ele>23.0</ele><time>2026-04-05T11:48:06.954Z</time></trkpt><trkpt lat="40.174443922076435" lon="18.464083528904936"><ele>23.0</ele><time>2026-04-05T11:48:07.954Z</time></trkpt><trkpt lat="40.17424644235303" lon="18.464192726395034"><ele>23.0</ele><time>2026-04-05T11:48:08.954Z</time></trkpt><trkpt lat="40.17405455802547" lon="18.464304610560063"><ele>23.0</ele><time>2026-04-05T11:48:09.954Z</time></trkpt><trkpt lat="40.173865180892285" lon="18.464418660313104"><ele>23.0</ele><time>2026-04-05T11:48:10.954Z</time></trkpt><trkpt lat="40.17367220645899" lon="18.464529909239744"><ele>23.0</ele><time>2026-04-05T11:48:11.954Z</time></trkpt><trkpt lat="40.1734866639609" lon="18.464643131334782"><ele>23.0</ele><time>2026-04-05T11:48:12.954Z</time></trkpt><trkpt lat="40.17329652101138" lon="18.46475577177667"><ele>23.666666666666668</ele><time>2026-04-05T11:48:13.954Z</time></trkpt><trkpt lat="40.1731102316652" lon="18.46486571376285"><ele>24.333333333333336</ele><time>2026-04-05T11:48:14.954Z</time></trkpt><trkpt lat="40.17292768179832" lon="18.464967992226235"><ele>25.0</ele><time>2026-04-05T11:48:15.954Z</time></trkpt><trkpt lat="40.17274293776313" lon="18.465057110942343"><ele>25.0</ele><time>2026-04-05T11:48:16.954Z</time></trkpt><trkpt lat="40.172555338056604" lon="18.46513138768291"><ele>25.0</ele><time>2026-04-05T11:48:17.954Z</time></trkpt><trkpt lat="40.172354677013516" lon="18.465177650032313"><ele>25.0</ele><time>2026-04-05T11:48:18.954Z</time></trkpt><trkpt lat="40.17214951099437" lon="18.465213910119218"><ele>24.0</ele><time>2026-04-05T11:48:19.955Z</time></trkpt><trkpt lat="40.17194168414024" lon="18.46523907601985"><ele>23.0</ele><time>2026-04-05T11:48:20.954Z</time></trkpt><trkpt lat="40.17173491486623" lon="18.465269448520363"><ele>22.0</ele><time>2026-04-05T11:48:21.954Z</time></trkpt><trkpt lat="40.171526731490765" lon="18.465295792019102"><ele>22.333333333333332</ele><time>2026-04-05T11:48:22.954Z</time></trkpt><trkpt lat="40.17130981352427" lon="18.465325622916996"><ele>22.666666666666668</ele><time>2026-04-05T11:48:23.954Z</time></trkpt><trkpt lat="40.17109586510788" lon="18.465358286467854"><ele>23.0</ele><time>2026-04-05T11:48:24.954Z</time></trkpt><trkpt lat="40.170876814315136" lon="18.46538411459479"><ele>23.0</ele><time>2026-04-05T11:48:25.954Z</time></trkpt><trkpt lat="40.1706618075875" lon="18.465419556248484"><ele>23.0</ele><time>2026-04-05T11:48:26.954Z</time></trkpt><trkpt lat="40.170446239384276" lon="18.465454161925425"><ele>23.0</ele><time>2026-04-05T11:48:27.954Z</time></trkpt><trkpt lat="40.17022650718042" lon="18.465483114822625"><ele>23.0</ele><time>2026-04-05T11:48:28.954Z</time></trkpt><trkpt lat="40.170014266513405" lon="18.465519822542444"><ele>23.0</ele><time>2026-04-05T11:48:29.954Z</time></trkpt><trkpt lat="40.16979877969398" lon="18.465556090118696"><ele>23.0</ele><time>2026-04-05T11:48:30.954Z</time></trkpt><trkpt lat="40.16959753724951" lon="18.465591864446647"><ele>23.333333333333336</ele><time>2026-04-05T11:48:31.954Z</time></trkpt><trkpt lat="40.16941861585461" lon="18.465659538289707"><ele>23.666666666666668</ele><time>2026-04-05T11:48:32.954Z</time></trkpt><trkpt lat="40.169239344120186" lon="18.465722858926227"><ele>24.0</ele><time>2026-04-05T11:48:33.954Z</time></trkpt><trkpt lat="40.169078316527745" lon="18.465824273343014"><ele>24.333333333333336</ele><time>2026-04-05T11:48:34.954Z</time></trkpt><trkpt lat="40.16894561739665" lon="18.465971622890848"><ele>24.666666666666668</ele><time>2026-04-05T11:48:35.954Z</time></trkpt><trkpt lat="40.16881342242339" lon="18.466143326738862"><ele>25.0</ele><time>2026-04-05T11:48:36.954Z</time></trkpt><trkpt lat="40.16868986281191" lon="18.46632666103971"><ele>25.0</ele><time>2026-04-05T11:48:37.954Z</time></trkpt><trkpt lat="40.168567285621535" lon="18.46651727061509"><ele>25.0</ele><time>2026-04-05T11:48:38.954Z</time></trkpt><trkpt lat="40.16842952807277" lon="18.466695272445897"><ele>25.0</ele><time>2026-04-05T11:48:39.954Z</time></trkpt><trkpt lat="40.168274096138205" lon="18.46686673973508"><ele>24.666666666666668</ele><time>2026-04-05T11:48:40.954Z</time></trkpt><trkpt lat="40.16814996228974" lon="18.467025921340475"><ele>24.333333333333336</ele><time>2026-04-05T11:48:41.954Z</time></trkpt><trkpt lat="40.168032969880315" lon="18.467193429500075"><ele>24.0</ele><time>2026-04-05T11:48:42.954Z</time></trkpt><trkpt lat="40.16788401569003" lon="18.467338158337174"><ele>23.666666666666668</ele><time>2026-04-05T11:48:43.954Z</time></trkpt><trkpt lat="40.16770953886045" lon="18.467448486549095"><ele>23.333333333333336</ele><time>2026-04-05T11:48:44.954Z</time></trkpt><trkpt lat="40.167530536202236" lon="18.467568270746114"><ele>23.0</ele><time>2026-04-05T11:48:45.954Z</time></trkpt><trkpt lat="40.167349371375856" lon="18.467692798849605"><ele>23.0</ele><time>2026-04-05T11:48:46.954Z</time></trkpt><trkpt lat="40.167168075401044" lon="18.46783445226761"><ele>23.0</ele><time>2026-04-05T11:48:47.954Z</time></trkpt><trkpt lat="40.16698237513169" lon="18.467963832659976"><ele>23.0</ele><time>2026-04-05T11:48:48.954Z</time></trkpt><trkpt lat="40.16679592414364" lon="18.468100913784852"><ele>23.0</ele><time>2026-04-05T11:48:49.954Z</time></trkpt><trkpt lat="40.1666061268727" lon="18.468234827169947"><ele>23.0</ele><time>2026-04-05T11:48:50.954Z</time></trkpt><trkpt lat="40.16641463660212" lon="18.468367282802586"><ele>23.0</ele><time>2026-04-05T11:48:51.954Z</time></trkpt><trkpt lat="40.16622299230286" lon="18.468508904628212"><ele>23.666666666666668</ele><time>2026-04-05T11:48:52.954Z</time></trkpt><trkpt lat="40.16603116118768" lon="18.468648775663148"><ele>24.333333333333336</ele><time>2026-04-05T11:48:53.954Z</time></trkpt><trkpt lat="40.1658367661981" lon="18.468790079827535"><ele>25.0</ele><time>2026-04-05T11:48:54.954Z</time></trkpt><trkpt lat="40.16564207607801" lon="18.468929269772232"><ele>25.0</ele><time>2026-04-05T11:48:55.954Z</time></trkpt><trkpt lat="40.16544875806639" lon="18.469072163197815"><ele>25.0</ele><time>2026-04-05T11:48:56.954Z</time></trkpt><trkpt lat="40.16525725894168" lon="18.469218423305612"><ele>25.0</ele><time>2026-04-05T11:48:57.954Z</time></trkpt><trkpt lat="40.16506740404055" lon="18.469361701107267"><ele>25.0</ele><time>2026-04-05T11:48:58.954Z</time></trkpt><trkpt lat="40.16487454885734" lon="18.469504168470817"><ele>25.0</ele><time>2026-04-05T11:48:59.954Z</time></trkpt><trkpt lat="40.16468353013477" lon="18.46964054480912"><ele>25.0</ele><time>2026-04-05T11:49:00.954Z</time></trkpt><trkpt lat="40.16449199531583" lon="18.469781393298202"><ele>25.0</ele><time>2026-04-05T11:49:01.954Z</time></trkpt><trkpt lat="40.164296241440574" lon="18.46992368520687"><ele>25.0</ele><time>2026-04-05T11:49:02.954Z</time></trkpt><trkpt lat="40.16409953896927" lon="18.470063228585083"><ele>25.0</ele><time>2026-04-05T11:49:03.954Z</time></trkpt><trkpt lat="40.16390049408159" lon="18.47020433641667"><ele>21.0</ele><time>2026-04-05T11:49:04.954Z</time></trkpt><trkpt lat="40.15309731502956" lon="18.479978817101227"><ele>21.0</ele><time>2026-04-05T11:50:05.954Z</time></trkpt><trkpt lat="40.15296473314778" lon="18.480104886008846"><ele>21.0</ele><time>2026-04-05T11:50:06.954Z</time></trkpt><trkpt lat="40.15283755477797" lon="18.480231694661867"><ele>21.0</ele><time>2026-04-05T11:50:07.954Z</time></trkpt><trkpt lat="40.15271771009546" lon="18.480348492688922"><ele>20.75</ele><time>2026-04-05T11:50:08.954Z</time></trkpt><trkpt lat="40.15260009652528" lon="18.480462297357466"><ele>20.5</ele><time>2026-04-05T11:50:09.954Z</time></trkpt><trkpt lat="40.15249238083481" lon="18.480564609078883"><ele>20.25</ele><time>2026-04-05T11:50:10.954Z</time></trkpt><trkpt lat="40.152387906038676" lon="18.48066609588946"><ele>20.0</ele><time>2026-04-05T11:50:11.954Z</time></trkpt><trkpt lat="40.15228564552147" lon="18.48075820242364"><ele>20.0</ele><time>2026-04-05T11:50:12.954Z</time></trkpt><trkpt lat="40.1521903900906" lon="18.480852658374797"><ele>20.0</ele><time>2026-04-05T11:50:13.954Z</time></trkpt><trkpt lat="40.15210012648255" lon="18.480946611619864"><ele>20.0</ele><time>2026-04-05T11:50:14.954Z</time></trkpt><trkpt lat="40.152004821802855" lon="18.481041650631575"><ele>20.0</ele><time>2026-04-05T11:50:15.953Z</time></trkpt><trkpt lat="40.15191254471386" lon="18.48113656982706"><ele>20.0</ele><time>2026-04-05T11:50:16.953Z</time></trkpt><trkpt lat="40.15181167722481" lon="18.481230192813918"><ele>20.0</ele><time>2026-04-05T11:50:17.953Z</time></trkpt><trkpt lat="40.151725928254145" lon="18.48132327712777"><ele>20.0</ele><time>2026-04-05T11:50:18.953Z</time></trkpt><trkpt lat="40.151632444491966" lon="18.481409290119547"><ele>20.0</ele><time>2026-04-05T11:50:19.953Z</time></trkpt><trkpt lat="40.151541351271725" lon="18.481495113247433"><ele>20.4</ele><time>2026-04-05T11:50:20.953Z</time></trkpt><trkpt lat="40.151454983113645" lon="18.48157929594327"><ele>20.8</ele><time>2026-04-05T11:50:21.953Z</time></trkpt><trkpt lat="40.15136454278992" lon="18.48165757879264"><ele>21.200000000000003</ele><time>2026-04-05T11:50:22.953Z</time></trkpt><trkpt lat="40.15128316894876" lon="18.481747684578224"><ele>21.6</ele><time>2026-04-05T11:50:23.953Z</time></trkpt><trkpt lat="40.15119931925971" lon="18.48182414363722"><ele>22.0</ele><time>2026-04-05T11:50:24.953Z</time></trkpt><trkpt lat="40.1511138274425" lon="18.481891937068877"><ele>22.0</ele><time>2026-04-05T11:50:25.953Z</time></trkpt><trkpt lat="40.151033162153304" lon="18.481952511174764"><ele>22.0</ele><time>2026-04-05T11:50:26.953Z</time></trkpt><trkpt lat="40.15096052045687" lon="18.481981173333544"><ele>22.0</ele><time>2026-04-05T11:50:27.953Z</time></trkpt><trkpt lat="40.150857186415436" lon="18.48203170728742"><ele>22.0</ele><time>2026-04-05T11:50:29.953Z</time></trkpt><trkpt lat="40.15075679829119" lon="18.4821270064278"><ele>22.0</ele><time>2026-04-05T11:50:31.953Z</time></trkpt><trkpt lat="40.150702633122336" lon="18.482203555905162"><ele>22.0</ele><time>2026-04-05T11:50:32.953Z</time></trkpt><trkpt lat="40.15065033442164" lon="18.48229466829565"><ele>22.0</ele><time>2026-04-05T11:50:33.953Z</time></trkpt><trkpt lat="40.15058009508433" lon="18.482388828790747"><ele>22.0</ele><time>2026-04-05T11:50:34.953Z</time></trkpt><trkpt lat="40.150489099006606" lon="18.4824797995245"><ele>22.0</ele><time>2026-04-05T11:50:35.953Z</time></trkpt><trkpt lat="40.15038937165662" lon="18.48256918780882"><ele>22.0</ele><time>2026-04-05T11:50:36.953Z</time></trkpt><trkpt lat="40.15028767896856" lon="18.482650171336285"><ele>22.0</ele><time>2026-04-05T11:50:37.953Z</time></trkpt><trkpt lat="40.15018457532959" lon="18.48273410026933"><ele>22.0</ele><time>2026-04-05T11:50:38.953Z</time></trkpt><trkpt lat="40.15008065166654" lon="18.482832020404047"><ele>22.0</ele><time>2026-04-05T11:50:39.953Z</time></trkpt><trkpt lat="40.14997198879006" lon="18.482932318112873"><ele>22.0</ele><time>2026-04-05T11:50:40.953Z</time></trkpt><trkpt lat="40.14986648315751" lon="18.483024288916003"><ele>21.6</ele><time>2026-04-05T11:50:41.953Z</time></trkpt><trkpt lat="40.14977248904548" lon="18.483111404704577"><ele>21.200000000000003</ele><time>2026-04-05T11:50:42.953Z</time></trkpt><trkpt lat="40.14967546939018" lon="18.483181330602644"><ele>20.8</ele><time>2026-04-05T11:50:43.953Z</time></trkpt><trkpt lat="40.14957973129197" lon="18.483230528106894"><ele>20.4</ele><time>2026-04-05T11:50:44.953Z</time></trkpt><trkpt lat="40.149487372999104" lon="18.48327091291964"><ele>20.0</ele><time>2026-04-05T11:50:45.953Z</time></trkpt><trkpt lat="40.149404169436394" lon="18.483291671333824"><ele>20.0</ele><time>2026-04-05T11:50:46.953Z</time></trkpt><trkpt lat="40.1493257702578" lon="18.483296031234087"><ele>20.0</ele><time>2026-04-05T11:50:47.953Z</time></trkpt><trkpt lat="40.149214109590154" lon="18.483256427847024"><ele>20.0</ele><time>2026-04-05T11:50:49.953Z</time></trkpt><trkpt lat="40.14914850720953" lon="18.483158418819883"><ele>20.0</ele><time>2026-04-05T11:50:51.953Z</time></trkpt><trkpt lat="40.149057008811496" lon="18.483129295852386"><ele>20.0</ele><time>2026-04-05T11:50:53.953Z</time></trkpt><trkpt lat="40.14893445740495" lon="18.483186400752217"><ele>20.0</ele><time>2026-04-05T11:50:55.953Z</time></trkpt><trkpt lat="40.14882253003631" lon="18.48319652688691"><ele>20.0</ele><time>2026-04-05T11:50:57.953Z</time></trkpt><trkpt lat="40.1487089911852" lon="18.483118489645197"><ele>20.0</ele><time>2026-04-05T11:50:59.953Z</time></trkpt><trkpt lat="40.14865313432808" lon="18.48303062488815"><ele>20.0</ele><time>2026-04-05T11:51:00.953Z</time></trkpt><trkpt lat="40.14858966474716" lon="18.48291266190087"><ele>20.0</ele><time>2026-04-05T11:51:01.953Z</time></trkpt><trkpt lat="40.148529406492884" lon="18.48279401865669"><ele>20.0</ele><time>2026-04-05T11:51:02.953Z</time></trkpt><trkpt lat="40.148458736245026" lon="18.482710146988094"><ele>20.0</ele><time>2026-04-05T11:51:03.953Z</time></trkpt><trkpt lat="40.14836718940457" lon="18.48265037000308"><ele>20.0</ele><time>2026-04-05T11:51:04.953Z</time></trkpt><trkpt lat="40.148256937041744" lon="18.475841215806454"><ele>22.25</ele><time>2026-04-05T11:52:05.952Z</time></trkpt><trkpt lat="40.148223745347934" lon="18.47594758203218"><ele>24.5</ele><time>2026-04-05T11:52:06.952Z</time></trkpt><trkpt lat="40.148170081545004" lon="18.476097577397887"><ele>26.75</ele><time>2026-04-05T11:52:07.952Z</time></trkpt><trkpt lat="40.14809157957252" lon="18.476249941592453"><ele>29.0</ele><time>2026-04-05T11:52:08.952Z</time></trkpt><trkpt lat="40.148008576607076" lon="18.476408457714797"><ele>30.0</ele><time>2026-04-05T11:52:09.952Z</time></trkpt><trkpt lat="40.14790851654374" lon="18.476563560359942"><ele>31.0</ele><time>2026-04-05T11:52:10.952Z</time></trkpt><trkpt lat="40.14781832895687" lon="18.47673501392772"><ele>32.0</ele><time>2026-04-05T11:52:11.952Z</time></trkpt><trkpt lat="40.147723945949615" lon="18.476896082283552"><ele>32.0</ele><time>2026-04-05T11:52:12.952Z</time></trkpt><trkpt lat="40.14762351011688" lon="18.477040015737124"><ele>32.0</ele><time>2026-04-05T11:52:13.952Z</time></trkpt><trkpt lat="40.147532914219646" lon="18.477176200729534"><ele>32.0</ele><time>2026-04-05T11:52:14.952Z</time></trkpt><trkpt lat="40.147442683140085" lon="18.477294085040675"><ele>32.0</ele><time>2026-04-05T11:52:15.952Z</time></trkpt><trkpt lat="40.14736128800228" lon="18.477376379442685"><ele>31.8</ele><time>2026-04-05T11:52:16.952Z</time></trkpt><trkpt lat="40.147291102135284" lon="18.477413365157062"><ele>31.6</ele><time>2026-04-05T11:52:17.952Z</time></trkpt><trkpt lat="40.147168183865354" lon="18.477407394657618"><ele>31.400000000000002</ele><time>2026-04-05T11:52:19.952Z</time></trkpt><trkpt lat="40.147102638430404" lon="18.47739901791089"><ele>31.200000000000003</ele><time>2026-04-05T11:52:20.952Z</time></trkpt><trkpt lat="40.147035859018736" lon="18.47741496413022"><ele>31.0</ele><time>2026-04-05T11:52:21.952Z</time></trkpt><trkpt lat="40.14695708808338" lon="18.47752905458392"><ele>31.000000000000004</ele><time>2026-04-05T11:52:23.952Z</time></trkpt><trkpt lat="40.14694316033226" lon="18.477623722197134"><ele>31.0</ele><time>2026-04-05T11:52:24.952Z</time></trkpt><trkpt lat="40.14695784098739" lon="18.477729775375025"><ele>31.0</ele><time>2026-04-05T11:52:25.952Z</time></trkpt><trkpt lat="40.146969509950104" lon="18.477839952325077"><ele>31.0</ele><time>2026-04-05T11:52:26.952Z</time></trkpt><trkpt lat="40.14697045374714" lon="18.477942740267867"><ele>31.000000000000004</ele><time>2026-04-05T11:52:27.952Z</time></trkpt><trkpt lat="40.146930865976216" lon="18.47805141933109"><ele>31.0</ele><time>2026-04-05T11:52:28.952Z</time></trkpt><trkpt lat="40.14684760125159" lon="18.47817970529916"><ele>30.666666666666668</ele><time>2026-04-05T11:52:29.952Z</time></trkpt><trkpt lat="40.14674009355506" lon="18.478322300562915"><ele>30.333333333333336</ele><time>2026-04-05T11:52:30.952Z</time></trkpt><trkpt lat="40.14661082224937" lon="18.478472554245933"><ele>30.0</ele><time>2026-04-05T11:52:31.952Z</time></trkpt><trkpt lat="40.146491099979876" lon="18.478648742820454"><ele>29.333333333333336</ele><time>2026-04-05T11:52:32.951Z</time></trkpt><trkpt lat="40.14635756351365" lon="18.478827689511046"><ele>28.666666666666668</ele><time>2026-04-05T11:52:33.951Z</time></trkpt><trkpt lat="40.146213012798405" lon="18.479007828695963"><ele>28.0</ele><time>2026-04-05T11:52:34.952Z</time></trkpt><trkpt lat="40.14605167897525" lon="18.479175267845992"><ele>28.0</ele><time>2026-04-05T11:52:35.952Z</time></trkpt><trkpt lat="40.145875130446356" lon="18.479337177003558"><ele>28.0</ele><time>2026-04-05T11:52:36.952Z</time></trkpt><trkpt lat="40.14569679074319" lon="18.479491296087534"><ele>28.0</ele><time>2026-04-05T11:52:37.953Z</time></trkpt><trkpt lat="40.14551256188286" lon="18.479621225930597"><ele>27.0</ele><time>2026-04-05T11:52:38.951Z</time></trkpt><trkpt lat="40.14532732379159" lon="18.479740281565242"><ele>26.0</ele><time>2026-04-05T11:52:39.951Z</time></trkpt><trkpt lat="40.14513709552445" lon="18.479840648264357"><ele>25.0</ele><time>2026-04-05T11:52:40.952Z</time></trkpt><trkpt lat="40.14493422087426" lon="18.47992679065109"><ele>21.333333333333336</ele><time>2026-04-05T11:52:41.952Z</time></trkpt><trkpt lat="40.144730289239305" lon="18.47998274625506"><ele>17.666666666666668</ele><time>2026-04-05T11:52:42.952Z</time></trkpt><trkpt lat="40.14452164196118" lon="18.480050453960096"><ele>14.0</ele><time>2026-04-05T11:52:43.952Z</time></trkpt><trkpt lat="40.144317704323086" lon="18.48012363704502"><ele>14.0</ele><time>2026-04-05T11:52:44.952Z</time></trkpt><trkpt lat="40.14411146164323" lon="18.480201925246984"><ele>14.0</ele><time>2026-04-05T11:52:45.952Z</time></trkpt><trkpt lat="40.14390948074001" lon="18.4802824299192"><ele>14.0</ele><time>2026-04-05T11:52:46.952Z</time></trkpt><trkpt lat="40.143706763621246" lon="18.48035432813833"><ele>13.333333333333334</ele><time>2026-04-05T11:52:47.952Z</time></trkpt><trkpt lat="40.143501689533885" lon="18.48042857475218"><ele>12.666666666666668</ele><time>2026-04-05T11:52:48.952Z</time></trkpt><trkpt lat="40.14329338554022" lon="18.4805016372634"><ele>12.0</ele><time>2026-04-05T11:52:49.951Z</time></trkpt><trkpt lat="40.14308020711474" lon="18.480573439739686"><ele>12.0</ele><time>2026-04-05T11:52:50.951Z</time></trkpt><trkpt lat="40.14287180795839" lon="18.48065528252835"><ele>12.0</ele><time>2026-04-05T11:52:51.951Z</time></trkpt><trkpt lat="40.142663525759666" lon="18.480731374265602"><ele>12.0</ele><time>2026-04-05T11:52:52.951Z</time></trkpt><trkpt lat="40.14245391744914" lon="18.480808126299095"><ele>15.0</ele><time>2026-04-05T11:52:53.951Z</time></trkpt><trkpt lat="40.142243320435256" lon="18.480889049266985"><ele>18.0</ele><time>2026-04-05T11:52:54.951Z</time></trkpt><trkpt lat="40.1420305078776" lon="18.480967785603678"><ele>21.0</ele><time>2026-04-05T11:52:55.951Z</time></trkpt><trkpt lat="40.141813341651286" lon="18.481048365225234"><ele>21.0</ele><time>2026-04-05T11:52:56.951Z</time></trkpt><trkpt lat="40.141598967951026" lon="18.48113173244028"><ele>21.0</ele><time>2026-04-05T11:52:57.951Z</time></trkpt><trkpt lat="40.14138656879507" lon="18.48121585186872"><ele>21.0</ele><time>2026-04-05T11:52:58.951Z</time></trkpt><trkpt lat="40.141168426204324" lon="18.481296795378146"><ele>25.5</ele><time>2026-04-05T11:52:59.951Z</time></trkpt><trkpt lat="40.14094790630286" lon="18.481378812282045"><ele>30.0</ele><time>2026-04-05T11:53:00.951Z</time></trkpt><trkpt lat="40.14074085917459" lon="18.481483622812636"><ele>28.5</ele><time>2026-04-05T11:53:01.951Z</time></trkpt><trkpt lat="40.140524980674286" lon="18.481594149561687"><ele>27.0</ele><time>2026-04-05T11:53:02.951Z</time></trkpt><trkpt lat="40.14030953767774" lon="18.48172290858128"><ele>27.0</ele><time>2026-04-05T11:53:03.951Z</time></trkpt><trkpt lat="40.14011322591304" lon="18.481871606916602"><ele>27.0</ele><time>2026-04-05T11:53:04.951Z</time></trkpt><trkpt lat="40.13443400352272" lon="18.495837409646697"><ele>34.66666666666667</ele><time>2026-04-05T11:54:05.951Z</time></trkpt><trkpt lat="40.13428799424912" lon="18.49592744839317"><ele>42.333333333333336</ele><time>2026-04-05T11:54:06.951Z</time></trkpt><trkpt lat="40.134134599731716" lon="18.496029965945084"><ele>50.0</ele><time>2026-04-05T11:54:07.951Z</time></trkpt><trkpt lat="40.13397926312126" lon="18.496125569148596"><ele>51.0</ele><time>2026-04-05T11:54:08.951Z</time></trkpt><trkpt lat="40.13383339806217" lon="18.496202623950218"><ele>52.0</ele><time>2026-04-05T11:54:09.951Z</time></trkpt><trkpt lat="40.13368911203618" lon="18.49627787089717"><ele>53.0</ele><time>2026-04-05T11:54:10.951Z</time></trkpt><trkpt lat="40.13355989830571" lon="18.496332945057272"><ele>54.0</ele><time>2026-04-05T11:54:11.951Z</time></trkpt><trkpt lat="40.13344359353048" lon="18.496380326517905"><ele>54.0</ele><time>2026-04-05T11:54:12.951Z</time></trkpt><trkpt lat="40.13334074842827" lon="18.49642263201574"><ele>54.00000000000001</ele><time>2026-04-05T11:54:13.951Z</time></trkpt><trkpt lat="40.13325434154127" lon="18.49645388947632"><ele>54.00000000000001</ele><time>2026-04-05T11:54:14.951Z</time></trkpt><trkpt lat="40.13318477482021" lon="18.49648260728255"><ele>54.0</ele><time>2026-04-05T11:54:15.951Z</time></trkpt><trkpt lat="40.133092510830615" lon="18.496570012089506"><ele>54.0</ele><time>2026-04-05T11:54:17.951Z</time></trkpt><trkpt lat="40.13305570566546" lon="18.496716790792462"><ele>54.166666666666664</ele><time>2026-04-05T11:54:19.951Z</time></trkpt><trkpt lat="40.133059146005344" lon="18.496816617415448"><ele>54.33333333333333</ele><time>2026-04-05T11:54:20.951Z</time></trkpt><trkpt lat="40.133080418088745" lon="18.496915112870003"><ele>54.5</ele><time>2026-04-05T11:54:21.951Z</time></trkpt><trkpt lat="40.13311972355561" lon="18.496998792914823"><ele>54.666666666666664</ele><time>2026-04-05T11:54:22.951Z</time></trkpt><trkpt lat="40.13317950877615" lon="18.497080809874806"><ele>54.83333333333333</ele><time>2026-04-05T11:54:23.951Z</time></trkpt><trkpt lat="40.13325080781475" lon="18.49716201331343"><ele>55.0</ele><time>2026-04-05T11:54:24.951Z</time></trkpt><trkpt lat="40.13333066100021" lon="18.49726097020145"><ele>55.0</ele><time>2026-04-05T11:54:25.951Z</time></trkpt><trkpt lat="40.13340704368497" lon="18.497367454385216"><ele>55.0</ele><time>2026-04-05T11:54:26.951Z</time></trkpt><trkpt lat="40.13348404403822" lon="18.49749739434629"><ele>55.0</ele><time>2026-04-05T11:54:27.951Z</time></trkpt><trkpt lat="40.13357052380348" lon="18.497627790326487"><ele>55.0</ele><time>2026-04-05T11:54:28.951Z</time></trkpt><trkpt lat="40.133665963750055" lon="18.49775957177759"><ele>55.0</ele><time>2026-04-05T11:54:29.951Z</time></trkpt><trkpt lat="40.133764891097854" lon="18.497900753037822"><ele>55.0</ele><time>2026-04-05T11:54:30.951Z</time></trkpt><trkpt lat="40.13387941325878" lon="18.498039923257586"><ele>55.0</ele><time>2026-04-05T11:54:31.951Z</time></trkpt><trkpt lat="40.1339968968856" lon="18.498163442766288"><ele>53.75</ele><time>2026-04-05T11:54:32.951Z</time></trkpt><trkpt lat="40.13410943736879" lon="18.498266987920868"><ele>52.5</ele><time>2026-04-05T11:54:33.951Z</time></trkpt><trkpt lat="40.13423409281763" lon="18.498356149691432"><ele>51.25</ele><time>2026-04-05T11:54:34.951Z</time></trkpt><trkpt lat="40.13436867374124" lon="18.498435015842446"><ele>50.0</ele><time>2026-04-05T11:54:35.951Z</time></trkpt><trkpt lat="40.134508681738204" lon="18.498497267996758"><ele>50.0</ele><time>2026-04-05T11:54:36.951Z</time></trkpt><trkpt lat="40.13465602152979" lon="18.498560136251434"><ele>50.0</ele><time>2026-04-05T11:54:37.951Z</time></trkpt><trkpt lat="40.1348041344839" lon="18.49861351158044"><ele>50.0</ele><time>2026-04-05T11:54:38.951Z</time></trkpt><trkpt lat="40.13494453999677" lon="18.498663764477293"><ele>48.75</ele><time>2026-04-05T11:54:39.951Z</time></trkpt><trkpt lat="40.13508196198766" lon="18.498709577094246"><ele>47.5</ele><time>2026-04-05T11:54:40.952Z</time></trkpt><trkpt lat="40.13521516090049" lon="18.498754247770687"><ele>46.25</ele><time>2026-04-05T11:54:41.951Z</time></trkpt><trkpt lat="40.1353403421994" lon="18.49879896573326"><ele>45.0</ele><time>2026-04-05T11:54:42.951Z</time></trkpt><trkpt lat="40.13546170614325" lon="18.498843029939295"><ele>44.5</ele><time>2026-04-05T11:54:43.951Z</time></trkpt><trkpt lat="40.135580416586436" lon="18.498891455625472"><ele>44.0</ele><time>2026-04-05T11:54:44.951Z</time></trkpt><trkpt lat="40.13570245834255" lon="18.498943171134343"><ele>43.5</ele><time>2026-04-05T11:54:45.951Z</time></trkpt><trkpt lat="40.13583383208052" lon="18.49899884511959"><ele>43.0</ele><time>2026-04-05T11:54:46.952Z</time></trkpt><trkpt lat="40.13596779570834" lon="18.49905034977843"><ele>42.0</ele><time>2026-04-05T11:54:47.951Z</time></trkpt><trkpt lat="40.136100130130295" lon="18.499098741438644"><ele>41.0</ele><time>2026-04-05T11:54:48.951Z</time></trkpt><trkpt lat="40.13623518977374" lon="18.499154300981886"><ele>40.0</ele><time>2026-04-05T11:54:49.951Z</time></trkpt><trkpt lat="40.13637682251027" lon="18.499206694520943"><ele>39.0</ele><time>2026-04-05T11:54:50.951Z</time></trkpt><trkpt lat="40.13652295813639" lon="18.49926445881712"><ele>38.25</ele><time>2026-04-05T11:54:51.951Z</time></trkpt><trkpt lat="40.1366644627525" lon="18.499314627154646"><ele>37.5</ele><time>2026-04-05T11:54:52.951Z</time></trkpt><trkpt lat="40.13679730129172" lon="18.499361444254752"><ele>36.75</ele><time>2026-04-05T11:54:53.951Z</time></trkpt><trkpt lat="40.1369277495511" lon="18.49941103571385"><ele>36.0</ele><time>2026-04-05T11:54:54.951Z</time></trkpt><trkpt lat="40.13706184286907" lon="18.499465979724096"><ele>36.0</ele><time>2026-04-05T11:54:55.951Z</time></trkpt><trkpt lat="40.1372011890169" lon="18.49952220320037"><ele>36.0</ele><time>2026-04-05T11:54:56.951Z</time></trkpt><trkpt lat="40.1373434597689" lon="18.499577080297225"><ele>36.0</ele><time>2026-04-05T11:54:57.951Z</time></trkpt><trkpt lat="40.13747958122912" lon="18.499624408441417"><ele>36.0</ele><time>2026-04-05T11:54:58.951Z</time></trkpt><trkpt lat="40.13761004074783" lon="18.49967325791105"><ele>35.5</ele><time>2026-04-05T11:54:59.951Z</time></trkpt><trkpt lat="40.1377362697581" lon="18.499716200262057"><ele>35.0</ele><time>2026-04-05T11:55:00.951Z</time></trkpt><trkpt lat="40.13785991481616" lon="18.49975318551008"><ele>34.5</ele><time>2026-04-05T11:55:01.951Z</time></trkpt><trkpt lat="40.1379803839621" lon="18.49977956724836"><ele>34.0</ele><time>2026-04-05T11:55:02.951Z</time></trkpt><trkpt lat="40.138096674647194" lon="18.49980496899142"><ele>34.0</ele><time>2026-04-05T11:55:03.951Z</time></trkpt><trkpt lat="40.138208277184" lon="18.499827048769315"><ele>34.0</ele><time>2026-04-05T11:55:04.951Z</time></trkpt><trkpt lat="40.14307361500268" lon="18.49533810609939"><ele>28.8</ele><time>2026-04-05T11:56:05.951Z</time></trkpt><trkpt lat="40.143104236853404" lon="18.495235075987203"><ele>23.599999999999998</ele><time>2026-04-05T11:56:06.951Z</time></trkpt><trkpt lat="40.14314617748316" lon="18.495067935974486"><ele>18.4</ele><time>2026-04-05T11:56:08.951Z</time></trkpt><trkpt lat="40.143177342885366" lon="18.494979955630622"><ele>13.2</ele><time>2026-04-05T11:56:09.951Z</time></trkpt><trkpt lat="40.14320618963993" lon="18.494897635213"><ele>8.0</ele><time>2026-04-05T11:56:10.951Z</time></trkpt><trkpt lat="40.143244710082925" lon="18.49478688942905"><ele>7.999999999999999</ele><time>2026-04-05T11:56:12.951Z</time></trkpt><trkpt lat="40.14329093256045" lon="18.494701414709233"><ele>8.0</ele><time>2026-04-05T11:56:14.951Z</time></trkpt><trkpt lat="40.14333841668541" lon="18.49461920865462"><ele>8.0</ele><time>2026-04-05T11:56:16.951Z</time></trkpt><trkpt lat="40.143408027278966" lon="18.49455032974746"><ele>8.0</ele><time>2026-04-05T11:56:19.951Z</time></trkpt><trkpt lat="40.14348756079791" lon="18.49451287379467"><ele>7.999999999999999</ele><time>2026-04-05T11:56:22.951Z</time></trkpt><trkpt lat="40.143577690980706" lon="18.494481170967166"><ele>8.0</ele><time>2026-04-05T11:56:24.951Z</time></trkpt><trkpt lat="40.14367286787084" lon="18.49448473580462"><ele>7.999999999999999</ele><time>2026-04-05T11:56:26.951Z</time></trkpt><trkpt lat="40.14375387427022" lon="18.49450887131059"><ele>8.0</ele><time>2026-04-05T11:56:28.951Z</time></trkpt><trkpt lat="40.14383870876673" lon="18.494529962522257"><ele>8.0</ele><time>2026-04-05T11:56:30.95Z</time></trkpt><trkpt lat="40.143918390493624" lon="18.494566666822873"><ele>8.0</ele><time>2026-04-05T11:56:32.95Z</time></trkpt><trkpt lat="40.14400651727177" lon="18.494595162365727"><ele>7.999999999999999</ele><time>2026-04-05T11:56:34.95Z</time></trkpt><trkpt lat="40.144070091542005" lon="18.49463173801648"><ele>8.0</ele><time>2026-04-05T11:56:36.95Z</time></trkpt><trkpt lat="40.14413940579482" lon="18.49465918271326"><ele>7.800000000000001</ele><time>2026-04-05T11:56:38.95Z</time></trkpt><trkpt lat="40.14421341849467" lon="18.494669470176017"><ele>7.6000000000000005</ele><time>2026-04-05T11:56:40.95Z</time></trkpt><trkpt lat="40.1443119587397" lon="18.494706637536506"><ele>7.3999999999999995</ele><time>2026-04-05T11:56:42.95Z</time></trkpt><trkpt lat="40.144417729586785" lon="18.494743037961587"><ele>7.199999999999999</ele><time>2026-04-05T11:56:44.951Z</time></trkpt><trkpt lat="40.14450679797027" lon="18.494780722138685"><ele>7.0</ele><time>2026-04-05T11:56:46.951Z</time></trkpt><trkpt lat="40.1445933325098" lon="18.49482170239664"><ele>7.0</ele><time>2026-04-05T11:56:48.95Z</time></trkpt><trkpt lat="40.14467178857531" lon="18.4948732741531"><ele>6.999999999999999</ele><time>2026-04-05T11:56:50.95Z</time></trkpt><trkpt lat="40.14473971503865" lon="18.49493950714623"><ele>6.999999999999999</ele><time>2026-04-05T11:56:52.95Z</time></trkpt><trkpt lat="40.1448059160609" lon="18.49501880642053"><ele>7.0</ele><time>2026-04-05T11:56:54.95Z</time></trkpt><trkpt lat="40.14485912909075" lon="18.495137079369243"><ele>7.0</ele><time>2026-04-05T11:56:56.95Z</time></trkpt><trkpt lat="40.14490039438579" lon="18.495250103865725"><ele>7.0</ele><time>2026-04-05T11:56:58.95Z</time></trkpt><trkpt lat="40.1449261735058" lon="18.49532930387306"><ele>7.0</ele><time>2026-04-05T11:57:00.95Z</time></trkpt><trkpt lat="40.14497042151112" lon="18.49543841150298"><ele>7.0</ele><time>2026-04-05T11:57:03.95Z</time></trkpt><trkpt lat="40.14364290695277" lon="18.494352532354437"><ele>7.000000000000001</ele><time>2026-04-05T11:59:05.949Z</time></trkpt><trkpt lat="40.1436314611241" lon="18.494257281859095"><ele>7.0</ele><time>2026-04-05T11:59:23.948Z</time></trkpt><trkpt lat="40.14369077509239" lon="18.494161076187858"><ele>7.0</ele><time>2026-04-05T11:59:25.948Z</time></trkpt><trkpt lat="40.14380193372908" lon="18.494107079178654"><ele>7.0</ele><time>2026-04-05T11:59:27.948Z</time></trkpt><trkpt lat="40.14386370579471" lon="18.494081495794877"><ele>7.000000000000001</ele><time>2026-04-05T11:59:28.948Z</time></trkpt><trkpt lat="40.143935180929645" lon="18.49404735907395"><ele>7.0</ele><time>2026-04-05T11:59:29.948Z</time></trkpt><trkpt lat="40.14400698992769" lon="18.49400934209785"><ele>6.833333333333334</ele><time>2026-04-05T11:59:30.948Z</time></trkpt><trkpt lat="40.144078438814056" lon="18.493973048084033"><ele>6.666666666666667</ele><time>2026-04-05T11:59:31.948Z</time></trkpt><trkpt lat="40.14414111441656" lon="18.493937514459656"><ele>6.5</ele><time>2026-04-05T11:59:32.948Z</time></trkpt><trkpt lat="40.144200792933894" lon="18.4939034362279"><ele>6.333333333333334</ele><time>2026-04-05T11:59:33.948Z</time></trkpt><trkpt lat="40.14428901325103" lon="18.493819069573544"><ele>6.166666666666667</ele><time>2026-04-05T11:59:35.948Z</time></trkpt><trkpt lat="40.144315307005726" lon="18.493692244590004"><ele>6.0</ele><time>2026-04-05T11:59:37.948Z</time></trkpt><trkpt lat="40.144289226838254" lon="18.49353292979447"><ele>6.833333333333333</ele><time>2026-04-05T11:59:39.948Z</time></trkpt><trkpt lat="40.144253470842216" lon="18.49344976465257"><ele>7.666666666666666</ele><time>2026-04-05T11:59:40.948Z</time></trkpt><trkpt lat="40.14421198363023" lon="18.493355929274998"><ele>8.5</ele><time>2026-04-05T11:59:41.948Z</time></trkpt><trkpt lat="40.14416671755419" lon="18.493259401823398"><ele>9.333333333333332</ele><time>2026-04-05T11:59:42.948Z</time></trkpt><trkpt lat="40.14412517911959" lon="18.493178111283587"><ele>10.166666666666666</ele><time>2026-04-05T11:59:43.948Z</time></trkpt><trkpt lat="40.14408002666343" lon="18.493098668314577"><ele>11.0</ele><time>2026-04-05T11:59:44.948Z</time></trkpt><trkpt lat="40.144030057869124" lon="18.493021639368187"><ele>11.600000000000001</ele><time>2026-04-05T11:59:45.948Z</time></trkpt><trkpt lat="40.14398767174014" lon="18.492949851352716"><ele>12.2</ele><time>2026-04-05T11:59:46.948Z</time></trkpt><trkpt lat="40.14393348598153" lon="18.492807145102567"><ele>12.799999999999999</ele><time>2026-04-05T11:59:48.948Z</time></trkpt><trkpt lat="40.14390393665013" lon="18.49264626404531"><ele>13.399999999999999</ele><time>2026-04-05T11:59:50.948Z</time></trkpt><trkpt lat="40.14389259540595" lon="18.492556568005728"><ele>14.0</ele><time>2026-04-05T11:59:51.948Z</time></trkpt><trkpt lat="40.14388401706397" lon="18.492458283667304"><ele>14.666666666666668</ele><time>2026-04-05T11:59:52.948Z</time></trkpt><trkpt lat="40.14388349022283" lon="18.492366499778942"><ele>15.333333333333334</ele><time>2026-04-05T11:59:53.948Z</time></trkpt><trkpt lat="40.14389510780632" lon="18.492278375738376"><ele>16.0</ele><time>2026-04-05T11:59:54.948Z</time></trkpt><trkpt lat="40.14392193832224" lon="18.49218901178535"><ele>16.666666666666668</ele><time>2026-04-05T11:59:55.948Z</time></trkpt><trkpt lat="40.14395285117673" lon="18.49209963345613"><ele>17.333333333333332</ele><time>2026-04-05T11:59:56.948Z</time></trkpt><trkpt lat="40.14398215502923" lon="18.49201752122475"><ele>18.0</ele><time>2026-04-05T11:59:57.948Z</time></trkpt><trkpt lat="40.14403353506943" lon="18.491880028441255"><ele>18.333333333333332</ele><time>2026-04-05T11:59:59.948Z</time></trkpt><trkpt lat="40.1440816651581" lon="18.491770182471324"><ele>18.666666666666664</ele><time>2026-04-05T12:00:01.948Z</time></trkpt><trkpt lat="40.144112348388255" lon="18.491666909777276"><ele>19.0</ele><time>2026-04-05T12:00:03.948Z</time></trkpt><trkpt lat="40.14541184144584" lon="18.48830075403832"><ele>17.833333333333332</ele><time>2026-04-05T12:01:05.947Z</time></trkpt><trkpt lat="40.145467273718204" lon="18.488257682639528"><ele>16.666666666666664</ele><time>2026-04-05T12:01:07.948Z</time></trkpt><trkpt lat="40.145532594572984" lon="18.488206306276247"><ele>15.5</ele><time>2026-04-05T12:01:09.948Z</time></trkpt><trkpt lat="40.14558867390576" lon="18.488148462555806"><ele>14.333333333333332</ele><time>2026-04-05T12:01:11.948Z</time></trkpt><trkpt lat="40.145639594749994" lon="18.488075863245587"><ele>13.166666666666666</ele><time>2026-04-05T12:01:13.948Z</time></trkpt><trkpt lat="40.14571743981372" lon="18.48800644996265"><ele>12.0</ele><time>2026-04-05T12:01:15.947Z</time></trkpt><trkpt lat="40.145773201388025" lon="18.48793720278357"><ele>11.2</ele><time>2026-04-05T12:01:17.947Z</time></trkpt><trkpt lat="40.14584111973295" lon="18.487889008834298"><ele>10.399999999999999</ele><time>2026-04-05T12:01:19.947Z</time></trkpt><trkpt lat="40.14593173133342" lon="18.4878289661943"><ele>9.600000000000001</ele><time>2026-04-05T12:01:21.947Z</time></trkpt><trkpt lat="40.14601978416638" lon="18.48777290187357"><ele>8.8</ele><time>2026-04-05T12:01:23.947Z</time></trkpt><trkpt lat="40.14610892538419" lon="18.48771275409739"><ele>8.0</ele><time>2026-04-05T12:01:25.947Z</time></trkpt><trkpt lat="40.146190825135555" lon="18.48765869035827"><ele>8.0</ele><time>2026-04-05T12:01:27.947Z</time></trkpt><trkpt lat="40.14625921481313" lon="18.487627154567885"><ele>8.0</ele><time>2026-04-05T12:01:29.947Z</time></trkpt><trkpt lat="40.14634812771644" lon="18.487573006362528"><ele>8.0</ele><time>2026-04-05T12:01:32.947Z</time></trkpt><trkpt lat="40.146419119481585" lon="18.487512476067014"><ele>8.0</ele><time>2026-04-05T12:01:34.947Z</time></trkpt><trkpt lat="40.146493581112345" lon="18.487443825685933"><ele>8.0</ele><time>2026-04-05T12:01:36.947Z</time></trkpt><trkpt lat="40.14658788966791" lon="18.487358679864563"><ele>7.428571428571428</ele><time>2026-04-05T12:01:38.947Z</time></trkpt><trkpt lat="40.14663849728045" lon="18.48730405692314"><ele>6.857142857142856</ele><time>2026-04-05T12:01:39.947Z</time></trkpt><trkpt lat="40.1466901345251" lon="18.487250797224675"><ele>6.285714285714286</ele><time>2026-04-05T12:01:40.947Z</time></trkpt><trkpt lat="40.14674977725448" lon="18.48719361520035"><ele>5.7142857142857135</ele><time>2026-04-05T12:01:41.947Z</time></trkpt><trkpt lat="40.146807176875036" lon="18.487138880498886"><ele>5.142857142857142</ele><time>2026-04-05T12:01:42.947Z</time></trkpt><trkpt lat="40.14686149928598" lon="18.487087929723824"><ele>4.571428571428571</ele><time>2026-04-05T12:01:43.947Z</time></trkpt><trkpt lat="40.14691410231936" lon="18.487038497428667"><ele>4.0</ele><time>2026-04-05T12:01:44.947Z</time></trkpt><trkpt lat="40.14700823661595" lon="18.486956274946312"><ele>4.2</ele><time>2026-04-05T12:01:46.947Z</time></trkpt><trkpt lat="40.14711000615085" lon="18.486873121619706"><ele>4.4</ele><time>2026-04-05T12:01:48.947Z</time></trkpt><trkpt lat="40.14719227306192" lon="18.486782112935277"><ele>4.6</ele><time>2026-04-05T12:01:50.947Z</time></trkpt><trkpt lat="40.14726560539029" lon="18.486707913300698"><ele>4.8</ele><time>2026-04-05T12:01:52.947Z</time></trkpt><trkpt lat="40.147360998760846" lon="18.486631319955684"><ele>5.0</ele><time>2026-04-05T12:01:54.947Z</time></trkpt><trkpt lat="40.147414323679904" lon="18.486584449578608"><ele>5.0</ele><time>2026-04-05T12:01:55.947Z</time></trkpt><trkpt lat="40.147460954357825" lon="18.486528034604156"><ele>5.0</ele><time>2026-04-05T12:01:56.947Z</time></trkpt><trkpt lat="40.147546716674114" lon="18.486432991239106"><ele>5.0</ele><time>2026-04-05T12:01:58.947Z</time></trkpt><trkpt lat="40.147634890303664" lon="18.486335509134143"><ele>5.0</ele><time>2026-04-05T12:02:00.947Z</time></trkpt><trkpt lat="40.14768520145399" lon="18.48628265113603"><ele>5.0</ele><time>2026-04-05T12:02:01.947Z</time></trkpt><trkpt lat="40.147783731365934" lon="18.486172467301653"><ele>4.0</ele><time>2026-04-05T12:02:03.947Z</time></trkpt><trkpt lat="40.148182287273436" lon="18.485806146688706"><ele>2.0</ele><time>2026-04-05T12:03:05.946Z</time></trkpt><trkpt lat="40.14731555178926" lon="18.48656403799756"><ele>2.0</ele><time>2026-04-05T12:05:05.945Z</time></trkpt><trkpt lat="40.14724463640103" lon="18.486673743494617"><ele>2.0</ele><time>2026-04-05T12:05:07.946Z</time></trkpt><trkpt lat="40.147175080107644" lon="18.48675789533009"><ele>2.0</ele><time>2026-04-05T12:05:09.945Z</time></trkpt><trkpt lat="40.14708149419511" lon="18.486836217187324"><ele>2.0</ele><time>2026-04-05T12:05:11.946Z</time></trkpt><trkpt lat="40.14701747824789" lon="18.4868742225082"><ele>2.0</ele><time>2026-04-05T12:05:12.946Z</time></trkpt><trkpt lat="40.14696165489942" lon="18.486922642507597"><ele>2.0</ele><time>2026-04-05T12:05:13.946Z</time></trkpt><trkpt lat="40.146863002779405" lon="18.487017231002998"><ele>2.0</ele><time>2026-04-05T12:05:15.945Z</time></trkpt><trkpt lat="40.14680443164157" lon="18.487062963159815"><ele>2.0</ele><time>2026-04-05T12:05:16.946Z</time></trkpt><trkpt lat="40.14669866387891" lon="18.48716489127414"><ele>2.0</ele><time>2026-04-05T12:05:18.945Z</time></trkpt><trkpt lat="40.146649853825046" lon="18.48723463683667"><ele>2.0</ele><time>2026-04-05T12:05:19.946Z</time></trkpt><trkpt lat="40.14659683686945" lon="18.487291231406452"><ele>2.333333333333333</ele><time>2026-04-05T12:05:20.945Z</time></trkpt><trkpt lat="40.14654476807216" lon="18.48734739243002"><ele>2.6666666666666665</ele><time>2026-04-05T12:05:21.945Z</time></trkpt><trkpt lat="40.14649265605787" lon="18.487396611861428"><ele>3.0</ele><time>2026-04-05T12:05:22.945Z</time></trkpt><trkpt lat="40.14643864303644" lon="18.48744822804409"><ele>3.333333333333333</ele><time>2026-04-05T12:05:23.945Z</time></trkpt><trkpt lat="40.14634370971209" lon="18.48753840288306"><ele>3.6666666666666665</ele><time>2026-04-05T12:05:25.945Z</time></trkpt><trkpt lat="40.14625575451137" lon="18.487614816692453"><ele>4.0</ele><time>2026-04-05T12:05:27.945Z</time></trkpt><trkpt lat="40.14616678685301" lon="18.48768323689019"><ele>4.6</ele><time>2026-04-05T12:05:29.945Z</time></trkpt><trkpt lat="40.1460767221829" lon="18.48774552110258"><ele>5.2</ele><time>2026-04-05T12:05:31.945Z</time></trkpt><trkpt lat="40.146001831123144" lon="18.48779938428648"><ele>5.799999999999999</ele><time>2026-04-05T12:05:33.945Z</time></trkpt><trkpt lat="40.1459296137199" lon="18.487855244960688"><ele>6.3999999999999995</ele><time>2026-04-05T12:05:35.945Z</time></trkpt><trkpt lat="40.1458527624594" lon="18.48792193385322"><ele>7.0</ele><time>2026-04-05T12:05:37.945Z</time></trkpt><trkpt lat="40.14577570234143" lon="18.487986672154893"><ele>7.833333333333334</ele><time>2026-04-05T12:05:39.945Z</time></trkpt><trkpt lat="40.145704562690966" lon="18.488042486016134"><ele>8.666666666666668</ele><time>2026-04-05T12:05:41.945Z</time></trkpt><trkpt lat="40.145611924477684" lon="18.488071465944632"><ele>9.5</ele><time>2026-04-05T12:05:44.945Z</time></trkpt><trkpt lat="40.14554289480381" lon="18.488047879054214"><ele>10.333333333333334</ele><time>2026-04-05T12:05:46.945Z</time></trkpt><trkpt lat="40.14550500674862" lon="18.488125567506543"><ele>11.166666666666666</ele><time>2026-04-05T12:05:49.945Z</time></trkpt><trkpt lat="40.14556981096212" lon="18.488115465696083"><ele>12.0</ele><time>2026-04-05T12:05:52.944Z</time></trkpt><trkpt lat="40.145656258111224" lon="18.488037734994364"><ele>11.2</ele><time>2026-04-05T12:05:54.944Z</time></trkpt><trkpt lat="40.14574255524974" lon="18.487919321740538"><ele>10.399999999999999</ele><time>2026-04-05T12:05:56.944Z</time></trkpt><trkpt lat="40.1458402300707" lon="18.48782568132342"><ele>9.600000000000001</ele><time>2026-04-05T12:05:58.944Z</time></trkpt><trkpt lat="40.145934451404194" lon="18.487782878227584"><ele>8.8</ele><time>2026-04-05T12:06:00.944Z</time></trkpt><trkpt lat="40.145997937106785" lon="18.48773808041182"><ele>8.0</ele><time>2026-04-05T12:06:01.944Z</time></trkpt><trkpt lat="40.1460586524783" lon="18.487697597903534"><ele>8.0</ele><time>2026-04-05T12:06:02.944Z</time></trkpt><trkpt lat="40.14616738943827" lon="18.48763292139105"><ele>8.0</ele><time>2026-04-05T12:06:04.944Z</time></trkpt><trkpt lat="40.14633615581346" lon="18.487052272534907"><ele>10.0</ele><time>2026-04-05T12:07:05.944Z</time></trkpt><trkpt lat="40.14627747191084" lon="18.487097050667437"><ele>8.0</ele><time>2026-04-05T12:07:29.944Z</time></trkpt></trkseg><trkseg><trkpt lat="40.14622170630134" lon="18.487074555578282"><ele>10.0</ele><time>2026-04-05T14:21:48.929Z</time></trkpt><trkpt lat="40.146289147593585" lon="18.4870719238022"><ele>10.0</ele><time>2026-04-05T14:22:00.929Z</time></trkpt><trkpt lat="40.14634944377062" lon="18.487111374681827"><ele>10.0</ele><time>2026-04-05T14:22:08.928Z</time></trkpt><trkpt lat="40.14634684991863" lon="18.48719964649474"><ele>10.0</ele><time>2026-04-05T14:22:10.928Z</time></trkpt><trkpt lat="40.14634644208989" lon="18.487331497248643"><ele>10.0</ele><time>2026-04-05T14:22:12.928Z</time></trkpt><trkpt lat="40.1463382143062" lon="18.487425142102133"><ele>10.0</ele><time>2026-04-05T14:22:14.928Z</time></trkpt><trkpt lat="40.14630136410204" lon="18.487505796060614"><ele>10.0</ele><time>2026-04-05T14:22:16.928Z</time></trkpt><trkpt lat="40.146358548274485" lon="18.4875670561568"><ele>9.666666666666668</ele><time>2026-04-05T14:22:20.928Z</time></trkpt><trkpt lat="40.14646041954898" lon="18.487496812060616"><ele>9.333333333333334</ele><time>2026-04-05T14:22:22.928Z</time></trkpt><trkpt lat="40.1465262903316" lon="18.487427199487886"><ele>9.0</ele><time>2026-04-05T14:22:23.928Z</time></trkpt><trkpt lat="40.14660020548743" lon="18.487367182255575"><ele>8.666666666666666</ele><time>2026-04-05T14:22:24.928Z</time></trkpt><trkpt lat="40.1466631783991" lon="18.48731257836038"><ele>8.333333333333332</ele><time>2026-04-05T14:22:25.928Z</time></trkpt><trkpt lat="40.146726294088836" lon="18.48724414202803"><ele>8.0</ele><time>2026-04-05T14:22:26.928Z</time></trkpt><trkpt lat="40.146810213320826" lon="18.48717882352198"><ele>7.428571428571428</ele><time>2026-04-05T14:22:27.928Z</time></trkpt><trkpt lat="40.146880712636076" lon="18.487115709731516"><ele>6.857142857142856</ele><time>2026-04-05T14:22:28.929Z</time></trkpt><trkpt lat="40.14694725451724" lon="18.48706019924408"><ele>6.285714285714286</ele><time>2026-04-05T14:22:29.929Z</time></trkpt><trkpt lat="40.14700909281492" lon="18.487019477114817"><ele>5.7142857142857135</ele><time>2026-04-05T14:22:30.929Z</time></trkpt><trkpt lat="40.14706228159775" lon="18.486967300109754"><ele>5.142857142857142</ele><time>2026-04-05T14:22:31.929Z</time></trkpt><trkpt lat="40.14711823902348" lon="18.486925722098388"><ele>4.571428571428571</ele><time>2026-04-05T14:22:32.928Z</time></trkpt><trkpt lat="40.147177297893805" lon="18.486877181781598"><ele>4.0</ele><time>2026-04-05T14:22:33.928Z</time></trkpt><trkpt lat="40.147239110755166" lon="18.48682202301334"><ele>4.166666666666666</ele><time>2026-04-05T14:22:34.929Z</time></trkpt><trkpt lat="40.14728934369499" lon="18.4867580002315"><ele>4.333333333333333</ele><time>2026-04-05T14:22:35.929Z</time></trkpt><trkpt lat="40.14734732316147" lon="18.486706742233103"><ele>4.5</ele><time>2026-04-05T14:22:36.929Z</time></trkpt><trkpt lat="40.14740790825214" lon="18.486655529664134"><ele>4.666666666666667</ele><time>2026-04-05T14:22:37.929Z</time></trkpt><trkpt lat="40.14747773732114" lon="18.486598459121712"><ele>4.833333333333334</ele><time>2026-04-05T14:22:38.929Z</time></trkpt><trkpt lat="40.147535474625734" lon="18.486532465518184"><ele>5.0</ele><time>2026-04-05T14:22:39.929Z</time></trkpt><trkpt lat="40.14760767049639" lon="18.486485724626107"><ele>5.0</ele><time>2026-04-05T14:22:40.929Z</time></trkpt><trkpt lat="40.14766575212086" lon="18.4864308451901"><ele>5.0</ele><time>2026-04-05T14:22:41.929Z</time></trkpt><trkpt lat="40.14776014798957" lon="18.486324979532057"><ele>5.0</ele><time>2026-04-05T14:22:43.929Z</time></trkpt><trkpt lat="40.147815791930626" lon="18.486271840144095"><ele>5.0</ele><time>2026-04-05T14:22:44.929Z</time></trkpt><trkpt lat="40.147898406269135" lon="18.48615913912941"><ele>5.0</ele><time>2026-04-05T14:22:46.929Z</time></trkpt><trkpt lat="40.14797447702048" lon="18.486067622837727"><ele>4.8</ele><time>2026-04-05T14:22:48.929Z</time></trkpt><trkpt lat="40.14803139994329" lon="18.48598128593917"><ele>4.6</ele><time>2026-04-05T14:22:50.929Z</time></trkpt><trkpt lat="40.148078772694916" lon="18.48590703914695"><ele>4.4</ele><time>2026-04-05T14:22:52.929Z</time></trkpt><trkpt lat="40.14809765062153" lon="18.48580197596491"><ele>4.2</ele><time>2026-04-05T14:22:54.928Z</time></trkpt><trkpt lat="40.14808605649241" lon="18.48566882491675"><ele>4.0</ele><time>2026-04-05T14:22:56.928Z</time></trkpt><trkpt lat="40.14809498721574" lon="18.485509376732068"><ele>4.4</ele><time>2026-04-05T14:22:58.928Z</time></trkpt><trkpt lat="40.14811943390281" lon="18.485395431121606"><ele>4.800000000000001</ele><time>2026-04-05T14:22:59.928Z</time></trkpt><trkpt lat="40.1481556313332" lon="18.48527811951786"><ele>5.199999999999999</ele><time>2026-04-05T14:23:00.928Z</time></trkpt><trkpt lat="40.14819855921225" lon="18.485153641665637"><ele>5.6</ele><time>2026-04-05T14:23:01.928Z</time></trkpt><trkpt lat="40.148237686862934" lon="18.48503786547581"><ele>6.0</ele><time>2026-04-05T14:23:02.928Z</time></trkpt><trkpt lat="40.148240699580214" lon="18.484953826968177"><ele>6.0</ele><time>2026-04-05T14:23:03.928Z</time></trkpt><trkpt lat="40.148181970252914" lon="18.484836042880612"><ele>6.0</ele><time>2026-04-05T14:23:05.928Z</time></trkpt><trkpt lat="40.14811764689553" lon="18.484791293563287"><ele>6.0</ele><time>2026-04-05T14:23:06.928Z</time></trkpt><trkpt lat="40.148035551553974" lon="18.484757990215744"><ele>6.0</ele><time>2026-04-05T14:23:07.928Z</time></trkpt><trkpt lat="40.147945247229785" lon="18.48475359314668"><ele>6.0</ele><time>2026-04-05T14:23:08.928Z</time></trkpt><trkpt lat="40.14785548491068" lon="18.484766782360406"><ele>6.0</ele><time>2026-04-05T14:23:09.928Z</time></trkpt><trkpt lat="40.1477829024502" lon="18.484751354910426"><ele>6.0</ele><time>2026-04-05T14:23:10.928Z</time></trkpt><trkpt lat="40.14769360168358" lon="18.484625085347176"><ele>6.0</ele><time>2026-04-05T14:23:12.928Z</time></trkpt><trkpt lat="40.14766443783721" lon="18.484522196168406"><ele>6.0</ele><time>2026-04-05T14:23:13.928Z</time></trkpt><trkpt lat="40.147653083653424" lon="18.484404013457834"><ele>6.0</ele><time>2026-04-05T14:23:14.928Z</time></trkpt><trkpt lat="40.147660747162966" lon="18.484278374265"><ele>6.0</ele><time>2026-04-05T14:23:15.928Z</time></trkpt><trkpt lat="40.14769342517948" lon="18.484161856224357"><ele>6.5</ele><time>2026-04-05T14:23:16.928Z</time></trkpt><trkpt lat="40.14774503635106" lon="18.484069558060725"><ele>7.0</ele><time>2026-04-05T14:23:17.928Z</time></trkpt><trkpt lat="40.147806929766716" lon="18.484002096810894"><ele>7.5</ele><time>2026-04-05T14:23:18.928Z</time></trkpt><trkpt lat="40.14787986266056" lon="18.48394169661996"><ele>8.0</ele><time>2026-04-05T14:23:19.928Z</time></trkpt><trkpt lat="40.14796095544146" lon="18.483887849540107"><ele>8.5</ele><time>2026-04-05T14:23:20.928Z</time></trkpt><trkpt lat="40.148048768254974" lon="18.483832891109405"><ele>9.0</ele><time>2026-04-05T14:23:21.928Z</time></trkpt><trkpt lat="40.14814207808286" lon="18.483785638706795"><ele>10.5</ele><time>2026-04-05T14:23:22.928Z</time></trkpt><trkpt lat="40.14821591094108" lon="18.48373747324561"><ele>12.0</ele><time>2026-04-05T14:23:23.928Z</time></trkpt><trkpt lat="40.14828360113284" lon="18.483697081146676"><ele>13.5</ele><time>2026-04-05T14:23:24.928Z</time></trkpt><trkpt lat="40.14834678839448" lon="18.483662124470314"><ele>15.0</ele><time>2026-04-05T14:23:25.928Z</time></trkpt><trkpt lat="40.148413629066745" lon="18.48361581915355"><ele>16.5</ele><time>2026-04-05T14:23:26.928Z</time></trkpt><trkpt lat="40.14847759218136" lon="18.483579231549143"><ele>18.0</ele><time>2026-04-05T14:23:27.928Z</time></trkpt><trkpt lat="40.148575071959115" lon="18.483510355750226"><ele>18.0</ele><time>2026-04-05T14:23:29.928Z</time></trkpt><trkpt lat="40.14863628471375" lon="18.48348774284402"><ele>18.0</ele><time>2026-04-05T14:23:31.928Z</time></trkpt><trkpt lat="40.148714843880214" lon="18.483468201789005"><ele>18.0</ele><time>2026-04-05T14:23:36.928Z</time></trkpt><trkpt lat="40.14881294903424" lon="18.483405181733698"><ele>18.0</ele><time>2026-04-05T14:23:38.928Z</time></trkpt><trkpt lat="40.14880003894579" lon="18.483284714373905"><ele>18.0</ele><time>2026-04-05T14:23:40.928Z</time></trkpt><trkpt lat="40.148710061121996" lon="18.483173560309517"><ele>18.0</ele><time>2026-04-05T14:23:42.928Z</time></trkpt><trkpt lat="40.14864980736282" lon="18.483077704534427"><ele>18.0</ele><time>2026-04-05T14:23:43.928Z</time></trkpt><trkpt lat="40.148591082779156" lon="18.482952216818063"><ele>18.0</ele><time>2026-04-05T14:23:44.928Z</time></trkpt><trkpt lat="40.14853288136173" lon="18.482845383825637"><ele>18.0</ele><time>2026-04-05T14:23:45.928Z</time></trkpt><trkpt lat="40.1484672424733" lon="18.482751696856518"><ele>18.0</ele><time>2026-04-05T14:23:46.928Z</time></trkpt><trkpt lat="40.148377564097295" lon="18.48268933908192"><ele>18.25</ele><time>2026-04-05T14:23:47.928Z</time></trkpt><trkpt lat="40.148263034030805" lon="18.48267106908742"><ele>18.5</ele><time>2026-04-05T14:23:48.928Z</time></trkpt><trkpt lat="40.148118596790354" lon="18.482697671171376"><ele>18.75</ele><time>2026-04-05T14:23:49.928Z</time></trkpt><trkpt lat="40.14797252980286" lon="18.482729833023924"><ele>19.0</ele><time>2026-04-05T14:23:50.928Z</time></trkpt><trkpt lat="40.14784775402728" lon="18.4827479497788"><ele>19.0</ele><time>2026-04-05T14:23:51.928Z</time></trkpt><trkpt lat="40.1477461978823" lon="18.48272473454039"><ele>19.0</ele><time>2026-04-05T14:23:52.928Z</time></trkpt><trkpt lat="40.14767036989007" lon="18.482673329929366"><ele>19.0</ele><time>2026-04-05T14:23:53.928Z</time></trkpt><trkpt lat="40.14760806610484" lon="18.482595846179137"><ele>19.0</ele><time>2026-04-05T14:23:54.928Z</time></trkpt><trkpt lat="40.14757254629456" lon="18.482480469620324"><ele>19.0</ele><time>2026-04-05T14:23:55.928Z</time></trkpt><trkpt lat="40.147550813294224" lon="18.482354385521543"><ele>19.0</ele><time>2026-04-05T14:23:56.928Z</time></trkpt><trkpt lat="40.14755415416696" lon="18.48221445770319"><ele>19.0</ele><time>2026-04-05T14:23:57.928Z</time></trkpt><trkpt lat="40.14759477240442" lon="18.48204659184726"><ele>19.0</ele><time>2026-04-05T14:23:58.928Z</time></trkpt><trkpt lat="40.14766988373368" lon="18.481857969788066"><ele>19.0</ele><time>2026-04-05T14:23:59.928Z</time></trkpt><trkpt lat="40.14774638697096" lon="18.481662959721746"><ele>20.333333333333332</ele><time>2026-04-05T14:24:00.928Z</time></trkpt><trkpt lat="40.14781246653592" lon="18.48146852959741"><ele>21.666666666666668</ele><time>2026-04-05T14:24:01.928Z</time></trkpt><trkpt lat="40.147875118542416" lon="18.481270600115963"><ele>23.0</ele><time>2026-04-05T14:24:02.928Z</time></trkpt><trkpt lat="40.14794345969402" lon="18.481068312165398"><ele>23.333333333333336</ele><time>2026-04-05T14:24:03.928Z</time></trkpt><trkpt lat="40.14800911865163" lon="18.480861331256246"><ele>23.666666666666668</ele><time>2026-04-05T14:24:04.928Z</time></trkpt><trkpt lat="40.14807945300159" lon="18.480651804849284"><ele>24.0</ele><time>2026-04-05T14:24:05.928Z</time></trkpt><trkpt lat="40.14815654339033" lon="18.48044029146928"><ele>24.666666666666664</ele><time>2026-04-05T14:24:06.928Z</time></trkpt><trkpt lat="40.14822579484916" lon="18.48022066066516"><ele>25.333333333333332</ele><time>2026-04-05T14:24:07.928Z</time></trkpt><trkpt lat="40.14828766996917" lon="18.480024297753495"><ele>26.0</ele><time>2026-04-05T14:24:08.928Z</time></trkpt><trkpt lat="40.148336351844875" lon="18.479854039001573"><ele>26.0</ele><time>2026-04-05T14:24:09.928Z</time></trkpt><trkpt lat="40.148395666641655" lon="18.47970065312141"><ele>26.0</ele><time>2026-04-05T14:24:10.928Z</time></trkpt><trkpt lat="40.1484386722453" lon="18.47953629655383"><ele>26.0</ele><time>2026-04-05T14:24:11.928Z</time></trkpt><trkpt lat="40.14848901617749" lon="18.479370845674875"><ele>26.0</ele><time>2026-04-05T14:24:12.928Z</time></trkpt><trkpt lat="40.14854715124383" lon="18.479200500841582"><ele>26.0</ele><time>2026-04-05T14:24:13.928Z</time></trkpt><trkpt lat="40.148600213138344" lon="18.479031352643"><ele>26.0</ele><time>2026-04-05T14:24:14.928Z</time></trkpt><trkpt lat="40.148658959941365" lon="18.478861248021513"><ele>26.0</ele><time>2026-04-05T14:24:15.928Z</time></trkpt><trkpt lat="40.148707769526936" lon="18.478688101520373"><ele>26.0</ele><time>2026-04-05T14:24:16.928Z</time></trkpt><trkpt lat="40.148738159732545" lon="18.478519228437907"><ele>26.25</ele><time>2026-04-05T14:24:17.928Z</time></trkpt><trkpt lat="40.14878074410073" lon="18.478377608649645"><ele>26.5</ele><time>2026-04-05T14:24:18.928Z</time></trkpt><trkpt lat="40.14882517914045" lon="18.478213485923884"><ele>26.75</ele><time>2026-04-05T14:24:19.928Z</time></trkpt><trkpt lat="40.14886161212433" lon="18.47804038108361"><ele>27.0</ele><time>2026-04-05T14:24:20.928Z</time></trkpt><trkpt lat="40.14888350187767" lon="18.477853175595516"><ele>28.0</ele><time>2026-04-05T14:24:21.928Z</time></trkpt><trkpt lat="40.14888999301709" lon="18.477649892377357"><ele>29.0</ele><time>2026-04-05T14:24:22.928Z</time></trkpt><trkpt lat="40.14888161554311" lon="18.47745006612183"><ele>30.0</ele><time>2026-04-05T14:24:23.928Z</time></trkpt><trkpt lat="40.14885859822983" lon="18.47726201926609"><ele>30.25</ele><time>2026-04-05T14:24:24.928Z</time></trkpt><trkpt lat="40.14882923348341" lon="18.477073346974635"><ele>30.5</ele><time>2026-04-05T14:24:25.928Z</time></trkpt><trkpt lat="40.148792262791524" lon="18.47690101357845"><ele>30.75</ele><time>2026-04-05T14:24:26.928Z</time></trkpt><trkpt lat="40.14875588760397" lon="18.47674632865396"><ele>31.0</ele><time>2026-04-05T14:24:27.928Z</time></trkpt><trkpt lat="40.14873473817492" lon="18.4766018541442"><ele>31.0</ele><time>2026-04-05T14:24:28.928Z</time></trkpt><trkpt lat="40.148710161050744" lon="18.47645351786846"><ele>31.0</ele><time>2026-04-05T14:24:29.928Z</time></trkpt><trkpt lat="40.14869025980869" lon="18.476320480589443"><ele>31.0</ele><time>2026-04-05T14:24:30.928Z</time></trkpt><trkpt lat="40.14867260940922" lon="18.476196480491332"><ele>31.0</ele><time>2026-04-05T14:24:31.928Z</time></trkpt><trkpt lat="40.148656719352765" lon="18.476092107548645"><ele>31.0</ele><time>2026-04-05T14:24:32.928Z</time></trkpt><trkpt lat="40.14864184537441" lon="18.475998727876533"><ele>30.6</ele><time>2026-04-05T14:24:33.928Z</time></trkpt><trkpt lat="40.14869475408255" lon="18.47587268817751"><ele>30.200000000000003</ele><time>2026-04-05T14:24:35.928Z</time></trkpt><trkpt lat="40.14877682911266" lon="18.475822432388146"><ele>29.799999999999997</ele><time>2026-04-05T14:24:36.928Z</time></trkpt><trkpt lat="40.14885441288099" lon="18.475716504562936"><ele>29.4</ele><time>2026-04-05T14:24:37.928Z</time></trkpt><trkpt lat="40.14889977004764" lon="18.475574993923075"><ele>29.0</ele><time>2026-04-05T14:24:38.928Z</time></trkpt><trkpt lat="40.14895419324967" lon="18.475471441589026"><ele>29.2</ele><time>2026-04-05T14:24:39.928Z</time></trkpt><trkpt lat="40.14897775269504" lon="18.475342266850863"><ele>29.4</ele><time>2026-04-05T14:24:40.929Z</time></trkpt><trkpt lat="40.14897863972746" lon="18.4752085978516"><ele>29.6</ele><time>2026-04-05T14:24:41.929Z</time></trkpt><trkpt lat="40.14897452646029" lon="18.475096519852848"><ele>29.8</ele><time>2026-04-05T14:24:42.929Z</time></trkpt><trkpt lat="40.149001695770025" lon="18.47495284044821"><ele>30.0</ele><time>2026-04-05T14:24:43.928Z</time></trkpt><trkpt lat="40.14907095435558" lon="18.47476823648612"><ele>30.0</ele><time>2026-04-05T14:24:44.927Z</time></trkpt><trkpt lat="40.148460896129535" lon="18.47484802060536"><ele>30.0</ele><time>2026-04-05T14:24:45.927Z</time></trkpt><trkpt lat="40.148426050420376" lon="18.47464700778478"><ele>30.0</ele><time>2026-04-05T14:24:46.928Z</time></trkpt><trkpt lat="40.14839371695431" lon="18.474423078473546"><ele>30.0</ele><time>2026-04-05T14:24:47.928Z</time></trkpt><trkpt lat="40.14835906971483" lon="18.474194481194118"><ele>30.666666666666664</ele><time>2026-04-05T14:24:48.928Z</time></trkpt><trkpt lat="40.148318498411655" lon="18.473959106578544"><ele>31.333333333333332</ele><time>2026-04-05T14:24:49.928Z</time></trkpt><trkpt lat="40.148270021534906" lon="18.47370735861945"><ele>32.0</ele><time>2026-04-05T14:24:50.928Z</time></trkpt><trkpt lat="40.14821923245473" lon="18.473437424051912"><ele>32.33333333333333</ele><time>2026-04-05T14:24:51.928Z</time></trkpt><trkpt lat="40.14816473571599" lon="18.473158535215838"><ele>32.666666666666664</ele><time>2026-04-05T14:24:52.928Z</time></trkpt><trkpt lat="40.14811007275862" lon="18.472869738970992"><ele>33.0</ele><time>2026-04-05T14:24:53.928Z</time></trkpt><trkpt lat="40.148055292647804" lon="18.472573292097824"><ele>33.0</ele><time>2026-04-05T14:24:54.928Z</time></trkpt><trkpt lat="40.148001206010214" lon="18.472271969696447"><ele>33.0</ele><time>2026-04-05T14:24:55.928Z</time></trkpt><trkpt lat="40.14794334024719" lon="18.471961609624806"><ele>33.0</ele><time>2026-04-05T14:24:56.928Z</time></trkpt><trkpt lat="40.147884275300186" lon="18.47164407236866"><ele>33.0</ele><time>2026-04-05T14:24:57.928Z</time></trkpt><trkpt lat="40.14782406705275" lon="18.471323705720774"><ele>32.5</ele><time>2026-04-05T14:24:58.928Z</time></trkpt><trkpt lat="40.147763653512285" lon="18.47099521516184"><ele>32.0</ele><time>2026-04-05T14:24:59.928Z</time></trkpt><trkpt lat="40.1476996281974" lon="18.470667277964264"><ele>31.0</ele><time>2026-04-05T14:25:00.928Z</time></trkpt><trkpt lat="40.14763704729717" lon="18.470336395945157"><ele>30.0</ele><time>2026-04-05T14:25:01.928Z</time></trkpt><trkpt lat="40.14757717714561" lon="18.470008098902106"><ele>30.0</ele><time>2026-04-05T14:25:02.928Z</time></trkpt><trkpt lat="40.14752409429555" lon="18.46967923900276"><ele>30.0</ele><time>2026-04-05T14:25:03.928Z</time></trkpt><trkpt lat="40.147469097725136" lon="18.469353880764526"><ele>29.5</ele><time>2026-04-05T14:25:04.928Z</time></trkpt><trkpt lat="40.147414203871776" lon="18.469029052647254"><ele>29.0</ele><time>2026-04-05T14:25:05.928Z</time></trkpt><trkpt lat="40.14735516587449" lon="18.46870606220382"><ele>27.0</ele><time>2026-04-05T14:25:06.928Z</time></trkpt><trkpt lat="40.14729709319899" lon="18.468381277275455"><ele>25.0</ele><time>2026-04-05T14:25:07.928Z</time></trkpt><trkpt lat="40.14723953203018" lon="18.468055755166308"><ele>27.0</ele><time>2026-04-05T14:25:08.928Z</time></trkpt><trkpt lat="40.147179763854126" lon="18.467737371621705"><ele>29.0</ele><time>2026-04-05T14:25:09.928Z</time></trkpt><trkpt lat="40.1471231965254" lon="18.467411592207643"><ele>30.5</ele><time>2026-04-05T14:25:10.928Z</time></trkpt><trkpt lat="40.147066859908136" lon="18.467088328840074"><ele>32.0</ele><time>2026-04-05T14:25:11.928Z</time></trkpt><trkpt lat="40.14701311159063" lon="18.46676238110816"><ele>32.0</ele><time>2026-04-05T14:25:12.928Z</time></trkpt><trkpt lat="40.146950176173696" lon="18.466440142919293"><ele>32.0</ele><time>2026-04-05T14:25:13.928Z</time></trkpt><trkpt lat="40.146885929779295" lon="18.466125961998237"><ele>32.5</ele><time>2026-04-05T14:25:14.928Z</time></trkpt><trkpt lat="40.14682386984969" lon="18.465810425060337"><ele>33.0</ele><time>2026-04-05T14:25:15.928Z</time></trkpt><trkpt lat="40.146756558862165" lon="18.465489480091378"><ele>33.5</ele><time>2026-04-05T14:25:16.928Z</time></trkpt><trkpt lat="40.14669805354178" lon="18.465159206222726"><ele>34.0</ele><time>2026-04-05T14:25:17.928Z</time></trkpt><trkpt lat="40.14663607346404" lon="18.464839107784304"><ele>34.0</ele><time>2026-04-05T14:25:18.928Z</time></trkpt><trkpt lat="40.14657141865437" lon="18.464519342305824"><ele>34.0</ele><time>2026-04-05T14:25:19.928Z</time></trkpt><trkpt lat="40.146510165756155" lon="18.464190076763405"><ele>34.5</ele><time>2026-04-05T14:25:20.928Z</time></trkpt><trkpt lat="40.146446787989454" lon="18.463866847916247"><ele>35.0</ele><time>2026-04-05T14:25:21.928Z</time></trkpt><trkpt lat="40.14638190264537" lon="18.463550891336652"><ele>35.0</ele><time>2026-04-05T14:25:22.928Z</time></trkpt><trkpt lat="40.146314044650154" lon="18.463235709948233"><ele>35.0</ele><time>2026-04-05T14:25:23.928Z</time></trkpt><trkpt lat="40.14626177498098" lon="18.46290996706687"><ele>36.0</ele><time>2026-04-05T14:25:24.928Z</time></trkpt><trkpt lat="40.14620777635941" lon="18.462579228794887"><ele>37.0</ele><time>2026-04-05T14:25:25.928Z</time></trkpt><trkpt lat="40.14615337987488" lon="18.462250552049838"><ele>37.5</ele><time>2026-04-05T14:25:26.928Z</time></trkpt><trkpt lat="40.14609767880174" lon="18.46192487395882"><ele>38.0</ele><time>2026-04-05T14:25:27.928Z</time></trkpt><trkpt lat="40.14604550487934" lon="18.461597658241594"><ele>38.5</ele><time>2026-04-05T14:25:28.928Z</time></trkpt><trkpt lat="40.14598598919624" lon="18.46127843967809"><ele>39.0</ele><time>2026-04-05T14:25:29.928Z</time></trkpt><trkpt lat="40.14592570586431" lon="18.460956394365617"><ele>39.0</ele><time>2026-04-05T14:25:30.928Z</time></trkpt><trkpt lat="40.14586516497373" lon="18.460633016915853"><ele>39.0</ele><time>2026-04-05T14:25:31.928Z</time></trkpt><trkpt lat="40.145804426501" lon="18.46030894236708"><ele>39.0</ele><time>2026-04-05T14:25:32.928Z</time></trkpt><trkpt lat="40.1457443168553" lon="18.459984995413485"><ele>39.0</ele><time>2026-04-05T14:25:33.928Z</time></trkpt><trkpt lat="40.14568474409592" lon="18.459663350644508"><ele>40.0</ele><time>2026-04-05T14:25:34.928Z</time></trkpt><trkpt lat="40.14562344436818" lon="18.459341003599864"><ele>41.0</ele><time>2026-04-05T14:25:35.928Z</time></trkpt><trkpt lat="40.14556130961058" lon="18.45901673995044"><ele>40.5</ele><time>2026-04-05T14:25:36.928Z</time></trkpt><trkpt lat="40.14550112650481" lon="18.458693625774977"><ele>40.0</ele><time>2026-04-05T14:25:37.928Z</time></trkpt><trkpt lat="40.14543847015006" lon="18.458374448286648"><ele>40.0</ele><time>2026-04-05T14:25:38.928Z</time></trkpt><trkpt lat="40.14537660843054" lon="18.458056171908193"><ele>40.0</ele><time>2026-04-05T14:25:39.928Z</time></trkpt><trkpt lat="40.14531419954157" lon="18.457732690834884"><ele>40.0</ele><time>2026-04-05T14:25:40.928Z</time></trkpt><trkpt lat="40.14525534121031" lon="18.457412607296437"><ele>40.0</ele><time>2026-04-05T14:25:41.928Z</time></trkpt><trkpt lat="40.14519413618597" lon="18.457087699269724"><ele>40.0</ele><time>2026-04-05T14:25:42.928Z</time></trkpt><trkpt lat="40.145131673192914" lon="18.45676591447144"><ele>40.0</ele><time>2026-04-05T14:25:43.928Z</time></trkpt><trkpt lat="40.145069718876535" lon="18.456436927752755"><ele>40.0</ele><time>2026-04-05T14:25:44.928Z</time></trkpt><trkpt lat="40.14499592782978" lon="18.45609500741933"><ele>40.0</ele><time>2026-04-05T14:25:45.928Z</time></trkpt><trkpt lat="40.144917080877434" lon="18.45575247234465"><ele>40.0</ele><time>2026-04-05T14:25:46.928Z</time></trkpt><trkpt lat="40.14485510652178" lon="18.455408356102517"><ele>40.0</ele><time>2026-04-05T14:25:47.928Z</time></trkpt><trkpt lat="40.14480616904625" lon="18.455072490601"><ele>40.0</ele><time>2026-04-05T14:25:48.928Z</time></trkpt><trkpt lat="40.144755561268624" lon="18.45473774032086"><ele>40.0</ele><time>2026-04-05T14:25:49.928Z</time></trkpt><trkpt lat="40.14469981499068" lon="18.454409725864743"><ele>39.5</ele><time>2026-04-05T14:25:50.928Z</time></trkpt><trkpt lat="40.144640538600584" lon="18.454083244925243"><ele>39.0</ele><time>2026-04-05T14:25:51.928Z</time></trkpt><trkpt lat="40.14457913944505" lon="18.453758538845662"><ele>39.0</ele><time>2026-04-05T14:25:52.928Z</time></trkpt><trkpt lat="40.14451776713535" lon="18.453438511397508"><ele>39.0</ele><time>2026-04-05T14:25:53.928Z</time></trkpt><trkpt lat="40.144455878279125" lon="18.45311518755966"><ele>39.0</ele><time>2026-04-05T14:25:54.928Z</time></trkpt><trkpt lat="40.14439504894707" lon="18.452793839351315"><ele>39.0</ele><time>2026-04-05T14:25:55.928Z</time></trkpt><trkpt lat="40.144333640145625" lon="18.45247012103892"><ele>39.0</ele><time>2026-04-05T14:25:56.928Z</time></trkpt><trkpt lat="40.14427159572815" lon="18.452147922158364"><ele>39.0</ele><time>2026-04-05T14:25:57.928Z</time></trkpt><trkpt lat="40.144209612824916" lon="18.451824538430376"><ele>39.0</ele><time>2026-04-05T14:25:58.928Z</time></trkpt><trkpt lat="40.144146141768154" lon="18.451499139663255"><ele>39.0</ele><time>2026-04-05T14:25:59.928Z</time></trkpt><trkpt lat="40.14408076237447" lon="18.451176879179933"><ele>39.5</ele><time>2026-04-05T14:26:00.928Z</time></trkpt><trkpt lat="40.14401649487707" lon="18.45085325219757"><ele>40.0</ele><time>2026-04-05T14:26:01.928Z</time></trkpt><trkpt lat="40.14395261610891" lon="18.450531756711396"><ele>38.5</ele><time>2026-04-05T14:26:02.928Z</time></trkpt><trkpt lat="40.143888742296184" lon="18.45020702717523"><ele>37.0</ele><time>2026-04-05T14:26:03.928Z</time></trkpt><trkpt lat="40.14382539875251" lon="18.44988443449813"><ele>38.0</ele><time>2026-04-05T14:26:04.928Z</time></trkpt><trkpt lat="40.14376173384278" lon="18.44956277809656"><ele>39.0</ele><time>2026-04-05T14:26:05.928Z</time></trkpt><trkpt lat="40.1436996394543" lon="18.44924074316529"><ele>39.0</ele><time>2026-04-05T14:26:06.928Z</time></trkpt><trkpt lat="40.143638070100714" lon="18.44891911032447"><ele>39.0</ele><time>2026-04-05T14:26:07.928Z</time></trkpt><trkpt lat="40.14357948950479" lon="18.44859703454605"><ele>38.5</ele><time>2026-04-05T14:26:08.928Z</time></trkpt><trkpt lat="40.14352126798311" lon="18.44827314401315"><ele>38.0</ele><time>2026-04-05T14:26:09.928Z</time></trkpt><trkpt lat="40.14346119409122" lon="18.44795198030922"><ele>36.5</ele><time>2026-04-05T14:26:10.928Z</time></trkpt><trkpt lat="40.143401447105916" lon="18.447626378408593"><ele>35.0</ele><time>2026-04-05T14:26:11.928Z</time></trkpt><trkpt lat="40.14334081292363" lon="18.447303320902925"><ele>35.0</ele><time>2026-04-05T14:26:12.928Z</time></trkpt><trkpt lat="40.14327931888686" lon="18.44698306347105"><ele>35.0</ele><time>2026-04-05T14:26:13.928Z</time></trkpt><trkpt lat="40.143219977690855" lon="18.44666508333666"><ele>35.5</ele><time>2026-04-05T14:26:14.928Z</time></trkpt><trkpt lat="40.143158764668335" lon="18.44633951208551"><ele>36.0</ele><time>2026-04-05T14:26:15.928Z</time></trkpt><trkpt lat="40.143099511394624" lon="18.446015876009053"><ele>36.5</ele><time>2026-04-05T14:26:16.928Z</time></trkpt><trkpt lat="40.14304261463365" lon="18.44569764125807"><ele>37.0</ele><time>2026-04-05T14:26:17.928Z</time></trkpt><trkpt lat="40.142984125992434" lon="18.445373007243578"><ele>37.0</ele><time>2026-04-05T14:26:18.928Z</time></trkpt><trkpt lat="40.142924553743285" lon="18.445053601544217"><ele>37.0</ele><time>2026-04-05T14:26:19.928Z</time></trkpt><trkpt lat="40.142863584585776" lon="18.44473040193607"><ele>37.5</ele><time>2026-04-05T14:26:20.928Z</time></trkpt><trkpt lat="40.14280275055578" lon="18.444405899127194"><ele>38.0</ele><time>2026-04-05T14:26:21.928Z</time></trkpt><trkpt lat="40.14274211569818" lon="18.44408366742965"><ele>39.5</ele><time>2026-04-05T14:26:22.928Z</time></trkpt><trkpt lat="40.14268171277582" lon="18.44376136342297"><ele>41.0</ele><time>2026-04-05T14:26:23.928Z</time></trkpt><trkpt lat="40.14262091176903" lon="18.443439012538434"><ele>41.0</ele><time>2026-04-05T14:26:24.928Z</time></trkpt><trkpt lat="40.142557763600955" lon="18.443120079801208"><ele>41.0</ele><time>2026-04-05T14:26:25.928Z</time></trkpt><trkpt lat="40.1424931851188" lon="18.442797944042596"><ele>42.5</ele><time>2026-04-05T14:26:26.928Z</time></trkpt><trkpt lat="40.14243036652225" lon="18.44247845999867"><ele>44.0</ele><time>2026-04-05T14:26:27.928Z</time></trkpt><trkpt lat="40.14237014888722" lon="18.442153985534343"><ele>47.0</ele><time>2026-04-05T14:26:28.928Z</time></trkpt><trkpt lat="40.14231076727759" lon="18.441832805376805"><ele>50.0</ele><time>2026-04-05T14:26:29.928Z</time></trkpt><trkpt lat="40.142253355080975" lon="18.44150720940617"><ele>50.0</ele><time>2026-04-05T14:26:30.928Z</time></trkpt><trkpt lat="40.14219574483164" lon="18.441186399347295"><ele>50.0</ele><time>2026-04-05T14:26:31.928Z</time></trkpt><trkpt lat="40.14213820586823" lon="18.440861374963983"><ele>50.0</ele><time>2026-04-05T14:26:32.927Z</time></trkpt><trkpt lat="40.142079425963026" lon="18.440534383346847"><ele>50.0</ele><time>2026-04-05T14:26:33.927Z</time></trkpt><trkpt lat="40.14201921262861" lon="18.44021350508388"><ele>49.5</ele><time>2026-04-05T14:26:34.927Z</time></trkpt><trkpt lat="40.141956517943186" lon="18.439892242050913"><ele>49.0</ele><time>2026-04-05T14:26:35.927Z</time></trkpt><trkpt lat="40.141893269612126" lon="18.439569898630754"><ele>49.0</ele><time>2026-04-05T14:26:36.927Z</time></trkpt><trkpt lat="40.14182925366195" lon="18.43924671373906"><ele>49.0</ele><time>2026-04-05T14:26:37.927Z</time></trkpt><trkpt lat="40.14176479019023" lon="18.4389249226945"><ele>50.5</ele><time>2026-04-05T14:26:38.927Z</time></trkpt><trkpt lat="40.141699387227796" lon="18.43860268784542"><ele>52.0</ele><time>2026-04-05T14:26:39.927Z</time></trkpt><trkpt lat="40.14163262041363" lon="18.43828280961887"><ele>52.5</ele><time>2026-04-05T14:26:40.928Z</time></trkpt><trkpt lat="40.141564705108756" lon="18.437959604390397"><ele>53.0</ele><time>2026-04-05T14:26:41.928Z</time></trkpt><trkpt lat="40.14149763280399" lon="18.437638361602545"><ele>53.0</ele><time>2026-04-05T14:26:42.928Z</time></trkpt><trkpt lat="40.1414296932276" lon="18.43731460309176"><ele>53.0</ele><time>2026-04-05T14:26:43.927Z</time></trkpt><trkpt lat="40.141362422974176" lon="18.43699049516664"><ele>53.0</ele><time>2026-04-05T14:26:44.927Z</time></trkpt><trkpt lat="40.14129246581448" lon="18.43667718160157"><ele>53.0</ele><time>2026-04-05T14:26:45.927Z</time></trkpt><trkpt lat="40.14122650568062" lon="18.436353669884003"><ele>53.5</ele><time>2026-04-05T14:26:46.928Z</time></trkpt><trkpt lat="40.141158166667836" lon="18.43602999647788"><ele>54.0</ele><time>2026-04-05T14:26:47.927Z</time></trkpt><trkpt lat="40.14109157891135" lon="18.435710016657293"><ele>54.0</ele><time>2026-04-05T14:26:48.927Z</time></trkpt><trkpt lat="40.14102492135828" lon="18.435389803704467"><ele>54.0</ele><time>2026-04-05T14:26:49.927Z</time></trkpt><trkpt lat="40.14096251477395" lon="18.43507226253703"><ele>54.0</ele><time>2026-04-05T14:26:50.927Z</time></trkpt><trkpt lat="40.140900992387024" lon="18.434749045454513"><ele>54.0</ele><time>2026-04-05T14:26:51.927Z</time></trkpt><trkpt lat="40.14084135942384" lon="18.434426076453093"><ele>54.0</ele><time>2026-04-05T14:26:52.928Z</time></trkpt><trkpt lat="40.14078150435058" lon="18.434100123927728"><ele>54.0</ele><time>2026-04-05T14:26:53.927Z</time></trkpt><trkpt lat="40.140720762941626" lon="18.43377542479269"><ele>54.5</ele><time>2026-04-05T14:26:54.927Z</time></trkpt><trkpt lat="40.14066258794075" lon="18.433450364523768"><ele>55.0</ele><time>2026-04-05T14:26:55.927Z</time></trkpt><trkpt lat="40.14060488966263" lon="18.43312604955612"><ele>54.5</ele><time>2026-04-05T14:26:56.927Z</time></trkpt><trkpt lat="40.14054736875484" lon="18.432803981180335"><ele>54.0</ele><time>2026-04-05T14:26:57.927Z</time></trkpt><trkpt lat="40.14049138197789" lon="18.43247812971914"><ele>54.0</ele><time>2026-04-05T14:26:58.927Z</time></trkpt><trkpt lat="40.14043815581348" lon="18.432154066833895"><ele>54.0</ele><time>2026-04-05T14:26:59.927Z</time></trkpt><trkpt lat="40.14038514791052" lon="18.431829709682255"><ele>54.0</ele><time>2026-04-05T14:27:00.927Z</time></trkpt><trkpt lat="40.14033495715352" lon="18.431513246691313"><ele>54.0</ele><time>2026-04-05T14:27:01.927Z</time></trkpt><trkpt lat="40.14028309529555" lon="18.43118605978813"><ele>54.5</ele><time>2026-04-05T14:27:02.927Z</time></trkpt><trkpt lat="40.14023056066367" lon="18.43085921275694"><ele>55.0</ele><time>2026-04-05T14:27:03.927Z</time></trkpt><trkpt lat="40.140178064370716" lon="18.43053661762517"><ele>55.5</ele><time>2026-04-05T14:27:04.927Z</time></trkpt><trkpt lat="40.140126541342866" lon="18.43021140413567"><ele>56.0</ele><time>2026-04-05T14:27:05.927Z</time></trkpt><trkpt lat="40.14007944296697" lon="18.429884430311557"><ele>56.5</ele><time>2026-04-05T14:27:06.927Z</time></trkpt><trkpt lat="40.14002998651021" lon="18.429559636225697"><ele>57.0</ele><time>2026-04-05T14:27:07.927Z</time></trkpt><trkpt lat="40.139977428827216" lon="18.429230116702215"><ele>57.0</ele><time>2026-04-05T14:27:08.927Z</time></trkpt><trkpt lat="40.13992043379596" lon="18.428905759011926"><ele>57.0</ele><time>2026-04-05T14:27:09.927Z</time></trkpt><trkpt lat="40.13986154663375" lon="18.428582913622087"><ele>57.0</ele><time>2026-04-05T14:27:10.927Z</time></trkpt><trkpt lat="40.13980199525719" lon="18.428260293465"><ele>57.0</ele><time>2026-04-05T14:27:11.927Z</time></trkpt><trkpt lat="40.139745000766005" lon="18.427934698868356"><ele>57.0</ele><time>2026-04-05T14:27:12.927Z</time></trkpt><trkpt lat="40.13968919848446" lon="18.427610198770587"><ele>57.0</ele><time>2026-04-05T14:27:13.927Z</time></trkpt><trkpt lat="40.13963396214519" lon="18.42728758813937"><ele>57.0</ele><time>2026-04-05T14:27:14.927Z</time></trkpt><trkpt lat="40.13957614896661" lon="18.426963847490313"><ele>57.0</ele><time>2026-04-05T14:27:15.927Z</time></trkpt><trkpt lat="40.139518002657944" lon="18.42664011718807"><ele>57.0</ele><time>2026-04-05T14:27:16.927Z</time></trkpt><trkpt lat="40.13945788510541" lon="18.42631663773274"><ele>57.0</ele><time>2026-04-05T14:27:17.927Z</time></trkpt><trkpt lat="40.1393970464466" lon="18.425996463622347"><ele>58.0</ele><time>2026-04-05T14:27:18.927Z</time></trkpt><trkpt lat="40.13933711507141" lon="18.425671487812654"><ele>59.0</ele><time>2026-04-05T14:27:19.927Z</time></trkpt><trkpt lat="40.139276304198404" lon="18.425352294100318"><ele>59.5</ele><time>2026-04-05T14:27:20.927Z</time></trkpt><trkpt lat="40.13921439909771" lon="18.42502991360391"><ele>60.0</ele><time>2026-04-05T14:27:21.927Z</time></trkpt><trkpt lat="40.139153647578894" lon="18.424711032223716"><ele>60.0</ele><time>2026-04-05T14:27:22.927Z</time></trkpt><trkpt lat="40.13909142842549" lon="18.424389182951156"><ele>60.0</ele><time>2026-04-05T14:27:23.927Z</time></trkpt><trkpt lat="40.13903030118167" lon="18.42406713170631"><ele>60.0</ele><time>2026-04-05T14:27:24.927Z</time></trkpt><trkpt lat="40.13897063531008" lon="18.423741365342213"><ele>60.0</ele><time>2026-04-05T14:27:25.927Z</time></trkpt><trkpt lat="40.138908660850085" lon="18.423416751688105"><ele>60.0</ele><time>2026-04-05T14:27:26.927Z</time></trkpt><trkpt lat="40.13884742943526" lon="18.42309517317846"><ele>60.0</ele><time>2026-04-05T14:27:27.927Z</time></trkpt><trkpt lat="40.138786085189395" lon="18.422772895348956"><ele>60.0</ele><time>2026-04-05T14:27:28.927Z</time></trkpt><trkpt lat="40.13872498697199" lon="18.422447699147877"><ele>60.0</ele><time>2026-04-05T14:27:29.927Z</time></trkpt><trkpt lat="40.13866480079063" lon="18.422121230832147"><ele>59.5</ele><time>2026-04-05T14:27:30.927Z</time></trkpt><trkpt lat="40.13860658336087" lon="18.421798166419528"><ele>59.0</ele><time>2026-04-05T14:27:31.927Z</time></trkpt><trkpt lat="40.13854586622595" lon="18.42147755460778"><ele>60.0</ele><time>2026-04-05T14:27:32.927Z</time></trkpt><trkpt lat="40.1384874152754" lon="18.42115863059767"><ele>61.0</ele><time>2026-04-05T14:27:33.927Z</time></trkpt><trkpt lat="40.138425656213975" lon="18.420838581131097"><ele>61.0</ele><time>2026-04-05T14:27:34.927Z</time></trkpt><trkpt lat="40.138364403014975" lon="18.420516733759392"><ele>61.0</ele><time>2026-04-05T14:27:35.927Z</time></trkpt><trkpt lat="40.13830553355937" lon="18.42019834024143"><ele>61.0</ele><time>2026-04-05T14:27:36.927Z</time></trkpt><trkpt lat="40.138248792419446" lon="18.41987708892138"><ele>61.0</ele><time>2026-04-05T14:27:37.927Z</time></trkpt><trkpt lat="40.13819332329155" lon="18.41955836770323"><ele>61.5</ele><time>2026-04-05T14:27:38.927Z</time></trkpt><trkpt lat="40.138131808642676" lon="18.41923633272886"><ele>62.0</ele><time>2026-04-05T14:27:39.927Z</time></trkpt><trkpt lat="40.13806941513328" lon="18.418911826444425"><ele>61.5</ele><time>2026-04-05T14:27:40.927Z</time></trkpt><trkpt lat="40.13800871965886" lon="18.418587450320842"><ele>61.0</ele><time>2026-04-05T14:27:41.927Z</time></trkpt><trkpt lat="40.13794923610406" lon="18.418261682083678"><ele>61.5</ele><time>2026-04-05T14:27:42.927Z</time></trkpt><trkpt lat="40.137890006591384" lon="18.41793504181911"><ele>62.0</ele><time>2026-04-05T14:27:43.927Z</time></trkpt><trkpt lat="40.137830909340074" lon="18.417608000157188"><ele>62.0</ele><time>2026-04-05T14:27:44.927Z</time></trkpt><trkpt lat="40.13776854670836" lon="18.417281126934387"><ele>62.0</ele><time>2026-04-05T14:27:45.927Z</time></trkpt><trkpt lat="40.13770274837324" lon="18.416956220742442"><ele>62.0</ele><time>2026-04-05T14:27:46.927Z</time></trkpt><trkpt lat="40.1376384358593" lon="18.41662586210268"><ele>62.0</ele><time>2026-04-05T14:27:47.927Z</time></trkpt><trkpt lat="40.13757351110586" lon="18.416296658416663"><ele>62.0</ele><time>2026-04-05T14:27:48.927Z</time></trkpt><trkpt lat="40.13751662013788" lon="18.41597483764501"><ele>62.0</ele><time>2026-04-05T14:27:49.927Z</time></trkpt><trkpt lat="40.13745685634869" lon="18.415655374188862"><ele>62.5</ele><time>2026-04-05T14:27:50.927Z</time></trkpt><trkpt lat="40.13740246901822" lon="18.415340816801415"><ele>63.0</ele><time>2026-04-05T14:27:51.927Z</time></trkpt><trkpt lat="40.1373418807037" lon="18.415026352147184"><ele>63.5</ele><time>2026-04-05T14:27:52.927Z</time></trkpt><trkpt lat="40.1372875111971" lon="18.41470752936216"><ele>64.0</ele><time>2026-04-05T14:27:53.927Z</time></trkpt><trkpt lat="40.13722889204055" lon="18.414388368728353"><ele>64.5</ele><time>2026-04-05T14:27:54.927Z</time></trkpt><trkpt lat="40.13716793931661" lon="18.41406622410963"><ele>65.0</ele><time>2026-04-05T14:27:55.927Z</time></trkpt><trkpt lat="40.13711034141563" lon="18.413744690427414"><ele>65.0</ele><time>2026-04-05T14:27:56.927Z</time></trkpt><trkpt lat="40.13704972145612" lon="18.413424150154203"><ele>65.0</ele><time>2026-04-05T14:27:57.927Z</time></trkpt><trkpt lat="40.13699305235837" lon="18.413104260355222"><ele>65.5</ele><time>2026-04-05T14:27:58.927Z</time></trkpt><trkpt lat="40.13693527852202" lon="18.41277866846003"><ele>66.0</ele><time>2026-04-05T14:27:59.927Z</time></trkpt><trkpt lat="40.13687943600421" lon="18.41245644662996"><ele>66.0</ele><time>2026-04-05T14:28:00.927Z</time></trkpt><trkpt lat="40.136822380492696" lon="18.412134489309203"><ele>66.0</ele><time>2026-04-05T14:28:01.927Z</time></trkpt><trkpt lat="40.13676246010394" lon="18.411811205617614"><ele>66.0</ele><time>2026-04-05T14:28:02.927Z</time></trkpt><trkpt lat="40.13670076318923" lon="18.411483737300976"><ele>66.0</ele><time>2026-04-05T14:28:03.927Z</time></trkpt><trkpt lat="40.13663800119553" lon="18.411156630422305"><ele>66.5</ele><time>2026-04-05T14:28:04.927Z</time></trkpt><trkpt lat="40.13657868921778" lon="18.410832196786423"><ele>67.0</ele><time>2026-04-05T14:28:05.927Z</time></trkpt><trkpt lat="40.136524205079866" lon="18.41050821680694"><ele>67.0</ele><time>2026-04-05T14:28:06.927Z</time></trkpt><trkpt lat="40.136466705281954" lon="18.4101859238614"><ele>67.0</ele><time>2026-04-05T14:28:07.927Z</time></trkpt><trkpt lat="40.13640865775416" lon="18.409865885783507"><ele>68.0</ele><time>2026-04-05T14:28:08.927Z</time></trkpt><trkpt lat="40.136345671967376" lon="18.409543185413824"><ele>69.0</ele><time>2026-04-05T14:28:09.927Z</time></trkpt><trkpt lat="40.136289144446884" lon="18.409219815347555"><ele>69.0</ele><time>2026-04-05T14:28:10.927Z</time></trkpt><trkpt lat="40.13623120687887" lon="18.408893609172285"><ele>69.0</ele><time>2026-04-05T14:28:11.927Z</time></trkpt><trkpt lat="40.13617260265825" lon="18.408570584090523"><ele>69.0</ele><time>2026-04-05T14:28:12.927Z</time></trkpt><trkpt lat="40.13611494107918" lon="18.408245472915194"><ele>69.0</ele><time>2026-04-05T14:28:13.927Z</time></trkpt><trkpt lat="40.136053007888314" lon="18.407924257509347"><ele>68.5</ele><time>2026-04-05T14:28:14.927Z</time></trkpt><trkpt lat="40.13599307395136" lon="18.40759972824256"><ele>68.0</ele><time>2026-04-05T14:28:15.927Z</time></trkpt><trkpt lat="40.13593298662932" lon="18.407276182168296"><ele>70.0</ele><time>2026-04-05T14:28:16.927Z</time></trkpt><trkpt lat="40.135873380947665" lon="18.40695013615237"><ele>72.0</ele><time>2026-04-05T14:28:17.927Z</time></trkpt><trkpt lat="40.13581444505762" lon="18.406623794136117"><ele>72.5</ele><time>2026-04-05T14:28:18.927Z</time></trkpt><trkpt lat="40.1357550275211" lon="18.40630384076183"><ele>73.0</ele><time>2026-04-05T14:28:19.927Z</time></trkpt><trkpt lat="40.135697914620366" lon="18.405978866251054"><ele>74.5</ele><time>2026-04-05T14:28:20.927Z</time></trkpt><trkpt lat="40.135635238983525" lon="18.40565882845265"><ele>76.0</ele><time>2026-04-05T14:28:21.927Z</time></trkpt><trkpt lat="40.13557048467154" lon="18.405343059904045"><ele>77.0</ele><time>2026-04-05T14:28:22.927Z</time></trkpt><trkpt lat="40.13550776796687" lon="18.405020200609233"><ele>78.0</ele><time>2026-04-05T14:28:23.927Z</time></trkpt><trkpt lat="40.13544571406739" lon="18.404702064302537"><ele>78.0</ele><time>2026-04-05T14:28:24.927Z</time></trkpt><trkpt lat="40.13538371992006" lon="18.4043799876154"><ele>78.0</ele><time>2026-04-05T14:28:25.927Z</time></trkpt><trkpt lat="40.13532573540798" lon="18.40405917987337"><ele>80.5</ele><time>2026-04-05T14:28:26.927Z</time></trkpt><trkpt lat="40.13526895781565" lon="18.403740436428627"><ele>83.0</ele><time>2026-04-05T14:28:27.927Z</time></trkpt><trkpt lat="40.135209623592374" lon="18.403420497684362"><ele>83.0</ele><time>2026-04-05T14:28:28.927Z</time></trkpt><trkpt lat="40.13514815457688" lon="18.403102702595685"><ele>83.0</ele><time>2026-04-05T14:28:29.927Z</time></trkpt><trkpt lat="40.13508477604586" lon="18.402786007220215"><ele>85.0</ele><time>2026-04-05T14:28:30.927Z</time></trkpt><trkpt lat="40.13502376210802" lon="18.402465407534017"><ele>87.0</ele><time>2026-04-05T14:28:31.927Z</time></trkpt><trkpt lat="40.13496127757159" lon="18.402143844981648"><ele>89.0</ele><time>2026-04-05T14:28:32.927Z</time></trkpt><trkpt lat="40.13490053637905" lon="18.4018199437451"><ele>91.0</ele><time>2026-04-05T14:28:33.927Z</time></trkpt><trkpt lat="40.13484307950233" lon="18.401489766715912"><ele>91.0</ele><time>2026-04-05T14:28:34.927Z</time></trkpt><trkpt lat="40.13478568990732" lon="18.401157558594008"><ele>91.0</ele><time>2026-04-05T14:28:35.927Z</time></trkpt><trkpt lat="40.13473070723066" lon="18.40082531073929"><ele>91.5</ele><time>2026-04-05T14:28:36.927Z</time></trkpt><trkpt lat="40.13467499603895" lon="18.40049480719279"><ele>92.0</ele><time>2026-04-05T14:28:37.927Z</time></trkpt><trkpt lat="40.13461421018228" lon="18.400167245711753"><ele>92.0</ele><time>2026-04-05T14:28:38.926Z</time></trkpt><trkpt lat="40.13455334715707" lon="18.39984897836444"><ele>92.0</ele><time>2026-04-05T14:28:39.926Z</time></trkpt><trkpt lat="40.134490820406455" lon="18.399522046723302"><ele>94.0</ele><time>2026-04-05T14:28:40.926Z</time></trkpt><trkpt lat="40.13442847200227" lon="18.399192039359804"><ele>96.0</ele><time>2026-04-05T14:28:41.926Z</time></trkpt><trkpt lat="40.13436828857606" lon="18.39886780434272"><ele>97.0</ele><time>2026-04-05T14:28:42.926Z</time></trkpt><trkpt lat="40.134306294020355" lon="18.398544771705883"><ele>98.0</ele><time>2026-04-05T14:28:43.926Z</time></trkpt><trkpt lat="40.13424852489398" lon="18.398221042532484"><ele>98.5</ele><time>2026-04-05T14:28:44.926Z</time></trkpt><trkpt lat="40.134190426322284" lon="18.39789923799273"><ele>99.0</ele><time>2026-04-05T14:28:45.926Z</time></trkpt><trkpt lat="40.13412900462542" lon="18.397577886919795"><ele>99.0</ele><time>2026-04-05T14:28:46.926Z</time></trkpt><trkpt lat="40.13406767538954" lon="18.397261661249104"><ele>99.0</ele><time>2026-04-05T14:28:47.927Z</time></trkpt><trkpt lat="40.13400476423415" lon="18.396939589140946"><ele>98.5</ele><time>2026-04-05T14:28:48.927Z</time></trkpt><trkpt lat="40.13394556209787" lon="18.39661457346805"><ele>98.0</ele><time>2026-04-05T14:28:49.927Z</time></trkpt><trkpt lat="40.13388626200117" lon="18.396289513785494"><ele>98.0</ele><time>2026-04-05T14:28:50.927Z</time></trkpt><trkpt lat="40.13382901593825" lon="18.395965716015517"><ele>98.0</ele><time>2026-04-05T14:28:51.927Z</time></trkpt><trkpt lat="40.13376753330477" lon="18.39564232159892"><ele>98.5</ele><time>2026-04-05T14:28:52.927Z</time></trkpt><trkpt lat="40.13370579069709" lon="18.395320879162476"><ele>99.0</ele><time>2026-04-05T14:28:53.926Z</time></trkpt><trkpt lat="40.13364487473065" lon="18.394993996218098"><ele>100.0</ele><time>2026-04-05T14:28:54.926Z</time></trkpt><trkpt lat="40.13358375028883" lon="18.394668758644027"><ele>101.0</ele><time>2026-04-05T14:28:55.927Z</time></trkpt><trkpt lat="40.13352324340089" lon="18.394345129895754"><ele>101.0</ele><time>2026-04-05T14:28:56.927Z</time></trkpt><trkpt lat="40.13345964352878" lon="18.394023301171103"><ele>101.0</ele><time>2026-04-05T14:28:57.927Z</time></trkpt><trkpt lat="40.13339230477317" lon="18.39370395103812"><ele>100.5</ele><time>2026-04-05T14:28:58.926Z</time></trkpt><trkpt lat="40.1333180328014" lon="18.393372816011485"><ele>100.0</ele><time>2026-04-05T14:28:59.927Z</time></trkpt><trkpt lat="40.13322585940705" lon="18.393048537772724"><ele>100.5</ele><time>2026-04-05T14:29:00.927Z</time></trkpt><trkpt lat="40.133128617992675" lon="18.392724491087503"><ele>101.0</ele><time>2026-04-05T14:29:01.927Z</time></trkpt><trkpt lat="40.13302272434172" lon="18.39241207682997"><ele>100.5</ele><time>2026-04-05T14:29:02.927Z</time></trkpt><trkpt lat="40.1328930477121" lon="18.39211170433976"><ele>100.0</ele><time>2026-04-05T14:29:03.927Z</time></trkpt><trkpt lat="40.13275876621358" lon="18.391845008643823"><ele>100.0</ele><time>2026-04-05T14:29:04.927Z</time></trkpt><trkpt lat="40.13261579171777" lon="18.3915804610228"><ele>100.0</ele><time>2026-04-05T14:29:05.927Z</time></trkpt><trkpt lat="40.1324674343307" lon="18.3913156304785"><ele>99.5</ele><time>2026-04-05T14:29:06.927Z</time></trkpt><trkpt lat="40.132311125352246" lon="18.391056406884807"><ele>99.0</ele><time>2026-04-05T14:29:07.927Z</time></trkpt><trkpt lat="40.13214994473894" lon="18.390802077464006"><ele>99.0</ele><time>2026-04-05T14:29:08.927Z</time></trkpt><trkpt lat="40.13198034025243" lon="18.390556163261202"><ele>99.0</ele><time>2026-04-05T14:29:09.927Z</time></trkpt><trkpt lat="40.131807188569496" lon="18.390321723235807"><ele>98.5</ele><time>2026-04-05T14:29:10.927Z</time></trkpt><trkpt lat="40.13163941536599" lon="18.390092372114555"><ele>98.0</ele><time>2026-04-05T14:29:11.927Z</time></trkpt><trkpt lat="40.13146909666087" lon="18.389857500297545"><ele>96.5</ele><time>2026-04-05T14:29:12.927Z</time></trkpt><trkpt lat="40.13130185412741" lon="18.389625882641234"><ele>95.0</ele><time>2026-04-05T14:29:13.927Z</time></trkpt><trkpt lat="40.1311302927166" lon="18.3893900218932"><ele>95.0</ele><time>2026-04-05T14:29:14.927Z</time></trkpt><trkpt lat="40.13095702720509" lon="18.389149453643977"><ele>95.0</ele><time>2026-04-05T14:29:15.927Z</time></trkpt><trkpt lat="40.130783798707476" lon="18.388900729393715"><ele>94.5</ele><time>2026-04-05T14:29:16.927Z</time></trkpt><trkpt lat="40.13061520944963" lon="18.38863538573133"><ele>94.0</ele><time>2026-04-05T14:29:17.927Z</time></trkpt><trkpt lat="40.13043934178664" lon="18.388395687421816"><ele>94.0</ele><time>2026-04-05T14:29:18.927Z</time></trkpt><trkpt lat="40.13026748286161" lon="18.388155413878593"><ele>94.0</ele><time>2026-04-05T14:29:19.927Z</time></trkpt><trkpt lat="40.13009399684936" lon="18.387914302984168"><ele>93.0</ele><time>2026-04-05T14:29:20.927Z</time></trkpt><trkpt lat="40.12992131010813" lon="18.38767354412793"><ele>92.0</ele><time>2026-04-05T14:29:21.927Z</time></trkpt><trkpt lat="40.129747187208025" lon="18.387431140866124"><ele>91.5</ele><time>2026-04-05T14:29:22.927Z</time></trkpt><trkpt lat="40.12957297097432" lon="18.387190208196024"><ele>91.0</ele><time>2026-04-05T14:29:23.927Z</time></trkpt><trkpt lat="40.129394105853315" lon="18.386951155771744"><ele>91.0</ele><time>2026-04-05T14:29:24.927Z</time></trkpt><trkpt lat="40.12921742223671" lon="18.386708664489987"><ele>91.0</ele><time>2026-04-05T14:29:25.927Z</time></trkpt><trkpt lat="40.12904235759959" lon="18.386468305849625"><ele>92.5</ele><time>2026-04-05T14:29:26.927Z</time></trkpt><trkpt lat="40.128870379483175" lon="18.38622414430198"><ele>94.0</ele><time>2026-04-05T14:29:27.927Z</time></trkpt><trkpt lat="40.12869627329386" lon="18.385984016574277"><ele>94.0</ele><time>2026-04-05T14:29:28.927Z</time></trkpt><trkpt lat="40.128522887263024" lon="18.385743984307943"><ele>94.0</ele><time>2026-04-05T14:29:29.927Z</time></trkpt><trkpt lat="40.128352460962894" lon="18.38549217219445"><ele>95.0</ele><time>2026-04-05T14:29:30.927Z</time></trkpt><trkpt lat="40.128184720899434" lon="18.38524230216033"><ele>96.0</ele><time>2026-04-05T14:29:31.927Z</time></trkpt><trkpt lat="40.12801738957714" lon="18.38498532093389"><ele>96.0</ele><time>2026-04-05T14:29:32.927Z</time></trkpt><trkpt lat="40.12785784029993" lon="18.384726363649616"><ele>96.0</ele><time>2026-04-05T14:29:33.927Z</time></trkpt><trkpt lat="40.12770235669042" lon="18.38446323072644"><ele>97.5</ele><time>2026-04-05T14:29:34.927Z</time></trkpt><trkpt lat="40.12755221955886" lon="18.384191589829562"><ele>99.0</ele><time>2026-04-05T14:29:35.927Z</time></trkpt><trkpt lat="40.12740814525167" lon="18.383912522846156"><ele>99.0</ele><time>2026-04-05T14:29:36.927Z</time></trkpt><trkpt lat="40.127266692422175" lon="18.38362254004559"><ele>99.0</ele><time>2026-04-05T14:29:37.927Z</time></trkpt><trkpt lat="40.12713309846414" lon="18.383333150547795"><ele>99.0</ele><time>2026-04-05T14:29:38.926Z</time></trkpt><trkpt lat="40.12700439339524" lon="18.38303239555975"><ele>99.0</ele><time>2026-04-05T14:29:39.926Z</time></trkpt><trkpt lat="40.126911961599724" lon="18.382721321718783"><ele>99.0</ele><time>2026-04-05T14:29:40.926Z</time></trkpt><trkpt lat="40.12680772875009" lon="18.382414804090736"><ele>99.0</ele><time>2026-04-05T14:29:41.926Z</time></trkpt><trkpt lat="40.12671176875109" lon="18.382103381411486"><ele>99.0</ele><time>2026-04-05T14:29:42.926Z</time></trkpt><trkpt lat="40.12662711626858" lon="18.381791607554177"><ele>99.0</ele><time>2026-04-05T14:29:43.926Z</time></trkpt><trkpt lat="40.126546550304006" lon="18.381474726180688"><ele>98.5</ele><time>2026-04-05T14:29:44.926Z</time></trkpt><trkpt lat="40.12647972302949" lon="18.38114735075591"><ele>98.0</ele><time>2026-04-05T14:29:45.926Z</time></trkpt><trkpt lat="40.12641062963082" lon="18.380819806414017"><ele>97.5</ele><time>2026-04-05T14:29:46.926Z</time></trkpt><trkpt lat="40.12635668368473" lon="18.38049727085151"><ele>97.0</ele><time>2026-04-05T14:29:47.926Z</time></trkpt><trkpt lat="40.12631849350992" lon="18.380161171942422"><ele>97.0</ele><time>2026-04-05T14:29:48.926Z</time></trkpt><trkpt lat="40.12628042440531" lon="18.37983791167367"><ele>97.0</ele><time>2026-04-05T14:29:49.926Z</time></trkpt><trkpt lat="40.12625751720733" lon="18.37951018074516"><ele>96.5</ele><time>2026-04-05T14:29:50.926Z</time></trkpt><trkpt lat="40.12623949021913" lon="18.37918299010809"><ele>96.0</ele><time>2026-04-05T14:29:51.926Z</time></trkpt><trkpt lat="40.126237149751994" lon="18.3788509576133"><ele>95.5</ele><time>2026-04-05T14:29:52.926Z</time></trkpt><trkpt lat="40.12624203434664" lon="18.378522728719915"><ele>95.0</ele><time>2026-04-05T14:29:53.926Z</time></trkpt><trkpt lat="40.12625666121782" lon="18.3781919690625"><ele>93.5</ele><time>2026-04-05T14:29:54.926Z</time></trkpt><trkpt lat="40.126282870239756" lon="18.37785739675675"><ele>92.0</ele><time>2026-04-05T14:29:55.926Z</time></trkpt><trkpt lat="40.12631189565246" lon="18.3775311587422"><ele>92.0</ele><time>2026-04-05T14:29:56.926Z</time></trkpt><trkpt lat="40.12635445269221" lon="18.3772042577019"><ele>92.0</ele><time>2026-04-05T14:29:57.926Z</time></trkpt><trkpt lat="40.12640275228721" lon="18.3768783024801"><ele>92.0</ele><time>2026-04-05T14:29:58.926Z</time></trkpt><trkpt lat="40.12646655348056" lon="18.37655199525081"><ele>92.0</ele><time>2026-04-05T14:29:59.926Z</time></trkpt><trkpt lat="40.126533712169824" lon="18.376231867959373"><ele>92.0</ele><time>2026-04-05T14:30:00.926Z</time></trkpt><trkpt lat="40.12660971652374" lon="18.375916901966445"><ele>92.0</ele><time>2026-04-05T14:30:01.926Z</time></trkpt><trkpt lat="40.126696916218656" lon="18.375599932249433"><ele>91.5</ele><time>2026-04-05T14:30:02.926Z</time></trkpt><trkpt lat="40.12679170446691" lon="18.37528829383579"><ele>91.0</ele><time>2026-04-05T14:30:03.926Z</time></trkpt><trkpt lat="40.1268880373343" lon="18.374973427957023"><ele>90.0</ele><time>2026-04-05T14:30:04.926Z</time></trkpt><trkpt lat="40.12698698603908" lon="18.374669854032323"><ele>89.0</ele><time>2026-04-05T14:30:05.926Z</time></trkpt><trkpt lat="40.12708846252128" lon="18.37436394120869"><ele>89.0</ele><time>2026-04-05T14:30:06.926Z</time></trkpt><trkpt lat="40.127185091486695" lon="18.374057345415"><ele>89.0</ele><time>2026-04-05T14:30:07.926Z</time></trkpt><trkpt lat="40.12728480947919" lon="18.373747692161647"><ele>88.5</ele><time>2026-04-05T14:30:08.926Z</time></trkpt><trkpt lat="40.12738824770998" lon="18.373439098633746"><ele>88.0</ele><time>2026-04-05T14:30:09.926Z</time></trkpt><trkpt lat="40.12748934830378" lon="18.37313553192848"><ele>87.5</ele><time>2026-04-05T14:30:10.926Z</time></trkpt><trkpt lat="40.12759014825401" lon="18.37282866536261"><ele>87.0</ele><time>2026-04-05T14:30:11.926Z</time></trkpt><trkpt lat="40.12768420136977" lon="18.372519140236186"><ele>87.0</ele><time>2026-04-05T14:30:12.926Z</time></trkpt><trkpt lat="40.12777945252138" lon="18.37220767454656"><ele>87.0</ele><time>2026-04-05T14:30:13.926Z</time></trkpt><trkpt lat="40.12786822299586" lon="18.37190045777454"><ele>86.5</ele><time>2026-04-05T14:30:14.926Z</time></trkpt><trkpt lat="40.127951592543226" lon="18.371585347912543"><ele>86.0</ele><time>2026-04-05T14:30:15.926Z</time></trkpt><trkpt lat="40.12802588034217" lon="18.371266573021398"><ele>86.0</ele><time>2026-04-05T14:30:16.926Z</time></trkpt><trkpt lat="40.12809337956373" lon="18.370946555371862"><ele>86.0</ele><time>2026-04-05T14:30:17.926Z</time></trkpt><trkpt lat="40.128154718945694" lon="18.370628205450938"><ele>86.5</ele><time>2026-04-05T14:30:18.926Z</time></trkpt><trkpt lat="40.128212659788446" lon="18.37030502955294"><ele>87.0</ele><time>2026-04-05T14:30:19.926Z</time></trkpt><trkpt lat="40.12826861810966" lon="18.369981042222758"><ele>88.5</ele><time>2026-04-05T14:30:20.926Z</time></trkpt><trkpt lat="40.12831699247411" lon="18.3696588253454"><ele>90.0</ele><time>2026-04-05T14:30:21.926Z</time></trkpt><trkpt lat="40.12836037260975" lon="18.369330171511624"><ele>90.0</ele><time>2026-04-05T14:30:22.926Z</time></trkpt><trkpt lat="40.12839877947835" lon="18.369002949775172"><ele>90.0</ele><time>2026-04-05T14:30:23.926Z</time></trkpt><trkpt lat="40.128427736519725" lon="18.36867654657674"><ele>90.0</ele><time>2026-04-05T14:30:24.926Z</time></trkpt><trkpt lat="40.12845139716414" lon="18.368341429872505"><ele>90.0</ele><time>2026-04-05T14:30:25.926Z</time></trkpt><trkpt lat="40.12846782385783" lon="18.36800604447243"><ele>90.0</ele><time>2026-04-05T14:30:26.926Z</time></trkpt><trkpt lat="40.128479086379826" lon="18.36767293273324"><ele>90.0</ele><time>2026-04-05T14:30:27.926Z</time></trkpt><trkpt lat="40.128484636659884" lon="18.367338978880966"><ele>90.0</ele><time>2026-04-05T14:30:28.926Z</time></trkpt><trkpt lat="40.12848330203576" lon="18.367005247882787"><ele>90.0</ele><time>2026-04-05T14:30:29.926Z</time></trkpt><trkpt lat="40.12847628173436" lon="18.36667137845494"><ele>89.0</ele><time>2026-04-05T14:30:30.926Z</time></trkpt><trkpt lat="40.128461816192065" lon="18.366334323848378"><ele>88.0</ele><time>2026-04-05T14:30:31.926Z</time></trkpt><trkpt lat="40.128437179756084" lon="18.36599778074785"><ele>88.0</ele><time>2026-04-05T14:30:32.926Z</time></trkpt><trkpt lat="40.12840232616535" lon="18.365662960782647"><ele>88.0</ele><time>2026-04-05T14:30:33.926Z</time></trkpt><trkpt lat="40.12836802913235" lon="18.365331742907244"><ele>89.0</ele><time>2026-04-05T14:30:34.926Z</time></trkpt><trkpt lat="40.128335239655534" lon="18.365000137144218"><ele>90.0</ele><time>2026-04-05T14:30:35.926Z</time></trkpt><trkpt lat="40.12830176569929" lon="18.364672439438113"><ele>90.5</ele><time>2026-04-05T14:30:36.926Z</time></trkpt><trkpt lat="40.128264369993644" lon="18.364346408774438"><ele>91.0</ele><time>2026-04-05T14:30:37.926Z</time></trkpt><trkpt lat="40.12822407199363" lon="18.36401463394927"><ele>91.0</ele><time>2026-04-05T14:30:38.926Z</time></trkpt><trkpt lat="40.12818286945408" lon="18.36368200348988"><ele>91.0</ele><time>2026-04-05T14:30:39.926Z</time></trkpt><trkpt lat="40.128144185161474" lon="18.363340990278846"><ele>90.0</ele><time>2026-04-05T14:30:40.926Z</time></trkpt><trkpt lat="40.128107086891674" lon="18.36299612592869"><ele>89.0</ele><time>2026-04-05T14:30:41.926Z</time></trkpt><trkpt lat="40.12806819852632" lon="18.362652781671205"><ele>89.0</ele><time>2026-04-05T14:30:42.926Z</time></trkpt><trkpt lat="40.12803463687265" lon="18.362309324542508"><ele>89.0</ele><time>2026-04-05T14:30:43.926Z</time></trkpt><trkpt lat="40.12800204373994" lon="18.361964279581425"><ele>89.5</ele><time>2026-04-05T14:30:44.926Z</time></trkpt><trkpt lat="40.12796500688856" lon="18.36162290464345"><ele>90.0</ele><time>2026-04-05T14:30:45.926Z</time></trkpt><trkpt lat="40.12792303161518" lon="18.361282262464695"><ele>90.5</ele><time>2026-04-05T14:30:46.926Z</time></trkpt><trkpt lat="40.12787506822477" lon="18.360939382814813"><ele>91.0</ele><time>2026-04-05T14:30:47.926Z</time></trkpt><trkpt lat="40.12783635238629" lon="18.36059898686682"><ele>91.0</ele><time>2026-04-05T14:30:48.926Z</time></trkpt><trkpt lat="40.1277995781607" lon="18.36025842566157"><ele>91.0</ele><time>2026-04-05T14:30:49.926Z</time></trkpt><trkpt lat="40.12776260841372" lon="18.359920764615637"><ele>91.0</ele><time>2026-04-05T14:30:50.926Z</time></trkpt><trkpt lat="40.127728910787575" lon="18.35958234645604"><ele>91.0</ele><time>2026-04-05T14:30:51.926Z</time></trkpt><trkpt lat="40.1276936278763" lon="18.35924171311711"><ele>91.0</ele><time>2026-04-05T14:30:52.927Z</time></trkpt><trkpt lat="40.127658738411846" lon="18.35890192803245"><ele>91.0</ele><time>2026-04-05T14:30:53.926Z</time></trkpt><trkpt lat="40.1276233339038" lon="18.358560279327364"><ele>91.0</ele><time>2026-04-05T14:30:54.926Z</time></trkpt><trkpt lat="40.12758167652542" lon="18.35822224179446"><ele>91.0</ele><time>2026-04-05T14:30:55.926Z</time></trkpt><trkpt lat="40.12753436833248" lon="18.357884147430056"><ele>91.0</ele><time>2026-04-05T14:30:56.926Z</time></trkpt><trkpt lat="40.127487922438526" lon="18.357544895171017"><ele>91.0</ele><time>2026-04-05T14:30:57.926Z</time></trkpt><trkpt lat="40.12743858524764" lon="18.35720165717141"><ele>90.0</ele><time>2026-04-05T14:30:58.926Z</time></trkpt><trkpt lat="40.12738897517531" lon="18.356868082584832"><ele>89.0</ele><time>2026-04-05T14:30:59.925Z</time></trkpt><trkpt lat="40.12734582621628" lon="18.356529093286184"><ele>89.0</ele><time>2026-04-05T14:31:00.925Z</time></trkpt><trkpt lat="40.12730182846929" lon="18.356191680278577"><ele>89.0</ele><time>2026-04-05T14:31:01.926Z</time></trkpt><trkpt lat="40.127255565959125" lon="18.35585551647838"><ele>89.5</ele><time>2026-04-05T14:31:02.926Z</time></trkpt><trkpt lat="40.127205289292206" lon="18.35551336617913"><ele>90.0</ele><time>2026-04-05T14:31:03.926Z</time></trkpt><trkpt lat="40.12715820931142" lon="18.355169623060235"><ele>90.0</ele><time>2026-04-05T14:31:04.926Z</time></trkpt><trkpt lat="40.12711257408977" lon="18.35483454827924"><ele>90.0</ele><time>2026-04-05T14:31:05.926Z</time></trkpt><trkpt lat="40.12707211463884" lon="18.354497969633776"><ele>90.0</ele><time>2026-04-05T14:31:06.926Z</time></trkpt><trkpt lat="40.127029658908164" lon="18.354160233424324"><ele>90.0</ele><time>2026-04-05T14:31:07.926Z</time></trkpt><trkpt lat="40.1269870844385" lon="18.35381957736732"><ele>90.0</ele><time>2026-04-05T14:31:08.926Z</time></trkpt><trkpt lat="40.126943990693626" lon="18.353481676496322"><ele>90.0</ele><time>2026-04-05T14:31:09.926Z</time></trkpt><trkpt lat="40.12690029415193" lon="18.35314170615183"><ele>90.0</ele><time>2026-04-05T14:31:10.926Z</time></trkpt><trkpt lat="40.1268539079135" lon="18.35280223565096"><ele>90.0</ele><time>2026-04-05T14:31:11.926Z</time></trkpt><trkpt lat="40.126807789078015" lon="18.352458415442875"><ele>89.5</ele><time>2026-04-05T14:31:12.926Z</time></trkpt><trkpt lat="40.126769416583116" lon="18.352117741981164"><ele>89.0</ele><time>2026-04-05T14:31:13.926Z</time></trkpt><trkpt lat="40.1267339142757" lon="18.35177676770726"><ele>89.0</ele><time>2026-04-05T14:31:14.926Z</time></trkpt><trkpt lat="40.126697468449656" lon="18.351432056184915"><ele>89.0</ele><time>2026-04-05T14:31:15.926Z</time></trkpt><trkpt lat="40.12666004523463" lon="18.351092140434147"><ele>89.5</ele><time>2026-04-05T14:31:16.926Z</time></trkpt><trkpt lat="40.126617407744746" lon="18.350751927032395"><ele>90.0</ele><time>2026-04-05T14:31:17.926Z</time></trkpt><trkpt lat="40.12657087896661" lon="18.350414160676504"><ele>89.5</ele><time>2026-04-05T14:31:18.926Z</time></trkpt><trkpt lat="40.12652864719477" lon="18.350075349295988"><ele>89.0</ele><time>2026-04-05T14:31:19.926Z</time></trkpt><trkpt lat="40.12648614491254" lon="18.3497371520425"><ele>88.5</ele><time>2026-04-05T14:31:20.926Z</time></trkpt><trkpt lat="40.12644973792758" lon="18.34939502963451"><ele>88.0</ele><time>2026-04-05T14:31:21.926Z</time></trkpt><trkpt lat="40.12641739730172" lon="18.349054907752862"><ele>86.5</ele><time>2026-04-05T14:31:22.926Z</time></trkpt><trkpt lat="40.126381121085515" lon="18.348716754406215"><ele>85.0</ele><time>2026-04-05T14:31:23.926Z</time></trkpt><trkpt lat="40.12634102190422" lon="18.34837541851631"><ele>85.0</ele><time>2026-04-05T14:31:24.926Z</time></trkpt><trkpt lat="40.1263078963309" lon="18.348034265234315"><ele>85.0</ele><time>2026-04-05T14:31:25.926Z</time></trkpt><trkpt lat="40.12627132191345" lon="18.34769308046844"><ele>85.0</ele><time>2026-04-05T14:31:26.926Z</time></trkpt><trkpt lat="40.12623500834118" lon="18.347351062717777"><ele>85.0</ele><time>2026-04-05T14:31:27.926Z</time></trkpt><trkpt lat="40.126197586438394" lon="18.347013355254585"><ele>86.0</ele><time>2026-04-05T14:31:28.926Z</time></trkpt><trkpt lat="40.12616084376859" lon="18.346673533080047"><ele>87.0</ele><time>2026-04-05T14:31:29.926Z</time></trkpt><trkpt lat="40.126123246951416" lon="18.346332602618155"><ele>87.0</ele><time>2026-04-05T14:31:30.926Z</time></trkpt><trkpt lat="40.12608689018107" lon="18.345992427368408"><ele>87.0</ele><time>2026-04-05T14:31:31.926Z</time></trkpt><trkpt lat="40.12605577249594" lon="18.34565126374345"><ele>87.5</ele><time>2026-04-05T14:31:32.926Z</time></trkpt><trkpt lat="40.12602538161525" lon="18.34530861019482"><ele>88.0</ele><time>2026-04-05T14:31:33.926Z</time></trkpt><trkpt lat="40.12599581864904" lon="18.344968511219022"><ele>87.0</ele><time>2026-04-05T14:31:34.926Z</time></trkpt><trkpt lat="40.12596925611123" lon="18.344627513487715"><ele>86.0</ele><time>2026-04-05T14:31:35.926Z</time></trkpt><trkpt lat="40.12594100902485" lon="18.34428511417706"><ele>86.0</ele><time>2026-04-05T14:31:36.926Z</time></trkpt><trkpt lat="40.125909228681486" lon="18.34394359432419"><ele>86.0</ele><time>2026-04-05T14:31:37.926Z</time></trkpt><trkpt lat="40.12588015669142" lon="18.343601723084216"><ele>86.0</ele><time>2026-04-05T14:31:38.926Z</time></trkpt><trkpt lat="40.125852649386765" lon="18.34326015319339"><ele>86.0</ele><time>2026-04-05T14:31:39.926Z</time></trkpt><trkpt lat="40.12582183407944" lon="18.342918102932067"><ele>86.0</ele><time>2026-04-05T14:31:40.926Z</time></trkpt><trkpt lat="40.125789751735425" lon="18.342576044919475"><ele>86.0</ele><time>2026-04-05T14:31:41.926Z</time></trkpt><trkpt lat="40.12575791410835" lon="18.342238140825295"><ele>85.5</ele><time>2026-04-05T14:31:42.926Z</time></trkpt><trkpt lat="40.12572765489608" lon="18.341899455783686"><ele>85.0</ele><time>2026-04-05T14:31:43.926Z</time></trkpt><trkpt lat="40.12569146088507" lon="18.341555450874115"><ele>86.0</ele><time>2026-04-05T14:31:44.926Z</time></trkpt><trkpt lat="40.125655035876086" lon="18.341208033192718"><ele>87.0</ele><time>2026-04-05T14:31:45.926Z</time></trkpt><trkpt lat="40.12561733595908" lon="18.340863899060327"><ele>86.0</ele><time>2026-04-05T14:31:46.926Z</time></trkpt><trkpt lat="40.12557707654703" lon="18.34052277448553"><ele>85.0</ele><time>2026-04-05T14:31:47.926Z</time></trkpt><trkpt lat="40.12553770917718" lon="18.340182557625713"><ele>85.0</ele><time>2026-04-05T14:31:48.926Z</time></trkpt><trkpt lat="40.12549449248031" lon="18.33984371705831"><ele>85.0</ele><time>2026-04-05T14:31:49.926Z</time></trkpt><trkpt lat="40.12545498980659" lon="18.339505220457582"><ele>85.5</ele><time>2026-04-05T14:31:50.926Z</time></trkpt><trkpt lat="40.12541878938876" lon="18.339161532170834"><ele>86.0</ele><time>2026-04-05T14:31:51.926Z</time></trkpt><trkpt lat="40.12538600549277" lon="18.33882051000798"><ele>86.0</ele><time>2026-04-05T14:31:52.926Z</time></trkpt><trkpt lat="40.12534509413383" lon="18.33848279153189"><ele>86.0</ele><time>2026-04-05T14:31:53.926Z</time></trkpt><trkpt lat="40.12530762604387" lon="18.338138825824075"><ele>85.5</ele><time>2026-04-05T14:31:54.926Z</time></trkpt><trkpt lat="40.12526198001337" lon="18.33780202189127"><ele>85.0</ele><time>2026-04-05T14:31:55.926Z</time></trkpt><trkpt lat="40.125221411842006" lon="18.337465394371986"><ele>84.5</ele><time>2026-04-05T14:31:56.926Z</time></trkpt><trkpt lat="40.12517946416349" lon="18.33712724564268"><ele>84.0</ele><time>2026-04-05T14:31:57.926Z</time></trkpt><trkpt lat="40.125141088683144" lon="18.336781299640343"><ele>84.0</ele><time>2026-04-05T14:31:58.926Z</time></trkpt><trkpt lat="40.1250969288275" lon="18.336439438406526"><ele>84.0</ele><time>2026-04-05T14:31:59.926Z</time></trkpt><trkpt lat="40.12505526147295" lon="18.33609578179201"><ele>84.5</ele><time>2026-04-05T14:32:00.926Z</time></trkpt><trkpt lat="40.125014478439596" lon="18.335749842093556"><ele>85.0</ele><time>2026-04-05T14:32:01.926Z</time></trkpt><trkpt lat="40.12497321414015" lon="18.33540701111382"><ele>85.0</ele><time>2026-04-05T14:32:02.926Z</time></trkpt><trkpt lat="40.124927342905266" lon="18.33506645179655"><ele>85.0</ele><time>2026-04-05T14:32:03.926Z</time></trkpt><trkpt lat="40.1248837155229" lon="18.334729837529558"><ele>84.0</ele><time>2026-04-05T14:32:04.926Z</time></trkpt><trkpt lat="40.12483820433892" lon="18.33439566965835"><ele>83.0</ele><time>2026-04-05T14:32:05.926Z</time></trkpt><trkpt lat="40.12479605798213" lon="18.33405666757763"><ele>84.0</ele><time>2026-04-05T14:32:06.926Z</time></trkpt><trkpt lat="40.12475643541529" lon="18.33371667368056"><ele>85.0</ele><time>2026-04-05T14:32:07.926Z</time></trkpt><trkpt lat="40.12471802067707" lon="18.33337689308689"><ele>84.5</ele><time>2026-04-05T14:32:08.926Z</time></trkpt><trkpt lat="40.1246772918805" lon="18.333037103658437"><ele>84.0</ele><time>2026-04-05T14:32:09.926Z</time></trkpt><trkpt lat="40.12463643730079" lon="18.332696964172758"><ele>84.0</ele><time>2026-04-05T14:32:10.926Z</time></trkpt><trkpt lat="40.124595140167635" lon="18.33235623493425"><ele>84.0</ele><time>2026-04-05T14:32:11.926Z</time></trkpt><trkpt lat="40.12455832732561" lon="18.332014621647893"><ele>84.5</ele><time>2026-04-05T14:32:12.926Z</time></trkpt><trkpt lat="40.12452058886533" lon="18.331669256897687"><ele>85.0</ele><time>2026-04-05T14:32:13.926Z</time></trkpt><trkpt lat="40.12448478571996" lon="18.3313248295911"><ele>85.0</ele><time>2026-04-05T14:32:14.926Z</time></trkpt><trkpt lat="40.12444983189604" lon="18.33097986012703"><ele>85.0</ele><time>2026-04-05T14:32:15.926Z</time></trkpt><trkpt lat="40.12441011324103" lon="18.33063638261389"><ele>84.5</ele><time>2026-04-05T14:32:16.926Z</time></trkpt><trkpt lat="40.124371927222654" lon="18.330294258370206"><ele>84.0</ele><time>2026-04-05T14:32:17.926Z</time></trkpt><trkpt lat="40.12433849266764" lon="18.329949806983958"><ele>83.5</ele><time>2026-04-05T14:32:18.926Z</time></trkpt><trkpt lat="40.12430400042274" lon="18.329610666672323"><ele>83.0</ele><time>2026-04-05T14:32:19.926Z</time></trkpt><trkpt lat="40.12426618947305" lon="18.32927317646703"><ele>83.0</ele><time>2026-04-05T14:32:20.926Z</time></trkpt><trkpt lat="40.124229353563834" lon="18.32893204362162"><ele>83.0</ele><time>2026-04-05T14:32:21.926Z</time></trkpt><trkpt lat="40.12418615639754" lon="18.328592571717607"><ele>83.5</ele><time>2026-04-05T14:32:22.926Z</time></trkpt><trkpt lat="40.124142448391844" lon="18.328249374693186"><ele>84.0</ele><time>2026-04-05T14:32:23.926Z</time></trkpt><trkpt lat="40.12409395061695" lon="18.327908088714903"><ele>84.5</ele><time>2026-04-05T14:32:24.926Z</time></trkpt><trkpt lat="40.12404467908793" lon="18.32756668302771"><ele>85.0</ele><time>2026-04-05T14:32:25.926Z</time></trkpt><trkpt lat="40.12399785063402" lon="18.327223723416836"><ele>84.0</ele><time>2026-04-05T14:32:26.926Z</time></trkpt><trkpt lat="40.123957694618966" lon="18.326877544494074"><ele>83.0</ele><time>2026-04-05T14:32:27.926Z</time></trkpt><trkpt lat="40.1239167563616" lon="18.326531765545987"><ele>83.5</ele><time>2026-04-05T14:32:28.926Z</time></trkpt><trkpt lat="40.12387324176718" lon="18.326190875276993"><ele>84.0</ele><time>2026-04-05T14:32:29.926Z</time></trkpt><trkpt lat="40.123829167604185" lon="18.325853139351956"><ele>84.5</ele><time>2026-04-05T14:32:30.926Z</time></trkpt><trkpt lat="40.12378645710799" lon="18.32551292165622"><ele>85.0</ele><time>2026-04-05T14:32:31.926Z</time></trkpt><trkpt lat="40.12374159753369" lon="18.325174128924143"><ele>85.0</ele><time>2026-04-05T14:32:32.926Z</time></trkpt><trkpt lat="40.123701316561636" lon="18.32483626878292"><ele>85.0</ele><time>2026-04-05T14:32:33.926Z</time></trkpt><trkpt lat="40.123661467625894" lon="18.32449591686575"><ele>85.0</ele><time>2026-04-05T14:32:34.926Z</time></trkpt><trkpt lat="40.12362316758904" lon="18.324153916996817"><ele>85.0</ele><time>2026-04-05T14:32:35.926Z</time></trkpt><trkpt lat="40.123587709381496" lon="18.323814103439293"><ele>85.0</ele><time>2026-04-05T14:32:36.926Z</time></trkpt><trkpt lat="40.1235572486246" lon="18.323472719737865"><ele>85.0</ele><time>2026-04-05T14:32:37.926Z</time></trkpt><trkpt lat="40.123525369971894" lon="18.323126689542708"><ele>85.5</ele><time>2026-04-05T14:32:38.926Z</time></trkpt><trkpt lat="40.12349071720255" lon="18.32278965331494"><ele>86.0</ele><time>2026-04-05T14:32:39.926Z</time></trkpt><trkpt lat="40.12345107265052" lon="18.32244472699182"><ele>86.0</ele><time>2026-04-05T14:32:40.926Z</time></trkpt><trkpt lat="40.123416739472184" lon="18.32210671500199"><ele>86.0</ele><time>2026-04-05T14:32:41.926Z</time></trkpt><trkpt lat="40.123384557463865" lon="18.32177552517888"><ele>86.0</ele><time>2026-04-05T14:32:42.926Z</time></trkpt><trkpt lat="40.123421756789895" lon="18.321656070318962"><ele>86.0</ele><time>2026-04-05T14:32:43.926Z</time></trkpt><trkpt lat="40.12340770932386" lon="18.321415567290853"><ele>86.0</ele><time>2026-04-05T14:32:44.926Z</time></trkpt><trkpt lat="40.12338933852273" lon="18.321193902717397"><ele>85.33333333333334</ele><time>2026-04-05T14:32:45.926Z</time></trkpt><trkpt lat="40.123367755368996" lon="18.320982778969586"><ele>84.66666666666667</ele><time>2026-04-05T14:32:46.926Z</time></trkpt><trkpt lat="40.12334140628452" lon="18.320783614675978"><ele>84.0</ele><time>2026-04-05T14:32:47.926Z</time></trkpt><trkpt lat="40.123316239225055" lon="18.320597036121868"><ele>84.0</ele><time>2026-04-05T14:32:48.926Z</time></trkpt><trkpt lat="40.12329178702771" lon="18.320420739202213"><ele>84.0</ele><time>2026-04-05T14:32:49.925Z</time></trkpt><trkpt lat="40.123266224062434" lon="18.320258380455748"><ele>84.0</ele><time>2026-04-05T14:32:50.925Z</time></trkpt><trkpt lat="40.1232468462805" lon="18.320101241673125"><ele>84.0</ele><time>2026-04-05T14:32:51.925Z</time></trkpt><trkpt lat="40.123226429911156" lon="18.319953645881295"><ele>84.0</ele><time>2026-04-05T14:32:52.925Z</time></trkpt><trkpt lat="40.12320968638582" lon="18.319798736490597"><ele>84.0</ele><time>2026-04-05T14:32:53.925Z</time></trkpt><trkpt lat="40.123193101454596" lon="18.31965685968513"><ele>84.0</ele><time>2026-04-05T14:32:54.925Z</time></trkpt><trkpt lat="40.12317686189609" lon="18.31952334871262"><ele>84.0</ele><time>2026-04-05T14:32:55.925Z</time></trkpt><trkpt lat="40.123166920823365" lon="18.319405682505035"><ele>84.0</ele><time>2026-04-05T14:32:56.925Z</time></trkpt><trkpt lat="40.12315735661205" lon="18.31929641791177"><ele>83.83333333333333</ele><time>2026-04-05T14:32:57.925Z</time></trkpt><trkpt lat="40.123167062448374" lon="18.319141240576954"><ele>83.66666666666667</ele><time>2026-04-05T14:32:59.925Z</time></trkpt><trkpt lat="40.12319192385491" lon="18.31905465874303"><ele>83.5</ele><time>2026-04-05T14:33:00.925Z</time></trkpt><trkpt lat="40.12322917292357" lon="18.318972162022707"><ele>83.33333333333334</ele><time>2026-04-05T14:33:01.926Z</time></trkpt><trkpt lat="40.123260697580754" lon="18.31888962153649"><ele>83.16666666666667</ele><time>2026-04-05T14:33:02.925Z</time></trkpt><trkpt lat="40.123266904032974" lon="18.318805576797022"><ele>83.0</ele><time>2026-04-05T14:33:03.925Z</time></trkpt><trkpt lat="40.12324765278344" lon="18.31872519737521"><ele>83.2</ele><time>2026-04-05T14:33:04.925Z</time></trkpt><trkpt lat="40.12320103295606" lon="18.318653089486222"><ele>83.4</ele><time>2026-04-05T14:33:05.925Z</time></trkpt><trkpt lat="40.12310893449209" lon="18.318583109282656"><ele>83.60000000000001</ele><time>2026-04-05T14:33:06.925Z</time></trkpt><trkpt lat="40.1230603877693" lon="18.318495088944278"><ele>83.80000000000001</ele><time>2026-04-05T14:33:07.925Z</time></trkpt><trkpt lat="40.12301909747426" lon="18.318371156123725"><ele>84.0</ele><time>2026-04-05T14:33:08.925Z</time></trkpt><trkpt lat="40.122982891886046" lon="18.318189129627456"><ele>84.33333333333333</ele><time>2026-04-05T14:33:09.925Z</time></trkpt><trkpt lat="40.1229549466915" lon="18.317982653684144"><ele>84.66666666666666</ele><time>2026-04-05T14:33:10.925Z</time></trkpt><trkpt lat="40.12293337560291" lon="18.317767935905884"><ele>85.0</ele><time>2026-04-05T14:33:11.925Z</time></trkpt><trkpt lat="40.122911504410034" lon="18.317529314747635"><ele>85.0</ele><time>2026-04-05T14:33:12.925Z</time></trkpt><trkpt lat="40.12288546635109" lon="18.31730070797193"><ele>85.0</ele><time>2026-04-05T14:33:13.925Z</time></trkpt><trkpt lat="40.122861911447984" lon="18.317076727288143"><ele>85.0</ele><time>2026-04-05T14:33:14.925Z</time></trkpt><trkpt lat="40.122838162296404" lon="18.316874862087992"><ele>85.33333333333333</ele><time>2026-04-05T14:33:15.925Z</time></trkpt><trkpt lat="40.12281681748834" lon="18.31667318599714"><ele>85.66666666666667</ele><time>2026-04-05T14:33:16.925Z</time></trkpt><trkpt lat="40.122795046831996" lon="18.316469171929487"><ele>86.0</ele><time>2026-04-05T14:33:17.925Z</time></trkpt><trkpt lat="40.122782587751445" lon="18.31627079873258"><ele>86.0</ele><time>2026-04-05T14:33:18.925Z</time></trkpt><trkpt lat="40.12275951791298" lon="18.316084121975592"><ele>86.0</ele><time>2026-04-05T14:33:19.925Z</time></trkpt><trkpt lat="40.12273557427934" lon="18.31590937673992"><ele>86.0</ele><time>2026-04-05T14:33:20.925Z</time></trkpt><trkpt lat="40.122712220726065" lon="18.315742660969892"><ele>86.0</ele><time>2026-04-05T14:33:21.925Z</time></trkpt><trkpt lat="40.122688295738" lon="18.315585364861338"><ele>86.19999999999999</ele><time>2026-04-05T14:33:22.925Z</time></trkpt><trkpt lat="40.122674692055746" lon="18.315435402777926"><ele>86.39999999999999</ele><time>2026-04-05T14:33:23.925Z</time></trkpt><trkpt lat="40.122658362567606" lon="18.315294663402497"><ele>86.6</ele><time>2026-04-05T14:33:24.925Z</time></trkpt><trkpt lat="40.122670053456346" lon="18.31517758261287"><ele>86.8</ele><time>2026-04-05T14:33:25.925Z</time></trkpt><trkpt lat="40.122697206729846" lon="18.315059941851473"><ele>87.0</ele><time>2026-04-05T14:33:27.925Z</time></trkpt><trkpt lat="40.122770288220096" lon="18.314947946996536"><ele>87.0</ele><time>2026-04-05T14:33:29.925Z</time></trkpt><trkpt lat="40.12281258455596" lon="18.314879896287195"><ele>87.0</ele><time>2026-04-05T14:33:30.924Z</time></trkpt><trkpt lat="40.122839666368506" lon="18.314800202965795"><ele>87.0</ele><time>2026-04-05T14:33:31.924Z</time></trkpt><trkpt lat="40.12284493940256" lon="18.314714223090895"><ele>87.0</ele><time>2026-04-05T14:33:32.924Z</time></trkpt><trkpt lat="40.12278775498749" lon="18.31458055717914"><ele>87.0</ele><time>2026-04-05T14:33:34.924Z</time></trkpt><trkpt lat="40.12268639176611" lon="18.314487809259923"><ele>87.0</ele><time>2026-04-05T14:33:36.924Z</time></trkpt><trkpt lat="40.12261089685916" lon="18.314404578827286"><ele>86.6</ele><time>2026-04-05T14:33:38.924Z</time></trkpt><trkpt lat="40.12255617923842" lon="18.31425111986435"><ele>86.19999999999999</ele><time>2026-04-05T14:33:40.924Z</time></trkpt><trkpt lat="40.12253421121116" lon="18.314145509034404"><ele>85.8</ele><time>2026-04-05T14:33:41.924Z</time></trkpt><trkpt lat="40.12251062657861" lon="18.31403102197349"><ele>85.4</ele><time>2026-04-05T14:33:42.924Z</time></trkpt><trkpt lat="40.122491605882225" lon="18.313920241776437"><ele>85.0</ele><time>2026-04-05T14:33:43.924Z</time></trkpt><trkpt lat="40.12247888768974" lon="18.313814313787177"><ele>84.8</ele><time>2026-04-05T14:33:44.924Z</time></trkpt><trkpt lat="40.122464205140155" lon="18.313708161712846"><ele>84.6</ele><time>2026-04-05T14:33:45.924Z</time></trkpt><trkpt lat="40.1224499507861" lon="18.31359579848481"><ele>84.4</ele><time>2026-04-05T14:33:46.924Z</time></trkpt><trkpt lat="40.122435468782555" lon="18.313469142643687"><ele>84.2</ele><time>2026-04-05T14:33:47.924Z</time></trkpt><trkpt lat="40.122416576661394" lon="18.313328944777105"><ele>84.0</ele><time>2026-04-05T14:33:48.924Z</time></trkpt><trkpt lat="40.122393516862175" lon="18.313182682337967"><ele>83.5</ele><time>2026-04-05T14:33:49.924Z</time></trkpt><trkpt lat="40.12237189660199" lon="18.313032643483744"><ele>83.0</ele><time>2026-04-05T14:33:50.924Z</time></trkpt><trkpt lat="40.12233962281587" lon="18.312866635970458"><ele>82.5</ele><time>2026-04-05T14:33:51.924Z</time></trkpt><trkpt lat="40.122312545504144" lon="18.31268993060811"><ele>82.0</ele><time>2026-04-05T14:33:52.924Z</time></trkpt><trkpt lat="40.12230700779474" lon="18.312533970066127"><ele>82.0</ele><time>2026-04-05T14:33:53.924Z</time></trkpt><trkpt lat="40.12229864028882" lon="18.31240074186424"><ele>82.0</ele><time>2026-04-05T14:33:54.924Z</time></trkpt><trkpt lat="40.12228614624072" lon="18.31229344140955"><ele>82.0</ele><time>2026-04-05T14:33:55.924Z</time></trkpt><trkpt lat="40.12227475092288" lon="18.312193237991853"><ele>82.0</ele><time>2026-04-05T14:33:56.924Z</time></trkpt><trkpt lat="40.12226927025037" lon="18.312099853848128"><ele>82.0</ele><time>2026-04-05T14:33:57.924Z</time></trkpt><trkpt lat="40.122260428155315" lon="18.312006522876892"><ele>82.0</ele><time>2026-04-05T14:33:58.924Z</time></trkpt><trkpt lat="40.12224957983941" lon="18.311914154553815"><ele>81.99999999999999</ele><time>2026-04-05T14:33:59.924Z</time></trkpt><trkpt lat="40.12223874869385" lon="18.311825157158303"><ele>82.0</ele><time>2026-04-05T14:34:00.924Z</time></trkpt><trkpt lat="40.122231607013816" lon="18.311739882105336"><ele>82.0</ele><time>2026-04-05T14:34:01.924Z</time></trkpt><trkpt lat="40.122220761116395" lon="18.31164447879253"><ele>82.0</ele><time>2026-04-05T14:34:02.924Z</time></trkpt><trkpt lat="40.12220653801845" lon="18.311542271205063"><ele>82.0</ele><time>2026-04-05T14:34:03.924Z</time></trkpt><trkpt lat="40.12219824317947" lon="18.31144918318849"><ele>81.99999999999999</ele><time>2026-04-05T14:34:04.924Z</time></trkpt><trkpt lat="40.12218548898531" lon="18.311358358185174"><ele>82.0</ele><time>2026-04-05T14:34:05.924Z</time></trkpt><trkpt lat="40.12217104615035" lon="18.3112573800099"><ele>82.39999999999999</ele><time>2026-04-05T14:34:06.924Z</time></trkpt><trkpt lat="40.12215299065338" lon="18.311138176646438"><ele>82.8</ele><time>2026-04-05T14:34:07.924Z</time></trkpt><trkpt lat="40.12213681262024" lon="18.311013334289402"><ele>83.2</ele><time>2026-04-05T14:34:08.924Z</time></trkpt><trkpt lat="40.122122906081955" lon="18.310893401662454"><ele>83.6</ele><time>2026-04-05T14:34:09.924Z</time></trkpt><trkpt lat="40.1221195901437" lon="18.310780939507826"><ele>84.0</ele><time>2026-04-05T14:34:10.924Z</time></trkpt><trkpt lat="40.12210547751923" lon="18.310663339489583"><ele>83.75</ele><time>2026-04-05T14:34:11.924Z</time></trkpt><trkpt lat="40.12209214292582" lon="18.31053842443806"><ele>83.5</ele><time>2026-04-05T14:34:12.924Z</time></trkpt><trkpt lat="40.12208082607286" lon="18.310404875619096"><ele>83.25</ele><time>2026-04-05T14:34:13.924Z</time></trkpt><trkpt lat="40.122061350674564" lon="18.310243244260327"><ele>83.0</ele><time>2026-04-05T14:34:14.924Z</time></trkpt><trkpt lat="40.12203525278285" lon="18.310048595364325"><ele>83.0</ele><time>2026-04-05T14:34:15.924Z</time></trkpt><trkpt lat="40.122009964383984" lon="18.309853312296553"><ele>83.0</ele><time>2026-04-05T14:34:16.924Z</time></trkpt><trkpt lat="40.12199147427406" lon="18.309684220868913"><ele>83.0</ele><time>2026-04-05T14:34:17.924Z</time></trkpt><trkpt lat="40.12197774122331" lon="18.309532675603883"><ele>83.0</ele><time>2026-04-05T14:34:18.924Z</time></trkpt><trkpt lat="40.12196173197355" lon="18.309384691697254"><ele>83.25</ele><time>2026-04-05T14:34:19.924Z</time></trkpt><trkpt lat="40.12194603932631" lon="18.30923439932691"><ele>83.5</ele><time>2026-04-05T14:34:20.924Z</time></trkpt><trkpt lat="40.12192964316566" lon="18.30908887212905"><ele>83.75</ele><time>2026-04-05T14:34:21.924Z</time></trkpt><trkpt lat="40.121911614305176" lon="18.30894369525111"><ele>84.0</ele><time>2026-04-05T14:34:22.924Z</time></trkpt><trkpt lat="40.1218913035809" lon="18.308801908454473"><ele>83.4</ele><time>2026-04-05T14:34:23.924Z</time></trkpt><trkpt lat="40.121874631113556" lon="18.30865659385381"><ele>82.80000000000001</ele><time>2026-04-05T14:34:24.924Z</time></trkpt><trkpt lat="40.121861628569164" lon="18.30850795226332"><ele>82.19999999999999</ele><time>2026-04-05T14:34:25.924Z</time></trkpt><trkpt lat="40.121844979019365" lon="18.30836816303497"><ele>81.6</ele><time>2026-04-05T14:34:26.924Z</time></trkpt><trkpt lat="40.12182680901618" lon="18.308235335022992"><ele>81.0</ele><time>2026-04-05T14:34:27.924Z</time></trkpt><trkpt lat="40.121808229039374" lon="18.30811367542027"><ele>80.8</ele><time>2026-04-05T14:34:28.924Z</time></trkpt><trkpt lat="40.12179306883977" lon="18.307994612501773"><ele>80.6</ele><time>2026-04-05T14:34:29.924Z</time></trkpt><trkpt lat="40.12177670511929" lon="18.307868648038585"><ele>80.4</ele><time>2026-04-05T14:34:30.924Z</time></trkpt><trkpt lat="40.12175537807429" lon="18.307739841893685"><ele>80.2</ele><time>2026-04-05T14:34:31.924Z</time></trkpt><trkpt lat="40.12173908435904" lon="18.30759429671358"><ele>80.0</ele><time>2026-04-05T14:34:32.924Z</time></trkpt><trkpt lat="40.12172956271956" lon="18.307443403394874"><ele>80.0</ele><time>2026-04-05T14:34:33.924Z</time></trkpt><trkpt lat="40.121714679001606" lon="18.307287213903717"><ele>80.0</ele><time>2026-04-05T14:34:34.924Z</time></trkpt><trkpt lat="40.121697465903154" lon="18.30713680857877"><ele>80.0</ele><time>2026-04-05T14:34:35.924Z</time></trkpt><trkpt lat="40.12168417862252" lon="18.30699562112009"><ele>80.0</ele><time>2026-04-05T14:34:36.924Z</time></trkpt><trkpt lat="40.121672930170035" lon="18.306849723244586"><ele>80.0</ele><time>2026-04-05T14:34:37.924Z</time></trkpt><trkpt lat="40.1216562655957" lon="18.30671292411742"><ele>80.0</ele><time>2026-04-05T14:34:38.924Z</time></trkpt><trkpt lat="40.12163892639895" lon="18.306583830205017"><ele>80.0</ele><time>2026-04-05T14:34:39.924Z</time></trkpt><trkpt lat="40.121622450796224" lon="18.3064631087917"><ele>80.0</ele><time>2026-04-05T14:34:40.924Z</time></trkpt><trkpt lat="40.12160836904195" lon="18.30635806752331"><ele>80.0</ele><time>2026-04-05T14:34:41.924Z</time></trkpt><trkpt lat="40.121599782874945" lon="18.30626176006353"><ele>80.16666666666667</ele><time>2026-04-05T14:34:42.924Z</time></trkpt><trkpt lat="40.12159594695742" lon="18.306174586529572"><ele>80.33333333333334</ele><time>2026-04-05T14:34:43.924Z</time></trkpt><trkpt lat="40.121608140605446" lon="18.306035509308543"><ele>80.5</ele><time>2026-04-05T14:34:45.924Z</time></trkpt><trkpt lat="40.12162214023776" lon="18.305894543055324"><ele>80.66666666666667</ele><time>2026-04-05T14:34:47.924Z</time></trkpt><trkpt lat="40.12162683490151" lon="18.305803774424138"><ele>80.83333333333333</ele><time>2026-04-05T14:34:48.924Z</time></trkpt><trkpt lat="40.12162380109506" lon="18.30571598180208"><ele>81.0</ele><time>2026-04-05T14:34:49.924Z</time></trkpt><trkpt lat="40.1216154880673" lon="18.305629195063574"><ele>81.19999999999999</ele><time>2026-04-05T14:34:50.924Z</time></trkpt><trkpt lat="40.12160891089927" lon="18.305543014991628"><ele>81.39999999999999</ele><time>2026-04-05T14:34:51.924Z</time></trkpt><trkpt lat="40.12159005992737" lon="18.30537396700696"><ele>81.6</ele><time>2026-04-05T14:34:53.924Z</time></trkpt><trkpt lat="40.12157905620286" lon="18.305274769917546"><ele>81.8</ele><time>2026-04-05T14:34:54.924Z</time></trkpt><trkpt lat="40.12155691598292" lon="18.305161587072742"><ele>82.0</ele><time>2026-04-05T14:34:55.924Z</time></trkpt><trkpt lat="40.12153109146538" lon="18.305028394103847"><ele>82.0</ele><time>2026-04-05T14:34:56.924Z</time></trkpt><trkpt lat="40.121496843623184" lon="18.304867594813537"><ele>82.0</ele><time>2026-04-05T14:34:57.924Z</time></trkpt><trkpt lat="40.121473704478696" lon="18.304704703874936"><ele>82.0</ele><time>2026-04-05T14:34:58.924Z</time></trkpt><trkpt lat="40.12144104776422" lon="18.304554588760457"><ele>82.0</ele><time>2026-04-05T14:34:59.924Z</time></trkpt><trkpt lat="40.121396608055555" lon="18.304473622134108"><ele>81.99999999999999</ele><time>2026-04-05T14:35:00.924Z</time></trkpt><trkpt lat="40.1213710936463" lon="18.304394762830697"><ele>82.0</ele><time>2026-04-05T14:35:01.924Z</time></trkpt><trkpt lat="40.12135514837938" lon="18.304310879749217"><ele>82.0</ele><time>2026-04-05T14:35:02.924Z</time></trkpt><trkpt lat="40.12134305080101" lon="18.304216398949393"><ele>82.0</ele><time>2026-04-05T14:35:03.924Z</time></trkpt><trkpt lat="40.12132339092423" lon="18.304123082327255"><ele>82.0</ele><time>2026-04-05T14:35:04.925Z</time></trkpt><trkpt lat="40.12130799780406" lon="18.30402330146149"><ele>81.99999999999999</ele><time>2026-04-05T14:35:05.925Z</time></trkpt><trkpt lat="40.12129032827287" lon="18.30392001973143"><ele>82.0</ele><time>2026-04-05T14:35:06.925Z</time></trkpt><trkpt lat="40.121272771394636" lon="18.303827340115138"><ele>82.0</ele><time>2026-04-05T14:35:07.924Z</time></trkpt><trkpt lat="40.12125871940108" lon="18.30373904019343"><ele>82.0</ele><time>2026-04-05T14:35:08.924Z</time></trkpt><trkpt lat="40.12123937457272" lon="18.303594144278772"><ele>82.0</ele><time>2026-04-05T14:35:10.924Z</time></trkpt><trkpt lat="40.121224151054626" lon="18.303472414573168"><ele>82.0</ele><time>2026-04-05T14:35:12.924Z</time></trkpt><trkpt lat="40.12121100410437" lon="18.303351769002553"><ele>82.0</ele><time>2026-04-05T14:35:14.924Z</time></trkpt><trkpt lat="40.12119954683463" lon="18.30326105947893"><ele>82.0</ele><time>2026-04-05T14:35:16.925Z</time></trkpt><trkpt lat="40.12117440820235" lon="18.303159111899628"><ele>82.33333333333333</ele><time>2026-04-05T14:35:20.924Z</time></trkpt><trkpt lat="40.12116500730543" lon="18.30307510548146"><ele>82.66666666666666</ele><time>2026-04-05T14:35:22.924Z</time></trkpt><trkpt lat="40.12115342301461" lon="18.302984719853875"><ele>83.0</ele><time>2026-04-05T14:35:24.924Z</time></trkpt><trkpt lat="40.12114050997592" lon="18.302863609695482"><ele>83.33333333333333</ele><time>2026-04-05T14:35:26.924Z</time></trkpt><trkpt lat="40.12112089778812" lon="18.302755088314065"><ele>83.66666666666667</ele><time>2026-04-05T14:35:28.924Z</time></trkpt><trkpt lat="40.12110173637786" lon="18.302652879064915"><ele>84.0</ele><time>2026-04-05T14:35:30.924Z</time></trkpt><trkpt lat="40.12107961646695" lon="18.302563712692805"><ele>84.0</ele><time>2026-04-05T14:35:32.924Z</time></trkpt><trkpt lat="40.12099121196632" lon="18.302486951802614"><ele>84.0</ele><time>2026-04-05T14:35:35.924Z</time></trkpt><trkpt lat="40.120897913274156" lon="18.302514533256325"><ele>84.0</ele><time>2026-04-05T14:35:37.924Z</time></trkpt><trkpt lat="40.12079740257629" lon="18.30253537758495"><ele>84.0</ele><time>2026-04-05T14:35:39.924Z</time></trkpt><trkpt lat="40.12073664397645" lon="18.302559096654782"><ele>84.0</ele><time>2026-04-05T14:35:40.924Z</time></trkpt><trkpt lat="40.12065434762618" lon="18.302615545787308"><ele>84.2</ele><time>2026-04-05T14:35:42.924Z</time></trkpt><trkpt lat="40.1205571926217" lon="18.302643978494505"><ele>84.4</ele><time>2026-04-05T14:35:44.924Z</time></trkpt><trkpt lat="40.12045989419071" lon="18.302692714545667"><ele>84.6</ele><time>2026-04-05T14:35:46.924Z</time></trkpt><trkpt lat="40.12035476672979" lon="18.302731186034435"><ele>84.8</ele><time>2026-04-05T14:35:48.924Z</time></trkpt><trkpt lat="40.120252559168954" lon="18.302770267053802"><ele>85.0</ele><time>2026-04-05T14:35:50.924Z</time></trkpt><trkpt lat="40.1201896652716" lon="18.30279740430535"><ele>85.0</ele><time>2026-04-05T14:35:51.924Z</time></trkpt><trkpt lat="40.12011544410061" lon="18.302824916365072"><ele>85.0</ele><time>2026-04-05T14:35:52.924Z</time></trkpt><trkpt lat="40.12004106327098" lon="18.302857824726537"><ele>85.0</ele><time>2026-04-05T14:35:53.924Z</time></trkpt><trkpt lat="40.119973466680925" lon="18.302882898405716"><ele>85.0</ele><time>2026-04-05T14:35:54.924Z</time></trkpt><trkpt lat="40.11991449232221" lon="18.302920305349588"><ele>85.0</ele><time>2026-04-05T14:35:55.924Z</time></trkpt><trkpt lat="40.11984744562722" lon="18.302951016227617"><ele>85.0</ele><time>2026-04-05T14:35:56.924Z</time></trkpt><trkpt lat="40.119779120643045" lon="18.302978573680445"><ele>85.0</ele><time>2026-04-05T14:35:57.924Z</time></trkpt><trkpt lat="40.11971723828937" lon="18.303000002662102"><ele>84.8</ele><time>2026-04-05T14:35:58.924Z</time></trkpt><trkpt lat="40.119613809948405" lon="18.303042839884696"><ele>84.6</ele><time>2026-04-05T14:36:00.924Z</time></trkpt><trkpt lat="40.1195033136863" lon="18.303103486216845"><ele>84.4</ele><time>2026-04-05T14:36:02.924Z</time></trkpt><trkpt lat="40.119427503746955" lon="18.303142234117683"><ele>84.2</ele><time>2026-04-05T14:36:03.924Z</time></trkpt><trkpt lat="40.11933223323846" lon="18.303179484835947"><ele>84.0</ele><time>2026-04-05T14:36:04.924Z</time></trkpt><trkpt lat="40.1192158208786" lon="18.303219477871338"><ele>84.0</ele><time>2026-04-05T14:36:05.924Z</time></trkpt><trkpt lat="40.11908465243813" lon="18.30327314808936"><ele>84.0</ele><time>2026-04-05T14:36:06.924Z</time></trkpt><trkpt lat="40.11895148013211" lon="18.30332636392898"><ele>84.0</ele><time>2026-04-05T14:36:07.924Z</time></trkpt><trkpt lat="40.11881507681655" lon="18.303363237659568"><ele>84.0</ele><time>2026-04-05T14:36:08.924Z</time></trkpt><trkpt lat="40.11869774457231" lon="18.30341490839329"><ele>83.75</ele><time>2026-04-05T14:36:09.924Z</time></trkpt><trkpt lat="40.11858466872515" lon="18.30345311804425"><ele>83.5</ele><time>2026-04-05T14:36:10.924Z</time></trkpt><trkpt lat="40.118476269973186" lon="18.30348682858038"><ele>83.25</ele><time>2026-04-05T14:36:11.924Z</time></trkpt><trkpt lat="40.11834336361938" lon="18.303500890736082"><ele>83.0</ele><time>2026-04-05T14:36:12.924Z</time></trkpt><trkpt lat="40.11821408836414" lon="18.30351297337961"><ele>83.0</ele><time>2026-04-05T14:36:13.924Z</time></trkpt><trkpt lat="40.11808654222379" lon="18.303536210408552"><ele>83.0</ele><time>2026-04-05T14:36:14.924Z</time></trkpt><trkpt lat="40.117959955665576" lon="18.303551312319467"><ele>83.0</ele><time>2026-04-05T14:36:15.924Z</time></trkpt><trkpt lat="40.11785476719034" lon="18.303562665415114"><ele>83.0</ele><time>2026-04-05T14:36:16.924Z</time></trkpt><trkpt lat="40.11777717325813" lon="18.30360722956447"><ele>83.0</ele><time>2026-04-05T14:36:17.924Z</time></trkpt><trkpt lat="40.11769755180133" lon="18.30366804868788"><ele>83.0</ele><time>2026-04-05T14:36:18.924Z</time></trkpt><trkpt lat="40.117617318597226" lon="18.30372903279095"><ele>83.0</ele><time>2026-04-05T14:36:19.924Z</time></trkpt><trkpt lat="40.117527647367545" lon="18.30379738542665"><ele>83.0</ele><time>2026-04-05T14:36:20.924Z</time></trkpt><trkpt lat="40.11744029264127" lon="18.303863852048003"><ele>83.0</ele><time>2026-04-05T14:36:21.924Z</time></trkpt><trkpt lat="40.117348853709935" lon="18.303917181043975"><ele>83.0</ele><time>2026-04-05T14:36:22.924Z</time></trkpt><trkpt lat="40.11726402274778" lon="18.303963510687236"><ele>83.14285714285714</ele><time>2026-04-05T14:36:23.924Z</time></trkpt><trkpt lat="40.11718455093668" lon="18.304004847879973"><ele>83.28571428571429</ele><time>2026-04-05T14:36:24.924Z</time></trkpt><trkpt lat="40.11711422275519" lon="18.304044069872464"><ele>83.42857142857143</ele><time>2026-04-05T14:36:25.924Z</time></trkpt><trkpt lat="40.11704239990193" lon="18.304081189422302"><ele>83.57142857142857</ele><time>2026-04-05T14:36:26.924Z</time></trkpt><trkpt lat="40.11697844494152" lon="18.304116069220644"><ele>83.71428571428572</ele><time>2026-04-05T14:36:27.924Z</time></trkpt><trkpt lat="40.116911379898816" lon="18.304145078955692"><ele>83.85714285714286</ele><time>2026-04-05T14:36:28.924Z</time></trkpt><trkpt lat="40.11685594238724" lon="18.304184748700603"><ele>84.0</ele><time>2026-04-05T14:36:29.924Z</time></trkpt><trkpt lat="40.11676490347765" lon="18.304249906032794"><ele>84.0</ele><time>2026-04-05T14:36:31.924Z</time></trkpt><trkpt lat="40.11666755211409" lon="18.304286097747383"><ele>84.0</ele><time>2026-04-05T14:36:33.924Z</time></trkpt><trkpt lat="40.11657983224621" lon="18.304330093756647"><ele>84.0</ele><time>2026-04-05T14:36:35.924Z</time></trkpt><trkpt lat="40.11652154894766" lon="18.30428076265408"><ele>84.0</ele><time>2026-04-05T14:36:37.924Z</time></trkpt><trkpt lat="40.11650182442851" lon="18.304189029645297"><ele>84.0</ele><time>2026-04-05T14:36:39.924Z</time></trkpt><trkpt lat="40.11650465940674" lon="18.30410627821499"><ele>84.0</ele><time>2026-04-05T14:36:40.924Z</time></trkpt><trkpt lat="40.11654900812253" lon="18.303984133183373"><ele>83.80000000000001</ele><time>2026-04-05T14:36:41.924Z</time></trkpt><trkpt lat="40.11658945001969" lon="18.30385580124405"><ele>83.60000000000001</ele><time>2026-04-05T14:36:42.924Z</time></trkpt><trkpt lat="40.11662963167281" lon="18.30372457385155"><ele>83.4</ele><time>2026-04-05T14:36:43.924Z</time></trkpt><trkpt lat="40.11666491306691" lon="18.303580259999144"><ele>83.2</ele><time>2026-04-05T14:36:44.924Z</time></trkpt><trkpt lat="40.11670035142482" lon="18.303450209932365"><ele>83.0</ele><time>2026-04-05T14:36:45.924Z</time></trkpt><trkpt lat="40.116727176309574" lon="18.303336898492145"><ele>83.0</ele><time>2026-04-05T14:36:46.924Z</time></trkpt><trkpt lat="40.11676489215309" lon="18.30324404910931"><ele>83.0</ele><time>2026-04-05T14:36:47.924Z</time></trkpt><trkpt lat="40.116799782194" lon="18.30313927752395"><ele>83.0</ele><time>2026-04-05T14:36:48.924Z</time></trkpt><trkpt lat="40.11687558015885" lon="18.303018954084333"><ele>83.0</ele><time>2026-04-05T14:36:49.924Z</time></trkpt><trkpt lat="40.116925318666716" lon="18.302844107983148"><ele>83.0</ele><time>2026-04-05T14:36:50.924Z</time></trkpt><trkpt lat="40.116979548442806" lon="18.302629144792466"><ele>83.0</ele><time>2026-04-05T14:36:51.924Z</time></trkpt><trkpt lat="40.11703066936594" lon="18.30240405116226"><ele>83.0</ele><time>2026-04-05T14:36:52.924Z</time></trkpt><trkpt lat="40.11708695251706" lon="18.302185273983326"><ele>83.0</ele><time>2026-04-05T14:36:53.924Z</time></trkpt><trkpt lat="40.11714999345555" lon="18.301971475975282"><ele>84.66666666666667</ele><time>2026-04-05T14:36:54.924Z</time></trkpt><trkpt lat="40.117201276897106" lon="18.30176302622613"><ele>86.33333333333333</ele><time>2026-04-05T14:36:55.924Z</time></trkpt><trkpt lat="40.11727906445434" lon="18.301596896690448"><ele>88.0</ele><time>2026-04-05T14:36:56.924Z</time></trkpt><trkpt lat="40.11734566592853" lon="18.301410827710853"><ele>87.60000000000001</ele><time>2026-04-05T14:36:57.924Z</time></trkpt><trkpt lat="40.11743026782467" lon="18.301255530225447"><ele>87.2</ele><time>2026-04-05T14:36:58.924Z</time></trkpt><trkpt lat="40.11749328185744" lon="18.301093277237452"><ele>86.8</ele><time>2026-04-05T14:36:59.924Z</time></trkpt><trkpt lat="40.117553951447775" lon="18.30103080645803"><ele>86.4</ele><time>2026-04-05T14:37:00.924Z</time></trkpt><trkpt lat="40.11761807873277" lon="18.301038816069596"><ele>86.0</ele><time>2026-04-05T14:37:01.924Z</time></trkpt><trkpt lat="40.11767865405054" lon="18.30094934288664"><ele>86.0</ele><time>2026-04-05T14:37:02.924Z</time></trkpt><trkpt lat="40.11772549861351" lon="18.300842351582983"><ele>86.0</ele><time>2026-04-05T14:37:03.924Z</time></trkpt><trkpt lat="40.11777214017811" lon="18.30073797725594"><ele>86.0</ele><time>2026-04-05T14:37:04.924Z</time></trkpt><trkpt lat="40.11780762388174" lon="18.30064582561897"><ele>86.0</ele><time>2026-04-05T14:37:05.924Z</time></trkpt><trkpt lat="40.117845963120224" lon="18.30053611651866"><ele>86.0</ele><time>2026-04-05T14:37:07.924Z</time></trkpt><trkpt lat="40.117911583912765" lon="18.300533140812238"><ele>86.0</ele><time>2026-04-05T14:37:09.924Z</time></trkpt><trkpt lat="40.11802338868295" lon="18.30061052452918"><ele>86.0</ele><time>2026-04-05T14:37:11.924Z</time></trkpt><trkpt lat="40.118113651580956" lon="18.300609638062856"><ele>86.0</ele><time>2026-04-05T14:37:13.924Z</time></trkpt><trkpt lat="40.11814043175171" lon="18.300509711039865"><ele>86.0</ele><time>2026-04-05T14:37:15.923Z</time></trkpt><trkpt lat="40.11812972628466" lon="18.300425315668303"><ele>86.0</ele><time>2026-04-05T14:37:16.924Z</time></trkpt><trkpt lat="40.11810597375147" lon="18.300335152317718"><ele>86.0</ele><time>2026-04-05T14:37:17.924Z</time></trkpt><trkpt lat="40.11808843415761" lon="18.300245623236233"><ele>86.0</ele><time>2026-04-05T14:37:18.924Z</time></trkpt><trkpt lat="40.11807788591652" lon="18.300152407272787"><ele>85.8</ele><time>2026-04-05T14:37:19.924Z</time></trkpt><trkpt lat="40.11806063147052" lon="18.30001085950034"><ele>85.6</ele><time>2026-04-05T14:37:21.923Z</time></trkpt><trkpt lat="40.118060749443714" lon="18.299900406427643"><ele>85.4</ele><time>2026-04-05T14:37:23.923Z</time></trkpt><trkpt lat="40.11811193787024" lon="18.299793958895286"><ele>85.2</ele><time>2026-04-05T14:37:25.923Z</time></trkpt><trkpt lat="40.11817901671722" lon="18.299733314720054"><ele>85.0</ele><time>2026-04-05T14:37:27.923Z</time></trkpt><trkpt lat="40.11829265565194" lon="18.299686070097508"><ele>84.6</ele><time>2026-04-05T14:37:29.923Z</time></trkpt><trkpt lat="40.118382845909224" lon="18.29966161458805"><ele>84.2</ele><time>2026-04-05T14:37:31.923Z</time></trkpt><trkpt lat="40.11848515571043" lon="18.29963368182283"><ele>83.80000000000001</ele><time>2026-04-05T14:37:33.923Z</time></trkpt><trkpt lat="40.118570926983814" lon="18.299590838221242"><ele>83.4</ele><time>2026-04-05T14:37:35.923Z</time></trkpt><trkpt lat="40.11856644445717" lon="18.299471357271436"><ele>83.0</ele><time>2026-04-05T14:37:37.923Z</time></trkpt><trkpt lat="40.11854194108706" lon="18.29934581677113"><ele>83.0</ele><time>2026-04-05T14:37:39.923Z</time></trkpt><trkpt lat="40.11853018936805" lon="18.2992348568045"><ele>83.0</ele><time>2026-04-05T14:37:42.923Z</time></trkpt><trkpt lat="40.11850752880094" lon="18.29912483922742"><ele>83.0</ele><time>2026-04-05T14:37:44.923Z</time></trkpt><trkpt lat="40.11847416427899" lon="18.298991274331808"><ele>83.0</ele><time>2026-04-05T14:37:46.923Z</time></trkpt><trkpt lat="40.118405254542566" lon="18.298916126045327"><ele>83.0</ele><time>2026-04-05T14:37:49.923Z</time></trkpt><trkpt lat="40.118276380570144" lon="18.2989145380712"><ele>83.0</ele><time>2026-04-05T14:37:51.923Z</time></trkpt><trkpt lat="40.11819259480942" lon="18.29892889808815"><ele>83.0</ele><time>2026-04-05T14:37:52.923Z</time></trkpt><trkpt lat="40.11809948781327" lon="18.29894421812446"><ele>83.0</ele><time>2026-04-05T14:37:53.923Z</time></trkpt><trkpt lat="40.11802649018473" lon="18.298951522602692"><ele>83.0</ele><time>2026-04-05T14:37:54.923Z</time></trkpt><trkpt lat="40.117943823008915" lon="18.298942931731624"><ele>83.0</ele><time>2026-04-05T14:37:56.923Z</time></trkpt><trkpt lat="40.11789994099173" lon="18.298850831584993"><ele>83.0</ele><time>2026-04-05T14:37:58.923Z</time></trkpt><trkpt lat="40.11787685062019" lon="18.298758682256697"><ele>83.25</ele><time>2026-04-05T14:37:59.923Z</time></trkpt><trkpt lat="40.11786538223908" lon="18.298617933036446"><ele>83.5</ele><time>2026-04-05T14:38:00.923Z</time></trkpt><trkpt lat="40.11785061799983" lon="18.29846544751914"><ele>83.75</ele><time>2026-04-05T14:38:01.923Z</time></trkpt><trkpt lat="40.11783748191845" lon="18.298297032993105"><ele>84.0</ele><time>2026-04-05T14:38:02.923Z</time></trkpt><trkpt lat="40.11782111923742" lon="18.298118824476287"><ele>84.0</ele><time>2026-04-05T14:38:03.923Z</time></trkpt><trkpt lat="40.11779565841837" lon="18.29797390444006"><ele>84.0</ele><time>2026-04-05T14:38:04.923Z</time></trkpt><trkpt lat="40.11779402449996" lon="18.29785919560841"><ele>84.0</ele><time>2026-04-05T14:38:05.923Z</time></trkpt><trkpt lat="40.11780899557658" lon="18.297755862869415"><ele>84.0</ele><time>2026-04-05T14:38:06.923Z</time></trkpt><trkpt lat="40.11784125412559" lon="18.29766073229816"><ele>84.0</ele><time>2026-04-05T14:38:07.923Z</time></trkpt><trkpt lat="40.11789601055342" lon="18.297563819080338"><ele>84.0</ele><time>2026-04-05T14:38:08.923Z</time></trkpt><trkpt lat="40.11797711165043" lon="18.297465677568674"><ele>84.0</ele><time>2026-04-05T14:38:09.923Z</time></trkpt><trkpt lat="40.11808227954856" lon="18.297360591501665"><ele>84.0</ele><time>2026-04-05T14:38:10.923Z</time></trkpt><trkpt lat="40.118212588831426" lon="18.297246558301328"><ele>84.0</ele><time>2026-04-05T14:38:11.923Z</time></trkpt><trkpt lat="40.11833729436789" lon="18.29712960975247"><ele>84.2</ele><time>2026-04-05T14:38:12.923Z</time></trkpt><trkpt lat="40.11844983691812" lon="18.297023424359526"><ele>84.4</ele><time>2026-04-05T14:38:13.923Z</time></trkpt><trkpt lat="40.11854892107244" lon="18.29692979640027"><ele>84.6</ele><time>2026-04-05T14:38:14.923Z</time></trkpt><trkpt lat="40.1186267732687" lon="18.296855551065903"><ele>84.8</ele><time>2026-04-05T14:38:15.923Z</time></trkpt><trkpt lat="40.11869004441315" lon="18.296800170200118"><ele>85.0</ele><time>2026-04-05T14:38:16.923Z</time></trkpt><trkpt lat="40.11876006535419" lon="18.296734860469826"><ele>85.0</ele><time>2026-04-05T14:38:18.923Z</time></trkpt><trkpt lat="40.11882186574704" lon="18.29670061258461"><ele>85.0</ele><time>2026-04-05T14:38:29.923Z</time></trkpt><trkpt lat="40.11887522340861" lon="18.29663420317906"><ele>85.0</ele><time>2026-04-05T14:38:32.923Z</time></trkpt><trkpt lat="40.11890578395802" lon="18.296557044894914"><ele>85.0</ele><time>2026-04-05T14:38:40.923Z</time></trkpt><trkpt lat="40.11889173138793" lon="18.29644123451418"><ele>85.0</ele><time>2026-04-05T14:38:42.923Z</time></trkpt><trkpt lat="40.118825881372615" lon="18.296316161077915"><ele>85.0</ele><time>2026-04-05T14:38:44.923Z</time></trkpt><trkpt lat="40.118747358530726" lon="18.296195904331395"><ele>85.2</ele><time>2026-04-05T14:38:46.923Z</time></trkpt><trkpt lat="40.118699492553105" lon="18.29610911895086"><ele>85.4</ele><time>2026-04-05T14:38:48.923Z</time></trkpt><trkpt lat="40.11864457211325" lon="18.296005662902804"><ele>85.6</ele><time>2026-04-05T14:38:50.923Z</time></trkpt><trkpt lat="40.118593034524366" lon="18.2959056773574"><ele>85.8</ele><time>2026-04-05T14:38:52.923Z</time></trkpt><trkpt lat="40.11854503202755" lon="18.2957944936992"><ele>86.0</ele><time>2026-04-05T14:38:54.923Z</time></trkpt><trkpt lat="40.11847908747586" lon="18.29568416331065"><ele>86.19999999999999</ele><time>2026-04-05T14:38:56.923Z</time></trkpt><trkpt lat="40.118412678448884" lon="18.295563831962998"><ele>86.39999999999999</ele><time>2026-04-05T14:38:58.923Z</time></trkpt><trkpt lat="40.11834680643067" lon="18.295416488913574"><ele>86.6</ele><time>2026-04-05T14:39:00.923Z</time></trkpt><trkpt lat="40.118300157876625" lon="18.295337985765517"><ele>86.8</ele><time>2026-04-05T14:39:01.923Z</time></trkpt><trkpt lat="40.118243018327966" lon="18.295245436413847"><ele>87.0</ele><time>2026-04-05T14:39:02.923Z</time></trkpt><trkpt lat="40.11817924008844" lon="18.29513580155506"><ele>87.0</ele><time>2026-04-05T14:39:03.923Z</time></trkpt><trkpt lat="40.11811844999418" lon="18.295033909995233"><ele>87.0</ele><time>2026-04-05T14:39:04.923Z</time></trkpt><trkpt lat="40.1180474049706" lon="18.294931606251186"><ele>87.0</ele><time>2026-04-05T14:39:05.923Z</time></trkpt><trkpt lat="40.117970285345294" lon="18.294824732487562"><ele>87.0</ele><time>2026-04-05T14:39:06.923Z</time></trkpt><trkpt lat="40.11789017023844" lon="18.294692685944067"><ele>87.0</ele><time>2026-04-05T14:39:07.923Z</time></trkpt><trkpt lat="40.117813565717015" lon="18.29454317740584"><ele>87.25</ele><time>2026-04-05T14:39:08.923Z</time></trkpt><trkpt lat="40.11773877440181" lon="18.294400718948527"><ele>87.5</ele><time>2026-04-05T14:39:09.923Z</time></trkpt><trkpt lat="40.11765924409681" lon="18.29426167803045"><ele>87.75</ele><time>2026-04-05T14:39:10.923Z</time></trkpt><trkpt lat="40.11759184779162" lon="18.294139219373175"><ele>88.0</ele><time>2026-04-05T14:39:11.923Z</time></trkpt><trkpt lat="40.1175279937714" lon="18.29402456415035"><ele>88.2</ele><time>2026-04-05T14:39:12.923Z</time></trkpt><trkpt lat="40.11746457815717" lon="18.293919240592324"><ele>88.4</ele><time>2026-04-05T14:39:13.923Z</time></trkpt><trkpt lat="40.11740088198208" lon="18.29381936714085"><ele>88.60000000000001</ele><time>2026-04-05T14:39:14.923Z</time></trkpt><trkpt lat="40.11733403406731" lon="18.293712492089593"><ele>88.80000000000001</ele><time>2026-04-05T14:39:15.923Z</time></trkpt><trkpt lat="40.117276631013524" lon="18.293608857826026"><ele>89.0</ele><time>2026-04-05T14:39:16.923Z</time></trkpt><trkpt lat="40.11722228630267" lon="18.293518537036746"><ele>89.2</ele><time>2026-04-05T14:39:17.922Z</time></trkpt><trkpt lat="40.1171759535165" lon="18.293442462227855"><ele>89.4</ele><time>2026-04-05T14:39:18.922Z</time></trkpt><trkpt lat="40.11711400328826" lon="18.293319625574156"><ele>89.6</ele><time>2026-04-05T14:39:20.923Z</time></trkpt><trkpt lat="40.11706934175398" lon="18.29322090159341"><ele>89.8</ele><time>2026-04-05T14:39:22.923Z</time></trkpt><trkpt lat="40.11701757624446" lon="18.29313522539356"><ele>90.0</ele><time>2026-04-05T14:39:25.922Z</time></trkpt><trkpt lat="40.11694667189606" lon="18.293038036381443"><ele>90.0</ele><time>2026-04-05T14:39:28.923Z</time></trkpt><trkpt lat="40.116869870744125" lon="18.29290476789044"><ele>90.0</ele><time>2026-04-05T14:39:30.923Z</time></trkpt><trkpt lat="40.116823620548516" lon="18.29281930700725"><ele>90.0</ele><time>2026-04-05T14:39:31.923Z</time></trkpt><trkpt lat="40.1167741382646" lon="18.292732245417145"><ele>90.0</ele><time>2026-04-05T14:39:32.923Z</time></trkpt><trkpt lat="40.11672586757017" lon="18.29264702833016"><ele>90.0</ele><time>2026-04-05T14:39:33.923Z</time></trkpt><trkpt lat="40.11668027276468" lon="18.292567172026104"><ele>90.0</ele><time>2026-04-05T14:39:34.923Z</time></trkpt><trkpt lat="40.116640027575194" lon="18.292496861064173"><ele>90.0</ele><time>2026-04-05T14:39:35.923Z</time></trkpt><trkpt lat="40.116598236568905" lon="18.2924178164071"><ele>90.0</ele><time>2026-04-05T14:39:36.923Z</time></trkpt><trkpt lat="40.11655584864226" lon="18.29234031579173"><ele>90.0</ele><time>2026-04-05T14:39:37.923Z</time></trkpt><trkpt lat="40.116512670663816" lon="18.29225955038216"><ele>90.0</ele><time>2026-04-05T14:39:38.923Z</time></trkpt><trkpt lat="40.11645906726596" lon="18.29217316825366"><ele>90.0</ele><time>2026-04-05T14:39:39.923Z</time></trkpt><trkpt lat="40.116404491660724" lon="18.292077784005215"><ele>90.0</ele><time>2026-04-05T14:39:40.923Z</time></trkpt><trkpt lat="40.11635372523685" lon="18.291977718325384"><ele>90.0</ele><time>2026-04-05T14:39:41.923Z</time></trkpt><trkpt lat="40.116303794563045" lon="18.29188406621452"><ele>90.0</ele><time>2026-04-05T14:39:42.923Z</time></trkpt><trkpt lat="40.11624928136409" lon="18.291785137028754"><ele>90.0</ele><time>2026-04-05T14:39:43.923Z</time></trkpt><trkpt lat="40.11618930133337" lon="18.29166814705017"><ele>90.0</ele><time>2026-04-05T14:39:44.923Z</time></trkpt><trkpt lat="40.11612121100772" lon="18.291545260682522"><ele>90.0</ele><time>2026-04-05T14:39:45.923Z</time></trkpt><trkpt lat="40.11604222899252" lon="18.29141069400459"><ele>90.0</ele><time>2026-04-05T14:39:46.923Z</time></trkpt><trkpt lat="40.11595497550449" lon="18.291257136366827"><ele>90.0</ele><time>2026-04-05T14:39:47.923Z</time></trkpt><trkpt lat="40.115860949935424" lon="18.291083883799708"><ele>90.0</ele><time>2026-04-05T14:39:48.923Z</time></trkpt><trkpt lat="40.11576487975564" lon="18.290906230133675"><ele>90.0</ele><time>2026-04-05T14:39:49.923Z</time></trkpt><trkpt lat="40.115666077818624" lon="18.290723303086164"><ele>90.0</ele><time>2026-04-05T14:39:50.923Z</time></trkpt><trkpt lat="40.115559370394124" lon="18.290532443719112"><ele>90.0</ele><time>2026-04-05T14:39:51.923Z</time></trkpt><trkpt lat="40.11545260141185" lon="18.290333265493143"><ele>89.33333333333333</ele><time>2026-04-05T14:39:52.923Z</time></trkpt><trkpt lat="40.11534877745543" lon="18.29014116980074"><ele>88.66666666666666</ele><time>2026-04-05T14:39:53.923Z</time></trkpt><trkpt lat="40.11523977741291" lon="18.289943648322883"><ele>88.0</ele><time>2026-04-05T14:39:54.923Z</time></trkpt><trkpt lat="40.115128683028175" lon="18.28973564809068"><ele>86.66666666666666</ele><time>2026-04-05T14:39:55.923Z</time></trkpt><trkpt lat="40.115010320908944" lon="18.289518961016423"><ele>85.33333333333333</ele><time>2026-04-05T14:39:56.923Z</time></trkpt><trkpt lat="40.11488328896361" lon="18.28929741663236"><ele>84.0</ele><time>2026-04-05T14:39:57.923Z</time></trkpt><trkpt lat="40.114757829699165" lon="18.28907702657328"><ele>83.0</ele><time>2026-04-05T14:39:58.923Z</time></trkpt><trkpt lat="40.1146292246809" lon="18.28885514142767"><ele>82.0</ele><time>2026-04-05T14:39:59.923Z</time></trkpt><trkpt lat="40.11449510514996" lon="18.288612267759405"><ele>81.0</ele><time>2026-04-05T14:40:00.923Z</time></trkpt><trkpt lat="40.11435696792923" lon="18.28835998432707"><ele>81.0</ele><time>2026-04-05T14:40:01.923Z</time></trkpt><trkpt lat="40.11422192604571" lon="18.2881029926223"><ele>81.0</ele><time>2026-04-05T14:40:02.923Z</time></trkpt><trkpt lat="40.11406771824432" lon="18.287813050704575"><ele>81.0</ele><time>2026-04-05T14:40:03.923Z</time></trkpt><trkpt lat="40.11390209154942" lon="18.287513006764463"><ele>81.0</ele><time>2026-04-05T14:40:04.923Z</time></trkpt><trkpt lat="40.11374435182961" lon="18.2872967440314"><ele>82.33333333333333</ele><time>2026-04-05T14:40:06.923Z</time></trkpt><trkpt lat="40.11362029901319" lon="18.287071311384363"><ele>83.66666666666666</ele><time>2026-04-05T14:40:07.923Z</time></trkpt><trkpt lat="40.11349468590221" lon="18.286841126698086"><ele>85.0</ele><time>2026-04-05T14:40:08.923Z</time></trkpt><trkpt lat="40.11336546202937" lon="18.286607060258746"><ele>83.5</ele><time>2026-04-05T14:40:09.923Z</time></trkpt><trkpt lat="40.11322876023663" lon="18.286360498664656"><ele>82.0</ele><time>2026-04-05T14:40:10.923Z</time></trkpt><trkpt lat="40.113086654478" lon="18.286103798231988"><ele>82.0</ele><time>2026-04-05T14:40:11.923Z</time></trkpt><trkpt lat="40.11293447363147" lon="18.285829626149226"><ele>82.0</ele><time>2026-04-05T14:40:12.923Z</time></trkpt><trkpt lat="40.11277317907071" lon="18.28554269729262"><ele>82.5</ele><time>2026-04-05T14:40:13.923Z</time></trkpt><trkpt lat="40.11260829487873" lon="18.285247726923732"><ele>83.0</ele><time>2026-04-05T14:40:14.923Z</time></trkpt><trkpt lat="40.11244840207562" lon="18.284955570920776"><ele>84.0</ele><time>2026-04-05T14:40:15.923Z</time></trkpt><trkpt lat="40.112285605145566" lon="18.284663965371905"><ele>85.0</ele><time>2026-04-05T14:40:16.923Z</time></trkpt><trkpt lat="40.112121438816295" lon="18.2843723241668"><ele>85.0</ele><time>2026-04-05T14:40:17.923Z</time></trkpt><trkpt lat="40.11195969677504" lon="18.284083520578843"><ele>85.0</ele><time>2026-04-05T14:40:18.923Z</time></trkpt><trkpt lat="40.111802320822164" lon="18.283808073078212"><ele>86.5</ele><time>2026-04-05T14:40:19.923Z</time></trkpt><trkpt lat="40.111659025809224" lon="18.283554612068873"><ele>88.0</ele><time>2026-04-05T14:40:20.923Z</time></trkpt><trkpt lat="40.11152426473561" lon="18.283314620805236"><ele>88.33333333333333</ele><time>2026-04-05T14:40:21.923Z</time></trkpt><trkpt lat="40.11139803341886" lon="18.283086092264174"><ele>88.66666666666667</ele><time>2026-04-05T14:40:22.923Z</time></trkpt><trkpt lat="40.11127662499716" lon="18.282873362759517"><ele>89.0</ele><time>2026-04-05T14:40:23.923Z</time></trkpt><trkpt lat="40.111164795342276" lon="18.28267344046979"><ele>89.0</ele><time>2026-04-05T14:40:24.923Z</time></trkpt><trkpt lat="40.11105832794988" lon="18.28248094257743"><ele>89.0</ele><time>2026-04-05T14:40:25.923Z</time></trkpt><trkpt lat="40.1109463462818" lon="18.282283453654316"><ele>89.0</ele><time>2026-04-05T14:40:26.923Z</time></trkpt><trkpt lat="40.11082913243098" lon="18.282079313756146"><ele>89.66666666666667</ele><time>2026-04-05T14:40:27.923Z</time></trkpt><trkpt lat="40.11071650110332" lon="18.28187184412686"><ele>90.33333333333333</ele><time>2026-04-05T14:40:28.923Z</time></trkpt><trkpt lat="40.11060166659129" lon="18.281654153351116"><ele>91.0</ele><time>2026-04-05T14:40:29.923Z</time></trkpt><trkpt lat="40.1104852566408" lon="18.28144632614634"><ele>90.66666666666666</ele><time>2026-04-05T14:40:30.923Z</time></trkpt><trkpt lat="40.11036085433756" lon="18.281237019788012"><ele>90.33333333333333</ele><time>2026-04-05T14:40:31.923Z</time></trkpt><trkpt lat="40.110234603811676" lon="18.281021380920055"><ele>90.0</ele><time>2026-04-05T14:40:32.923Z</time></trkpt><trkpt lat="40.11009998375078" lon="18.280798855715627"><ele>89.33333333333333</ele><time>2026-04-05T14:40:33.923Z</time></trkpt><trkpt lat="40.109975291175104" lon="18.28057437257111"><ele>88.66666666666666</ele><time>2026-04-05T14:40:34.923Z</time></trkpt><trkpt lat="40.10984685807896" lon="18.280344220489916"><ele>88.0</ele><time>2026-04-05T14:40:35.923Z</time></trkpt><trkpt lat="40.10971685049036" lon="18.280111912499542"><ele>87.5</ele><time>2026-04-05T14:40:36.923Z</time></trkpt><trkpt lat="40.10958311769748" lon="18.27987417221556"><ele>87.0</ele><time>2026-04-05T14:40:37.923Z</time></trkpt><trkpt lat="40.1094488760093" lon="18.279636418173485"><ele>86.0</ele><time>2026-04-05T14:40:38.923Z</time></trkpt><trkpt lat="40.10931208543673" lon="18.279392298840467"><ele>85.0</ele><time>2026-04-05T14:40:39.922Z</time></trkpt><trkpt lat="40.10917226414906" lon="18.27914539106192"><ele>82.5</ele><time>2026-04-05T14:40:40.922Z</time></trkpt><trkpt lat="40.10902853859163" lon="18.278897624184115"><ele>80.0</ele><time>2026-04-05T14:40:41.922Z</time></trkpt><trkpt lat="40.108883276003745" lon="18.278644449852557"><ele>80.0</ele><time>2026-04-05T14:40:42.922Z</time></trkpt><trkpt lat="40.10874001744948" lon="18.278381947421668"><ele>80.0</ele><time>2026-04-05T14:40:43.922Z</time></trkpt><trkpt lat="40.1085955576232" lon="18.278121539495338"><ele>79.5</ele><time>2026-04-05T14:40:44.922Z</time></trkpt><trkpt lat="40.108448543232704" lon="18.2778614432741"><ele>79.0</ele><time>2026-04-05T14:40:45.922Z</time></trkpt><trkpt lat="40.10830652271134" lon="18.277598492274414"><ele>80.0</ele><time>2026-04-05T14:40:46.922Z</time></trkpt><trkpt lat="40.108171290718666" lon="18.277345095584607"><ele>81.0</ele><time>2026-04-05T14:40:47.922Z</time></trkpt><trkpt lat="40.10804091029452" lon="18.277114811572275"><ele>81.0</ele><time>2026-04-05T14:40:48.922Z</time></trkpt><trkpt lat="40.10792144333143" lon="18.27689834903405"><ele>81.0</ele><time>2026-04-05T14:40:49.922Z</time></trkpt><trkpt lat="40.10780095422452" lon="18.276687792194533"><ele>81.0</ele><time>2026-04-05T14:40:50.922Z</time></trkpt><trkpt lat="40.10769041446245" lon="18.276488677880973"><ele>80.33333333333333</ele><time>2026-04-05T14:40:51.922Z</time></trkpt><trkpt lat="40.107578898654104" lon="18.27630664208843"><ele>79.66666666666666</ele><time>2026-04-05T14:40:52.922Z</time></trkpt><trkpt lat="40.107473131213034" lon="18.276117053980133"><ele>79.0</ele><time>2026-04-05T14:40:53.922Z</time></trkpt><trkpt lat="40.10736902147015" lon="18.2759350536346"><ele>79.0</ele><time>2026-04-05T14:40:54.922Z</time></trkpt><trkpt lat="40.107260101159916" lon="18.275747632107112"><ele>79.0</ele><time>2026-04-05T14:40:55.922Z</time></trkpt><trkpt lat="40.1071551209777" lon="18.2755549470092"><ele>79.0</ele><time>2026-04-05T14:40:56.922Z</time></trkpt><trkpt lat="40.1070469313801" lon="18.275365226444453"><ele>78.66666666666666</ele><time>2026-04-05T14:40:57.922Z</time></trkpt><trkpt lat="40.10693682528026" lon="18.27517181475494"><ele>78.33333333333333</ele><time>2026-04-05T14:40:58.922Z</time></trkpt><trkpt lat="40.106829319480184" lon="18.274974823852638"><ele>78.0</ele><time>2026-04-05T14:40:59.922Z</time></trkpt><trkpt lat="40.106722274275086" lon="18.274778464962328"><ele>77.66666666666667</ele><time>2026-04-05T14:41:00.922Z</time></trkpt><trkpt lat="40.10661622300408" lon="18.274576857104883"><ele>77.33333333333334</ele><time>2026-04-05T14:41:01.922Z</time></trkpt><trkpt lat="40.10651014611734" lon="18.274379169321755"><ele>77.0</ele><time>2026-04-05T14:41:02.922Z</time></trkpt><trkpt lat="40.10641068925294" lon="18.274179033026265"><ele>77.66666666666667</ele><time>2026-04-05T14:41:03.922Z</time></trkpt><trkpt lat="40.106319594459244" lon="18.273985107825467"><ele>78.33333333333333</ele><time>2026-04-05T14:41:04.922Z</time></trkpt><trkpt lat="40.10624889985459" lon="18.273797427156303"><ele>79.0</ele><time>2026-04-05T14:41:05.922Z</time></trkpt><trkpt lat="40.10619104547472" lon="18.273609796892746"><ele>79.0</ele><time>2026-04-05T14:41:06.922Z</time></trkpt><trkpt lat="40.10613805086518" lon="18.2734226869712"><ele>79.0</ele><time>2026-04-05T14:41:07.922Z</time></trkpt><trkpt lat="40.10608346679362" lon="18.2732331381916"><ele>79.0</ele><time>2026-04-05T14:41:08.922Z</time></trkpt><trkpt lat="40.106044536517004" lon="18.273046158791793"><ele>79.25</ele><time>2026-04-05T14:41:09.922Z</time></trkpt><trkpt lat="40.106018185402206" lon="18.272857222708602"><ele>79.5</ele><time>2026-04-05T14:41:10.922Z</time></trkpt><trkpt lat="40.10601142590477" lon="18.272684942656475"><ele>79.75</ele><time>2026-04-05T14:41:11.922Z</time></trkpt><trkpt lat="40.10601498694624" lon="18.27253390886878"><ele>80.0</ele><time>2026-04-05T14:41:12.922Z</time></trkpt><trkpt lat="40.10603481452863" lon="18.272404412378787"><ele>80.0</ele><time>2026-04-05T14:41:13.922Z</time></trkpt><trkpt lat="40.10607033345174" lon="18.272286733548647"><ele>80.0</ele><time>2026-04-05T14:41:14.922Z</time></trkpt><trkpt lat="40.10612887033371" lon="18.272193041555823"><ele>80.0</ele><time>2026-04-05T14:41:15.922Z</time></trkpt><trkpt lat="40.10618953769735" lon="18.27211863063835"><ele>80.0</ele><time>2026-04-05T14:41:16.922Z</time></trkpt><trkpt lat="40.106248378332594" lon="18.272065902023638"><ele>80.0</ele><time>2026-04-05T14:41:17.922Z</time></trkpt><trkpt lat="40.10633474802394" lon="18.272014488259096"><ele>80.0</ele><time>2026-04-05T14:41:19.922Z</time></trkpt><trkpt lat="40.10634855992528" lon="18.2719217671819"><ele>80.25</ele><time>2026-04-05T14:41:22.922Z</time></trkpt><trkpt lat="40.10625319279413" lon="18.2718448813039"><ele>80.5</ele><time>2026-04-05T14:41:24.921Z</time></trkpt><trkpt lat="40.106151167817124" lon="18.27182148011008"><ele>80.75</ele><time>2026-04-05T14:41:25.922Z</time></trkpt><trkpt lat="40.10603286297855" lon="18.271788303342714"><ele>81.0</ele><time>2026-04-05T14:41:26.921Z</time></trkpt><trkpt lat="40.10589772432812" lon="18.27173345707857"><ele>80.66666666666667</ele><time>2026-04-05T14:41:27.921Z</time></trkpt><trkpt lat="40.10572941607014" lon="18.271651044602734"><ele>80.33333333333334</ele><time>2026-04-05T14:41:28.922Z</time></trkpt><trkpt lat="40.10554863550082" lon="18.27156242349747"><ele>80.0</ele><time>2026-04-05T14:41:29.922Z</time></trkpt><trkpt lat="40.105343322719335" lon="18.27145143862403"><ele>79.66666666666667</ele><time>2026-04-05T14:41:30.922Z</time></trkpt><trkpt lat="40.105151129981685" lon="18.27133205045687"><ele>79.33333333333333</ele><time>2026-04-05T14:41:31.922Z</time></trkpt><trkpt lat="40.104955308623026" lon="18.27117493672072"><ele>79.0</ele><time>2026-04-05T14:41:32.921Z</time></trkpt><trkpt lat="40.104765278498945" lon="18.27099823539281"><ele>79.0</ele><time>2026-04-05T14:41:33.921Z</time></trkpt><trkpt lat="40.10460125701657" lon="18.270816599852903"><ele>79.0</ele><time>2026-04-05T14:41:34.922Z</time></trkpt><trkpt lat="40.10443948183304" lon="18.270615559089702"><ele>79.0</ele><time>2026-04-05T14:41:35.922Z</time></trkpt><trkpt lat="40.104286782760035" lon="18.27039343087171"><ele>79.0</ele><time>2026-04-05T14:41:36.922Z</time></trkpt><trkpt lat="40.10413627993835" lon="18.270141020297007"><ele>79.0</ele><time>2026-04-05T14:41:37.922Z</time></trkpt><trkpt lat="40.103994768260705" lon="18.269882007907345"><ele>79.5</ele><time>2026-04-05T14:41:38.922Z</time></trkpt><trkpt lat="40.103851906686025" lon="18.269619449820958"><ele>80.0</ele><time>2026-04-05T14:41:39.922Z</time></trkpt><trkpt lat="40.10370950736992" lon="18.269367755340273"><ele>80.0</ele><time>2026-04-05T14:41:40.922Z</time></trkpt><trkpt lat="40.1035615493091" lon="18.269111119592885"><ele>80.0</ele><time>2026-04-05T14:41:41.922Z</time></trkpt><trkpt lat="40.10341462516241" lon="18.26885175938381"><ele>80.5</ele><time>2026-04-05T14:41:42.922Z</time></trkpt><trkpt lat="40.10326699030705" lon="18.268587387104315"><ele>81.0</ele><time>2026-04-05T14:41:43.922Z</time></trkpt><trkpt lat="40.10311982938689" lon="18.268326908891662"><ele>82.5</ele><time>2026-04-05T14:41:44.922Z</time></trkpt><trkpt lat="40.10297353260335" lon="18.268069169989257"><ele>84.0</ele><time>2026-04-05T14:41:45.922Z</time></trkpt><trkpt lat="40.10283241141068" lon="18.26781248184417"><ele>84.0</ele><time>2026-04-05T14:41:46.922Z</time></trkpt><trkpt lat="40.10268953745437" lon="18.26755422304796"><ele>84.0</ele><time>2026-04-05T14:41:47.922Z</time></trkpt><trkpt lat="40.10254297414019" lon="18.267296588085866"><ele>85.0</ele><time>2026-04-05T14:41:48.922Z</time></trkpt><trkpt lat="40.10239926333853" lon="18.267041917973554"><ele>86.0</ele><time>2026-04-05T14:41:49.922Z</time></trkpt><trkpt lat="40.1022519225055" lon="18.266782159791035"><ele>86.0</ele><time>2026-04-05T14:41:50.922Z</time></trkpt><trkpt lat="40.10210702583162" lon="18.266524624910478"><ele>86.0</ele><time>2026-04-05T14:41:51.922Z</time></trkpt><trkpt lat="40.101961617218976" lon="18.26626528299233"><ele>86.0</ele><time>2026-04-05T14:41:52.922Z</time></trkpt><trkpt lat="40.1018167324274" lon="18.266006307199632"><ele>86.0</ele><time>2026-04-05T14:41:53.922Z</time></trkpt><trkpt lat="40.10167561789526" lon="18.26575316513295"><ele>85.0</ele><time>2026-04-05T14:41:54.922Z</time></trkpt><trkpt lat="40.10153901186914" lon="18.26550394298533"><ele>84.0</ele><time>2026-04-05T14:41:55.922Z</time></trkpt><trkpt lat="40.10140227452964" lon="18.265256021012263"><ele>84.0</ele><time>2026-04-05T14:41:56.922Z</time></trkpt><trkpt lat="40.101267747509766" lon="18.26501804226977"><ele>84.0</ele><time>2026-04-05T14:41:57.922Z</time></trkpt><trkpt lat="40.10113212251502" lon="18.264779252538325"><ele>83.5</ele><time>2026-04-05T14:41:58.922Z</time></trkpt><trkpt lat="40.10099497722681" lon="18.264539867254094"><ele>83.0</ele><time>2026-04-05T14:41:59.922Z</time></trkpt><trkpt lat="40.10085780239264" lon="18.264300816928987"><ele>83.33333333333334</ele><time>2026-04-05T14:42:00.922Z</time></trkpt><trkpt lat="40.10072590177049" lon="18.264063367236286"><ele>83.66666666666667</ele><time>2026-04-05T14:42:01.922Z</time></trkpt><trkpt lat="40.100593462944744" lon="18.263828022124738"><ele>84.0</ele><time>2026-04-05T14:42:02.922Z</time></trkpt><trkpt lat="40.100459017111966" lon="18.263589461402415"><ele>84.0</ele><time>2026-04-05T14:42:03.922Z</time></trkpt><trkpt lat="40.10032828015234" lon="18.263351484079905"><ele>84.0</ele><time>2026-04-05T14:42:04.922Z</time></trkpt><trkpt lat="40.10019551275365" lon="18.263113412461564"><ele>84.0</ele><time>2026-04-05T14:42:05.922Z</time></trkpt><trkpt lat="40.10006076289421" lon="18.262868630982716"><ele>84.0</ele><time>2026-04-05T14:42:06.922Z</time></trkpt><trkpt lat="40.09992307268466" lon="18.262625952849966"><ele>84.0</ele><time>2026-04-05T14:42:07.922Z</time></trkpt><trkpt lat="40.099780191433176" lon="18.262379688819333"><ele>83.0</ele><time>2026-04-05T14:42:08.922Z</time></trkpt><trkpt lat="40.09963716410138" lon="18.262114448292902"><ele>82.0</ele><time>2026-04-05T14:42:09.922Z</time></trkpt><trkpt lat="40.0994893667958" lon="18.261849056212725"><ele>82.0</ele><time>2026-04-05T14:42:10.922Z</time></trkpt><trkpt lat="40.09933876338637" lon="18.261586667894143"><ele>82.0</ele><time>2026-04-05T14:42:11.922Z</time></trkpt><trkpt lat="40.09918447392849" lon="18.26132113103216"><ele>82.5</ele><time>2026-04-05T14:42:12.922Z</time></trkpt><trkpt lat="40.09903785843465" lon="18.261055538352753"><ele>83.0</ele><time>2026-04-05T14:42:13.922Z</time></trkpt><trkpt lat="40.098897046795926" lon="18.26079794141142"><ele>84.0</ele><time>2026-04-05T14:42:14.922Z</time></trkpt><trkpt lat="40.09876515478892" lon="18.260552187341986"><ele>85.0</ele><time>2026-04-05T14:42:15.922Z</time></trkpt><trkpt lat="40.09863057097516" lon="18.26031126880694"><ele>85.0</ele><time>2026-04-05T14:42:16.922Z</time></trkpt><trkpt lat="40.09849252627126" lon="18.260074013460667"><ele>85.0</ele><time>2026-04-05T14:42:17.922Z</time></trkpt><trkpt lat="40.0983615660627" lon="18.259834283232635"><ele>86.0</ele><time>2026-04-05T14:42:18.922Z</time></trkpt><trkpt lat="40.09822339254989" lon="18.25959474977451"><ele>87.0</ele><time>2026-04-05T14:42:19.922Z</time></trkpt><trkpt lat="40.09808731182548" lon="18.259354186421167"><ele>87.0</ele><time>2026-04-05T14:42:20.922Z</time></trkpt><trkpt lat="40.09795116733433" lon="18.259115522015538"><ele>87.0</ele><time>2026-04-05T14:42:21.922Z</time></trkpt><trkpt lat="40.097813768268956" lon="18.258879220667264"><ele>87.5</ele><time>2026-04-05T14:42:22.922Z</time></trkpt><trkpt lat="40.09768228983664" lon="18.258641520542174"><ele>88.0</ele><time>2026-04-05T14:42:23.922Z</time></trkpt><trkpt lat="40.0975465455675" lon="18.258405258453916"><ele>91.5</ele><time>2026-04-05T14:42:24.922Z</time></trkpt><trkpt lat="40.097414745440844" lon="18.25816815719358"><ele>95.0</ele><time>2026-04-05T14:42:25.922Z</time></trkpt><trkpt lat="40.09727905772825" lon="18.25792585448399"><ele>95.0</ele><time>2026-04-05T14:42:26.922Z</time></trkpt><trkpt lat="40.09714446030648" lon="18.257686175953737"><ele>95.0</ele><time>2026-04-05T14:42:27.922Z</time></trkpt><trkpt lat="40.09700742086505" lon="18.257448752325335"><ele>92.5</ele><time>2026-04-05T14:42:28.922Z</time></trkpt><trkpt lat="40.096868474857374" lon="18.257203608189112"><ele>90.0</ele><time>2026-04-05T14:42:29.922Z</time></trkpt><trkpt lat="40.0967350258366" lon="18.25695476726927"><ele>90.0</ele><time>2026-04-05T14:42:30.922Z</time></trkpt><trkpt lat="40.09659760740507" lon="18.256710405634326"><ele>90.0</ele><time>2026-04-05T14:42:31.922Z</time></trkpt><trkpt lat="40.09645609116928" lon="18.25646681398906"><ele>88.5</ele><time>2026-04-05T14:42:32.922Z</time></trkpt><trkpt lat="40.096315876919675" lon="18.256214634314976"><ele>87.0</ele><time>2026-04-05T14:42:33.922Z</time></trkpt><trkpt lat="40.09617989143338" lon="18.25596061741392"><ele>87.0</ele><time>2026-04-05T14:42:34.922Z</time></trkpt><trkpt lat="40.09603631002074" lon="18.25570658874927"><ele>87.0</ele><time>2026-04-05T14:42:35.922Z</time></trkpt><trkpt lat="40.09589119904292" lon="18.255452766360232"><ele>86.0</ele><time>2026-04-05T14:42:36.922Z</time></trkpt><trkpt lat="40.09574884469751" lon="18.25519676047538"><ele>85.0</ele><time>2026-04-05T14:42:37.922Z</time></trkpt><trkpt lat="40.09560579916252" lon="18.254941674592516"><ele>87.0</ele><time>2026-04-05T14:42:38.922Z</time></trkpt><trkpt lat="40.095458762570836" lon="18.25467108426692"><ele>89.0</ele><time>2026-04-05T14:42:39.922Z</time></trkpt><trkpt lat="40.09531316995142" lon="18.25440852680396"><ele>89.0</ele><time>2026-04-05T14:42:40.922Z</time></trkpt><trkpt lat="40.09515577331982" lon="18.254140014240246"><ele>89.0</ele><time>2026-04-05T14:42:41.922Z</time></trkpt><trkpt lat="40.09500698210595" lon="18.253862231343827"><ele>88.0</ele><time>2026-04-05T14:42:42.922Z</time></trkpt><trkpt lat="40.094846289096026" lon="18.25358283239386"><ele>87.0</ele><time>2026-04-05T14:42:43.922Z</time></trkpt><trkpt lat="40.09468541408427" lon="18.25329659503021"><ele>87.5</ele><time>2026-04-05T14:42:44.921Z</time></trkpt><trkpt lat="40.09452410125433" lon="18.25301257547053"><ele>88.0</ele><time>2026-04-05T14:42:45.921Z</time></trkpt><trkpt lat="40.094363637939125" lon="18.252720125454925"><ele>88.0</ele><time>2026-04-05T14:42:46.921Z</time></trkpt><trkpt lat="40.09420571543409" lon="18.25243340943159"><ele>88.0</ele><time>2026-04-05T14:42:47.921Z</time></trkpt><trkpt lat="40.09404065668833" lon="18.25214745393433"><ele>88.0</ele><time>2026-04-05T14:42:48.921Z</time></trkpt><trkpt lat="40.09388093645658" lon="18.251861439532213"><ele>88.0</ele><time>2026-04-05T14:42:49.921Z</time></trkpt><trkpt lat="40.09372307077735" lon="18.251574061298278"><ele>88.0</ele><time>2026-04-05T14:42:50.921Z</time></trkpt><trkpt lat="40.093566514444284" lon="18.25129277707896"><ele>88.0</ele><time>2026-04-05T14:42:51.921Z</time></trkpt><trkpt lat="40.093413947104246" lon="18.25101236138807"><ele>88.0</ele><time>2026-04-05T14:42:52.921Z</time></trkpt><trkpt lat="40.09326060802477" lon="18.250733727616726"><ele>88.0</ele><time>2026-04-05T14:42:53.921Z</time></trkpt><trkpt lat="40.093108807480114" lon="18.250456034489517"><ele>88.0</ele><time>2026-04-05T14:42:54.921Z</time></trkpt><trkpt lat="40.09295760764415" lon="18.25018190732008"><ele>88.0</ele><time>2026-04-05T14:42:55.921Z</time></trkpt><trkpt lat="40.092809022302525" lon="18.24991277237884"><ele>89.0</ele><time>2026-04-05T14:42:56.921Z</time></trkpt><trkpt lat="40.09265971791274" lon="18.249639724731804"><ele>90.0</ele><time>2026-04-05T14:42:57.921Z</time></trkpt><trkpt lat="40.09251218463367" lon="18.249369613834205"><ele>90.0</ele><time>2026-04-05T14:42:58.921Z</time></trkpt><trkpt lat="40.09236269710616" lon="18.24910188670516"><ele>90.0</ele><time>2026-04-05T14:42:59.921Z</time></trkpt><trkpt lat="40.09221451549991" lon="18.248834210788715"><ele>90.5</ele><time>2026-04-05T14:43:00.921Z</time></trkpt><trkpt lat="40.092066065244836" lon="18.248565414233592"><ele>91.0</ele><time>2026-04-05T14:43:01.921Z</time></trkpt><trkpt lat="40.09191606742617" lon="18.2482967164048"><ele>90.0</ele><time>2026-04-05T14:43:02.921Z</time></trkpt><trkpt lat="40.09176812714906" lon="18.24803747207944"><ele>89.0</ele><time>2026-04-05T14:43:03.921Z</time></trkpt><trkpt lat="40.09162312344491" lon="18.24778590617692"><ele>89.5</ele><time>2026-04-05T14:43:04.921Z</time></trkpt><trkpt lat="40.0914841297765" lon="18.2475389745536"><ele>90.0</ele><time>2026-04-05T14:43:05.921Z</time></trkpt><trkpt lat="40.09134752694216" lon="18.247293651034884"><ele>90.0</ele><time>2026-04-05T14:43:06.921Z</time></trkpt><trkpt lat="40.091208291351926" lon="18.24704586678751"><ele>90.0</ele><time>2026-04-05T14:43:07.921Z</time></trkpt><trkpt lat="40.09106979319777" lon="18.246800815347783"><ele>90.0</ele><time>2026-04-05T14:43:08.921Z</time></trkpt><trkpt lat="40.09093301100465" lon="18.246555720729372"><ele>90.0</ele><time>2026-04-05T14:43:09.921Z</time></trkpt><trkpt lat="40.09079491470722" lon="18.246306549418332"><ele>92.5</ele><time>2026-04-05T14:43:10.921Z</time></trkpt><trkpt lat="40.09065334434453" lon="18.24605232575956"><ele>95.0</ele><time>2026-04-05T14:43:11.921Z</time></trkpt><trkpt lat="40.09051004404793" lon="18.245794650724356"><ele>94.0</ele><time>2026-04-05T14:43:12.921Z</time></trkpt><trkpt lat="40.09036550218034" lon="18.24553613728764"><ele>93.0</ele><time>2026-04-05T14:43:13.921Z</time></trkpt><trkpt lat="40.090214526877936" lon="18.245272398680076"><ele>93.0</ele><time>2026-04-05T14:43:14.921Z</time></trkpt><trkpt lat="40.090056982790585" lon="18.245008469884265"><ele>93.0</ele><time>2026-04-05T14:43:15.921Z</time></trkpt><trkpt lat="40.08989838209201" lon="18.244742265407858"><ele>95.0</ele><time>2026-04-05T14:43:16.921Z</time></trkpt><trkpt lat="40.08973921881111" lon="18.24446739945094"><ele>97.0</ele><time>2026-04-05T14:43:17.921Z</time></trkpt><trkpt lat="40.08958709106028" lon="18.244192570138765"><ele>97.0</ele><time>2026-04-05T14:43:18.921Z</time></trkpt><trkpt lat="40.08943976765593" lon="18.243918701335836"><ele>97.0</ele><time>2026-04-05T14:43:19.921Z</time></trkpt><trkpt lat="40.089289741529676" lon="18.243644504077654"><ele>97.0</ele><time>2026-04-05T14:43:20.921Z</time></trkpt><trkpt lat="40.08912759042566" lon="18.243362652228548"><ele>97.0</ele><time>2026-04-05T14:43:21.921Z</time></trkpt><trkpt lat="40.08895016590039" lon="18.243053573401635"><ele>97.5</ele><time>2026-04-05T14:43:22.921Z</time></trkpt><trkpt lat="40.08876176142014" lon="18.242722679462595"><ele>98.0</ele><time>2026-04-05T14:43:23.921Z</time></trkpt><trkpt lat="40.08856161818242" lon="18.242372381647485"><ele>98.5</ele><time>2026-04-05T14:43:24.921Z</time></trkpt><trkpt lat="40.088415987463044" lon="18.242119538604634"><ele>99.0</ele><time>2026-04-05T14:43:25.921Z</time></trkpt><trkpt lat="40.08823937962924" lon="18.241799101595984"><ele>100.0</ele><time>2026-04-05T14:43:26.921Z</time></trkpt><trkpt lat="40.088069541130096" lon="18.241474533195753"><ele>101.0</ele><time>2026-04-05T14:43:27.921Z</time></trkpt><trkpt lat="40.08789982550924" lon="18.241153718966338"><ele>102.0</ele><time>2026-04-05T14:43:28.921Z</time></trkpt><trkpt lat="40.0877277400524" lon="18.240833594246034"><ele>103.0</ele><time>2026-04-05T14:43:29.921Z</time></trkpt><trkpt lat="40.08755424893124" lon="18.24051994349606"><ele>104.0</ele><time>2026-04-05T14:43:30.921Z</time></trkpt><trkpt lat="40.08737787339992" lon="18.240213623973073"><ele>105.0</ele><time>2026-04-05T14:43:31.921Z</time></trkpt><trkpt lat="40.08720303517366" lon="18.23990885172276"><ele>105.5</ele><time>2026-04-05T14:43:32.921Z</time></trkpt><trkpt lat="40.08702867306084" lon="18.239599509588402"><ele>106.0</ele><time>2026-04-05T14:43:33.921Z</time></trkpt><trkpt lat="40.0868556147536" lon="18.239294136183705"><ele>106.0</ele><time>2026-04-05T14:43:34.921Z</time></trkpt><trkpt lat="40.08668556309335" lon="18.238988863781493"><ele>106.0</ele><time>2026-04-05T14:43:35.921Z</time></trkpt><trkpt lat="40.0865156991117" lon="18.23869046623447"><ele>106.0</ele><time>2026-04-05T14:43:36.921Z</time></trkpt><trkpt lat="40.08634744231249" lon="18.23839013229672"><ele>106.0</ele><time>2026-04-05T14:43:37.921Z</time></trkpt><trkpt lat="40.086181033784115" lon="18.23809186748992"><ele>106.0</ele><time>2026-04-05T14:43:38.921Z</time></trkpt><trkpt lat="40.08601748446116" lon="18.23779810265216"><ele>106.0</ele><time>2026-04-05T14:43:39.921Z</time></trkpt><trkpt lat="40.085859991197395" lon="18.237502135812463"><ele>106.5</ele><time>2026-04-05T14:43:40.92Z</time></trkpt><trkpt lat="40.08569865666993" lon="18.2372101378372"><ele>107.0</ele><time>2026-04-05T14:43:41.921Z</time></trkpt><trkpt lat="40.08553818446156" lon="18.236919227289967"><ele>107.0</ele><time>2026-04-05T14:43:42.921Z</time></trkpt><trkpt lat="40.08537841026998" lon="18.236631019343324"><ele>107.0</ele><time>2026-04-05T14:43:43.921Z</time></trkpt><trkpt lat="40.08521773226521" lon="18.236342875707038"><ele>107.5</ele><time>2026-04-05T14:43:44.921Z</time></trkpt><trkpt lat="40.08505689717586" lon="18.236054554174597"><ele>108.0</ele><time>2026-04-05T14:43:45.921Z</time></trkpt><trkpt lat="40.08489956752108" lon="18.235771657329703"><ele>107.5</ele><time>2026-04-05T14:43:46.921Z</time></trkpt><trkpt lat="40.08473939696676" lon="18.235485839764795"><ele>107.0</ele><time>2026-04-05T14:43:47.921Z</time></trkpt><trkpt lat="40.08457621282691" lon="18.235216285522583"><ele>107.0</ele><time>2026-04-05T14:43:48.921Z</time></trkpt><trkpt lat="40.08442030960368" lon="18.23493063663623"><ele>107.0</ele><time>2026-04-05T14:43:49.921Z</time></trkpt><trkpt lat="40.08426091569919" lon="18.23464276599102"><ele>107.0</ele><time>2026-04-05T14:43:50.921Z</time></trkpt><trkpt lat="40.08410504538469" lon="18.234361484047728"><ele>107.0</ele><time>2026-04-05T14:43:51.921Z</time></trkpt><trkpt lat="40.083947468967445" lon="18.23408308665976"><ele>107.0</ele><time>2026-04-05T14:43:52.921Z</time></trkpt><trkpt lat="40.08379087222275" lon="18.233804744367674"><ele>107.0</ele><time>2026-04-05T14:43:53.921Z</time></trkpt><trkpt lat="40.083638117409365" lon="18.233525421747174"><ele>107.0</ele><time>2026-04-05T14:43:54.921Z</time></trkpt><trkpt lat="40.083479793985276" lon="18.233243125430228"><ele>107.0</ele><time>2026-04-05T14:43:55.921Z</time></trkpt><trkpt lat="40.08332305190585" lon="18.23296649671988"><ele>107.5</ele><time>2026-04-05T14:43:56.921Z</time></trkpt><trkpt lat="40.083164798326244" lon="18.23268767593748"><ele>108.0</ele><time>2026-04-05T14:43:57.921Z</time></trkpt><trkpt lat="40.08301274672266" lon="18.232408864707036"><ele>108.5</ele><time>2026-04-05T14:43:58.921Z</time></trkpt><trkpt lat="40.082859543503275" lon="18.232130757566992"><ele>109.0</ele><time>2026-04-05T14:43:59.921Z</time></trkpt><trkpt lat="40.08270187223495" lon="18.231853902095697"><ele>109.0</ele><time>2026-04-05T14:44:00.921Z</time></trkpt><trkpt lat="40.082542191842336" lon="18.231579705836193"><ele>109.0</ele><time>2026-04-05T14:44:01.921Z</time></trkpt><trkpt lat="40.082386610543146" lon="18.231310181184195"><ele>109.5</ele><time>2026-04-05T14:44:02.921Z</time></trkpt><trkpt lat="40.082231785311286" lon="18.231030668311135"><ele>110.0</ele><time>2026-04-05T14:44:03.921Z</time></trkpt><trkpt lat="40.08207806473432" lon="18.230746089717847"><ele>110.0</ele><time>2026-04-05T14:44:04.921Z</time></trkpt><trkpt lat="40.08192208903062" lon="18.230462022908885"><ele>110.0</ele><time>2026-04-05T14:44:05.921Z</time></trkpt><trkpt lat="40.081762883560444" lon="18.230174520887974"><ele>110.0</ele><time>2026-04-05T14:44:06.921Z</time></trkpt><trkpt lat="40.08160185581067" lon="18.229896048059828"><ele>110.0</ele><time>2026-04-05T14:44:07.921Z</time></trkpt><trkpt lat="40.08144216486966" lon="18.22961850634634"><ele>109.0</ele><time>2026-04-05T14:44:08.921Z</time></trkpt><trkpt lat="40.08128340741403" lon="18.229336706744846"><ele>108.0</ele><time>2026-04-05T14:44:09.921Z</time></trkpt><trkpt lat="40.08113020351182" lon="18.22905440166229"><ele>107.0</ele><time>2026-04-05T14:44:10.921Z</time></trkpt><trkpt lat="40.08097146213016" lon="18.22876996924251"><ele>106.0</ele><time>2026-04-05T14:44:11.92Z</time></trkpt><trkpt lat="40.08080722387095" lon="18.228485204635245"><ele>105.5</ele><time>2026-04-05T14:44:12.92Z</time></trkpt><trkpt lat="40.080646401184644" lon="18.22820324202074"><ele>105.0</ele><time>2026-04-05T14:44:13.92Z</time></trkpt><trkpt lat="40.08048751478945" lon="18.227922896772135"><ele>106.0</ele><time>2026-04-05T14:44:14.92Z</time></trkpt><trkpt lat="40.080330871390885" lon="18.22764902107303"><ele>107.0</ele><time>2026-04-05T14:44:15.92Z</time></trkpt><trkpt lat="40.080174327596474" lon="18.227371002279437"><ele>107.5</ele><time>2026-04-05T14:44:16.92Z</time></trkpt><trkpt lat="40.08001795205664" lon="18.227093055988078"><ele>108.0</ele><time>2026-04-05T14:44:17.92Z</time></trkpt><trkpt lat="40.07986356378394" lon="18.226821528259418"><ele>108.0</ele><time>2026-04-05T14:44:18.92Z</time></trkpt><trkpt lat="40.07970835071504" lon="18.22654923089382"><ele>108.0</ele><time>2026-04-05T14:44:19.92Z</time></trkpt><trkpt lat="40.07955004524833" lon="18.22627928313103"><ele>108.5</ele><time>2026-04-05T14:44:20.92Z</time></trkpt><trkpt lat="40.07939111690859" lon="18.22601104476251"><ele>109.0</ele><time>2026-04-05T14:44:21.92Z</time></trkpt><trkpt lat="40.07924086356127" lon="18.225734464803278"><ele>109.0</ele><time>2026-04-05T14:44:22.92Z</time></trkpt><trkpt lat="40.079094511583996" lon="18.22545520098743"><ele>109.0</ele><time>2026-04-05T14:44:23.92Z</time></trkpt><trkpt lat="40.07894136999988" lon="18.225179328966608"><ele>109.0</ele><time>2026-04-05T14:44:24.92Z</time></trkpt><trkpt lat="40.078785833996065" lon="18.224905572280626"><ele>109.0</ele><time>2026-04-05T14:44:25.92Z</time></trkpt><trkpt lat="40.07862907710605" lon="18.22463369656317"><ele>109.5</ele><time>2026-04-05T14:44:26.92Z</time></trkpt><trkpt lat="40.078475982754824" lon="18.224361035992988"><ele>110.0</ele><time>2026-04-05T14:44:27.92Z</time></trkpt><trkpt lat="40.07831924521023" lon="18.224085463217392"><ele>109.0</ele><time>2026-04-05T14:44:28.92Z</time></trkpt><trkpt lat="40.078167799555786" lon="18.22380939307757"><ele>108.0</ele><time>2026-04-05T14:44:29.92Z</time></trkpt><trkpt lat="40.078013692616565" lon="18.223532734985227"><ele>108.0</ele><time>2026-04-05T14:44:30.92Z</time></trkpt><trkpt lat="40.077859532706185" lon="18.223258200541377"><ele>108.0</ele><time>2026-04-05T14:44:31.92Z</time></trkpt><trkpt lat="40.077704873100224" lon="18.222984846748968"><ele>108.5</ele><time>2026-04-05T14:44:32.92Z</time></trkpt><trkpt lat="40.07755098299654" lon="18.22271330449638"><ele>109.0</ele><time>2026-04-05T14:44:33.92Z</time></trkpt><trkpt lat="40.07741540002589" lon="18.22246990953139"><ele>109.0</ele><time>2026-04-05T14:44:34.92Z</time></trkpt><trkpt lat="40.07728658120562" lon="18.222244882970635"><ele>109.0</ele><time>2026-04-05T14:44:35.92Z</time></trkpt><trkpt lat="40.077166041960446" lon="18.22203275466728"><ele>109.0</ele><time>2026-04-05T14:44:36.92Z</time></trkpt><trkpt lat="40.07705080242118" lon="18.221831058925943"><ele>109.0</ele><time>2026-04-05T14:44:37.92Z</time></trkpt><trkpt lat="40.076936838712065" lon="18.221630060068424"><ele>109.0</ele><time>2026-04-05T14:44:38.92Z</time></trkpt><trkpt lat="40.07683199484232" lon="18.221442294744964"><ele>109.0</ele><time>2026-04-05T14:44:39.92Z</time></trkpt><trkpt lat="40.07673380222" lon="18.221265892201327"><ele>109.0</ele><time>2026-04-05T14:44:40.92Z</time></trkpt><trkpt lat="40.07664391344803" lon="18.221100717027582"><ele>109.0</ele><time>2026-04-05T14:44:41.92Z</time></trkpt><trkpt lat="40.07656683120054" lon="18.220955851406575"><ele>109.0</ele><time>2026-04-05T14:44:42.92Z</time></trkpt><trkpt lat="40.076496770251076" lon="18.2208353764139"><ele>109.0</ele><time>2026-04-05T14:44:43.92Z</time></trkpt><trkpt lat="40.076444756359116" lon="18.22072793499494"><ele>109.14285714285714</ele><time>2026-04-05T14:44:44.92Z</time></trkpt><trkpt lat="40.076410554940495" lon="18.220636234130165"><ele>109.28571428571429</ele><time>2026-04-05T14:44:45.92Z</time></trkpt><trkpt lat="40.07639204397429" lon="18.22055269923852"><ele>109.42857142857142</ele><time>2026-04-05T14:44:46.92Z</time></trkpt><trkpt lat="40.07639411048495" lon="18.220465122060745"><ele>109.57142857142857</ele><time>2026-04-05T14:44:47.92Z</time></trkpt><trkpt lat="40.07641121520494" lon="18.2203782578845"><ele>109.71428571428571</ele><time>2026-04-05T14:44:48.92Z</time></trkpt><trkpt lat="40.0764240307401" lon="18.220284689910482"><ele>109.85714285714285</ele><time>2026-04-05T14:44:49.92Z</time></trkpt><trkpt lat="40.07639575437624" lon="18.220196052217243"><ele>110.0</ele><time>2026-04-05T14:44:50.92Z</time></trkpt><trkpt lat="40.07630850846203" lon="18.220145495025154"><ele>110.0</ele><time>2026-04-05T14:44:51.92Z</time></trkpt><trkpt lat="40.076218609946416" lon="18.220105603787022"><ele>110.0</ele><time>2026-04-05T14:44:52.92Z</time></trkpt><trkpt lat="40.076118336143665" lon="18.220071179258145"><ele>110.0</ele><time>2026-04-05T14:44:53.92Z</time></trkpt><trkpt lat="40.07597128471988" lon="18.22004435589148"><ele>110.0</ele><time>2026-04-05T14:44:54.92Z</time></trkpt><trkpt lat="40.07583400855433" lon="18.219992658501052"><ele>110.66666666666666</ele><time>2026-04-05T14:44:55.92Z</time></trkpt><trkpt lat="40.07569487291946" lon="18.219844058922174"><ele>111.33333333333334</ele><time>2026-04-05T14:44:56.92Z</time></trkpt><trkpt lat="40.07570112655647" lon="18.219558039033895"><ele>112.0</ele><time>2026-04-05T14:44:57.92Z</time></trkpt><trkpt lat="40.07561912888711" lon="18.21933263211283"><ele>112.0</ele><time>2026-04-05T14:44:58.92Z</time></trkpt><trkpt lat="40.075517072094264" lon="18.21909914811136"><ele>112.0</ele><time>2026-04-05T14:44:59.92Z</time></trkpt><trkpt lat="40.07538665174814" lon="18.21887534323137"><ele>112.0</ele><time>2026-04-05T14:45:00.92Z</time></trkpt><trkpt lat="40.07524707696528" lon="18.218646665363487"><ele>112.0</ele><time>2026-04-05T14:45:01.92Z</time></trkpt><trkpt lat="40.075108585954574" lon="18.218412653237838"><ele>112.0</ele><time>2026-04-05T14:45:02.92Z</time></trkpt><trkpt lat="40.07497529424308" lon="18.218175739872635"><ele>111.5</ele><time>2026-04-05T14:45:03.92Z</time></trkpt><trkpt lat="40.074842461070645" lon="18.217925653423684"><ele>111.0</ele><time>2026-04-05T14:45:04.92Z</time></trkpt><trkpt lat="40.07470882747897" lon="18.21767075794392"><ele>111.0</ele><time>2026-04-05T14:45:05.92Z</time></trkpt><trkpt lat="40.07456021900287" lon="18.217414710722153"><ele>111.0</ele><time>2026-04-05T14:45:06.92Z</time></trkpt><trkpt lat="40.074398431412625" lon="18.217155246633098"><ele>111.0</ele><time>2026-04-05T14:45:07.92Z</time></trkpt><trkpt lat="40.074238173344305" lon="18.21689050134189"><ele>111.0</ele><time>2026-04-05T14:45:08.92Z</time></trkpt><trkpt lat="40.07409503780167" lon="18.21661994352187"><ele>112.5</ele><time>2026-04-05T14:45:09.92Z</time></trkpt><trkpt lat="40.073952689267166" lon="18.21633911630475"><ele>114.0</ele><time>2026-04-05T14:45:10.92Z</time></trkpt><trkpt lat="40.073806916565694" lon="18.216055241546506"><ele>114.0</ele><time>2026-04-05T14:45:11.92Z</time></trkpt><trkpt lat="40.07365471230675" lon="18.215773828983316"><ele>114.0</ele><time>2026-04-05T14:45:12.92Z</time></trkpt><trkpt lat="40.0734988712471" lon="18.21550064677843"><ele>113.5</ele><time>2026-04-05T14:45:13.92Z</time></trkpt><trkpt lat="40.073341037649" lon="18.21522708266686"><ele>113.0</ele><time>2026-04-05T14:45:14.92Z</time></trkpt><trkpt lat="40.073187095016124" lon="18.214951761548466"><ele>113.0</ele><time>2026-04-05T14:45:15.92Z</time></trkpt><trkpt lat="40.07303532805129" lon="18.21467461243624"><ele>113.0</ele><time>2026-04-05T14:45:16.92Z</time></trkpt><trkpt lat="40.07288474928715" lon="18.214400500292804"><ele>113.0</ele><time>2026-04-05T14:45:17.92Z</time></trkpt><trkpt lat="40.072732752637954" lon="18.214136510517868"><ele>113.0</ele><time>2026-04-05T14:45:18.92Z</time></trkpt><trkpt lat="40.0725870186709" lon="18.213874451610554"><ele>112.5</ele><time>2026-04-05T14:45:19.92Z</time></trkpt><trkpt lat="40.072445015050384" lon="18.213613791829715"><ele>112.0</ele><time>2026-04-05T14:45:20.92Z</time></trkpt><trkpt lat="40.07229944530452" lon="18.213355392878867"><ele>112.33333333333334</ele><time>2026-04-05T14:45:21.92Z</time></trkpt><trkpt lat="40.07216735495653" lon="18.21311587150275"><ele>112.66666666666666</ele><time>2026-04-05T14:45:22.92Z</time></trkpt><trkpt lat="40.07205085359853" lon="18.212891874271854"><ele>113.0</ele><time>2026-04-05T14:45:23.92Z</time></trkpt><trkpt lat="40.07194401523492" lon="18.2126751791629"><ele>113.0</ele><time>2026-04-05T14:45:24.92Z</time></trkpt><trkpt lat="40.07185367681704" lon="18.21245394201762"><ele>113.0</ele><time>2026-04-05T14:45:25.92Z</time></trkpt><trkpt lat="40.07175955359453" lon="18.212226753756475"><ele>113.0</ele><time>2026-04-05T14:45:26.92Z</time></trkpt><trkpt lat="40.07167646654519" lon="18.21200192277323"><ele>113.0</ele><time>2026-04-05T14:45:27.92Z</time></trkpt><trkpt lat="40.07160267429389" lon="18.211769178819285"><ele>113.0</ele><time>2026-04-05T14:45:28.92Z</time></trkpt><trkpt lat="40.071533112683284" lon="18.21153552618381"><ele>113.0</ele><time>2026-04-05T14:45:29.92Z</time></trkpt><trkpt lat="40.07147689375727" lon="18.211306145253545"><ele>113.0</ele><time>2026-04-05T14:45:30.92Z</time></trkpt><trkpt lat="40.07143384999551" lon="18.211072837838273"><ele>113.0</ele><time>2026-04-05T14:45:31.92Z</time></trkpt><trkpt lat="40.07139636021748" lon="18.21082549111348"><ele>113.0</ele><time>2026-04-05T14:45:32.92Z</time></trkpt><trkpt lat="40.071360260281956" lon="18.210564436439995"><ele>113.0</ele><time>2026-04-05T14:45:33.92Z</time></trkpt><trkpt lat="40.07131526440727" lon="18.210287172083877"><ele>113.0</ele><time>2026-04-05T14:45:34.92Z</time></trkpt><trkpt lat="40.07126970040364" lon="18.21000440479627"><ele>113.0</ele><time>2026-04-05T14:45:35.92Z</time></trkpt><trkpt lat="40.071229875501295" lon="18.20974546220135"><ele>113.33333333333333</ele><time>2026-04-05T14:45:36.92Z</time></trkpt><trkpt lat="40.0711962988996" lon="18.209499808967344"><ele>113.66666666666666</ele><time>2026-04-05T14:45:37.92Z</time></trkpt><trkpt lat="40.07116439993802" lon="18.209263884152183"><ele>114.0</ele><time>2026-04-05T14:45:38.921Z</time></trkpt><trkpt lat="40.07113196421587" lon="18.209039628289666"><ele>113.66666666666666</ele><time>2026-04-05T14:45:39.921Z</time></trkpt><trkpt lat="40.07109723434239" lon="18.208810428423966"><ele>113.33333333333333</ele><time>2026-04-05T14:45:40.92Z</time></trkpt><trkpt lat="40.07106314750349" lon="18.208580156863583"><ele>113.0</ele><time>2026-04-05T14:45:41.92Z</time></trkpt><trkpt lat="40.07103343484824" lon="18.20833805201618"><ele>113.0</ele><time>2026-04-05T14:45:42.92Z</time></trkpt><trkpt lat="40.071002133307" lon="18.208093414668273"><ele>113.0</ele><time>2026-04-05T14:45:43.92Z</time></trkpt><trkpt lat="40.070967307464336" lon="18.20784897202261"><ele>113.0</ele><time>2026-04-05T14:45:44.92Z</time></trkpt><trkpt lat="40.07093180515147" lon="18.207601979040376"><ele>113.0</ele><time>2026-04-05T14:45:45.92Z</time></trkpt><trkpt lat="40.07089742269681" lon="18.20734276790714"><ele>113.0</ele><time>2026-04-05T14:45:46.92Z</time></trkpt><trkpt lat="40.07086547298759" lon="18.20709119620829"><ele>113.0</ele><time>2026-04-05T14:45:47.92Z</time></trkpt><trkpt lat="40.07082994222213" lon="18.206855708837875"><ele>112.66666666666666</ele><time>2026-04-05T14:45:48.92Z</time></trkpt><trkpt lat="40.07079020641159" lon="18.206623733759976"><ele>112.33333333333334</ele><time>2026-04-05T14:45:49.92Z</time></trkpt><trkpt lat="40.070752277362296" lon="18.206386445574108"><ele>112.0</ele><time>2026-04-05T14:45:50.92Z</time></trkpt><trkpt lat="40.07071844225665" lon="18.206155536084648"><ele>112.0</ele><time>2026-04-05T14:45:51.92Z</time></trkpt><trkpt lat="40.07068881198593" lon="18.205945551353516"><ele>112.0</ele><time>2026-04-05T14:45:52.92Z</time></trkpt><trkpt lat="40.070660517610655" lon="18.205738596576193"><ele>112.0</ele><time>2026-04-05T14:45:53.92Z</time></trkpt><trkpt lat="40.070633243423096" lon="18.2055457244676"><ele>112.39999999999999</ele><time>2026-04-05T14:45:54.92Z</time></trkpt><trkpt lat="40.07060813084889" lon="18.205368483138926"><ele>112.79999999999998</ele><time>2026-04-05T14:45:55.92Z</time></trkpt><trkpt lat="40.07058908814146" lon="18.20521799171562"><ele>113.2</ele><time>2026-04-05T14:45:56.92Z</time></trkpt><trkpt lat="40.07056520729059" lon="18.20508997679863"><ele>113.6</ele><time>2026-04-05T14:45:57.92Z</time></trkpt><trkpt lat="40.070544972251035" lon="18.2049755214871"><ele>114.0</ele><time>2026-04-05T14:45:58.92Z</time></trkpt><trkpt lat="40.07053204526935" lon="18.20485771949018"><ele>114.0</ele><time>2026-04-05T14:45:59.92Z</time></trkpt><trkpt lat="40.0705284915863" lon="18.20475363342483"><ele>114.0</ele><time>2026-04-05T14:46:00.92Z</time></trkpt><trkpt lat="40.07053111934613" lon="18.20466034683423"><ele>114.0</ele><time>2026-04-05T14:46:01.92Z</time></trkpt><trkpt lat="40.070552415099044" lon="18.204509191143373"><ele>114.0</ele><time>2026-04-05T14:46:03.92Z</time></trkpt><trkpt lat="40.07061695055227" lon="18.204362460473885"><ele>114.0</ele><time>2026-04-05T14:46:05.92Z</time></trkpt><trkpt lat="40.07063700467702" lon="18.204275123797085"><ele>114.0</ele><time>2026-04-05T14:46:06.92Z</time></trkpt><trkpt lat="40.070637520660334" lon="18.20419227420569"><ele>114.0</ele><time>2026-04-05T14:46:07.92Z</time></trkpt><trkpt lat="40.07062094432644" lon="18.204103567654787"><ele>114.0</ele><time>2026-04-05T14:46:08.92Z</time></trkpt><trkpt lat="40.07057952375226" lon="18.204016245437067"><ele>114.0</ele><time>2026-04-05T14:46:09.92Z</time></trkpt><trkpt lat="40.07051527916023" lon="18.20393665457422"><ele>114.0</ele><time>2026-04-05T14:46:10.92Z</time></trkpt><trkpt lat="40.070451153785996" lon="18.20386100485359"><ele>114.0</ele><time>2026-04-05T14:46:11.92Z</time></trkpt><trkpt lat="40.07040078108598" lon="18.20377622276154"><ele>113.75</ele><time>2026-04-05T14:46:12.92Z</time></trkpt><trkpt lat="40.070358065973274" lon="18.203656918261853"><ele>113.5</ele><time>2026-04-05T14:46:13.92Z</time></trkpt><trkpt lat="40.07033527846434" lon="18.2035210434412"><ele>113.25</ele><time>2026-04-05T14:46:14.92Z</time></trkpt><trkpt lat="40.07031409610861" lon="18.203374385498968"><ele>113.0</ele><time>2026-04-05T14:46:15.92Z</time></trkpt><trkpt lat="40.07028843345026" lon="18.20321014813535"><ele>113.0</ele><time>2026-04-05T14:46:16.92Z</time></trkpt><trkpt lat="40.07026191695618" lon="18.203031026362837"><ele>113.0</ele><time>2026-04-05T14:46:17.92Z</time></trkpt><trkpt lat="40.07023147305395" lon="18.202848004796767"><ele>113.0</ele><time>2026-04-05T14:46:18.92Z</time></trkpt><trkpt lat="40.07020017356078" lon="18.202645051236853"><ele>113.0</ele><time>2026-04-05T14:46:19.92Z</time></trkpt><trkpt lat="40.07017014463839" lon="18.202443804942845"><ele>112.66666666666666</ele><time>2026-04-05T14:46:20.92Z</time></trkpt><trkpt lat="40.07013882902855" lon="18.202253247353223"><ele>112.33333333333334</ele><time>2026-04-05T14:46:21.92Z</time></trkpt><trkpt lat="40.07011155053251" lon="18.202066549060724"><ele>112.0</ele><time>2026-04-05T14:46:22.92Z</time></trkpt><trkpt lat="40.070087072367194" lon="18.201863752584647"><ele>112.0</ele><time>2026-04-05T14:46:23.92Z</time></trkpt><trkpt lat="40.070061315620535" lon="18.20165140886565"><ele>112.0</ele><time>2026-04-05T14:46:24.92Z</time></trkpt><trkpt lat="40.070032821801696" lon="18.201434669770602"><ele>112.0</ele><time>2026-04-05T14:46:25.92Z</time></trkpt><trkpt lat="40.070007008558335" lon="18.20122188574577"><ele>111.33333333333334</ele><time>2026-04-05T14:46:26.92Z</time></trkpt><trkpt lat="40.069962609053846" lon="18.200990746669092"><ele>110.66666666666666</ele><time>2026-04-05T14:46:27.92Z</time></trkpt><trkpt lat="40.06993067370868" lon="18.20075742434279"><ele>110.0</ele><time>2026-04-05T14:46:28.92Z</time></trkpt><trkpt lat="40.06989723714555" lon="18.20052572510596"><ele>108.66666666666666</ele><time>2026-04-05T14:46:29.92Z</time></trkpt><trkpt lat="40.069863457770296" lon="18.20028895387637"><ele>107.33333333333334</ele><time>2026-04-05T14:46:30.92Z</time></trkpt><trkpt lat="40.06982707332335" lon="18.20004311442955"><ele>106.0</ele><time>2026-04-05T14:46:31.92Z</time></trkpt><trkpt lat="40.06979034919592" lon="18.199774176757614"><ele>106.0</ele><time>2026-04-05T14:46:32.92Z</time></trkpt><trkpt lat="40.06975164524946" lon="18.199495337080894"><ele>106.0</ele><time>2026-04-05T14:46:33.919Z</time></trkpt><trkpt lat="40.069714452040266" lon="18.19922593700581"><ele>106.0</ele><time>2026-04-05T14:46:34.919Z</time></trkpt><trkpt lat="40.06967638809862" lon="18.19896766113056"><ele>106.0</ele><time>2026-04-05T14:46:35.919Z</time></trkpt><trkpt lat="40.069637722200994" lon="18.198702802163954"><ele>106.0</ele><time>2026-04-05T14:46:36.919Z</time></trkpt><trkpt lat="40.0695971507124" lon="18.198429530663642"><ele>106.0</ele><time>2026-04-05T14:46:37.919Z</time></trkpt><trkpt lat="40.0695569891289" lon="18.1981450966008"><ele>106.0</ele><time>2026-04-05T14:46:38.919Z</time></trkpt><trkpt lat="40.0695164367075" lon="18.197852244158533"><ele>106.0</ele><time>2026-04-05T14:46:39.919Z</time></trkpt><trkpt lat="40.06947427511127" lon="18.197556611428194"><ele>106.0</ele><time>2026-04-05T14:46:40.919Z</time></trkpt><trkpt lat="40.069428158068995" lon="18.19726061560432"><ele>106.0</ele><time>2026-04-05T14:46:41.919Z</time></trkpt><trkpt lat="40.069379863462075" lon="18.196958219753828"><ele>106.0</ele><time>2026-04-05T14:46:42.919Z</time></trkpt><trkpt lat="40.06932701152609" lon="18.19665106328002"><ele>106.0</ele><time>2026-04-05T14:46:43.919Z</time></trkpt><trkpt lat="40.069283511625834" lon="18.19633913370481"><ele>105.5</ele><time>2026-04-05T14:46:44.919Z</time></trkpt><trkpt lat="40.069248294334" lon="18.196025390656995"><ele>105.0</ele><time>2026-04-05T14:46:45.919Z</time></trkpt><trkpt lat="40.06921308878049" lon="18.195716681438338"><ele>105.33333333333334</ele><time>2026-04-05T14:46:46.919Z</time></trkpt><trkpt lat="40.069175639315425" lon="18.195417700397307"><ele>105.66666666666667</ele><time>2026-04-05T14:46:47.919Z</time></trkpt><trkpt lat="40.069131484306375" lon="18.195144924021893"><ele>106.0</ele><time>2026-04-05T14:46:48.919Z</time></trkpt><trkpt lat="40.06910085657171" lon="18.194889879962606"><ele>106.0</ele><time>2026-04-05T14:46:49.919Z</time></trkpt><trkpt lat="40.06906564548064" lon="18.194659292029627"><ele>106.0</ele><time>2026-04-05T14:46:50.919Z</time></trkpt><trkpt lat="40.069032879413996" lon="18.194420721028546"><ele>106.0</ele><time>2026-04-05T14:46:51.919Z</time></trkpt><trkpt lat="40.06900369829656" lon="18.194184654929273"><ele>106.66666666666667</ele><time>2026-04-05T14:46:52.919Z</time></trkpt><trkpt lat="40.06896968072374" lon="18.19395417806583"><ele>107.33333333333334</ele><time>2026-04-05T14:46:53.919Z</time></trkpt><trkpt lat="40.06893952958621" lon="18.193725928831313"><ele>108.0</ele><time>2026-04-05T14:46:54.919Z</time></trkpt><trkpt lat="40.068907312858876" lon="18.1935039469232"><ele>108.0</ele><time>2026-04-05T14:46:55.919Z</time></trkpt><trkpt lat="40.0688792990175" lon="18.193283583027103"><ele>108.0</ele><time>2026-04-05T14:46:56.919Z</time></trkpt><trkpt lat="40.06884575986471" lon="18.19307534371056"><ele>108.0</ele><time>2026-04-05T14:46:57.919Z</time></trkpt><trkpt lat="40.068814520521634" lon="18.192874951151353"><ele>109.0</ele><time>2026-04-05T14:46:58.919Z</time></trkpt><trkpt lat="40.06877571550943" lon="18.1926944043091"><ele>110.0</ele><time>2026-04-05T14:46:59.919Z</time></trkpt><trkpt lat="40.06874529568538" lon="18.192527980693786"><ele>111.0</ele><time>2026-04-05T14:47:00.919Z</time></trkpt><trkpt lat="40.06871734568538" lon="18.1923709744565"><ele>112.0</ele><time>2026-04-05T14:47:01.919Z</time></trkpt><trkpt lat="40.06869018804745" lon="18.19222805815762"><ele>112.6</ele><time>2026-04-05T14:47:02.919Z</time></trkpt><trkpt lat="40.068655564501356" lon="18.192088750160327"><ele>113.19999999999999</ele><time>2026-04-05T14:47:03.919Z</time></trkpt><trkpt lat="40.068621744289665" lon="18.191965432386663"><ele>113.8</ele><time>2026-04-05T14:47:04.919Z</time></trkpt><trkpt lat="40.068594400637025" lon="18.191850635999717"><ele>114.4</ele><time>2026-04-05T14:47:05.919Z</time></trkpt><trkpt lat="40.06857443219369" lon="18.19174731395219"><ele>115.0</ele><time>2026-04-05T14:47:06.919Z</time></trkpt><trkpt lat="40.06857808019677" lon="18.191650930010063"><ele>115.00000000000001</ele><time>2026-04-05T14:47:07.919Z</time></trkpt><trkpt lat="40.06859860613775" lon="18.191569456688796"><ele>115.0</ele><time>2026-04-05T14:47:08.919Z</time></trkpt><trkpt lat="40.06863170265164" lon="18.191492159735375"><ele>115.0</ele><time>2026-04-05T14:47:09.919Z</time></trkpt><trkpt lat="40.068646136890145" lon="18.19140643097094"><ele>115.0</ele><time>2026-04-05T14:47:10.919Z</time></trkpt><trkpt lat="40.0686387940264" lon="18.191321032782337"><ele>115.00000000000001</ele><time>2026-04-05T14:47:11.919Z</time></trkpt><trkpt lat="40.068606171176945" lon="18.191245217844862"><ele>115.0</ele><time>2026-04-05T14:47:12.919Z</time></trkpt><trkpt lat="40.06849507147316" lon="18.1911679332736"><ele>115.33333333333334</ele><time>2026-04-05T14:47:14.919Z</time></trkpt><trkpt lat="40.06843174478065" lon="18.19117005298206"><ele>115.66666666666667</ele><time>2026-04-05T14:47:15.919Z</time></trkpt><trkpt lat="40.068365735132744" lon="18.191194594130785"><ele>116.0</ele><time>2026-04-05T14:47:16.919Z</time></trkpt><trkpt lat="40.06829683645526" lon="18.191260228089778"><ele>116.33333333333334</ele><time>2026-04-05T14:47:17.919Z</time></trkpt><trkpt lat="40.06822860592545" lon="18.19133124344753"><ele>116.66666666666667</ele><time>2026-04-05T14:47:18.919Z</time></trkpt><trkpt lat="40.06814629109315" lon="18.191382214043795"><ele>117.0</ele><time>2026-04-05T14:47:19.919Z</time></trkpt><trkpt lat="40.06804058581591" lon="18.191410927848914"><ele>117.33333333333334</ele><time>2026-04-05T14:47:20.919Z</time></trkpt><trkpt lat="40.067901555839356" lon="18.191411288849096"><ele>117.66666666666667</ele><time>2026-04-05T14:47:21.919Z</time></trkpt><trkpt lat="40.06773947392476" lon="18.191402285055908"><ele>118.0</ele><time>2026-04-05T14:47:22.919Z</time></trkpt><trkpt lat="40.067562943630925" lon="18.19138900809748"><ele>118.33333333333334</ele><time>2026-04-05T14:47:23.919Z</time></trkpt><trkpt lat="40.06737960915911" lon="18.19136205432623"><ele>118.66666666666666</ele><time>2026-04-05T14:47:24.919Z</time></trkpt><trkpt lat="40.06718844802493" lon="18.191320226982203"><ele>119.0</ele><time>2026-04-05T14:47:25.919Z</time></trkpt><trkpt lat="40.06699244822221" lon="18.191263701164345"><ele>119.0</ele><time>2026-04-05T14:47:26.919Z</time></trkpt><trkpt lat="40.066789094478864" lon="18.191202494038947"><ele>119.0</ele><time>2026-04-05T14:47:27.919Z</time></trkpt><trkpt lat="40.06657965483251" lon="18.191135916143995"><ele>119.0</ele><time>2026-04-05T14:47:28.919Z</time></trkpt><trkpt lat="40.0663624373814" lon="18.191071258300763"><ele>120.0</ele><time>2026-04-05T14:47:29.919Z</time></trkpt><trkpt lat="40.06613503834732" lon="18.191003075471677"><ele>121.0</ele><time>2026-04-05T14:47:30.919Z</time></trkpt><trkpt lat="40.065909410520895" lon="18.190935004480615"><ele>120.5</ele><time>2026-04-05T14:47:31.919Z</time></trkpt><trkpt lat="40.065668532816254" lon="18.190866032245435"><ele>120.0</ele><time>2026-04-05T14:47:32.919Z</time></trkpt><trkpt lat="40.06542358132477" lon="18.190791676010306"><ele>120.0</ele><time>2026-04-05T14:47:33.919Z</time></trkpt><trkpt lat="40.06518204869444" lon="18.190717340418253"><ele>120.0</ele><time>2026-04-05T14:47:34.919Z</time></trkpt><trkpt lat="40.06492480559771" lon="18.190628772513328"><ele>121.0</ele><time>2026-04-05T14:47:35.919Z</time></trkpt><trkpt lat="40.064663683752876" lon="18.19052872866015"><ele>122.0</ele><time>2026-04-05T14:47:36.919Z</time></trkpt><trkpt lat="40.06440460136697" lon="18.19042761080703"><ele>122.0</ele><time>2026-04-05T14:47:37.919Z</time></trkpt><trkpt lat="40.06414801150231" lon="18.19033242213101"><ele>122.0</ele><time>2026-04-05T14:47:38.919Z</time></trkpt><trkpt lat="40.06388963554935" lon="18.190244900939266"><ele>123.5</ele><time>2026-04-05T14:47:39.919Z</time></trkpt><trkpt lat="40.06363120547454" lon="18.190162166343857"><ele>125.0</ele><time>2026-04-05T14:47:40.919Z</time></trkpt><trkpt lat="40.06337651632424" lon="18.190077257836133"><ele>125.0</ele><time>2026-04-05T14:47:41.919Z</time></trkpt><trkpt lat="40.06311955871592" lon="18.18999286599651"><ele>125.0</ele><time>2026-04-05T14:47:42.919Z</time></trkpt><trkpt lat="40.062857730598964" lon="18.189911029824405"><ele>125.5</ele><time>2026-04-05T14:47:43.92Z</time></trkpt><trkpt lat="40.062596086393484" lon="18.189820684376745"><ele>126.0</ele><time>2026-04-05T14:47:44.919Z</time></trkpt><trkpt lat="40.06233527690065" lon="18.189738457227207"><ele>126.0</ele><time>2026-04-05T14:47:45.919Z</time></trkpt><trkpt lat="40.062072634136754" lon="18.189657218862795"><ele>126.0</ele><time>2026-04-05T14:47:46.919Z</time></trkpt><trkpt lat="40.0618101381757" lon="18.1895740447618"><ele>127.0</ele><time>2026-04-05T14:47:47.919Z</time></trkpt><trkpt lat="40.061542672272324" lon="18.189491910691135"><ele>128.0</ele><time>2026-04-05T14:47:48.919Z</time></trkpt><trkpt lat="40.061278008859944" lon="18.18940162559172"><ele>128.0</ele><time>2026-04-05T14:47:49.92Z</time></trkpt><trkpt lat="40.06101152940973" lon="18.18931103762326"><ele>128.0</ele><time>2026-04-05T14:47:50.919Z</time></trkpt><trkpt lat="40.06073972596001" lon="18.18921470186949"><ele>128.0</ele><time>2026-04-05T14:47:51.919Z</time></trkpt><trkpt lat="40.0604728823778" lon="18.189133907644322"><ele>128.0</ele><time>2026-04-05T14:47:52.919Z</time></trkpt><trkpt lat="40.06020601765209" lon="18.189052481262316"><ele>129.5</ele><time>2026-04-05T14:47:53.919Z</time></trkpt><trkpt lat="40.059923526387564" lon="18.188960250213288"><ele>131.0</ele><time>2026-04-05T14:47:54.919Z</time></trkpt><trkpt lat="40.059637424083085" lon="18.188870187519008"><ele>131.0</ele><time>2026-04-05T14:47:55.919Z</time></trkpt><trkpt lat="40.059392870029754" lon="18.188796511973095"><ele>131.0</ele><time>2026-04-05T14:47:56.919Z</time></trkpt><trkpt lat="40.05913429074371" lon="18.18871601092522"><ele>131.5</ele><time>2026-04-05T14:47:57.919Z</time></trkpt><trkpt lat="40.05887427541575" lon="18.18863352826234"><ele>132.0</ele><time>2026-04-05T14:47:58.919Z</time></trkpt><trkpt lat="40.05861099931099" lon="18.188548536881807"><ele>132.0</ele><time>2026-04-05T14:47:59.919Z</time></trkpt><trkpt lat="40.0583426288412" lon="18.188458158328032"><ele>132.0</ele><time>2026-04-05T14:48:00.919Z</time></trkpt><trkpt lat="40.05807798887318" lon="18.1883696254168"><ele>132.5</ele><time>2026-04-05T14:48:01.919Z</time></trkpt><trkpt lat="40.057813642110965" lon="18.1882830569487"><ele>133.0</ele><time>2026-04-05T14:48:02.919Z</time></trkpt><trkpt lat="40.05754912244491" lon="18.18819580695422"><ele>133.0</ele><time>2026-04-05T14:48:03.919Z</time></trkpt><trkpt lat="40.057290962739835" lon="18.188110844408737"><ele>133.0</ele><time>2026-04-05T14:48:04.919Z</time></trkpt><trkpt lat="40.05703100797129" lon="18.18802577704961"><ele>133.0</ele><time>2026-04-05T14:48:05.919Z</time></trkpt><trkpt lat="40.056768068338734" lon="18.187941316075886"><ele>133.0</ele><time>2026-04-05T14:48:06.919Z</time></trkpt><trkpt lat="40.05650679735875" lon="18.187858925672003"><ele>133.5</ele><time>2026-04-05T14:48:07.919Z</time></trkpt><trkpt lat="40.05624653102398" lon="18.187771538109107"><ele>134.0</ele><time>2026-04-05T14:48:08.919Z</time></trkpt><trkpt lat="40.05598682772289" lon="18.18768674044369"><ele>132.5</ele><time>2026-04-05T14:48:09.919Z</time></trkpt><trkpt lat="40.05572769707967" lon="18.187598122237425"><ele>131.0</ele><time>2026-04-05T14:48:10.919Z</time></trkpt><trkpt lat="40.05547039596451" lon="18.18752054209602"><ele>131.0</ele><time>2026-04-05T14:48:11.919Z</time></trkpt><trkpt lat="40.05521121449585" lon="18.187439959510336"><ele>131.0</ele><time>2026-04-05T14:48:12.919Z</time></trkpt><trkpt lat="40.0549489599015" lon="18.18737349669326"><ele>132.0</ele><time>2026-04-05T14:48:13.919Z</time></trkpt><trkpt lat="40.05468815636212" lon="18.187329043810895"><ele>133.0</ele><time>2026-04-05T14:48:14.919Z</time></trkpt><trkpt lat="40.05442575897478" lon="18.187295366152608"><ele>133.0</ele><time>2026-04-05T14:48:15.919Z</time></trkpt><trkpt lat="40.05416132183131" lon="18.1872799728073"><ele>133.0</ele><time>2026-04-05T14:48:16.919Z</time></trkpt><trkpt lat="40.05389757292874" lon="18.187275383942737"><ele>134.5</ele><time>2026-04-05T14:48:17.919Z</time></trkpt><trkpt lat="40.05362957996036" lon="18.18728771061686"><ele>136.0</ele><time>2026-04-05T14:48:18.919Z</time></trkpt><trkpt lat="40.05336211540156" lon="18.18731801632731"><ele>136.5</ele><time>2026-04-05T14:48:19.919Z</time></trkpt><trkpt lat="40.053092036487996" lon="18.18736372329908"><ele>137.0</ele><time>2026-04-05T14:48:20.919Z</time></trkpt><trkpt lat="40.052825312782076" lon="18.187425396481135"><ele>137.0</ele><time>2026-04-05T14:48:21.919Z</time></trkpt><trkpt lat="40.05255677133799" lon="18.18750680761325"><ele>137.0</ele><time>2026-04-05T14:48:22.919Z</time></trkpt><trkpt lat="40.05228341485543" lon="18.187600552408178"><ele>138.0</ele><time>2026-04-05T14:48:23.919Z</time></trkpt><trkpt lat="40.05200309920742" lon="18.187704522175455"><ele>139.0</ele><time>2026-04-05T14:48:24.919Z</time></trkpt><trkpt lat="40.05172896948527" lon="18.187799087203338"><ele>139.0</ele><time>2026-04-05T14:48:25.919Z</time></trkpt><trkpt lat="40.05147243858825" lon="18.187911921389333"><ele>139.0</ele><time>2026-04-05T14:48:26.919Z</time></trkpt><trkpt lat="40.051211371238175" lon="18.1880092292744"><ele>139.0</ele><time>2026-04-05T14:48:27.919Z</time></trkpt><trkpt lat="40.05094036857842" lon="18.188107382708637"><ele>139.0</ele><time>2026-04-05T14:48:28.919Z</time></trkpt><trkpt lat="40.0506661380854" lon="18.188209338751495"><ele>138.0</ele><time>2026-04-05T14:48:29.919Z</time></trkpt><trkpt lat="40.05038990193128" lon="18.1883081057539"><ele>137.0</ele><time>2026-04-05T14:48:30.919Z</time></trkpt><trkpt lat="40.050111342031954" lon="18.188409238655293"><ele>138.5</ele><time>2026-04-05T14:48:31.919Z</time></trkpt><trkpt lat="40.04983577158155" lon="18.188513308885177"><ele>140.0</ele><time>2026-04-05T14:48:32.919Z</time></trkpt><trkpt lat="40.04956252892837" lon="18.188614132414653"><ele>140.0</ele><time>2026-04-05T14:48:33.919Z</time></trkpt><trkpt lat="40.04928716922798" lon="18.188718497859416"><ele>140.0</ele><time>2026-04-05T14:48:34.919Z</time></trkpt><trkpt lat="40.04901796045328" lon="18.188818765578954"><ele>140.0</ele><time>2026-04-05T14:48:35.919Z</time></trkpt><trkpt lat="40.04874716369539" lon="18.188922430849956"><ele>140.0</ele><time>2026-04-05T14:48:36.919Z</time></trkpt><trkpt lat="40.048475138385314" lon="18.18902211806887"><ele>141.0</ele><time>2026-04-05T14:48:37.919Z</time></trkpt><trkpt lat="40.04820233833429" lon="18.18912343732017"><ele>142.0</ele><time>2026-04-05T14:48:38.919Z</time></trkpt><trkpt lat="40.047934371613174" lon="18.18922892284435"><ele>142.0</ele><time>2026-04-05T14:48:39.919Z</time></trkpt><trkpt lat="40.04766501689638" lon="18.18933314285406"><ele>142.0</ele><time>2026-04-05T14:48:40.919Z</time></trkpt><trkpt lat="40.04739603455395" lon="18.189433632059135"><ele>141.5</ele><time>2026-04-05T14:48:41.919Z</time></trkpt><trkpt lat="40.04712364415997" lon="18.189535056765404"><ele>141.0</ele><time>2026-04-05T14:48:42.919Z</time></trkpt><trkpt lat="40.04685265972057" lon="18.189632123246184"><ele>141.0</ele><time>2026-04-05T14:48:43.919Z</time></trkpt><trkpt lat="40.046577533803145" lon="18.18973104382049"><ele>141.0</ele><time>2026-04-05T14:48:44.919Z</time></trkpt><trkpt lat="40.04632136813137" lon="18.189830610756147"><ele>141.0</ele><time>2026-04-05T14:48:45.919Z</time></trkpt><trkpt lat="40.046072888536415" lon="18.18993963934774"><ele>141.0</ele><time>2026-04-05T14:48:46.919Z</time></trkpt><trkpt lat="40.04586962389791" lon="18.19003168680753"><ele>141.66666666666666</ele><time>2026-04-05T14:48:47.919Z</time></trkpt><trkpt lat="40.045660382556484" lon="18.19011680906753"><ele>142.33333333333331</ele><time>2026-04-05T14:48:48.919Z</time></trkpt><trkpt lat="40.04547141019272" lon="18.190212233494645"><ele>143.0</ele><time>2026-04-05T14:48:49.919Z</time></trkpt><trkpt lat="40.04497892506367" lon="18.190328169622852"><ele>143.0</ele><time>2026-04-05T14:48:50.919Z</time></trkpt><trkpt lat="40.04470930753264" lon="18.190427236470537"><ele>143.0</ele><time>2026-04-05T14:48:51.919Z</time></trkpt><trkpt lat="40.044440437165214" lon="18.19052694247901"><ele>143.0</ele><time>2026-04-05T14:48:52.919Z</time></trkpt><trkpt lat="40.04417024709449" lon="18.19063109546323"><ele>143.0</ele><time>2026-04-05T14:48:53.919Z</time></trkpt><trkpt lat="40.04390267084755" lon="18.190731529554167"><ele>144.0</ele><time>2026-04-05T14:48:54.919Z</time></trkpt><trkpt lat="40.043634405990616" lon="18.190828470729766"><ele>145.0</ele><time>2026-04-05T14:48:55.919Z</time></trkpt><trkpt lat="40.04336449067235" lon="18.190929199445637"><ele>145.5</ele><time>2026-04-05T14:48:56.919Z</time></trkpt><trkpt lat="40.04309413161644" lon="18.191027950060903"><ele>146.0</ele><time>2026-04-05T14:48:57.919Z</time></trkpt><trkpt lat="40.0428255133728" lon="18.191126185505777"><ele>146.0</ele><time>2026-04-05T14:48:58.919Z</time></trkpt><trkpt lat="40.04255712239352" lon="18.191225801748185"><ele>146.0</ele><time>2026-04-05T14:48:59.919Z</time></trkpt><trkpt lat="40.0422868410996" lon="18.19132950046346"><ele>146.0</ele><time>2026-04-05T14:49:00.919Z</time></trkpt><trkpt lat="40.042020172369256" lon="18.191431102554393"><ele>146.0</ele><time>2026-04-05T14:49:01.919Z</time></trkpt><trkpt lat="40.041752168498434" lon="18.191534502326245"><ele>146.0</ele><time>2026-04-05T14:49:02.919Z</time></trkpt><trkpt lat="40.04148447816135" lon="18.191632191437815"><ele>146.0</ele><time>2026-04-05T14:49:03.919Z</time></trkpt><trkpt lat="40.041215137828814" lon="18.191732680028544"><ele>146.0</ele><time>2026-04-05T14:49:04.919Z</time></trkpt><trkpt lat="40.04094771444819" lon="18.19183342900845"><ele>146.0</ele><time>2026-04-05T14:49:05.919Z</time></trkpt><trkpt lat="40.04068017102059" lon="18.19193300523289"><ele>146.5</ele><time>2026-04-05T14:49:06.919Z</time></trkpt><trkpt lat="40.04041377699984" lon="18.192030835844648"><ele>147.0</ele><time>2026-04-05T14:49:07.919Z</time></trkpt><trkpt lat="40.04015099608693" lon="18.192131776190614"><ele>147.0</ele><time>2026-04-05T14:49:08.919Z</time></trkpt><trkpt lat="40.03988832505009" lon="18.19222869569873"><ele>147.0</ele><time>2026-04-05T14:49:09.919Z</time></trkpt><trkpt lat="40.03962834221197" lon="18.19232703510217"><ele>147.0</ele><time>2026-04-05T14:49:10.919Z</time></trkpt><trkpt lat="40.039376612535705" lon="18.19242287086279"><ele>147.0</ele><time>2026-04-05T14:49:11.919Z</time></trkpt><trkpt lat="40.03912658496204" lon="18.192513912805094"><ele>147.0</ele><time>2026-04-05T14:49:12.919Z</time></trkpt><trkpt lat="40.03888477088456" lon="18.192606755584514"><ele>147.0</ele><time>2026-04-05T14:49:13.919Z</time></trkpt><trkpt lat="40.03864528129918" lon="18.192697286027375"><ele>147.0</ele><time>2026-04-05T14:49:14.919Z</time></trkpt><trkpt lat="40.038410579348486" lon="18.19278650428843"><ele>147.0</ele><time>2026-04-05T14:49:15.919Z</time></trkpt><trkpt lat="40.0381688870961" lon="18.192878806255226"><ele>147.5</ele><time>2026-04-05T14:49:16.919Z</time></trkpt><trkpt lat="40.03792496281082" lon="18.192960312342535"><ele>148.0</ele><time>2026-04-05T14:49:17.919Z</time></trkpt><trkpt lat="40.037682843156816" lon="18.19302412741302"><ele>147.5</ele><time>2026-04-05T14:49:18.919Z</time></trkpt><trkpt lat="40.037439087884756" lon="18.193060377637448"><ele>147.0</ele><time>2026-04-05T14:49:19.919Z</time></trkpt><trkpt lat="40.03719855287728" lon="18.193069001490127"><ele>147.0</ele><time>2026-04-05T14:49:20.919Z</time></trkpt><trkpt lat="40.03695753715762" lon="18.19305237272394"><ele>147.0</ele><time>2026-04-05T14:49:21.919Z</time></trkpt><trkpt lat="40.03671475256366" lon="18.193022183222553"><ele>147.5</ele><time>2026-04-05T14:49:22.919Z</time></trkpt><trkpt lat="40.03647335575446" lon="18.19298925498852"><ele>148.0</ele><time>2026-04-05T14:49:23.919Z</time></trkpt><trkpt lat="40.03623553432556" lon="18.192935174454842"><ele>148.0</ele><time>2026-04-05T14:49:24.919Z</time></trkpt><trkpt lat="40.03600527422659" lon="18.192859108954337"><ele>148.0</ele><time>2026-04-05T14:49:25.919Z</time></trkpt><trkpt lat="40.03578345595222" lon="18.192758111098698"><ele>147.5</ele><time>2026-04-05T14:49:26.919Z</time></trkpt><trkpt lat="40.03556822524703" lon="18.19263944086707"><ele>147.0</ele><time>2026-04-05T14:49:27.919Z</time></trkpt><trkpt lat="40.03535308594063" lon="18.19250896568913"><ele>147.0</ele><time>2026-04-05T14:49:28.919Z</time></trkpt><trkpt lat="40.035147950029916" lon="18.192361785141152"><ele>147.0</ele><time>2026-04-05T14:49:29.919Z</time></trkpt><trkpt lat="40.034950749083926" lon="18.192190147488574"><ele>146.0</ele><time>2026-04-05T14:49:30.919Z</time></trkpt><trkpt lat="40.03476040848934" lon="18.192001321783547"><ele>145.0</ele><time>2026-04-05T14:49:31.919Z</time></trkpt><trkpt lat="40.03457838072437" lon="18.191798278218723"><ele>145.0</ele><time>2026-04-05T14:49:32.919Z</time></trkpt><trkpt lat="40.03440773470414" lon="18.19158560234132"><ele>145.0</ele><time>2026-04-05T14:49:33.919Z</time></trkpt><trkpt lat="40.03424589470664" lon="18.191361218616304"><ele>144.5</ele><time>2026-04-05T14:49:34.919Z</time></trkpt><trkpt lat="40.03409191391083" lon="18.191109813978787"><ele>144.0</ele><time>2026-04-05T14:49:35.919Z</time></trkpt><trkpt lat="40.03395295341" lon="18.190843627477474"><ele>145.0</ele><time>2026-04-05T14:49:36.919Z</time></trkpt><trkpt lat="40.033828461066314" lon="18.190570164559844"><ele>146.0</ele><time>2026-04-05T14:49:37.919Z</time></trkpt><trkpt lat="40.03369917149724" lon="18.190296914615207"><ele>146.0</ele><time>2026-04-05T14:49:38.919Z</time></trkpt><trkpt lat="40.03356805464158" lon="18.19001846563651"><ele>146.0</ele><time>2026-04-05T14:49:39.919Z</time></trkpt><trkpt lat="40.03343543002581" lon="18.189740010862888"><ele>147.0</ele><time>2026-04-05T14:49:40.919Z</time></trkpt><trkpt lat="40.033302043436954" lon="18.18946773408325"><ele>148.0</ele><time>2026-04-05T14:49:41.919Z</time></trkpt><trkpt lat="40.03317196998797" lon="18.18919369860712"><ele>149.0</ele><time>2026-04-05T14:49:42.919Z</time></trkpt><trkpt lat="40.03303923786298" lon="18.188922710038522"><ele>150.0</ele><time>2026-04-05T14:49:43.919Z</time></trkpt><trkpt lat="40.03290638256375" lon="18.188652071294587"><ele>150.0</ele><time>2026-04-05T14:49:44.919Z</time></trkpt><trkpt lat="40.032775280730036" lon="18.18837471571628"><ele>150.0</ele><time>2026-04-05T14:49:45.919Z</time></trkpt><trkpt lat="40.03264530146361" lon="18.188096892111584"><ele>150.0</ele><time>2026-04-05T14:49:46.919Z</time></trkpt><trkpt lat="40.0325153009432" lon="18.187819850054726"><ele>150.0</ele><time>2026-04-05T14:49:47.918Z</time></trkpt><trkpt lat="40.03238467911289" lon="18.187546979967887"><ele>151.5</ele><time>2026-04-05T14:49:48.918Z</time></trkpt><trkpt lat="40.03225469661554" lon="18.187273388685785"><ele>153.0</ele><time>2026-04-05T14:49:49.918Z</time></trkpt><trkpt lat="40.03212307214109" lon="18.18699719459594"><ele>153.0</ele><time>2026-04-05T14:49:50.918Z</time></trkpt><trkpt lat="40.031993639061305" lon="18.186728361660307"><ele>153.0</ele><time>2026-04-05T14:49:51.918Z</time></trkpt><trkpt lat="40.031866160347704" lon="18.186462322918725"><ele>153.5</ele><time>2026-04-05T14:49:52.918Z</time></trkpt><trkpt lat="40.031737855053066" lon="18.18619960302268"><ele>154.0</ele><time>2026-04-05T14:49:53.919Z</time></trkpt><trkpt lat="40.03161123544207" lon="18.18593439435085"><ele>154.5</ele><time>2026-04-05T14:49:54.919Z</time></trkpt><trkpt lat="40.0314880551575" lon="18.185673170775733"><ele>155.0</ele><time>2026-04-05T14:49:55.918Z</time></trkpt><trkpt lat="40.031369375305495" lon="18.18541057584134"><ele>155.0</ele><time>2026-04-05T14:49:56.919Z</time></trkpt><trkpt lat="40.03125405610925" lon="18.18514875508164"><ele>155.0</ele><time>2026-04-05T14:49:57.919Z</time></trkpt><trkpt lat="40.03114330384106" lon="18.18488488808819"><ele>155.5</ele><time>2026-04-05T14:49:58.919Z</time></trkpt><trkpt lat="40.03103889745455" lon="18.184620559570888"><ele>156.0</ele><time>2026-04-05T14:49:59.918Z</time></trkpt><trkpt lat="40.03094268649826" lon="18.18435231568205"><ele>156.0</ele><time>2026-04-05T14:50:00.918Z</time></trkpt><trkpt lat="40.030852019385215" lon="18.184081288645658"><ele>156.0</ele><time>2026-04-05T14:50:01.918Z</time></trkpt><trkpt lat="40.03076873226351" lon="18.183805253796436"><ele>156.5</ele><time>2026-04-05T14:50:02.918Z</time></trkpt><trkpt lat="40.030685654498654" lon="18.183528299745063"><ele>157.0</ele><time>2026-04-05T14:50:03.918Z</time></trkpt><trkpt lat="40.03060103401673" lon="18.183253877009037"><ele>156.5</ele><time>2026-04-05T14:50:04.918Z</time></trkpt><trkpt lat="40.03052100948866" lon="18.182979632766564"><ele>156.0</ele><time>2026-04-05T14:50:05.918Z</time></trkpt><trkpt lat="40.030438226364794" lon="18.182700053040755"><ele>156.0</ele><time>2026-04-05T14:50:06.918Z</time></trkpt><trkpt lat="40.03035566182314" lon="18.18241995105246"><ele>156.0</ele><time>2026-04-05T14:50:07.918Z</time></trkpt><trkpt lat="40.03026859247467" lon="18.182139404900685"><ele>156.5</ele><time>2026-04-05T14:50:08.918Z</time></trkpt><trkpt lat="40.0301870941427" lon="18.181856773325613"><ele>157.0</ele><time>2026-04-05T14:50:09.918Z</time></trkpt><trkpt lat="40.030103620063436" lon="18.18157154175196"><ele>157.5</ele><time>2026-04-05T14:50:10.918Z</time></trkpt><trkpt lat="40.03002244256256" lon="18.18128677598828"><ele>158.0</ele><time>2026-04-05T14:50:11.918Z</time></trkpt><trkpt lat="40.029938595270124" lon="18.181002711413136"><ele>158.0</ele><time>2026-04-05T14:50:12.918Z</time></trkpt><trkpt lat="40.0298542866801" lon="18.180716825935953"><ele>158.0</ele><time>2026-04-05T14:50:13.918Z</time></trkpt><trkpt lat="40.02977012428886" lon="18.180436745637152"><ele>158.0</ele><time>2026-04-05T14:50:14.918Z</time></trkpt><trkpt lat="40.02968649415796" lon="18.180152136234604"><ele>158.0</ele><time>2026-04-05T14:50:15.918Z</time></trkpt><trkpt lat="40.02960139827705" lon="18.17987252304174"><ele>158.0</ele><time>2026-04-05T14:50:16.918Z</time></trkpt><trkpt lat="40.02951781990312" lon="18.179588189464983"><ele>158.0</ele><time>2026-04-05T14:50:17.918Z</time></trkpt><trkpt lat="40.02942857496394" lon="18.179306572464778"><ele>158.0</ele><time>2026-04-05T14:50:18.918Z</time></trkpt><trkpt lat="40.02932895975942" lon="18.17903055879362"><ele>158.0</ele><time>2026-04-05T14:50:19.918Z</time></trkpt><trkpt lat="40.02922228924489" lon="18.17876359733807"><ele>157.5</ele><time>2026-04-05T14:50:20.918Z</time></trkpt><trkpt lat="40.02910426782931" lon="18.17849703672442"><ele>157.0</ele><time>2026-04-05T14:50:21.918Z</time></trkpt><trkpt lat="40.02898145813374" lon="18.178236304955796"><ele>157.0</ele><time>2026-04-05T14:50:22.918Z</time></trkpt><trkpt lat="40.02884705988332" lon="18.177983361536366"><ele>157.0</ele><time>2026-04-05T14:50:23.918Z</time></trkpt><trkpt lat="40.02870453789609" lon="18.177746536628174"><ele>157.0</ele><time>2026-04-05T14:50:24.918Z</time></trkpt><trkpt lat="40.028555558528346" lon="18.177507611099262"><ele>157.0</ele><time>2026-04-05T14:50:25.918Z</time></trkpt><trkpt lat="40.02839712116425" lon="18.177277486408553"><ele>156.5</ele><time>2026-04-05T14:50:26.918Z</time></trkpt><trkpt lat="40.028233044702134" lon="18.177050129018966"><ele>156.0</ele><time>2026-04-05T14:50:27.918Z</time></trkpt><trkpt lat="40.02805757885878" lon="18.17683400163268"><ele>156.0</ele><time>2026-04-05T14:50:28.918Z</time></trkpt><trkpt lat="40.0278783843838" lon="18.17662663092575"><ele>156.0</ele><time>2026-04-05T14:50:29.918Z</time></trkpt><trkpt lat="40.02768850746793" lon="18.17644116910268"><ele>156.0</ele><time>2026-04-05T14:50:30.918Z</time></trkpt><trkpt lat="40.02749272092299" lon="18.176259002482997"><ele>156.0</ele><time>2026-04-05T14:50:31.918Z</time></trkpt><trkpt lat="40.02728881080511" lon="18.17608850525198"><ele>155.5</ele><time>2026-04-05T14:50:32.918Z</time></trkpt><trkpt lat="40.02708326959811" lon="18.17593543489674"><ele>155.0</ele><time>2026-04-05T14:50:33.918Z</time></trkpt><trkpt lat="40.0268694305026" lon="18.175789495975735"><ele>155.0</ele><time>2026-04-05T14:50:34.918Z</time></trkpt><trkpt lat="40.02665690006305" lon="18.175647805604708"><ele>155.0</ele><time>2026-04-05T14:50:35.918Z</time></trkpt><trkpt lat="40.0264435866071" lon="18.175510114575303"><ele>155.5</ele><time>2026-04-05T14:50:36.918Z</time></trkpt><trkpt lat="40.02623568664496" lon="18.175375472506403"><ele>156.0</ele><time>2026-04-05T14:50:37.918Z</time></trkpt><trkpt lat="40.026030872690804" lon="18.17523542998453"><ele>156.0</ele><time>2026-04-05T14:50:38.918Z</time></trkpt><trkpt lat="40.02582188825976" lon="18.175094473329324"><ele>156.0</ele><time>2026-04-05T14:50:39.918Z</time></trkpt><trkpt lat="40.02561570149973" lon="18.174963548585364"><ele>155.0</ele><time>2026-04-05T14:50:40.918Z</time></trkpt><trkpt lat="40.02541170950882" lon="18.174831532927126"><ele>154.0</ele><time>2026-04-05T14:50:41.918Z</time></trkpt><trkpt lat="40.02520646647052" lon="18.17469701097184"><ele>154.0</ele><time>2026-04-05T14:50:42.918Z</time></trkpt><trkpt lat="40.0249977584032" lon="18.17456060336408"><ele>154.0</ele><time>2026-04-05T14:50:43.918Z</time></trkpt><trkpt lat="40.02479049968726" lon="18.174424111713964"><ele>154.5</ele><time>2026-04-05T14:50:44.918Z</time></trkpt><trkpt lat="40.024585178272936" lon="18.174291168224112"><ele>155.0</ele><time>2026-04-05T14:50:45.918Z</time></trkpt><trkpt lat="40.024379060389" lon="18.174150839857766"><ele>154.0</ele><time>2026-04-05T14:50:46.918Z</time></trkpt><trkpt lat="40.024175218465814" lon="18.174014126920017"><ele>153.0</ele><time>2026-04-05T14:50:47.918Z</time></trkpt><trkpt lat="40.02397004090299" lon="18.173885300901375"><ele>152.5</ele><time>2026-04-05T14:50:48.918Z</time></trkpt><trkpt lat="40.0237667377967" lon="18.173748144396487"><ele>152.0</ele><time>2026-04-05T14:50:49.918Z</time></trkpt><trkpt lat="40.023561438333346" lon="18.173617721688327"><ele>152.0</ele><time>2026-04-05T14:50:50.918Z</time></trkpt><trkpt lat="40.0233591686249" lon="18.173485001482803"><ele>152.0</ele><time>2026-04-05T14:50:51.918Z</time></trkpt><trkpt lat="40.0231732471435" lon="18.173356283715755"><ele>152.0</ele><time>2026-04-05T14:50:52.918Z</time></trkpt><trkpt lat="40.02299867969775" lon="18.17324905170789"><ele>152.0</ele><time>2026-04-05T14:50:53.918Z</time></trkpt><trkpt lat="40.022825515667265" lon="18.17313633692138"><ele>152.0</ele><time>2026-04-05T14:50:54.918Z</time></trkpt><trkpt lat="40.02266581178333" lon="18.173025216572732"><ele>152.0</ele><time>2026-04-05T14:50:55.918Z</time></trkpt><trkpt lat="40.022512085340416" lon="18.172909119495245"><ele>151.66666666666666</ele><time>2026-04-05T14:50:56.918Z</time></trkpt><trkpt lat="40.02236362768614" lon="18.172801366046002"><ele>151.33333333333334</ele><time>2026-04-05T14:50:57.918Z</time></trkpt><trkpt lat="40.02221545646654" lon="18.172702286202824"><ele>151.0</ele><time>2026-04-05T14:50:58.918Z</time></trkpt><trkpt lat="40.02207249079125" lon="18.17260689444126"><ele>151.0</ele><time>2026-04-05T14:50:59.918Z</time></trkpt><trkpt lat="40.02192719767031" lon="18.172512916289634"><ele>151.0</ele><time>2026-04-05T14:51:00.918Z</time></trkpt><trkpt lat="40.02178164201316" lon="18.17242084973586"><ele>151.0</ele><time>2026-04-05T14:51:01.918Z</time></trkpt><trkpt lat="40.02163399756901" lon="18.172325836996233"><ele>148.66666666666669</ele><time>2026-04-05T14:51:02.918Z</time></trkpt><trkpt lat="40.02148778641157" lon="18.172231208580303"><ele>146.33333333333334</ele><time>2026-04-05T14:51:03.918Z</time></trkpt><trkpt lat="40.02134775569144" lon="18.172144089579902"><ele>144.0</ele><time>2026-04-05T14:51:04.918Z</time></trkpt><trkpt lat="40.021211682022" lon="18.17205710704571"><ele>144.0</ele><time>2026-04-05T14:51:05.918Z</time></trkpt><trkpt lat="40.02108486922956" lon="18.17197272919128"><ele>144.0</ele><time>2026-04-05T14:51:06.918Z</time></trkpt><trkpt lat="40.020964102486836" lon="18.1718929677946"><ele>144.0</ele><time>2026-04-05T14:51:07.918Z</time></trkpt><trkpt lat="40.02085057734472" lon="18.171828529565218"><ele>144.0</ele><time>2026-04-05T14:51:08.918Z</time></trkpt><trkpt lat="40.02074737448676" lon="18.171753610176133"><ele>143.8</ele><time>2026-04-05T14:51:09.918Z</time></trkpt><trkpt lat="40.02064539845509" lon="18.17168975374559"><ele>143.60000000000002</ele><time>2026-04-05T14:51:10.918Z</time></trkpt><trkpt lat="40.02054983571021" lon="18.17162798239366"><ele>143.4</ele><time>2026-04-05T14:51:11.918Z</time></trkpt><trkpt lat="40.020464614863535" lon="18.171571198646628"><ele>143.20000000000002</ele><time>2026-04-05T14:51:12.918Z</time></trkpt><trkpt lat="40.02039092669254" lon="18.171521434095965"><ele>143.0</ele><time>2026-04-05T14:51:13.918Z</time></trkpt><trkpt lat="40.020330908660455" lon="18.17148683095571"><ele>142.0</ele><time>2026-04-05T14:51:15.918Z</time></trkpt><trkpt lat="40.0202301460491" lon="18.171423716629327"><ele>141.0</ele><time>2026-04-05T14:51:19.918Z</time></trkpt><trkpt lat="40.020164496501586" lon="18.171377137431964"><ele>140.0</ele><time>2026-04-05T14:51:20.918Z</time></trkpt><trkpt lat="40.020080085695795" lon="18.17132646801003"><ele>139.0</ele><time>2026-04-05T14:51:21.918Z</time></trkpt><trkpt lat="40.019968600160404" lon="18.17127465603403"><ele>138.0</ele><time>2026-04-05T14:51:22.918Z</time></trkpt><trkpt lat="40.019862610966534" lon="18.171203506577356"><ele>137.4</ele><time>2026-04-05T14:51:23.918Z</time></trkpt><trkpt lat="40.019771895356904" lon="18.171132181178987"><ele>136.8</ele><time>2026-04-05T14:51:24.918Z</time></trkpt><trkpt lat="40.01969307791807" lon="18.171077673367265"><ele>136.2</ele><time>2026-04-05T14:51:25.918Z</time></trkpt><trkpt lat="40.01960349591447" lon="18.17101284459292"><ele>135.6</ele><time>2026-04-05T14:51:26.918Z</time></trkpt><trkpt lat="40.019486599502216" lon="18.170945433678373"><ele>135.0</ele><time>2026-04-05T14:51:27.918Z</time></trkpt><trkpt lat="40.019353180039055" lon="18.17086306453582"><ele>135.0</ele><time>2026-04-05T14:51:28.918Z</time></trkpt><trkpt lat="40.019232046243495" lon="18.17079172758372"><ele>135.0</ele><time>2026-04-05T14:51:29.918Z</time></trkpt><trkpt lat="40.019124370183164" lon="18.170738257989342"><ele>135.0</ele><time>2026-04-05T14:51:30.918Z</time></trkpt><trkpt lat="40.01902064585013" lon="18.17066380045562"><ele>135.0</ele><time>2026-04-05T14:51:31.918Z</time></trkpt><trkpt lat="40.01891536327864" lon="18.17059704968888"><ele>134.5</ele><time>2026-04-05T14:51:32.918Z</time></trkpt><trkpt lat="40.01879160856402" lon="18.170521288903714"><ele>134.0</ele><time>2026-04-05T14:51:33.918Z</time></trkpt><trkpt lat="40.01867952749123" lon="18.170447226094524"><ele>133.5</ele><time>2026-04-05T14:51:34.918Z</time></trkpt><trkpt lat="40.01858800807176" lon="18.170353018348724"><ele>133.0</ele><time>2026-04-05T14:51:35.918Z</time></trkpt><trkpt lat="40.01848790646487" lon="18.17029486080783"><ele>133.0</ele><time>2026-04-05T14:51:36.918Z</time></trkpt><trkpt lat="40.01840451734748" lon="18.17024617131164"><ele>133.0</ele><time>2026-04-05T14:51:37.918Z</time></trkpt><trkpt lat="40.01833702272908" lon="18.17020997265482"><ele>133.0</ele><time>2026-04-05T14:51:38.918Z</time></trkpt><trkpt lat="40.01822403891396" lon="18.1701859440577"><ele>133.0</ele><time>2026-04-05T14:51:40.918Z</time></trkpt><trkpt lat="40.01813479151556" lon="18.170253935799643"><ele>133.0</ele><time>2026-04-05T14:51:42.917Z</time></trkpt><trkpt lat="40.018059355366255" lon="18.170333534031066"><ele>132.8</ele><time>2026-04-05T14:51:44.917Z</time></trkpt><trkpt lat="40.01798101112336" lon="18.170362630768714"><ele>132.60000000000002</ele><time>2026-04-05T14:51:46.917Z</time></trkpt><trkpt lat="40.017907209227744" lon="18.170346940652347"><ele>132.39999999999998</ele><time>2026-04-05T14:51:47.917Z</time></trkpt><trkpt lat="40.017810850824915" lon="18.170305121084255"><ele>132.2</ele><time>2026-04-05T14:51:48.917Z</time></trkpt><trkpt lat="40.01768512477986" lon="18.170259183322226"><ele>132.0</ele><time>2026-04-05T14:51:49.917Z</time></trkpt><trkpt lat="40.01753125192217" lon="18.17020990365078"><ele>132.2</ele><time>2026-04-05T14:51:50.917Z</time></trkpt><trkpt lat="40.017377021927054" lon="18.170156645909227"><ele>132.39999999999998</ele><time>2026-04-05T14:51:51.917Z</time></trkpt><trkpt lat="40.017258486504154" lon="18.17011205174533"><ele>132.60000000000002</ele><time>2026-04-05T14:51:52.917Z</time></trkpt><trkpt lat="40.017170230569675" lon="18.17007936439604"><ele>132.8</ele><time>2026-04-05T14:51:53.918Z</time></trkpt><trkpt lat="40.01710130221875" lon="18.170052752822173"><ele>133.0</ele><time>2026-04-05T14:51:54.918Z</time></trkpt><trkpt lat="40.017019520819794" lon="18.17003785735909"><ele>133.0</ele><time>2026-04-05T14:51:55.918Z</time></trkpt><trkpt lat="40.01690437089922" lon="18.170004036229606"><ele>133.0</ele><time>2026-04-05T14:51:56.918Z</time></trkpt><trkpt lat="40.016769017027194" lon="18.169958968076543"><ele>133.0</ele><time>2026-04-05T14:51:57.918Z</time></trkpt><trkpt lat="40.016605611658676" lon="18.16991834248257"><ele>133.0</ele><time>2026-04-05T14:51:58.918Z</time></trkpt><trkpt lat="40.01646827315061" lon="18.1698859119532"><ele>132.66666666666669</ele><time>2026-04-05T14:51:59.917Z</time></trkpt><trkpt lat="40.01637186616524" lon="18.16985729745855"><ele>132.33333333333334</ele><time>2026-04-05T14:52:00.917Z</time></trkpt><trkpt lat="40.01630363237431" lon="18.169834560314168"><ele>132.0</ele><time>2026-04-05T14:52:01.917Z</time></trkpt><trkpt lat="40.01622915018852" lon="18.169820458972634"><ele>131.66666666666666</ele><time>2026-04-05T14:52:02.918Z</time></trkpt><trkpt lat="40.01610864573803" lon="18.169784126141316"><ele>131.33333333333331</ele><time>2026-04-05T14:52:04.917Z</time></trkpt><trkpt lat="40.01604303499924" lon="18.169764578048827"><ele>131.0</ele><time>2026-04-05T14:52:05.917Z</time></trkpt><trkpt lat="40.01597085285636" lon="18.169727991005118"><ele>131.0</ele><time>2026-04-05T14:52:06.917Z</time></trkpt><trkpt lat="40.01588136027127" lon="18.169677289522213"><ele>131.0</ele><time>2026-04-05T14:52:07.917Z</time></trkpt><trkpt lat="40.01578781570042" lon="18.16962476044878"><ele>131.0</ele><time>2026-04-05T14:52:08.917Z</time></trkpt><trkpt lat="40.01570547425946" lon="18.16956363769519"><ele>131.0</ele><time>2026-04-05T14:52:09.917Z</time></trkpt><trkpt lat="40.01562596020416" lon="18.169499219924926"><ele>131.0</ele><time>2026-04-05T14:52:10.917Z</time></trkpt><trkpt lat="40.01554532475684" lon="18.16943644662574"><ele>130.2</ele><time>2026-04-05T14:52:11.917Z</time></trkpt><trkpt lat="40.01546520732263" lon="18.16937350344643"><ele>129.39999999999998</ele><time>2026-04-05T14:52:12.917Z</time></trkpt><trkpt lat="40.01538482276274" lon="18.169313374412017"><ele>128.6</ele><time>2026-04-05T14:52:13.917Z</time></trkpt><trkpt lat="40.015308250797524" lon="18.169254434861877"><ele>127.8</ele><time>2026-04-05T14:52:14.917Z</time></trkpt><trkpt lat="40.01523338144491" lon="18.16918783015793"><ele>127.0</ele><time>2026-04-05T14:52:15.917Z</time></trkpt><trkpt lat="40.015146743938615" lon="18.1691277256851"><ele>127.0</ele><time>2026-04-05T14:52:16.917Z</time></trkpt><trkpt lat="40.015061147543136" lon="18.169070279259323"><ele>126.99999999999999</ele><time>2026-04-05T14:52:17.917Z</time></trkpt><trkpt lat="40.01497971000348" lon="18.169002351010114"><ele>126.99999999999999</ele><time>2026-04-05T14:52:18.917Z</time></trkpt><trkpt lat="40.01489724289858" lon="18.168937507762262"><ele>127.0</ele><time>2026-04-05T14:52:19.917Z</time></trkpt><trkpt lat="40.014819093590766" lon="18.16887126301641"><ele>127.0</ele><time>2026-04-05T14:52:20.917Z</time></trkpt><trkpt lat="40.01474369799894" lon="18.168809916531178"><ele>126.66666666666667</ele><time>2026-04-05T14:52:21.917Z</time></trkpt><trkpt lat="40.01466969488243" lon="18.168751950969835"><ele>126.33333333333334</ele><time>2026-04-05T14:52:22.917Z</time></trkpt><trkpt lat="40.01459910858928" lon="18.168696720457056"><ele>126.0</ele><time>2026-04-05T14:52:23.917Z</time></trkpt><trkpt lat="40.01453512757232" lon="18.168640469117694"><ele>125.66666666666666</ele><time>2026-04-05T14:52:24.917Z</time></trkpt><trkpt lat="40.014462866761164" lon="18.16858883429824"><ele>125.33333333333333</ele><time>2026-04-05T14:52:25.917Z</time></trkpt><trkpt lat="40.01439703036473" lon="18.168535065065015"><ele>125.0</ele><time>2026-04-05T14:52:26.917Z</time></trkpt><trkpt lat="40.014329364488304" lon="18.168495293282746"><ele>124.99999999999999</ele><time>2026-04-05T14:52:27.917Z</time></trkpt><trkpt lat="40.014267915801526" lon="18.168454761911807"><ele>125.0</ele><time>2026-04-05T14:52:28.917Z</time></trkpt><trkpt lat="40.014214402368566" lon="18.168403645652617"><ele>125.0</ele><time>2026-04-05T14:52:29.917Z</time></trkpt><trkpt lat="40.01413569383272" lon="18.168351214052375"><ele>125.0</ele><time>2026-04-05T14:52:31.917Z</time></trkpt><trkpt lat="40.01405411196236" lon="18.16829475719341"><ele>124.99999999999999</ele><time>2026-04-05T14:52:33.917Z</time></trkpt><trkpt lat="40.0139496884207" lon="18.168215838641636"><ele>125.0</ele><time>2026-04-05T14:52:35.917Z</time></trkpt><trkpt lat="40.01388548450551" lon="18.16817210619637"><ele>124.16666666666666</ele><time>2026-04-05T14:52:36.917Z</time></trkpt><trkpt lat="40.01381540966039" lon="18.168135539107194"><ele>123.33333333333333</ele><time>2026-04-05T14:52:37.917Z</time></trkpt><trkpt lat="40.013748765788456" lon="18.168087532199312"><ele>122.5</ele><time>2026-04-05T14:52:38.917Z</time></trkpt><trkpt lat="40.013683384238206" lon="18.168039548280515"><ele>121.66666666666666</ele><time>2026-04-05T14:52:39.917Z</time></trkpt><trkpt lat="40.013620883700774" lon="18.167988851029186"><ele>120.83333333333333</ele><time>2026-04-05T14:52:40.917Z</time></trkpt><trkpt lat="40.01356063056634" lon="18.1679311638362"><ele>120.0</ele><time>2026-04-05T14:52:41.917Z</time></trkpt><trkpt lat="40.01349669820172" lon="18.167877636211582"><ele>120.0</ele><time>2026-04-05T14:52:42.917Z</time></trkpt><trkpt lat="40.013432325010875" lon="18.16781906099998"><ele>120.0</ele><time>2026-04-05T14:52:43.917Z</time></trkpt><trkpt lat="40.013369224156136" lon="18.167763941009603"><ele>120.0</ele><time>2026-04-05T14:52:44.917Z</time></trkpt><trkpt lat="40.01330774620078" lon="18.16770299032071"><ele>120.0</ele><time>2026-04-05T14:52:45.917Z</time></trkpt><trkpt lat="40.013266111118874" lon="18.167624710343635"><ele>120.0</ele><time>2026-04-05T14:52:46.917Z</time></trkpt><trkpt lat="40.013219738166384" lon="18.167553599026494"><ele>120.0</ele><time>2026-04-05T14:52:47.917Z</time></trkpt><trkpt lat="40.01315659322283" lon="18.167419357975728"><ele>118.83333333333333</ele><time>2026-04-05T14:52:49.917Z</time></trkpt><trkpt lat="40.01310134773259" lon="18.167289606058663"><ele>117.66666666666666</ele><time>2026-04-05T14:52:51.917Z</time></trkpt><trkpt lat="40.01307563263118" lon="18.167200066011343"><ele>116.5</ele><time>2026-04-05T14:52:52.917Z</time></trkpt><trkpt lat="40.01304295964738" lon="18.167119641910933"><ele>115.33333333333333</ele><time>2026-04-05T14:52:53.917Z</time></trkpt><trkpt lat="40.013012639762785" lon="18.167037949706334"><ele>114.16666666666666</ele><time>2026-04-05T14:52:54.917Z</time></trkpt><trkpt lat="40.01299009927126" lon="18.166955274870464"><ele>113.0</ele><time>2026-04-05T14:52:55.917Z</time></trkpt><trkpt lat="40.01295741032876" lon="18.16680875863707"><ele>113.0</ele><time>2026-04-05T14:52:57.917Z</time></trkpt><trkpt lat="40.01294474382941" lon="18.166694990083652"><ele>113.00000000000001</ele><time>2026-04-05T14:52:59.917Z</time></trkpt><trkpt lat="40.01290748408409" lon="18.166576124162344"><ele>113.00000000000001</ele><time>2026-04-05T14:53:01.917Z</time></trkpt><trkpt lat="40.01287057849461" lon="18.166436343064117"><ele>113.0</ele><time>2026-04-05T14:53:03.917Z</time></trkpt><trkpt lat="40.012844025780275" lon="18.166304925942125"><ele>113.0</ele><time>2026-04-05T14:53:05.917Z</time></trkpt><trkpt lat="40.012811985100875" lon="18.166171104723205"><ele>112.60000000000001</ele><time>2026-04-05T14:53:07.917Z</time></trkpt><trkpt lat="40.01277297154955" lon="18.166035824939087"><ele>112.20000000000002</ele><time>2026-04-05T14:53:09.917Z</time></trkpt><trkpt lat="40.01269210241082" lon="18.165900663446333"><ele>111.8</ele><time>2026-04-05T14:53:11.917Z</time></trkpt><trkpt lat="40.012671847986006" lon="18.16581701406493"><ele>111.4</ele><time>2026-04-05T14:53:12.917Z</time></trkpt><trkpt lat="40.0126527919429" lon="18.16568530299909"><ele>111.0</ele><time>2026-04-05T14:53:14.917Z</time></trkpt><trkpt lat="40.01262848117452" lon="18.1655750545358"><ele>111.0</ele><time>2026-04-05T14:53:16.917Z</time></trkpt><trkpt lat="40.01260172115115" lon="18.165464264634913"><ele>111.0</ele><time>2026-04-05T14:53:18.917Z</time></trkpt><trkpt lat="40.01258838181549" lon="18.165362271805897"><ele>111.0</ele><time>2026-04-05T14:53:20.917Z</time></trkpt><trkpt lat="40.0126086379383" lon="18.165239816467956"><ele>111.0</ele><time>2026-04-05T14:53:23.917Z</time></trkpt><trkpt lat="40.01259149632126" lon="18.16513282545605"><ele>111.0</ele><time>2026-04-05T14:53:25.917Z</time></trkpt><trkpt lat="40.01252759957026" lon="18.164998481314353"><ele>111.0</ele><time>2026-04-05T14:53:27.917Z</time></trkpt><trkpt lat="40.01249857333305" lon="18.1648539099554"><ele>111.0</ele><time>2026-04-05T14:53:29.917Z</time></trkpt><trkpt lat="40.01246946531185" lon="18.164723829884068"><ele>111.0</ele><time>2026-04-05T14:53:31.917Z</time></trkpt><trkpt lat="40.01244714355992" lon="18.164610413882873"><ele>111.0</ele><time>2026-04-05T14:53:33.917Z</time></trkpt><trkpt lat="40.01240444367125" lon="18.16445811991439"><ele>111.0</ele><time>2026-04-05T14:53:35.917Z</time></trkpt><trkpt lat="40.012360633474046" lon="18.16432440952941"><ele>111.0</ele><time>2026-04-05T14:53:37.917Z</time></trkpt><trkpt lat="40.012312272090945" lon="18.164196229056845"><ele>111.0</ele><time>2026-04-05T14:53:39.917Z</time></trkpt><trkpt lat="40.01227761066621" lon="18.164078561293547"><ele>111.0</ele><time>2026-04-05T14:53:41.917Z</time></trkpt><trkpt lat="40.01225122814724" lon="18.1639592138721"><ele>111.0</ele><time>2026-04-05T14:53:43.917Z</time></trkpt><trkpt lat="40.01221920097126" lon="18.163835621745044"><ele>111.0</ele><time>2026-04-05T14:53:45.917Z</time></trkpt><trkpt lat="40.01219434493582" lon="18.163746045562682"><ele>111.0</ele><time>2026-04-05T14:53:47.917Z</time></trkpt><trkpt lat="40.01218096782809" lon="18.163649810345163"><ele>111.0</ele><time>2026-04-05T14:53:49.917Z</time></trkpt><trkpt lat="40.01212319599318" lon="18.163592460370737"><ele>111.0</ele><time>2026-04-05T14:53:53.916Z</time></trkpt><trkpt lat="40.01205853374311" lon="18.163605709714616"><ele>111.0</ele><time>2026-04-05T14:53:54.916Z</time></trkpt><trkpt lat="40.011988422575456" lon="18.163652307336875"><ele>111.0</ele><time>2026-04-05T14:53:55.916Z</time></trkpt><trkpt lat="40.011927026905454" lon="18.16367770055746"><ele>111.0</ele><time>2026-04-05T14:53:56.916Z</time></trkpt><trkpt lat="40.01184701858575" lon="18.163693491010363"><ele>111.0</ele><time>2026-04-05T14:53:57.916Z</time></trkpt><trkpt lat="40.01178109084699" lon="18.163695686934567"><ele>111.0</ele><time>2026-04-05T14:53:58.917Z</time></trkpt><trkpt lat="40.01168499076728" lon="18.163710511905965"><ele>111.0</ele><time>2026-04-05T14:54:00.916Z</time></trkpt><trkpt lat="40.01167075878736" lon="18.163816468865043"><ele>111.0</ele><time>2026-04-05T14:54:03.917Z</time></trkpt><trkpt lat="40.011696283349494" lon="18.1639175992799"><ele>111.0</ele><time>2026-04-05T14:54:05.917Z</time></trkpt><trkpt lat="40.01172318401608" lon="18.16401337251667"><ele>111.0</ele><time>2026-04-05T14:54:07.917Z</time></trkpt><trkpt lat="40.011741696690656" lon="18.16410882899389"><ele>111.0</ele><time>2026-04-05T14:54:09.916Z</time></trkpt><trkpt lat="40.01175479526225" lon="18.164190900909517"><ele>111.0</ele><time>2026-04-05T14:54:11.917Z</time></trkpt><trkpt lat="40.01170767345162" lon="18.164279968386897"><ele>111.0</ele><time>2026-04-05T14:54:14.917Z</time></trkpt><trkpt lat="40.01163234227029" lon="18.164308634712604"><ele>111.0</ele><time>2026-04-05T14:54:16.917Z</time></trkpt><trkpt lat="40.011557842176515" lon="18.164353761005504"><ele>111.0</ele><time>2026-04-05T14:54:19.917Z</time></trkpt><trkpt lat="40.01158587722176" lon="18.16442846445957"><ele>111.0</ele><time>2026-04-05T14:54:23.917Z</time></trkpt><trkpt lat="40.011526861072596" lon="18.164477482646372"><ele>111.0</ele><time>2026-04-05T14:54:26.917Z</time></trkpt><trkpt lat="40.01142935627441" lon="18.164579367753735"><ele>110.19999999999999</ele><time>2026-04-05T14:54:28.916Z</time></trkpt><trkpt lat="40.011351827635735" lon="18.164705621302947"><ele>109.39999999999999</ele><time>2026-04-05T14:54:30.916Z</time></trkpt><trkpt lat="40.01127487715785" lon="18.16480289154885"><ele>108.6</ele><time>2026-04-05T14:54:32.916Z</time></trkpt><trkpt lat="40.0112324698866" lon="18.16488007714822"><ele>107.8</ele><time>2026-04-05T14:54:34.916Z</time></trkpt><trkpt lat="40.01121736680229" lon="18.164970715988073"><ele>107.0</ele><time>2026-04-05T14:55:06.916Z</time></trkpt><trkpt lat="40.0111359940568" lon="18.165116813112963"><ele>106.39999999999999</ele><time>2026-04-05T14:55:08.916Z</time></trkpt><trkpt lat="40.01108082854658" lon="18.165209469210737"><ele>105.79999999999998</ele><time>2026-04-05T14:55:09.916Z</time></trkpt><trkpt lat="40.01101982395033" lon="18.165315742669563"><ele>105.2</ele><time>2026-04-05T14:55:10.916Z</time></trkpt><trkpt lat="40.01095134109274" lon="18.165433101382924"><ele>104.6</ele><time>2026-04-05T14:55:11.916Z</time></trkpt><trkpt lat="40.01088514546907" lon="18.16555248363915"><ele>104.0</ele><time>2026-04-05T14:55:12.916Z</time></trkpt><trkpt lat="40.010814272639834" lon="18.16567949647962"><ele>102.25</ele><time>2026-04-05T14:55:13.916Z</time></trkpt><trkpt lat="40.010745164552596" lon="18.165800195173535"><ele>100.5</ele><time>2026-04-05T14:55:14.916Z</time></trkpt><trkpt lat="40.010676623303354" lon="18.165914172555997"><ele>98.75</ele><time>2026-04-05T14:55:15.916Z</time></trkpt><trkpt lat="40.01059216905507" lon="18.16602597926486"><ele>97.0</ele><time>2026-04-05T14:55:16.916Z</time></trkpt><trkpt lat="40.01051788498013" lon="18.166137823700954"><ele>97.0</ele><time>2026-04-05T14:55:17.916Z</time></trkpt><trkpt lat="40.01044451286521" lon="18.16622775576555"><ele>97.0</ele><time>2026-04-05T14:55:18.916Z</time></trkpt><trkpt lat="40.01035650397521" lon="18.166303031166358"><ele>97.0</ele><time>2026-04-05T14:55:19.916Z</time></trkpt><trkpt lat="40.010256316035814" lon="18.1663688258073"><ele>97.0</ele><time>2026-04-05T14:55:20.916Z</time></trkpt><trkpt lat="40.010156099564696" lon="18.166416095512552"><ele>97.0</ele><time>2026-04-05T14:55:21.916Z</time></trkpt><trkpt lat="40.01004932555769" lon="18.16644055771341"><ele>96.25</ele><time>2026-04-05T14:55:22.916Z</time></trkpt><trkpt lat="40.009918357814904" lon="18.166453675258232"><ele>95.5</ele><time>2026-04-05T14:55:23.916Z</time></trkpt><trkpt lat="40.00977373359459" lon="18.16646029684357"><ele>94.75</ele><time>2026-04-05T14:55:24.916Z</time></trkpt><trkpt lat="40.00960851345575" lon="18.166468710036952"><ele>94.0</ele><time>2026-04-05T14:55:25.916Z</time></trkpt><trkpt lat="40.009462595169516" lon="18.166481205811866"><ele>94.0</ele><time>2026-04-05T14:55:26.916Z</time></trkpt><trkpt lat="40.00934239540418" lon="18.166483500748463"><ele>94.0</ele><time>2026-04-05T14:55:27.916Z</time></trkpt><trkpt lat="40.00925570316091" lon="18.166508346744934"><ele>94.0</ele><time>2026-04-05T14:55:28.916Z</time></trkpt><trkpt lat="40.00916342123059" lon="18.166525032771474"><ele>94.0</ele><time>2026-04-05T14:55:29.916Z</time></trkpt><trkpt lat="40.00908241321531" lon="18.166547332140745"><ele>94.0</ele><time>2026-04-05T14:55:30.916Z</time></trkpt><trkpt lat="40.008995466471546" lon="18.166593750665573"><ele>94.5</ele><time>2026-04-05T14:55:31.916Z</time></trkpt><trkpt lat="40.008900806278405" lon="18.16665718010756"><ele>95.0</ele><time>2026-04-05T14:55:32.916Z</time></trkpt><trkpt lat="40.00877040245674" lon="18.166698193389234"><ele>95.5</ele><time>2026-04-05T14:55:33.916Z</time></trkpt><trkpt lat="40.00862987400101" lon="18.166735898583166"><ele>96.0</ele><time>2026-04-05T14:55:34.916Z</time></trkpt><trkpt lat="40.00849289378113" lon="18.1667686479265"><ele>96.0</ele><time>2026-04-05T14:55:35.916Z</time></trkpt><trkpt lat="40.00837536919403" lon="18.166798170823274"><ele>96.0</ele><time>2026-04-05T14:55:36.916Z</time></trkpt><trkpt lat="40.00825718874521" lon="18.166819885670744"><ele>96.0</ele><time>2026-04-05T14:55:37.916Z</time></trkpt><trkpt lat="40.00813666331489" lon="18.166850284264626"><ele>96.0</ele><time>2026-04-05T14:55:38.916Z</time></trkpt><trkpt lat="40.00805571477569" lon="18.166937848666088"><ele>95.28571428571428</ele><time>2026-04-05T14:55:39.916Z</time></trkpt><trkpt lat="40.00798551425022" lon="18.167016065353884"><ele>94.57142857142857</ele><time>2026-04-05T14:55:40.916Z</time></trkpt><trkpt lat="40.00791722371927" lon="18.167078709180576"><ele>93.85714285714286</ele><time>2026-04-05T14:55:41.916Z</time></trkpt><trkpt lat="40.007852170713974" lon="18.16712016239828"><ele>93.14285714285714</ele><time>2026-04-05T14:55:42.916Z</time></trkpt><trkpt lat="40.007793056740475" lon="18.16716996627986"><ele>92.42857142857143</ele><time>2026-04-05T14:55:43.916Z</time></trkpt><trkpt lat="40.00773991786033" lon="18.16721826065561"><ele>91.71428571428571</ele><time>2026-04-05T14:55:44.916Z</time></trkpt><trkpt lat="40.00767947391494" lon="18.167244960598225"><ele>91.0</ele><time>2026-04-05T14:55:46.916Z</time></trkpt><trkpt lat="40.00761050990405" lon="18.16723770877676"><ele>91.0</ele><time>2026-04-05T14:55:48.916Z</time></trkpt><trkpt lat="40.0075594121161" lon="18.167187733842038"><ele>91.0</ele><time>2026-04-05T14:55:49.916Z</time></trkpt><trkpt lat="40.00750945415243" lon="18.16711269587283"><ele>91.0</ele><time>2026-04-05T14:55:50.916Z</time></trkpt><trkpt lat="40.00744781494143" lon="18.16701444615325"><ele>91.0</ele><time>2026-04-05T14:55:51.916Z</time></trkpt><trkpt lat="40.00737058436964" lon="18.16689851374018"><ele>91.0</ele><time>2026-04-05T14:55:52.916Z</time></trkpt><trkpt lat="40.00729191365861" lon="18.166772225675558"><ele>90.5</ele><time>2026-04-05T14:55:53.916Z</time></trkpt><trkpt lat="40.00720487012893" lon="18.16663614972952"><ele>90.0</ele><time>2026-04-05T14:55:54.916Z</time></trkpt><trkpt lat="40.007107044034" lon="18.166483251946683"><ele>89.5</ele><time>2026-04-05T14:55:55.916Z</time></trkpt><trkpt lat="40.00702518231694" lon="18.166315910374085"><ele>89.0</ele><time>2026-04-05T14:55:56.916Z</time></trkpt><trkpt lat="40.00697980961915" lon="18.166111282123378"><ele>89.0</ele><time>2026-04-05T14:55:57.916Z</time></trkpt><trkpt lat="40.00694183786239" lon="18.16586191362503"><ele>89.0</ele><time>2026-04-05T14:55:58.916Z</time></trkpt><trkpt lat="40.00691962780218" lon="18.16563426725192"><ele>89.0</ele><time>2026-04-05T14:55:59.916Z</time></trkpt><trkpt lat="40.00679683495027" lon="18.165950224329418"><ele>89.0</ele><time>2026-04-05T14:56:00.916Z</time></trkpt><trkpt lat="40.006781548106765" lon="18.165856354204987"><ele>89.0</ele><time>2026-04-05T14:56:03.916Z</time></trkpt><trkpt lat="40.006689088183066" lon="18.165874500359937"><ele>89.0</ele><time>2026-04-05T14:56:06.915Z</time></trkpt><trkpt lat="40.00662286720332" lon="18.165919746136918"><ele>89.0</ele><time>2026-04-05T14:56:07.916Z</time></trkpt><trkpt lat="40.0065469336703" lon="18.165974565428215"><ele>89.0</ele><time>2026-04-05T14:56:08.915Z</time></trkpt><trkpt lat="40.0064610079545" lon="18.16603303250578"><ele>89.0</ele><time>2026-04-05T14:56:09.915Z</time></trkpt><trkpt lat="40.00636203841022" lon="18.16609644211618"><ele>88.0</ele><time>2026-04-05T14:56:10.915Z</time></trkpt><trkpt lat="40.00624705704268" lon="18.166176146981904"><ele>87.0</ele><time>2026-04-05T14:56:11.915Z</time></trkpt><trkpt lat="40.006129865833145" lon="18.166255882881817"><ele>86.0</ele><time>2026-04-05T14:56:12.915Z</time></trkpt><trkpt lat="40.00600804428965" lon="18.166341964314775"><ele>85.0</ele><time>2026-04-05T14:56:13.916Z</time></trkpt><trkpt lat="40.00588328559877" lon="18.166446033746386"><ele>84.33333333333333</ele><time>2026-04-05T14:56:14.915Z</time></trkpt><trkpt lat="40.00574500196284" lon="18.166582990239945"><ele>83.66666666666667</ele><time>2026-04-05T14:56:15.915Z</time></trkpt><trkpt lat="40.00559626573239" lon="18.166735995731532"><ele>83.0</ele><time>2026-04-05T14:56:16.915Z</time></trkpt><trkpt lat="40.00543854570255" lon="18.166898394331565"><ele>83.0</ele><time>2026-04-05T14:56:17.916Z</time></trkpt><trkpt lat="40.00529686372395" lon="18.167029092331937"><ele>83.0</ele><time>2026-04-05T14:56:18.916Z</time></trkpt><trkpt lat="40.00517677340122" lon="18.167130529205878"><ele>83.0</ele><time>2026-04-05T14:56:19.916Z</time></trkpt><trkpt lat="40.00507893731921" lon="18.16721171876752"><ele>83.0</ele><time>2026-04-05T14:56:20.916Z</time></trkpt><trkpt lat="40.004997719380015" lon="18.167290513679752"><ele>82.5</ele><time>2026-04-05T14:56:21.916Z</time></trkpt><trkpt lat="40.00491283040162" lon="18.167370456673986"><ele>82.0</ele><time>2026-04-05T14:56:22.916Z</time></trkpt><trkpt lat="40.00480944543398" lon="18.167442295515148"><ele>81.5</ele><time>2026-04-05T14:56:23.916Z</time></trkpt><trkpt lat="40.004686540138565" lon="18.16752365662607"><ele>81.0</ele><time>2026-04-05T14:56:24.916Z</time></trkpt><trkpt lat="40.00456684736857" lon="18.16760548298164"><ele>81.0</ele><time>2026-04-05T14:56:25.916Z</time></trkpt><trkpt lat="40.004466223278236" lon="18.167670018948144"><ele>81.0</ele><time>2026-04-05T14:56:26.916Z</time></trkpt><trkpt lat="40.00438256493113" lon="18.167723960035904"><ele>81.0</ele><time>2026-04-05T14:56:27.916Z</time></trkpt><trkpt lat="40.00432094833658" lon="18.16774745419744"><ele>81.0</ele><time>2026-04-05T14:56:28.916Z</time></trkpt><trkpt lat="40.004235134687015" lon="18.167679145722502"><ele>81.0</ele><time>2026-04-05T14:56:30.916Z</time></trkpt><trkpt lat="40.00419504448022" lon="18.16760077649645"><ele>81.0</ele><time>2026-04-05T14:56:31.916Z</time></trkpt><trkpt lat="40.00415697928936" lon="18.16748744151187"><ele>81.0</ele><time>2026-04-05T14:56:32.916Z</time></trkpt><trkpt lat="40.004120294871946" lon="18.16734309203522"><ele>81.0</ele><time>2026-04-05T14:56:33.916Z</time></trkpt><trkpt lat="40.0040671933893" lon="18.16718465963074"><ele>81.0</ele><time>2026-04-05T14:56:34.916Z</time></trkpt><trkpt lat="40.00401364989502" lon="18.1670461029719"><ele>81.0</ele><time>2026-04-05T14:56:35.916Z</time></trkpt><trkpt lat="40.00397998214761" lon="18.166952862237565"><ele>81.0</ele><time>2026-04-05T14:56:36.916Z</time></trkpt><trkpt lat="40.00392463664817" lon="18.166866680153863"><ele>81.0</ele><time>2026-04-05T14:56:38.916Z</time></trkpt><trkpt lat="40.0038234515563" lon="18.166939945895738"><ele>81.0</ele><time>2026-04-05T14:56:40.916Z</time></trkpt><trkpt lat="40.003772485412306" lon="18.167003095347354"><ele>81.0</ele><time>2026-04-05T14:56:41.916Z</time></trkpt><trkpt lat="40.00371556576758" lon="18.167082850473456"><ele>81.0</ele><time>2026-04-05T14:56:42.916Z</time></trkpt><trkpt lat="40.00364720778793" lon="18.167157622441334"><ele>81.0</ele><time>2026-04-05T14:56:43.916Z</time></trkpt><trkpt lat="40.00356519317819" lon="18.16723597602668"><ele>81.0</ele><time>2026-04-05T14:56:44.916Z</time></trkpt><trkpt lat="40.00346728164803" lon="18.16733022916442"><ele>81.0</ele><time>2026-04-05T14:56:45.916Z</time></trkpt><trkpt lat="40.003370559422635" lon="18.16741949765197"><ele>81.0</ele><time>2026-04-05T14:56:46.916Z</time></trkpt><trkpt lat="40.003308204758156" lon="18.16748910485783"><ele>81.0</ele><time>2026-04-05T14:56:47.916Z</time></trkpt><trkpt lat="40.0032185580685" lon="18.167536413772297"><ele>81.0</ele><time>2026-04-05T14:56:49.916Z</time></trkpt><trkpt lat="40.00313852060538" lon="18.167467241026646"><ele>81.0</ele><time>2026-04-05T14:56:51.916Z</time></trkpt><trkpt lat="40.00309076976589" lon="18.16737789434969"><ele>81.0</ele><time>2026-04-05T14:56:52.916Z</time></trkpt><trkpt lat="40.00303669156477" lon="18.167289740657917"><ele>81.0</ele><time>2026-04-05T14:56:53.916Z</time></trkpt><trkpt lat="40.00299226085079" lon="18.167208058289166"><ele>81.0</ele><time>2026-04-05T14:56:54.916Z</time></trkpt><trkpt lat="40.00294812778275" lon="18.167143514392027"><ele>81.0</ele><time>2026-04-05T14:56:56.916Z</time></trkpt><trkpt lat="40.002883379842885" lon="18.167131031194028"><ele>81.0</ele><time>2026-04-05T14:57:00.916Z</time></trkpt><trkpt lat="40.002816768725715" lon="18.167176674203997"><ele>81.0</ele><time>2026-04-05T14:57:01.916Z</time></trkpt><trkpt lat="40.0027358539318" lon="18.167281097850218"><ele>81.0</ele><time>2026-04-05T14:57:02.916Z</time></trkpt><trkpt lat="40.0026335936598" lon="18.167394989918062"><ele>81.0</ele><time>2026-04-05T14:57:03.916Z</time></trkpt><trkpt lat="40.002514467157745" lon="18.167523450532023"><ele>81.0</ele><time>2026-04-05T14:57:04.916Z</time></trkpt><trkpt lat="40.00238047199477" lon="18.167659279086394"><ele>79.66666666666667</ele><time>2026-04-05T14:57:05.916Z</time></trkpt><trkpt lat="40.00223820577131" lon="18.167805182228427"><ele>78.33333333333334</ele><time>2026-04-05T14:57:06.916Z</time></trkpt><trkpt lat="40.00207925261172" lon="18.1679566727088"><ele>77.0</ele><time>2026-04-05T14:57:07.916Z</time></trkpt><trkpt lat="40.001926395664604" lon="18.16811383882529"><ele>77.33333333333334</ele><time>2026-04-05T14:57:08.916Z</time></trkpt><trkpt lat="40.001767511594004" lon="18.168279916169645"><ele>77.66666666666667</ele><time>2026-04-05T14:57:09.916Z</time></trkpt><trkpt lat="40.00161366581943" lon="18.168445163611977"><ele>78.0</ele><time>2026-04-05T14:57:10.916Z</time></trkpt><trkpt lat="40.00144532599189" lon="18.168610522777442"><ele>78.0</ele><time>2026-04-05T14:57:11.916Z</time></trkpt><trkpt lat="40.00128199003632" lon="18.16877820128078"><ele>78.0</ele><time>2026-04-05T14:57:12.916Z</time></trkpt><trkpt lat="40.001120104837" lon="18.168948825896845"><ele>78.0</ele><time>2026-04-05T14:57:13.916Z</time></trkpt><trkpt lat="40.00094871378264" lon="18.169119116238257"><ele>77.66666666666667</ele><time>2026-04-05T14:57:14.916Z</time></trkpt><trkpt lat="40.00078816186462" lon="18.169287930116482"><ele>77.33333333333334</ele><time>2026-04-05T14:57:15.916Z</time></trkpt><trkpt lat="40.0006305197366" lon="18.169452501207807"><ele>77.0</ele><time>2026-04-05T14:57:16.916Z</time></trkpt><trkpt lat="40.00046919981212" lon="18.169623952299663"><ele>77.0</ele><time>2026-04-05T14:57:17.916Z</time></trkpt><trkpt lat="40.00030658466316" lon="18.169790732565144"><ele>77.0</ele><time>2026-04-05T14:57:18.916Z</time></trkpt><trkpt lat="40.00014310871284" lon="18.169952869251404"><ele>77.0</ele><time>2026-04-05T14:57:19.916Z</time></trkpt><trkpt lat="39.99997740877468" lon="18.17012092214288"><ele>77.0</ele><time>2026-04-05T14:57:20.916Z</time></trkpt><trkpt lat="39.999818451717765" lon="18.170288992713232"><ele>77.0</ele><time>2026-04-05T14:57:21.916Z</time></trkpt><trkpt lat="39.99965640042166" lon="18.1704530631337"><ele>77.0</ele><time>2026-04-05T14:57:22.916Z</time></trkpt><trkpt lat="39.9994957086964" lon="18.170618265739286"><ele>77.0</ele><time>2026-04-05T14:57:23.916Z</time></trkpt><trkpt lat="39.99934281958655" lon="18.170776784665485"><ele>77.0</ele><time>2026-04-05T14:57:24.916Z</time></trkpt><trkpt lat="39.99920206044583" lon="18.170922572742988"><ele>77.0</ele><time>2026-04-05T14:57:25.916Z</time></trkpt><trkpt lat="39.99906924679157" lon="18.171061571946403"><ele>76.66666666666667</ele><time>2026-04-05T14:57:26.916Z</time></trkpt><trkpt lat="39.99894394537235" lon="18.171187472962167"><ele>76.33333333333333</ele><time>2026-04-05T14:57:27.916Z</time></trkpt><trkpt lat="39.99882288909185" lon="18.171304633668026"><ele>76.0</ele><time>2026-04-05T14:57:28.915Z</time></trkpt><trkpt lat="39.99870695706742" lon="18.171419252329727"><ele>76.2</ele><time>2026-04-05T14:57:29.915Z</time></trkpt><trkpt lat="39.9986032259929" lon="18.17152863164248"><ele>76.39999999999999</ele><time>2026-04-05T14:57:30.915Z</time></trkpt><trkpt lat="39.998512685806794" lon="18.171628937750405"><ele>76.6</ele><time>2026-04-05T14:57:31.915Z</time></trkpt><trkpt lat="39.99843704837631" lon="18.171713773335714"><ele>76.8</ele><time>2026-04-05T14:57:32.915Z</time></trkpt><trkpt lat="39.998362931828105" lon="18.171777575984184"><ele>77.0</ele><time>2026-04-05T14:57:33.915Z</time></trkpt><trkpt lat="39.998288215355416" lon="18.171821473536795"><ele>76.66666666666667</ele><time>2026-04-05T14:57:34.915Z</time></trkpt><trkpt lat="39.998210226455214" lon="18.171848069008817"><ele>76.33333333333334</ele><time>2026-04-05T14:57:35.915Z</time></trkpt><trkpt lat="39.998135892146" lon="18.17184773098956"><ele>76.0</ele><time>2026-04-05T14:57:36.915Z</time></trkpt><trkpt lat="39.99804732778434" lon="18.171815591458557"><ele>75.66666666666667</ele><time>2026-04-05T14:57:38.915Z</time></trkpt><trkpt lat="39.99798119940254" lon="18.171788729139447"><ele>75.33333333333333</ele><time>2026-04-05T14:57:40.915Z</time></trkpt><trkpt lat="39.99791109993309" lon="18.171762849738634"><ele>75.0</ele><time>2026-04-05T14:57:41.915Z</time></trkpt><trkpt lat="39.997825884924794" lon="18.171726321023975"><ele>75.0</ele><time>2026-04-05T14:57:42.915Z</time></trkpt><trkpt lat="39.99773967929148" lon="18.171666803499186"><ele>75.0</ele><time>2026-04-05T14:57:43.915Z</time></trkpt><trkpt lat="39.99764970797973" lon="18.171580429484166"><ele>75.0</ele><time>2026-04-05T14:57:44.915Z</time></trkpt><trkpt lat="39.99756247655312" lon="18.171460157550396"><ele>75.0</ele><time>2026-04-05T14:57:45.915Z</time></trkpt><trkpt lat="39.997477958757926" lon="18.171309489526138"><ele>74.66666666666667</ele><time>2026-04-05T14:57:46.915Z</time></trkpt><trkpt lat="39.99738815466949" lon="18.171132683929322"><ele>74.33333333333334</ele><time>2026-04-05T14:57:47.915Z</time></trkpt><trkpt lat="39.99728367618578" lon="18.17094009183714"><ele>74.0</ele><time>2026-04-05T14:57:48.915Z</time></trkpt><trkpt lat="39.997174886292555" lon="18.170741589585784"><ele>73.66666666666667</ele><time>2026-04-05T14:57:49.915Z</time></trkpt><trkpt lat="39.99705767477326" lon="18.170534089494314"><ele>73.33333333333333</ele><time>2026-04-05T14:57:50.915Z</time></trkpt><trkpt lat="39.99693123393664" lon="18.17031847385401"><ele>73.0</ele><time>2026-04-05T14:57:51.915Z</time></trkpt><trkpt lat="39.996800812055135" lon="18.170098506125488"><ele>73.0</ele><time>2026-04-05T14:57:52.915Z</time></trkpt><trkpt lat="39.996668013707385" lon="18.169871866302223"><ele>73.0</ele><time>2026-04-05T14:57:53.915Z</time></trkpt><trkpt lat="39.99653148266601" lon="18.169636521497672"><ele>73.0</ele><time>2026-04-05T14:57:54.915Z</time></trkpt><trkpt lat="39.99639436336984" lon="18.169393575276498"><ele>72.0</ele><time>2026-04-05T14:57:55.915Z</time></trkpt><trkpt lat="39.996259130662104" lon="18.169151836703307"><ele>71.0</ele><time>2026-04-05T14:57:56.915Z</time></trkpt><trkpt lat="39.996135118573626" lon="18.16890773627693"><ele>70.0</ele><time>2026-04-05T14:57:57.915Z</time></trkpt><trkpt lat="39.99600801676509" lon="18.168650985502452"><ele>69.0</ele><time>2026-04-05T14:57:58.915Z</time></trkpt><trkpt lat="39.99589299824059" lon="18.168398181010964"><ele>68.0</ele><time>2026-04-05T14:57:59.915Z</time></trkpt><trkpt lat="39.99578136682221" lon="18.168141432580068"><ele>67.0</ele><time>2026-04-05T14:58:00.915Z</time></trkpt><trkpt lat="39.995677067955185" lon="18.16788683391774"><ele>66.0</ele><time>2026-04-05T14:58:01.915Z</time></trkpt><trkpt lat="39.99557051484707" lon="18.16762356539225"><ele>66.0</ele><time>2026-04-05T14:58:02.915Z</time></trkpt><trkpt lat="39.99547051361677" lon="18.16735269010103"><ele>66.0</ele><time>2026-04-05T14:58:03.915Z</time></trkpt><trkpt lat="39.99537161648927" lon="18.167084883030824"><ele>66.0</ele><time>2026-04-05T14:58:04.915Z</time></trkpt><trkpt lat="39.99527314931412" lon="18.166807535364896"><ele>66.0</ele><time>2026-04-05T14:58:05.915Z</time></trkpt><trkpt lat="39.99517859683571" lon="18.16654092324124"><ele>66.0</ele><time>2026-04-05T14:58:06.915Z</time></trkpt><trkpt lat="39.99507945080298" lon="18.166270243521307"><ele>66.0</ele><time>2026-04-05T14:58:07.915Z</time></trkpt><trkpt lat="39.994979635565215" lon="18.16600269635323"><ele>66.0</ele><time>2026-04-05T14:58:08.915Z</time></trkpt><trkpt lat="39.9948773647264" lon="18.16573719899946"><ele>66.0</ele><time>2026-04-05T14:58:09.915Z</time></trkpt><trkpt lat="39.99477729644363" lon="18.16546910636658"><ele>65.5</ele><time>2026-04-05T14:58:10.915Z</time></trkpt><trkpt lat="39.99467884746761" lon="18.16520180743295"><ele>65.0</ele><time>2026-04-05T14:58:11.914Z</time></trkpt><trkpt lat="39.99458191650804" lon="18.164930723029904"><ele>65.0</ele><time>2026-04-05T14:58:12.914Z</time></trkpt><trkpt lat="39.994489826168504" lon="18.164660651873326"><ele>65.0</ele><time>2026-04-05T14:58:13.914Z</time></trkpt><trkpt lat="39.994404980782036" lon="18.164383146567328"><ele>65.0</ele><time>2026-04-05T14:58:14.915Z</time></trkpt><trkpt lat="39.99433317420703" lon="18.164101119289228"><ele>65.0</ele><time>2026-04-05T14:58:15.915Z</time></trkpt><trkpt lat="39.99427576609592" lon="18.163813027511484"><ele>65.0</ele><time>2026-04-05T14:58:16.915Z</time></trkpt><trkpt lat="39.99420262785996" lon="18.16323347456545"><ele>65.0</ele><time>2026-04-05T14:58:18.914Z</time></trkpt><trkpt lat="39.99417776860621" lon="18.162935087791777"><ele>65.0</ele><time>2026-04-05T14:58:19.914Z</time></trkpt><trkpt lat="39.99416557126943" lon="18.162647738288534"><ele>64.0</ele><time>2026-04-05T14:58:20.914Z</time></trkpt><trkpt lat="39.99416909726216" lon="18.162351990446176"><ele>63.0</ele><time>2026-04-05T14:58:21.914Z</time></trkpt><trkpt lat="39.9941743793726" lon="18.162056808714375"><ele>63.0</ele><time>2026-04-05T14:58:22.915Z</time></trkpt><trkpt lat="39.99418008695752" lon="18.161757316722316"><ele>63.0</ele><time>2026-04-05T14:58:23.914Z</time></trkpt><trkpt lat="39.99418558222179" lon="18.1614659250025"><ele>62.5</ele><time>2026-04-05T14:58:24.914Z</time></trkpt><trkpt lat="39.99419591266544" lon="18.161168108162975"><ele>62.0</ele><time>2026-04-05T14:58:25.914Z</time></trkpt><trkpt lat="39.994205028241396" lon="18.1608731486606"><ele>61.66666666666667</ele><time>2026-04-05T14:58:26.914Z</time></trkpt><trkpt lat="39.99420930324401" lon="18.16059640149637"><ele>61.33333333333333</ele><time>2026-04-05T14:58:27.914Z</time></trkpt><trkpt lat="39.994211952748174" lon="18.160336926112393"><ele>61.0</ele><time>2026-04-05T14:58:28.914Z</time></trkpt><trkpt lat="39.99421553231674" lon="18.160099865253258"><ele>61.0</ele><time>2026-04-05T14:58:29.914Z</time></trkpt><trkpt lat="39.99422888869529" lon="18.1598833070542"><ele>61.0</ele><time>2026-04-05T14:58:30.914Z</time></trkpt><trkpt lat="39.99424121750293" lon="18.159673734079956"><ele>61.0</ele><time>2026-04-05T14:58:31.914Z</time></trkpt><trkpt lat="39.99424989923999" lon="18.159478055483397"><ele>61.0</ele><time>2026-04-05T14:58:32.914Z</time></trkpt><trkpt lat="39.994257442009335" lon="18.159302324372312"><ele>60.99999999999999</ele><time>2026-04-05T14:58:33.914Z</time></trkpt><trkpt lat="39.9942780508563" lon="18.159148198909584"><ele>60.99999999999999</ele><time>2026-04-05T14:58:34.914Z</time></trkpt><trkpt lat="39.99430749775408" lon="18.159029792740245"><ele>61.0</ele><time>2026-04-05T14:58:35.914Z</time></trkpt><trkpt lat="39.994346909099264" lon="18.15893423966346"><ele>61.0</ele><time>2026-04-05T14:58:36.914Z</time></trkpt><trkpt lat="39.9943883474841" lon="18.15886531989963"><ele>60.99999999999999</ele><time>2026-04-05T14:58:37.914Z</time></trkpt><trkpt lat="39.99442776060838" lon="18.15878392612909"><ele>61.0</ele><time>2026-04-05T14:58:38.914Z</time></trkpt><trkpt lat="39.994447519289814" lon="18.158700556522753"><ele>60.99999999999999</ele><time>2026-04-05T14:58:39.914Z</time></trkpt><trkpt lat="39.99444992524138" lon="18.158610410240335"><ele>60.99999999999999</ele><time>2026-04-05T14:58:40.914Z</time></trkpt><trkpt lat="39.994425617523376" lon="18.158524889642305"><ele>61.0</ele><time>2026-04-05T14:58:41.914Z</time></trkpt><trkpt lat="39.99442713873603" lon="18.158412121083742"><ele>60.99999999999999</ele><time>2026-04-05T14:58:42.914Z</time></trkpt><trkpt lat="39.99438229431354" lon="18.158351121505685"><ele>60.99999999999999</ele><time>2026-04-05T14:58:43.914Z</time></trkpt><trkpt lat="39.99431534701912" lon="18.158310988748443"><ele>60.99999999999999</ele><time>2026-04-05T14:58:44.914Z</time></trkpt><trkpt lat="39.994237181446024" lon="18.15829845276198"><ele>61.0</ele><time>2026-04-05T14:58:45.914Z</time></trkpt><trkpt lat="39.99415504485616" lon="18.158322840929333"><ele>61.0</ele><time>2026-04-05T14:58:46.914Z</time></trkpt><trkpt lat="39.99408571823569" lon="18.15837334070231"><ele>61.0</ele><time>2026-04-05T14:58:47.914Z</time></trkpt><trkpt lat="39.99403106090485" lon="18.158443715638754"><ele>60.99999999999999</ele><time>2026-04-05T14:58:48.914Z</time></trkpt><trkpt lat="39.99400125358819" lon="18.158533888173874"><ele>61.0</ele><time>2026-04-05T14:58:49.914Z</time></trkpt><trkpt lat="39.99399173264053" lon="18.158634570009802"><ele>60.8</ele><time>2026-04-05T14:58:50.914Z</time></trkpt><trkpt lat="39.99400637790684" lon="18.158744661764352"><ele>60.599999999999994</ele><time>2026-04-05T14:58:51.914Z</time></trkpt><trkpt lat="39.994040773819" lon="18.15885280886949"><ele>60.4</ele><time>2026-04-05T14:58:52.914Z</time></trkpt><trkpt lat="39.994101858085735" lon="18.158958717946415"><ele>60.2</ele><time>2026-04-05T14:58:53.914Z</time></trkpt><trkpt lat="39.994167341776595" lon="18.159082184279246"><ele>60.0</ele><time>2026-04-05T14:58:54.914Z</time></trkpt><trkpt lat="39.994206079706714" lon="18.159245579497423"><ele>59.66666666666667</ele><time>2026-04-05T14:58:55.914Z</time></trkpt><trkpt lat="39.994225777849955" lon="18.159441397463407"><ele>59.333333333333336</ele><time>2026-04-05T14:58:56.914Z</time></trkpt><trkpt lat="39.99422594443803" lon="18.159663452494584"><ele>59.0</ele><time>2026-04-05T14:58:57.914Z</time></trkpt><trkpt lat="39.9942203941037" lon="18.15990948199109"><ele>59.66666666666667</ele><time>2026-04-05T14:58:58.914Z</time></trkpt><trkpt lat="39.99421043328591" lon="18.16016521961155"><ele>60.33333333333333</ele><time>2026-04-05T14:58:59.914Z</time></trkpt><trkpt lat="39.99420166175334" lon="18.160424298130053"><ele>61.0</ele><time>2026-04-05T14:59:00.914Z</time></trkpt><trkpt lat="39.99419403045824" lon="18.160690116073205"><ele>61.0</ele><time>2026-04-05T14:59:01.914Z</time></trkpt><trkpt lat="39.99419055362065" lon="18.160957392933437"><ele>61.0</ele><time>2026-04-05T14:59:02.914Z</time></trkpt><trkpt lat="39.99418024766392" lon="18.161229160426274"><ele>61.0</ele><time>2026-04-05T14:59:03.914Z</time></trkpt><trkpt lat="39.99417068977189" lon="18.16152172450764"><ele>61.33333333333333</ele><time>2026-04-05T14:59:04.914Z</time></trkpt><trkpt lat="39.99415945936454" lon="18.161792994289645"><ele>61.66666666666667</ele><time>2026-04-05T14:59:05.914Z</time></trkpt><trkpt lat="39.99415251058762" lon="18.162067793556027"><ele>62.0</ele><time>2026-04-05T14:59:06.914Z</time></trkpt><trkpt lat="39.99414714058962" lon="18.162343556630162"><ele>62.66666666666667</ele><time>2026-04-05T14:59:07.914Z</time></trkpt><trkpt lat="39.994145223754536" lon="18.162621563708548"><ele>63.33333333333333</ele><time>2026-04-05T14:59:08.914Z</time></trkpt><trkpt lat="39.994147760839354" lon="18.162911814833162"><ele>64.0</ele><time>2026-04-05T14:59:09.914Z</time></trkpt><trkpt lat="39.99416271103326" lon="18.163200170247734"><ele>64.33333333333333</ele><time>2026-04-05T14:59:10.914Z</time></trkpt><trkpt lat="39.994199392395984" lon="18.163486270255465"><ele>64.66666666666667</ele><time>2026-04-05T14:59:11.914Z</time></trkpt><trkpt lat="39.99424823797584" lon="18.163760228364076"><ele>65.0</ele><time>2026-04-05T14:59:12.914Z</time></trkpt><trkpt lat="39.994300494295985" lon="18.16403939355483"><ele>65.0</ele><time>2026-04-05T14:59:13.914Z</time></trkpt><trkpt lat="39.99436435642084" lon="18.164309545335055"><ele>65.0</ele><time>2026-04-05T14:59:14.914Z</time></trkpt><trkpt lat="39.99444277285731" lon="18.164580381564125"><ele>65.0</ele><time>2026-04-05T14:59:15.914Z</time></trkpt><trkpt lat="39.994531792046914" lon="18.164850209929327"><ele>65.0</ele><time>2026-04-05T14:59:16.914Z</time></trkpt><trkpt lat="39.99462778677676" lon="18.165118189198207"><ele>65.0</ele><time>2026-04-05T14:59:17.914Z</time></trkpt><trkpt lat="39.99472682811936" lon="18.165388851054306"><ele>65.0</ele><time>2026-04-05T14:59:18.914Z</time></trkpt><trkpt lat="39.99483048975486" lon="18.165655482131758"><ele>65.0</ele><time>2026-04-05T14:59:19.914Z</time></trkpt><trkpt lat="39.9949293063101" lon="18.16592302340923"><ele>65.5</ele><time>2026-04-05T14:59:20.914Z</time></trkpt><trkpt lat="39.99502568362271" lon="18.166194696565302"><ele>66.0</ele><time>2026-04-05T14:59:21.914Z</time></trkpt><trkpt lat="39.99512140018721" lon="18.16646858479359"><ele>66.0</ele><time>2026-04-05T14:59:22.914Z</time></trkpt><trkpt lat="39.99522124769264" lon="18.166742514407176"><ele>66.0</ele><time>2026-04-05T14:59:23.914Z</time></trkpt><trkpt lat="39.99531953956591" lon="18.167015976476097"><ele>66.0</ele><time>2026-04-05T14:59:24.914Z</time></trkpt><trkpt lat="39.995417958654215" lon="18.167291840403752"><ele>66.0</ele><time>2026-04-05T14:59:25.914Z</time></trkpt><trkpt lat="39.99551897863914" lon="18.16756435506816"><ele>66.0</ele><time>2026-04-05T14:59:26.914Z</time></trkpt><trkpt lat="39.99562588343961" lon="18.167839412978584"><ele>66.0</ele><time>2026-04-05T14:59:27.914Z</time></trkpt><trkpt lat="39.99573463585045" lon="18.16811059555051"><ele>67.5</ele><time>2026-04-05T14:59:28.914Z</time></trkpt><trkpt lat="39.99584638441428" lon="18.168382822044126"><ele>69.0</ele><time>2026-04-05T14:59:29.914Z</time></trkpt><trkpt lat="39.99596749469925" lon="18.16864943060696"><ele>69.0</ele><time>2026-04-05T14:59:30.914Z</time></trkpt><trkpt lat="39.99609464878163" lon="18.168914295441137"><ele>69.0</ele><time>2026-04-05T14:59:31.914Z</time></trkpt><trkpt lat="39.996228283942585" lon="18.169169841784466"><ele>70.0</ele><time>2026-04-05T14:59:32.914Z</time></trkpt><trkpt lat="39.9963722338503" lon="18.169421874549215"><ele>71.0</ele><time>2026-04-05T14:59:33.914Z</time></trkpt><trkpt lat="39.9965176270138" lon="18.169674761442064"><ele>71.66666666666667</ele><time>2026-04-05T14:59:34.914Z</time></trkpt><trkpt lat="39.99665231022208" lon="18.169905196095545"><ele>72.33333333333333</ele><time>2026-04-05T14:59:35.914Z</time></trkpt><trkpt lat="39.996777762467396" lon="18.170119042109903"><ele>73.0</ele><time>2026-04-05T14:59:36.914Z</time></trkpt><trkpt lat="39.9968927919268" lon="18.17032265753273"><ele>73.0</ele><time>2026-04-05T14:59:37.914Z</time></trkpt><trkpt lat="39.9970032016382" lon="18.170508877356355"><ele>73.0</ele><time>2026-04-05T14:59:38.914Z</time></trkpt><trkpt lat="39.997104378496466" lon="18.17068108082783"><ele>73.0</ele><time>2026-04-05T14:59:39.914Z</time></trkpt><trkpt lat="39.997203120614756" lon="18.170847959196884"><ele>73.25</ele><time>2026-04-05T14:59:40.914Z</time></trkpt><trkpt lat="39.997296398533315" lon="18.17100928934799"><ele>73.5</ele><time>2026-04-05T14:59:41.914Z</time></trkpt><trkpt lat="39.997391128821945" lon="18.171158086882592"><ele>73.75</ele><time>2026-04-05T14:59:42.914Z</time></trkpt><trkpt lat="39.99747817140204" lon="18.17129463297224"><ele>74.0</ele><time>2026-04-05T14:59:43.914Z</time></trkpt><trkpt lat="39.99755810764143" lon="18.171421803186956"><ele>74.16666666666667</ele><time>2026-04-05T14:59:44.914Z</time></trkpt><trkpt lat="39.997617192939614" lon="18.171537015597224"><ele>74.33333333333334</ele><time>2026-04-05T14:59:45.914Z</time></trkpt><trkpt lat="39.997667472592894" lon="18.171638502490428"><ele>74.5</ele><time>2026-04-05T14:59:46.914Z</time></trkpt><trkpt lat="39.9977024667422" lon="18.171727692366513"><ele>74.66666666666667</ele><time>2026-04-05T14:59:47.914Z</time></trkpt><trkpt lat="39.9977208791031" lon="18.17183226273139"><ele>74.83333333333333</ele><time>2026-04-05T14:59:49.914Z</time></trkpt><trkpt lat="39.99771744691293" lon="18.1719427736481"><ele>75.0</ele><time>2026-04-05T14:59:52.913Z</time></trkpt><trkpt lat="39.99774549359223" lon="18.17209372286117"><ele>75.0</ele><time>2026-04-05T14:59:54.913Z</time></trkpt><trkpt lat="39.99781887049996" lon="18.172215978444537"><ele>75.0</ele><time>2026-04-05T14:59:56.913Z</time></trkpt><trkpt lat="39.99793877370631" lon="18.172236485548364"><ele>75.0</ele><time>2026-04-05T14:59:58.913Z</time></trkpt><trkpt lat="39.99800061116674" lon="18.172203409334546"><ele>75.0</ele><time>2026-04-05T14:59:59.913Z</time></trkpt><trkpt lat="39.998057377388626" lon="18.17214255048468"><ele>75.0</ele><time>2026-04-05T15:00:00.913Z</time></trkpt><trkpt lat="39.998122003276684" lon="18.172056836932022"><ele>75.0</ele><time>2026-04-05T15:00:01.913Z</time></trkpt><trkpt lat="39.998200318528774" lon="18.171976709861198"><ele>75.0</ele><time>2026-04-05T15:00:02.913Z</time></trkpt><trkpt lat="39.998303525832675" lon="18.17188597815022"><ele>75.0</ele><time>2026-04-05T15:00:03.913Z</time></trkpt><trkpt lat="39.99842728190068" lon="18.171780745955278"><ele>75.0</ele><time>2026-04-05T15:00:04.913Z</time></trkpt><trkpt lat="39.99856629136434" lon="18.171651294029843"><ele>75.33333333333333</ele><time>2026-04-05T15:00:05.913Z</time></trkpt><trkpt lat="39.99872449758937" lon="18.17149202584995"><ele>75.66666666666666</ele><time>2026-04-05T15:00:06.913Z</time></trkpt><trkpt lat="39.99888247242163" lon="18.17132841153465"><ele>76.0</ele><time>2026-04-05T15:00:07.913Z</time></trkpt><trkpt lat="39.99904870721606" lon="18.171153608018244"><ele>76.33333333333333</ele><time>2026-04-05T15:00:08.913Z</time></trkpt><trkpt lat="39.999218075583805" lon="18.17097084274913"><ele>76.66666666666667</ele><time>2026-04-05T15:00:09.913Z</time></trkpt><trkpt lat="39.99939513059679" lon="18.170782269934325"><ele>77.0</ele><time>2026-04-05T15:00:10.913Z</time></trkpt><trkpt lat="39.99957176478283" lon="18.170593505126376"><ele>77.0</ele><time>2026-04-05T15:00:11.913Z</time></trkpt><trkpt lat="39.999752414794" lon="18.170403023659073"><ele>77.0</ele><time>2026-04-05T15:00:12.913Z</time></trkpt><trkpt lat="39.99993982058419" lon="18.170211111535497"><ele>77.0</ele><time>2026-04-05T15:00:13.913Z</time></trkpt><trkpt lat="40.000120294778206" lon="18.170026724574722"><ele>77.0</ele><time>2026-04-05T15:00:14.913Z</time></trkpt><trkpt lat="40.000289984403054" lon="18.16984762683548"><ele>77.0</ele><time>2026-04-05T15:00:15.913Z</time></trkpt><trkpt lat="40.00045173630379" lon="18.169678760277453"><ele>77.0</ele><time>2026-04-05T15:00:16.913Z</time></trkpt><trkpt lat="40.00060729610125" lon="18.169523491504243"><ele>77.0</ele><time>2026-04-05T15:00:17.913Z</time></trkpt><trkpt lat="40.00073926040221" lon="18.1693857954148"><ele>77.0</ele><time>2026-04-05T15:00:18.913Z</time></trkpt><trkpt lat="40.00087632439651" lon="18.169244988837658"><ele>77.33333333333334</ele><time>2026-04-05T15:00:19.914Z</time></trkpt><trkpt lat="40.00100642364319" lon="18.1691108351088"><ele>77.66666666666667</ele><time>2026-04-05T15:00:20.913Z</time></trkpt><trkpt lat="40.001136987950446" lon="18.16897572690089"><ele>78.0</ele><time>2026-04-05T15:00:21.913Z</time></trkpt><trkpt lat="40.00126995554404" lon="18.168841015751376"><ele>78.0</ele><time>2026-04-05T15:00:22.913Z</time></trkpt><trkpt lat="40.00140465432059" lon="18.168696181916456"><ele>78.0</ele><time>2026-04-05T15:00:23.913Z</time></trkpt><trkpt lat="40.00153920278339" lon="18.168556023551638"><ele>78.0</ele><time>2026-04-05T15:00:24.913Z</time></trkpt><trkpt lat="40.00167491990583" lon="18.168407163352008"><ele>78.0</ele><time>2026-04-05T15:00:25.914Z</time></trkpt><trkpt lat="40.00181456294434" lon="18.16826346640466"><ele>78.0</ele><time>2026-04-05T15:00:26.913Z</time></trkpt><trkpt lat="40.00195541149539" lon="18.168119755127623"><ele>78.0</ele><time>2026-04-05T15:00:27.913Z</time></trkpt><trkpt lat="40.002100746337334" lon="18.16797137112277"><ele>77.66666666666667</ele><time>2026-04-05T15:00:28.914Z</time></trkpt><trkpt lat="40.00224561551928" lon="18.167822962792506"><ele>77.33333333333334</ele><time>2026-04-05T15:00:29.913Z</time></trkpt><trkpt lat="40.00238085410353" lon="18.1676781794728"><ele>77.0</ele><time>2026-04-05T15:00:30.913Z</time></trkpt><trkpt lat="40.002504840274966" lon="18.167548950579945"><ele>77.75</ele><time>2026-04-05T15:00:31.913Z</time></trkpt><trkpt lat="40.002618485714635" lon="18.16743161477934"><ele>78.5</ele><time>2026-04-05T15:00:32.913Z</time></trkpt><trkpt lat="40.00271290983045" lon="18.167334673631025"><ele>79.25</ele><time>2026-04-05T15:00:33.913Z</time></trkpt><trkpt lat="40.00278514581153" lon="18.167262496260122"><ele>80.0</ele><time>2026-04-05T15:00:34.913Z</time></trkpt><trkpt lat="40.002870319365286" lon="18.167175503431125"><ele>80.16666666666667</ele><time>2026-04-05T15:00:36.913Z</time></trkpt><trkpt lat="40.00294381717526" lon="18.16710414197311"><ele>80.33333333333334</ele><time>2026-04-05T15:00:42.913Z</time></trkpt><trkpt lat="40.00299891320424" lon="18.167036000881268"><ele>80.5</ele><time>2026-04-05T15:00:43.913Z</time></trkpt><trkpt lat="40.00305947324381" lon="18.16696737751857"><ele>80.66666666666667</ele><time>2026-04-05T15:00:44.913Z</time></trkpt><trkpt lat="40.00312833538602" lon="18.166888982826247"><ele>80.83333333333333</ele><time>2026-04-05T15:00:45.913Z</time></trkpt><trkpt lat="40.003195847278086" lon="18.16681344574221"><ele>81.0</ele><time>2026-04-05T15:00:46.913Z</time></trkpt><trkpt lat="40.00327020630124" lon="18.166735810647275"><ele>81.0</ele><time>2026-04-05T15:00:47.913Z</time></trkpt><trkpt lat="40.003348957161684" lon="18.16665515719489"><ele>81.0</ele><time>2026-04-05T15:00:48.913Z</time></trkpt><trkpt lat="40.00342319654834" lon="18.166582320341437"><ele>81.0</ele><time>2026-04-05T15:00:49.913Z</time></trkpt><trkpt lat="40.003485835778555" lon="18.166522308685128"><ele>81.0</ele><time>2026-04-05T15:00:50.913Z</time></trkpt><trkpt lat="40.003577442147105" lon="18.166422830283235"><ele>81.0</ele><time>2026-04-05T15:00:52.913Z</time></trkpt><trkpt lat="40.00363056439788" lon="18.16636240625797"><ele>81.0</ele><time>2026-04-05T15:00:53.913Z</time></trkpt><trkpt lat="40.003697369050144" lon="18.16628775152368"><ele>81.0</ele><time>2026-04-05T15:00:54.913Z</time></trkpt><trkpt lat="40.00377621039873" lon="18.166202595452695"><ele>81.0</ele><time>2026-04-05T15:00:55.913Z</time></trkpt><trkpt lat="40.00386245246624" lon="18.166112825384186"><ele>81.0</ele><time>2026-04-05T15:00:56.913Z</time></trkpt><trkpt lat="40.00396068336065" lon="18.166003759021773"><ele>81.0</ele><time>2026-04-05T15:00:57.913Z</time></trkpt><trkpt lat="40.00406039138894" lon="18.165899312061388"><ele>81.5</ele><time>2026-04-05T15:00:58.913Z</time></trkpt><trkpt lat="40.00416658489226" lon="18.1657906041268"><ele>82.0</ele><time>2026-04-05T15:00:59.913Z</time></trkpt><trkpt lat="40.00427874762608" lon="18.165676328154312"><ele>82.5</ele><time>2026-04-05T15:01:00.913Z</time></trkpt><trkpt lat="40.00438211880712" lon="18.16557108747888"><ele>83.0</ele><time>2026-04-05T15:01:01.913Z</time></trkpt><trkpt lat="40.004488569309764" lon="18.165459083441746"><ele>83.0</ele><time>2026-04-05T15:01:02.913Z</time></trkpt><trkpt lat="40.00459934834677" lon="18.1653559760936"><ele>83.0</ele><time>2026-04-05T15:01:03.913Z</time></trkpt><trkpt lat="40.004703223560384" lon="18.165242216134164"><ele>83.0</ele><time>2026-04-05T15:01:04.913Z</time></trkpt><trkpt lat="40.00482295629648" lon="18.16512401780254"><ele>83.0</ele><time>2026-04-05T15:01:05.913Z</time></trkpt><trkpt lat="40.00494225396933" lon="18.164996992043033"><ele>83.75</ele><time>2026-04-05T15:01:06.913Z</time></trkpt><trkpt lat="40.00505234639606" lon="18.164878414285994"><ele>84.5</ele><time>2026-04-05T15:01:07.913Z</time></trkpt><trkpt lat="40.005156234740255" lon="18.16476800424199"><ele>85.25</ele><time>2026-04-05T15:01:08.913Z</time></trkpt><trkpt lat="40.00526211143908" lon="18.164664892102056"><ele>86.0</ele><time>2026-04-05T15:01:09.913Z</time></trkpt><trkpt lat="40.00536237922275" lon="18.164556478818525"><ele>86.0</ele><time>2026-04-05T15:01:10.913Z</time></trkpt><trkpt lat="40.005467446633624" lon="18.164449668995744"><ele>86.0</ele><time>2026-04-05T15:01:11.913Z</time></trkpt><trkpt lat="40.00557026966745" lon="18.16433861358661"><ele>86.0</ele><time>2026-04-05T15:01:12.913Z</time></trkpt><trkpt lat="40.00567738130401" lon="18.164227180467748"><ele>86.0</ele><time>2026-04-05T15:01:13.913Z</time></trkpt><trkpt lat="40.00578055998606" lon="18.16411952710921"><ele>87.5</ele><time>2026-04-05T15:01:14.913Z</time></trkpt><trkpt lat="40.005878103098894" lon="18.164022856853506"><ele>89.0</ele><time>2026-04-05T15:01:15.913Z</time></trkpt><trkpt lat="40.00597379571546" lon="18.16393431433821"><ele>90.5</ele><time>2026-04-05T15:01:16.913Z</time></trkpt><trkpt lat="40.00606753902829" lon="18.163840672338893"><ele>92.0</ele><time>2026-04-05T15:01:17.913Z</time></trkpt><trkpt lat="40.00615712775738" lon="18.16374532342373"><ele>92.0</ele><time>2026-04-05T15:01:18.912Z</time></trkpt><trkpt lat="40.00624548986733" lon="18.163645629208485"><ele>92.0</ele><time>2026-04-05T15:01:19.912Z</time></trkpt><trkpt lat="40.006342035666634" lon="18.163549892212906"><ele>92.0</ele><time>2026-04-05T15:01:20.912Z</time></trkpt><trkpt lat="40.00643674776185" lon="18.163452314270845"><ele>92.0</ele><time>2026-04-05T15:01:21.912Z</time></trkpt><trkpt lat="40.006522769770406" lon="18.16336878537245"><ele>92.0</ele><time>2026-04-05T15:01:22.912Z</time></trkpt><trkpt lat="40.00660156690027" lon="18.163298225820853"><ele>92.0</ele><time>2026-04-05T15:01:23.912Z</time></trkpt><trkpt lat="40.00666681833015" lon="18.16323799474497"><ele>92.0</ele><time>2026-04-05T15:01:24.912Z</time></trkpt><trkpt lat="40.00673253732184" lon="18.163211918856746"><ele>92.0</ele><time>2026-04-05T15:01:25.912Z</time></trkpt><trkpt lat="40.00680020274883" lon="18.163138430201574"><ele>92.0</ele><time>2026-04-05T15:01:27.912Z</time></trkpt><trkpt lat="40.00688838990052" lon="18.16309046737407"><ele>92.0</ele><time>2026-04-05T15:01:30.912Z</time></trkpt><trkpt lat="40.00697146054779" lon="18.163035922803232"><ele>93.19999999999999</ele><time>2026-04-05T15:01:32.912Z</time></trkpt><trkpt lat="40.0070389225837" lon="18.162995632603508"><ele>94.4</ele><time>2026-04-05T15:01:33.912Z</time></trkpt><trkpt lat="40.00711014632829" lon="18.16294117352345"><ele>95.6</ele><time>2026-04-05T15:01:34.912Z</time></trkpt><trkpt lat="40.00719584477647" lon="18.162898854301176"><ele>96.80000000000001</ele><time>2026-04-05T15:01:35.912Z</time></trkpt><trkpt lat="40.007302584013175" lon="18.162864171378565"><ele>98.0</ele><time>2026-04-05T15:01:36.912Z</time></trkpt><trkpt lat="40.00741977853425" lon="18.16283909171174"><ele>98.33333333333333</ele><time>2026-04-05T15:01:37.912Z</time></trkpt><trkpt lat="40.0075188988996" lon="18.162820550973812"><ele>98.66666666666666</ele><time>2026-04-05T15:01:38.912Z</time></trkpt><trkpt lat="40.0076019874194" lon="18.162806553334292"><ele>99.0</ele><time>2026-04-05T15:01:39.912Z</time></trkpt><trkpt lat="40.007683861284086" lon="18.16278680736987"><ele>99.33333333333334</ele><time>2026-04-05T15:01:40.912Z</time></trkpt><trkpt lat="40.00776110895177" lon="18.16277521285994"><ele>99.66666666666667</ele><time>2026-04-05T15:01:41.912Z</time></trkpt><trkpt lat="40.007831326611054" lon="18.162765666502274"><ele>100.0</ele><time>2026-04-05T15:01:42.912Z</time></trkpt><trkpt lat="40.007958752117894" lon="18.16275572788663"><ele>100.0</ele><time>2026-04-05T15:01:44.912Z</time></trkpt><trkpt lat="40.00802630352025" lon="18.16275728755736"><ele>100.0</ele><time>2026-04-05T15:01:45.912Z</time></trkpt><trkpt lat="40.008095595179114" lon="18.162754982161793"><ele>100.0</ele><time>2026-04-05T15:01:46.912Z</time></trkpt><trkpt lat="40.008209703764756" lon="18.162758739535175"><ele>100.0</ele><time>2026-04-05T15:01:48.912Z</time></trkpt><trkpt lat="40.008305458284234" lon="18.162775018616113"><ele>100.0</ele><time>2026-04-05T15:01:50.912Z</time></trkpt><trkpt lat="40.00842417192568" lon="18.16274235831135"><ele>100.83333333333334</ele><time>2026-04-05T15:01:52.912Z</time></trkpt><trkpt lat="40.00854238838291" lon="18.162712304482145"><ele>101.66666666666667</ele><time>2026-04-05T15:01:54.912Z</time></trkpt><trkpt lat="40.00860390488337" lon="18.162690184754013"><ele>102.5</ele><time>2026-04-05T15:01:55.912Z</time></trkpt><trkpt lat="40.00866990124448" lon="18.16266948653756"><ele>103.33333333333334</ele><time>2026-04-05T15:01:56.912Z</time></trkpt><trkpt lat="40.00878441867137" lon="18.16260741100017"><ele>104.16666666666667</ele><time>2026-04-05T15:01:58.912Z</time></trkpt><trkpt lat="40.00884312649904" lon="18.162573028311446"><ele>105.0</ele><time>2026-04-05T15:01:59.912Z</time></trkpt><trkpt lat="40.008906389506045" lon="18.162547387253213"><ele>105.0</ele><time>2026-04-05T15:02:00.912Z</time></trkpt><trkpt lat="40.009013566933326" lon="18.16248454943555"><ele>105.0</ele><time>2026-04-05T15:02:02.912Z</time></trkpt><trkpt lat="40.00907093192196" lon="18.162448542214186"><ele>105.0</ele><time>2026-04-05T15:02:03.912Z</time></trkpt><trkpt lat="40.00917139987755" lon="18.162380999812104"><ele>105.0</ele><time>2026-04-05T15:02:05.912Z</time></trkpt><trkpt lat="40.00923486641477" lon="18.162337528254834"><ele>107.0</ele><time>2026-04-05T15:02:07.912Z</time></trkpt></trkseg><trkseg><trkpt lat="40.009359561367134" lon="18.162339561837403"><ele>106.99999999999999</ele><time>2026-04-05T15:35:44.91Z</time></trkpt><trkpt lat="40.009425717988584" lon="18.16228053034987"><ele>107.0</ele><time>2026-04-05T15:35:46.91Z</time></trkpt><trkpt lat="40.0095046431974" lon="18.162257866546305"><ele>107.0</ele><time>2026-04-05T15:35:48.91Z</time></trkpt><trkpt lat="40.00957923536261" lon="18.16222769597428"><ele>107.0</ele><time>2026-04-05T15:35:51.91Z</time></trkpt><trkpt lat="40.009653347965646" lon="18.162207931656294"><ele>106.99999999999999</ele><time>2026-04-05T15:35:53.91Z</time></trkpt><trkpt lat="40.00976990264717" lon="18.162158506585342"><ele>107.0</ele><time>2026-04-05T15:35:55.91Z</time></trkpt><trkpt lat="40.0098420902183" lon="18.16214148054098"><ele>106.99999999999999</ele><time>2026-04-05T15:35:56.91Z</time></trkpt><trkpt lat="40.00991112944298" lon="18.162115052108422"><ele>107.0</ele><time>2026-04-05T15:35:57.91Z</time></trkpt><trkpt lat="40.009970031433696" lon="18.162079262131005"><ele>107.0</ele><time>2026-04-05T15:35:58.91Z</time></trkpt><trkpt lat="40.01003962615326" lon="18.162032274181136"><ele>107.0</ele><time>2026-04-05T15:35:59.91Z</time></trkpt><trkpt lat="40.01008954641405" lon="18.161982093679917"><ele>106.99999999999999</ele><time>2026-04-05T15:36:00.91Z</time></trkpt><trkpt lat="40.01015080085836" lon="18.161952091074784"><ele>107.0</ele><time>2026-04-05T15:36:01.91Z</time></trkpt><trkpt lat="40.01027371063033" lon="18.16189713430015"><ele>107.0</ele><time>2026-04-05T15:36:03.91Z</time></trkpt><trkpt lat="40.01034404252486" lon="18.161891413197576"><ele>106.99999999999999</ele><time>2026-04-05T15:36:04.91Z</time></trkpt><trkpt lat="40.01040862175804" lon="18.1618814903094"><ele>106.99999999999999</ele><time>2026-04-05T15:36:05.91Z</time></trkpt><trkpt lat="40.01051940726828" lon="18.161844827597427"><ele>107.0</ele><time>2026-04-05T15:36:07.91Z</time></trkpt><trkpt lat="40.01059295724667" lon="18.161842525257754"><ele>107.0</ele><time>2026-04-05T15:36:09.91Z</time></trkpt><trkpt lat="40.01071763413207" lon="18.161789661762967"><ele>107.0</ele><time>2026-04-05T15:36:13.91Z</time></trkpt><trkpt lat="40.01077971327234" lon="18.161746359318798"><ele>106.99999999999999</ele><time>2026-04-05T15:36:14.91Z</time></trkpt><trkpt lat="40.01085710340075" lon="18.161682979972497"><ele>106.99999999999999</ele><time>2026-04-05T15:36:16.91Z</time></trkpt><trkpt lat="40.0108862367169" lon="18.161603049566576"><ele>107.0</ele><time>2026-04-05T15:36:18.91Z</time></trkpt><trkpt lat="40.010853619683644" lon="18.161485648213034"><ele>107.0</ele><time>2026-04-05T15:36:20.91Z</time></trkpt><trkpt lat="40.01079528496834" lon="18.16133312551208"><ele>107.16666666666666</ele><time>2026-04-05T15:36:22.91Z</time></trkpt><trkpt lat="40.01076766258855" lon="18.161237766872716"><ele>107.33333333333333</ele><time>2026-04-05T15:36:23.91Z</time></trkpt><trkpt lat="40.01073267433107" lon="18.161135868287992"><ele>107.5</ele><time>2026-04-05T15:36:24.91Z</time></trkpt><trkpt lat="40.010707464426645" lon="18.161032041028708"><ele>107.66666666666666</ele><time>2026-04-05T15:36:25.91Z</time></trkpt><trkpt lat="40.01069826105568" lon="18.160940833050315"><ele>107.83333333333333</ele><time>2026-04-05T15:36:26.91Z</time></trkpt><trkpt lat="40.010655275394114" lon="18.160803428769142"><ele>108.0</ele><time>2026-04-05T15:36:28.91Z</time></trkpt><trkpt lat="40.010618442927374" lon="18.160727434249107"><ele>108.28571428571428</ele><time>2026-04-05T15:36:29.91Z</time></trkpt><trkpt lat="40.010575990834994" lon="18.160643571100483"><ele>108.57142857142857</ele><time>2026-04-05T15:36:30.911Z</time></trkpt><trkpt lat="40.0105536258986" lon="18.16056347666688"><ele>108.85714285714286</ele><time>2026-04-05T15:36:31.91Z</time></trkpt><trkpt lat="40.01055479714358" lon="18.160476183571145"><ele>109.14285714285714</ele><time>2026-04-05T15:36:34.911Z</time></trkpt><trkpt lat="40.01061751619566" lon="18.160418854657276"><ele>109.42857142857143</ele><time>2026-04-05T15:36:36.911Z</time></trkpt><trkpt lat="40.01068382293541" lon="18.160390450762797"><ele>109.71428571428571</ele><time>2026-04-05T15:36:37.911Z</time></trkpt><trkpt lat="40.01074109153324" lon="18.16035220726298"><ele>110.0</ele><time>2026-04-05T15:36:38.911Z</time></trkpt><trkpt lat="40.01081227190345" lon="18.160310145062024"><ele>109.66666666666666</ele><time>2026-04-05T15:36:39.911Z</time></trkpt><trkpt lat="40.010881101962205" lon="18.160261287350096"><ele>109.33333333333333</ele><time>2026-04-05T15:36:40.911Z</time></trkpt><trkpt lat="40.01096595579241" lon="18.16020752197296"><ele>109.0</ele><time>2026-04-05T15:36:41.911Z</time></trkpt><trkpt lat="40.01104811308918" lon="18.16014473863798"><ele>108.66666666666666</ele><time>2026-04-05T15:36:42.91Z</time></trkpt><trkpt lat="40.011126249041226" lon="18.160084890548607"><ele>108.33333333333333</ele><time>2026-04-05T15:36:43.911Z</time></trkpt><trkpt lat="40.01120015693608" lon="18.16003379248208"><ele>108.0</ele><time>2026-04-05T15:36:44.91Z</time></trkpt><trkpt lat="40.01126363510056" lon="18.159992353402533"><ele>108.0</ele><time>2026-04-05T15:36:45.91Z</time></trkpt><trkpt lat="40.01132968021465" lon="18.15995108274206"><ele>108.0</ele><time>2026-04-05T15:36:46.91Z</time></trkpt><trkpt lat="40.01141812513201" lon="18.15987505029861"><ele>108.0</ele><time>2026-04-05T15:36:48.91Z</time></trkpt><trkpt lat="40.01146952383889" lon="18.159827532108768"><ele>108.0</ele><time>2026-04-05T15:36:50.91Z</time></trkpt><trkpt lat="40.01147272517624" lon="18.15972400659469"><ele>108.0</ele><time>2026-04-05T15:36:53.91Z</time></trkpt><trkpt lat="40.01143594143896" lon="18.159581069413946"><ele>108.0</ele><time>2026-04-05T15:36:55.91Z</time></trkpt><trkpt lat="40.01141713524996" lon="18.15949589363817"><ele>108.0</ele><time>2026-04-05T15:36:56.91Z</time></trkpt><trkpt lat="40.011397296247026" lon="18.159382174883046"><ele>108.0</ele><time>2026-04-05T15:36:57.91Z</time></trkpt><trkpt lat="40.0113699287282" lon="18.15926569827003"><ele>108.0</ele><time>2026-04-05T15:36:58.91Z</time></trkpt><trkpt lat="40.01133192305346" lon="18.159162030497114"><ele>108.0</ele><time>2026-04-05T15:36:59.91Z</time></trkpt><trkpt lat="40.01130510037306" lon="18.15905758420859"><ele>108.0</ele><time>2026-04-05T15:37:00.91Z</time></trkpt><trkpt lat="40.01128151285771" lon="18.158967453696487"><ele>108.0</ele><time>2026-04-05T15:37:01.91Z</time></trkpt><trkpt lat="40.011261940883344" lon="18.158883897992666"><ele>107.83333333333333</ele><time>2026-04-05T15:37:02.91Z</time></trkpt><trkpt lat="40.01121018579672" lon="18.15877469513957"><ele>107.66666666666666</ele><time>2026-04-05T15:37:04.91Z</time></trkpt><trkpt lat="40.01118937197538" lon="18.158679799544306"><ele>107.5</ele><time>2026-04-05T15:37:07.91Z</time></trkpt><trkpt lat="40.01118066318763" lon="18.158598350269713"><ele>107.33333333333333</ele><time>2026-04-05T15:37:27.91Z</time></trkpt><trkpt lat="40.011248819661326" lon="18.15856449737647"><ele>107.16666666666666</ele><time>2026-04-05T15:37:29.91Z</time></trkpt><trkpt lat="40.01132170237152" lon="18.15856037484979"><ele>107.0</ele><time>2026-04-05T15:37:30.91Z</time></trkpt><trkpt lat="40.01139751055165" lon="18.158560678122353"><ele>107.0</ele><time>2026-04-05T15:37:31.91Z</time></trkpt><trkpt lat="40.01148304759335" lon="18.158552982073722"><ele>106.99999999999999</ele><time>2026-04-05T15:37:32.91Z</time></trkpt><trkpt lat="40.011592144448684" lon="18.15855719317708"><ele>106.99999999999999</ele><time>2026-04-05T15:37:33.91Z</time></trkpt><trkpt lat="40.01170082372358" lon="18.158546040277045"><ele>107.0</ele><time>2026-04-05T15:37:34.91Z</time></trkpt><trkpt lat="40.011816544344924" lon="18.15853908435115"><ele>107.0</ele><time>2026-04-05T15:37:35.91Z</time></trkpt><trkpt lat="40.01194507330711" lon="18.158531573121206"><ele>107.5</ele><time>2026-04-05T15:37:36.91Z</time></trkpt><trkpt lat="40.01208471529723" lon="18.158524657252336"><ele>108.0</ele><time>2026-04-05T15:37:37.91Z</time></trkpt><trkpt lat="40.012221210916465" lon="18.1585177191708"><ele>108.5</ele><time>2026-04-05T15:37:38.91Z</time></trkpt><trkpt lat="40.012363010217115" lon="18.15851735783697"><ele>109.0</ele><time>2026-04-05T15:37:39.91Z</time></trkpt><trkpt lat="40.01251096841" lon="18.158516853211914"><ele>109.66666666666667</ele><time>2026-04-05T15:37:40.91Z</time></trkpt><trkpt lat="40.01266869990835" lon="18.158495159717308"><ele>110.33333333333334</ele><time>2026-04-05T15:37:41.91Z</time></trkpt><trkpt lat="40.01282516107652" lon="18.158478420385478"><ele>111.0</ele><time>2026-04-05T15:37:42.91Z</time></trkpt><trkpt lat="40.01298049470428" lon="18.158479750421535"><ele>111.0</ele><time>2026-04-05T15:37:43.91Z</time></trkpt><trkpt lat="40.01313267710226" lon="18.158468649836408"><ele>111.0</ele><time>2026-04-05T15:37:44.91Z</time></trkpt><trkpt lat="40.013270575613554" lon="18.15847094558082"><ele>111.0</ele><time>2026-04-05T15:37:45.91Z</time></trkpt><trkpt lat="40.01338049178474" lon="18.158470451910585"><ele>111.0</ele><time>2026-04-05T15:37:46.91Z</time></trkpt><trkpt lat="40.013472153349966" lon="18.158462111969655"><ele>111.19999999999999</ele><time>2026-04-05T15:37:47.91Z</time></trkpt><trkpt lat="40.01355665518904" lon="18.158437730330856"><ele>111.39999999999999</ele><time>2026-04-05T15:37:48.91Z</time></trkpt><trkpt lat="40.01363128619318" lon="18.158403473679797"><ele>111.6</ele><time>2026-04-05T15:37:49.91Z</time></trkpt><trkpt lat="40.013702980083806" lon="18.158341703791518"><ele>111.8</ele><time>2026-04-05T15:37:50.91Z</time></trkpt><trkpt lat="40.01375904074822" lon="18.158243896181805"><ele>112.0</ele><time>2026-04-05T15:37:51.91Z</time></trkpt><trkpt lat="40.01380297430961" lon="18.158115589919042"><ele>111.5</ele><time>2026-04-05T15:37:52.91Z</time></trkpt><trkpt lat="40.013858909772374" lon="18.157986729335594"><ele>111.0</ele><time>2026-04-05T15:37:53.91Z</time></trkpt><trkpt lat="40.013932063959615" lon="18.157850877193997"><ele>110.5</ele><time>2026-04-05T15:37:54.91Z</time></trkpt><trkpt lat="40.01400482279539" lon="18.157696380559084"><ele>110.0</ele><time>2026-04-05T15:37:55.91Z</time></trkpt><trkpt lat="40.014080467339724" lon="18.157547299175256"><ele>110.0</ele><time>2026-04-05T15:37:56.91Z</time></trkpt><trkpt lat="40.014153528046045" lon="18.157413061799023"><ele>110.0</ele><time>2026-04-05T15:37:57.91Z</time></trkpt><trkpt lat="40.01422987849848" lon="18.157289611253827"><ele>110.0</ele><time>2026-04-05T15:37:58.91Z</time></trkpt><trkpt lat="40.01429976820884" lon="18.157165863843556"><ele>110.0</ele><time>2026-04-05T15:37:59.91Z</time></trkpt><trkpt lat="40.01437066185896" lon="18.15704853772122"><ele>109.6</ele><time>2026-04-05T15:38:00.91Z</time></trkpt><trkpt lat="40.01443894241181" lon="18.156936887588415"><ele>109.2</ele><time>2026-04-05T15:38:01.91Z</time></trkpt><trkpt lat="40.014492595441" lon="18.156828401770625"><ele>108.80000000000001</ele><time>2026-04-05T15:38:02.91Z</time></trkpt><trkpt lat="40.014530941216826" lon="18.156721970026126"><ele>108.4</ele><time>2026-04-05T15:38:03.91Z</time></trkpt><trkpt lat="40.014575654784494" lon="18.156623821418556"><ele>108.0</ele><time>2026-04-05T15:38:04.91Z</time></trkpt><trkpt lat="40.01463705326355" lon="18.156524215413555"><ele>107.0</ele><time>2026-04-05T15:38:05.91Z</time></trkpt><trkpt lat="40.01470092064858" lon="18.1564041308925"><ele>106.0</ele><time>2026-04-05T15:38:06.91Z</time></trkpt><trkpt lat="40.01477179278853" lon="18.15625883481225"><ele>105.0</ele><time>2026-04-05T15:38:07.91Z</time></trkpt><trkpt lat="40.01486509686146" lon="18.156102982886416"><ele>104.0</ele><time>2026-04-05T15:38:08.91Z</time></trkpt><trkpt lat="40.014961859744744" lon="18.155928314699594"><ele>104.0</ele><time>2026-04-05T15:38:09.91Z</time></trkpt><trkpt lat="40.01506246156213" lon="18.155741019107115"><ele>104.0</ele><time>2026-04-05T15:38:10.91Z</time></trkpt><trkpt lat="40.015167312639335" lon="18.155555802211325"><ele>104.0</ele><time>2026-04-05T15:38:11.91Z</time></trkpt><trkpt lat="40.015241188059555" lon="18.15542157564043"><ele>104.0</ele><time>2026-04-05T15:38:12.91Z</time></trkpt><trkpt lat="40.01529867835124" lon="18.15531802435289"><ele>104.0</ele><time>2026-04-05T15:38:13.91Z</time></trkpt><trkpt lat="40.015357363787444" lon="18.15524134509144"><ele>104.0</ele><time>2026-04-05T15:38:14.91Z</time></trkpt><trkpt lat="40.015402448183735" lon="18.155105024632984"><ele>104.0</ele><time>2026-04-05T15:38:16.91Z</time></trkpt><trkpt lat="40.01541619406854" lon="18.154948181044706"><ele>104.0</ele><time>2026-04-05T15:38:18.91Z</time></trkpt><trkpt lat="40.015378267059944" lon="18.15486599413698"><ele>103.83333333333333</ele><time>2026-04-05T15:38:19.91Z</time></trkpt><trkpt lat="40.01531666128181" lon="18.15478635913952"><ele>103.66666666666666</ele><time>2026-04-05T15:38:20.91Z</time></trkpt><trkpt lat="40.0152371791492" lon="18.154719216618584"><ele>103.5</ele><time>2026-04-05T15:38:21.91Z</time></trkpt><trkpt lat="40.015148559029704" lon="18.154650228201845"><ele>103.33333333333334</ele><time>2026-04-05T15:38:22.91Z</time></trkpt><trkpt lat="40.01507155179703" lon="18.154608423050604"><ele>103.16666666666667</ele><time>2026-04-05T15:38:23.91Z</time></trkpt><trkpt lat="40.015012009391654" lon="18.154559639924425"><ele>103.0</ele><time>2026-04-05T15:38:24.91Z</time></trkpt><trkpt lat="40.01490832418401" lon="18.154464579161232"><ele>102.57142857142857</ele><time>2026-04-05T15:38:26.91Z</time></trkpt><trkpt lat="40.01484663822234" lon="18.15442917511391"><ele>102.14285714285714</ele><time>2026-04-05T15:38:27.91Z</time></trkpt><trkpt lat="40.01477510237555" lon="18.154390007941377"><ele>101.71428571428572</ele><time>2026-04-05T15:38:28.91Z</time></trkpt><trkpt lat="40.014705992232486" lon="18.154340106081637"><ele>101.28571428571428</ele><time>2026-04-05T15:38:29.91Z</time></trkpt><trkpt lat="40.014638073899874" lon="18.15428575572378"><ele>100.85714285714286</ele><time>2026-04-05T15:38:30.91Z</time></trkpt><trkpt lat="40.01458243421153" lon="18.154232769919364"><ele>100.42857142857143</ele><time>2026-04-05T15:38:31.91Z</time></trkpt><trkpt lat="40.014529105428714" lon="18.154177634297582"><ele>100.0</ele><time>2026-04-05T15:38:32.91Z</time></trkpt><trkpt lat="40.0144805532439" lon="18.154119241009823"><ele>100.00000000000001</ele><time>2026-04-05T15:38:33.91Z</time></trkpt><trkpt lat="40.01441949076419" lon="18.154047293481938"><ele>100.0</ele><time>2026-04-05T15:38:35.91Z</time></trkpt><trkpt lat="40.014376526004" lon="18.15397987717613"><ele>100.0</ele><time>2026-04-05T15:38:44.91Z</time></trkpt><trkpt lat="40.014308461808646" lon="18.153905830357953"><ele>100.0</ele><time>2026-04-05T15:38:47.909Z</time></trkpt><trkpt lat="40.01425443938671" lon="18.15384237278145"><ele>100.00000000000001</ele><time>2026-04-05T15:38:51.91Z</time></trkpt><trkpt lat="40.01417548172431" lon="18.153764408783115"><ele>100.0</ele><time>2026-04-05T15:38:53.91Z</time></trkpt><trkpt lat="40.0140717301956" lon="18.153668472758223"><ele>99.4</ele><time>2026-04-05T15:38:55.91Z</time></trkpt><trkpt lat="40.01400572441044" lon="18.15360830072727"><ele>98.8</ele><time>2026-04-05T15:38:56.91Z</time></trkpt><trkpt lat="40.01392253012943" lon="18.153533164196052"><ele>98.19999999999999</ele><time>2026-04-05T15:38:57.91Z</time></trkpt><trkpt lat="40.01382616408552" lon="18.153451864757706"><ele>97.6</ele><time>2026-04-05T15:38:58.91Z</time></trkpt><trkpt lat="40.01372365315408" lon="18.153350945846896"><ele>97.0</ele><time>2026-04-05T15:38:59.91Z</time></trkpt><trkpt lat="40.01361205411774" lon="18.15324673390739"><ele>96.25</ele><time>2026-04-05T15:39:00.91Z</time></trkpt><trkpt lat="40.013505667444946" lon="18.15314821930486"><ele>95.5</ele><time>2026-04-05T15:39:01.91Z</time></trkpt><trkpt lat="40.013409620992356" lon="18.153054418947708"><ele>94.75</ele><time>2026-04-05T15:39:02.91Z</time></trkpt><trkpt lat="40.013314455131564" lon="18.152969107023278"><ele>94.0</ele><time>2026-04-05T15:39:03.91Z</time></trkpt><trkpt lat="40.01321775284102" lon="18.152887633127765"><ele>93.0</ele><time>2026-04-05T15:39:04.91Z</time></trkpt><trkpt lat="40.013123186581865" lon="18.15280410341179"><ele>92.0</ele><time>2026-04-05T15:39:05.91Z</time></trkpt><trkpt lat="40.013030558827886" lon="18.152727531539448"><ele>91.0</ele><time>2026-04-05T15:39:06.91Z</time></trkpt><trkpt lat="40.01294188609935" lon="18.15265296855426"><ele>90.0</ele><time>2026-04-05T15:39:07.91Z</time></trkpt><trkpt lat="40.012856704018674" lon="18.152578466881042"><ele>89.0</ele><time>2026-04-05T15:39:08.91Z</time></trkpt><trkpt lat="40.012776266336516" lon="18.152505167272153"><ele>89.0</ele><time>2026-04-05T15:39:09.91Z</time></trkpt><trkpt lat="40.01269686052871" lon="18.15243720493819"><ele>89.0</ele><time>2026-04-05T15:39:10.91Z</time></trkpt><trkpt lat="40.01262542517177" lon="18.152372893737"><ele>89.0</ele><time>2026-04-05T15:39:11.91Z</time></trkpt><trkpt lat="40.01256337239112" lon="18.15231410172209"><ele>89.0</ele><time>2026-04-05T15:39:12.91Z</time></trkpt><trkpt lat="40.012508916789194" lon="18.152264016750046"><ele>89.0</ele><time>2026-04-05T15:39:13.91Z</time></trkpt><trkpt lat="40.01240450986432" lon="18.15219167840567"><ele>89.0</ele><time>2026-04-05T15:39:15.91Z</time></trkpt><trkpt lat="40.01229812648296" lon="18.152107605850855"><ele>89.6</ele><time>2026-04-05T15:39:17.91Z</time></trkpt><trkpt lat="40.01223521648958" lon="18.152061863836344"><ele>90.2</ele><time>2026-04-05T15:39:18.91Z</time></trkpt><trkpt lat="40.01215931006414" lon="18.152021495763634"><ele>90.8</ele><time>2026-04-05T15:39:19.91Z</time></trkpt><trkpt lat="40.01207279513694" lon="18.151987072903957"><ele>91.39999999999999</ele><time>2026-04-05T15:39:20.91Z</time></trkpt><trkpt lat="40.01197605647835" lon="18.15195211133746"><ele>92.0</ele><time>2026-04-05T15:39:21.91Z</time></trkpt><trkpt lat="40.01186902862068" lon="18.151924547210147"><ele>92.0</ele><time>2026-04-05T15:39:22.91Z</time></trkpt><trkpt lat="40.011748838798056" lon="18.15190178822178"><ele>92.0</ele><time>2026-04-05T15:39:23.91Z</time></trkpt><trkpt lat="40.01162419859751" lon="18.151886967690245"><ele>92.0</ele><time>2026-04-05T15:39:24.91Z</time></trkpt><trkpt lat="40.011488938586616" lon="18.151880329486296"><ele>92.0</ele><time>2026-04-05T15:39:25.91Z</time></trkpt><trkpt lat="40.01136869381095" lon="18.15188453804505"><ele>90.75</ele><time>2026-04-05T15:39:26.91Z</time></trkpt><trkpt lat="40.01125017493233" lon="18.151889114946925"><ele>89.5</ele><time>2026-04-05T15:39:27.91Z</time></trkpt><trkpt lat="40.01113391610494" lon="18.151886208866646"><ele>88.25</ele><time>2026-04-05T15:39:28.91Z</time></trkpt><trkpt lat="40.01102361393538" lon="18.151884046956997"><ele>87.0</ele><time>2026-04-05T15:39:29.91Z</time></trkpt><trkpt lat="40.0109137525213" lon="18.15187998893978"><ele>86.0</ele><time>2026-04-05T15:39:30.91Z</time></trkpt><trkpt lat="40.01080148450387" lon="18.15188042034385"><ele>85.0</ele><time>2026-04-05T15:39:31.91Z</time></trkpt><trkpt lat="40.01069032718373" lon="18.151879852399993"><ele>84.0</ele><time>2026-04-05T15:39:32.91Z</time></trkpt><trkpt lat="40.01058046786548" lon="18.15187937196403"><ele>83.0</ele><time>2026-04-05T15:39:33.91Z</time></trkpt><trkpt lat="40.010474831973454" lon="18.15188027563937"><ele>82.0</ele><time>2026-04-05T15:39:34.91Z</time></trkpt><trkpt lat="40.010380887387974" lon="18.151884858754556"><ele>82.0</ele><time>2026-04-05T15:39:35.91Z</time></trkpt><trkpt lat="40.01029236827694" lon="18.151887670539942"><ele>82.0</ele><time>2026-04-05T15:39:36.91Z</time></trkpt><trkpt lat="40.010212991845144" lon="18.15188691339461"><ele>82.0</ele><time>2026-04-05T15:39:37.91Z</time></trkpt><trkpt lat="40.01014794079883" lon="18.15188655682387"><ele>82.0</ele><time>2026-04-05T15:39:38.91Z</time></trkpt><trkpt lat="40.01006258328215" lon="18.15188950905746"><ele>82.0</ele><time>2026-04-05T15:39:40.91Z</time></trkpt><trkpt lat="40.009968529931584" lon="18.151896599377285"><ele>82.0</ele><time>2026-04-05T15:39:43.91Z</time></trkpt><trkpt lat="40.00985289561437" lon="18.15190817921574"><ele>81.39999999999999</ele><time>2026-04-05T15:39:45.91Z</time></trkpt><trkpt lat="40.00972764692467" lon="18.151921205467964"><ele>80.8</ele><time>2026-04-05T15:39:47.91Z</time></trkpt><trkpt lat="40.00966201756408" lon="18.151925508827542"><ele>80.2</ele><time>2026-04-05T15:39:48.91Z</time></trkpt><trkpt lat="40.009599051179" lon="18.15193378337151"><ele>79.6</ele><time>2026-04-05T15:39:49.91Z</time></trkpt><trkpt lat="40.0094783531624" lon="18.15194514879764"><ele>79.0</ele><time>2026-04-05T15:39:51.91Z</time></trkpt><trkpt lat="40.00936229374492" lon="18.151960300205428"><ele>79.0</ele><time>2026-04-05T15:39:53.91Z</time></trkpt><trkpt lat="40.009258339676684" lon="18.151971357175583"><ele>79.0</ele><time>2026-04-05T15:39:55.91Z</time></trkpt><trkpt lat="40.00918190207556" lon="18.151978519806317"><ele>79.0</ele><time>2026-04-05T15:39:57.91Z</time></trkpt><trkpt lat="40.0091118524555" lon="18.151991504172145"><ele>79.0</ele><time>2026-04-05T15:40:00.909Z</time></trkpt><trkpt lat="40.00904117375985" lon="18.151985190254766"><ele>79.0</ele><time>2026-04-05T15:40:03.909Z</time></trkpt><trkpt lat="40.00895925176694" lon="18.15193579327125"><ele>79.0</ele><time>2026-04-05T15:40:06.909Z</time></trkpt><trkpt lat="40.00889038206405" lon="18.15193849824817"><ele>78.8</ele><time>2026-04-05T15:40:08.909Z</time></trkpt><trkpt lat="40.00879122982527" lon="18.15202393630565"><ele>78.60000000000001</ele><time>2026-04-05T15:40:10.909Z</time></trkpt><trkpt lat="40.00871623995434" lon="18.15208060706312"><ele>78.4</ele><time>2026-04-05T15:40:11.909Z</time></trkpt><trkpt lat="40.00862789946588" lon="18.15214200302159"><ele>78.2</ele><time>2026-04-05T15:40:12.909Z</time></trkpt><trkpt lat="40.00853256404198" lon="18.152204641247373"><ele>78.0</ele><time>2026-04-05T15:40:13.909Z</time></trkpt><trkpt lat="40.00842956270607" lon="18.152284080294706"><ele>78.0</ele><time>2026-04-05T15:40:14.909Z</time></trkpt><trkpt lat="40.008338145126345" lon="18.152360334560964"><ele>78.0</ele><time>2026-04-05T15:40:15.909Z</time></trkpt><trkpt lat="40.00826032949252" lon="18.15242073803549"><ele>78.0</ele><time>2026-04-05T15:40:16.909Z</time></trkpt><trkpt lat="40.00817636296081" lon="18.15247197473511"><ele>78.0</ele><time>2026-04-05T15:40:17.909Z</time></trkpt><trkpt lat="40.0081047106515" lon="18.15252835358341"><ele>78.0</ele><time>2026-04-05T15:40:18.909Z</time></trkpt><trkpt lat="40.00804147800702" lon="18.152584169953354"><ele>77.8</ele><time>2026-04-05T15:40:19.909Z</time></trkpt><trkpt lat="40.00797166766743" lon="18.152647713025736"><ele>77.6</ele><time>2026-04-05T15:40:20.909Z</time></trkpt><trkpt lat="40.00789376400703" lon="18.152714632846333"><ele>77.4</ele><time>2026-04-05T15:40:21.909Z</time></trkpt><trkpt lat="40.00780321660745" lon="18.152793952620137"><ele>77.2</ele><time>2026-04-05T15:40:22.909Z</time></trkpt><trkpt lat="40.007699438909455" lon="18.15289310537359"><ele>77.0</ele><time>2026-04-05T15:40:23.909Z</time></trkpt><trkpt lat="40.007577486248614" lon="18.153000672077763"><ele>76.5</ele><time>2026-04-05T15:40:24.909Z</time></trkpt><trkpt lat="40.0074364319165" lon="18.153090444166413"><ele>76.0</ele><time>2026-04-05T15:40:25.909Z</time></trkpt><trkpt lat="40.007309908767596" lon="18.153175466080004"><ele>75.5</ele><time>2026-04-05T15:40:26.909Z</time></trkpt><trkpt lat="40.007180963947825" lon="18.153230960380753"><ele>75.0</ele><time>2026-04-05T15:40:27.909Z</time></trkpt><trkpt lat="40.007069703446646" lon="18.153302160870528"><ele>75.0</ele><time>2026-04-05T15:40:28.909Z</time></trkpt><trkpt lat="40.00696660702482" lon="18.153362461277354"><ele>75.0</ele><time>2026-04-05T15:40:29.909Z</time></trkpt><trkpt lat="40.006876463391436" lon="18.153422322669872"><ele>75.0</ele><time>2026-04-05T15:40:30.909Z</time></trkpt><trkpt lat="40.006804283099704" lon="18.153475890078823"><ele>75.0</ele><time>2026-04-05T15:40:31.909Z</time></trkpt><trkpt lat="40.00674316028004" lon="18.15352496128508"><ele>75.0</ele><time>2026-04-05T15:40:32.909Z</time></trkpt><trkpt lat="40.00668372165527" lon="18.153567015655447"><ele>75.0</ele><time>2026-04-05T15:40:33.909Z</time></trkpt><trkpt lat="40.00657635716941" lon="18.153641764426663"><ele>75.0</ele><time>2026-04-05T15:40:35.909Z</time></trkpt><trkpt lat="40.00651992727902" lon="18.153691244599077"><ele>75.0</ele><time>2026-04-05T15:40:36.909Z</time></trkpt><trkpt lat="40.00642937429384" lon="18.153774719840687"><ele>75.0</ele><time>2026-04-05T15:40:38.909Z</time></trkpt><trkpt lat="40.006364658143376" lon="18.153818689252414"><ele>75.0</ele><time>2026-04-05T15:40:39.909Z</time></trkpt><trkpt lat="40.00627088381936" lon="18.1538772093229"><ele>75.0</ele><time>2026-04-05T15:40:40.909Z</time></trkpt><trkpt lat="40.006167204284345" lon="18.153930478560365"><ele>75.0</ele><time>2026-04-05T15:40:41.909Z</time></trkpt><trkpt lat="40.00609174543894" lon="18.153980051335633"><ele>75.0</ele><time>2026-04-05T15:40:42.91Z</time></trkpt><trkpt lat="40.00600575103496" lon="18.154020180507295"><ele>75.0</ele><time>2026-04-05T15:40:43.909Z</time></trkpt><trkpt lat="40.00590396792189" lon="18.15408852792407"><ele>75.0</ele><time>2026-04-05T15:40:44.909Z</time></trkpt><trkpt lat="40.005752676946834" lon="18.154159688831196"><ele>74.4</ele><time>2026-04-05T15:40:45.91Z</time></trkpt><trkpt lat="40.00560140942436" lon="18.15421723515059"><ele>73.8</ele><time>2026-04-05T15:40:46.909Z</time></trkpt><trkpt lat="40.00548845239129" lon="18.154271953554495"><ele>73.2</ele><time>2026-04-05T15:40:47.909Z</time></trkpt><trkpt lat="40.00539923738585" lon="18.154316238978566"><ele>72.6</ele><time>2026-04-05T15:40:48.909Z</time></trkpt><trkpt lat="40.00533444673705" lon="18.15434499801062"><ele>72.0</ele><time>2026-04-05T15:40:49.909Z</time></trkpt><trkpt lat="40.00523986873105" lon="18.15436324420412"><ele>72.0</ele><time>2026-04-05T15:40:51.909Z</time></trkpt><trkpt lat="40.005131550521476" lon="18.154315876265645"><ele>72.0</ele><time>2026-04-05T15:40:53.909Z</time></trkpt><trkpt lat="40.005048593863144" lon="18.154217091713672"><ele>72.0</ele><time>2026-04-05T15:40:54.909Z</time></trkpt><trkpt lat="40.00495296721448" lon="18.15408581156189"><ele>72.0</ele><time>2026-04-05T15:40:55.909Z</time></trkpt><trkpt lat="40.004849280853534" lon="18.153921563135256"><ele>72.0</ele><time>2026-04-05T15:40:56.909Z</time></trkpt><trkpt lat="40.004756728989626" lon="18.153735804116117"><ele>72.0</ele><time>2026-04-05T15:40:57.909Z</time></trkpt><trkpt lat="40.00467037773615" lon="18.153515439522376"><ele>72.0</ele><time>2026-04-05T15:40:58.909Z</time></trkpt><trkpt lat="40.00458769309001" lon="18.153285116677754"><ele>71.66666666666667</ele><time>2026-04-05T15:40:59.909Z</time></trkpt><trkpt lat="40.004511706269845" lon="18.15304473182059"><ele>71.33333333333334</ele><time>2026-04-05T15:41:00.909Z</time></trkpt><trkpt lat="40.004443663131" lon="18.152794334282603"><ele>71.0</ele><time>2026-04-05T15:41:01.909Z</time></trkpt><trkpt lat="40.00438433372846" lon="18.15252450333385"><ele>69.5</ele><time>2026-04-05T15:41:02.909Z</time></trkpt><trkpt lat="40.00431442676734" lon="18.152250096630215"><ele>68.0</ele><time>2026-04-05T15:41:03.909Z</time></trkpt><trkpt lat="40.004228882190034" lon="18.15195708993846"><ele>66.5</ele><time>2026-04-05T15:41:04.909Z</time></trkpt><trkpt lat="40.00414266624558" lon="18.15166414835924"><ele>65.0</ele><time>2026-04-05T15:41:05.909Z</time></trkpt><trkpt lat="40.00406505807271" lon="18.15139627604125"><ele>64.0</ele><time>2026-04-05T15:41:06.909Z</time></trkpt><trkpt lat="40.003991201713546" lon="18.15116157701314"><ele>63.0</ele><time>2026-04-05T15:41:07.909Z</time></trkpt><trkpt lat="40.003920468502415" lon="18.150950254969203"><ele>62.0</ele><time>2026-04-05T15:41:08.909Z</time></trkpt><trkpt lat="40.00385230412996" lon="18.150747432383366"><ele>61.333333333333336</ele><time>2026-04-05T15:41:09.909Z</time></trkpt><trkpt lat="40.003784533994235" lon="18.150547275654198"><ele>60.66666666666667</ele><time>2026-04-05T15:41:10.909Z</time></trkpt><trkpt lat="40.00372328145595" lon="18.150355522219648"><ele>60.0</ele><time>2026-04-05T15:41:11.909Z</time></trkpt><trkpt lat="40.00366210821924" lon="18.15016645013094"><ele>60.0</ele><time>2026-04-05T15:41:12.909Z</time></trkpt><trkpt lat="40.003603113641574" lon="18.149981623077995"><ele>60.0</ele><time>2026-04-05T15:41:13.909Z</time></trkpt><trkpt lat="40.003541811501364" lon="18.149803596525796"><ele>60.0</ele><time>2026-04-05T15:41:14.909Z</time></trkpt><trkpt lat="40.003482690633724" lon="18.149633835431167"><ele>60.0</ele><time>2026-04-05T15:41:15.909Z</time></trkpt><trkpt lat="40.003428496173335" lon="18.14946485851477"><ele>59.6</ele><time>2026-04-05T15:41:16.909Z</time></trkpt><trkpt lat="40.0033729500713" lon="18.14930399355279"><ele>59.2</ele><time>2026-04-05T15:41:17.909Z</time></trkpt><trkpt lat="40.003326874420814" lon="18.1491647316234"><ele>58.8</ele><time>2026-04-05T15:41:18.909Z</time></trkpt><trkpt lat="40.003288913946584" lon="18.149043720706224"><ele>58.4</ele><time>2026-04-05T15:41:19.909Z</time></trkpt><trkpt lat="40.00326050274957" lon="18.148934931711423"><ele>58.0</ele><time>2026-04-05T15:41:20.909Z</time></trkpt><trkpt lat="40.00324779963584" lon="18.148837067701223"><ele>57.666666666666664</ele><time>2026-04-05T15:41:21.909Z</time></trkpt><trkpt lat="40.00324207836422" lon="18.148739569520828"><ele>57.33333333333333</ele><time>2026-04-05T15:41:22.909Z</time></trkpt><trkpt lat="40.00324244724704" lon="18.148641315943145"><ele>57.0</ele><time>2026-04-05T15:41:23.909Z</time></trkpt><trkpt lat="40.00324316010626" lon="18.1485280495139"><ele>56.66666666666667</ele><time>2026-04-05T15:41:24.909Z</time></trkpt><trkpt lat="40.00323143234766" lon="18.148413088657495"><ele>56.333333333333336</ele><time>2026-04-05T15:41:25.909Z</time></trkpt><trkpt lat="40.00319246833741" lon="18.14829028580696"><ele>56.0</ele><time>2026-04-05T15:41:26.909Z</time></trkpt><trkpt lat="40.003135716373" lon="18.148161604907422"><ele>56.0</ele><time>2026-04-05T15:41:27.909Z</time></trkpt><trkpt lat="40.00309512710048" lon="18.148043003720193"><ele>55.99999999999999</ele><time>2026-04-05T15:41:28.909Z</time></trkpt><trkpt lat="40.00307456528351" lon="18.147911273795117"><ele>55.99999999999999</ele><time>2026-04-05T15:41:29.909Z</time></trkpt><trkpt lat="40.00307183797905" lon="18.14776797668781"><ele>56.0</ele><time>2026-04-05T15:41:30.909Z</time></trkpt><trkpt lat="40.00308859869119" lon="18.147619926906966"><ele>56.0</ele><time>2026-04-05T15:41:31.909Z</time></trkpt><trkpt lat="40.00311521657026" lon="18.14745806053383"><ele>56.4</ele><time>2026-04-05T15:41:32.909Z</time></trkpt><trkpt lat="40.003142038084746" lon="18.147299832962897"><ele>56.8</ele><time>2026-04-05T15:41:33.909Z</time></trkpt><trkpt lat="40.00316550186275" lon="18.14716030855763"><ele>57.199999999999996</ele><time>2026-04-05T15:41:34.909Z</time></trkpt><trkpt lat="40.00319040080655" lon="18.14702320493385"><ele>57.599999999999994</ele><time>2026-04-05T15:41:35.909Z</time></trkpt><trkpt lat="40.00321585507572" lon="18.14690199019799"><ele>58.0</ele><time>2026-04-05T15:41:36.909Z</time></trkpt><trkpt lat="40.00324137201063" lon="18.146804199723892"><ele>58.0</ele><time>2026-04-05T15:41:37.909Z</time></trkpt><trkpt lat="40.003268977808496" lon="18.14671568672153"><ele>58.0</ele><time>2026-04-05T15:41:38.909Z</time></trkpt><trkpt lat="40.003298070390265" lon="18.14664145890424"><ele>58.0</ele><time>2026-04-05T15:41:39.909Z</time></trkpt><trkpt lat="40.00332142298638" lon="18.14656508868466"><ele>58.0</ele><time>2026-04-05T15:41:40.909Z</time></trkpt><trkpt lat="40.00332644912071" lon="18.14635916721144"><ele>58.0</ele><time>2026-04-05T15:41:42.909Z</time></trkpt><trkpt lat="40.003334206817996" lon="18.146216783067086"><ele>57.666666666666664</ele><time>2026-04-05T15:41:43.909Z</time></trkpt><trkpt lat="40.00335011363927" lon="18.146034786698362"><ele>57.33333333333333</ele><time>2026-04-05T15:41:44.909Z</time></trkpt><trkpt lat="40.00336805668782" lon="18.145859553088588"><ele>57.0</ele><time>2026-04-05T15:41:45.909Z</time></trkpt><trkpt lat="40.003410988089726" lon="18.145622346895962"><ele>56.66666666666667</ele><time>2026-04-05T15:41:46.909Z</time></trkpt><trkpt lat="40.003456253275445" lon="18.145385976444373"><ele>56.333333333333336</ele><time>2026-04-05T15:41:47.909Z</time></trkpt><trkpt lat="40.00349444969988" lon="18.145123231532214"><ele>56.0</ele><time>2026-04-05T15:41:48.909Z</time></trkpt><trkpt lat="40.003535776776815" lon="18.14486171807295"><ele>56.0</ele><time>2026-04-05T15:41:49.909Z</time></trkpt><trkpt lat="40.003583630753724" lon="18.144591840833407"><ele>56.0</ele><time>2026-04-05T15:41:50.909Z</time></trkpt><trkpt lat="40.00363440367716" lon="18.14431276595735"><ele>56.0</ele><time>2026-04-05T15:41:51.909Z</time></trkpt><trkpt lat="40.00368551209315" lon="18.14404152601123"><ele>56.333333333333336</ele><time>2026-04-05T15:41:52.909Z</time></trkpt><trkpt lat="40.00373719959042" lon="18.143769416237124"><ele>56.66666666666667</ele><time>2026-04-05T15:41:53.909Z</time></trkpt><trkpt lat="40.003789041994935" lon="18.143495429757344"><ele>57.0</ele><time>2026-04-05T15:41:54.909Z</time></trkpt><trkpt lat="40.00384174613366" lon="18.14322437522645"><ele>56.33333333333333</ele><time>2026-04-05T15:41:55.909Z</time></trkpt><trkpt lat="40.00389376846659" lon="18.14295835985717"><ele>55.666666666666664</ele><time>2026-04-05T15:41:56.909Z</time></trkpt><trkpt lat="40.00394639393507" lon="18.142699055188594"><ele>55.0</ele><time>2026-04-05T15:41:57.909Z</time></trkpt><trkpt lat="40.00398312152812" lon="18.1424455068536"><ele>55.666666666666664</ele><time>2026-04-05T15:41:58.909Z</time></trkpt><trkpt lat="40.004000786639665" lon="18.142196095403882"><ele>56.33333333333333</ele><time>2026-04-05T15:41:59.909Z</time></trkpt><trkpt lat="40.00400207238035" lon="18.1419393059828"><ele>57.0</ele><time>2026-04-05T15:42:00.909Z</time></trkpt><trkpt lat="40.00398054217931" lon="18.14168141726669"><ele>56.66666666666667</ele><time>2026-04-05T15:42:01.909Z</time></trkpt><trkpt lat="40.00394300999915" lon="18.1414226486337"><ele>56.333333333333336</ele><time>2026-04-05T15:42:02.909Z</time></trkpt><trkpt lat="40.00388696619234" lon="18.141170533790714"><ele>56.0</ele><time>2026-04-05T15:42:03.909Z</time></trkpt><trkpt lat="40.003823350709965" lon="18.14092442658515"><ele>56.0</ele><time>2026-04-05T15:42:04.909Z</time></trkpt><trkpt lat="40.00375765501357" lon="18.140680359926208"><ele>56.0</ele><time>2026-04-05T15:42:05.909Z</time></trkpt><trkpt lat="40.00368752846386" lon="18.140443085477425"><ele>56.0</ele><time>2026-04-05T15:42:06.909Z</time></trkpt><trkpt lat="40.003603367699796" lon="18.140220430796667"><ele>56.0</ele><time>2026-04-05T15:42:07.909Z</time></trkpt><trkpt lat="40.003501563285525" lon="18.140011186622157"><ele>56.0</ele><time>2026-04-05T15:42:08.909Z</time></trkpt><trkpt lat="40.003378961002774" lon="18.139818049215783"><ele>56.0</ele><time>2026-04-05T15:42:09.909Z</time></trkpt><trkpt lat="40.00324004981781" lon="18.139631965856893"><ele>56.0</ele><time>2026-04-05T15:42:10.909Z</time></trkpt><trkpt lat="40.00309003717768" lon="18.139454470151826"><ele>56.0</ele><time>2026-04-05T15:42:11.909Z</time></trkpt><trkpt lat="40.00293166370299" lon="18.139287100610375"><ele>56.0</ele><time>2026-04-05T15:42:12.909Z</time></trkpt><trkpt lat="40.002771796302554" lon="18.13911941029876"><ele>57.0</ele><time>2026-04-05T15:42:13.909Z</time></trkpt><trkpt lat="40.00261757481512" lon="18.13894751396493"><ele>58.0</ele><time>2026-04-05T15:42:14.909Z</time></trkpt><trkpt lat="40.00246601722613" lon="18.138761382206507"><ele>59.0</ele><time>2026-04-05T15:42:15.909Z</time></trkpt><trkpt lat="40.00231864451107" lon="18.138563237884224"><ele>59.0</ele><time>2026-04-05T15:42:16.909Z</time></trkpt><trkpt lat="40.00217567947733" lon="18.13836364489295"><ele>59.0</ele><time>2026-04-05T15:42:17.909Z</time></trkpt><trkpt lat="40.00203913400904" lon="18.13813719145606"><ele>59.0</ele><time>2026-04-05T15:42:18.909Z</time></trkpt><trkpt lat="40.00191571496097" lon="18.137905594384122"><ele>59.333333333333336</ele><time>2026-04-05T15:42:19.909Z</time></trkpt><trkpt lat="40.00180087535451" lon="18.13767307677941"><ele>59.66666666666667</ele><time>2026-04-05T15:42:20.909Z</time></trkpt><trkpt lat="40.001687437449746" lon="18.13744110414641"><ele>60.0</ele><time>2026-04-05T15:42:21.909Z</time></trkpt><trkpt lat="40.001571729087054" lon="18.137205090992303"><ele>59.66666666666667</ele><time>2026-04-05T15:42:22.909Z</time></trkpt><trkpt lat="40.00146064944963" lon="18.13696909816963"><ele>59.333333333333336</ele><time>2026-04-05T15:42:23.909Z</time></trkpt><trkpt lat="40.001346048093055" lon="18.136734319652124"><ele>59.0</ele><time>2026-04-05T15:42:24.909Z</time></trkpt><trkpt lat="40.00123251420862" lon="18.136495455518315"><ele>59.0</ele><time>2026-04-05T15:42:25.909Z</time></trkpt><trkpt lat="40.00111729417697" lon="18.13626191293932"><ele>59.0</ele><time>2026-04-05T15:42:26.909Z</time></trkpt><trkpt lat="40.0010016541905" lon="18.136027820125754"><ele>59.0</ele><time>2026-04-05T15:42:27.909Z</time></trkpt><trkpt lat="40.000891848266434" lon="18.13579331780125"><ele>59.0</ele><time>2026-04-05T15:42:28.909Z</time></trkpt><trkpt lat="40.00078092625877" lon="18.135559529374884"><ele>59.0</ele><time>2026-04-05T15:42:29.908Z</time></trkpt><trkpt lat="40.00067178185896" lon="18.135325829457624"><ele>59.0</ele><time>2026-04-05T15:42:30.908Z</time></trkpt><trkpt lat="40.000562792328786" lon="18.135090177379382"><ele>58.66666666666667</ele><time>2026-04-05T15:42:31.908Z</time></trkpt><trkpt lat="40.00045207963713" lon="18.13486003974592"><ele>58.33333333333333</ele><time>2026-04-05T15:42:32.908Z</time></trkpt><trkpt lat="40.000342712109216" lon="18.134629752798087"><ele>58.0</ele><time>2026-04-05T15:42:33.908Z</time></trkpt><trkpt lat="40.00023540188479" lon="18.134399719353674"><ele>58.0</ele><time>2026-04-05T15:42:34.908Z</time></trkpt><trkpt lat="40.00012860697298" lon="18.134175311878742"><ele>58.0</ele><time>2026-04-05T15:42:35.908Z</time></trkpt><trkpt lat="40.000021947247255" lon="18.133949647758612"><ele>58.0</ele><time>2026-04-05T15:42:36.908Z</time></trkpt><trkpt lat="39.99991624914291" lon="18.13372366949616"><ele>58.33333333333333</ele><time>2026-04-05T15:42:37.908Z</time></trkpt><trkpt lat="39.99980904049442" lon="18.133495425169222"><ele>58.66666666666667</ele><time>2026-04-05T15:42:38.908Z</time></trkpt><trkpt lat="39.999699038594336" lon="18.133271617032637"><ele>59.0</ele><time>2026-04-05T15:42:39.908Z</time></trkpt><trkpt lat="39.9995781156385" lon="18.133057387726584"><ele>59.0</ele><time>2026-04-05T15:42:40.908Z</time></trkpt><trkpt lat="39.9994454679699" lon="18.132860442497172"><ele>59.0</ele><time>2026-04-05T15:42:41.908Z</time></trkpt><trkpt lat="39.999297832252964" lon="18.132676013498678"><ele>59.0</ele><time>2026-04-05T15:42:42.908Z</time></trkpt><trkpt lat="39.999139327292944" lon="18.132499151095903"><ele>58.66666666666667</ele><time>2026-04-05T15:42:43.908Z</time></trkpt><trkpt lat="39.99897905607496" lon="18.132336611397367"><ele>58.33333333333333</ele><time>2026-04-05T15:42:44.908Z</time></trkpt><trkpt lat="39.998817083332945" lon="18.132176363895674"><ele>58.0</ele><time>2026-04-05T15:42:45.908Z</time></trkpt><trkpt lat="39.99865705647926" lon="18.13200969049776"><ele>58.0</ele><time>2026-04-05T15:42:46.908Z</time></trkpt><trkpt lat="39.99849975789778" lon="18.131841889623207"><ele>58.0</ele><time>2026-04-05T15:42:47.908Z</time></trkpt><trkpt lat="39.99835047686782" lon="18.131661147265707"><ele>58.0</ele><time>2026-04-05T15:42:48.908Z</time></trkpt><trkpt lat="39.998207060854156" lon="18.131469315641986"><ele>56.33333333333333</ele><time>2026-04-05T15:42:49.909Z</time></trkpt><trkpt lat="39.99807415545719" lon="18.13126761141594"><ele>54.66666666666667</ele><time>2026-04-05T15:42:50.909Z</time></trkpt><trkpt lat="39.99795108967882" lon="18.131055463353377"><ele>53.0</ele><time>2026-04-05T15:42:51.909Z</time></trkpt><trkpt lat="39.99783083003276" lon="18.130833603578516"><ele>52.66666666666667</ele><time>2026-04-05T15:42:52.908Z</time></trkpt><trkpt lat="39.99772158364718" lon="18.130599541718677"><ele>52.33333333333333</ele><time>2026-04-05T15:42:53.908Z</time></trkpt><trkpt lat="39.99761781882717" lon="18.130356521855617"><ele>52.0</ele><time>2026-04-05T15:42:54.908Z</time></trkpt><trkpt lat="39.99751229433348" lon="18.130110715161354"><ele>52.0</ele><time>2026-04-05T15:42:55.908Z</time></trkpt><trkpt lat="39.99740848257196" lon="18.129878350491133"><ele>52.0</ele><time>2026-04-05T15:42:56.908Z</time></trkpt><trkpt lat="39.99730633441773" lon="18.129650391523956"><ele>52.0</ele><time>2026-04-05T15:42:57.908Z</time></trkpt><trkpt lat="39.99720658208424" lon="18.12942202513333"><ele>52.0</ele><time>2026-04-05T15:42:58.908Z</time></trkpt><trkpt lat="39.99710406564198" lon="18.129194734314737"><ele>52.0</ele><time>2026-04-05T15:42:59.908Z</time></trkpt><trkpt lat="39.996998784090074" lon="18.128969729132844"><ele>52.0</ele><time>2026-04-05T15:43:00.908Z</time></trkpt><trkpt lat="39.99689551817672" lon="18.12874643786746"><ele>52.0</ele><time>2026-04-05T15:43:01.908Z</time></trkpt><trkpt lat="39.99680165576271" lon="18.1285260815859"><ele>52.0</ele><time>2026-04-05T15:43:02.908Z</time></trkpt><trkpt lat="39.99673499289369" lon="18.128302604146786"><ele>52.0</ele><time>2026-04-05T15:43:03.908Z</time></trkpt><trkpt lat="39.99669403561814" lon="18.128059135432256"><ele>52.0</ele><time>2026-04-05T15:43:04.908Z</time></trkpt><trkpt lat="39.99668058691806" lon="18.12781035306271"><ele>52.0</ele><time>2026-04-05T15:43:05.908Z</time></trkpt><trkpt lat="39.99668236898563" lon="18.12757147517835"><ele>52.0</ele><time>2026-04-05T15:43:06.908Z</time></trkpt><trkpt lat="39.996686787637856" lon="18.127322799654507"><ele>52.0</ele><time>2026-04-05T15:43:07.908Z</time></trkpt><trkpt lat="39.99669274698797" lon="18.127080731103522"><ele>52.0</ele><time>2026-04-05T15:43:08.908Z</time></trkpt><trkpt lat="39.99669049408039" lon="18.126843840716788"><ele>52.0</ele><time>2026-04-05T15:43:09.908Z</time></trkpt><trkpt lat="39.996682186635994" lon="18.126594277762546"><ele>51.33333333333333</ele><time>2026-04-05T15:43:10.908Z</time></trkpt><trkpt lat="39.996654792577125" lon="18.126357622930076"><ele>50.66666666666667</ele><time>2026-04-05T15:43:11.908Z</time></trkpt><trkpt lat="39.9966082147158" lon="18.12613585771201"><ele>50.0</ele><time>2026-04-05T15:43:12.908Z</time></trkpt><trkpt lat="39.99655093238846" lon="18.125898338149145"><ele>50.0</ele><time>2026-04-05T15:43:13.908Z</time></trkpt><trkpt lat="39.996466859765775" lon="18.125703218446215"><ele>50.0</ele><time>2026-04-05T15:43:14.908Z</time></trkpt><trkpt lat="39.99639003524162" lon="18.12551430225336"><ele>50.0</ele><time>2026-04-05T15:43:15.908Z</time></trkpt><trkpt lat="39.99630305685769" lon="18.125324527299682"><ele>50.0</ele><time>2026-04-05T15:43:16.908Z</time></trkpt><trkpt lat="39.99624208546269" lon="18.125079179240007"><ele>50.0</ele><time>2026-04-05T15:43:17.908Z</time></trkpt><trkpt lat="39.996183743033875" lon="18.124826955078316"><ele>50.0</ele><time>2026-04-05T15:43:18.908Z</time></trkpt><trkpt lat="39.9961243311391" lon="18.124566044793887"><ele>50.0</ele><time>2026-04-05T15:43:19.908Z</time></trkpt><trkpt lat="39.996063884024444" lon="18.12430061252402"><ele>50.0</ele><time>2026-04-05T15:43:20.908Z</time></trkpt><trkpt lat="39.99600195565829" lon="18.124040409831476"><ele>50.0</ele><time>2026-04-05T15:43:21.908Z</time></trkpt><trkpt lat="39.99593856927771" lon="18.12377761366026"><ele>49.66666666666667</ele><time>2026-04-05T15:43:22.908Z</time></trkpt><trkpt lat="39.99587181604355" lon="18.12351688835903"><ele>49.33333333333333</ele><time>2026-04-05T15:43:23.908Z</time></trkpt><trkpt lat="39.99580485513711" lon="18.123252634354408"><ele>49.0</ele><time>2026-04-05T15:43:24.908Z</time></trkpt><trkpt lat="39.99575326162772" lon="18.122977019578798"><ele>49.0</ele><time>2026-04-05T15:43:25.908Z</time></trkpt><trkpt lat="39.99569899656461" lon="18.12270157764234"><ele>49.0</ele><time>2026-04-05T15:43:26.908Z</time></trkpt><trkpt lat="39.99564762436251" lon="18.122419706142175"><ele>49.0</ele><time>2026-04-05T15:43:27.908Z</time></trkpt><trkpt lat="39.99560316423493" lon="18.12213567527047"><ele>49.0</ele><time>2026-04-05T15:43:28.908Z</time></trkpt><trkpt lat="39.99555683599284" lon="18.121853367543128"><ele>49.0</ele><time>2026-04-05T15:43:29.908Z</time></trkpt><trkpt lat="39.99552087255015" lon="18.121564809093723"><ele>49.0</ele><time>2026-04-05T15:43:30.908Z</time></trkpt><trkpt lat="39.995493575286844" lon="18.1212775527693"><ele>49.0</ele><time>2026-04-05T15:43:31.908Z</time></trkpt><trkpt lat="39.99547444955066" lon="18.12098923752256"><ele>49.0</ele><time>2026-04-05T15:43:32.908Z</time></trkpt><trkpt lat="39.99546030932213" lon="18.120688826300075"><ele>49.0</ele><time>2026-04-05T15:43:33.908Z</time></trkpt><trkpt lat="39.99544318790358" lon="18.12039665903904"><ele>49.0</ele><time>2026-04-05T15:43:34.908Z</time></trkpt><trkpt lat="39.99542363377928" lon="18.12010384365937"><ele>48.666666666666664</ele><time>2026-04-05T15:43:35.908Z</time></trkpt><trkpt lat="39.99538823651117" lon="18.119818862533606"><ele>48.33333333333333</ele><time>2026-04-05T15:43:36.908Z</time></trkpt><trkpt lat="39.99534229947056" lon="18.119540029760195"><ele>48.0</ele><time>2026-04-05T15:43:37.908Z</time></trkpt><trkpt lat="39.995282799271926" lon="18.119265143540982"><ele>48.33333333333333</ele><time>2026-04-05T15:43:38.908Z</time></trkpt><trkpt lat="39.99520762565279" lon="18.11899319195836"><ele>48.666666666666664</ele><time>2026-04-05T15:43:39.908Z</time></trkpt><trkpt lat="39.99512426258646" lon="18.11872830272727"><ele>49.0</ele><time>2026-04-05T15:43:40.908Z</time></trkpt><trkpt lat="39.99504120237943" lon="18.11846194143185"><ele>49.0</ele><time>2026-04-05T15:43:41.908Z</time></trkpt><trkpt lat="39.99495888549789" lon="18.118198542586114"><ele>49.0</ele><time>2026-04-05T15:43:42.908Z</time></trkpt><trkpt lat="39.99487524696987" lon="18.117935211862935"><ele>49.0</ele><time>2026-04-05T15:43:43.908Z</time></trkpt><trkpt lat="39.9947915306976" lon="18.117673613071055"><ele>49.0</ele><time>2026-04-05T15:43:44.908Z</time></trkpt><trkpt lat="39.994708451481785" lon="18.117409385153397"><ele>49.0</ele><time>2026-04-05T15:43:45.908Z</time></trkpt><trkpt lat="39.994627628052726" lon="18.11714504857566"><ele>49.0</ele><time>2026-04-05T15:43:46.908Z</time></trkpt><trkpt lat="39.99454314376739" lon="18.116881231005543"><ele>48.33333333333333</ele><time>2026-04-05T15:43:47.908Z</time></trkpt><trkpt lat="39.99445810138938" lon="18.116618450366143"><ele>47.666666666666664</ele><time>2026-04-05T15:43:48.908Z</time></trkpt><trkpt lat="39.994370240010255" lon="18.11635222600798"><ele>47.0</ele><time>2026-04-05T15:43:49.908Z</time></trkpt><trkpt lat="39.99428365252253" lon="18.116088114527503"><ele>47.0</ele><time>2026-04-05T15:43:50.908Z</time></trkpt><trkpt lat="39.99420093307184" lon="18.115821719235097"><ele>47.0</ele><time>2026-04-05T15:43:51.908Z</time></trkpt><trkpt lat="39.994130346526745" lon="18.115555747405942"><ele>47.0</ele><time>2026-04-05T15:43:52.908Z</time></trkpt><trkpt lat="39.994066998105644" lon="18.11528791265572"><ele>47.666666666666664</ele><time>2026-04-05T15:43:53.908Z</time></trkpt><trkpt lat="39.99400734519607" lon="18.115024300354584"><ele>48.33333333333333</ele><time>2026-04-05T15:43:54.908Z</time></trkpt><trkpt lat="39.99396273937852" lon="18.114758226116084"><ele>49.0</ele><time>2026-04-05T15:43:55.908Z</time></trkpt><trkpt lat="39.99392880705002" lon="18.11450047361327"><ele>49.0</ele><time>2026-04-05T15:43:56.908Z</time></trkpt><trkpt lat="39.99389821583138" lon="18.11425666352544"><ele>49.0</ele><time>2026-04-05T15:43:57.908Z</time></trkpt><trkpt lat="39.993872750491" lon="18.114028482153202"><ele>49.0</ele><time>2026-04-05T15:43:58.908Z</time></trkpt><trkpt lat="39.99384910570476" lon="18.113808304111256"><ele>49.0</ele><time>2026-04-05T15:43:59.908Z</time></trkpt><trkpt lat="39.993827108888176" lon="18.113590069743648"><ele>49.0</ele><time>2026-04-05T15:44:00.908Z</time></trkpt><trkpt lat="39.99379913767505" lon="18.113375275544616"><ele>49.0</ele><time>2026-04-05T15:44:01.908Z</time></trkpt><trkpt lat="39.993769689153176" lon="18.113162672208944"><ele>49.0</ele><time>2026-04-05T15:44:02.908Z</time></trkpt><trkpt lat="39.99374265364014" lon="18.112944062381118"><ele>49.0</ele><time>2026-04-05T15:44:03.907Z</time></trkpt><trkpt lat="39.99371161808711" lon="18.112725766942276"><ele>49.0</ele><time>2026-04-05T15:44:04.907Z</time></trkpt><trkpt lat="39.99368271177804" lon="18.112516283622885"><ele>48.666666666666664</ele><time>2026-04-05T15:44:05.907Z</time></trkpt><trkpt lat="39.99365404894206" lon="18.112308819524152"><ele>48.33333333333333</ele><time>2026-04-05T15:44:06.907Z</time></trkpt><trkpt lat="39.99361970746433" lon="18.11210385142264"><ele>48.0</ele><time>2026-04-05T15:44:07.907Z</time></trkpt><trkpt lat="39.99357742235212" lon="18.11189798558837"><ele>48.0</ele><time>2026-04-05T15:44:08.907Z</time></trkpt><trkpt lat="39.99352560364058" lon="18.111697306960718"><ele>48.0</ele><time>2026-04-05T15:44:09.907Z</time></trkpt><trkpt lat="39.99346058062786" lon="18.111492293161657"><ele>48.0</ele><time>2026-04-05T15:44:10.907Z</time></trkpt><trkpt lat="39.99339018723528" lon="18.111282126131897"><ele>48.0</ele><time>2026-04-05T15:44:11.907Z</time></trkpt><trkpt lat="39.99331627913583" lon="18.1110729999234"><ele>48.0</ele><time>2026-04-05T15:44:12.907Z</time></trkpt><trkpt lat="39.99324591154068" lon="18.110875406734987"><ele>48.0</ele><time>2026-04-05T15:44:13.907Z</time></trkpt><trkpt lat="39.993177790497946" lon="18.110686988620692"><ele>47.666666666666664</ele><time>2026-04-05T15:44:14.907Z</time></trkpt><trkpt lat="39.993109867442996" lon="18.110499323314766"><ele>47.33333333333333</ele><time>2026-04-05T15:44:15.907Z</time></trkpt><trkpt lat="39.99303771609972" lon="18.110314138921865"><ele>47.0</ele><time>2026-04-05T15:44:16.907Z</time></trkpt><trkpt lat="39.992964046361706" lon="18.11012667423723"><ele>47.0</ele><time>2026-04-05T15:44:17.907Z</time></trkpt><trkpt lat="39.99289674770397" lon="18.109940726674825"><ele>47.0</ele><time>2026-04-05T15:44:18.907Z</time></trkpt><trkpt lat="39.99282870619818" lon="18.10974914830084"><ele>47.0</ele><time>2026-04-05T15:44:19.907Z</time></trkpt><trkpt lat="39.992763614304295" lon="18.1095538709635"><ele>47.5</ele><time>2026-04-05T15:44:20.907Z</time></trkpt><trkpt lat="39.99269930527327" lon="18.109360952589764"><ele>48.0</ele><time>2026-04-05T15:44:21.907Z</time></trkpt><trkpt lat="39.99264789421931" lon="18.10920274257926"><ele>48.5</ele><time>2026-04-05T15:44:22.907Z</time></trkpt><trkpt lat="39.992602940408716" lon="18.10905698269847"><ele>49.0</ele><time>2026-04-05T15:44:23.907Z</time></trkpt><trkpt lat="39.992563655303556" lon="18.108921241862273"><ele>49.0</ele><time>2026-04-05T15:44:24.907Z</time></trkpt><trkpt lat="39.99252378062915" lon="18.108795033726285"><ele>49.0</ele><time>2026-04-05T15:44:25.907Z</time></trkpt><trkpt lat="39.99248776025581" lon="18.10867687038409"><ele>49.0</ele><time>2026-04-05T15:44:26.907Z</time></trkpt><trkpt lat="39.99245094040006" lon="18.108563438065307"><ele>49.0</ele><time>2026-04-05T15:44:27.907Z</time></trkpt><trkpt lat="39.9924148785239" lon="18.108452103835322"><ele>49.0</ele><time>2026-04-05T15:44:28.907Z</time></trkpt><trkpt lat="39.99237406229721" lon="18.108339319095236"><ele>48.6</ele><time>2026-04-05T15:44:29.907Z</time></trkpt><trkpt lat="39.992339274978896" lon="18.108229820398364"><ele>48.2</ele><time>2026-04-05T15:44:30.907Z</time></trkpt><trkpt lat="39.99230538781327" lon="18.10812295014884"><ele>47.800000000000004</ele><time>2026-04-05T15:44:31.907Z</time></trkpt><trkpt lat="39.992270504985086" lon="18.108019322085468"><ele>47.400000000000006</ele><time>2026-04-05T15:44:32.907Z</time></trkpt><trkpt lat="39.992224527796665" lon="18.10790799368219"><ele>47.0</ele><time>2026-04-05T15:44:33.907Z</time></trkpt><trkpt lat="39.99218075977427" lon="18.10777833811385"><ele>47.0</ele><time>2026-04-05T15:44:34.907Z</time></trkpt><trkpt lat="39.992142662060566" lon="18.107652277401144"><ele>47.0</ele><time>2026-04-05T15:44:35.907Z</time></trkpt><trkpt lat="39.99211151027682" lon="18.107541920580775"><ele>47.0</ele><time>2026-04-05T15:44:36.907Z</time></trkpt><trkpt lat="39.992079656076434" lon="18.10742877690028"><ele>47.0</ele><time>2026-04-05T15:44:37.907Z</time></trkpt><trkpt lat="39.992044819279414" lon="18.107320561758097"><ele>47.0</ele><time>2026-04-05T15:44:38.907Z</time></trkpt><trkpt lat="39.99201542972467" lon="18.10721206854707"><ele>47.0</ele><time>2026-04-05T15:44:39.907Z</time></trkpt><trkpt lat="39.99198828786859" lon="18.107116302284037"><ele>47.0</ele><time>2026-04-05T15:44:40.907Z</time></trkpt><trkpt lat="39.991963118931935" lon="18.10702910302229"><ele>47.0</ele><time>2026-04-05T15:44:41.907Z</time></trkpt><trkpt lat="39.99193150982006" lon="18.10694207636838"><ele>47.0</ele><time>2026-04-05T15:44:42.907Z</time></trkpt><trkpt lat="39.99189861447207" lon="18.106850282630266"><ele>47.0</ele><time>2026-04-05T15:44:43.907Z</time></trkpt><trkpt lat="39.991869610342306" lon="18.106759929322"><ele>47.0</ele><time>2026-04-05T15:44:44.907Z</time></trkpt><trkpt lat="39.99183943181909" lon="18.10666070420855"><ele>47.0</ele><time>2026-04-05T15:44:45.907Z</time></trkpt><trkpt lat="39.99180890722641" lon="18.106556971171607"><ele>47.0</ele><time>2026-04-05T15:44:46.907Z</time></trkpt><trkpt lat="39.99177610678637" lon="18.106445965050597"><ele>47.0</ele><time>2026-04-05T15:44:47.907Z</time></trkpt><trkpt lat="39.991738548437596" lon="18.106319743482555"><ele>47.0</ele><time>2026-04-05T15:44:48.907Z</time></trkpt><trkpt lat="39.99169751864703" lon="18.106170576952184"><ele>47.0</ele><time>2026-04-05T15:44:49.907Z</time></trkpt><trkpt lat="39.99165860202643" lon="18.10599049069545"><ele>46.666666666666664</ele><time>2026-04-05T15:44:50.907Z</time></trkpt><trkpt lat="39.99163098977253" lon="18.105773079813353"><ele>46.333333333333336</ele><time>2026-04-05T15:44:51.907Z</time></trkpt><trkpt lat="39.99161600459101" lon="18.10549203638716"><ele>46.0</ele><time>2026-04-05T15:44:52.907Z</time></trkpt><trkpt lat="39.991598184017974" lon="18.10517233647273"><ele>46.0</ele><time>2026-04-05T15:44:53.907Z</time></trkpt><trkpt lat="39.9915822369286" lon="18.104838455793832"><ele>46.0</ele><time>2026-04-05T15:44:54.907Z</time></trkpt><trkpt lat="39.99157754266899" lon="18.1045029528958"><ele>46.0</ele><time>2026-04-05T15:44:55.907Z</time></trkpt><trkpt lat="39.991548436664104" lon="18.10419348387159"><ele>46.0</ele><time>2026-04-05T15:44:56.907Z</time></trkpt><trkpt lat="39.991492333047276" lon="18.103856529353973"><ele>46.0</ele><time>2026-04-05T15:44:57.908Z</time></trkpt><trkpt lat="39.99141980021232" lon="18.10350543305237"><ele>46.0</ele><time>2026-04-05T15:44:58.908Z</time></trkpt><trkpt lat="39.99134074003397" lon="18.1031440086145"><ele>46.0</ele><time>2026-04-05T15:44:59.908Z</time></trkpt><trkpt lat="39.99125419383829" lon="18.102782333393318"><ele>46.0</ele><time>2026-04-05T15:45:00.907Z</time></trkpt><trkpt lat="39.99117048901491" lon="18.102415650733562"><ele>46.5</ele><time>2026-04-05T15:45:01.907Z</time></trkpt><trkpt lat="39.991086425895155" lon="18.102054487140695"><ele>47.0</ele><time>2026-04-05T15:45:02.907Z</time></trkpt><trkpt lat="39.991000371084695" lon="18.101702206833583"><ele>47.0</ele><time>2026-04-05T15:45:03.907Z</time></trkpt><trkpt lat="39.99090616473808" lon="18.101356339745095"><ele>47.0</ele><time>2026-04-05T15:45:04.907Z</time></trkpt><trkpt lat="39.9908032345501" lon="18.10101507630732"><ele>47.0</ele><time>2026-04-05T15:45:05.907Z</time></trkpt><trkpt lat="39.99070598545165" lon="18.100700019117703"><ele>47.0</ele><time>2026-04-05T15:45:06.907Z</time></trkpt><trkpt lat="39.99062059077537" lon="18.100398645871515"><ele>47.0</ele><time>2026-04-05T15:45:07.907Z</time></trkpt><trkpt lat="39.99054356314049" lon="18.100115442183945"><ele>47.0</ele><time>2026-04-05T15:45:08.907Z</time></trkpt><trkpt lat="39.990462673448384" lon="18.099839150797475"><ele>47.33333333333333</ele><time>2026-04-05T15:45:09.907Z</time></trkpt><trkpt lat="39.99039101229789" lon="18.099584879750243"><ele>47.666666666666664</ele><time>2026-04-05T15:45:10.907Z</time></trkpt><trkpt lat="39.99033534308017" lon="18.099362914054105"><ele>48.0</ele><time>2026-04-05T15:45:11.907Z</time></trkpt><trkpt lat="39.990294377234186" lon="18.099148382141514"><ele>48.33333333333333</ele><time>2026-04-05T15:45:12.907Z</time></trkpt><trkpt lat="39.99026890255374" lon="18.09894119625975"><ele>48.666666666666664</ele><time>2026-04-05T15:45:13.907Z</time></trkpt><trkpt lat="39.99025567527472" lon="18.098725337611995"><ele>49.0</ele><time>2026-04-05T15:45:14.907Z</time></trkpt><trkpt lat="39.99026059890446" lon="18.098525130034428"><ele>49.0</ele><time>2026-04-05T15:45:15.907Z</time></trkpt><trkpt lat="39.990280554089935" lon="18.09835617398053"><ele>49.0</ele><time>2026-04-05T15:45:16.907Z</time></trkpt><trkpt lat="39.990306959263954" lon="18.09820629408524"><ele>49.0</ele><time>2026-04-05T15:45:17.907Z</time></trkpt><trkpt lat="39.990341703610135" lon="18.098045678596147"><ele>49.0</ele><time>2026-04-05T15:45:18.907Z</time></trkpt><trkpt lat="39.990366965973024" lon="18.097878293741655"><ele>49.25</ele><time>2026-04-05T15:45:19.907Z</time></trkpt><trkpt lat="39.99037749205065" lon="18.097751896558403"><ele>49.5</ele><time>2026-04-05T15:45:20.907Z</time></trkpt><trkpt lat="39.99037319862265" lon="18.09765595133439"><ele>49.75</ele><time>2026-04-05T15:45:21.907Z</time></trkpt><trkpt lat="39.99033574879275" lon="18.097538759046582"><ele>50.0</ele><time>2026-04-05T15:45:23.907Z</time></trkpt><trkpt lat="39.99089630999638" lon="18.09724159473692"><ele>50.0</ele><time>2026-04-05T15:45:24.907Z</time></trkpt><trkpt lat="39.9910193126757" lon="18.097153702268333"><ele>50.0</ele><time>2026-04-05T15:45:25.907Z</time></trkpt><trkpt lat="39.991127022669104" lon="18.097074963273673"><ele>50.0</ele><time>2026-04-05T15:45:26.907Z</time></trkpt><trkpt lat="39.99121667154353" lon="18.097020917479934"><ele>50.0</ele><time>2026-04-05T15:45:27.907Z</time></trkpt><trkpt lat="39.99130188250792" lon="18.096995011798082"><ele>50.00000000000001</ele><time>2026-04-05T15:45:28.907Z</time></trkpt><trkpt lat="39.99138864148" lon="18.096997717445316"><ele>50.0</ele><time>2026-04-05T15:45:29.907Z</time></trkpt><trkpt lat="39.99146933599657" lon="18.097014702208153"><ele>50.0</ele><time>2026-04-05T15:45:30.907Z</time></trkpt><trkpt lat="39.99153554013198" lon="18.09703245657233"><ele>50.0</ele><time>2026-04-05T15:45:31.907Z</time></trkpt><trkpt lat="39.99159533142344" lon="18.097065009379733"><ele>50.00000000000001</ele><time>2026-04-05T15:45:32.907Z</time></trkpt><trkpt lat="39.9916613246039" lon="18.097116738370993"><ele>50.0</ele><time>2026-04-05T15:45:33.907Z</time></trkpt><trkpt lat="39.99174454579347" lon="18.097189385407017"><ele>50.0</ele><time>2026-04-05T15:45:34.907Z</time></trkpt><trkpt lat="39.991851199495976" lon="18.09727849219039"><ele>50.0</ele><time>2026-04-05T15:45:35.907Z</time></trkpt><trkpt lat="39.99197683765806" lon="18.097376190207452"><ele>50.0</ele><time>2026-04-05T15:45:36.907Z</time></trkpt><trkpt lat="39.99211098320641" lon="18.097488668603305"><ele>50.0</ele><time>2026-04-05T15:45:37.907Z</time></trkpt><trkpt lat="39.99224132700218" lon="18.097618489102402"><ele>50.0</ele><time>2026-04-05T15:45:38.907Z</time></trkpt><trkpt lat="39.99236562757291" lon="18.097773146955724"><ele>50.0</ele><time>2026-04-05T15:45:39.907Z</time></trkpt><trkpt lat="39.99249579828712" lon="18.097951694846305"><ele>50.0</ele><time>2026-04-05T15:45:40.907Z</time></trkpt><trkpt lat="39.992628352225" lon="18.098143153582072"><ele>49.66666666666667</ele><time>2026-04-05T15:45:41.907Z</time></trkpt><trkpt lat="39.992760760859255" lon="18.09835277925261"><ele>49.33333333333333</ele><time>2026-04-05T15:45:42.907Z</time></trkpt><trkpt lat="39.99289490331331" lon="18.09857000770236"><ele>49.0</ele><time>2026-04-05T15:45:43.906Z</time></trkpt><trkpt lat="39.99303582852261" lon="18.098790391128368"><ele>49.0</ele><time>2026-04-05T15:45:44.906Z</time></trkpt><trkpt lat="39.99317621877527" lon="18.099018977174126"><ele>49.0</ele><time>2026-04-05T15:45:45.906Z</time></trkpt><trkpt lat="39.99332450767834" lon="18.099242997547844"><ele>50.0</ele><time>2026-04-05T15:45:46.906Z</time></trkpt><trkpt lat="39.993472586693485" lon="18.09950159006136"><ele>51.0</ele><time>2026-04-05T15:45:47.906Z</time></trkpt><trkpt lat="39.993625017225206" lon="18.09973801964681"><ele>49.5</ele><time>2026-04-05T15:45:48.906Z</time></trkpt><trkpt lat="39.99377346081418" lon="18.099971740393716"><ele>48.0</ele><time>2026-04-05T15:45:49.906Z</time></trkpt><trkpt lat="39.993917007659746" lon="18.100206950363955"><ele>48.0</ele><time>2026-04-05T15:45:50.906Z</time></trkpt><trkpt lat="39.99405261814497" lon="18.100420768031658"><ele>48.0</ele><time>2026-04-05T15:45:51.906Z</time></trkpt><trkpt lat="39.99419059528677" lon="18.100606979105805"><ele>48.0</ele><time>2026-04-05T15:45:52.906Z</time></trkpt><trkpt lat="39.994343262817544" lon="18.10077553518859"><ele>47.666666666666664</ele><time>2026-04-05T15:45:53.906Z</time></trkpt><trkpt lat="39.99451737042423" lon="18.100913309642145"><ele>47.33333333333333</ele><time>2026-04-05T15:45:54.906Z</time></trkpt><trkpt lat="39.994701927210464" lon="18.10102680455579"><ele>47.0</ele><time>2026-04-05T15:45:55.906Z</time></trkpt><trkpt lat="39.994895354074906" lon="18.101121853785404"><ele>47.33333333333333</ele><time>2026-04-05T15:45:56.906Z</time></trkpt><trkpt lat="39.99509673302282" lon="18.101189110797286"><ele>47.666666666666664</ele><time>2026-04-05T15:45:57.906Z</time></trkpt><trkpt lat="39.99529504473302" lon="18.101242304352777"><ele>48.0</ele><time>2026-04-05T15:45:58.906Z</time></trkpt><trkpt lat="39.99547461699591" lon="18.10131779245152"><ele>48.0</ele><time>2026-04-05T15:45:59.906Z</time></trkpt><trkpt lat="39.99565080535628" lon="18.10143610898328"><ele>48.0</ele><time>2026-04-05T15:46:00.906Z</time></trkpt><trkpt lat="39.99582163897008" lon="18.101576987725256"><ele>48.0</ele><time>2026-04-05T15:46:01.906Z</time></trkpt><trkpt lat="39.99598835972643" lon="18.101736451857636"><ele>48.33333333333333</ele><time>2026-04-05T15:46:02.906Z</time></trkpt><trkpt lat="39.996147825833795" lon="18.101916180497128"><ele>48.666666666666664</ele><time>2026-04-05T15:46:03.906Z</time></trkpt><trkpt lat="39.99630673598103" lon="18.102103371948516"><ele>49.0</ele><time>2026-04-05T15:46:04.906Z</time></trkpt><trkpt lat="39.996468349233375" lon="18.10228925999118"><ele>48.33333333333333</ele><time>2026-04-05T15:46:05.906Z</time></trkpt><trkpt lat="39.99663420388663" lon="18.102469576120043"><ele>47.666666666666664</ele><time>2026-04-05T15:46:06.906Z</time></trkpt><trkpt lat="39.9968011150558" lon="18.10265514507334"><ele>47.0</ele><time>2026-04-05T15:46:07.906Z</time></trkpt><trkpt lat="39.99697131113305" lon="18.102846936772917"><ele>47.0</ele><time>2026-04-05T15:46:08.906Z</time></trkpt><trkpt lat="39.997138064437614" lon="18.10304002666616"><ele>47.0</ele><time>2026-04-05T15:46:09.906Z</time></trkpt><trkpt lat="39.9973086635824" lon="18.103226423301066"><ele>47.0</ele><time>2026-04-05T15:46:10.906Z</time></trkpt><trkpt lat="39.9974801692441" lon="18.103413792129555"><ele>47.33333333333333</ele><time>2026-04-05T15:46:11.906Z</time></trkpt><trkpt lat="39.99765081091634" lon="18.1035994444602"><ele>47.666666666666664</ele><time>2026-04-05T15:46:12.906Z</time></trkpt><trkpt lat="39.99782764082952" lon="18.103782819895446"><ele>48.0</ele><time>2026-04-05T15:46:13.906Z</time></trkpt><trkpt lat="39.99800975537399" lon="18.103941703761183"><ele>48.0</ele><time>2026-04-05T15:46:14.906Z</time></trkpt><trkpt lat="39.99820018536382" lon="18.10408275860092"><ele>48.0</ele><time>2026-04-05T15:46:15.906Z</time></trkpt><trkpt lat="39.99839271567945" lon="18.104215100177118"><ele>48.0</ele><time>2026-04-05T15:46:16.906Z</time></trkpt><trkpt lat="39.99856933474935" lon="18.104341671226308"><ele>48.0</ele><time>2026-04-05T15:46:17.906Z</time></trkpt><trkpt lat="39.99874268842045" lon="18.10446161644286"><ele>48.0</ele><time>2026-04-05T15:46:18.906Z</time></trkpt><trkpt lat="39.99890449544092" lon="18.1045736804557"><ele>48.0</ele><time>2026-04-05T15:46:19.906Z</time></trkpt><trkpt lat="39.99905089632215" lon="18.104677646871234"><ele>48.33333333333333</ele><time>2026-04-05T15:46:20.906Z</time></trkpt><trkpt lat="39.999186783540544" lon="18.10477733211416"><ele>48.666666666666664</ele><time>2026-04-05T15:46:21.906Z</time></trkpt><trkpt lat="39.9993179560666" lon="18.104873898688382"><ele>49.0</ele><time>2026-04-05T15:46:22.906Z</time></trkpt><trkpt lat="39.999437833442606" lon="18.104982421406095"><ele>49.33333333333333</ele><time>2026-04-05T15:46:23.906Z</time></trkpt><trkpt lat="39.999550200394815" lon="18.105105426811537"><ele>49.66666666666667</ele><time>2026-04-05T15:46:24.906Z</time></trkpt><trkpt lat="39.99965989225043" lon="18.105245335803332"><ele>50.0</ele><time>2026-04-05T15:46:25.906Z</time></trkpt><trkpt lat="39.99976133284524" lon="18.105404445800264"><ele>50.0</ele><time>2026-04-05T15:46:26.906Z</time></trkpt><trkpt lat="39.99984710054282" lon="18.105576072786164"><ele>50.0</ele><time>2026-04-05T15:46:27.906Z</time></trkpt><trkpt lat="39.99992832919213" lon="18.1057521901985"><ele>50.0</ele><time>2026-04-05T15:46:28.906Z</time></trkpt><trkpt lat="40.00000935297068" lon="18.105921810445594"><ele>50.0</ele><time>2026-04-05T15:46:29.906Z</time></trkpt><trkpt lat="40.00007802951869" lon="18.106091293115494"><ele>50.0</ele><time>2026-04-05T15:46:30.906Z</time></trkpt><trkpt lat="40.0001373951644" lon="18.106243510863862"><ele>50.0</ele><time>2026-04-05T15:46:31.906Z</time></trkpt><trkpt lat="40.00018860348184" lon="18.106386109813254"><ele>50.0</ele><time>2026-04-05T15:46:32.906Z</time></trkpt><trkpt lat="40.00023105205655" lon="18.106518986432622"><ele>49.8</ele><time>2026-04-05T15:46:33.906Z</time></trkpt><trkpt lat="40.000269607895184" lon="18.10664731650996"><ele>49.6</ele><time>2026-04-05T15:46:34.906Z</time></trkpt><trkpt lat="40.00030070964876" lon="18.10677985538879"><ele>49.400000000000006</ele><time>2026-04-05T15:46:35.906Z</time></trkpt><trkpt lat="40.00033351193092" lon="18.106922390210567"><ele>49.2</ele><time>2026-04-05T15:46:36.906Z</time></trkpt><trkpt lat="40.000370502235505" lon="18.10707024013214"><ele>49.0</ele><time>2026-04-05T15:46:37.906Z</time></trkpt><trkpt lat="40.00041839770631" lon="18.107217576814136"><ele>49.0</ele><time>2026-04-05T15:46:38.906Z</time></trkpt><trkpt lat="40.00047519034143" lon="18.107371906209924"><ele>49.0</ele><time>2026-04-05T15:46:39.906Z</time></trkpt><trkpt lat="40.00054694221703" lon="18.107533865118413"><ele>49.0</ele><time>2026-04-05T15:46:40.906Z</time></trkpt><trkpt lat="40.00062929137932" lon="18.107684894390207"><ele>49.0</ele><time>2026-04-05T15:46:41.906Z</time></trkpt><trkpt lat="40.00072593165994" lon="18.10783145661509"><ele>49.33333333333333</ele><time>2026-04-05T15:46:42.906Z</time></trkpt><trkpt lat="40.00083091727198" lon="18.107979539837416"><ele>49.66666666666667</ele><time>2026-04-05T15:46:43.906Z</time></trkpt><trkpt lat="40.00093898228992" lon="18.10813110423825"><ele>50.0</ele><time>2026-04-05T15:46:44.906Z</time></trkpt><trkpt lat="40.001052583214275" lon="18.108282371143"><ele>50.0</ele><time>2026-04-05T15:46:45.906Z</time></trkpt><trkpt lat="40.001171574455185" lon="18.108430412779214"><ele>50.0</ele><time>2026-04-05T15:46:46.906Z</time></trkpt><trkpt lat="40.001288239714576" lon="18.10856731075035"><ele>50.0</ele><time>2026-04-05T15:46:47.906Z</time></trkpt><trkpt lat="40.001404948585716" lon="18.108693644249193"><ele>50.0</ele><time>2026-04-05T15:46:48.906Z</time></trkpt><trkpt lat="40.00151657270711" lon="18.10880981704185"><ele>50.0</ele><time>2026-04-05T15:46:49.906Z</time></trkpt><trkpt lat="40.00161846405123" lon="18.10891721919314"><ele>50.0</ele><time>2026-04-05T15:46:50.906Z</time></trkpt><trkpt lat="40.00171235109145" lon="18.10902585823307"><ele>50.0</ele><time>2026-04-05T15:46:51.906Z</time></trkpt><trkpt lat="40.001813725892625" lon="18.10914432239588"><ele>50.0</ele><time>2026-04-05T15:46:52.906Z</time></trkpt><trkpt lat="40.00191410903537" lon="18.109268379726505"><ele>50.0</ele><time>2026-04-05T15:46:53.906Z</time></trkpt><trkpt lat="40.00201257699204" lon="18.10940491490817"><ele>50.0</ele><time>2026-04-05T15:46:54.906Z</time></trkpt><trkpt lat="40.00211312803568" lon="18.10955246162577"><ele>50.0</ele><time>2026-04-05T15:46:55.906Z</time></trkpt><trkpt lat="40.00221075810103" lon="18.109712264158613"><ele>50.0</ele><time>2026-04-05T15:46:56.906Z</time></trkpt><trkpt lat="40.00230742546476" lon="18.109878553695772"><ele>50.0</ele><time>2026-04-05T15:46:57.906Z</time></trkpt><trkpt lat="40.00240891414975" lon="18.11005097326186"><ele>50.0</ele><time>2026-04-05T15:46:58.906Z</time></trkpt><trkpt lat="40.00250966631045" lon="18.110235591112836"><ele>50.333333333333336</ele><time>2026-04-05T15:46:59.906Z</time></trkpt><trkpt lat="40.00261089890881" lon="18.110416435314956"><ele>50.66666666666667</ele><time>2026-04-05T15:47:00.907Z</time></trkpt><trkpt lat="40.00271851414082" lon="18.110588292289368"><ele>51.0</ele><time>2026-04-05T15:47:01.907Z</time></trkpt><trkpt lat="40.002825559730255" lon="18.110754557247798"><ele>51.0</ele><time>2026-04-05T15:47:02.907Z</time></trkpt><trkpt lat="40.00293856556894" lon="18.110920720578054"><ele>51.0</ele><time>2026-04-05T15:47:03.906Z</time></trkpt><trkpt lat="40.00305721715122" lon="18.11106926098157"><ele>51.0</ele><time>2026-04-05T15:47:04.906Z</time></trkpt><trkpt lat="40.003192276260805" lon="18.11121140422389"><ele>51.0</ele><time>2026-04-05T15:47:05.906Z</time></trkpt><trkpt lat="40.00334266546962" lon="18.111341815642856"><ele>51.0</ele><time>2026-04-05T15:47:06.906Z</time></trkpt><trkpt lat="40.00349455459789" lon="18.111466517241002"><ele>51.0</ele><time>2026-04-05T15:47:07.906Z</time></trkpt><trkpt lat="40.0036391481784" lon="18.111586092497433"><ele>51.0</ele><time>2026-04-05T15:47:08.906Z</time></trkpt><trkpt lat="40.003777429815855" lon="18.111692853622436"><ele>51.0</ele><time>2026-04-05T15:47:09.906Z</time></trkpt><trkpt lat="40.00390399614103" lon="18.111799522917185"><ele>51.0</ele><time>2026-04-05T15:47:10.906Z</time></trkpt><trkpt lat="40.00403191297278" lon="18.111905872120797"><ele>52.0</ele><time>2026-04-05T15:47:11.906Z</time></trkpt><trkpt lat="40.00416631166848" lon="18.112009109533613"><ele>53.0</ele><time>2026-04-05T15:47:12.906Z</time></trkpt><trkpt lat="40.004305395146886" lon="18.112098641594546"><ele>54.0</ele><time>2026-04-05T15:47:13.907Z</time></trkpt><trkpt lat="40.0044487648892" lon="18.11216639273657"><ele>54.0</ele><time>2026-04-05T15:47:14.907Z</time></trkpt><trkpt lat="40.00460128916906" lon="18.112234652432985"><ele>54.0</ele><time>2026-04-05T15:47:15.907Z</time></trkpt><trkpt lat="40.00475457698601" lon="18.11230747252393"><ele>54.0</ele><time>2026-04-05T15:47:16.907Z</time></trkpt><trkpt lat="40.00490512456071" lon="18.112382979274866"><ele>55.0</ele><time>2026-04-05T15:47:17.907Z</time></trkpt><trkpt lat="40.00505319039167" lon="18.112473292582912"><ele>56.0</ele><time>2026-04-05T15:47:18.907Z</time></trkpt><trkpt lat="40.00519416322574" lon="18.112583785994616"><ele>57.0</ele><time>2026-04-05T15:47:19.907Z</time></trkpt><trkpt lat="40.00532414170183" lon="18.112714837563793"><ele>57.0</ele><time>2026-04-05T15:47:20.907Z</time></trkpt><trkpt lat="40.005436169833914" lon="18.11285893901241"><ele>57.0</ele><time>2026-04-05T15:47:21.907Z</time></trkpt><trkpt lat="40.00554499823512" lon="18.113008736550505"><ele>57.0</ele><time>2026-04-05T15:47:22.907Z</time></trkpt><trkpt lat="40.0056480597573" lon="18.113167187592374"><ele>57.33333333333333</ele><time>2026-04-05T15:47:23.907Z</time></trkpt><trkpt lat="40.0057376902038" lon="18.113340489814153"><ele>57.666666666666664</ele><time>2026-04-05T15:47:24.907Z</time></trkpt><trkpt lat="40.00581481811129" lon="18.113518819870638"><ele>58.0</ele><time>2026-04-05T15:47:25.907Z</time></trkpt><trkpt lat="40.005882898747934" lon="18.1137062840431"><ele>59.0</ele><time>2026-04-05T15:47:26.907Z</time></trkpt><trkpt lat="40.00595162425874" lon="18.113893952665787"><ele>60.0</ele><time>2026-04-05T15:47:27.907Z</time></trkpt><trkpt lat="40.00602189813265" lon="18.114073638598637"><ele>61.0</ele><time>2026-04-05T15:47:28.907Z</time></trkpt><trkpt lat="40.00609759964589" lon="18.11425156705745"><ele>61.33333333333333</ele><time>2026-04-05T15:47:29.907Z</time></trkpt><trkpt lat="40.006187105230545" lon="18.114415777532873"><ele>61.66666666666667</ele><time>2026-04-05T15:47:30.907Z</time></trkpt><trkpt lat="40.006294850477296" lon="18.114577219575317"><ele>62.0</ele><time>2026-04-05T15:47:31.907Z</time></trkpt><trkpt lat="40.006395017019294" lon="18.114724571725734"><ele>62.0</ele><time>2026-04-05T15:47:32.907Z</time></trkpt><trkpt lat="40.006513175367424" lon="18.114883192796757"><ele>62.0</ele><time>2026-04-05T15:47:33.907Z</time></trkpt><trkpt lat="40.006623693436765" lon="18.11504186254976"><ele>62.0</ele><time>2026-04-05T15:47:34.907Z</time></trkpt><trkpt lat="40.006726563016244" lon="18.115198507417244"><ele>62.333333333333336</ele><time>2026-04-05T15:47:35.907Z</time></trkpt><trkpt lat="40.00682954577108" lon="18.11534975319391"><ele>62.66666666666667</ele><time>2026-04-05T15:47:36.907Z</time></trkpt><trkpt lat="40.00692937227554" lon="18.1154933577536"><ele>63.0</ele><time>2026-04-05T15:47:37.907Z</time></trkpt><trkpt lat="40.007029401706525" lon="18.115633545809207"><ele>63.0</ele><time>2026-04-05T15:47:38.907Z</time></trkpt><trkpt lat="40.007133120549696" lon="18.11578185501371"><ele>63.0</ele><time>2026-04-05T15:47:39.907Z</time></trkpt><trkpt lat="40.007248605801266" lon="18.115933525059024"><ele>63.0</ele><time>2026-04-05T15:47:40.907Z</time></trkpt><trkpt lat="40.00736410474689" lon="18.116085243982873"><ele>63.0</ele><time>2026-04-05T15:47:41.907Z</time></trkpt><trkpt lat="40.00749200479584" lon="18.116236063858082"><ele>63.0</ele><time>2026-04-05T15:47:42.907Z</time></trkpt><trkpt lat="40.00762383790043" lon="18.116380596310627"><ele>63.0</ele><time>2026-04-05T15:47:43.907Z</time></trkpt><trkpt lat="40.00775454591102" lon="18.116506579800504"><ele>63.5</ele><time>2026-04-05T15:47:44.907Z</time></trkpt><trkpt lat="40.00787528321555" lon="18.116622025501627"><ele>64.0</ele><time>2026-04-05T15:47:45.907Z</time></trkpt><trkpt lat="40.007991863836345" lon="18.11672754962527"><ele>64.5</ele><time>2026-04-05T15:47:46.907Z</time></trkpt><trkpt lat="40.008097096997936" lon="18.11683583844685"><ele>65.0</ele><time>2026-04-05T15:47:47.907Z</time></trkpt><trkpt lat="40.00820465387368" lon="18.116941652560413"><ele>65.0</ele><time>2026-04-05T15:47:48.907Z</time></trkpt><trkpt lat="40.008315351590966" lon="18.117047969979673"><ele>65.0</ele><time>2026-04-05T15:47:49.907Z</time></trkpt><trkpt lat="40.00842968367238" lon="18.117156220914744"><ele>65.0</ele><time>2026-04-05T15:47:50.907Z</time></trkpt><trkpt lat="40.0085460659892" lon="18.11726848398604"><ele>65.0</ele><time>2026-04-05T15:47:51.907Z</time></trkpt><trkpt lat="40.00866373166698" lon="18.11738507048422"><ele>64.5</ele><time>2026-04-05T15:47:52.906Z</time></trkpt><trkpt lat="40.008780842735504" lon="18.117506090539287"><ele>64.0</ele><time>2026-04-05T15:47:53.906Z</time></trkpt><trkpt lat="40.00890080323122" lon="18.11762696629009"><ele>63.5</ele><time>2026-04-05T15:47:54.906Z</time></trkpt><trkpt lat="40.009019917466254" lon="18.1177408610021"><ele>63.0</ele><time>2026-04-05T15:47:55.906Z</time></trkpt><trkpt lat="40.00912435240373" lon="18.117856177339732"><ele>63.0</ele><time>2026-04-05T15:47:56.906Z</time></trkpt><trkpt lat="40.00922710285913" lon="18.117978821161795"><ele>63.0</ele><time>2026-04-05T15:47:57.906Z</time></trkpt><trkpt lat="40.00932408333132" lon="18.118102112863927"><ele>63.0</ele><time>2026-04-05T15:47:58.906Z</time></trkpt><trkpt lat="40.00941690515707" lon="18.118222500086162"><ele>63.0</ele><time>2026-04-05T15:47:59.906Z</time></trkpt><trkpt lat="40.00950992472553" lon="18.118343874244196"><ele>62.75</ele><time>2026-04-05T15:48:00.906Z</time></trkpt><trkpt lat="40.009602405105326" lon="18.11846211621034"><ele>62.5</ele><time>2026-04-05T15:48:01.906Z</time></trkpt><trkpt lat="40.00969068990921" lon="18.118580365183806"><ele>62.25</ele><time>2026-04-05T15:48:02.906Z</time></trkpt><trkpt lat="40.00977934691313" lon="18.11869190588778"><ele>62.0</ele><time>2026-04-05T15:48:03.906Z</time></trkpt><trkpt lat="40.00986122104215" lon="18.11879965388875"><ele>62.0</ele><time>2026-04-05T15:48:04.906Z</time></trkpt><trkpt lat="40.00994373118814" lon="18.118891976464155"><ele>62.0</ele><time>2026-04-05T15:48:05.906Z</time></trkpt><trkpt lat="40.01002625117545" lon="18.118978678890834"><ele>62.0</ele><time>2026-04-05T15:48:06.906Z</time></trkpt><trkpt lat="40.010105540568716" lon="18.119057303858877"><ele>62.0</ele><time>2026-04-05T15:48:07.906Z</time></trkpt><trkpt lat="40.01017544393462" lon="18.119129329187356"><ele>62.0</ele><time>2026-04-05T15:48:08.906Z</time></trkpt><trkpt lat="40.01023431391859" lon="18.11919135263284"><ele>62.400000000000006</ele><time>2026-04-05T15:48:09.906Z</time></trkpt><trkpt lat="40.01029491963837" lon="18.119254587319446"><ele>62.800000000000004</ele><time>2026-04-05T15:48:10.906Z</time></trkpt><trkpt lat="40.01036671410762" lon="18.119324109271002"><ele>63.2</ele><time>2026-04-05T15:48:11.906Z</time></trkpt><trkpt lat="40.0104536493567" lon="18.119398731013646"><ele>63.6</ele><time>2026-04-05T15:48:12.906Z</time></trkpt><trkpt lat="40.010552491642876" lon="18.119489610893783"><ele>64.0</ele><time>2026-04-05T15:48:13.906Z</time></trkpt><trkpt lat="40.01066681904512" lon="18.11959257950999"><ele>64.0</ele><time>2026-04-05T15:48:14.906Z</time></trkpt><trkpt lat="40.01079628213171" lon="18.119717147597015"><ele>64.0</ele><time>2026-04-05T15:48:15.906Z</time></trkpt><trkpt lat="40.01092865478504" lon="18.119853580856216"><ele>64.0</ele><time>2026-04-05T15:48:16.906Z</time></trkpt><trkpt lat="40.01105580883764" lon="18.119986752392883"><ele>63.5</ele><time>2026-04-05T15:48:17.906Z</time></trkpt><trkpt lat="40.011167635235545" lon="18.120109378353227"><ele>63.0</ele><time>2026-04-05T15:48:18.906Z</time></trkpt><trkpt lat="40.01126969248216" lon="18.12021573959926"><ele>62.5</ele><time>2026-04-05T15:48:19.906Z</time></trkpt><trkpt lat="40.011371520961625" lon="18.120314981478504"><ele>62.0</ele><time>2026-04-05T15:48:20.906Z</time></trkpt><trkpt lat="40.011464084960295" lon="18.12040597500764"><ele>62.0</ele><time>2026-04-05T15:48:21.906Z</time></trkpt><trkpt lat="40.011554368096654" lon="18.120492493925852"><ele>62.0</ele><time>2026-04-05T15:48:22.906Z</time></trkpt><trkpt lat="40.011641633596035" lon="18.12057995244075"><ele>62.0</ele><time>2026-04-05T15:48:23.906Z</time></trkpt><trkpt lat="40.01173004260772" lon="18.12066605051698"><ele>62.0</ele><time>2026-04-05T15:48:24.906Z</time></trkpt><trkpt lat="40.01181951626513" lon="18.120755821180087"><ele>62.0</ele><time>2026-04-05T15:48:25.906Z</time></trkpt><trkpt lat="40.01191618871795" lon="18.120850209095615"><ele>61.75</ele><time>2026-04-05T15:48:26.906Z</time></trkpt><trkpt lat="40.01202422384419" lon="18.120946691386923"><ele>61.5</ele><time>2026-04-05T15:48:27.906Z</time></trkpt><trkpt lat="40.01215140506363" lon="18.121033176689625"><ele>61.25</ele><time>2026-04-05T15:48:28.906Z</time></trkpt><trkpt lat="40.0123009975309" lon="18.121115661153393"><ele>61.0</ele><time>2026-04-05T15:48:29.906Z</time></trkpt><trkpt lat="40.01246478411444" lon="18.121192531994765"><ele>60.666666666666664</ele><time>2026-04-05T15:48:30.906Z</time></trkpt><trkpt lat="40.012635291386296" lon="18.121279643993198"><ele>60.33333333333333</ele><time>2026-04-05T15:48:31.906Z</time></trkpt><trkpt lat="40.01281345826961" lon="18.121378813422094"><ele>60.0</ele><time>2026-04-05T15:48:32.906Z</time></trkpt><trkpt lat="40.01299551724883" lon="18.12148478217797"><ele>60.0</ele><time>2026-04-05T15:48:33.906Z</time></trkpt><trkpt lat="40.01318180125087" lon="18.121585967646457"><ele>60.0</ele><time>2026-04-05T15:48:34.906Z</time></trkpt><trkpt lat="40.01336059577835" lon="18.121679898318302"><ele>60.0</ele><time>2026-04-05T15:48:35.906Z</time></trkpt><trkpt lat="40.01353165444399" lon="18.121746330877347"><ele>60.0</ele><time>2026-04-05T15:48:36.906Z</time></trkpt><trkpt lat="40.013698964583014" lon="18.121802813044802"><ele>60.0</ele><time>2026-04-05T15:48:37.906Z</time></trkpt><trkpt lat="40.01385333990247" lon="18.121871408628106"><ele>60.0</ele><time>2026-04-05T15:48:38.906Z</time></trkpt><trkpt lat="40.01398495194102" lon="18.12196743664554"><ele>60.0</ele><time>2026-04-05T15:48:39.906Z</time></trkpt><trkpt lat="40.014145369498685" lon="18.12203815858646"><ele>60.0</ele><time>2026-04-05T15:48:40.906Z</time></trkpt><trkpt lat="40.014297539097434" lon="18.122117425776743"><ele>60.0</ele><time>2026-04-05T15:48:41.906Z</time></trkpt><trkpt lat="40.01444003209424" lon="18.122197932785415"><ele>59.66666666666667</ele><time>2026-04-05T15:48:42.906Z</time></trkpt><trkpt lat="40.01457318807632" lon="18.122291794282916"><ele>59.333333333333336</ele><time>2026-04-05T15:48:43.906Z</time></trkpt><trkpt lat="40.01472021963964" lon="18.122385745985955"><ele>59.0</ele><time>2026-04-05T15:48:44.906Z</time></trkpt><trkpt lat="40.014859667061614" lon="18.1224808610134"><ele>58.5</ele><time>2026-04-05T15:48:45.906Z</time></trkpt><trkpt lat="40.014990869875064" lon="18.122565764279912"><ele>58.0</ele><time>2026-04-05T15:48:46.906Z</time></trkpt><trkpt lat="40.01511567438711" lon="18.122659564406256"><ele>57.5</ele><time>2026-04-05T15:48:47.906Z</time></trkpt><trkpt lat="40.01523086030376" lon="18.122761684979736"><ele>57.0</ele><time>2026-04-05T15:48:48.906Z</time></trkpt><trkpt lat="40.01534089137391" lon="18.122883335258205"><ele>57.0</ele><time>2026-04-05T15:48:49.906Z</time></trkpt><trkpt lat="40.01543858415568" lon="18.123007825692603"><ele>57.0</ele><time>2026-04-05T15:48:50.906Z</time></trkpt><trkpt lat="40.015529978730356" lon="18.1231382815412"><ele>57.0</ele><time>2026-04-05T15:48:51.906Z</time></trkpt><trkpt lat="40.01563697924533" lon="18.123281828522163"><ele>57.0</ele><time>2026-04-05T15:48:52.906Z</time></trkpt><trkpt lat="40.01576287999842" lon="18.123455835788334"><ele>57.0</ele><time>2026-04-05T15:48:53.906Z</time></trkpt><trkpt lat="40.01590123648068" lon="18.123656373875225"><ele>57.0</ele><time>2026-04-05T15:48:54.906Z</time></trkpt><trkpt lat="40.01604244914778" lon="18.123869017042637"><ele>57.0</ele><time>2026-04-05T15:48:55.906Z</time></trkpt><trkpt lat="40.01619847095055" lon="18.12407722668143"><ele>57.0</ele><time>2026-04-05T15:48:56.906Z</time></trkpt><trkpt lat="40.016367767552566" lon="18.124277825916497"><ele>57.0</ele><time>2026-04-05T15:48:57.906Z</time></trkpt><trkpt lat="40.016551862832536" lon="18.12447126913565"><ele>56.5</ele><time>2026-04-05T15:48:58.906Z</time></trkpt><trkpt lat="40.016726189032376" lon="18.1246884126166"><ele>56.0</ele><time>2026-04-05T15:48:59.906Z</time></trkpt><trkpt lat="40.01690120178822" lon="18.124898511122854"><ele>57.0</ele><time>2026-04-05T15:49:00.906Z</time></trkpt><trkpt lat="40.01707258601308" lon="18.125111132985833"><ele>58.0</ele><time>2026-04-05T15:49:01.906Z</time></trkpt><trkpt lat="40.01723900712589" lon="18.125324234152053"><ele>58.0</ele><time>2026-04-05T15:49:02.906Z</time></trkpt><trkpt lat="40.01740470840536" lon="18.12554674290091"><ele>58.0</ele><time>2026-04-05T15:49:03.906Z</time></trkpt><trkpt lat="40.01756057239565" lon="18.125759675046446"><ele>57.33333333333333</ele><time>2026-04-05T15:49:04.906Z</time></trkpt><trkpt lat="40.01772538689522" lon="18.125955192771244"><ele>56.66666666666667</ele><time>2026-04-05T15:49:05.906Z</time></trkpt><trkpt lat="40.01789592730548" lon="18.12611049799041"><ele>56.0</ele><time>2026-04-05T15:49:06.906Z</time></trkpt><trkpt lat="40.01806499610867" lon="18.1262951306944"><ele>56.0</ele><time>2026-04-05T15:49:07.905Z</time></trkpt><trkpt lat="40.01822482858403" lon="18.126500125529823"><ele>56.0</ele><time>2026-04-05T15:49:08.905Z</time></trkpt><trkpt lat="40.018374620657056" lon="18.126700322949517"><ele>56.0</ele><time>2026-04-05T15:49:09.906Z</time></trkpt><trkpt lat="40.01852311882956" lon="18.126887330305742"><ele>56.0</ele><time>2026-04-05T15:49:10.905Z</time></trkpt><trkpt lat="40.01867765942539" lon="18.127097737527954"><ele>56.0</ele><time>2026-04-05T15:49:11.905Z</time></trkpt><trkpt lat="40.01885057328212" lon="18.127286515237618"><ele>56.0</ele><time>2026-04-05T15:49:12.906Z</time></trkpt><trkpt lat="40.01902013683457" lon="18.127463318540805"><ele>56.333333333333336</ele><time>2026-04-05T15:49:13.905Z</time></trkpt><trkpt lat="40.01918861662832" lon="18.127588254845737"><ele>56.66666666666667</ele><time>2026-04-05T15:49:14.905Z</time></trkpt><trkpt lat="40.01937531156374" lon="18.127692444265534"><ele>57.0</ele><time>2026-04-05T15:49:15.905Z</time></trkpt><trkpt lat="40.019557481849645" lon="18.127810919329157"><ele>57.0</ele><time>2026-04-05T15:49:16.905Z</time></trkpt><trkpt lat="40.0197335050313" lon="18.127938779761553"><ele>57.0</ele><time>2026-04-05T15:49:17.905Z</time></trkpt><trkpt lat="40.019909568549885" lon="18.128034612151612"><ele>57.0</ele><time>2026-04-05T15:49:18.905Z</time></trkpt><trkpt lat="40.02010116388998" lon="18.128110289269706"><ele>56.66666666666667</ele><time>2026-04-05T15:49:19.906Z</time></trkpt><trkpt lat="40.02030234096166" lon="18.128188127558598"><ele>56.333333333333336</ele><time>2026-04-05T15:49:20.906Z</time></trkpt><trkpt lat="40.020502522906796" lon="18.12826261723034"><ele>56.0</ele><time>2026-04-05T15:49:21.906Z</time></trkpt><trkpt lat="40.02068882338446" lon="18.12835445933943"><ele>55.66666666666667</ele><time>2026-04-05T15:49:22.906Z</time></trkpt><trkpt lat="40.020885236186416" lon="18.128456989757023"><ele>55.33333333333333</ele><time>2026-04-05T15:49:23.906Z</time></trkpt><trkpt lat="40.021075936351984" lon="18.128589303413037"><ele>55.0</ele><time>2026-04-05T15:49:24.906Z</time></trkpt><trkpt lat="40.02126837795552" lon="18.128722375081704"><ele>55.0</ele><time>2026-04-05T15:49:25.906Z</time></trkpt><trkpt lat="40.02143448195978" lon="18.128912362568766"><ele>55.0</ele><time>2026-04-05T15:49:26.906Z</time></trkpt><trkpt lat="40.02158172306381" lon="18.129073406813603"><ele>55.0</ele><time>2026-04-05T15:49:27.906Z</time></trkpt><trkpt lat="40.02174691749268" lon="18.129255406735833"><ele>55.33333333333333</ele><time>2026-04-05T15:49:28.906Z</time></trkpt><trkpt lat="40.021891056656706" lon="18.129436768260355"><ele>55.66666666666667</ele><time>2026-04-05T15:49:29.906Z</time></trkpt><trkpt lat="40.02203220024863" lon="18.129582072892063"><ele>56.0</ele><time>2026-04-05T15:49:30.906Z</time></trkpt><trkpt lat="40.022176389235014" lon="18.12971631063537"><ele>56.0</ele><time>2026-04-05T15:49:31.906Z</time></trkpt><trkpt lat="40.0223147547469" lon="18.129792032652006"><ele>56.0</ele><time>2026-04-05T15:49:32.906Z</time></trkpt><trkpt lat="40.02244618312757" lon="18.129882740675686"><ele>56.0</ele><time>2026-04-05T15:49:33.906Z</time></trkpt><trkpt lat="40.022574349868414" lon="18.129963270657058"><ele>56.0</ele><time>2026-04-05T15:49:34.906Z</time></trkpt><trkpt lat="40.02290653024959" lon="18.130445009713753"><ele>56.0</ele><time>2026-04-05T15:49:35.906Z</time></trkpt><trkpt lat="40.023080263845245" lon="18.130586495143096"><ele>56.0</ele><time>2026-04-05T15:49:36.906Z</time></trkpt><trkpt lat="40.023254536433896" lon="18.130728907932642"><ele>56.0</ele><time>2026-04-05T15:49:37.905Z</time></trkpt><trkpt lat="40.02342658110643" lon="18.13086670417539"><ele>55.0</ele><time>2026-04-05T15:49:38.905Z</time></trkpt><trkpt lat="40.023581681852875" lon="18.130995642471593"><ele>54.0</ele><time>2026-04-05T15:49:39.905Z</time></trkpt><trkpt lat="40.023730099440535" lon="18.131115066139238"><ele>53.0</ele><time>2026-04-05T15:49:40.905Z</time></trkpt><trkpt lat="40.02387215779027" lon="18.131229008589145"><ele>53.0</ele><time>2026-04-05T15:49:41.905Z</time></trkpt><trkpt lat="40.02400667300643" lon="18.131336236500616"><ele>53.0</ele><time>2026-04-05T15:49:42.905Z</time></trkpt><trkpt lat="40.02413790966138" lon="18.131434797810325"><ele>53.0</ele><time>2026-04-05T15:49:43.905Z</time></trkpt><trkpt lat="40.02426327750903" lon="18.131530081181285"><ele>54.0</ele><time>2026-04-05T15:49:44.905Z</time></trkpt><trkpt lat="40.02439407444409" lon="18.131613812145275"><ele>55.0</ele><time>2026-04-05T15:49:45.905Z</time></trkpt><trkpt lat="40.024538261740155" lon="18.13167787615633"><ele>56.0</ele><time>2026-04-05T15:49:46.905Z</time></trkpt><trkpt lat="40.02468861158727" lon="18.13171948483312"><ele>56.0</ele><time>2026-04-05T15:49:47.905Z</time></trkpt><trkpt lat="40.02484995858253" lon="18.13173666221431"><ele>56.0</ele><time>2026-04-05T15:49:48.905Z</time></trkpt><trkpt lat="40.0250166865651" lon="18.131728412497697"><ele>56.0</ele><time>2026-04-05T15:49:49.905Z</time></trkpt><trkpt lat="40.02519378111598" lon="18.13170775038642"><ele>56.0</ele><time>2026-04-05T15:49:50.905Z</time></trkpt><trkpt lat="40.025373190613166" lon="18.131686625313428"><ele>56.0</ele><time>2026-04-05T15:49:51.905Z</time></trkpt><trkpt lat="40.025553613243666" lon="18.131666925251167"><ele>56.0</ele><time>2026-04-05T15:49:52.905Z</time></trkpt><trkpt lat="40.025734994673996" lon="18.131654402347202"><ele>56.0</ele><time>2026-04-05T15:49:53.905Z</time></trkpt><trkpt lat="40.0258996048221" lon="18.13164317270496"><ele>56.0</ele><time>2026-04-05T15:49:54.905Z</time></trkpt><trkpt lat="40.02605947253292" lon="18.131637812302007"><ele>56.0</ele><time>2026-04-05T15:49:55.905Z</time></trkpt><trkpt lat="40.026214845868545" lon="18.13163879731044"><ele>56.0</ele><time>2026-04-05T15:49:56.905Z</time></trkpt><trkpt lat="40.02636998053501" lon="18.13164864446898"><ele>56.0</ele><time>2026-04-05T15:49:57.905Z</time></trkpt><trkpt lat="40.02652583133873" lon="18.131661312569225"><ele>56.0</ele><time>2026-04-05T15:49:58.905Z</time></trkpt><trkpt lat="40.02668411114799" lon="18.1316791944285"><ele>56.333333333333336</ele><time>2026-04-05T15:49:59.905Z</time></trkpt><trkpt lat="40.02684414886218" lon="18.131697557782843"><ele>56.66666666666667</ele><time>2026-04-05T15:50:00.905Z</time></trkpt><trkpt lat="40.02700009867788" lon="18.131713260142046"><ele>57.0</ele><time>2026-04-05T15:50:01.905Z</time></trkpt><trkpt lat="40.0271469024737" lon="18.131727717192593"><ele>57.0</ele><time>2026-04-05T15:50:02.905Z</time></trkpt><trkpt lat="40.02728646004648" lon="18.131740659520993"><ele>57.0</ele><time>2026-04-05T15:50:03.905Z</time></trkpt><trkpt lat="40.027416101468006" lon="18.13175737701512"><ele>57.0</ele><time>2026-04-05T15:50:04.905Z</time></trkpt><trkpt lat="40.027539341775466" lon="18.13177407794422"><ele>57.0</ele><time>2026-04-05T15:50:05.905Z</time></trkpt><trkpt lat="40.027649598676625" lon="18.13178415594553"><ele>57.400000000000006</ele><time>2026-04-05T15:50:06.905Z</time></trkpt><trkpt lat="40.027753959179975" lon="18.131795302384365"><ele>57.800000000000004</ele><time>2026-04-05T15:50:07.905Z</time></trkpt><trkpt lat="40.027851439784364" lon="18.131807107875154"><ele>58.2</ele><time>2026-04-05T15:50:08.905Z</time></trkpt><trkpt lat="40.027930789841186" lon="18.131811827873694"><ele>58.6</ele><time>2026-04-05T15:50:09.905Z</time></trkpt><trkpt lat="40.02803545010041" lon="18.13182449666046"><ele>59.0</ele><time>2026-04-05T15:50:11.905Z</time></trkpt><trkpt lat="40.02815928359695" lon="18.13177340741556"><ele>59.0</ele><time>2026-04-05T15:50:13.905Z</time></trkpt><trkpt lat="40.02825033588646" lon="18.131722634141646"><ele>59.0</ele><time>2026-04-05T15:50:14.905Z</time></trkpt><trkpt lat="40.02835757187728" lon="18.131666106863076"><ele>59.0</ele><time>2026-04-05T15:50:15.905Z</time></trkpt><trkpt lat="40.028469421259516" lon="18.1316101434148"><ele>59.0</ele><time>2026-04-05T15:50:16.905Z</time></trkpt><trkpt lat="40.028587996476524" lon="18.13154891109907"><ele>59.0</ele><time>2026-04-05T15:50:17.905Z</time></trkpt><trkpt lat="40.0287094529769" lon="18.131488740796588"><ele>59.0</ele><time>2026-04-05T15:50:18.905Z</time></trkpt><trkpt lat="40.02884014538605" lon="18.131421497766176"><ele>59.0</ele><time>2026-04-05T15:50:19.905Z</time></trkpt><trkpt lat="40.02897288245659" lon="18.131355837028444"><ele>59.0</ele><time>2026-04-05T15:50:20.905Z</time></trkpt><trkpt lat="40.02910740201225" lon="18.131293291877228"><ele>59.0</ele><time>2026-04-05T15:50:21.905Z</time></trkpt><trkpt lat="40.02924719223162" lon="18.131228309936283"><ele>59.0</ele><time>2026-04-05T15:50:22.905Z</time></trkpt><trkpt lat="40.02938556704308" lon="18.131166200733382"><ele>59.0</ele><time>2026-04-05T15:50:23.905Z</time></trkpt><trkpt lat="40.02951888982587" lon="18.13109520932002"><ele>59.0</ele><time>2026-04-05T15:50:24.905Z</time></trkpt><trkpt lat="40.02964533910933" lon="18.131029663004544"><ele>59.0</ele><time>2026-04-05T15:50:25.905Z</time></trkpt><trkpt lat="40.02976899518637" lon="18.130971030157436"><ele>59.0</ele><time>2026-04-05T15:50:26.905Z</time></trkpt><trkpt lat="40.029884986630236" lon="18.130916567200828"><ele>59.0</ele><time>2026-04-05T15:50:27.905Z</time></trkpt><trkpt lat="40.029998047315395" lon="18.130863801340965"><ele>59.0</ele><time>2026-04-05T15:50:28.905Z</time></trkpt><trkpt lat="40.03010518199326" lon="18.130813128260407"><ele>59.0</ele><time>2026-04-05T15:50:29.905Z</time></trkpt><trkpt lat="40.030213615749936" lon="18.130762630664336"><ele>59.00000000000001</ele><time>2026-04-05T15:50:30.905Z</time></trkpt><trkpt lat="40.03030764715292" lon="18.130711854205234"><ele>59.00000000000001</ele><time>2026-04-05T15:50:31.905Z</time></trkpt><trkpt lat="40.030400295047805" lon="18.130661414376664"><ele>59.0</ele><time>2026-04-05T15:50:32.905Z</time></trkpt><trkpt lat="40.030492294069234" lon="18.13061344587725"><ele>59.0</ele><time>2026-04-05T15:50:33.905Z</time></trkpt><trkpt lat="40.03057577873507" lon="18.130569888229218"><ele>59.00000000000001</ele><time>2026-04-05T15:50:34.905Z</time></trkpt><trkpt lat="40.030658421080034" lon="18.13053265148725"><ele>59.0</ele><time>2026-04-05T15:50:35.905Z</time></trkpt><trkpt lat="40.03073999359291" lon="18.130494892495513"><ele>59.0</ele><time>2026-04-05T15:50:36.905Z</time></trkpt><trkpt lat="40.03081746878067" lon="18.130461946844914"><ele>59.0</ele><time>2026-04-05T15:50:37.905Z</time></trkpt><trkpt lat="40.03088487828475" lon="18.130429181020848"><ele>59.00000000000001</ele><time>2026-04-05T15:50:38.905Z</time></trkpt><trkpt lat="40.030957945456315" lon="18.13039468767233"><ele>59.0</ele><time>2026-04-05T15:50:39.905Z</time></trkpt><trkpt lat="40.03102895441698" lon="18.13035420970406"><ele>59.00000000000001</ele><time>2026-04-05T15:50:40.905Z</time></trkpt><trkpt lat="40.03110663015836" lon="18.130313564679387"><ele>59.0</ele><time>2026-04-05T15:50:41.905Z</time></trkpt><trkpt lat="40.031185727620915" lon="18.130273789949474"><ele>59.0</ele><time>2026-04-05T15:50:42.905Z</time></trkpt><trkpt lat="40.03125267714997" lon="18.130244532304655"><ele>59.0</ele><time>2026-04-05T15:50:43.905Z</time></trkpt><trkpt lat="40.03135270871539" lon="18.130197690539653"><ele>59.00000000000001</ele><time>2026-04-05T15:50:45.905Z</time></trkpt><trkpt lat="40.03142794605458" lon="18.130146019429063"><ele>59.0</ele><time>2026-04-05T15:50:47.905Z</time></trkpt><trkpt lat="40.03148321840949" lon="18.130034535855433"><ele>59.0</ele><time>2026-04-05T15:50:49.905Z</time></trkpt><trkpt lat="40.03144655569111" lon="18.129894095110092"><ele>59.0</ele><time>2026-04-05T15:50:51.905Z</time></trkpt><trkpt lat="40.031408047272514" lon="18.129786044522245"><ele>59.0</ele><time>2026-04-05T15:50:52.905Z</time></trkpt><trkpt lat="40.03134906480411" lon="18.129654831976026"><ele>59.0</ele><time>2026-04-05T15:50:53.905Z</time></trkpt><trkpt lat="40.031274548033785" lon="18.129474856758073"><ele>59.0</ele><time>2026-04-05T15:50:54.905Z</time></trkpt><trkpt lat="40.03119100546199" lon="18.12928852407987"><ele>59.00000000000001</ele><time>2026-04-05T15:50:55.905Z</time></trkpt><trkpt lat="40.03112967690395" lon="18.129184016184517"><ele>59.00000000000001</ele><time>2026-04-05T15:50:56.905Z</time></trkpt><trkpt lat="40.03109270384411" lon="18.12910982853757"><ele>59.0</ele><time>2026-04-05T15:50:58.905Z</time></trkpt><trkpt lat="40.03115659988242" lon="18.129033089958025"><ele>59.0</ele><time>2026-04-05T15:51:02.905Z</time></trkpt><trkpt lat="40.03119478610712" lon="18.12889757970748"><ele>58.75</ele><time>2026-04-05T15:51:04.905Z</time></trkpt><trkpt lat="40.03116386374559" lon="18.128791738776474"><ele>58.5</ele><time>2026-04-05T15:51:05.905Z</time></trkpt><trkpt lat="40.031103907107415" lon="18.128669197476086"><ele>58.25</ele><time>2026-04-05T15:51:06.905Z</time></trkpt><trkpt lat="40.03102722855606" lon="18.128512299580223"><ele>58.0</ele><time>2026-04-05T15:51:07.905Z</time></trkpt><trkpt lat="40.03095787187307" lon="18.128351507894557"><ele>58.0</ele><time>2026-04-05T15:51:08.905Z</time></trkpt><trkpt lat="40.030901388503835" lon="18.128212550236935"><ele>58.0</ele><time>2026-04-05T15:51:09.905Z</time></trkpt><trkpt lat="40.03087046547337" lon="18.128090510572164"><ele>58.0</ele><time>2026-04-05T15:51:10.905Z</time></trkpt><trkpt lat="40.03083810399786" lon="18.127991483840777"><ele>58.0</ele><time>2026-04-05T15:51:11.905Z</time></trkpt><trkpt lat="40.03080941796918" lon="18.127902270064386"><ele>58.0</ele><time>2026-04-05T15:51:12.905Z</time></trkpt><trkpt lat="40.0307827284085" lon="18.12781148584643"><ele>58.2</ele><time>2026-04-05T15:51:13.905Z</time></trkpt><trkpt lat="40.03074562310376" lon="18.127704420929092"><ele>58.4</ele><time>2026-04-05T15:51:14.905Z</time></trkpt><trkpt lat="40.03071328431905" lon="18.12758906407778"><ele>58.60000000000001</ele><time>2026-04-05T15:51:15.905Z</time></trkpt><trkpt lat="40.03068320766194" lon="18.127476438435483"><ele>58.800000000000004</ele><time>2026-04-05T15:51:16.904Z</time></trkpt><trkpt lat="40.0306558695039" lon="18.1273691829265"><ele>59.0</ele><time>2026-04-05T15:51:17.904Z</time></trkpt><trkpt lat="40.030630372944366" lon="18.127259119913834"><ele>59.00000000000001</ele><time>2026-04-05T15:51:18.904Z</time></trkpt><trkpt lat="40.030610147617" lon="18.127150634056715"><ele>59.0</ele><time>2026-04-05T15:51:19.905Z</time></trkpt><trkpt lat="40.03059108577483" lon="18.12705047630073"><ele>59.0</ele><time>2026-04-05T15:51:20.905Z</time></trkpt><trkpt lat="40.03057202244946" lon="18.126956868704713"><ele>59.0</ele><time>2026-04-05T15:51:21.905Z</time></trkpt><trkpt lat="40.03055135603722" lon="18.126865308627035"><ele>59.00000000000001</ele><time>2026-04-05T15:51:22.904Z</time></trkpt><trkpt lat="40.03054401449133" lon="18.126777759727734"><ele>59.0</ele><time>2026-04-05T15:51:23.904Z</time></trkpt><trkpt lat="40.03054979018614" lon="18.126651982645715"><ele>59.00000000000001</ele><time>2026-04-05T15:51:25.905Z</time></trkpt><trkpt lat="40.03049084682916" lon="18.126596367441476"><ele>59.0</ele><time>2026-04-05T15:54:34.903Z</time></trkpt><trkpt lat="40.03046383494355" lon="18.126675104549417"><ele>59.0</ele><time>2026-04-05T15:54:38.903Z</time></trkpt><trkpt lat="40.03049542898845" lon="18.126806595130567"><ele>59.0</ele><time>2026-04-05T15:54:40.903Z</time></trkpt><trkpt lat="40.030531523804456" lon="18.126944586323"><ele>59.00000000000001</ele><time>2026-04-05T15:54:41.903Z</time></trkpt><trkpt lat="40.03055575627916" lon="18.12705227382598"><ele>59.0</ele><time>2026-04-05T15:54:42.903Z</time></trkpt><trkpt lat="40.03058261375251" lon="18.12717289635455"><ele>59.0</ele><time>2026-04-05T15:54:43.903Z</time></trkpt><trkpt lat="40.03061479145156" lon="18.127300973459736"><ele>59.0</ele><time>2026-04-05T15:54:44.903Z</time></trkpt><trkpt lat="40.03065097154342" lon="18.12743924659146"><ele>59.0</ele><time>2026-04-05T15:54:45.903Z</time></trkpt><trkpt lat="40.030696631323615" lon="18.127593228893772"><ele>59.0</ele><time>2026-04-05T15:54:46.903Z</time></trkpt><trkpt lat="40.030742470264926" lon="18.127760839461608"><ele>59.0</ele><time>2026-04-05T15:54:47.903Z</time></trkpt><trkpt lat="40.03077809219874" lon="18.12795012990397"><ele>59.0</ele><time>2026-04-05T15:54:48.903Z</time></trkpt><trkpt lat="40.03081453349948" lon="18.128140156878803"><ele>59.0</ele><time>2026-04-05T15:54:49.903Z</time></trkpt><trkpt lat="40.03084663031437" lon="18.1283042293571"><ele>59.0</ele><time>2026-04-05T15:54:50.903Z</time></trkpt><trkpt lat="40.03086557182999" lon="18.12845103107241"><ele>58.800000000000004</ele><time>2026-04-05T15:54:51.903Z</time></trkpt><trkpt lat="40.03085604237754" lon="18.1285727752256"><ele>58.60000000000001</ele><time>2026-04-05T15:54:52.903Z</time></trkpt><trkpt lat="40.03083596342176" lon="18.128671866031016"><ele>58.4</ele><time>2026-04-05T15:54:53.903Z</time></trkpt><trkpt lat="40.03088579104647" lon="18.128807880176655"><ele>58.2</ele><time>2026-04-05T15:54:55.903Z</time></trkpt><trkpt lat="40.03093433107419" lon="18.128897614789583"><ele>58.0</ele><time>2026-04-05T15:54:56.903Z</time></trkpt><trkpt lat="40.030982637778166" lon="18.128993576454164"><ele>58.2</ele><time>2026-04-05T15:54:57.903Z</time></trkpt><trkpt lat="40.031030473362414" lon="18.12909321503884"><ele>58.4</ele><time>2026-04-05T15:54:58.903Z</time></trkpt><trkpt lat="40.03110257201906" lon="18.129182961548242"><ele>58.60000000000001</ele><time>2026-04-05T15:54:59.903Z</time></trkpt><trkpt lat="40.03119583426908" lon="18.12927748600902"><ele>58.800000000000004</ele><time>2026-04-05T15:55:00.903Z</time></trkpt><trkpt lat="40.0312811783521" lon="18.12941163963096"><ele>59.0</ele><time>2026-04-05T15:55:01.903Z</time></trkpt><trkpt lat="40.03136655621803" lon="18.129589461320947"><ele>59.0</ele><time>2026-04-05T15:55:02.903Z</time></trkpt><trkpt lat="40.03145476766026" lon="18.129783424133947"><ele>59.0</ele><time>2026-04-05T15:55:03.903Z</time></trkpt><trkpt lat="40.03153719905215" lon="18.129969753234043"><ele>59.0</ele><time>2026-04-05T15:55:04.903Z</time></trkpt><trkpt lat="40.03159503448438" lon="18.130099822558915"><ele>59.0</ele><time>2026-04-05T15:55:05.903Z</time></trkpt><trkpt lat="40.03164137470931" lon="18.130197961696545"><ele>59.0</ele><time>2026-04-05T15:55:06.903Z</time></trkpt><trkpt lat="40.03167150440055" lon="18.13027023466968"><ele>59.0</ele><time>2026-04-05T15:55:07.903Z</time></trkpt><trkpt lat="40.031710063170024" lon="18.130348960265092"><ele>59.0</ele><time>2026-04-05T15:55:09.903Z</time></trkpt><trkpt lat="40.031749401254935" lon="18.130420601083177"><ele>59.0</ele><time>2026-04-05T15:55:16.903Z</time></trkpt><trkpt lat="40.031785746402036" lon="18.13049609774235"><ele>59.0</ele><time>2026-04-05T15:55:20.903Z</time></trkpt><trkpt lat="40.03183346402999" lon="18.130592118150616"><ele>59.0</ele><time>2026-04-05T15:55:40.903Z</time></trkpt><trkpt lat="40.03191775230447" lon="18.13067432073363"><ele>59.0</ele><time>2026-04-05T15:55:42.903Z</time></trkpt><trkpt lat="40.031992171110154" lon="18.130671905120742"><ele>59.00000000000001</ele><time>2026-04-05T15:55:43.903Z</time></trkpt><trkpt lat="40.03207938824945" lon="18.130647791040126"><ele>59.00000000000001</ele><time>2026-04-05T15:55:44.903Z</time></trkpt><trkpt lat="40.03217823333128" lon="18.130597676629435"><ele>59.0</ele><time>2026-04-05T15:55:45.903Z</time></trkpt><trkpt lat="40.03228522191759" lon="18.13052723624512"><ele>59.0</ele><time>2026-04-05T15:55:46.903Z</time></trkpt><trkpt lat="40.03241275514842" lon="18.130453922469744"><ele>59.25</ele><time>2026-04-05T15:55:47.903Z</time></trkpt><trkpt lat="40.032564528981325" lon="18.130395498568546"><ele>59.5</ele><time>2026-04-05T15:55:48.903Z</time></trkpt><trkpt lat="40.032711672367746" lon="18.130351770089582"><ele>59.75</ele><time>2026-04-05T15:55:49.903Z</time></trkpt><trkpt lat="40.03284438658377" lon="18.130320009975755"><ele>60.0</ele><time>2026-04-05T15:55:50.903Z</time></trkpt><trkpt lat="40.03296234783043" lon="18.13029753793393"><ele>60.0</ele><time>2026-04-05T15:55:51.903Z</time></trkpt><trkpt lat="40.03308524466933" lon="18.13028446080904"><ele>60.0</ele><time>2026-04-05T15:55:52.903Z</time></trkpt><trkpt lat="40.03320683751327" lon="18.130275626556994"><ele>60.0</ele><time>2026-04-05T15:55:53.903Z</time></trkpt><trkpt lat="40.033323792961546" lon="18.130265859726276"><ele>60.0</ele><time>2026-04-05T15:55:54.903Z</time></trkpt><trkpt lat="40.03344696350137" lon="18.13027097013974"><ele>60.25</ele><time>2026-04-05T15:55:55.903Z</time></trkpt><trkpt lat="40.03356454157202" lon="18.130295502954088"><ele>60.5</ele><time>2026-04-05T15:55:56.903Z</time></trkpt><trkpt lat="40.03368481958657" lon="18.130318728938004"><ele>60.75</ele><time>2026-04-05T15:55:57.903Z</time></trkpt><trkpt lat="40.03380677202182" lon="18.13035238932719"><ele>61.0</ele><time>2026-04-05T15:55:58.903Z</time></trkpt><trkpt lat="40.03393228513284" lon="18.130386387644933"><ele>61.0</ele><time>2026-04-05T15:55:59.903Z</time></trkpt><trkpt lat="40.03406075466766" lon="18.130423718071025"><ele>61.0</ele><time>2026-04-05T15:56:00.903Z</time></trkpt><trkpt lat="40.03418404353355" lon="18.130454063519057"><ele>61.0</ele><time>2026-04-05T15:56:01.903Z</time></trkpt><trkpt lat="40.03431531541448" lon="18.13047362251882"><ele>61.0</ele><time>2026-04-05T15:56:02.903Z</time></trkpt><trkpt lat="40.03445123778306" lon="18.130489372421593"><ele>61.4</ele><time>2026-04-05T15:56:03.903Z</time></trkpt><trkpt lat="40.03456950378599" lon="18.130521416484374"><ele>61.8</ele><time>2026-04-05T15:56:04.903Z</time></trkpt><trkpt lat="40.03467348193745" lon="18.130552311138985"><ele>62.199999999999996</ele><time>2026-04-05T15:56:05.903Z</time></trkpt><trkpt lat="40.034750702768726" lon="18.1305817224424"><ele>62.599999999999994</ele><time>2026-04-05T15:56:06.903Z</time></trkpt><trkpt lat="40.03485380807105" lon="18.130590876722046"><ele>63.0</ele><time>2026-04-05T15:56:08.903Z</time></trkpt><trkpt lat="40.03494730035273" lon="18.13060722800239"><ele>63.166666666666664</ele><time>2026-04-05T15:56:10.903Z</time></trkpt><trkpt lat="40.03506225463017" lon="18.13061925441608"><ele>63.33333333333333</ele><time>2026-04-05T15:56:12.903Z</time></trkpt><trkpt lat="40.03513436020524" lon="18.13063350259088"><ele>63.5</ele><time>2026-04-05T15:56:13.903Z</time></trkpt><trkpt lat="40.035212812084325" lon="18.130653155052713"><ele>63.666666666666664</ele><time>2026-04-05T15:56:14.903Z</time></trkpt><trkpt lat="40.03528632547448" lon="18.130669491215023"><ele>63.83333333333333</ele><time>2026-04-05T15:56:15.903Z</time></trkpt><trkpt lat="40.035362351351445" lon="18.13068391856001"><ele>64.0</ele><time>2026-04-05T15:56:16.903Z</time></trkpt><trkpt lat="40.0354405399676" lon="18.130700472440296"><ele>64.0</ele><time>2026-04-05T15:56:17.903Z</time></trkpt><trkpt lat="40.03551758141133" lon="18.130718625896098"><ele>63.99999999999999</ele><time>2026-04-05T15:56:18.903Z</time></trkpt><trkpt lat="40.035588390533114" lon="18.130733625479017"><ele>64.0</ele><time>2026-04-05T15:56:19.903Z</time></trkpt><trkpt lat="40.03565754041444" lon="18.130747635172877"><ele>64.0</ele><time>2026-04-05T15:56:20.903Z</time></trkpt><trkpt lat="40.035728579431776" lon="18.130762010842854"><ele>63.99999999999999</ele><time>2026-04-05T15:56:21.903Z</time></trkpt><trkpt lat="40.03579590795405" lon="18.130777551271496"><ele>64.0</ele><time>2026-04-05T15:56:22.903Z</time></trkpt><trkpt lat="40.03585851619623" lon="18.130800353191376"><ele>64.0</ele><time>2026-04-05T15:56:23.903Z</time></trkpt><trkpt lat="40.03591897100074" lon="18.130830831402314"><ele>64.2</ele><time>2026-04-05T15:56:24.903Z</time></trkpt><trkpt lat="40.035979172174144" lon="18.130855605957798"><ele>64.4</ele><time>2026-04-05T15:56:25.903Z</time></trkpt><trkpt lat="40.03604491454068" lon="18.130847989399765"><ele>64.6</ele><time>2026-04-05T15:56:26.903Z</time></trkpt><trkpt lat="40.03612272132254" lon="18.130793914758275"><ele>64.8</ele><time>2026-04-05T15:56:27.903Z</time></trkpt><trkpt lat="40.03621700257411" lon="18.130719961334144"><ele>65.0</ele><time>2026-04-05T15:56:28.903Z</time></trkpt><trkpt lat="40.03632836656366" lon="18.130629593033934"><ele>65.0</ele><time>2026-04-05T15:56:29.903Z</time></trkpt><trkpt lat="40.03644387499437" lon="18.130547475076817"><ele>65.0</ele><time>2026-04-05T15:56:30.903Z</time></trkpt><trkpt lat="40.03654615504055" lon="18.13047219166361"><ele>65.0</ele><time>2026-04-05T15:56:31.903Z</time></trkpt><trkpt lat="40.03664658729783" lon="18.130402259158714"><ele>65.0</ele><time>2026-04-05T15:56:32.903Z</time></trkpt><trkpt lat="40.03674033106588" lon="18.130337551099423"><ele>65.2</ele><time>2026-04-05T15:56:33.903Z</time></trkpt><trkpt lat="40.03683393750499" lon="18.130279214097314"><ele>65.4</ele><time>2026-04-05T15:56:34.903Z</time></trkpt><trkpt lat="40.03692528377482" lon="18.130219587788098"><ele>65.6</ele><time>2026-04-05T15:56:35.903Z</time></trkpt><trkpt lat="40.03701016007715" lon="18.13016323769835"><ele>65.8</ele><time>2026-04-05T15:56:36.903Z</time></trkpt><trkpt lat="40.03709881156303" lon="18.13010923328941"><ele>66.0</ele><time>2026-04-05T15:56:37.903Z</time></trkpt><trkpt lat="40.037179728843775" lon="18.130057866481167"><ele>66.0</ele><time>2026-04-05T15:56:38.903Z</time></trkpt><trkpt lat="40.037257178814905" lon="18.13000698852198"><ele>66.0</ele><time>2026-04-05T15:56:39.903Z</time></trkpt><trkpt lat="40.037329876866686" lon="18.12996087103868"><ele>66.0</ele><time>2026-04-05T15:56:40.903Z</time></trkpt><trkpt lat="40.03740082091344" lon="18.129918699323373"><ele>66.0</ele><time>2026-04-05T15:56:41.903Z</time></trkpt><trkpt lat="40.03747105005905" lon="18.129873160920337"><ele>66.0</ele><time>2026-04-05T15:56:42.903Z</time></trkpt><trkpt lat="40.03754645553088" lon="18.129814959550746"><ele>66.0</ele><time>2026-04-05T15:56:43.903Z</time></trkpt><trkpt lat="40.03763554143653" lon="18.129756868243984"><ele>65.8</ele><time>2026-04-05T15:56:44.903Z</time></trkpt><trkpt lat="40.037724032747725" lon="18.129695871957225"><ele>65.6</ele><time>2026-04-05T15:56:45.903Z</time></trkpt><trkpt lat="40.03781631160805" lon="18.12962648237596"><ele>65.4</ele><time>2026-04-05T15:56:46.903Z</time></trkpt><trkpt lat="40.03792256133022" lon="18.129556995320986"><ele>65.2</ele><time>2026-04-05T15:56:47.903Z</time></trkpt><trkpt lat="40.03801855594784" lon="18.12948828162824"><ele>65.0</ele><time>2026-04-05T15:56:48.903Z</time></trkpt><trkpt lat="40.03811375952199" lon="18.129436364147615"><ele>65.0</ele><time>2026-04-05T15:56:49.903Z</time></trkpt><trkpt lat="40.038198335012" lon="18.129386458746424"><ele>65.0</ele><time>2026-04-05T15:56:50.903Z</time></trkpt><trkpt lat="40.038280878103826" lon="18.129342348017058"><ele>65.0</ele><time>2026-04-05T15:56:51.903Z</time></trkpt><trkpt lat="40.03835645840799" lon="18.12929676514864"><ele>65.0</ele><time>2026-04-05T15:56:52.903Z</time></trkpt><trkpt lat="40.03844124518904" lon="18.129253445691262"><ele>65.0</ele><time>2026-04-05T15:56:53.903Z</time></trkpt><trkpt lat="40.03853185531247" lon="18.129210061906278"><ele>64.6</ele><time>2026-04-05T15:56:54.903Z</time></trkpt><trkpt lat="40.03862647629059" lon="18.129162100298064"><ele>64.2</ele><time>2026-04-05T15:56:55.903Z</time></trkpt><trkpt lat="40.038722488443405" lon="18.129116833727785"><ele>63.8</ele><time>2026-04-05T15:56:56.903Z</time></trkpt><trkpt lat="40.03881180843155" lon="18.129078345610047"><ele>63.4</ele><time>2026-04-05T15:56:57.903Z</time></trkpt><trkpt lat="40.038892969778566" lon="18.12904324543376"><ele>63.0</ele><time>2026-04-05T15:56:58.903Z</time></trkpt><trkpt lat="40.03897424400106" lon="18.129009296301323"><ele>63.0</ele><time>2026-04-05T15:56:59.903Z</time></trkpt><trkpt lat="40.039049354718856" lon="18.12897461603545"><ele>63.0</ele><time>2026-04-05T15:57:00.903Z</time></trkpt><trkpt lat="40.03912585101838" lon="18.128936990881968"><ele>63.0</ele><time>2026-04-05T15:57:01.903Z</time></trkpt><trkpt lat="40.03921394843323" lon="18.12889784719357"><ele>63.0</ele><time>2026-04-05T15:57:02.903Z</time></trkpt><trkpt lat="40.039306937563374" lon="18.128853802310918"><ele>63.0</ele><time>2026-04-05T15:57:03.903Z</time></trkpt><trkpt lat="40.03940569135895" lon="18.128803888106496"><ele>63.25</ele><time>2026-04-05T15:57:04.903Z</time></trkpt><trkpt lat="40.03951276673362" lon="18.12875377680953"><ele>63.5</ele><time>2026-04-05T15:57:05.903Z</time></trkpt><trkpt lat="40.039623517869124" lon="18.128706197285506"><ele>63.75</ele><time>2026-04-05T15:57:06.903Z</time></trkpt><trkpt lat="40.03974020343927" lon="18.128648133247236"><ele>64.0</ele><time>2026-04-05T15:57:07.903Z</time></trkpt><trkpt lat="40.039866189582554" lon="18.128578163091937"><ele>65.33333333333333</ele><time>2026-04-05T15:57:08.903Z</time></trkpt><trkpt lat="40.039988570085335" lon="18.12849276040583"><ele>66.66666666666667</ele><time>2026-04-05T15:57:09.903Z</time></trkpt><trkpt lat="40.040122757292174" lon="18.12839930897253"><ele>68.0</ele><time>2026-04-05T15:57:10.903Z</time></trkpt><trkpt lat="40.04026511486744" lon="18.12828755151571"><ele>67.25</ele><time>2026-04-05T15:57:11.903Z</time></trkpt><trkpt lat="40.04039482461345" lon="18.128164787261397"><ele>66.5</ele><time>2026-04-05T15:57:12.903Z</time></trkpt><trkpt lat="40.04048992509809" lon="18.128043851442325"><ele>65.75</ele><time>2026-04-05T15:57:13.903Z</time></trkpt><trkpt lat="40.040578585212444" lon="18.12797131250635"><ele>65.0</ele><time>2026-04-05T15:57:14.903Z</time></trkpt><trkpt lat="40.04066793880107" lon="18.12792899785423"><ele>65.0</ele><time>2026-04-05T15:57:15.903Z</time></trkpt><trkpt lat="40.04076042921217" lon="18.12792523340784"><ele>65.0</ele><time>2026-04-05T15:57:16.903Z</time></trkpt><trkpt lat="40.040848205167684" lon="18.127919016672095"><ele>65.0</ele><time>2026-04-05T15:57:17.903Z</time></trkpt><trkpt lat="40.040928835889424" lon="18.127926477464957"><ele>65.0</ele><time>2026-04-05T15:57:18.903Z</time></trkpt><trkpt lat="40.04099452730478" lon="18.12796237972641"><ele>65.0</ele><time>2026-04-05T15:57:19.903Z</time></trkpt><trkpt lat="40.04105119994006" lon="18.128021956036328"><ele>65.0</ele><time>2026-04-05T15:57:20.903Z</time></trkpt><trkpt lat="40.041087996738696" lon="18.128103088790482"><ele>65.6</ele><time>2026-04-05T15:57:21.903Z</time></trkpt><trkpt lat="40.041138758648934" lon="18.128197492273497"><ele>66.2</ele><time>2026-04-05T15:57:23.903Z</time></trkpt><trkpt lat="40.04124682266358" lon="18.128213770372227"><ele>66.8</ele><time>2026-04-05T15:57:26.903Z</time></trkpt><trkpt lat="40.041322364978264" lon="18.128162693188603"><ele>67.4</ele><time>2026-04-05T15:57:27.903Z</time></trkpt><trkpt lat="40.041391280151714" lon="18.128109897092536"><ele>68.0</ele><time>2026-04-05T15:57:28.903Z</time></trkpt><trkpt lat="40.04148522442542" lon="18.128047055217912"><ele>68.0</ele><time>2026-04-05T15:57:29.902Z</time></trkpt><trkpt lat="40.04159756006623" lon="18.12798052991492"><ele>68.0</ele><time>2026-04-05T15:57:30.903Z</time></trkpt><trkpt lat="40.04172111353579" lon="18.12791123959029"><ele>68.0</ele><time>2026-04-05T15:57:31.903Z</time></trkpt><trkpt lat="40.04184455759064" lon="18.12783400638458"><ele>68.0</ele><time>2026-04-05T15:57:32.903Z</time></trkpt><trkpt lat="40.04198011082902" lon="18.127760308016864"><ele>69.33333333333334</ele><time>2026-04-05T15:57:33.902Z</time></trkpt><trkpt lat="40.042131945187386" lon="18.127682059147048"><ele>70.66666666666667</ele><time>2026-04-05T15:57:34.902Z</time></trkpt><trkpt lat="40.04230013812175" lon="18.127617871152626"><ele>72.0</ele><time>2026-04-05T15:57:35.902Z</time></trkpt><trkpt lat="40.0424785748546" lon="18.1275727736929"><ele>72.0</ele><time>2026-04-05T15:57:36.903Z</time></trkpt><trkpt lat="40.04262495132045" lon="18.12750493418789"><ele>72.0</ele><time>2026-04-05T15:57:37.903Z</time></trkpt><trkpt lat="40.042787421738716" lon="18.12745279803787"><ele>72.0</ele><time>2026-04-05T15:57:38.902Z</time></trkpt><trkpt lat="40.042920704627164" lon="18.127375320257944"><ele>71.33333333333333</ele><time>2026-04-05T15:57:39.902Z</time></trkpt><trkpt lat="40.04308297779896" lon="18.12732977858348"><ele>70.66666666666666</ele><time>2026-04-05T15:57:40.902Z</time></trkpt><trkpt lat="40.04323620190744" lon="18.127283246787705"><ele>70.0</ele><time>2026-04-05T15:57:41.902Z</time></trkpt><trkpt lat="40.04338632960063" lon="18.127229968973154"><ele>71.0</ele><time>2026-04-05T15:57:42.902Z</time></trkpt><trkpt lat="40.04352932835338" lon="18.127182421929206"><ele>72.0</ele><time>2026-04-05T15:57:43.902Z</time></trkpt><trkpt lat="40.04364035431001" lon="18.127102807679933"><ele>73.0</ele><time>2026-04-05T15:57:44.902Z</time></trkpt><trkpt lat="40.043724677418446" lon="18.12699350096508"><ele>74.0</ele><time>2026-04-05T15:57:45.902Z</time></trkpt><trkpt lat="40.04382536014893" lon="18.12691382482217"><ele>74.0</ele><time>2026-04-05T15:57:46.902Z</time></trkpt><trkpt lat="40.04392226536265" lon="18.12683143203109"><ele>74.0</ele><time>2026-04-05T15:57:47.902Z</time></trkpt><trkpt lat="40.044005237199066" lon="18.126745403722037"><ele>74.0</ele><time>2026-04-05T15:57:48.902Z</time></trkpt><trkpt lat="40.04411432106201" lon="18.126681949514808"><ele>74.0</ele><time>2026-04-05T15:57:49.902Z</time></trkpt><trkpt lat="40.04415145743047" lon="18.126573056276914"><ele>74.0</ele><time>2026-04-05T15:57:50.902Z</time></trkpt><trkpt lat="40.04421387060346" lon="18.12645777627466"><ele>73.2</ele><time>2026-04-05T15:57:51.902Z</time></trkpt><trkpt lat="40.04428844736986" lon="18.126358967804514"><ele>72.4</ele><time>2026-04-05T15:57:52.902Z</time></trkpt><trkpt lat="40.04435561091672" lon="18.126251531592853"><ele>71.6</ele><time>2026-04-05T15:57:53.902Z</time></trkpt><trkpt lat="40.044432143132525" lon="18.126176113680085"><ele>70.8</ele><time>2026-04-05T15:57:54.902Z</time></trkpt><trkpt lat="40.04450621143156" lon="18.126115496191524"><ele>70.0</ele><time>2026-04-05T15:57:55.902Z</time></trkpt><trkpt lat="40.044585190126" lon="18.126043352280977"><ele>70.0</ele><time>2026-04-05T15:57:56.902Z</time></trkpt><trkpt lat="40.044673507122546" lon="18.125965553679166"><ele>70.0</ele><time>2026-04-05T15:57:57.902Z</time></trkpt><trkpt lat="40.04476155601822" lon="18.125884163779954"><ele>70.0</ele><time>2026-04-05T15:57:58.902Z</time></trkpt><trkpt lat="40.044854015065226" lon="18.125806312394072"><ele>70.0</ele><time>2026-04-05T15:57:59.902Z</time></trkpt><trkpt lat="40.04493882078888" lon="18.125735440983366"><ele>70.0</ele><time>2026-04-05T15:58:00.902Z</time></trkpt><trkpt lat="40.045025703516146" lon="18.12566216392031"><ele>70.2</ele><time>2026-04-05T15:58:01.902Z</time></trkpt><trkpt lat="40.04511266237857" lon="18.125590481462435"><ele>70.4</ele><time>2026-04-05T15:58:02.902Z</time></trkpt><trkpt lat="40.045201271802284" lon="18.125520651113565"><ele>70.6</ele><time>2026-04-05T15:58:03.902Z</time></trkpt><trkpt lat="40.04529146892338" lon="18.12544448234434"><ele>70.8</ele><time>2026-04-05T15:58:04.902Z</time></trkpt><trkpt lat="40.045392219957996" lon="18.125368789517733"><ele>71.0</ele><time>2026-04-05T15:58:05.902Z</time></trkpt><trkpt lat="40.04549459790757" lon="18.125296618270294"><ele>71.0</ele><time>2026-04-05T15:58:06.902Z</time></trkpt><trkpt lat="40.04559413461306" lon="18.125224570130936"><ele>71.0</ele><time>2026-04-05T15:58:07.902Z</time></trkpt><trkpt lat="40.0456968663217" lon="18.125154057256367"><ele>71.0</ele><time>2026-04-05T15:58:08.902Z</time></trkpt><trkpt lat="40.045806201735054" lon="18.125086579239916"><ele>71.0</ele><time>2026-04-05T15:58:09.902Z</time></trkpt><trkpt lat="40.04591256026685" lon="18.125010802913707"><ele>71.5</ele><time>2026-04-05T15:58:10.902Z</time></trkpt><trkpt lat="40.04601781767708" lon="18.124944776354344"><ele>72.0</ele><time>2026-04-05T15:58:11.902Z</time></trkpt><trkpt lat="40.046131494953116" lon="18.12487659379678"><ele>72.5</ele><time>2026-04-05T15:58:12.902Z</time></trkpt><trkpt lat="40.04623411869205" lon="18.124804775042854"><ele>73.0</ele><time>2026-04-05T15:58:13.902Z</time></trkpt><trkpt lat="40.04633392555317" lon="18.124736185987764"><ele>73.25</ele><time>2026-04-05T15:58:14.902Z</time></trkpt><trkpt lat="40.04643502459281" lon="18.12466705971901"><ele>73.5</ele><time>2026-04-05T15:58:15.902Z</time></trkpt><trkpt lat="40.046535733720624" lon="18.124601396380765"><ele>73.75</ele><time>2026-04-05T15:58:16.902Z</time></trkpt><trkpt lat="40.046638088602606" lon="18.124535508471848"><ele>74.0</ele><time>2026-04-05T15:58:17.902Z</time></trkpt><trkpt lat="40.04673627439275" lon="18.124466742094544"><ele>73.4</ele><time>2026-04-05T15:58:18.902Z</time></trkpt><trkpt lat="40.04683324354041" lon="18.124400589986315"><ele>72.80000000000001</ele><time>2026-04-05T15:58:19.902Z</time></trkpt><trkpt lat="40.046928854465655" lon="18.124333224980525"><ele>72.19999999999999</ele><time>2026-04-05T15:58:20.902Z</time></trkpt><trkpt lat="40.04702220824568" lon="18.12427056541473"><ele>71.6</ele><time>2026-04-05T15:58:21.902Z</time></trkpt><trkpt lat="40.04710616485444" lon="18.124208642949146"><ele>71.0</ele><time>2026-04-05T15:58:22.902Z</time></trkpt><trkpt lat="40.047188988279316" lon="18.124147629392635"><ele>71.0</ele><time>2026-04-05T15:58:23.902Z</time></trkpt><trkpt lat="40.04726763962084" lon="18.12409354301759"><ele>71.0</ele><time>2026-04-05T15:58:24.902Z</time></trkpt><trkpt lat="40.047334827421096" lon="18.124038009189935"><ele>71.0</ele><time>2026-04-05T15:58:25.902Z</time></trkpt><trkpt lat="40.04739175650094" lon="18.123997036554446"><ele>71.0</ele><time>2026-04-05T15:58:26.902Z</time></trkpt><trkpt lat="40.04746828683811" lon="18.12392635152567"><ele>71.0</ele><time>2026-04-05T15:58:28.902Z</time></trkpt><trkpt lat="40.047464255035955" lon="18.123821230791428"><ele>71.0</ele><time>2026-04-05T15:58:30.902Z</time></trkpt><trkpt lat="40.04742612828757" lon="18.123753676342638"><ele>71.25</ele><time>2026-04-05T15:58:31.902Z</time></trkpt><trkpt lat="40.04737240131853" lon="18.12367428161678"><ele>71.5</ele><time>2026-04-05T15:58:32.902Z</time></trkpt><trkpt lat="40.04730156954279" lon="18.123568104006424"><ele>71.75</ele><time>2026-04-05T15:58:33.902Z</time></trkpt><trkpt lat="40.0472388739525" lon="18.1234189355201"><ele>72.0</ele><time>2026-04-05T15:58:34.902Z</time></trkpt><trkpt lat="40.04717188711158" lon="18.123260182947764"><ele>71.4</ele><time>2026-04-05T15:58:35.902Z</time></trkpt><trkpt lat="40.04711595251191" lon="18.12311675755788"><ele>70.80000000000001</ele><time>2026-04-05T15:58:36.902Z</time></trkpt><trkpt lat="40.047066114377586" lon="18.122995675725765"><ele>70.2</ele><time>2026-04-05T15:58:37.901Z</time></trkpt><trkpt lat="40.047031008392665" lon="18.12287485106667"><ele>69.60000000000001</ele><time>2026-04-05T15:58:38.901Z</time></trkpt><trkpt lat="40.047011813641326" lon="18.122756762986505"><ele>69.0</ele><time>2026-04-05T15:58:39.901Z</time></trkpt><trkpt lat="40.047006381700186" lon="18.122633039848846"><ele>69.0</ele><time>2026-04-05T15:58:40.901Z</time></trkpt><trkpt lat="40.04700528077753" lon="18.12251195296435"><ele>69.0</ele><time>2026-04-05T15:58:41.901Z</time></trkpt><trkpt lat="40.04701601075532" lon="18.122396783881946"><ele>69.0</ele><time>2026-04-05T15:58:42.901Z</time></trkpt><trkpt lat="40.04702551616833" lon="18.12231254556084"><ele>69.0</ele><time>2026-04-05T15:58:43.901Z</time></trkpt><trkpt lat="40.04707682433604" lon="18.12223563082013"><ele>69.0</ele><time>2026-04-05T15:58:44.901Z</time></trkpt><trkpt lat="40.04713940647354" lon="18.122185033894752"><ele>69.0</ele><time>2026-04-05T15:58:45.901Z</time></trkpt><trkpt lat="40.047227381964724" lon="18.122148789179207"><ele>68.0</ele><time>2026-04-05T15:58:46.901Z</time></trkpt><trkpt lat="40.047321873833106" lon="18.12212657625311"><ele>67.0</ele><time>2026-04-05T15:58:47.901Z</time></trkpt><trkpt lat="40.047447606918254" lon="18.122122116255802"><ele>66.0</ele><time>2026-04-05T15:58:48.901Z</time></trkpt><trkpt lat="40.047572425248184" lon="18.122100730720692"><ele>65.0</ele><time>2026-04-05T15:58:49.901Z</time></trkpt><trkpt lat="40.04769365929871" lon="18.12206558242043"><ele>65.0</ele><time>2026-04-05T15:58:50.901Z</time></trkpt><trkpt lat="40.047822896404305" lon="18.122019154274444"><ele>65.0</ele><time>2026-04-05T15:58:51.901Z</time></trkpt><trkpt lat="40.047962029158015" lon="18.121970210156984"><ele>65.0</ele><time>2026-04-05T15:58:52.901Z</time></trkpt><trkpt lat="40.04810380979514" lon="18.12192482823459"><ele>65.0</ele><time>2026-04-05T15:58:53.901Z</time></trkpt><trkpt lat="40.04824857328633" lon="18.12187122874721"><ele>65.25</ele><time>2026-04-05T15:58:54.901Z</time></trkpt><trkpt lat="40.0483867390014" lon="18.121813343451894"><ele>65.5</ele><time>2026-04-05T15:58:55.901Z</time></trkpt><trkpt lat="40.04850600738458" lon="18.121765746995678"><ele>65.75</ele><time>2026-04-05T15:58:56.901Z</time></trkpt><trkpt lat="40.04861284908579" lon="18.121727126029576"><ele>66.0</ele><time>2026-04-05T15:58:57.901Z</time></trkpt><trkpt lat="40.048700479735764" lon="18.12169546152355"><ele>66.0</ele><time>2026-04-05T15:58:58.901Z</time></trkpt><trkpt lat="40.04876610533754" lon="18.121668044751125"><ele>66.0</ele><time>2026-04-05T15:58:59.901Z</time></trkpt><trkpt lat="40.04885565624158" lon="18.12163975666336"><ele>66.0</ele><time>2026-04-05T15:59:01.901Z</time></trkpt><trkpt lat="40.04892235186733" lon="18.12167981132149"><ele>66.0</ele><time>2026-04-05T15:59:03.901Z</time></trkpt><trkpt lat="40.04895245968112" lon="18.121798673678313"><ele>66.0</ele><time>2026-04-05T15:59:05.901Z</time></trkpt><trkpt lat="40.04892282504761" lon="18.1219531585932"><ele>66.0</ele><time>2026-04-05T15:59:07.901Z</time></trkpt><trkpt lat="40.04890189820653" lon="18.122114708929676"><ele>66.0</ele><time>2026-04-05T15:59:09.901Z</time></trkpt><trkpt lat="40.04889273563583" lon="18.12221394948498"><ele>66.0</ele><time>2026-04-05T15:59:10.901Z</time></trkpt><trkpt lat="40.048880347116594" lon="18.122316294734677"><ele>66.0</ele><time>2026-04-05T15:59:11.901Z</time></trkpt><trkpt lat="40.04886626502407" lon="18.122418521992525"><ele>66.0</ele><time>2026-04-05T15:59:12.901Z</time></trkpt><trkpt lat="40.048850487586435" lon="18.1225197817677"><ele>66.0</ele><time>2026-04-05T15:59:13.901Z</time></trkpt><trkpt lat="40.04883623580655" lon="18.122614347860814"><ele>66.0</ele><time>2026-04-05T15:59:14.901Z</time></trkpt><trkpt lat="40.048820619843426" lon="18.122706671516543"><ele>66.0</ele><time>2026-04-05T15:59:15.901Z</time></trkpt><trkpt lat="40.04880486143384" lon="18.122797368337"><ele>66.0</ele><time>2026-04-05T15:59:16.901Z</time></trkpt><trkpt lat="40.048805186515935" lon="18.122883336770197"><ele>66.0</ele><time>2026-04-05T15:59:17.901Z</time></trkpt><trkpt lat="40.048827142718146" lon="18.12304397533171"><ele>66.0</ele><time>2026-04-05T15:59:19.901Z</time></trkpt><trkpt lat="40.048849149779784" lon="18.12313416704275"><ele>66.0</ele><time>2026-04-05T15:59:20.901Z</time></trkpt><trkpt lat="40.048881905435834" lon="18.12323244664807"><ele>66.33333333333333</ele><time>2026-04-05T15:59:21.901Z</time></trkpt><trkpt lat="40.04892141685777" lon="18.12332958003449"><ele>66.66666666666667</ele><time>2026-04-05T15:59:22.901Z</time></trkpt><trkpt lat="40.0489641381006" lon="18.123424450692557"><ele>67.0</ele><time>2026-04-05T15:59:23.901Z</time></trkpt><trkpt lat="40.04900031890191" lon="18.123512740319676"><ele>67.33333333333334</ele><time>2026-04-05T15:59:24.901Z</time></trkpt><trkpt lat="40.04902504499242" lon="18.12360026809914"><ele>67.66666666666667</ele><time>2026-04-05T15:59:25.901Z</time></trkpt><trkpt lat="40.04905133414505" lon="18.123696937715856"><ele>68.0</ele><time>2026-04-05T15:59:26.901Z</time></trkpt><trkpt lat="40.04908699708907" lon="18.12379108602266"><ele>68.33333333333334</ele><time>2026-04-05T15:59:27.901Z</time></trkpt><trkpt lat="40.049129379368935" lon="18.123900033574028"><ele>68.66666666666667</ele><time>2026-04-05T15:59:28.901Z</time></trkpt><trkpt lat="40.0491741895735" lon="18.123988032863252"><ele>69.0</ele><time>2026-04-05T15:59:29.901Z</time></trkpt><trkpt lat="40.04921990037995" lon="18.12407942043328"><ele>69.33333333333333</ele><time>2026-04-05T15:59:30.901Z</time></trkpt><trkpt lat="40.04925859367119" lon="18.124182598443195"><ele>69.66666666666666</ele><time>2026-04-05T15:59:31.901Z</time></trkpt><trkpt lat="40.04927269265142" lon="18.124315697376144"><ele>70.0</ele><time>2026-04-05T15:59:32.901Z</time></trkpt><trkpt lat="40.04930185909843" lon="18.1244138686817"><ele>70.5</ele><time>2026-04-05T15:59:33.901Z</time></trkpt><trkpt lat="40.049328696299995" lon="18.124502404655853"><ele>71.0</ele><time>2026-04-05T15:59:34.901Z</time></trkpt><trkpt lat="40.049383735772146" lon="18.124655582954084"><ele>71.5</ele><time>2026-04-05T15:59:36.901Z</time></trkpt><trkpt lat="40.04941587310863" lon="18.124752729941786"><ele>72.0</ele><time>2026-04-05T15:59:37.901Z</time></trkpt><trkpt lat="40.04945339732101" lon="18.12484256267"><ele>72.5</ele><time>2026-04-05T15:59:38.902Z</time></trkpt><trkpt lat="40.04947017732359" lon="18.12493898170925"><ele>73.0</ele><time>2026-04-05T15:59:39.901Z</time></trkpt><trkpt lat="40.04948600342931" lon="18.125031899702453"><ele>73.2</ele><time>2026-04-05T15:59:40.901Z</time></trkpt><trkpt lat="40.04951400904937" lon="18.125118425222396"><ele>73.4</ele><time>2026-04-05T15:59:41.901Z</time></trkpt><trkpt lat="40.04958085204017" lon="18.12525142670292"><ele>73.60000000000001</ele><time>2026-04-05T15:59:43.901Z</time></trkpt><trkpt lat="40.04963895867652" lon="18.125387371300505"><ele>73.8</ele><time>2026-04-05T15:59:45.902Z</time></trkpt><trkpt lat="40.04968107627644" lon="18.125525634653325"><ele>74.0</ele><time>2026-04-05T15:59:47.901Z</time></trkpt><trkpt lat="40.049721709804274" lon="18.125621923033176"><ele>74.0</ele><time>2026-04-05T15:59:49.901Z</time></trkpt><trkpt lat="40.04974663262944" lon="18.1257198150858"><ele>74.0</ele><time>2026-04-05T15:59:51.901Z</time></trkpt><trkpt lat="40.049788203228644" lon="18.125829767954034"><ele>74.0</ele><time>2026-04-05T15:59:54.901Z</time></trkpt><trkpt lat="40.049856486908155" lon="18.1258450444117"><ele>74.0</ele><time>2026-04-05T15:59:56.901Z</time></trkpt><trkpt lat="40.04994387065433" lon="18.125807969522537"><ele>74.0</ele><time>2026-04-05T15:59:58.901Z</time></trkpt><trkpt lat="40.05004123989261" lon="18.12575461736171"><ele>74.0</ele><time>2026-04-05T16:00:00.901Z</time></trkpt><trkpt lat="40.05015983460129" lon="18.12569371304322"><ele>74.16666666666667</ele><time>2026-04-05T16:00:02.901Z</time></trkpt><trkpt lat="40.05022230805868" lon="18.125671086147765"><ele>74.33333333333334</ele><time>2026-04-05T16:00:03.901Z</time></trkpt><trkpt lat="40.05028294263403" lon="18.125639690108876"><ele>74.5</ele><time>2026-04-05T16:00:04.901Z</time></trkpt><trkpt lat="40.05034235818344" lon="18.12560584457977"><ele>74.66666666666667</ele><time>2026-04-05T16:00:05.901Z</time></trkpt><trkpt lat="40.050460647396314" lon="18.125550350351126"><ele>74.83333333333333</ele><time>2026-04-05T16:00:07.901Z</time></trkpt><trkpt lat="40.05052278675501" lon="18.12551907599201"><ele>75.0</ele><time>2026-04-05T16:00:08.901Z</time></trkpt><trkpt lat="40.05058427542425" lon="18.125490818301973"><ele>75.0</ele><time>2026-04-05T16:00:09.901Z</time></trkpt><trkpt lat="40.05069543428692" lon="18.125457551329742"><ele>75.0</ele><time>2026-04-05T16:00:11.901Z</time></trkpt><trkpt lat="40.05080414648244" lon="18.12541366751854"><ele>75.0</ele><time>2026-04-05T16:00:13.901Z</time></trkpt><trkpt lat="40.05088712485727" lon="18.125360090429776"><ele>75.0</ele><time>2026-04-05T16:00:15.901Z</time></trkpt><trkpt lat="40.05097982312211" lon="18.125328171531706"><ele>75.0</ele><time>2026-04-05T16:00:17.901Z</time></trkpt><trkpt lat="40.05111191513921" lon="18.125288729805625"><ele>75.2</ele><time>2026-04-05T16:00:19.901Z</time></trkpt><trkpt lat="40.05119235811138" lon="18.12524174775882"><ele>75.4</ele><time>2026-04-05T16:00:20.901Z</time></trkpt><trkpt lat="40.05127736792484" lon="18.1251920531435"><ele>75.6</ele><time>2026-04-05T16:00:21.901Z</time></trkpt><trkpt lat="40.0513766067075" lon="18.12513870058975"><ele>75.8</ele><time>2026-04-05T16:00:22.901Z</time></trkpt><trkpt lat="40.05148962082853" lon="18.12509318962457"><ele>76.0</ele><time>2026-04-05T16:00:23.901Z</time></trkpt><trkpt lat="40.05161189966796" lon="18.12504357149988"><ele>76.0</ele><time>2026-04-05T16:00:24.901Z</time></trkpt><trkpt lat="40.05173503863813" lon="18.124997535672414"><ele>76.0</ele><time>2026-04-05T16:00:25.901Z</time></trkpt><trkpt lat="40.05185186657332" lon="18.124943008622207"><ele>76.0</ele><time>2026-04-05T16:00:26.901Z</time></trkpt><trkpt lat="40.05197036424561" lon="18.12491509553414"><ele>76.0</ele><time>2026-04-05T16:00:27.901Z</time></trkpt><trkpt lat="40.052074563727366" lon="18.124885577937963"><ele>76.0</ele><time>2026-04-05T16:00:28.901Z</time></trkpt><trkpt lat="40.05217186680668" lon="18.12486017008143"><ele>76.0</ele><time>2026-04-05T16:00:29.901Z</time></trkpt><trkpt lat="40.052275544658606" lon="18.12483638659883"><ele>76.0</ele><time>2026-04-05T16:00:30.901Z</time></trkpt><trkpt lat="40.05238609112341" lon="18.12479273540175"><ele>76.0</ele><time>2026-04-05T16:00:31.901Z</time></trkpt><trkpt lat="40.0524775559063" lon="18.124743060601528"><ele>76.0</ele><time>2026-04-05T16:00:32.901Z</time></trkpt><trkpt lat="40.05257732346007" lon="18.124715085144555"><ele>76.39999999999999</ele><time>2026-04-05T16:00:33.901Z</time></trkpt><trkpt lat="40.052670396211454" lon="18.12465525974092"><ele>76.8</ele><time>2026-04-05T16:00:34.901Z</time></trkpt><trkpt lat="40.052754246647844" lon="18.124578149406968"><ele>77.19999999999999</ele><time>2026-04-05T16:00:35.901Z</time></trkpt><trkpt lat="40.052838445782335" lon="18.124505742001073"><ele>77.6</ele><time>2026-04-05T16:00:36.901Z</time></trkpt><trkpt lat="40.052924474228426" lon="18.12443230403795"><ele>78.0</ele><time>2026-04-05T16:00:37.901Z</time></trkpt><trkpt lat="40.05301894190966" lon="18.124371988487187"><ele>78.0</ele><time>2026-04-05T16:00:38.901Z</time></trkpt><trkpt lat="40.05311218124188" lon="18.124309634908496"><ele>78.0</ele><time>2026-04-05T16:00:39.901Z</time></trkpt><trkpt lat="40.05320321197637" lon="18.1242531964557"><ele>78.0</ele><time>2026-04-05T16:00:40.901Z</time></trkpt><trkpt lat="40.0532979318273" lon="18.12419746999334"><ele>78.0</ele><time>2026-04-05T16:00:41.901Z</time></trkpt><trkpt lat="40.0533973476244" lon="18.124130468378493"><ele>78.0</ele><time>2026-04-05T16:00:42.901Z</time></trkpt><trkpt lat="40.05350594784514" lon="18.124071731879603"><ele>77.0</ele><time>2026-04-05T16:00:43.901Z</time></trkpt><trkpt lat="40.05361600970581" lon="18.124016975445727"><ele>76.0</ele><time>2026-04-05T16:00:44.901Z</time></trkpt><trkpt lat="40.05373375102485" lon="18.123961800611017"><ele>75.0</ele><time>2026-04-05T16:00:45.901Z</time></trkpt><trkpt lat="40.05385253749421" lon="18.123897949425153"><ele>74.0</ele><time>2026-04-05T16:00:46.901Z</time></trkpt><trkpt lat="40.053963990593566" lon="18.123845713295573"><ele>74.0</ele><time>2026-04-05T16:00:47.901Z</time></trkpt><trkpt lat="40.054071436115414" lon="18.12379909745036"><ele>74.0</ele><time>2026-04-05T16:00:48.901Z</time></trkpt><trkpt lat="40.05418336708666" lon="18.123737217155675"><ele>74.0</ele><time>2026-04-05T16:00:49.901Z</time></trkpt><trkpt lat="40.054302419834066" lon="18.12366956534214"><ele>74.0</ele><time>2026-04-05T16:00:50.901Z</time></trkpt><trkpt lat="40.054424032148425" lon="18.123594936779128"><ele>74.0</ele><time>2026-04-05T16:00:51.901Z</time></trkpt><trkpt lat="40.054544255891045" lon="18.123505591935388"><ele>74.0</ele><time>2026-04-05T16:00:52.901Z</time></trkpt><trkpt lat="40.05466745290986" lon="18.123403322064327"><ele>74.0</ele><time>2026-04-05T16:00:53.901Z</time></trkpt><trkpt lat="40.05478386526244" lon="18.123272430358128"><ele>74.0</ele><time>2026-04-05T16:00:54.901Z</time></trkpt><trkpt lat="40.05490241216478" lon="18.1231272211097"><ele>75.66666666666667</ele><time>2026-04-05T16:00:55.901Z</time></trkpt><trkpt lat="40.05501765208041" lon="18.122966977158146"><ele>77.33333333333333</ele><time>2026-04-05T16:00:56.901Z</time></trkpt><trkpt lat="40.055116475385695" lon="18.12281248295877"><ele>79.0</ele><time>2026-04-05T16:00:57.901Z</time></trkpt><trkpt lat="40.05520926233608" lon="18.122666713538038"><ele>79.0</ele><time>2026-04-05T16:00:58.901Z</time></trkpt><trkpt lat="40.05530015385278" lon="18.1225347800854"><ele>79.0</ele><time>2026-04-05T16:00:59.901Z</time></trkpt><trkpt lat="40.0553876235033" lon="18.122408950177903"><ele>79.0</ele><time>2026-04-05T16:01:00.901Z</time></trkpt><trkpt lat="40.05546750298049" lon="18.122287040705032"><ele>79.0</ele><time>2026-04-05T16:01:01.901Z</time></trkpt><trkpt lat="40.05554405309577" lon="18.122162325695633"><ele>77.75</ele><time>2026-04-05T16:01:02.901Z</time></trkpt><trkpt lat="40.05561432935025" lon="18.122024913067186"><ele>76.5</ele><time>2026-04-05T16:01:03.901Z</time></trkpt><trkpt lat="40.0556729039401" lon="18.121876084954764"><ele>75.25</ele><time>2026-04-05T16:01:04.901Z</time></trkpt><trkpt lat="40.05570803924846" lon="18.12172524793195"><ele>74.0</ele><time>2026-04-05T16:01:05.901Z</time></trkpt><trkpt lat="40.05572446211019" lon="18.121556470687302"><ele>72.75</ele><time>2026-04-05T16:01:06.901Z</time></trkpt><trkpt lat="40.055719797153536" lon="18.121383251060177"><ele>71.5</ele><time>2026-04-05T16:01:07.901Z</time></trkpt><trkpt lat="40.055701478948436" lon="18.121199593951967"><ele>70.25</ele><time>2026-04-05T16:01:08.901Z</time></trkpt><trkpt lat="40.0556763647995" lon="18.12101286924934"><ele>69.0</ele><time>2026-04-05T16:01:09.901Z</time></trkpt><trkpt lat="40.05562917512492" lon="18.120818463883293"><ele>69.0</ele><time>2026-04-05T16:01:10.901Z</time></trkpt><trkpt lat="40.05557447558431" lon="18.12062787657499"><ele>69.0</ele><time>2026-04-05T16:01:11.901Z</time></trkpt><trkpt lat="40.055525549489566" lon="18.12042195968154"><ele>69.0</ele><time>2026-04-05T16:01:12.901Z</time></trkpt><trkpt lat="40.055490614539956" lon="18.120208685618074"><ele>69.0</ele><time>2026-04-05T16:01:13.9Z</time></trkpt><trkpt lat="40.05546623180035" lon="18.120018630234505"><ele>69.0</ele><time>2026-04-05T16:01:14.9Z</time></trkpt><trkpt lat="40.05544030739193" lon="18.119819261340737"><ele>69.0</ele><time>2026-04-05T16:01:15.9Z</time></trkpt><trkpt lat="40.055413627044366" lon="18.11962385674811"><ele>68.5</ele><time>2026-04-05T16:01:16.9Z</time></trkpt><trkpt lat="40.05539228897546" lon="18.11944151362006"><ele>68.0</ele><time>2026-04-05T16:01:17.9Z</time></trkpt><trkpt lat="40.05537088915314" lon="18.11925979011865"><ele>67.5</ele><time>2026-04-05T16:01:18.9Z</time></trkpt><trkpt lat="40.05535330232303" lon="18.119087692631435"><ele>67.0</ele><time>2026-04-05T16:01:19.9Z</time></trkpt><trkpt lat="40.05533486085398" lon="18.118925529655613"><ele>66.75</ele><time>2026-04-05T16:01:20.9Z</time></trkpt><trkpt lat="40.055334023806154" lon="18.11876508200231"><ele>66.5</ele><time>2026-04-05T16:01:21.9Z</time></trkpt><trkpt lat="40.055342923407146" lon="18.11861666782742"><ele>66.25</ele><time>2026-04-05T16:01:22.9Z</time></trkpt><trkpt lat="40.05536634821222" lon="18.11846981097667"><ele>66.0</ele><time>2026-04-05T16:01:23.9Z</time></trkpt><trkpt lat="40.055401940256644" lon="18.118324076391186"><ele>65.75</ele><time>2026-04-05T16:01:24.9Z</time></trkpt><trkpt lat="40.05544815598557" lon="18.118177469544563"><ele>65.5</ele><time>2026-04-05T16:01:25.9Z</time></trkpt><trkpt lat="40.05550519665555" lon="18.11802767417622"><ele>65.25</ele><time>2026-04-05T16:01:26.9Z</time></trkpt><trkpt lat="40.055572824352154" lon="18.117881040502155"><ele>65.0</ele><time>2026-04-05T16:01:27.9Z</time></trkpt><trkpt lat="40.05566274032058" lon="18.117746606705914"><ele>65.0</ele><time>2026-04-05T16:01:28.9Z</time></trkpt><trkpt lat="40.05576492266027" lon="18.11762540134514"><ele>65.0</ele><time>2026-04-05T16:01:29.9Z</time></trkpt><trkpt lat="40.05587421389098" lon="18.117517581527245"><ele>65.0</ele><time>2026-04-05T16:01:30.9Z</time></trkpt><trkpt lat="40.055991739965464" lon="18.11742485237662"><ele>65.0</ele><time>2026-04-05T16:01:31.9Z</time></trkpt><trkpt lat="40.05612236771665" lon="18.117339363474144"><ele>65.0</ele><time>2026-04-05T16:01:32.9Z</time></trkpt><trkpt lat="40.056251861062854" lon="18.117259075355737"><ele>65.0</ele><time>2026-04-05T16:01:33.9Z</time></trkpt><trkpt lat="40.056383922057115" lon="18.117179662030928"><ele>65.0</ele><time>2026-04-05T16:01:34.9Z</time></trkpt><trkpt lat="40.05651920155545" lon="18.117098882384283"><ele>65.0</ele><time>2026-04-05T16:01:35.9Z</time></trkpt><trkpt lat="40.05665518738452" lon="18.11701913297078"><ele>65.33333333333334</ele><time>2026-04-05T16:01:36.9Z</time></trkpt><trkpt lat="40.05679251252717" lon="18.116937749271617"><ele>65.66666666666667</ele><time>2026-04-05T16:01:37.9Z</time></trkpt><trkpt lat="40.05693116098675" lon="18.116861771264148"><ele>66.0</ele><time>2026-04-05T16:01:38.9Z</time></trkpt><trkpt lat="40.05706634847363" lon="18.116781697262155"><ele>66.0</ele><time>2026-04-05T16:01:39.9Z</time></trkpt><trkpt lat="40.05721236862232" lon="18.116700195804743"><ele>66.0</ele><time>2026-04-05T16:01:40.9Z</time></trkpt><trkpt lat="40.057366057688114" lon="18.116612494120655"><ele>66.0</ele><time>2026-04-05T16:01:41.901Z</time></trkpt><trkpt lat="40.0575064197372" lon="18.116505026649886"><ele>66.0</ele><time>2026-04-05T16:01:42.9Z</time></trkpt><trkpt lat="40.05766768700591" lon="18.116415674668968"><ele>66.0</ele><time>2026-04-05T16:01:43.9Z</time></trkpt><trkpt lat="40.057829729431546" lon="18.116323288749168"><ele>66.0</ele><time>2026-04-05T16:01:44.901Z</time></trkpt><trkpt lat="40.05798689416821" lon="18.11624039263087"><ele>66.0</ele><time>2026-04-05T16:01:45.9Z</time></trkpt><trkpt lat="40.05814482557366" lon="18.11615981451841"><ele>66.0</ele><time>2026-04-05T16:01:46.9Z</time></trkpt><trkpt lat="40.05829266863458" lon="18.11608677136656"><ele>66.0</ele><time>2026-04-05T16:01:47.901Z</time></trkpt><trkpt lat="40.05843570082011" lon="18.11601218717702"><ele>66.0</ele><time>2026-04-05T16:01:48.901Z</time></trkpt><trkpt lat="40.058566118955994" lon="18.11593592863671"><ele>66.0</ele><time>2026-04-05T16:01:49.901Z</time></trkpt><trkpt lat="40.058698836026835" lon="18.115853147615976"><ele>66.0</ele><time>2026-04-05T16:01:50.9Z</time></trkpt><trkpt lat="40.0588278817983" lon="18.115752280501667"><ele>66.0</ele><time>2026-04-05T16:01:51.9Z</time></trkpt><trkpt lat="40.05894608462279" lon="18.115626155843724"><ele>66.0</ele><time>2026-04-05T16:01:52.9Z</time></trkpt><trkpt lat="40.0590512289281" lon="18.115479736799017"><ele>66.0</ele><time>2026-04-05T16:01:53.9Z</time></trkpt><trkpt lat="40.05914925160687" lon="18.115315848232296"><ele>66.0</ele><time>2026-04-05T16:01:54.9Z</time></trkpt><trkpt lat="40.059241095238264" lon="18.115139241596303"><ele>66.33333333333333</ele><time>2026-04-05T16:01:55.9Z</time></trkpt><trkpt lat="40.05933534641544" lon="18.114956620253324"><ele>66.66666666666666</ele><time>2026-04-05T16:01:56.9Z</time></trkpt><trkpt lat="40.059424278372106" lon="18.114770020024324"><ele>67.0</ele><time>2026-04-05T16:01:57.9Z</time></trkpt><trkpt lat="40.059517985445616" lon="18.114589847003998"><ele>67.66666666666666</ele><time>2026-04-05T16:01:58.9Z</time></trkpt><trkpt lat="40.05961618436035" lon="18.114418410081694"><ele>68.33333333333333</ele><time>2026-04-05T16:01:59.9Z</time></trkpt><trkpt lat="40.05971425250468" lon="18.1142505869266"><ele>69.0</ele><time>2026-04-05T16:02:00.9Z</time></trkpt><trkpt lat="40.05981687142339" lon="18.114085067933782"><ele>68.66666666666667</ele><time>2026-04-05T16:02:01.9Z</time></trkpt><trkpt lat="40.059919406689396" lon="18.113914832588407"><ele>68.33333333333334</ele><time>2026-04-05T16:02:02.9Z</time></trkpt><trkpt lat="40.06002577574712" lon="18.113745066434863"><ele>68.0</ele><time>2026-04-05T16:02:03.9Z</time></trkpt><trkpt lat="40.06012946113584" lon="18.113571070117224"><ele>68.0</ele><time>2026-04-05T16:02:04.9Z</time></trkpt><trkpt lat="40.06023330703017" lon="18.113395233869444"><ele>68.0</ele><time>2026-04-05T16:02:05.9Z</time></trkpt><trkpt lat="40.06033740002702" lon="18.11321723408983"><ele>68.0</ele><time>2026-04-05T16:02:06.9Z</time></trkpt><trkpt lat="40.060438179076684" lon="18.113034617312955"><ele>67.0</ele><time>2026-04-05T16:02:07.9Z</time></trkpt><trkpt lat="40.06052773178153" lon="18.11284258852991"><ele>66.0</ele><time>2026-04-05T16:02:08.9Z</time></trkpt><trkpt lat="40.060612804869024" lon="18.11264317672868"><ele>65.0</ele><time>2026-04-05T16:02:09.9Z</time></trkpt><trkpt lat="40.06069227556711" lon="18.112439975793016"><ele>65.0</ele><time>2026-04-05T16:02:10.9Z</time></trkpt><trkpt lat="40.060777554238015" lon="18.112236988094804"><ele>65.0</ele><time>2026-04-05T16:02:11.9Z</time></trkpt><trkpt lat="40.06086685321346" lon="18.112034866042723"><ele>65.0</ele><time>2026-04-05T16:02:12.9Z</time></trkpt><trkpt lat="40.06095960541372" lon="18.1118365048719"><ele>64.33333333333334</ele><time>2026-04-05T16:02:13.9Z</time></trkpt><trkpt lat="40.06105535272741" lon="18.11164401968471"><ele>63.66666666666667</ele><time>2026-04-05T16:02:14.9Z</time></trkpt><trkpt lat="40.061158081641636" lon="18.111463265015065"><ele>63.0</ele><time>2026-04-05T16:02:15.9Z</time></trkpt><trkpt lat="40.06126935396598" lon="18.11129504721563"><ele>63.0</ele><time>2026-04-05T16:02:16.9Z</time></trkpt><trkpt lat="40.06138673062658" lon="18.111136715399383"><ele>63.0</ele><time>2026-04-05T16:02:17.9Z</time></trkpt><trkpt lat="40.06151135228374" lon="18.110989712356126"><ele>63.0</ele><time>2026-04-05T16:02:18.9Z</time></trkpt><trkpt lat="40.061639492313205" lon="18.11084887242969"><ele>63.66666666666667</ele><time>2026-04-05T16:02:19.9Z</time></trkpt><trkpt lat="40.061773224989345" lon="18.110711537781917"><ele>64.33333333333334</ele><time>2026-04-05T16:02:20.9Z</time></trkpt><trkpt lat="40.06190931577735" lon="18.110583602441714"><ele>65.0</ele><time>2026-04-05T16:02:21.9Z</time></trkpt><trkpt lat="40.06204887931804" lon="18.110464566248424"><ele>65.0</ele><time>2026-04-05T16:02:22.9Z</time></trkpt><trkpt lat="40.06219109921075" lon="18.11035587640615"><ele>65.0</ele><time>2026-04-05T16:02:23.9Z</time></trkpt><trkpt lat="40.062340414133615" lon="18.11026118178218"><ele>65.0</ele><time>2026-04-05T16:02:24.9Z</time></trkpt><trkpt lat="40.0624933151983" lon="18.110177555350532"><ele>65.33333333333334</ele><time>2026-04-05T16:02:25.9Z</time></trkpt><trkpt lat="40.06264673747313" lon="18.110103945875387"><ele>65.66666666666667</ele><time>2026-04-05T16:02:26.9Z</time></trkpt><trkpt lat="40.062804487581815" lon="18.11004066245695"><ele>66.0</ele><time>2026-04-05T16:02:27.9Z</time></trkpt><trkpt lat="40.06296432659602" lon="18.109979875178304"><ele>66.0</ele><time>2026-04-05T16:02:28.9Z</time></trkpt><trkpt lat="40.06311933552634" lon="18.10991112265448"><ele>66.0</ele><time>2026-04-05T16:02:29.9Z</time></trkpt><trkpt lat="40.063276552524066" lon="18.109844977232243"><ele>66.0</ele><time>2026-04-05T16:02:30.9Z</time></trkpt><trkpt lat="40.06343330025527" lon="18.109781007142423"><ele>66.33333333333333</ele><time>2026-04-05T16:02:31.9Z</time></trkpt><trkpt lat="40.0635855085394" lon="18.109715398945106"><ele>66.66666666666666</ele><time>2026-04-05T16:02:32.9Z</time></trkpt><trkpt lat="40.06373616868761" lon="18.109651350803997"><ele>67.0</ele><time>2026-04-05T16:02:33.9Z</time></trkpt><trkpt lat="40.06389338356189" lon="18.10958895330894"><ele>67.0</ele><time>2026-04-05T16:02:34.9Z</time></trkpt><trkpt lat="40.0640451622751" lon="18.1095244979086"><ele>67.0</ele><time>2026-04-05T16:02:35.9Z</time></trkpt><trkpt lat="40.06419656042248" lon="18.109460678133036"><ele>67.0</ele><time>2026-04-05T16:02:36.9Z</time></trkpt><trkpt lat="40.06434953979094" lon="18.109395942643637"><ele>67.0</ele><time>2026-04-05T16:02:37.9Z</time></trkpt><trkpt lat="40.064505410688234" lon="18.10933058399204"><ele>67.0</ele><time>2026-04-05T16:02:38.9Z</time></trkpt><trkpt lat="40.064656694721236" lon="18.109262654444752"><ele>67.0</ele><time>2026-04-05T16:02:39.9Z</time></trkpt><trkpt lat="40.06480864024407" lon="18.109197106433697"><ele>68.0</ele><time>2026-04-05T16:02:40.9Z</time></trkpt><trkpt lat="40.06496329312958" lon="18.10913021056972"><ele>69.0</ele><time>2026-04-05T16:02:41.9Z</time></trkpt><trkpt lat="40.0651164588481" lon="18.1090613268569"><ele>70.0</ele><time>2026-04-05T16:02:42.9Z</time></trkpt><trkpt lat="40.06527138956483" lon="18.108985299262624"><ele>70.0</ele><time>2026-04-05T16:02:43.9Z</time></trkpt><trkpt lat="40.06542077435338" lon="18.108894010368573"><ele>70.0</ele><time>2026-04-05T16:02:44.9Z</time></trkpt><trkpt lat="40.06557086498891" lon="18.10879224644739"><ele>70.0</ele><time>2026-04-05T16:02:45.9Z</time></trkpt><trkpt lat="40.06570918843443" lon="18.108682159887167"><ele>70.0</ele><time>2026-04-05T16:02:46.9Z</time></trkpt><trkpt lat="40.06584327901327" lon="18.108580477082057"><ele>70.0</ele><time>2026-04-05T16:02:47.9Z</time></trkpt><trkpt lat="40.065972021672565" lon="18.108479062022337"><ele>70.0</ele><time>2026-04-05T16:02:48.9Z</time></trkpt><trkpt lat="40.06610053632416" lon="18.108381710144997"><ele>70.0</ele><time>2026-04-05T16:02:49.9Z</time></trkpt><trkpt lat="40.066224332234995" lon="18.108282216026137"><ele>70.0</ele><time>2026-04-05T16:02:50.9Z</time></trkpt><trkpt lat="40.06634429508984" lon="18.108186339031025"><ele>70.0</ele><time>2026-04-05T16:02:51.9Z</time></trkpt><trkpt lat="40.0664601747756" lon="18.1080938868486"><ele>70.0</ele><time>2026-04-05T16:02:52.9Z</time></trkpt><trkpt lat="40.06656378519298" lon="18.107991640088343"><ele>70.5</ele><time>2026-04-05T16:02:53.9Z</time></trkpt><trkpt lat="40.066662418823185" lon="18.107878859859234"><ele>71.0</ele><time>2026-04-05T16:02:54.9Z</time></trkpt><trkpt lat="40.06673769271743" lon="18.107750726985895"><ele>71.5</ele><time>2026-04-05T16:02:55.9Z</time></trkpt><trkpt lat="40.06680169038889" lon="18.107626515004437"><ele>72.0</ele><time>2026-04-05T16:02:56.9Z</time></trkpt><trkpt lat="40.06686290758781" lon="18.107519410777044"><ele>72.0</ele><time>2026-04-05T16:02:57.9Z</time></trkpt><trkpt lat="40.066923340262534" lon="18.107411657265427"><ele>72.0</ele><time>2026-04-05T16:02:58.9Z</time></trkpt><trkpt lat="40.06697722832561" lon="18.107306298648044"><ele>72.0</ele><time>2026-04-05T16:02:59.9Z</time></trkpt><trkpt lat="40.067031342806686" lon="18.10720679045374"><ele>72.0</ele><time>2026-04-05T16:03:00.9Z</time></trkpt><trkpt lat="40.06708698792764" lon="18.10710881220258"><ele>72.0</ele><time>2026-04-05T16:03:01.9Z</time></trkpt><trkpt lat="40.0671383835999" lon="18.107014084180403"><ele>72.0</ele><time>2026-04-05T16:03:02.9Z</time></trkpt><trkpt lat="40.067185505866064" lon="18.106919146293762"><ele>72.0</ele><time>2026-04-05T16:03:03.9Z</time></trkpt><trkpt lat="40.06722809877071" lon="18.10682753722826"><ele>72.0</ele><time>2026-04-05T16:03:04.9Z</time></trkpt><trkpt lat="40.06726898569618" lon="18.106738689306038"><ele>72.0</ele><time>2026-04-05T16:03:05.9Z</time></trkpt><trkpt lat="40.067305373768" lon="18.10665481441744"><ele>72.0</ele><time>2026-04-05T16:03:06.9Z</time></trkpt><trkpt lat="40.06734365159519" lon="18.10657783659677"><ele>72.0</ele><time>2026-04-05T16:03:07.9Z</time></trkpt><trkpt lat="40.06737865741233" lon="18.10650079867415"><ele>71.6</ele><time>2026-04-05T16:03:08.9Z</time></trkpt><trkpt lat="40.0674221882481" lon="18.106383248260006"><ele>71.2</ele><time>2026-04-05T16:03:10.9Z</time></trkpt><trkpt lat="40.06750177209881" lon="18.106357560429576"><ele>70.8</ele><time>2026-04-05T16:03:13.9Z</time></trkpt><trkpt lat="40.06759539886298" lon="18.106460987036385"><ele>70.4</ele><time>2026-04-05T16:03:15.9Z</time></trkpt><trkpt lat="40.06764677815109" lon="18.106534093185843"><ele>70.0</ele><time>2026-04-05T16:03:16.9Z</time></trkpt><trkpt lat="40.067711952865" lon="18.106620064983144"><ele>71.25</ele><time>2026-04-05T16:03:17.9Z</time></trkpt><trkpt lat="40.06778931970575" lon="18.10671377210656"><ele>72.5</ele><time>2026-04-05T16:03:18.9Z</time></trkpt><trkpt lat="40.067874622795514" lon="18.10682498065376"><ele>73.75</ele><time>2026-04-05T16:03:19.9Z</time></trkpt><trkpt lat="40.0679718672793" lon="18.106941958948042"><ele>75.0</ele><time>2026-04-05T16:03:20.9Z</time></trkpt><trkpt lat="40.06806606714422" lon="18.10704901484661"><ele>75.0</ele><time>2026-04-05T16:03:21.9Z</time></trkpt><trkpt lat="40.06815432534412" lon="18.10714678066602"><ele>75.0</ele><time>2026-04-05T16:03:22.9Z</time></trkpt><trkpt lat="40.068234805384996" lon="18.10723359311342"><ele>75.0</ele><time>2026-04-05T16:03:23.9Z</time></trkpt><trkpt lat="40.06830243130749" lon="18.107313608455197"><ele>75.0</ele><time>2026-04-05T16:03:24.899Z</time></trkpt><trkpt lat="40.0683778435521" lon="18.10738690526266"><ele>75.0</ele><time>2026-04-05T16:03:25.899Z</time></trkpt><trkpt lat="40.06846613824287" lon="18.107451207143235"><ele>76.25</ele><time>2026-04-05T16:03:26.899Z</time></trkpt><trkpt lat="40.06856061148961" lon="18.107517703872162"><ele>77.5</ele><time>2026-04-05T16:03:27.899Z</time></trkpt><trkpt lat="40.06866435095913" lon="18.10757732415552"><ele>78.75</ele><time>2026-04-05T16:03:28.899Z</time></trkpt><trkpt lat="40.06877508947585" lon="18.10763681067569"><ele>80.0</ele><time>2026-04-05T16:03:29.899Z</time></trkpt><trkpt lat="40.068902863816845" lon="18.107689002131835"><ele>80.0</ele><time>2026-04-05T16:03:30.899Z</time></trkpt><trkpt lat="40.069038293622675" lon="18.107740497375026"><ele>80.0</ele><time>2026-04-05T16:03:31.899Z</time></trkpt><trkpt lat="40.06916190680264" lon="18.107793788875497"><ele>80.0</ele><time>2026-04-05T16:03:32.899Z</time></trkpt><trkpt lat="40.06927393226437" lon="18.107828216978977"><ele>80.0</ele><time>2026-04-05T16:03:33.899Z</time></trkpt><trkpt lat="40.06937745432898" lon="18.10783677111832"><ele>80.75</ele><time>2026-04-05T16:03:34.899Z</time></trkpt><trkpt lat="40.06947492444853" lon="18.10780112039695"><ele>81.5</ele><time>2026-04-05T16:03:35.899Z</time></trkpt><trkpt lat="40.06958210431637" lon="18.107740181105374"><ele>82.25</ele><time>2026-04-05T16:03:36.899Z</time></trkpt><trkpt lat="40.06970986697222" lon="18.107645717457107"><ele>83.0</ele><time>2026-04-05T16:03:37.899Z</time></trkpt><trkpt lat="40.06984318543814" lon="18.107541676671662"><ele>83.75</ele><time>2026-04-05T16:03:38.899Z</time></trkpt><trkpt lat="40.06995969196214" lon="18.10741256916649"><ele>84.5</ele><time>2026-04-05T16:03:39.899Z</time></trkpt><trkpt lat="40.07006095376699" lon="18.107290229254797"><ele>85.25</ele><time>2026-04-05T16:03:40.899Z</time></trkpt><trkpt lat="40.07018549965164" lon="18.10716654310401"><ele>86.0</ele><time>2026-04-05T16:03:41.899Z</time></trkpt><trkpt lat="40.0703139621832" lon="18.10704281212498"><ele>86.25</ele><time>2026-04-05T16:03:42.899Z</time></trkpt><trkpt lat="40.07044596565187" lon="18.106948796420326"><ele>86.5</ele><time>2026-04-05T16:03:43.899Z</time></trkpt><trkpt lat="40.070571863568226" lon="18.106871759469506"><ele>86.75</ele><time>2026-04-05T16:03:44.899Z</time></trkpt><trkpt lat="40.07069181750528" lon="18.10682602013132"><ele>87.0</ele><time>2026-04-05T16:03:45.899Z</time></trkpt><trkpt lat="40.0708294862374" lon="18.106800746356928"><ele>90.0</ele><time>2026-04-05T16:03:46.899Z</time></trkpt><trkpt lat="40.07096950794239" lon="18.106792030532237"><ele>93.0</ele><time>2026-04-05T16:03:47.899Z</time></trkpt><trkpt lat="40.07111091012235" lon="18.106781223583376"><ele>96.0</ele><time>2026-04-05T16:03:48.9Z</time></trkpt><trkpt lat="40.071256566311206" lon="18.106766104332813"><ele>99.0</ele><time>2026-04-05T16:03:49.9Z</time></trkpt><trkpt lat="40.07140451166664" lon="18.106740262668737"><ele>99.0</ele><time>2026-04-05T16:03:50.9Z</time></trkpt><trkpt lat="40.07156821721685" lon="18.106704245894825"><ele>99.0</ele><time>2026-04-05T16:03:51.9Z</time></trkpt><trkpt lat="40.07173574955607" lon="18.106666577074737"><ele>99.0</ele><time>2026-04-05T16:03:52.9Z</time></trkpt><trkpt lat="40.071909500660155" lon="18.106628792226235"><ele>100.0</ele><time>2026-04-05T16:03:53.899Z</time></trkpt><trkpt lat="40.07208624582832" lon="18.106584382647195"><ele>101.0</ele><time>2026-04-05T16:03:54.899Z</time></trkpt><trkpt lat="40.07224756023524" lon="18.106548400312583"><ele>102.0</ele><time>2026-04-05T16:03:55.899Z</time></trkpt><trkpt lat="40.072388143036214" lon="18.106510807925112"><ele>103.0</ele><time>2026-04-05T16:03:56.899Z</time></trkpt><trkpt lat="40.07250641359532" lon="18.10647151843405"><ele>104.0</ele><time>2026-04-05T16:03:57.9Z</time></trkpt><trkpt lat="40.07260943695244" lon="18.10642838400978"><ele>104.99999999999999</ele><time>2026-04-05T16:03:58.9Z</time></trkpt><trkpt lat="40.07269693242469" lon="18.106394409209944"><ele>106.0</ele><time>2026-04-05T16:03:59.9Z</time></trkpt><trkpt lat="40.072755806554206" lon="18.106358591626115"><ele>107.0</ele><time>2026-04-05T16:04:00.9Z</time></trkpt><trkpt lat="40.072807424515844" lon="18.10629873086952"><ele>106.99999999999999</ele><time>2026-04-05T16:04:02.9Z</time></trkpt><trkpt lat="40.07277022595765" lon="18.106228613714404"><ele>107.0</ele><time>2026-04-05T16:04:12.9Z</time></trkpt><trkpt lat="40.072835617215524" lon="18.106154706424977"><ele>107.0</ele><time>2026-04-05T16:04:19.9Z</time></trkpt><trkpt lat="40.07293994417206" lon="18.106092425080895"><ele>107.0</ele><time>2026-04-05T16:04:21.9Z</time></trkpt><trkpt lat="40.073023906633274" lon="18.10604904906595"><ele>106.99999999999999</ele><time>2026-04-05T16:04:23.9Z</time></trkpt><trkpt lat="40.07310546986447" lon="18.106090085302903"><ele>107.0</ele><time>2026-04-05T16:04:27.9Z</time></trkpt><trkpt lat="40.07316538100465" lon="18.10624520018099"><ele>107.0</ele><time>2026-04-05T16:04:29.899Z</time></trkpt><trkpt lat="40.073214062625574" lon="18.106356761333245"><ele>107.0</ele><time>2026-04-05T16:04:30.899Z</time></trkpt><trkpt lat="40.073265749286044" lon="18.106485361413377"><ele>107.0</ele><time>2026-04-05T16:04:31.899Z</time></trkpt><trkpt lat="40.07332063655087" lon="18.10663571819878"><ele>107.0</ele><time>2026-04-05T16:04:32.899Z</time></trkpt><trkpt lat="40.07338285940324" lon="18.10678972020275"><ele>109.25</ele><time>2026-04-05T16:04:33.899Z</time></trkpt><trkpt lat="40.073443338551016" lon="18.10695524377941"><ele>111.5</ele><time>2026-04-05T16:04:34.899Z</time></trkpt><trkpt lat="40.0735048349674" lon="18.107132936716493"><ele>113.75</ele><time>2026-04-05T16:04:35.899Z</time></trkpt><trkpt lat="40.073571570803885" lon="18.107320256804122"><ele>116.0</ele><time>2026-04-05T16:04:36.899Z</time></trkpt><trkpt lat="40.073637774346764" lon="18.1074982904608"><ele>116.0</ele><time>2026-04-05T16:04:37.899Z</time></trkpt><trkpt lat="40.073713100673515" lon="18.10767171596939"><ele>116.0</ele><time>2026-04-05T16:04:38.899Z</time></trkpt><trkpt lat="40.073789398064974" lon="18.107846733258217"><ele>116.0</ele><time>2026-04-05T16:04:39.899Z</time></trkpt><trkpt lat="40.07385982261271" lon="18.1080306986098"><ele>116.0</ele><time>2026-04-05T16:04:40.899Z</time></trkpt><trkpt lat="40.073935840840626" lon="18.108202591164027"><ele>116.0</ele><time>2026-04-05T16:04:41.899Z</time></trkpt><trkpt lat="40.0740087155585" lon="18.108384086482534"><ele>116.0</ele><time>2026-04-05T16:04:42.899Z</time></trkpt><trkpt lat="40.07408087160622" lon="18.10856521375815"><ele>117.66666666666666</ele><time>2026-04-05T16:04:43.899Z</time></trkpt><trkpt lat="40.07415576126915" lon="18.108752234092698"><ele>119.33333333333334</ele><time>2026-04-05T16:04:44.899Z</time></trkpt><trkpt lat="40.07422960560993" lon="18.108946743548213"><ele>121.0</ele><time>2026-04-05T16:04:45.899Z</time></trkpt><trkpt lat="40.07430354486883" lon="18.1091411096731"><ele>121.66666666666667</ele><time>2026-04-05T16:04:46.899Z</time></trkpt><trkpt lat="40.07437564638985" lon="18.109331658212913"><ele>122.33333333333334</ele><time>2026-04-05T16:04:47.899Z</time></trkpt><trkpt lat="40.07445136399517" lon="18.109524664944523"><ele>123.0</ele><time>2026-04-05T16:04:48.899Z</time></trkpt><trkpt lat="40.07452898666536" lon="18.1097279736625"><ele>123.33333333333334</ele><time>2026-04-05T16:04:49.899Z</time></trkpt><trkpt lat="40.07461409054365" lon="18.10994082031035"><ele>123.66666666666667</ele><time>2026-04-05T16:04:50.899Z</time></trkpt><trkpt lat="40.07470046005605" lon="18.11016065676031"><ele>124.0</ele><time>2026-04-05T16:04:51.899Z</time></trkpt><trkpt lat="40.07479255959219" lon="18.11039587219421"><ele>124.0</ele><time>2026-04-05T16:04:52.899Z</time></trkpt><trkpt lat="40.07489121941896" lon="18.11063353519366"><ele>124.0</ele><time>2026-04-05T16:04:53.899Z</time></trkpt><trkpt lat="40.07499175965392" lon="18.11088296824304"><ele>124.0</ele><time>2026-04-05T16:04:54.899Z</time></trkpt><trkpt lat="40.07509842203378" lon="18.111119951757715"><ele>124.66666666666667</ele><time>2026-04-05T16:04:55.899Z</time></trkpt><trkpt lat="40.07520386926948" lon="18.111343190036873"><ele>125.33333333333334</ele><time>2026-04-05T16:04:56.899Z</time></trkpt><trkpt lat="40.07528371535567" lon="18.11155475486868"><ele>126.0</ele><time>2026-04-05T16:04:57.899Z</time></trkpt><trkpt lat="40.07533780339261" lon="18.1117957628282"><ele>126.0</ele><time>2026-04-05T16:04:58.899Z</time></trkpt><trkpt lat="40.075415004894055" lon="18.112020553626312"><ele>126.0</ele><time>2026-04-05T16:04:59.899Z</time></trkpt><trkpt lat="40.07549002553908" lon="18.11225184594967"><ele>126.0</ele><time>2026-04-05T16:05:00.899Z</time></trkpt><trkpt lat="40.075562862957156" lon="18.112488617110444"><ele>126.66666666666666</ele><time>2026-04-05T16:05:01.899Z</time></trkpt><trkpt lat="40.07563881461962" lon="18.112723704699256"><ele>127.33333333333333</ele><time>2026-04-05T16:05:02.899Z</time></trkpt><trkpt lat="40.07571933547908" lon="18.112952500726635"><ele>128.0</ele><time>2026-04-05T16:05:03.899Z</time></trkpt><trkpt lat="40.07582817683525" lon="18.113158176211225"><ele>128.66666666666666</ele><time>2026-04-05T16:05:04.899Z</time></trkpt><trkpt lat="40.07594890574128" lon="18.113362958475307"><ele>129.33333333333334</ele><time>2026-04-05T16:05:05.899Z</time></trkpt><trkpt lat="40.07605299614555" lon="18.113588339816605"><ele>130.0</ele><time>2026-04-05T16:05:06.899Z</time></trkpt><trkpt lat="40.07615674554044" lon="18.113828514436108"><ele>130.0</ele><time>2026-04-05T16:05:07.899Z</time></trkpt><trkpt lat="40.07628359174191" lon="18.11404933835148"><ele>130.0</ele><time>2026-04-05T16:05:08.899Z</time></trkpt><trkpt lat="40.07641892609246" lon="18.114264630325543"><ele>130.0</ele><time>2026-04-05T16:05:09.899Z</time></trkpt><trkpt lat="40.076547671658986" lon="18.114496056184855"><ele>131.33333333333334</ele><time>2026-04-05T16:05:10.899Z</time></trkpt><trkpt lat="40.0766849961748" lon="18.114731510650106"><ele>132.66666666666666</ele><time>2026-04-05T16:05:11.899Z</time></trkpt><trkpt lat="40.076811500278424" lon="18.114918900805574"><ele>134.0</ele><time>2026-04-05T16:05:12.899Z</time></trkpt><trkpt lat="40.07692968112123" lon="18.11510292158469"><ele>135.0</ele><time>2026-04-05T16:05:13.899Z</time></trkpt><trkpt lat="40.077044398722336" lon="18.11529034937939"><ele>136.0</ele><time>2026-04-05T16:05:14.899Z</time></trkpt><trkpt lat="40.077111516432744" lon="18.11547503023097"><ele>137.0</ele><time>2026-04-05T16:05:15.899Z</time></trkpt><trkpt lat="40.07711446212289" lon="18.11561205457003"><ele>138.0</ele><time>2026-04-05T16:05:16.899Z</time></trkpt><trkpt lat="40.07706371172221" lon="18.115781835633946"><ele>138.5</ele><time>2026-04-05T16:05:17.899Z</time></trkpt><trkpt lat="40.076770562297654" lon="18.116004946244217"><ele>139.0</ele><time>2026-04-05T16:05:18.899Z</time></trkpt><trkpt lat="40.07676903270434" lon="18.11622757125551"><ele>139.0</ele><time>2026-04-05T16:05:19.899Z</time></trkpt><trkpt lat="40.07677242101702" lon="18.116451093508417"><ele>139.0</ele><time>2026-04-05T16:05:20.899Z</time></trkpt><trkpt lat="40.07678046874334" lon="18.11667750792065"><ele>139.0</ele><time>2026-04-05T16:05:21.899Z</time></trkpt><trkpt lat="40.07679026487406" lon="18.11690898223595"><ele>140.0</ele><time>2026-04-05T16:05:22.899Z</time></trkpt><trkpt lat="40.0768012122249" lon="18.11714628602254"><ele>141.0</ele><time>2026-04-05T16:05:23.899Z</time></trkpt><trkpt lat="40.07681040171631" lon="18.11738097595093"><ele>142.0</ele><time>2026-04-05T16:05:24.899Z</time></trkpt><trkpt lat="40.07681842789671" lon="18.11761341287157"><ele>143.0</ele><time>2026-04-05T16:05:25.899Z</time></trkpt><trkpt lat="40.07682654444907" lon="18.11784634526591"><ele>144.0</ele><time>2026-04-05T16:05:26.899Z</time></trkpt><trkpt lat="40.07683601211309" lon="18.11807951720147"><ele>145.0</ele><time>2026-04-05T16:05:27.899Z</time></trkpt><trkpt lat="40.07684911882308" lon="18.118310248263814"><ele>145.66666666666669</ele><time>2026-04-05T16:05:28.899Z</time></trkpt><trkpt lat="40.07685917068963" lon="18.118540233500944"><ele>146.33333333333334</ele><time>2026-04-05T16:05:29.899Z</time></trkpt><trkpt lat="40.076866509048" lon="18.118773290094996"><ele>147.0</ele><time>2026-04-05T16:05:30.899Z</time></trkpt><trkpt lat="40.07687486276232" lon="18.119007341991907"><ele>148.0</ele><time>2026-04-05T16:05:31.899Z</time></trkpt><trkpt lat="40.07688027203821" lon="18.119243315095083"><ele>149.0</ele><time>2026-04-05T16:05:32.899Z</time></trkpt><trkpt lat="40.076886142263746" lon="18.119477859327255"><ele>150.0</ele><time>2026-04-05T16:05:33.899Z</time></trkpt><trkpt lat="40.07689289660719" lon="18.119715014924946"><ele>151.33333333333334</ele><time>2026-04-05T16:05:34.899Z</time></trkpt><trkpt lat="40.076900953864076" lon="18.119952912694"><ele>152.66666666666669</ele><time>2026-04-05T16:05:35.899Z</time></trkpt><trkpt lat="40.076909559788994" lon="18.120195720396122"><ele>154.0</ele><time>2026-04-05T16:05:36.899Z</time></trkpt><trkpt lat="40.07691899779527" lon="18.120434784690993"><ele>154.0</ele><time>2026-04-05T16:05:37.899Z</time></trkpt><trkpt lat="40.076927087536895" lon="18.12067577114242"><ele>154.0</ele><time>2026-04-05T16:05:38.899Z</time></trkpt><trkpt lat="40.076935861878226" lon="18.120915149123768"><ele>154.0</ele><time>2026-04-05T16:05:39.899Z</time></trkpt><trkpt lat="40.07694285895993" lon="18.121154604309048"><ele>154.66666666666669</ele><time>2026-04-05T16:05:40.899Z</time></trkpt><trkpt lat="40.076945679906096" lon="18.12139224160563"><ele>155.33333333333334</ele><time>2026-04-05T16:05:41.899Z</time></trkpt><trkpt lat="40.07695015045555" lon="18.12162985429619"><ele>156.0</ele><time>2026-04-05T16:05:42.899Z</time></trkpt><trkpt lat="40.07696017056497" lon="18.121875153837642"><ele>156.66666666666666</ele><time>2026-04-05T16:05:43.899Z</time></trkpt><trkpt lat="40.07696875587346" lon="18.122124573388643"><ele>157.33333333333331</ele><time>2026-04-05T16:05:44.899Z</time></trkpt><trkpt lat="40.07697666516032" lon="18.122367824134386"><ele>158.0</ele><time>2026-04-05T16:05:45.899Z</time></trkpt><trkpt lat="40.076986404933635" lon="18.12261174607041"><ele>159.0</ele><time>2026-04-05T16:05:46.899Z</time></trkpt><trkpt lat="40.07699051453117" lon="18.122868985233307"><ele>160.0</ele><time>2026-04-05T16:05:47.899Z</time></trkpt><trkpt lat="40.07699773310784" lon="18.12312435454849"><ele>161.0</ele><time>2026-04-05T16:05:48.899Z</time></trkpt><trkpt lat="40.07699703654485" lon="18.123397231142846"><ele>161.0</ele><time>2026-04-05T16:05:49.899Z</time></trkpt><trkpt lat="40.07701074941156" lon="18.123675277802498"><ele>161.0</ele><time>2026-04-05T16:05:50.899Z</time></trkpt><trkpt lat="40.077017192903654" lon="18.123952049590454"><ele>161.0</ele><time>2026-04-05T16:05:51.899Z</time></trkpt><trkpt lat="40.07702115526405" lon="18.124228381956044"><ele>161.0</ele><time>2026-04-05T16:05:52.899Z</time></trkpt><trkpt lat="40.077029211611055" lon="18.124503512165408"><ele>161.0</ele><time>2026-04-05T16:05:53.899Z</time></trkpt><trkpt lat="40.07703980769701" lon="18.124777922568224"><ele>161.0</ele><time>2026-04-05T16:05:54.899Z</time></trkpt><trkpt lat="40.07705027009427" lon="18.12506232083049"><ele>161.0</ele><time>2026-04-05T16:05:55.899Z</time></trkpt><trkpt lat="40.07705894623487" lon="18.125343426667893"><ele>161.0</ele><time>2026-04-05T16:05:56.899Z</time></trkpt><trkpt lat="40.077066945235835" lon="18.125622803177194"><ele>161.0</ele><time>2026-04-05T16:05:57.899Z</time></trkpt><trkpt lat="40.07707601599848" lon="18.125906724949267"><ele>161.0</ele><time>2026-04-05T16:05:58.899Z</time></trkpt><trkpt lat="40.07708619926659" lon="18.126187300329914"><ele>161.0</ele><time>2026-04-05T16:05:59.899Z</time></trkpt><trkpt lat="40.07709909972125" lon="18.1264667890482"><ele>161.0</ele><time>2026-04-05T16:06:00.899Z</time></trkpt><trkpt lat="40.077109978840596" lon="18.12674767558702"><ele>161.0</ele><time>2026-04-05T16:06:01.899Z</time></trkpt><trkpt lat="40.07711728642078" lon="18.127026917611232"><ele>161.0</ele><time>2026-04-05T16:06:02.899Z</time></trkpt><trkpt lat="40.077122932292404" lon="18.127305062584355"><ele>161.0</ele><time>2026-04-05T16:06:03.899Z</time></trkpt><trkpt lat="40.07713157238368" lon="18.127583680658702"><ele>161.66666666666666</ele><time>2026-04-05T16:06:04.899Z</time></trkpt><trkpt lat="40.07714430798994" lon="18.12785475272751"><ele>162.33333333333334</ele><time>2026-04-05T16:06:05.899Z</time></trkpt><trkpt lat="40.077157269749435" lon="18.12812479117627"><ele>163.0</ele><time>2026-04-05T16:06:06.898Z</time></trkpt><trkpt lat="40.07717859849184" lon="18.128379167057528"><ele>163.66666666666669</ele><time>2026-04-05T16:06:07.898Z</time></trkpt><trkpt lat="40.07718502306861" lon="18.128654294550124"><ele>164.33333333333334</ele><time>2026-04-05T16:06:08.898Z</time></trkpt><trkpt lat="40.07718615718234" lon="18.12892394898099"><ele>165.0</ele><time>2026-04-05T16:06:09.898Z</time></trkpt><trkpt lat="40.077182118005915" lon="18.129190945706547"><ele>165.33333333333334</ele><time>2026-04-05T16:06:10.898Z</time></trkpt><trkpt lat="40.07718589394055" lon="18.129450523648625"><ele>165.66666666666669</ele><time>2026-04-05T16:06:11.898Z</time></trkpt><trkpt lat="40.077200563991354" lon="18.12970535423295"><ele>166.0</ele><time>2026-04-05T16:06:12.898Z</time></trkpt><trkpt lat="40.07720995744943" lon="18.129922859224525"><ele>167.0</ele><time>2026-04-05T16:06:13.898Z</time></trkpt><trkpt lat="40.07721736154873" lon="18.130130166881877"><ele>168.0</ele><time>2026-04-05T16:06:14.898Z</time></trkpt><trkpt lat="40.07722625385723" lon="18.130338290807867"><ele>169.0</ele><time>2026-04-05T16:06:15.898Z</time></trkpt><trkpt lat="40.07723516022706" lon="18.130538030004352"><ele>169.0</ele><time>2026-04-05T16:06:16.898Z</time></trkpt><trkpt lat="40.07723579870183" lon="18.130731417465565"><ele>169.0</ele><time>2026-04-05T16:06:17.898Z</time></trkpt><trkpt lat="40.07723990662049" lon="18.130911145246284"><ele>169.0</ele><time>2026-04-05T16:06:18.898Z</time></trkpt><trkpt lat="40.077251272567494" lon="18.131060534217948"><ele>169.0</ele><time>2026-04-05T16:06:19.898Z</time></trkpt><trkpt lat="40.07725645076963" lon="18.131177327579127"><ele>169.0</ele><time>2026-04-05T16:06:20.898Z</time></trkpt><trkpt lat="40.07726659621467" lon="18.13128255647461"><ele>169.0</ele><time>2026-04-05T16:06:21.898Z</time></trkpt><trkpt lat="40.077244171212065" lon="18.13136806388672"><ele>169.0</ele><time>2026-04-05T16:06:23.898Z</time></trkpt><trkpt lat="40.07715974294656" lon="18.131411652014876"><ele>169.0</ele><time>2026-04-05T16:06:25.898Z</time></trkpt><trkpt lat="40.077039804320044" lon="18.13146109824041"><ele>169.0</ele><time>2026-04-05T16:06:27.898Z</time></trkpt><trkpt lat="40.076973904805314" lon="18.13149415642608"><ele>169.0</ele><time>2026-04-05T16:06:28.898Z</time></trkpt><trkpt lat="40.076902102229944" lon="18.1315349007471"><ele>168.6</ele><time>2026-04-05T16:06:29.898Z</time></trkpt><trkpt lat="40.07682120200682" lon="18.131579529684068"><ele>168.2</ele><time>2026-04-05T16:06:30.898Z</time></trkpt><trkpt lat="40.076732870285724" lon="18.13161945870525"><ele>167.79999999999998</ele><time>2026-04-05T16:06:31.898Z</time></trkpt><trkpt lat="40.07663964969563" lon="18.131652802957106"><ele>167.39999999999998</ele><time>2026-04-05T16:06:32.898Z</time></trkpt><trkpt lat="40.076547476273156" lon="18.13168840110314"><ele>167.0</ele><time>2026-04-05T16:06:33.898Z</time></trkpt><trkpt lat="40.07645561713732" lon="18.131726045985378"><ele>167.8</ele><time>2026-04-05T16:06:34.898Z</time></trkpt><trkpt lat="40.07636532156488" lon="18.131766528469733"><ele>168.6</ele><time>2026-04-05T16:06:35.898Z</time></trkpt><trkpt lat="40.076274307735716" lon="18.1318095846789"><ele>169.4</ele><time>2026-04-05T16:06:36.898Z</time></trkpt><trkpt lat="40.07618326673438" lon="18.13185160565134"><ele>170.20000000000002</ele><time>2026-04-05T16:06:37.898Z</time></trkpt><trkpt lat="40.07610019675809" lon="18.131893024667132"><ele>171.0</ele><time>2026-04-05T16:06:38.898Z</time></trkpt><trkpt lat="40.07602350273802" lon="18.131924522920155"><ele>171.0</ele><time>2026-04-05T16:06:39.898Z</time></trkpt><trkpt lat="40.075945564159206" lon="18.131960192975022"><ele>171.0</ele><time>2026-04-05T16:06:40.898Z</time></trkpt><trkpt lat="40.075868413255506" lon="18.1319996130194"><ele>171.0</ele><time>2026-04-05T16:06:41.898Z</time></trkpt><trkpt lat="40.07578341051554" lon="18.13203745284559"><ele>171.0</ele><time>2026-04-05T16:06:42.898Z</time></trkpt><trkpt lat="40.075705078245726" lon="18.13207057896622"><ele>171.0</ele><time>2026-04-05T16:06:43.898Z</time></trkpt><trkpt lat="40.07562762885278" lon="18.13210541719902"><ele>171.0</ele><time>2026-04-05T16:06:44.898Z</time></trkpt><trkpt lat="40.07555998176973" lon="18.132135610813148"><ele>170.83333333333334</ele><time>2026-04-05T16:06:45.898Z</time></trkpt><trkpt lat="40.07546224379667" lon="18.132178385282025"><ele>170.66666666666666</ele><time>2026-04-05T16:06:47.898Z</time></trkpt><trkpt lat="40.07539493278359" lon="18.132233370165576"><ele>170.5</ele><time>2026-04-05T16:06:49.898Z</time></trkpt><trkpt lat="40.075353216130786" lon="18.132318970126104"><ele>170.33333333333331</ele><time>2026-04-05T16:06:51.898Z</time></trkpt><trkpt lat="40.075308742392075" lon="18.132443861414103"><ele>170.16666666666666</ele><time>2026-04-05T16:06:53.898Z</time></trkpt><trkpt lat="40.07528030883562" lon="18.132520595980964"><ele>170.0</ele><time>2026-04-05T16:06:54.898Z</time></trkpt><trkpt lat="40.075254114780094" lon="18.132615032527838"><ele>169.83333333333331</ele><time>2026-04-05T16:06:55.898Z</time></trkpt><trkpt lat="40.07522826729075" lon="18.132711435501985"><ele>169.66666666666666</ele><time>2026-04-05T16:06:56.898Z</time></trkpt><trkpt lat="40.07519519048442" lon="18.1328136538818"><ele>169.5</ele><time>2026-04-05T16:06:57.898Z</time></trkpt><trkpt lat="40.075163182572496" lon="18.132925801368888"><ele>169.33333333333334</ele><time>2026-04-05T16:06:58.898Z</time></trkpt><trkpt lat="40.07513072136787" lon="18.133036077207876"><ele>169.16666666666669</ele><time>2026-04-05T16:06:59.898Z</time></trkpt><trkpt lat="40.075096417029535" lon="18.13314397479107"><ele>169.0</ele><time>2026-04-05T16:07:00.898Z</time></trkpt><trkpt lat="40.07506367502278" lon="18.13325644460376"><ele>169.0</ele><time>2026-04-05T16:07:01.898Z</time></trkpt><trkpt lat="40.0750300047818" lon="18.133371347832924"><ele>169.0</ele><time>2026-04-05T16:07:02.898Z</time></trkpt><trkpt lat="40.07499757496048" lon="18.13348143437664"><ele>169.0</ele><time>2026-04-05T16:07:03.898Z</time></trkpt><trkpt lat="40.07496496103666" lon="18.13359860346175"><ele>169.0</ele><time>2026-04-05T16:07:04.898Z</time></trkpt><trkpt lat="40.07492811833279" lon="18.133720276619556"><ele>169.0</ele><time>2026-04-05T16:07:05.898Z</time></trkpt><trkpt lat="40.074896873627274" lon="18.133839240320736"><ele>169.0</ele><time>2026-04-05T16:07:06.898Z</time></trkpt><trkpt lat="40.07486436061574" lon="18.133963282223668"><ele>169.0</ele><time>2026-04-05T16:07:07.898Z</time></trkpt><trkpt lat="40.07483423876244" lon="18.134079699765874"><ele>169.0</ele><time>2026-04-05T16:07:08.898Z</time></trkpt><trkpt lat="40.07479729439414" lon="18.13420207455204"><ele>169.0</ele><time>2026-04-05T16:07:09.898Z</time></trkpt><trkpt lat="40.0747604860117" lon="18.134330248020564"><ele>169.0</ele><time>2026-04-05T16:07:10.898Z</time></trkpt><trkpt lat="40.0747218692155" lon="18.134460713799847"><ele>169.2</ele><time>2026-04-05T16:07:11.898Z</time></trkpt><trkpt lat="40.074679305993556" lon="18.134592425746405"><ele>169.39999999999998</ele><time>2026-04-05T16:07:12.898Z</time></trkpt><trkpt lat="40.07463785686287" lon="18.134725432643855"><ele>169.6</ele><time>2026-04-05T16:07:13.898Z</time></trkpt><trkpt lat="40.0745992869892" lon="18.13485248994843"><ele>169.8</ele><time>2026-04-05T16:07:14.898Z</time></trkpt><trkpt lat="40.0745621917652" lon="18.134985683101604"><ele>170.0</ele><time>2026-04-05T16:07:15.898Z</time></trkpt><trkpt lat="40.0745257756217" lon="18.13511096147564"><ele>169.4</ele><time>2026-04-05T16:07:16.898Z</time></trkpt><trkpt lat="40.07448575869068" lon="18.13523238085849"><ele>168.8</ele><time>2026-04-05T16:07:17.898Z</time></trkpt><trkpt lat="40.0744472492136" lon="18.135349710052417"><ele>168.2</ele><time>2026-04-05T16:07:18.898Z</time></trkpt><trkpt lat="40.07441369651188" lon="18.1354570954303"><ele>167.6</ele><time>2026-04-05T16:07:19.898Z</time></trkpt><trkpt lat="40.07438168931981" lon="18.13556120511566"><ele>167.0</ele><time>2026-04-05T16:07:20.898Z</time></trkpt><trkpt lat="40.07434309082759" lon="18.13567274015581"><ele>166.66666666666666</ele><time>2026-04-05T16:07:21.898Z</time></trkpt><trkpt lat="40.074306849249034" lon="18.135782881560857"><ele>166.33333333333331</ele><time>2026-04-05T16:07:22.898Z</time></trkpt><trkpt lat="40.074276156421185" lon="18.135889596360297"><ele>166.0</ele><time>2026-04-05T16:07:23.898Z</time></trkpt><trkpt lat="40.07424344577391" lon="18.13599713909966"><ele>165.66666666666666</ele><time>2026-04-05T16:07:24.898Z</time></trkpt><trkpt lat="40.07421061740108" lon="18.13610445226985"><ele>165.33333333333334</ele><time>2026-04-05T16:07:25.898Z</time></trkpt><trkpt lat="40.07418112554216" lon="18.1362143942364"><ele>165.0</ele><time>2026-04-05T16:07:26.898Z</time></trkpt><trkpt lat="40.07414908561291" lon="18.136327427144874"><ele>165.0</ele><time>2026-04-05T16:07:27.898Z</time></trkpt><trkpt lat="40.07411598582768" lon="18.136438611223024"><ele>165.0</ele><time>2026-04-05T16:07:28.898Z</time></trkpt><trkpt lat="40.074085169629534" lon="18.136539520263945"><ele>165.0</ele><time>2026-04-05T16:07:29.898Z</time></trkpt><trkpt lat="40.0740583258182" lon="18.13663137143656"><ele>165.0</ele><time>2026-04-05T16:07:30.898Z</time></trkpt><trkpt lat="40.07403561652224" lon="18.136714917355945"><ele>165.0</ele><time>2026-04-05T16:07:31.898Z</time></trkpt><trkpt lat="40.07400876927695" lon="18.136795128479697"><ele>165.0</ele><time>2026-04-05T16:07:32.898Z</time></trkpt><trkpt lat="40.0739517866517" lon="18.13691784443855"><ele>166.4</ele><time>2026-04-05T16:07:34.898Z</time></trkpt><trkpt lat="40.0738702761985" lon="18.137007488808766"><ele>167.8</ele><time>2026-04-05T16:07:36.898Z</time></trkpt><trkpt lat="40.07375875422039" lon="18.13708588008249"><ele>169.2</ele><time>2026-04-05T16:07:38.898Z</time></trkpt><trkpt lat="40.07368383742755" lon="18.137129994562226"><ele>170.6</ele><time>2026-04-05T16:07:39.898Z</time></trkpt><trkpt lat="40.07360188360383" lon="18.13718708722377"><ele>172.0</ele><time>2026-04-05T16:07:40.898Z</time></trkpt><trkpt lat="40.07351481253804" lon="18.137256040235552"><ele>172.0</ele><time>2026-04-05T16:07:41.898Z</time></trkpt><trkpt lat="40.07342290832513" lon="18.137327901715476"><ele>172.0</ele><time>2026-04-05T16:07:42.898Z</time></trkpt><trkpt lat="40.073327501765284" lon="18.137404805355207"><ele>172.0</ele><time>2026-04-05T16:07:43.898Z</time></trkpt><trkpt lat="40.07322870308047" lon="18.137485915962078"><ele>172.0</ele><time>2026-04-05T16:07:44.898Z</time></trkpt><trkpt lat="40.0731199613641" lon="18.137567871916275"><ele>172.0</ele><time>2026-04-05T16:07:45.898Z</time></trkpt><trkpt lat="40.07301078717141" lon="18.13764834904713"><ele>172.0</ele><time>2026-04-05T16:07:46.898Z</time></trkpt><trkpt lat="40.072901572428954" lon="18.13772778428528"><ele>172.0</ele><time>2026-04-05T16:07:47.898Z</time></trkpt><trkpt lat="40.072803042468095" lon="18.137806564828423"><ele>172.0</ele><time>2026-04-05T16:07:48.898Z</time></trkpt><trkpt lat="40.07270617544903" lon="18.137884232601913"><ele>172.0</ele><time>2026-04-05T16:07:49.898Z</time></trkpt><trkpt lat="40.072609890496686" lon="18.137956707198015"><ele>172.0</ele><time>2026-04-05T16:07:50.898Z</time></trkpt><trkpt lat="40.07251650586916" lon="18.13802924631068"><ele>172.0</ele><time>2026-04-05T16:07:51.898Z</time></trkpt><trkpt lat="40.07242212158614" lon="18.13809944646641"><ele>172.0</ele><time>2026-04-05T16:07:52.898Z</time></trkpt><trkpt lat="40.07233093125571" lon="18.138167011507136"><ele>172.0</ele><time>2026-04-05T16:07:53.898Z</time></trkpt><trkpt lat="40.07224291966642" lon="18.138234192457297"><ele>172.8</ele><time>2026-04-05T16:07:54.898Z</time></trkpt><trkpt lat="40.07214175647876" lon="18.13830846260629"><ele>173.6</ele><time>2026-04-05T16:07:55.897Z</time></trkpt><trkpt lat="40.072041779884685" lon="18.138381258181372"><ele>174.4</ele><time>2026-04-05T16:07:56.897Z</time></trkpt><trkpt lat="40.071946944116405" lon="18.138452693911745"><ele>175.20000000000002</ele><time>2026-04-05T16:07:57.897Z</time></trkpt><trkpt lat="40.07185342675589" lon="18.138521545145192"><ele>176.0</ele><time>2026-04-05T16:07:58.897Z</time></trkpt><trkpt lat="40.07176749912525" lon="18.13858434099601"><ele>176.0</ele><time>2026-04-05T16:07:59.898Z</time></trkpt><trkpt lat="40.07169885327088" lon="18.138642118235367"><ele>176.0</ele><time>2026-04-05T16:08:00.898Z</time></trkpt><trkpt lat="40.07164136249757" lon="18.138687748127953"><ele>176.0</ele><time>2026-04-05T16:08:01.898Z</time></trkpt><trkpt lat="40.071544502238304" lon="18.138742146826644"><ele>176.0</ele><time>2026-04-05T16:08:03.898Z</time></trkpt><trkpt lat="40.071427496510104" lon="18.13871496204002"><ele>176.0</ele><time>2026-04-05T16:08:05.898Z</time></trkpt><trkpt lat="40.071374339855105" lon="18.138665590557515"><ele>176.0</ele><time>2026-04-05T16:08:06.898Z</time></trkpt><trkpt lat="40.07131416487261" lon="18.138601867462857"><ele>176.33333333333331</ele><time>2026-04-05T16:08:07.898Z</time></trkpt><trkpt lat="40.07125652086034" lon="18.138530765848273"><ele>176.66666666666666</ele><time>2026-04-05T16:08:08.898Z</time></trkpt><trkpt lat="40.07119593645842" lon="18.138460036069837"><ele>177.0</ele><time>2026-04-05T16:08:09.898Z</time></trkpt><trkpt lat="40.07112777565329" lon="18.13839218132018"><ele>177.33333333333334</ele><time>2026-04-05T16:08:10.898Z</time></trkpt><trkpt lat="40.07106263794085" lon="18.13832846462987"><ele>177.66666666666669</ele><time>2026-04-05T16:08:11.898Z</time></trkpt><trkpt lat="40.070999551060034" lon="18.13826614323066"><ele>178.0</ele><time>2026-04-05T16:08:12.898Z</time></trkpt><trkpt lat="40.07093824198504" lon="18.138203876403768"><ele>178.33333333333334</ele><time>2026-04-05T16:08:13.898Z</time></trkpt><trkpt lat="40.0708775418927" lon="18.13814008320386"><ele>178.66666666666669</ele><time>2026-04-05T16:08:14.898Z</time></trkpt><trkpt lat="40.070818083912556" lon="18.13807833741015"><ele>179.0</ele><time>2026-04-05T16:08:15.898Z</time></trkpt><trkpt lat="40.07076372359616" lon="18.138021627290218"><ele>179.33333333333334</ele><time>2026-04-05T16:08:16.897Z</time></trkpt><trkpt lat="40.0707125046045" lon="18.137971509325588"><ele>179.66666666666666</ele><time>2026-04-05T16:08:17.897Z</time></trkpt><trkpt lat="40.07062178583062" lon="18.13790241999871"><ele>180.0</ele><time>2026-04-05T16:08:19.897Z</time></trkpt><trkpt lat="40.07053984793431" lon="18.137896040232285"><ele>180.2</ele><time>2026-04-05T16:08:21.897Z</time></trkpt><trkpt lat="40.070434886396775" lon="18.137956223685055"><ele>180.4</ele><time>2026-04-05T16:08:23.897Z</time></trkpt><trkpt lat="40.07037830727789" lon="18.137996133551198"><ele>180.60000000000002</ele><time>2026-04-05T16:08:24.897Z</time></trkpt><trkpt lat="40.07032134049154" lon="18.138036376175066"><ele>180.8</ele><time>2026-04-05T16:08:25.897Z</time></trkpt><trkpt lat="40.070211789124535" lon="18.13810863886683"><ele>181.0</ele><time>2026-04-05T16:08:27.897Z</time></trkpt><trkpt lat="40.070099997444586" lon="18.13818090585043"><ele>180.83333333333334</ele><time>2026-04-05T16:08:29.897Z</time></trkpt><trkpt lat="40.070036504988785" lon="18.138221690974053"><ele>180.66666666666669</ele><time>2026-04-05T16:08:30.897Z</time></trkpt><trkpt lat="40.0699623386033" lon="18.138268247279665"><ele>180.5</ele><time>2026-04-05T16:08:31.897Z</time></trkpt><trkpt lat="40.06988078585289" lon="18.13831532139067"><ele>180.33333333333334</ele><time>2026-04-05T16:08:32.897Z</time></trkpt><trkpt lat="40.069796287527204" lon="18.138367952040685"><ele>180.16666666666666</ele><time>2026-04-05T16:08:33.897Z</time></trkpt><trkpt lat="40.06971354112015" lon="18.138419430397494"><ele>180.0</ele><time>2026-04-05T16:08:34.897Z</time></trkpt><trkpt lat="40.06963250574255" lon="18.13847073579028"><ele>180.33333333333334</ele><time>2026-04-05T16:08:35.897Z</time></trkpt><trkpt lat="40.069554794193984" lon="18.138516921473585"><ele>180.66666666666666</ele><time>2026-04-05T16:08:36.897Z</time></trkpt><trkpt lat="40.06948101252193" lon="18.13855757097021"><ele>181.0</ele><time>2026-04-05T16:08:37.897Z</time></trkpt><trkpt lat="40.06941037496931" lon="18.13860180963795"><ele>181.33333333333331</ele><time>2026-04-05T16:08:38.897Z</time></trkpt><trkpt lat="40.06933804303403" lon="18.138642807711822"><ele>181.66666666666666</ele><time>2026-04-05T16:08:39.897Z</time></trkpt><trkpt lat="40.069263305519435" lon="18.13869312685179"><ele>182.0</ele><time>2026-04-05T16:08:40.897Z</time></trkpt><trkpt lat="40.06919165801671" lon="18.13874391545295"><ele>182.0</ele><time>2026-04-05T16:08:41.897Z</time></trkpt><trkpt lat="40.06912224847663" lon="18.13879366201101"><ele>182.0</ele><time>2026-04-05T16:08:42.897Z</time></trkpt><trkpt lat="40.06905732391753" lon="18.138840449459295"><ele>182.0</ele><time>2026-04-05T16:08:43.897Z</time></trkpt><trkpt lat="40.06899448708194" lon="18.1388832221779"><ele>182.0</ele><time>2026-04-05T16:08:44.897Z</time></trkpt><trkpt lat="40.06893110230544" lon="18.138926158138492"><ele>182.0</ele><time>2026-04-05T16:08:45.897Z</time></trkpt><trkpt lat="40.06886846939225" lon="18.138966044929514"><ele>182.0</ele><time>2026-04-05T16:08:46.897Z</time></trkpt><trkpt lat="40.06879804203873" lon="18.13900487593407"><ele>182.0</ele><time>2026-04-05T16:08:47.897Z</time></trkpt><trkpt lat="40.06872135442875" lon="18.1390530150108"><ele>182.39999999999998</ele><time>2026-04-05T16:08:48.897Z</time></trkpt><trkpt lat="40.068644418172795" lon="18.139107575940656"><ele>182.79999999999998</ele><time>2026-04-05T16:08:49.897Z</time></trkpt><trkpt lat="40.06855775443719" lon="18.13916390805616"><ele>183.2</ele><time>2026-04-05T16:08:50.897Z</time></trkpt><trkpt lat="40.06846744990159" lon="18.139221448184685"><ele>183.6</ele><time>2026-04-05T16:08:51.897Z</time></trkpt><trkpt lat="40.068372667510744" lon="18.139282514203167"><ele>184.0</ele><time>2026-04-05T16:08:52.897Z</time></trkpt><trkpt lat="40.06826799724895" lon="18.139340729055263"><ele>184.75</ele><time>2026-04-05T16:08:53.897Z</time></trkpt><trkpt lat="40.068150391284334" lon="18.139416392635766"><ele>185.5</ele><time>2026-04-05T16:08:54.897Z</time></trkpt><trkpt lat="40.068046532067214" lon="18.13948862094592"><ele>186.25</ele><time>2026-04-05T16:08:55.897Z</time></trkpt><trkpt lat="40.067949711772535" lon="18.139553314533373"><ele>187.0</ele><time>2026-04-05T16:08:56.897Z</time></trkpt><trkpt lat="40.06785489781161" lon="18.13961227980899"><ele>187.0</ele><time>2026-04-05T16:08:57.897Z</time></trkpt><trkpt lat="40.06776012294883" lon="18.139665838837775"><ele>187.0</ele><time>2026-04-05T16:08:58.897Z</time></trkpt><trkpt lat="40.067672346547276" lon="18.139731764243603"><ele>187.0</ele><time>2026-04-05T16:08:59.897Z</time></trkpt><trkpt lat="40.06758509712643" lon="18.13978617341388"><ele>187.0</ele><time>2026-04-05T16:09:00.897Z</time></trkpt><trkpt lat="40.06750538611709" lon="18.139850153327746"><ele>187.0</ele><time>2026-04-05T16:09:01.897Z</time></trkpt><trkpt lat="40.06742653515194" lon="18.139912830552205"><ele>186.39999999999998</ele><time>2026-04-05T16:09:02.897Z</time></trkpt><trkpt lat="40.067338350407546" lon="18.13997158610615"><ele>185.79999999999998</ele><time>2026-04-05T16:09:03.897Z</time></trkpt><trkpt lat="40.06725669984152" lon="18.14003330720526"><ele>185.2</ele><time>2026-04-05T16:09:04.897Z</time></trkpt><trkpt lat="40.06717861618104" lon="18.140088231901938"><ele>184.6</ele><time>2026-04-05T16:09:05.897Z</time></trkpt><trkpt lat="40.06709943576878" lon="18.14014227243928"><ele>184.0</ele><time>2026-04-05T16:09:06.897Z</time></trkpt><trkpt lat="40.06702245024101" lon="18.1401941145883"><ele>184.0</ele><time>2026-04-05T16:09:07.897Z</time></trkpt><trkpt lat="40.066945161311715" lon="18.14024587995328"><ele>184.0</ele><time>2026-04-05T16:09:08.897Z</time></trkpt><trkpt lat="40.06686948938816" lon="18.140299526006217"><ele>184.0</ele><time>2026-04-05T16:09:09.897Z</time></trkpt><trkpt lat="40.06679104270994" lon="18.14035348989244"><ele>184.0</ele><time>2026-04-05T16:09:10.897Z</time></trkpt><trkpt lat="40.06671447603767" lon="18.140406660993374"><ele>184.0</ele><time>2026-04-05T16:09:11.897Z</time></trkpt><trkpt lat="40.066638229302065" lon="18.14045680675263"><ele>184.0</ele><time>2026-04-05T16:09:12.897Z</time></trkpt><trkpt lat="40.06655988226048" lon="18.140510357670927"><ele>184.16666666666669</ele><time>2026-04-05T16:09:13.897Z</time></trkpt><trkpt lat="40.06648684044561" lon="18.140568728102455"><ele>184.33333333333334</ele><time>2026-04-05T16:09:14.897Z</time></trkpt><trkpt lat="40.066421690874854" lon="18.140621085489933"><ele>184.5</ele><time>2026-04-05T16:09:15.897Z</time></trkpt><trkpt lat="40.06636198582143" lon="18.140665876472223"><ele>184.66666666666666</ele><time>2026-04-05T16:09:16.897Z</time></trkpt><trkpt lat="40.0663005040254" lon="18.140701404026753"><ele>184.83333333333331</ele><time>2026-04-05T16:09:17.897Z</time></trkpt><trkpt lat="40.066231840095845" lon="18.14073968190524"><ele>185.0</ele><time>2026-04-05T16:09:18.897Z</time></trkpt><trkpt lat="40.06615456295604" lon="18.140781510066287"><ele>185.0</ele><time>2026-04-05T16:09:19.897Z</time></trkpt><trkpt lat="40.066075995934405" lon="18.140829905158462"><ele>185.0</ele><time>2026-04-05T16:09:20.897Z</time></trkpt><trkpt lat="40.06598992853724" lon="18.140877656655242"><ele>185.0</ele><time>2026-04-05T16:09:21.897Z</time></trkpt><trkpt lat="40.065901272670445" lon="18.140933045221"><ele>185.0</ele><time>2026-04-05T16:09:22.897Z</time></trkpt><trkpt lat="40.0658068299251" lon="18.140997042619293"><ele>185.0</ele><time>2026-04-05T16:09:23.897Z</time></trkpt><trkpt lat="40.065702423084666" lon="18.14106593144386"><ele>185.25</ele><time>2026-04-05T16:09:24.897Z</time></trkpt><trkpt lat="40.065593299894154" lon="18.141143325561593"><ele>185.5</ele><time>2026-04-05T16:09:25.897Z</time></trkpt><trkpt lat="40.06547394158632" lon="18.1412293637425"><ele>185.75</ele><time>2026-04-05T16:09:26.897Z</time></trkpt><trkpt lat="40.06535871805064" lon="18.141315296359526"><ele>186.0</ele><time>2026-04-05T16:09:27.897Z</time></trkpt><trkpt lat="40.06524485906476" lon="18.141400741062434"><ele>186.0</ele><time>2026-04-05T16:09:28.897Z</time></trkpt><trkpt lat="40.065127696014216" lon="18.14147869265385"><ele>186.0</ele><time>2026-04-05T16:09:29.897Z</time></trkpt><trkpt lat="40.06501350891451" lon="18.1415594431777"><ele>186.0</ele><time>2026-04-05T16:09:30.897Z</time></trkpt><trkpt lat="40.06489106978581" lon="18.141636737314474"><ele>186.0</ele><time>2026-04-05T16:09:31.897Z</time></trkpt><trkpt lat="40.0647561276157" lon="18.141710740424177"><ele>186.25</ele><time>2026-04-05T16:09:32.897Z</time></trkpt><trkpt lat="40.064620598287135" lon="18.14178080988599"><ele>186.5</ele><time>2026-04-05T16:09:33.897Z</time></trkpt><trkpt lat="40.06449415740548" lon="18.141855652694773"><ele>186.75</ele><time>2026-04-05T16:09:34.897Z</time></trkpt><trkpt lat="40.0643706835621" lon="18.141930432722713"><ele>187.0</ele><time>2026-04-05T16:09:35.897Z</time></trkpt><trkpt lat="40.064252408289015" lon="18.142009065788443"><ele>187.0</ele><time>2026-04-05T16:09:36.897Z</time></trkpt><trkpt lat="40.06413874697029" lon="18.142081640915077"><ele>187.0</ele><time>2026-04-05T16:09:37.897Z</time></trkpt><trkpt lat="40.06402279343152" lon="18.142154815047746"><ele>187.0</ele><time>2026-04-05T16:09:38.897Z</time></trkpt><trkpt lat="40.063909591417776" lon="18.142235574106312"><ele>187.0</ele><time>2026-04-05T16:09:39.897Z</time></trkpt><trkpt lat="40.0637941914888" lon="18.142321286050766"><ele>189.5</ele><time>2026-04-05T16:09:40.897Z</time></trkpt><trkpt lat="40.06367234407366" lon="18.142407452054996"><ele>192.0</ele><time>2026-04-05T16:09:41.897Z</time></trkpt><trkpt lat="40.063552576672436" lon="18.142490271235634"><ele>194.5</ele><time>2026-04-05T16:09:42.897Z</time></trkpt><trkpt lat="40.06343130641378" lon="18.142571839413783"><ele>197.0</ele><time>2026-04-05T16:09:43.897Z</time></trkpt><trkpt lat="40.063308705686005" lon="18.14265513041277"><ele>198.75</ele><time>2026-04-05T16:09:44.897Z</time></trkpt><trkpt lat="40.06318956877091" lon="18.14273751395791"><ele>200.5</ele><time>2026-04-05T16:09:45.897Z</time></trkpt><trkpt lat="40.06306849137923" lon="18.14281563524243"><ele>202.25</ele><time>2026-04-05T16:09:46.897Z</time></trkpt><trkpt lat="40.06294791973289" lon="18.14289772875275"><ele>204.0</ele><time>2026-04-05T16:09:47.897Z</time></trkpt><trkpt lat="40.06283086112915" lon="18.14298245164231"><ele>204.0</ele><time>2026-04-05T16:09:48.897Z</time></trkpt><trkpt lat="40.06271242348298" lon="18.143061930399416"><ele>204.0</ele><time>2026-04-05T16:09:49.897Z</time></trkpt><trkpt lat="40.062593567659256" lon="18.14314415676206"><ele>204.0</ele><time>2026-04-05T16:09:50.897Z</time></trkpt><trkpt lat="40.0624761401091" lon="18.143227415319753"><ele>204.0</ele><time>2026-04-05T16:09:51.897Z</time></trkpt><trkpt lat="40.06235382730978" lon="18.14330333480145"><ele>202.0</ele><time>2026-04-05T16:09:52.897Z</time></trkpt><trkpt lat="40.062239180426666" lon="18.143375068588135"><ele>200.0</ele><time>2026-04-05T16:09:53.897Z</time></trkpt><trkpt lat="40.06212791622485" lon="18.143452722180076"><ele>198.0</ele><time>2026-04-05T16:09:54.897Z</time></trkpt><trkpt lat="40.06201987176382" lon="18.143527313681687"><ele>196.0</ele><time>2026-04-05T16:09:55.897Z</time></trkpt><trkpt lat="40.06191714247673" lon="18.14359412325708"><ele>196.0</ele><time>2026-04-05T16:09:56.897Z</time></trkpt><trkpt lat="40.06180787882374" lon="18.143662751969337"><ele>196.0</ele><time>2026-04-05T16:09:57.897Z</time></trkpt><trkpt lat="40.06170538871891" lon="18.143731272391562"><ele>196.0</ele><time>2026-04-05T16:09:58.897Z</time></trkpt><trkpt lat="40.061601362039916" lon="18.143804238492613"><ele>196.0</ele><time>2026-04-05T16:09:59.897Z</time></trkpt><trkpt lat="40.06149200460693" lon="18.143873645672034"><ele>195.75</ele><time>2026-04-05T16:10:00.897Z</time></trkpt><trkpt lat="40.06137924427491" lon="18.143943471433765"><ele>195.5</ele><time>2026-04-05T16:10:01.897Z</time></trkpt><trkpt lat="40.06127422274703" lon="18.14401769055548"><ele>195.25</ele><time>2026-04-05T16:10:02.897Z</time></trkpt><trkpt lat="40.061173430405795" lon="18.144091367643117"><ele>195.0</ele><time>2026-04-05T16:10:03.897Z</time></trkpt><trkpt lat="40.06107572735293" lon="18.14416503144574"><ele>195.0</ele><time>2026-04-05T16:10:04.897Z</time></trkpt><trkpt lat="40.06097721857443" lon="18.144235619902606"><ele>195.0</ele><time>2026-04-05T16:10:05.897Z</time></trkpt><trkpt lat="40.06087866264775" lon="18.144299321995813"><ele>195.0</ele><time>2026-04-05T16:10:06.897Z</time></trkpt><trkpt lat="40.06078037085049" lon="18.144360550165263"><ele>195.0</ele><time>2026-04-05T16:10:07.897Z</time></trkpt><trkpt lat="40.060682141363095" lon="18.14442361523643"><ele>195.0</ele><time>2026-04-05T16:10:08.897Z</time></trkpt><trkpt lat="40.06059088743963" lon="18.14449048599285"><ele>194.5</ele><time>2026-04-05T16:10:09.897Z</time></trkpt><trkpt lat="40.06049222061044" lon="18.14455761570644"><ele>194.0</ele><time>2026-04-05T16:10:10.897Z</time></trkpt><trkpt lat="40.060383024525564" lon="18.144616593357014"><ele>193.5</ele><time>2026-04-05T16:10:11.897Z</time></trkpt><trkpt lat="40.06027903729925" lon="18.144678011205908"><ele>193.0</ele><time>2026-04-05T16:10:12.897Z</time></trkpt><trkpt lat="40.06018223089853" lon="18.1447500259154"><ele>193.0</ele><time>2026-04-05T16:10:13.897Z</time></trkpt><trkpt lat="40.06008631449268" lon="18.14481560041607"><ele>193.0</ele><time>2026-04-05T16:10:14.897Z</time></trkpt><trkpt lat="40.05999409974859" lon="18.144879767998866"><ele>193.0</ele><time>2026-04-05T16:10:15.897Z</time></trkpt><trkpt lat="40.05990192786781" lon="18.144937773350787"><ele>193.0</ele><time>2026-04-05T16:10:16.897Z</time></trkpt><trkpt lat="40.0598097439668" lon="18.144987298171195"><ele>193.0</ele><time>2026-04-05T16:10:17.897Z</time></trkpt><trkpt lat="40.05971973920812" lon="18.14504052366513"><ele>192.60000000000002</ele><time>2026-04-05T16:10:18.897Z</time></trkpt><trkpt lat="40.059628089825225" lon="18.14509470030431"><ele>192.20000000000002</ele><time>2026-04-05T16:10:19.897Z</time></trkpt><trkpt lat="40.05953543946269" lon="18.145156420430972"><ele>191.8</ele><time>2026-04-05T16:10:20.897Z</time></trkpt><trkpt lat="40.05944020827016" lon="18.14521964100041"><ele>191.4</ele><time>2026-04-05T16:10:21.897Z</time></trkpt><trkpt lat="40.05933690573885" lon="18.145283592199128"><ele>191.0</ele><time>2026-04-05T16:10:22.897Z</time></trkpt><trkpt lat="40.059233206624356" lon="18.14535432769938"><ele>191.0</ele><time>2026-04-05T16:10:23.897Z</time></trkpt><trkpt lat="40.05913424645447" lon="18.145430308145187"><ele>191.0</ele><time>2026-04-05T16:10:24.897Z</time></trkpt><trkpt lat="40.05902991502747" lon="18.145508070063514"><ele>191.0</ele><time>2026-04-05T16:10:25.897Z</time></trkpt><trkpt lat="40.058923986806306" lon="18.14559050156257"><ele>191.0</ele><time>2026-04-05T16:10:26.897Z</time></trkpt><trkpt lat="40.05882813715279" lon="18.145672255078786"><ele>189.5</ele><time>2026-04-05T16:10:27.897Z</time></trkpt><trkpt lat="40.05872851442445" lon="18.145749763648233"><ele>188.0</ele><time>2026-04-05T16:10:28.897Z</time></trkpt><trkpt lat="40.05862397664991" lon="18.145821973689056"><ele>186.5</ele><time>2026-04-05T16:10:29.897Z</time></trkpt><trkpt lat="40.0585196589854" lon="18.145897630644896"><ele>185.0</ele><time>2026-04-05T16:10:30.897Z</time></trkpt><trkpt lat="40.05841908240145" lon="18.145963994493755"><ele>185.0</ele><time>2026-04-05T16:10:31.897Z</time></trkpt><trkpt lat="40.05831628440082" lon="18.146033688320028"><ele>185.0</ele><time>2026-04-05T16:10:32.897Z</time></trkpt><trkpt lat="40.058212447848405" lon="18.146097139081366"><ele>185.0</ele><time>2026-04-05T16:10:33.897Z</time></trkpt><trkpt lat="40.058110359300834" lon="18.146161695687283"><ele>185.0</ele><time>2026-04-05T16:10:34.897Z</time></trkpt><trkpt lat="40.058017305070216" lon="18.146226086011197"><ele>185.0</ele><time>2026-04-05T16:10:35.897Z</time></trkpt><trkpt lat="40.05793555601289" lon="18.146285872119336"><ele>184.33333333333331</ele><time>2026-04-05T16:10:36.897Z</time></trkpt><trkpt lat="40.057861825172395" lon="18.14634278401889"><ele>183.66666666666666</ele><time>2026-04-05T16:10:37.897Z</time></trkpt><trkpt lat="40.05779555638739" lon="18.146384188509927"><ele>183.0</ele><time>2026-04-05T16:10:38.897Z</time></trkpt><trkpt lat="40.0577218022616" lon="18.146439468527763"><ele>182.33333333333334</ele><time>2026-04-05T16:10:40.897Z</time></trkpt><trkpt lat="40.05763386036002" lon="18.146407578918776"><ele>181.66666666666669</ele><time>2026-04-05T16:10:42.897Z</time></trkpt><trkpt lat="40.05756683172669" lon="18.146355062229482"><ele>181.0</ele><time>2026-04-05T16:10:43.897Z</time></trkpt><trkpt lat="40.057485899829246" lon="18.146298693469912"><ele>180.60000000000002</ele><time>2026-04-05T16:10:44.897Z</time></trkpt><trkpt lat="40.05739041825829" lon="18.146248565130247"><ele>180.2</ele><time>2026-04-05T16:10:45.897Z</time></trkpt><trkpt lat="40.057299915736195" lon="18.146198082705382"><ele>179.8</ele><time>2026-04-05T16:10:46.897Z</time></trkpt><trkpt lat="40.05720946900925" lon="18.14614366831307"><ele>179.39999999999998</ele><time>2026-04-05T16:10:47.897Z</time></trkpt><trkpt lat="40.05712000260515" lon="18.146094506867346"><ele>179.0</ele><time>2026-04-05T16:10:48.897Z</time></trkpt><trkpt lat="40.057026931118074" lon="18.146049126894788"><ele>179.0</ele><time>2026-04-05T16:10:49.897Z</time></trkpt><trkpt lat="40.05693952333552" lon="18.145999917821765"><ele>179.0</ele><time>2026-04-05T16:10:50.897Z</time></trkpt><trkpt lat="40.056854294794654" lon="18.145945297157542"><ele>179.0</ele><time>2026-04-05T16:10:51.897Z</time></trkpt><trkpt lat="40.05676418215174" lon="18.145888450009604"><ele>179.0</ele><time>2026-04-05T16:10:52.897Z</time></trkpt><trkpt lat="40.05667227948031" lon="18.145835505535523"><ele>179.0</ele><time>2026-04-05T16:10:53.897Z</time></trkpt><trkpt lat="40.05657922006174" lon="18.145785589176313"><ele>178.39999999999998</ele><time>2026-04-05T16:10:54.897Z</time></trkpt><trkpt lat="40.056486460774295" lon="18.145733952163972"><ele>177.8</ele><time>2026-04-05T16:10:55.897Z</time></trkpt><trkpt lat="40.05639987680015" lon="18.145681163375038"><ele>177.2</ele><time>2026-04-05T16:10:56.897Z</time></trkpt><trkpt lat="40.056313451941676" lon="18.145621257036844"><ele>176.60000000000002</ele><time>2026-04-05T16:10:57.897Z</time></trkpt><trkpt lat="40.05622580821795" lon="18.14556893215787"><ele>176.0</ele><time>2026-04-05T16:10:58.897Z</time></trkpt><trkpt lat="40.056143127061446" lon="18.145517439564856"><ele>176.0</ele><time>2026-04-05T16:10:59.897Z</time></trkpt><trkpt lat="40.05605949068743" lon="18.14546893857367"><ele>176.0</ele><time>2026-04-05T16:11:00.897Z</time></trkpt><trkpt lat="40.05597769925393" lon="18.145417173059226"><ele>176.0</ele><time>2026-04-05T16:11:01.897Z</time></trkpt><trkpt lat="40.05589828730387" lon="18.145368429409583"><ele>176.0</ele><time>2026-04-05T16:11:02.897Z</time></trkpt><trkpt lat="40.05582053693786" lon="18.145321563404025"><ele>176.0</ele><time>2026-04-05T16:11:03.897Z</time></trkpt><trkpt lat="40.05574289450082" lon="18.145278081728673"><ele>176.0</ele><time>2026-04-05T16:11:04.897Z</time></trkpt><trkpt lat="40.05566652292341" lon="18.145233480742778"><ele>175.16666666666666</ele><time>2026-04-05T16:11:05.897Z</time></trkpt><trkpt lat="40.05559203268624" lon="18.1451914060352"><ele>174.33333333333331</ele><time>2026-04-05T16:11:06.897Z</time></trkpt><trkpt lat="40.05552503111016" lon="18.145150677314355"><ele>173.5</ele><time>2026-04-05T16:11:07.897Z</time></trkpt><trkpt lat="40.05545506976121" lon="18.14510740382297"><ele>172.66666666666666</ele><time>2026-04-05T16:11:08.897Z</time></trkpt><trkpt lat="40.05538583759888" lon="18.145064867461382"><ele>171.83333333333334</ele><time>2026-04-05T16:11:09.897Z</time></trkpt><trkpt lat="40.05532171853447" lon="18.145020141083126"><ele>171.0</ele><time>2026-04-05T16:11:10.897Z</time></trkpt><trkpt lat="40.05526297073252" lon="18.144960624606625"><ele>171.0</ele><time>2026-04-05T16:11:11.897Z</time></trkpt><trkpt lat="40.05518860267362" lon="18.14486631408528"><ele>171.0</ele><time>2026-04-05T16:11:13.897Z</time></trkpt><trkpt lat="40.05514856864837" lon="18.144770888627328"><ele>171.0</ele><time>2026-04-05T16:11:16.897Z</time></trkpt><trkpt lat="40.05510061764547" lon="18.1447106119056"><ele>171.0</ele><time>2026-04-05T16:11:18.897Z</time></trkpt><trkpt lat="40.05504084683213" lon="18.144561285922116"><ele>171.0</ele><time>2026-04-05T16:11:20.897Z</time></trkpt><trkpt lat="40.05501188531234" lon="18.144451595532107"><ele>171.0</ele><time>2026-04-05T16:11:21.897Z</time></trkpt><trkpt lat="40.0549759279544" lon="18.144322107583314"><ele>171.0</ele><time>2026-04-05T16:11:22.897Z</time></trkpt><trkpt lat="40.05493992747066" lon="18.144175385837535"><ele>171.0</ele><time>2026-04-05T16:11:23.897Z</time></trkpt><trkpt lat="40.05490851738585" lon="18.14401556770684"><ele>171.0</ele><time>2026-04-05T16:11:24.897Z</time></trkpt><trkpt lat="40.05487646428294" lon="18.143848518702047"><ele>169.33333333333334</ele><time>2026-04-05T16:11:25.897Z</time></trkpt><trkpt lat="40.05484413686786" lon="18.143660006962822"><ele>167.66666666666669</ele><time>2026-04-05T16:11:26.897Z</time></trkpt><trkpt lat="40.05482490093362" lon="18.143453005383087"><ele>166.0</ele><time>2026-04-05T16:11:27.897Z</time></trkpt><trkpt lat="40.05481860273954" lon="18.14324297238467"><ele>164.66666666666669</ele><time>2026-04-05T16:11:28.896Z</time></trkpt><trkpt lat="40.054813295197135" lon="18.143026400574573"><ele>163.33333333333334</ele><time>2026-04-05T16:11:29.896Z</time></trkpt><trkpt lat="40.054821407606596" lon="18.14282342876387"><ele>162.0</ele><time>2026-04-05T16:11:30.896Z</time></trkpt><trkpt lat="40.05482926827936" lon="18.14260480962021"><ele>162.0</ele><time>2026-04-05T16:11:31.896Z</time></trkpt><trkpt lat="40.05484182813864" lon="18.14239085238279"><ele>162.0</ele><time>2026-04-05T16:11:32.896Z</time></trkpt><trkpt lat="40.05484245830414" lon="18.142202461668063"><ele>162.0</ele><time>2026-04-05T16:11:33.896Z</time></trkpt><trkpt lat="40.05484582021749" lon="18.142015603601802"><ele>161.25</ele><time>2026-04-05T16:11:34.896Z</time></trkpt><trkpt lat="40.054829474683046" lon="18.14185205890662"><ele>160.5</ele><time>2026-04-05T16:11:35.896Z</time></trkpt><trkpt lat="40.05482830367335" lon="18.14166355055949"><ele>159.75</ele><time>2026-04-05T16:11:36.896Z</time></trkpt><trkpt lat="40.054846735806706" lon="18.14145303457304"><ele>159.0</ele><time>2026-04-05T16:11:37.896Z</time></trkpt><trkpt lat="40.05487355666945" lon="18.141239112787336"><ele>158.66666666666666</ele><time>2026-04-05T16:11:38.896Z</time></trkpt><trkpt lat="40.05490900738414" lon="18.141030052762574"><ele>158.33333333333331</ele><time>2026-04-05T16:11:39.896Z</time></trkpt><trkpt lat="40.05494204651243" lon="18.140811629104068"><ele>158.0</ele><time>2026-04-05T16:11:40.896Z</time></trkpt><trkpt lat="40.05498118513237" lon="18.140595452853344"><ele>158.0</ele><time>2026-04-05T16:11:41.896Z</time></trkpt><trkpt lat="40.05502324937044" lon="18.14036398012013"><ele>158.0</ele><time>2026-04-05T16:11:42.896Z</time></trkpt><trkpt lat="40.055080755209545" lon="18.140127538256603"><ele>158.0</ele><time>2026-04-05T16:11:43.896Z</time></trkpt><trkpt lat="40.055127449807884" lon="18.139909997921357"><ele>155.66666666666666</ele><time>2026-04-05T16:11:44.896Z</time></trkpt><trkpt lat="40.05516385712852" lon="18.139707607827066"><ele>153.33333333333334</ele><time>2026-04-05T16:11:45.896Z</time></trkpt><trkpt lat="40.05520824783539" lon="18.139501535972666"><ele>151.0</ele><time>2026-04-05T16:11:46.896Z</time></trkpt><trkpt lat="40.05526275228492" lon="18.139293646013186"><ele>151.0</ele><time>2026-04-05T16:11:47.896Z</time></trkpt><trkpt lat="40.055307973214326" lon="18.13909963863746"><ele>151.0</ele><time>2026-04-05T16:11:48.896Z</time></trkpt><trkpt lat="40.05535663904725" lon="18.138911006258233"><ele>151.0</ele><time>2026-04-05T16:11:49.896Z</time></trkpt><trkpt lat="40.055394392650335" lon="18.138727193901932"><ele>149.33333333333334</ele><time>2026-04-05T16:11:50.896Z</time></trkpt><trkpt lat="40.055434770634854" lon="18.13853911249227"><ele>147.66666666666666</ele><time>2026-04-05T16:11:51.896Z</time></trkpt><trkpt lat="40.05548720057253" lon="18.138324660697382"><ele>146.0</ele><time>2026-04-05T16:11:52.896Z</time></trkpt><trkpt lat="40.05552574387961" lon="18.138122054321823"><ele>145.33333333333331</ele><time>2026-04-05T16:11:53.896Z</time></trkpt><trkpt lat="40.05556591793991" lon="18.137916682995275"><ele>144.66666666666666</ele><time>2026-04-05T16:11:54.896Z</time></trkpt><trkpt lat="40.055607523012945" lon="18.137700322519247"><ele>144.0</ele><time>2026-04-05T16:11:55.896Z</time></trkpt><trkpt lat="40.05565052860373" lon="18.13747501573362"><ele>143.66666666666666</ele><time>2026-04-05T16:11:56.896Z</time></trkpt><trkpt lat="40.05570065246117" lon="18.13722273632133"><ele>143.33333333333331</ele><time>2026-04-05T16:11:57.896Z</time></trkpt><trkpt lat="40.05574823516781" lon="18.136981682502892"><ele>143.0</ele><time>2026-04-05T16:11:58.896Z</time></trkpt><trkpt lat="40.055791667868995" lon="18.1367332526558"><ele>141.0</ele><time>2026-04-05T16:11:59.896Z</time></trkpt><trkpt lat="40.05583462819746" lon="18.13648402832844"><ele>139.0</ele><time>2026-04-05T16:12:00.896Z</time></trkpt><trkpt lat="40.055875199841616" lon="18.1362269868673"><ele>137.0</ele><time>2026-04-05T16:12:01.896Z</time></trkpt><trkpt lat="40.055914166405934" lon="18.135969595914073"><ele>136.0</ele><time>2026-04-05T16:12:02.896Z</time></trkpt><trkpt lat="40.05596145951613" lon="18.13570678811251"><ele>135.0</ele><time>2026-04-05T16:12:03.896Z</time></trkpt><trkpt lat="40.05601048357218" lon="18.13542902208967"><ele>134.0</ele><time>2026-04-05T16:12:04.896Z</time></trkpt><trkpt lat="40.05605435077553" lon="18.135151218353887"><ele>133.5</ele><time>2026-04-05T16:12:05.896Z</time></trkpt><trkpt lat="40.05609628955844" lon="18.134853723841054"><ele>133.0</ele><time>2026-04-05T16:12:06.896Z</time></trkpt><trkpt lat="40.056136952289215" lon="18.134553911015505"><ele>133.0</ele><time>2026-04-05T16:12:07.896Z</time></trkpt><trkpt lat="40.05620150219279" lon="18.134255257948823"><ele>133.0</ele><time>2026-04-05T16:12:08.896Z</time></trkpt><trkpt lat="40.05627089595644" lon="18.13396225325808"><ele>132.33333333333334</ele><time>2026-04-05T16:12:09.896Z</time></trkpt><trkpt lat="40.05633409805652" lon="18.133666619262033"><ele>131.66666666666666</ele><time>2026-04-05T16:12:10.896Z</time></trkpt><trkpt lat="40.05641003676421" lon="18.133406461678558"><ele>131.0</ele><time>2026-04-05T16:12:11.896Z</time></trkpt><trkpt lat="40.056491638044406" lon="18.133150317647775"><ele>130.66666666666666</ele><time>2026-04-05T16:12:12.896Z</time></trkpt><trkpt lat="40.05655381182143" lon="18.13287118374359"><ele>130.33333333333334</ele><time>2026-04-05T16:12:13.896Z</time></trkpt><trkpt lat="40.05661319230479" lon="18.13259532585874"><ele>130.0</ele><time>2026-04-05T16:12:14.896Z</time></trkpt><trkpt lat="40.05667213741938" lon="18.132323556122085"><ele>130.0</ele><time>2026-04-05T16:12:15.896Z</time></trkpt><trkpt lat="40.05672891596027" lon="18.132047090843113"><ele>130.0</ele><time>2026-04-05T16:12:16.896Z</time></trkpt><trkpt lat="40.05678574735265" lon="18.131773800340444"><ele>130.0</ele><time>2026-04-05T16:12:17.896Z</time></trkpt><trkpt lat="40.05684343095911" lon="18.13150495471682"><ele>129.0</ele><time>2026-04-05T16:12:18.896Z</time></trkpt><trkpt lat="40.05689943908073" lon="18.131237446709704"><ele>128.0</ele><time>2026-04-05T16:12:19.896Z</time></trkpt><trkpt lat="40.056960329782704" lon="18.130971887084716"><ele>127.0</ele><time>2026-04-05T16:12:20.897Z</time></trkpt><trkpt lat="40.057014949606206" lon="18.130704665288004"><ele>126.66666666666667</ele><time>2026-04-05T16:12:21.896Z</time></trkpt><trkpt lat="40.057071139082225" lon="18.130438999577457"><ele>126.33333333333334</ele><time>2026-04-05T16:12:22.896Z</time></trkpt><trkpt lat="40.05712809832495" lon="18.13016859463858"><ele>126.0</ele><time>2026-04-05T16:12:23.896Z</time></trkpt><trkpt lat="40.057183919336055" lon="18.12989820847182"><ele>125.66666666666666</ele><time>2026-04-05T16:12:24.896Z</time></trkpt><trkpt lat="40.057237569185276" lon="18.129628198246348"><ele>125.33333333333333</ele><time>2026-04-05T16:12:25.896Z</time></trkpt><trkpt lat="40.05729140846135" lon="18.129356004748143"><ele>125.0</ele><time>2026-04-05T16:12:26.896Z</time></trkpt><trkpt lat="40.057342897410166" lon="18.129086749485865"><ele>125.0</ele><time>2026-04-05T16:12:27.896Z</time></trkpt><trkpt lat="40.05740197930083" lon="18.128815990236046"><ele>125.0</ele><time>2026-04-05T16:12:28.896Z</time></trkpt><trkpt lat="40.057456123750335" lon="18.12854965815215"><ele>125.0</ele><time>2026-04-05T16:12:29.896Z</time></trkpt><trkpt lat="40.05751359132952" lon="18.128284829970024"><ele>124.33333333333333</ele><time>2026-04-05T16:12:30.896Z</time></trkpt><trkpt lat="40.057568312052155" lon="18.128015731642414"><ele>123.66666666666666</ele><time>2026-04-05T16:12:31.896Z</time></trkpt><trkpt lat="40.05762492817633" lon="18.127744469810253"><ele>123.0</ele><time>2026-04-05T16:12:32.896Z</time></trkpt><trkpt lat="40.05768427826348" lon="18.127468745079984"><ele>122.0</ele><time>2026-04-05T16:12:33.896Z</time></trkpt><trkpt lat="40.05773875475355" lon="18.12719418368009"><ele>121.0</ele><time>2026-04-05T16:12:34.896Z</time></trkpt><trkpt lat="40.05779251461624" lon="18.12691691480049"><ele>120.0</ele><time>2026-04-05T16:12:35.896Z</time></trkpt><trkpt lat="40.057844526236494" lon="18.126645626593746"><ele>118.66666666666666</ele><time>2026-04-05T16:12:36.896Z</time></trkpt><trkpt lat="40.057891115823494" lon="18.126386919667762"><ele>117.33333333333333</ele><time>2026-04-05T16:12:37.896Z</time></trkpt><trkpt lat="40.057934374783706" lon="18.126151499904577"><ele>116.0</ele><time>2026-04-05T16:12:38.896Z</time></trkpt><trkpt lat="40.05798319381402" lon="18.125926709693307"><ele>114.66666666666666</ele><time>2026-04-05T16:12:39.896Z</time></trkpt><trkpt lat="40.05803104640116" lon="18.125695448954975"><ele>113.33333333333334</ele><time>2026-04-05T16:12:40.896Z</time></trkpt><trkpt lat="40.05807789276663" lon="18.125465288902706"><ele>112.0</ele><time>2026-04-05T16:12:41.896Z</time></trkpt><trkpt lat="40.05812036973462" lon="18.12522958370964"><ele>112.0</ele><time>2026-04-05T16:12:42.896Z</time></trkpt><trkpt lat="40.058150264428484" lon="18.125005029988664"><ele>112.0</ele><time>2026-04-05T16:12:43.896Z</time></trkpt><trkpt lat="40.058176818504876" lon="18.12480728728427"><ele>112.0</ele><time>2026-04-05T16:12:44.896Z</time></trkpt><trkpt lat="40.05820122667406" lon="18.124643736414793"><ele>112.0</ele><time>2026-04-05T16:12:45.896Z</time></trkpt><trkpt lat="40.05823535543638" lon="18.124477719435422"><ele>112.0</ele><time>2026-04-05T16:12:46.896Z</time></trkpt><trkpt lat="40.05829132917218" lon="18.12428412009498"><ele>112.0</ele><time>2026-04-05T16:12:47.896Z</time></trkpt><trkpt lat="40.05834207080475" lon="18.12410298309196"><ele>112.0</ele><time>2026-04-05T16:12:48.896Z</time></trkpt><trkpt lat="40.05837348051233" lon="18.123947925129333"><ele>111.39999999999999</ele><time>2026-04-05T16:12:49.896Z</time></trkpt><trkpt lat="40.058416384573164" lon="18.12381131009375"><ele>110.79999999999998</ele><time>2026-04-05T16:12:50.896Z</time></trkpt><trkpt lat="40.05847452214084" lon="18.12370787964279"><ele>110.2</ele><time>2026-04-05T16:12:51.896Z</time></trkpt><trkpt lat="40.05852864242722" lon="18.123630844507698"><ele>109.6</ele><time>2026-04-05T16:12:52.896Z</time></trkpt><trkpt lat="40.05860871538682" lon="18.123588478835"><ele>109.0</ele><time>2026-04-05T16:12:53.896Z</time></trkpt><trkpt lat="40.05868248354863" lon="18.123555725793636"><ele>109.00000000000001</ele><time>2026-04-05T16:12:54.896Z</time></trkpt><trkpt lat="40.058745963760515" lon="18.12355003400811"><ele>109.0</ele><time>2026-04-05T16:12:55.896Z</time></trkpt><trkpt lat="40.05881117483324" lon="18.12362790059326"><ele>109.0</ele><time>2026-04-05T16:12:57.896Z</time></trkpt><trkpt lat="40.05884638787075" lon="18.123708111717157"><ele>109.0</ele><time>2026-04-05T16:12:59.896Z</time></trkpt><trkpt lat="40.05895602218782" lon="18.12368612112524"><ele>109.00000000000001</ele><time>2026-04-05T16:13:02.896Z</time></trkpt><trkpt lat="40.059031018499944" lon="18.123645136282196"><ele>109.0</ele><time>2026-04-05T16:13:03.896Z</time></trkpt><trkpt lat="40.05911616208711" lon="18.123597328999868"><ele>110.0</ele><time>2026-04-05T16:13:04.896Z</time></trkpt><trkpt lat="40.05921859531749" lon="18.123536789748666"><ele>111.0</ele><time>2026-04-05T16:13:05.896Z</time></trkpt><trkpt lat="40.05931899998037" lon="18.123467506619093"><ele>112.0</ele><time>2026-04-05T16:13:06.896Z</time></trkpt><trkpt lat="40.059412684527835" lon="18.123395556122027"><ele>113.0</ele><time>2026-04-05T16:13:07.896Z</time></trkpt><trkpt lat="40.059500818401645" lon="18.123330668280026"><ele>114.0</ele><time>2026-04-05T16:13:08.896Z</time></trkpt><trkpt lat="40.05958910567117" lon="18.123279040981462"><ele>114.0</ele><time>2026-04-05T16:13:09.896Z</time></trkpt><trkpt lat="40.05970123825578" lon="18.123249206073005"><ele>114.0</ele><time>2026-04-05T16:13:10.896Z</time></trkpt><trkpt lat="40.059797767461724" lon="18.12322881615086"><ele>114.0</ele><time>2026-04-05T16:13:11.896Z</time></trkpt><trkpt lat="40.05988080252336" lon="18.12321278588768"><ele>114.0</ele><time>2026-04-05T16:13:12.896Z</time></trkpt><trkpt lat="40.059960483778355" lon="18.123192531703452"><ele>114.0</ele><time>2026-04-05T16:13:13.896Z</time></trkpt><trkpt lat="40.06004969734281" lon="18.123168207756756"><ele>113.75</ele><time>2026-04-05T16:13:14.896Z</time></trkpt><trkpt lat="40.06015437939754" lon="18.12314321520692"><ele>113.5</ele><time>2026-04-05T16:13:15.896Z</time></trkpt><trkpt lat="40.060269324026756" lon="18.123112904747238"><ele>113.25</ele><time>2026-04-05T16:13:16.896Z</time></trkpt><trkpt lat="40.0603854409917" lon="18.123075968547244"><ele>113.0</ele><time>2026-04-05T16:13:17.896Z</time></trkpt><trkpt lat="40.06050047006382" lon="18.123040902784904"><ele>113.0</ele><time>2026-04-05T16:13:18.896Z</time></trkpt><trkpt lat="40.06060674407193" lon="18.12303240556566"><ele>113.00000000000001</ele><time>2026-04-05T16:13:19.896Z</time></trkpt><trkpt lat="40.06071050556409" lon="18.123036168239974"><ele>113.00000000000001</ele><time>2026-04-05T16:13:20.896Z</time></trkpt><trkpt lat="40.06081595296751" lon="18.123035315311064"><ele>113.0</ele><time>2026-04-05T16:13:21.895Z</time></trkpt><trkpt lat="40.060933774925395" lon="18.12299997646882"><ele>113.0</ele><time>2026-04-05T16:13:22.895Z</time></trkpt><trkpt lat="40.061065300267444" lon="18.122949202481447"><ele>112.25</ele><time>2026-04-05T16:13:23.895Z</time></trkpt><trkpt lat="40.06119432287023" lon="18.122890609361868"><ele>111.5</ele><time>2026-04-05T16:13:24.895Z</time></trkpt><trkpt lat="40.061315123545015" lon="18.12283497088862"><ele>110.75</ele><time>2026-04-05T16:13:25.895Z</time></trkpt><trkpt lat="40.061443043393204" lon="18.122774804324898"><ele>110.0</ele><time>2026-04-05T16:13:26.895Z</time></trkpt><trkpt lat="40.06158533861574" lon="18.12273376190827"><ele>111.0</ele><time>2026-04-05T16:13:27.895Z</time></trkpt><trkpt lat="40.06173390303544" lon="18.12271035087345"><ele>112.0</ele><time>2026-04-05T16:13:28.895Z</time></trkpt><trkpt lat="40.06188198277727" lon="18.122700486669164"><ele>113.0</ele><time>2026-04-05T16:13:29.895Z</time></trkpt><trkpt lat="40.06203330189189" lon="18.122685562336454"><ele>113.0</ele><time>2026-04-05T16:13:30.895Z</time></trkpt><trkpt lat="40.062187100775695" lon="18.122679566579823"><ele>113.0</ele><time>2026-04-05T16:13:31.895Z</time></trkpt><trkpt lat="40.06234397655428" lon="18.1226870238302"><ele>113.0</ele><time>2026-04-05T16:13:32.895Z</time></trkpt><trkpt lat="40.06249788316446" lon="18.122704948822093"><ele>113.75</ele><time>2026-04-05T16:13:33.895Z</time></trkpt><trkpt lat="40.06263787866825" lon="18.12272850491791"><ele>114.5</ele><time>2026-04-05T16:13:34.895Z</time></trkpt><trkpt lat="40.062765463073106" lon="18.122767304795822"><ele>115.25</ele><time>2026-04-05T16:13:35.895Z</time></trkpt><trkpt lat="40.06287893977202" lon="18.122795515144695"><ele>116.0</ele><time>2026-04-05T16:13:36.895Z</time></trkpt><trkpt lat="40.06298242534618" lon="18.12283052351302"><ele>115.99999999999999</ele><time>2026-04-05T16:13:37.895Z</time></trkpt><trkpt lat="40.06307621132046" lon="18.122858867657673"><ele>116.0</ele><time>2026-04-05T16:13:38.895Z</time></trkpt><trkpt lat="40.06315560648505" lon="18.122889592407248"><ele>116.0</ele><time>2026-04-05T16:13:39.895Z</time></trkpt><trkpt lat="40.06321405371253" lon="18.122922592078357"><ele>116.0</ele><time>2026-04-05T16:13:40.895Z</time></trkpt><trkpt lat="40.0632927345958" lon="18.12303529431058"><ele>115.99999999999999</ele><time>2026-04-05T16:13:42.895Z</time></trkpt><trkpt lat="40.06333016648536" lon="18.123118901148548"><ele>116.0</ele><time>2026-04-05T16:13:43.895Z</time></trkpt><trkpt lat="40.0633632370421" lon="18.12323165516549"><ele>116.8</ele><time>2026-04-05T16:13:44.895Z</time></trkpt><trkpt lat="40.06340087445155" lon="18.12335090018977"><ele>117.6</ele><time>2026-04-05T16:13:45.895Z</time></trkpt><trkpt lat="40.0634491627603" lon="18.123474250116306"><ele>118.4</ele><time>2026-04-05T16:13:46.895Z</time></trkpt><trkpt lat="40.063502620394125" lon="18.12358041154552"><ele>119.2</ele><time>2026-04-05T16:13:47.895Z</time></trkpt><trkpt lat="40.06356262405371" lon="18.123697139034135"><ele>120.0</ele><time>2026-04-05T16:13:48.895Z</time></trkpt><trkpt lat="40.063620222594274" lon="18.123829314613495"><ele>120.0</ele><time>2026-04-05T16:13:49.895Z</time></trkpt><trkpt lat="40.06368182907529" lon="18.123955924747488"><ele>120.0</ele><time>2026-04-05T16:13:50.895Z</time></trkpt><trkpt lat="40.063728324223725" lon="18.124071339310877"><ele>120.0</ele><time>2026-04-05T16:13:51.895Z</time></trkpt><trkpt lat="40.06377097981276" lon="18.12417034797268"><ele>120.0</ele><time>2026-04-05T16:13:52.895Z</time></trkpt><trkpt lat="40.06381440052185" lon="18.124249489972538"><ele>120.0</ele><time>2026-04-05T16:13:53.895Z</time></trkpt><trkpt lat="40.06385875524699" lon="18.12434646983787"><ele>120.4</ele><time>2026-04-05T16:13:54.895Z</time></trkpt><trkpt lat="40.06390715476155" lon="18.124451391208577"><ele>120.8</ele><time>2026-04-05T16:13:55.895Z</time></trkpt><trkpt lat="40.06396312548225" lon="18.12456476564197"><ele>121.19999999999999</ele><time>2026-04-05T16:13:56.895Z</time></trkpt><trkpt lat="40.06402618271097" lon="18.124685364759596"><ele>121.6</ele><time>2026-04-05T16:13:57.895Z</time></trkpt><trkpt lat="40.064094719680924" lon="18.12481743939123"><ele>122.0</ele><time>2026-04-05T16:13:58.895Z</time></trkpt><trkpt lat="40.06416387929273" lon="18.12495415208057"><ele>123.0</ele><time>2026-04-05T16:13:59.895Z</time></trkpt><trkpt lat="40.06423404686139" lon="18.12509928777507"><ele>124.0</ele><time>2026-04-05T16:14:00.895Z</time></trkpt><trkpt lat="40.064309977334055" lon="18.125240682733285"><ele>125.0</ele><time>2026-04-05T16:14:01.895Z</time></trkpt><trkpt lat="40.064391719945604" lon="18.1253826572628"><ele>126.0</ele><time>2026-04-05T16:14:02.895Z</time></trkpt><trkpt lat="40.064477846371155" lon="18.12552516478593"><ele>126.0</ele><time>2026-04-05T16:14:03.895Z</time></trkpt><trkpt lat="40.06457134482612" lon="18.125675646591077"><ele>126.0</ele><time>2026-04-05T16:14:04.895Z</time></trkpt><trkpt lat="40.064661194848" lon="18.125819407383432"><ele>126.0</ele><time>2026-04-05T16:14:05.895Z</time></trkpt><trkpt lat="40.064743978613734" lon="18.125931806044115"><ele>126.0</ele><time>2026-04-05T16:14:06.895Z</time></trkpt><trkpt lat="40.064817653557" lon="18.126038661219038"><ele>126.5</ele><time>2026-04-05T16:14:07.895Z</time></trkpt><trkpt lat="40.06488483524081" lon="18.12613767784798"><ele>127.0</ele><time>2026-04-05T16:14:08.895Z</time></trkpt><trkpt lat="40.064952745467195" lon="18.12621550261689"><ele>127.5</ele><time>2026-04-05T16:14:09.895Z</time></trkpt><trkpt lat="40.065010472343424" lon="18.126275210445005"><ele>128.0</ele><time>2026-04-05T16:14:10.895Z</time></trkpt><trkpt lat="40.06506152476148" lon="18.126351875027957"><ele>128.5</ele><time>2026-04-05T16:14:11.895Z</time></trkpt><trkpt lat="40.065124835734785" lon="18.126446378442047"><ele>129.0</ele><time>2026-04-05T16:14:12.895Z</time></trkpt><trkpt lat="40.06519598436448" lon="18.126554734308115"><ele>130.75</ele><time>2026-04-05T16:14:13.895Z</time></trkpt><trkpt lat="40.06526839042372" lon="18.126672948794766"><ele>132.5</ele><time>2026-04-05T16:14:14.895Z</time></trkpt><trkpt lat="40.06532752351485" lon="18.12679730108285"><ele>134.25</ele><time>2026-04-05T16:14:15.895Z</time></trkpt><trkpt lat="40.06539641052991" lon="18.126920693093254"><ele>136.0</ele><time>2026-04-05T16:14:16.895Z</time></trkpt><trkpt lat="40.06546350019985" lon="18.12705087341406"><ele>136.0</ele><time>2026-04-05T16:14:17.896Z</time></trkpt><trkpt lat="40.065526576905306" lon="18.127187386984513"><ele>136.0</ele><time>2026-04-05T16:14:18.896Z</time></trkpt><trkpt lat="40.06559608364425" lon="18.127321154689316"><ele>136.0</ele><time>2026-04-05T16:14:19.896Z</time></trkpt><trkpt lat="40.06566166235595" lon="18.127470749898652"><ele>136.0</ele><time>2026-04-05T16:14:20.896Z</time></trkpt><trkpt lat="40.065732028457376" lon="18.12761312905846"><ele>141.0</ele><time>2026-04-05T16:14:21.895Z</time></trkpt><trkpt lat="40.06579082844581" lon="18.12776771774736"><ele>146.0</ele><time>2026-04-05T16:14:22.895Z</time></trkpt><trkpt lat="40.06584703982698" lon="18.12792727632589"><ele>151.0</ele><time>2026-04-05T16:14:23.896Z</time></trkpt><trkpt lat="40.06588981535639" lon="18.12807992381255"><ele>156.0</ele><time>2026-04-05T16:14:24.896Z</time></trkpt><trkpt lat="40.06592752695103" lon="18.12823919396405"><ele>157.0</ele><time>2026-04-05T16:14:25.896Z</time></trkpt><trkpt lat="40.065976206084585" lon="18.1283901020714"><ele>158.0</ele><time>2026-04-05T16:14:26.896Z</time></trkpt><trkpt lat="40.06603414643704" lon="18.128537682584287"><ele>159.0</ele><time>2026-04-05T16:14:27.895Z</time></trkpt><trkpt lat="40.06609397599893" lon="18.12864125296159"><ele>160.0</ele><time>2026-04-05T16:14:28.895Z</time></trkpt><trkpt lat="40.06612590028659" lon="18.128776397474066"><ele>160.0</ele><time>2026-04-05T16:14:29.895Z</time></trkpt><trkpt lat="40.066183596863894" lon="18.128874387902123"><ele>160.0</ele><time>2026-04-05T16:14:30.895Z</time></trkpt><trkpt lat="40.06625732408756" lon="18.128942505666544"><ele>160.0</ele><time>2026-04-05T16:14:31.895Z</time></trkpt><trkpt lat="40.06636453800711" lon="18.12896254927486"><ele>160.0</ele><time>2026-04-05T16:14:32.895Z</time></trkpt><trkpt lat="40.066427096572575" lon="18.129021191144652"><ele>160.0</ele><time>2026-04-05T16:14:33.895Z</time></trkpt><trkpt lat="40.06647768324394" lon="18.12907590757591"><ele>160.0</ele><time>2026-04-05T16:14:34.895Z</time></trkpt><trkpt lat="40.06653675740059" lon="18.129114945139346"><ele>161.0</ele><time>2026-04-05T16:14:35.895Z</time></trkpt><trkpt lat="40.06661379466584" lon="18.129233730847588"><ele>162.0</ele><time>2026-04-05T16:14:37.895Z</time></trkpt><trkpt lat="40.06664056821811" lon="18.12933205279432"><ele>163.0</ele><time>2026-04-05T16:14:38.895Z</time></trkpt><trkpt lat="40.066668795033884" lon="18.12943230037515"><ele>164.0</ele><time>2026-04-05T16:14:39.895Z</time></trkpt><trkpt lat="40.066701866246575" lon="18.129539904786718"><ele>165.0</ele><time>2026-04-05T16:14:40.895Z</time></trkpt><trkpt lat="40.06673837377542" lon="18.12964576120066"><ele>165.0</ele><time>2026-04-05T16:14:41.895Z</time></trkpt><trkpt lat="40.06677478920111" lon="18.129745591362"><ele>165.0</ele><time>2026-04-05T16:14:42.895Z</time></trkpt><trkpt lat="40.06680170383377" lon="18.129837517150637"><ele>165.0</ele><time>2026-04-05T16:14:43.895Z</time></trkpt><trkpt lat="40.06683299491306" lon="18.12992693042502"><ele>165.0</ele><time>2026-04-05T16:14:44.895Z</time></trkpt><trkpt lat="40.06687185749538" lon="18.130024415722975"><ele>165.0</ele><time>2026-04-05T16:14:45.895Z</time></trkpt><trkpt lat="40.066914238746406" lon="18.13012366084446"><ele>165.0</ele><time>2026-04-05T16:14:46.895Z</time></trkpt><trkpt lat="40.0669649137747" lon="18.13022439760463"><ele>165.4</ele><time>2026-04-05T16:14:47.895Z</time></trkpt><trkpt lat="40.06701653565951" lon="18.13033612504929"><ele>165.8</ele><time>2026-04-05T16:14:48.895Z</time></trkpt><trkpt lat="40.06707471112357" lon="18.130455209383456"><ele>166.2</ele><time>2026-04-05T16:14:49.895Z</time></trkpt><trkpt lat="40.06713523082149" lon="18.130584327147123"><ele>166.6</ele><time>2026-04-05T16:14:50.895Z</time></trkpt><trkpt lat="40.06719421232708" lon="18.130719942367897"><ele>167.0</ele><time>2026-04-05T16:14:51.895Z</time></trkpt><trkpt lat="40.067252129610566" lon="18.130861926817605"><ele>167.25</ele><time>2026-04-05T16:14:52.895Z</time></trkpt><trkpt lat="40.067306712361706" lon="18.13100276865321"><ele>167.5</ele><time>2026-04-05T16:14:53.895Z</time></trkpt><trkpt lat="40.06735605577982" lon="18.131149958441565"><ele>167.75</ele><time>2026-04-05T16:14:54.895Z</time></trkpt><trkpt lat="40.06740521318463" lon="18.131313854412774"><ele>168.0</ele><time>2026-04-05T16:14:55.895Z</time></trkpt><trkpt lat="40.06744895170401" lon="18.13148227594019"><ele>169.2</ele><time>2026-04-05T16:14:56.895Z</time></trkpt><trkpt lat="40.067490403667456" lon="18.131639816768786"><ele>170.4</ele><time>2026-04-05T16:14:57.895Z</time></trkpt><trkpt lat="40.0675317053268" lon="18.131785982882146"><ele>171.6</ele><time>2026-04-05T16:14:58.895Z</time></trkpt><trkpt lat="40.067559664350824" lon="18.131902003755282"><ele>172.79999999999998</ele><time>2026-04-05T16:14:59.895Z</time></trkpt><trkpt lat="40.067582880534296" lon="18.131995079276848"><ele>174.0</ele><time>2026-04-05T16:15:00.895Z</time></trkpt><trkpt lat="40.067619905093764" lon="18.132114945024377"><ele>174.0</ele><time>2026-04-05T16:15:02.895Z</time></trkpt><trkpt lat="40.067693537235414" lon="18.132170278210655"><ele>174.0</ele><time>2026-04-05T16:15:05.895Z</time></trkpt><trkpt lat="40.067763188277254" lon="18.132144859447024"><ele>174.0</ele><time>2026-04-05T16:15:07.895Z</time></trkpt><trkpt lat="40.067830774239546" lon="18.13211297206661"><ele>174.0</ele><time>2026-04-05T16:15:09.895Z</time></trkpt><trkpt lat="40.067875760134896" lon="18.132047720222968"><ele>174.0</ele><time>2026-04-05T16:15:12.895Z</time></trkpt></trkseg><trkseg><trkpt lat="40.06778922997374" lon="18.132017059037256"><ele>174.0</ele><time>2026-04-05T16:50:30.893Z</time></trkpt><trkpt lat="40.06771126915103" lon="18.13205210158258"><ele>174.0</ele><time>2026-04-05T16:50:32.893Z</time></trkpt><trkpt lat="40.06765054540009" lon="18.132074473302623"><ele>174.0</ele><time>2026-04-05T16:50:34.893Z</time></trkpt><trkpt lat="40.06762574240592" lon="18.13215614842547"><ele>174.0</ele><time>2026-04-05T16:50:38.893Z</time></trkpt><trkpt lat="40.06763973465027" lon="18.132242984297726"><ele>174.0</ele><time>2026-04-05T16:50:40.893Z</time></trkpt><trkpt lat="40.067604988552176" lon="18.132355334248054"><ele>174.0</ele><time>2026-04-05T16:50:43.893Z</time></trkpt><trkpt lat="40.067530776370425" lon="18.13239329838581"><ele>174.66666666666666</ele><time>2026-04-05T16:50:45.893Z</time></trkpt><trkpt lat="40.067446614390455" lon="18.13241738112085"><ele>175.33333333333334</ele><time>2026-04-05T16:50:47.893Z</time></trkpt><trkpt lat="40.06738402099085" lon="18.13246637710513"><ele>176.0</ele><time>2026-04-05T16:50:49.893Z</time></trkpt><trkpt lat="40.06736667885888" lon="18.13256445311308"><ele>176.66666666666669</ele><time>2026-04-05T16:50:51.893Z</time></trkpt><trkpt lat="40.06737023123045" lon="18.132691960111735"><ele>177.33333333333334</ele><time>2026-04-05T16:50:52.893Z</time></trkpt><trkpt lat="40.0673829118123" lon="18.13278093346933"><ele>178.0</ele><time>2026-04-05T16:50:53.893Z</time></trkpt><trkpt lat="40.06738756833893" lon="18.132874069909132"><ele>177.99999999999997</ele><time>2026-04-05T16:50:54.893Z</time></trkpt><trkpt lat="40.06739420671548" lon="18.132964084907023"><ele>178.0</ele><time>2026-04-05T16:50:55.893Z</time></trkpt><trkpt lat="40.06740725847041" lon="18.13305955008836"><ele>178.0</ele><time>2026-04-05T16:50:56.893Z</time></trkpt><trkpt lat="40.0674171854624" lon="18.13314865541727"><ele>178.0</ele><time>2026-04-05T16:50:57.893Z</time></trkpt><trkpt lat="40.06742759992798" lon="18.13324051441673"><ele>178.0</ele><time>2026-04-05T16:50:58.893Z</time></trkpt><trkpt lat="40.06743045768524" lon="18.13332805793826"><ele>177.99999999999997</ele><time>2026-04-05T16:50:59.893Z</time></trkpt><trkpt lat="40.067440339164875" lon="18.13342226048179"><ele>178.0</ele><time>2026-04-05T16:51:00.893Z</time></trkpt><trkpt lat="40.06745110635466" lon="18.13353197481039"><ele>178.5</ele><time>2026-04-05T16:51:01.893Z</time></trkpt><trkpt lat="40.06746636505738" lon="18.13364080759138"><ele>179.0</ele><time>2026-04-05T16:51:02.893Z</time></trkpt><trkpt lat="40.067480613807895" lon="18.133751204056786"><ele>179.5</ele><time>2026-04-05T16:51:03.893Z</time></trkpt><trkpt lat="40.0674975645373" lon="18.133855051396115"><ele>180.0</ele><time>2026-04-05T16:51:04.893Z</time></trkpt><trkpt lat="40.0675133616593" lon="18.133955129256215"><ele>180.5</ele><time>2026-04-05T16:51:05.893Z</time></trkpt><trkpt lat="40.06752617851344" lon="18.13406125445866"><ele>181.0</ele><time>2026-04-05T16:51:06.893Z</time></trkpt><trkpt lat="40.067538698221675" lon="18.13416142589819"><ele>181.16666666666669</ele><time>2026-04-05T16:51:07.893Z</time></trkpt><trkpt lat="40.067553288567" lon="18.13425477525819"><ele>181.33333333333334</ele><time>2026-04-05T16:51:08.893Z</time></trkpt><trkpt lat="40.06756963249559" lon="18.134353186491825"><ele>181.5</ele><time>2026-04-05T16:51:09.893Z</time></trkpt><trkpt lat="40.06758398211045" lon="18.134455775749586"><ele>181.66666666666666</ele><time>2026-04-05T16:51:10.893Z</time></trkpt><trkpt lat="40.067594184274895" lon="18.13455987375018"><ele>181.83333333333331</ele><time>2026-04-05T16:51:11.893Z</time></trkpt><trkpt lat="40.06760718066139" lon="18.13466769749784"><ele>182.0</ele><time>2026-04-05T16:51:12.893Z</time></trkpt><trkpt lat="40.067618923061865" lon="18.134782647616333"><ele>182.39999999999998</ele><time>2026-04-05T16:51:13.893Z</time></trkpt><trkpt lat="40.06763218392339" lon="18.134903970035023"><ele>182.79999999999998</ele><time>2026-04-05T16:51:14.893Z</time></trkpt><trkpt lat="40.06764606541998" lon="18.135027541963165"><ele>183.2</ele><time>2026-04-05T16:51:15.893Z</time></trkpt><trkpt lat="40.06765921777903" lon="18.13515128001225"><ele>183.6</ele><time>2026-04-05T16:51:16.893Z</time></trkpt><trkpt lat="40.06766978062746" lon="18.135271109633536"><ele>184.0</ele><time>2026-04-05T16:51:17.893Z</time></trkpt><trkpt lat="40.06768280440485" lon="18.135369695747535"><ele>184.0</ele><time>2026-04-05T16:51:18.893Z</time></trkpt><trkpt lat="40.067699223010074" lon="18.13551621611752"><ele>184.0</ele><time>2026-04-05T16:51:20.893Z</time></trkpt><trkpt lat="40.067677555141586" lon="18.135614010103026"><ele>184.0</ele><time>2026-04-05T16:51:23.893Z</time></trkpt><trkpt lat="40.06760491292891" lon="18.135656508923198"><ele>184.0</ele><time>2026-04-05T16:51:25.893Z</time></trkpt><trkpt lat="40.067490342185" lon="18.135689889481235"><ele>184.0</ele><time>2026-04-05T16:51:27.893Z</time></trkpt><trkpt lat="40.06736596096009" lon="18.135737707591407"><ele>184.79999999999998</ele><time>2026-04-05T16:51:29.893Z</time></trkpt><trkpt lat="40.06728625731029" lon="18.135761411147943"><ele>185.6</ele><time>2026-04-05T16:51:30.893Z</time></trkpt><trkpt lat="40.06719235069716" lon="18.135778583512842"><ele>186.4</ele><time>2026-04-05T16:51:31.893Z</time></trkpt><trkpt lat="40.067089020567714" lon="18.13580272478651"><ele>187.2</ele><time>2026-04-05T16:51:32.893Z</time></trkpt><trkpt lat="40.06698971507346" lon="18.13582445321103"><ele>188.0</ele><time>2026-04-05T16:51:33.893Z</time></trkpt><trkpt lat="40.066909270433555" lon="18.13583721186846"><ele>188.0</ele><time>2026-04-05T16:51:34.893Z</time></trkpt><trkpt lat="40.06683584291076" lon="18.135846612071905"><ele>188.0</ele><time>2026-04-05T16:51:35.893Z</time></trkpt><trkpt lat="40.0667553679494" lon="18.135860826892706"><ele>188.0</ele><time>2026-04-05T16:51:36.893Z</time></trkpt><trkpt lat="40.06666986728617" lon="18.135878359022303"><ele>188.0</ele><time>2026-04-05T16:51:37.893Z</time></trkpt><trkpt lat="40.06658232255967" lon="18.135903313802"><ele>188.0</ele><time>2026-04-05T16:51:38.893Z</time></trkpt><trkpt lat="40.06648985044765" lon="18.135931397456062"><ele>188.0</ele><time>2026-04-05T16:51:39.893Z</time></trkpt><trkpt lat="40.0664009575423" lon="18.135957095051605"><ele>188.14285714285714</ele><time>2026-04-05T16:51:40.893Z</time></trkpt><trkpt lat="40.066320564116836" lon="18.13597696623068"><ele>188.28571428571428</ele><time>2026-04-05T16:51:41.893Z</time></trkpt><trkpt lat="40.06625333577771" lon="18.135994291408068"><ele>188.42857142857144</ele><time>2026-04-05T16:51:42.893Z</time></trkpt><trkpt lat="40.06618916318507" lon="18.136004387975337"><ele>188.57142857142856</ele><time>2026-04-05T16:51:43.893Z</time></trkpt><trkpt lat="40.06612241265269" lon="18.136017521657166"><ele>188.71428571428572</ele><time>2026-04-05T16:51:44.893Z</time></trkpt><trkpt lat="40.066055625283006" lon="18.136030002255634"><ele>188.85714285714286</ele><time>2026-04-05T16:51:45.893Z</time></trkpt><trkpt lat="40.065992790741106" lon="18.136048127668204"><ele>189.0</ele><time>2026-04-05T16:51:46.893Z</time></trkpt><trkpt lat="40.065868658975404" lon="18.136075364599023"><ele>189.0</ele><time>2026-04-05T16:51:48.893Z</time></trkpt><trkpt lat="40.065801392012894" lon="18.136096219608657"><ele>189.0</ele><time>2026-04-05T16:51:49.893Z</time></trkpt><trkpt lat="40.065733724131" lon="18.13612316174943"><ele>189.0</ele><time>2026-04-05T16:51:50.893Z</time></trkpt><trkpt lat="40.06566424924207" lon="18.13615856827123"><ele>189.0</ele><time>2026-04-05T16:51:51.893Z</time></trkpt><trkpt lat="40.065589916601446" lon="18.136195717862794"><ele>189.0</ele><time>2026-04-05T16:51:52.892Z</time></trkpt><trkpt lat="40.06551261153604" lon="18.136231475350073"><ele>189.0</ele><time>2026-04-05T16:51:53.892Z</time></trkpt><trkpt lat="40.065432994690426" lon="18.136268639234554"><ele>188.85714285714286</ele><time>2026-04-05T16:51:54.892Z</time></trkpt><trkpt lat="40.06535945322869" lon="18.13630619408549"><ele>188.71428571428572</ele><time>2026-04-05T16:51:55.892Z</time></trkpt><trkpt lat="40.065296025304676" lon="18.136337588511154"><ele>188.57142857142856</ele><time>2026-04-05T16:51:56.892Z</time></trkpt><trkpt lat="40.065237434059874" lon="18.136368669286387"><ele>188.42857142857144</ele><time>2026-04-05T16:51:57.892Z</time></trkpt><trkpt lat="40.06518154277967" lon="18.13640736163191"><ele>188.28571428571428</ele><time>2026-04-05T16:51:58.892Z</time></trkpt><trkpt lat="40.06510725606214" lon="18.13643509042406"><ele>188.14285714285714</ele><time>2026-04-05T16:51:59.892Z</time></trkpt><trkpt lat="40.06502094927038" lon="18.136473001255172"><ele>188.0</ele><time>2026-04-05T16:52:00.892Z</time></trkpt><trkpt lat="40.06495257135809" lon="18.136505783161716"><ele>188.0</ele><time>2026-04-05T16:52:01.892Z</time></trkpt><trkpt lat="40.06483377932198" lon="18.136553253598393"><ele>188.0</ele><time>2026-04-05T16:52:03.892Z</time></trkpt><trkpt lat="40.06476605196321" lon="18.136589146741684"><ele>188.0</ele><time>2026-04-05T16:52:04.894Z</time></trkpt><trkpt lat="40.06469551338357" lon="18.13662832638535"><ele>188.0</ele><time>2026-04-05T16:52:05.892Z</time></trkpt><trkpt lat="40.06462023144337" lon="18.136670169025887"><ele>188.0</ele><time>2026-04-05T16:52:06.892Z</time></trkpt><trkpt lat="40.064561571383315" lon="18.136709619479415"><ele>188.0</ele><time>2026-04-05T16:52:07.893Z</time></trkpt><trkpt lat="40.06450010117868" lon="18.13673922652887"><ele>188.0</ele><time>2026-04-05T16:52:08.892Z</time></trkpt><trkpt lat="40.06439847851755" lon="18.136791595919835"><ele>188.0</ele><time>2026-04-05T16:52:10.893Z</time></trkpt><trkpt lat="40.06435067314522" lon="18.13689291696398"><ele>188.0</ele><time>2026-04-05T16:52:12.893Z</time></trkpt><trkpt lat="40.06433622613594" lon="18.13704928833061"><ele>188.0</ele><time>2026-04-05T16:52:14.893Z</time></trkpt><trkpt lat="40.06432916989187" lon="18.137147610421138"><ele>188.0</ele><time>2026-04-05T16:52:15.893Z</time></trkpt><trkpt lat="40.06431214118321" lon="18.137256744567438"><ele>188.0</ele><time>2026-04-05T16:52:16.893Z</time></trkpt><trkpt lat="40.06429478801466" lon="18.137377419906212"><ele>188.0</ele><time>2026-04-05T16:52:17.893Z</time></trkpt><trkpt lat="40.06428955465542" lon="18.137508836201746"><ele>188.0</ele><time>2026-04-05T16:52:18.893Z</time></trkpt><trkpt lat="40.06429396455625" lon="18.137617098062986"><ele>188.0</ele><time>2026-04-05T16:52:19.893Z</time></trkpt><trkpt lat="40.06429438529184" lon="18.13774435964889"><ele>188.0</ele><time>2026-04-05T16:52:21.893Z</time></trkpt><trkpt lat="40.06421919580301" lon="18.137842542430057"><ele>188.4</ele><time>2026-04-05T16:52:24.893Z</time></trkpt><trkpt lat="40.064161408375824" lon="18.137881802735016"><ele>188.8</ele><time>2026-04-05T16:52:25.893Z</time></trkpt><trkpt lat="40.064094578868335" lon="18.13793466367152"><ele>189.2</ele><time>2026-04-05T16:52:26.893Z</time></trkpt><trkpt lat="40.064014527188014" lon="18.138008262531653"><ele>189.6</ele><time>2026-04-05T16:52:27.893Z</time></trkpt><trkpt lat="40.06391660673813" lon="18.13808742450413"><ele>190.0</ele><time>2026-04-05T16:52:28.893Z</time></trkpt><trkpt lat="40.063815400075185" lon="18.138188675985926"><ele>190.25</ele><time>2026-04-05T16:52:29.893Z</time></trkpt><trkpt lat="40.063703403811736" lon="18.13829119752397"><ele>190.5</ele><time>2026-04-05T16:52:30.893Z</time></trkpt><trkpt lat="40.063577163787116" lon="18.138394614158273"><ele>190.75</ele><time>2026-04-05T16:52:31.893Z</time></trkpt><trkpt lat="40.06343962124241" lon="18.13850158974522"><ele>191.0</ele><time>2026-04-05T16:52:32.893Z</time></trkpt><trkpt lat="40.06329916169739" lon="18.138611607857325"><ele>190.66666666666666</ele><time>2026-04-05T16:52:33.893Z</time></trkpt><trkpt lat="40.063153324992165" lon="18.138725074047525"><ele>190.33333333333334</ele><time>2026-04-05T16:52:34.893Z</time></trkpt><trkpt lat="40.06300862400376" lon="18.138835065851584"><ele>190.0</ele><time>2026-04-05T16:52:35.893Z</time></trkpt><trkpt lat="40.062884554406516" lon="18.138939945535043"><ele>190.0</ele><time>2026-04-05T16:52:36.893Z</time></trkpt><trkpt lat="40.06276748797169" lon="18.139026927697994"><ele>190.0</ele><time>2026-04-05T16:52:37.893Z</time></trkpt><trkpt lat="40.06264970846084" lon="18.139121040892423"><ele>190.0</ele><time>2026-04-05T16:52:38.893Z</time></trkpt><trkpt lat="40.06253461283037" lon="18.139221110687874"><ele>190.0</ele><time>2026-04-05T16:52:39.893Z</time></trkpt><trkpt lat="40.06241248419243" lon="18.13932218376652"><ele>190.5</ele><time>2026-04-05T16:52:40.893Z</time></trkpt><trkpt lat="40.06228614119421" lon="18.139418178239495"><ele>191.0</ele><time>2026-04-05T16:52:41.893Z</time></trkpt><trkpt lat="40.062157436984805" lon="18.139515195176354"><ele>191.5</ele><time>2026-04-05T16:52:42.893Z</time></trkpt><trkpt lat="40.06203094189997" lon="18.1396211720858"><ele>192.0</ele><time>2026-04-05T16:52:43.893Z</time></trkpt><trkpt lat="40.06189863491152" lon="18.139724840105956"><ele>192.0</ele><time>2026-04-05T16:52:44.893Z</time></trkpt><trkpt lat="40.06177351772388" lon="18.13983039982462"><ele>192.0</ele><time>2026-04-05T16:52:45.893Z</time></trkpt><trkpt lat="40.06165845747175" lon="18.13992915067178"><ele>192.0</ele><time>2026-04-05T16:52:46.893Z</time></trkpt><trkpt lat="40.061557746137076" lon="18.140017061716485"><ele>192.0</ele><time>2026-04-05T16:52:47.893Z</time></trkpt><trkpt lat="40.06146847943258" lon="18.140072407300526"><ele>191.33333333333334</ele><time>2026-04-05T16:52:48.893Z</time></trkpt><trkpt lat="40.06140567344418" lon="18.140120892585752"><ele>190.66666666666666</ele><time>2026-04-05T16:52:49.893Z</time></trkpt><trkpt lat="40.06135244109727" lon="18.140169703269464"><ele>190.0</ele><time>2026-04-05T16:52:50.893Z</time></trkpt><trkpt lat="40.06129459265498" lon="18.140225602428718"><ele>189.33333333333331</ele><time>2026-04-05T16:52:51.893Z</time></trkpt><trkpt lat="40.06122389937432" lon="18.14028997384168"><ele>188.66666666666666</ele><time>2026-04-05T16:52:52.893Z</time></trkpt><trkpt lat="40.06114142550022" lon="18.140355095123944"><ele>188.0</ele><time>2026-04-05T16:52:53.893Z</time></trkpt><trkpt lat="40.06104906032092" lon="18.140433981425318"><ele>188.0</ele><time>2026-04-05T16:52:54.893Z</time></trkpt><trkpt lat="40.0609522972613" lon="18.140508719061373"><ele>188.0</ele><time>2026-04-05T16:52:55.893Z</time></trkpt><trkpt lat="40.06085826386596" lon="18.14059870437289"><ele>188.0</ele><time>2026-04-05T16:52:56.893Z</time></trkpt><trkpt lat="40.06075720619153" lon="18.140696479433743"><ele>188.0</ele><time>2026-04-05T16:52:57.893Z</time></trkpt><trkpt lat="40.06064930034543" lon="18.140792734206006"><ele>188.25</ele><time>2026-04-05T16:52:58.893Z</time></trkpt><trkpt lat="40.06054380231694" lon="18.140899623138427"><ele>188.5</ele><time>2026-04-05T16:52:59.893Z</time></trkpt><trkpt lat="40.06040817957699" lon="18.140984108439064"><ele>188.75</ele><time>2026-04-05T16:53:00.893Z</time></trkpt><trkpt lat="40.060281758576906" lon="18.141087298664164"><ele>189.0</ele><time>2026-04-05T16:53:01.893Z</time></trkpt><trkpt lat="40.060157847780786" lon="18.14119234687499"><ele>189.0</ele><time>2026-04-05T16:53:02.893Z</time></trkpt><trkpt lat="40.060045884817114" lon="18.141283463639326"><ele>189.0</ele><time>2026-04-05T16:53:03.893Z</time></trkpt><trkpt lat="40.059946890814686" lon="18.141365554374886"><ele>189.0</ele><time>2026-04-05T16:53:04.893Z</time></trkpt><trkpt lat="40.059857423737256" lon="18.141440942513963"><ele>189.0</ele><time>2026-04-05T16:53:05.893Z</time></trkpt><trkpt lat="40.059773457607264" lon="18.141511659867668"><ele>188.83333333333334</ele><time>2026-04-05T16:53:06.893Z</time></trkpt><trkpt lat="40.059688718163436" lon="18.141579529317934"><ele>188.66666666666666</ele><time>2026-04-05T16:53:07.893Z</time></trkpt><trkpt lat="40.05961250939746" lon="18.141647975626352"><ele>188.5</ele><time>2026-04-05T16:53:08.893Z</time></trkpt><trkpt lat="40.05954834575118" lon="18.141711212343008"><ele>188.33333333333331</ele><time>2026-04-05T16:53:09.893Z</time></trkpt><trkpt lat="40.059494844311324" lon="18.141769692603937"><ele>188.16666666666666</ele><time>2026-04-05T16:53:10.893Z</time></trkpt><trkpt lat="40.059430881777935" lon="18.14182101615406"><ele>188.0</ele><time>2026-04-05T16:53:11.893Z</time></trkpt><trkpt lat="40.0593514552542" lon="18.141882790954632"><ele>188.0</ele><time>2026-04-05T16:53:12.893Z</time></trkpt><trkpt lat="40.05926388928688" lon="18.141956401934475"><ele>188.0</ele><time>2026-04-05T16:53:13.893Z</time></trkpt><trkpt lat="40.059171360648115" lon="18.142043310786303"><ele>188.0</ele><time>2026-04-05T16:53:14.893Z</time></trkpt><trkpt lat="40.059065985446594" lon="18.14212983938623"><ele>188.0</ele><time>2026-04-05T16:53:15.893Z</time></trkpt><trkpt lat="40.05894170308894" lon="18.142231827709637"><ele>187.33333333333331</ele><time>2026-04-05T16:53:16.893Z</time></trkpt><trkpt lat="40.058800857578134" lon="18.142339908632863"><ele>186.66666666666666</ele><time>2026-04-05T16:53:17.893Z</time></trkpt><trkpt lat="40.058653772544446" lon="18.142452746552088"><ele>186.0</ele><time>2026-04-05T16:53:18.893Z</time></trkpt><trkpt lat="40.058516179708604" lon="18.142547445910573"><ele>186.0</ele><time>2026-04-05T16:53:19.893Z</time></trkpt><trkpt lat="40.05839110677968" lon="18.142640784297402"><ele>186.0</ele><time>2026-04-05T16:53:20.893Z</time></trkpt><trkpt lat="40.05827479507627" lon="18.142734499992915"><ele>186.0</ele><time>2026-04-05T16:53:21.893Z</time></trkpt><trkpt lat="40.05814967925886" lon="18.14283994139632"><ele>186.0</ele><time>2026-04-05T16:53:22.893Z</time></trkpt><trkpt lat="40.058013618413646" lon="18.14294731493483"><ele>185.0</ele><time>2026-04-05T16:53:23.893Z</time></trkpt><trkpt lat="40.05787134767105" lon="18.143057511765246"><ele>184.0</ele><time>2026-04-05T16:53:24.893Z</time></trkpt><trkpt lat="40.05772250126342" lon="18.143172639732573"><ele>183.0</ele><time>2026-04-05T16:53:25.893Z</time></trkpt><trkpt lat="40.05757008125783" lon="18.143291958953593"><ele>182.33333333333334</ele><time>2026-04-05T16:53:26.893Z</time></trkpt><trkpt lat="40.057410316191294" lon="18.143415600269705"><ele>181.66666666666669</ele><time>2026-04-05T16:53:27.893Z</time></trkpt><trkpt lat="40.05725620158196" lon="18.143539684813597"><ele>181.0</ele><time>2026-04-05T16:53:28.893Z</time></trkpt><trkpt lat="40.0571124004483" lon="18.14365252749679"><ele>181.0</ele><time>2026-04-05T16:53:29.893Z</time></trkpt><trkpt lat="40.05697485235227" lon="18.143761152615653"><ele>181.0</ele><time>2026-04-05T16:53:30.893Z</time></trkpt><trkpt lat="40.05684705592657" lon="18.143866282755763"><ele>181.0</ele><time>2026-04-05T16:53:31.893Z</time></trkpt><trkpt lat="40.0567329342767" lon="18.143960452087054"><ele>181.0</ele><time>2026-04-05T16:53:32.893Z</time></trkpt><trkpt lat="40.05663337186062" lon="18.14404347330647"><ele>180.4</ele><time>2026-04-05T16:53:33.893Z</time></trkpt><trkpt lat="40.05653795079127" lon="18.144121416940095"><ele>179.8</ele><time>2026-04-05T16:53:34.893Z</time></trkpt><trkpt lat="40.05644771615808" lon="18.144196647716015"><ele>179.20000000000002</ele><time>2026-04-05T16:53:35.892Z</time></trkpt><trkpt lat="40.056364969045575" lon="18.14426062326574"><ele>178.60000000000002</ele><time>2026-04-05T16:53:36.892Z</time></trkpt><trkpt lat="40.05628965282416" lon="18.144319665564016"><ele>178.0</ele><time>2026-04-05T16:53:37.892Z</time></trkpt><trkpt lat="40.05622350566469" lon="18.144380253017026"><ele>178.0</ele><time>2026-04-05T16:53:38.892Z</time></trkpt><trkpt lat="40.05616006406384" lon="18.144435885628763"><ele>178.0</ele><time>2026-04-05T16:53:39.892Z</time></trkpt><trkpt lat="40.05609909541099" lon="18.14448380841716"><ele>178.0</ele><time>2026-04-05T16:53:40.892Z</time></trkpt><trkpt lat="40.05602045134299" lon="18.144559089313802"><ele>178.0</ele><time>2026-04-05T16:53:41.892Z</time></trkpt><trkpt lat="40.055944481601735" lon="18.144628708694682"><ele>178.0</ele><time>2026-04-05T16:53:42.892Z</time></trkpt><trkpt lat="40.05585587974681" lon="18.144710128497476"><ele>178.0</ele><time>2026-04-05T16:53:43.892Z</time></trkpt><trkpt lat="40.055768998781765" lon="18.14477805859624"><ele>176.83333333333334</ele><time>2026-04-05T16:53:44.892Z</time></trkpt><trkpt lat="40.055704921121134" lon="18.144818637561023"><ele>175.66666666666669</ele><time>2026-04-05T16:53:45.892Z</time></trkpt><trkpt lat="40.05564575772139" lon="18.144871899423126"><ele>174.5</ele><time>2026-04-05T16:53:46.892Z</time></trkpt><trkpt lat="40.05559013109507" lon="18.144917723266953"><ele>173.33333333333334</ele><time>2026-04-05T16:53:47.892Z</time></trkpt><trkpt lat="40.0554954396686" lon="18.14499527625702"><ele>172.16666666666666</ele><time>2026-04-05T16:53:49.892Z</time></trkpt><trkpt lat="40.05541087694712" lon="18.14504776528627"><ele>171.0</ele><time>2026-04-05T16:53:52.892Z</time></trkpt><trkpt lat="40.05532585573365" lon="18.145011955904693"><ele>171.0</ele><time>2026-04-05T16:53:54.892Z</time></trkpt><trkpt lat="40.05526538511682" lon="18.144979102822894"><ele>171.0</ele><time>2026-04-05T16:53:55.892Z</time></trkpt><trkpt lat="40.055186089727194" lon="18.14490566306804"><ele>171.0</ele><time>2026-04-05T16:53:57.892Z</time></trkpt><trkpt lat="40.05513519020446" lon="18.144849644176094"><ele>171.0</ele><time>2026-04-05T16:54:02.892Z</time></trkpt><trkpt lat="40.05510918520134" lon="18.14493157614018"><ele>171.0</ele><time>2026-04-05T16:54:06.892Z</time></trkpt><trkpt lat="40.05515323502513" lon="18.14506497476086"><ele>171.0</ele><time>2026-04-05T16:54:07.892Z</time></trkpt><trkpt lat="40.055186989662914" lon="18.14517577344947"><ele>171.0</ele><time>2026-04-05T16:54:08.892Z</time></trkpt><trkpt lat="40.055224538182344" lon="18.145307351830635"><ele>171.0</ele><time>2026-04-05T16:54:09.892Z</time></trkpt><trkpt lat="40.05526902345686" lon="18.145464237216693"><ele>171.0</ele><time>2026-04-05T16:54:10.893Z</time></trkpt><trkpt lat="40.05533239323665" lon="18.145632040030097"><ele>171.0</ele><time>2026-04-05T16:54:11.892Z</time></trkpt><trkpt lat="40.05540965682779" lon="18.14581551718728"><ele>171.33333333333334</ele><time>2026-04-05T16:54:12.892Z</time></trkpt><trkpt lat="40.05551277316718" lon="18.146014168449078"><ele>171.66666666666669</ele><time>2026-04-05T16:54:13.893Z</time></trkpt><trkpt lat="40.05563187274378" lon="18.14621061325447"><ele>172.0</ele><time>2026-04-05T16:54:14.892Z</time></trkpt><trkpt lat="40.05576380059806" lon="18.14640461680196"><ele>174.0</ele><time>2026-04-05T16:54:15.892Z</time></trkpt><trkpt lat="40.05590718594697" lon="18.146596420805622"><ele>176.0</ele><time>2026-04-05T16:54:16.893Z</time></trkpt><trkpt lat="40.056052497113654" lon="18.14678093279272"><ele>178.0</ele><time>2026-04-05T16:54:17.892Z</time></trkpt><trkpt lat="40.056207696205135" lon="18.14695964843332"><ele>178.0</ele><time>2026-04-05T16:54:18.892Z</time></trkpt><trkpt lat="40.05636432324572" lon="18.147130829073294"><ele>178.0</ele><time>2026-04-05T16:54:19.893Z</time></trkpt><trkpt lat="40.05652768988295" lon="18.147291265622627"><ele>178.0</ele><time>2026-04-05T16:54:20.892Z</time></trkpt><trkpt lat="40.056700446705186" lon="18.147447653662965"><ele>179.0</ele><time>2026-04-05T16:54:21.892Z</time></trkpt><trkpt lat="40.056885849435936" lon="18.147595689219774"><ele>180.0</ele><time>2026-04-05T16:54:22.893Z</time></trkpt><trkpt lat="40.057076983729104" lon="18.147736281140542"><ele>181.0</ele><time>2026-04-05T16:54:23.892Z</time></trkpt><trkpt lat="40.05727542021242" lon="18.147868789119904"><ele>180.66666666666669</ele><time>2026-04-05T16:54:24.892Z</time></trkpt><trkpt lat="40.05747865200334" lon="18.14799053742754"><ele>180.33333333333334</ele><time>2026-04-05T16:54:25.892Z</time></trkpt><trkpt lat="40.05768563023467" lon="18.148100489267865"><ele>180.0</ele><time>2026-04-05T16:54:26.892Z</time></trkpt><trkpt lat="40.05789403999565" lon="18.148200998384738"><ele>180.0</ele><time>2026-04-05T16:54:27.892Z</time></trkpt><trkpt lat="40.058108183602776" lon="18.14827515562542"><ele>180.0</ele><time>2026-04-05T16:54:28.892Z</time></trkpt><trkpt lat="40.05832537413452" lon="18.14833939038099"><ele>180.0</ele><time>2026-04-05T16:54:29.892Z</time></trkpt><trkpt lat="40.05854000229323" lon="18.148384622874644"><ele>179.66666666666666</ele><time>2026-04-05T16:54:30.892Z</time></trkpt><trkpt lat="40.058753676725814" lon="18.148418498478513"><ele>179.33333333333331</ele><time>2026-04-05T16:54:31.892Z</time></trkpt><trkpt lat="40.05896234597452" lon="18.148435051381608"><ele>179.0</ele><time>2026-04-05T16:54:32.892Z</time></trkpt><trkpt lat="40.05917288104752" lon="18.148432549216203"><ele>178.66666666666666</ele><time>2026-04-05T16:54:33.892Z</time></trkpt><trkpt lat="40.05938345753525" lon="18.1484160124048"><ele>178.33333333333334</ele><time>2026-04-05T16:54:34.892Z</time></trkpt><trkpt lat="40.05958914601973" lon="18.14839299841551"><ele>178.0</ele><time>2026-04-05T16:54:35.892Z</time></trkpt><trkpt lat="40.05979822952051" lon="18.148368254423474"><ele>177.0</ele><time>2026-04-05T16:54:36.892Z</time></trkpt><trkpt lat="40.060009144839285" lon="18.148333068565222"><ele>176.0</ele><time>2026-04-05T16:54:37.892Z</time></trkpt><trkpt lat="40.06021860775897" lon="18.148300550180355"><ele>175.0</ele><time>2026-04-05T16:54:38.892Z</time></trkpt><trkpt lat="40.06042830542795" lon="18.148276633581798"><ele>175.0</ele><time>2026-04-05T16:54:39.892Z</time></trkpt><trkpt lat="40.06064191351494" lon="18.148254022225384"><ele>175.0</ele><time>2026-04-05T16:54:40.892Z</time></trkpt><trkpt lat="40.06085254465332" lon="18.1482247203851"><ele>175.0</ele><time>2026-04-05T16:54:41.892Z</time></trkpt><trkpt lat="40.06106874948375" lon="18.14820698929738"><ele>175.5</ele><time>2026-04-05T16:54:42.892Z</time></trkpt><trkpt lat="40.06129281431482" lon="18.148205050018145"><ele>176.0</ele><time>2026-04-05T16:54:43.892Z</time></trkpt><trkpt lat="40.061533848310894" lon="18.14823660140508"><ele>172.0</ele><time>2026-04-05T16:54:44.892Z</time></trkpt><trkpt lat="40.0617799419656" lon="18.148315503573123"><ele>168.0</ele><time>2026-04-05T16:54:45.892Z</time></trkpt><trkpt lat="40.06203880758709" lon="18.148417991699862"><ele>168.0</ele><time>2026-04-05T16:54:46.892Z</time></trkpt><trkpt lat="40.0620648298933" lon="18.14821357846446"><ele>168.0</ele><time>2026-04-05T16:54:47.892Z</time></trkpt><trkpt lat="40.06226016993882" lon="18.148253082254758"><ele>168.0</ele><time>2026-04-05T16:54:48.892Z</time></trkpt><trkpt lat="40.062452517601606" lon="18.148310938545432"><ele>167.66666666666666</ele><time>2026-04-05T16:54:49.892Z</time></trkpt><trkpt lat="40.06264826561554" lon="18.148376255267532"><ele>167.33333333333331</ele><time>2026-04-05T16:54:50.892Z</time></trkpt><trkpt lat="40.062836091139154" lon="18.148467785683437"><ele>167.0</ele><time>2026-04-05T16:54:51.892Z</time></trkpt><trkpt lat="40.063017457091426" lon="18.14856659034524"><ele>167.0</ele><time>2026-04-05T16:54:52.892Z</time></trkpt><trkpt lat="40.063197631217875" lon="18.148683351998066"><ele>167.0</ele><time>2026-04-05T16:54:53.892Z</time></trkpt><trkpt lat="40.06337486233778" lon="18.148806408223376"><ele>167.0</ele><time>2026-04-05T16:54:54.892Z</time></trkpt><trkpt lat="40.06354825466637" lon="18.148939406206427"><ele>165.0</ele><time>2026-04-05T16:54:55.892Z</time></trkpt><trkpt lat="40.06371846987642" lon="18.14908528377769"><ele>163.0</ele><time>2026-04-05T16:54:56.892Z</time></trkpt><trkpt lat="40.063884225566966" lon="18.149249604758804"><ele>161.0</ele><time>2026-04-05T16:54:57.892Z</time></trkpt><trkpt lat="40.064034193274296" lon="18.149426397633043"><ele>159.33333333333331</ele><time>2026-04-05T16:54:58.892Z</time></trkpt><trkpt lat="40.06417897851873" lon="18.149629628245417"><ele>157.66666666666666</ele><time>2026-04-05T16:54:59.892Z</time></trkpt><trkpt lat="40.06431596493022" lon="18.14983702637604"><ele>156.0</ele><time>2026-04-05T16:55:00.892Z</time></trkpt><trkpt lat="40.064442703127995" lon="18.15005168485218"><ele>155.33333333333334</ele><time>2026-04-05T16:55:01.892Z</time></trkpt><trkpt lat="40.0645551015617" lon="18.15027995827735"><ele>154.66666666666669</ele><time>2026-04-05T16:55:02.892Z</time></trkpt><trkpt lat="40.064661003177285" lon="18.150518065546404"><ele>154.0</ele><time>2026-04-05T16:55:03.892Z</time></trkpt><trkpt lat="40.06475448291793" lon="18.150760309514716"><ele>153.0</ele><time>2026-04-05T16:55:04.892Z</time></trkpt><trkpt lat="40.06483873577239" lon="18.151003171033796"><ele>152.0</ele><time>2026-04-05T16:55:05.892Z</time></trkpt><trkpt lat="40.06491803518176" lon="18.15125216289947"><ele>151.0</ele><time>2026-04-05T16:55:06.892Z</time></trkpt><trkpt lat="40.06498914225142" lon="18.151506655724074"><ele>149.66666666666669</ele><time>2026-04-05T16:55:07.892Z</time></trkpt><trkpt lat="40.06506193146902" lon="18.151758230262473"><ele>148.33333333333334</ele><time>2026-04-05T16:55:08.892Z</time></trkpt><trkpt lat="40.06513925978483" lon="18.152004637593596"><ele>147.0</ele><time>2026-04-05T16:55:09.892Z</time></trkpt><trkpt lat="40.065220677931634" lon="18.152250019702088"><ele>146.66666666666666</ele><time>2026-04-05T16:55:10.892Z</time></trkpt><trkpt lat="40.065284313918895" lon="18.15251104283975"><ele>146.33333333333331</ele><time>2026-04-05T16:55:11.892Z</time></trkpt><trkpt lat="40.06535133396416" lon="18.15276299118327"><ele>146.0</ele><time>2026-04-05T16:55:12.892Z</time></trkpt><trkpt lat="40.06542320322403" lon="18.152998089983193"><ele>146.0</ele><time>2026-04-05T16:55:13.892Z</time></trkpt><trkpt lat="40.06549106986858" lon="18.153215971077888"><ele>146.0</ele><time>2026-04-05T16:55:14.892Z</time></trkpt><trkpt lat="40.06555444967982" lon="18.153419060627513"><ele>146.0</ele><time>2026-04-05T16:55:15.892Z</time></trkpt><trkpt lat="40.06561600582079" lon="18.153617495794137"><ele>146.0</ele><time>2026-04-05T16:55:16.892Z</time></trkpt><trkpt lat="40.06566736374626" lon="18.15379529200809"><ele>146.0</ele><time>2026-04-05T16:55:17.892Z</time></trkpt><trkpt lat="40.065716534757875" lon="18.153951736029452"><ele>146.0</ele><time>2026-04-05T16:55:18.892Z</time></trkpt><trkpt lat="40.06574946787205" lon="18.15409603089383"><ele>146.0</ele><time>2026-04-05T16:55:19.892Z</time></trkpt><trkpt lat="40.065776462726745" lon="18.15421486265874"><ele>145.6</ele><time>2026-04-05T16:55:20.892Z</time></trkpt><trkpt lat="40.06581003533389" lon="18.154317524209354"><ele>145.2</ele><time>2026-04-05T16:55:21.892Z</time></trkpt><trkpt lat="40.06586195199283" lon="18.154429186494397"><ele>144.8</ele><time>2026-04-05T16:55:22.892Z</time></trkpt><trkpt lat="40.0658957463064" lon="18.154527250559646"><ele>144.4</ele><time>2026-04-05T16:55:23.892Z</time></trkpt><trkpt lat="40.065926977813064" lon="18.154628405217537"><ele>144.0</ele><time>2026-04-05T16:55:25.891Z</time></trkpt><trkpt lat="40.065978148515754" lon="18.154770147844864"><ele>143.5</ele><time>2026-04-05T16:55:28.891Z</time></trkpt><trkpt lat="40.0660242482361" lon="18.15487759404352"><ele>143.0</ele><time>2026-04-05T16:55:29.891Z</time></trkpt><trkpt lat="40.06608750257627" lon="18.15502109650557"><ele>142.5</ele><time>2026-04-05T16:55:30.891Z</time></trkpt><trkpt lat="40.06616967877673" lon="18.155183761158664"><ele>142.0</ele><time>2026-04-05T16:55:31.891Z</time></trkpt><trkpt lat="40.066279466880815" lon="18.15536431080232"><ele>142.0</ele><time>2026-04-05T16:55:32.891Z</time></trkpt><trkpt lat="40.06639924672907" lon="18.15555934990758"><ele>142.0</ele><time>2026-04-05T16:55:33.891Z</time></trkpt><trkpt lat="40.06651570664446" lon="18.155754067827313"><ele>142.0</ele><time>2026-04-05T16:55:34.891Z</time></trkpt><trkpt lat="40.066625943014" lon="18.155932780750614"><ele>140.33333333333334</ele><time>2026-04-05T16:55:35.891Z</time></trkpt><trkpt lat="40.06672613570953" lon="18.156106083488094"><ele>138.66666666666666</ele><time>2026-04-05T16:55:36.891Z</time></trkpt><trkpt lat="40.06682086762988" lon="18.156257482210073"><ele>137.0</ele><time>2026-04-05T16:55:37.891Z</time></trkpt><trkpt lat="40.06690542352504" lon="18.156397493852285"><ele>137.0</ele><time>2026-04-05T16:55:38.891Z</time></trkpt><trkpt lat="40.06697717034573" lon="18.15651595086553"><ele>137.0</ele><time>2026-04-05T16:55:39.891Z</time></trkpt><trkpt lat="40.06705252970109" lon="18.15663030888919"><ele>137.0</ele><time>2026-04-05T16:55:40.891Z</time></trkpt><trkpt lat="40.06712976000118" lon="18.156729700033296"><ele>137.0</ele><time>2026-04-05T16:55:41.891Z</time></trkpt><trkpt lat="40.06719346022709" lon="18.15684668026921"><ele>137.0</ele><time>2026-04-05T16:55:42.891Z</time></trkpt><trkpt lat="40.0672555925677" lon="18.156960355467127"><ele>136.66666666666666</ele><time>2026-04-05T16:55:43.891Z</time></trkpt><trkpt lat="40.06731717168672" lon="18.157073527269816"><ele>136.33333333333331</ele><time>2026-04-05T16:55:44.891Z</time></trkpt><trkpt lat="40.06736849345433" lon="18.157166937802508"><ele>136.0</ele><time>2026-04-05T16:55:45.891Z</time></trkpt><trkpt lat="40.06741464332288" lon="18.1572389195427"><ele>135.66666666666666</ele><time>2026-04-05T16:55:46.891Z</time></trkpt><trkpt lat="40.06746144614853" lon="18.157316146488654"><ele>135.33333333333334</ele><time>2026-04-05T16:55:47.891Z</time></trkpt><trkpt lat="40.06750175185209" lon="18.15740324452998"><ele>135.0</ele><time>2026-04-05T16:55:48.891Z</time></trkpt><trkpt lat="40.067570927365686" lon="18.15750382491342"><ele>133.8</ele><time>2026-04-05T16:55:50.891Z</time></trkpt><trkpt lat="40.06764246317548" lon="18.15760935385065"><ele>132.6</ele><time>2026-04-05T16:55:52.891Z</time></trkpt><trkpt lat="40.067693735186786" lon="18.15769625999928"><ele>131.4</ele><time>2026-04-05T16:55:53.891Z</time></trkpt><trkpt lat="40.06776471083218" lon="18.157801457757504"><ele>130.2</ele><time>2026-04-05T16:55:54.891Z</time></trkpt><trkpt lat="40.06785760247684" lon="18.157949767410692"><ele>129.0</ele><time>2026-04-05T16:55:55.891Z</time></trkpt><trkpt lat="40.06795822576584" lon="18.15809029694898"><ele>128.33333333333334</ele><time>2026-04-05T16:55:56.891Z</time></trkpt><trkpt lat="40.06806955681218" lon="18.158238552819068"><ele>127.66666666666667</ele><time>2026-04-05T16:55:57.891Z</time></trkpt><trkpt lat="40.06816303485248" lon="18.158388198734645"><ele>127.0</ele><time>2026-04-05T16:55:58.891Z</time></trkpt><trkpt lat="40.06825998410534" lon="18.15854120555463"><ele>127.0</ele><time>2026-04-05T16:55:59.891Z</time></trkpt><trkpt lat="40.06835822585342" lon="18.158694908620692"><ele>127.0</ele><time>2026-04-05T16:56:00.891Z</time></trkpt><trkpt lat="40.068457986807175" lon="18.158846622047868"><ele>127.0</ele><time>2026-04-05T16:56:01.891Z</time></trkpt><trkpt lat="40.0685527045513" lon="18.15898928154163"><ele>127.0</ele><time>2026-04-05T16:56:02.891Z</time></trkpt><trkpt lat="40.06866031251482" lon="18.159152524739756"><ele>127.0</ele><time>2026-04-05T16:56:03.891Z</time></trkpt><trkpt lat="40.068761203548576" lon="18.159312789500962"><ele>127.0</ele><time>2026-04-05T16:56:04.891Z</time></trkpt><trkpt lat="40.06885255673598" lon="18.159468576976145"><ele>127.0</ele><time>2026-04-05T16:56:05.891Z</time></trkpt><trkpt lat="40.06893538571184" lon="18.159594314804746"><ele>127.0</ele><time>2026-04-05T16:56:06.891Z</time></trkpt><trkpt lat="40.069008890721" lon="18.159723261443435"><ele>127.0</ele><time>2026-04-05T16:56:07.891Z</time></trkpt><trkpt lat="40.069074022476535" lon="18.15982951465316"><ele>127.0</ele><time>2026-04-05T16:56:08.891Z</time></trkpt><trkpt lat="40.06914356643336" lon="18.159946122726172"><ele>126.66666666666667</ele><time>2026-04-05T16:56:09.891Z</time></trkpt><trkpt lat="40.06920392729209" lon="18.160053329752095"><ele>126.33333333333334</ele><time>2026-04-05T16:56:10.891Z</time></trkpt><trkpt lat="40.06925213354929" lon="18.160148227666856"><ele>126.0</ele><time>2026-04-05T16:56:11.891Z</time></trkpt><trkpt lat="40.069298942865615" lon="18.16022317661847"><ele>125.66666666666666</ele><time>2026-04-05T16:56:12.891Z</time></trkpt><trkpt lat="40.06934239445231" lon="18.16030122194168"><ele>125.33333333333333</ele><time>2026-04-05T16:56:13.891Z</time></trkpt><trkpt lat="40.069388069401754" lon="18.16037716125728"><ele>125.0</ele><time>2026-04-05T16:56:14.891Z</time></trkpt><trkpt lat="40.06943524663897" lon="18.16044345880943"><ele>125.0</ele><time>2026-04-05T16:56:15.892Z</time></trkpt><trkpt lat="40.06947308850149" lon="18.160509283311114"><ele>125.0</ele><time>2026-04-05T16:56:16.892Z</time></trkpt><trkpt lat="40.06951034493858" lon="18.1605970314787"><ele>125.0</ele><time>2026-04-05T16:56:18.892Z</time></trkpt><trkpt lat="40.06947950403365" lon="18.16069979787863"><ele>125.0</ele><time>2026-04-05T16:56:21.892Z</time></trkpt><trkpt lat="40.06938036738155" lon="18.160837969132952"><ele>125.0</ele><time>2026-04-05T16:56:23.892Z</time></trkpt><trkpt lat="40.06930156307794" lon="18.16089637798039"><ele>124.83333333333333</ele><time>2026-04-05T16:56:24.892Z</time></trkpt><trkpt lat="40.069235296221606" lon="18.160936148182138"><ele>124.66666666666666</ele><time>2026-04-05T16:56:25.892Z</time></trkpt><trkpt lat="40.06917287458399" lon="18.16098483607079"><ele>124.5</ele><time>2026-04-05T16:56:26.892Z</time></trkpt><trkpt lat="40.06910351088443" lon="18.161037667232247"><ele>124.33333333333334</ele><time>2026-04-05T16:56:27.892Z</time></trkpt><trkpt lat="40.06902901634607" lon="18.16110699406428"><ele>124.16666666666667</ele><time>2026-04-05T16:56:28.892Z</time></trkpt><trkpt lat="40.06894035771766" lon="18.161194503531338"><ele>124.0</ele><time>2026-04-05T16:56:29.892Z</time></trkpt><trkpt lat="40.06882971301255" lon="18.161301743712137"><ele>124.0</ele><time>2026-04-05T16:56:30.892Z</time></trkpt><trkpt lat="40.068727951577124" lon="18.161389545161192"><ele>124.0</ele><time>2026-04-05T16:56:31.892Z</time></trkpt><trkpt lat="40.068647472954545" lon="18.16146293263762"><ele>124.0</ele><time>2026-04-05T16:56:32.892Z</time></trkpt><trkpt lat="40.06857830184929" lon="18.161529747078184"><ele>124.0</ele><time>2026-04-05T16:56:33.892Z</time></trkpt><trkpt lat="40.06852026800136" lon="18.16159667935851"><ele>124.0</ele><time>2026-04-05T16:56:34.892Z</time></trkpt><trkpt lat="40.068462811343174" lon="18.161654162087775"><ele>123.83333333333334</ele><time>2026-04-05T16:56:35.892Z</time></trkpt><trkpt lat="40.068407473103676" lon="18.161717253839665"><ele>123.66666666666667</ele><time>2026-04-05T16:56:36.892Z</time></trkpt><trkpt lat="40.06834504822288" lon="18.16178979941386"><ele>123.5</ele><time>2026-04-05T16:56:37.892Z</time></trkpt><trkpt lat="40.0682737671204" lon="18.16185076782468"><ele>123.33333333333334</ele><time>2026-04-05T16:56:38.892Z</time></trkpt><trkpt lat="40.068199547842624" lon="18.161911035549778"><ele>123.16666666666667</ele><time>2026-04-05T16:56:39.892Z</time></trkpt><trkpt lat="40.068136623723426" lon="18.161967954736564"><ele>123.0</ele><time>2026-04-05T16:56:40.892Z</time></trkpt><trkpt lat="40.068074431030404" lon="18.162020030146845"><ele>123.0</ele><time>2026-04-05T16:56:42.892Z</time></trkpt><trkpt lat="40.06806523769025" lon="18.162128668720698"><ele>123.0</ele><time>2026-04-05T16:56:49.892Z</time></trkpt><trkpt lat="40.06809837253074" lon="18.162201547344104"><ele>123.0</ele><time>2026-04-05T16:56:50.892Z</time></trkpt><trkpt lat="40.068130534110395" lon="18.162277672010404"><ele>123.0</ele><time>2026-04-05T16:56:51.892Z</time></trkpt><trkpt lat="40.06820417968557" lon="18.162403568218775"><ele>123.0</ele><time>2026-04-05T16:56:52.892Z</time></trkpt><trkpt lat="40.06825885023302" lon="18.16249083485668"><ele>123.0</ele><time>2026-04-05T16:56:53.892Z</time></trkpt><trkpt lat="40.06830866489818" lon="18.162559157942077"><ele>123.2</ele><time>2026-04-05T16:56:54.892Z</time></trkpt><trkpt lat="40.06835721564724" lon="18.162667500240744"><ele>123.4</ele><time>2026-04-05T16:56:56.892Z</time></trkpt><trkpt lat="40.0684056568425" lon="18.16277008324835"><ele>123.60000000000001</ele><time>2026-04-05T16:57:00.892Z</time></trkpt><trkpt lat="40.068491252708974" lon="18.162881563281605"><ele>123.80000000000001</ele><time>2026-04-05T16:57:02.892Z</time></trkpt><trkpt lat="40.068546220768845" lon="18.1629740709486"><ele>124.0</ele><time>2026-04-05T16:57:03.892Z</time></trkpt><trkpt lat="40.068608295781424" lon="18.163081301106846"><ele>123.80000000000001</ele><time>2026-04-05T16:57:04.892Z</time></trkpt><trkpt lat="40.068677288382595" lon="18.163200201513956"><ele>123.60000000000001</ele><time>2026-04-05T16:57:05.892Z</time></trkpt><trkpt lat="40.06874306403615" lon="18.16330845463598"><ele>123.4</ele><time>2026-04-05T16:57:06.892Z</time></trkpt><trkpt lat="40.0687868137856" lon="18.163404241634478"><ele>123.2</ele><time>2026-04-05T16:57:07.892Z</time></trkpt><trkpt lat="40.06883332180084" lon="18.163529836873877"><ele>123.0</ele><time>2026-04-05T16:57:09.892Z</time></trkpt><trkpt lat="40.0687988946329" lon="18.163603833228763"><ele>123.0</ele><time>2026-04-05T16:57:12.892Z</time></trkpt><trkpt lat="40.068691087156665" lon="18.16369499076032"><ele>123.0</ele><time>2026-04-05T16:57:14.892Z</time></trkpt><trkpt lat="40.068590740354296" lon="18.16373209640644"><ele>123.0</ele><time>2026-04-05T16:57:15.892Z</time></trkpt><trkpt lat="40.06847663132928" lon="18.16377489642577"><ele>123.0</ele><time>2026-04-05T16:57:16.892Z</time></trkpt><trkpt lat="40.068367619809976" lon="18.1638267975007"><ele>123.0</ele><time>2026-04-05T16:57:17.892Z</time></trkpt><trkpt lat="40.0682491005501" lon="18.163887883058777"><ele>123.0</ele><time>2026-04-05T16:57:18.892Z</time></trkpt><trkpt lat="40.06812324995778" lon="18.16394121838599"><ele>123.0</ele><time>2026-04-05T16:57:19.892Z</time></trkpt><trkpt lat="40.067988709127576" lon="18.164004670521898"><ele>123.0</ele><time>2026-04-05T16:57:20.892Z</time></trkpt><trkpt lat="40.06784204400396" lon="18.164064380187735"><ele>123.0</ele><time>2026-04-05T16:57:21.892Z</time></trkpt><trkpt lat="40.06772320368401" lon="18.164137506084696"><ele>123.0</ele><time>2026-04-05T16:57:22.892Z</time></trkpt><trkpt lat="40.067592976531884" lon="18.164215200746934"><ele>123.0</ele><time>2026-04-05T16:57:23.892Z</time></trkpt><trkpt lat="40.067481258818894" lon="18.164296157363022"><ele>123.0</ele><time>2026-04-05T16:57:24.892Z</time></trkpt><trkpt lat="40.067359526470916" lon="18.164374983678265"><ele>123.0</ele><time>2026-04-05T16:57:25.892Z</time></trkpt><trkpt lat="40.06725847271421" lon="18.16445094988661"><ele>123.0</ele><time>2026-04-05T16:57:26.892Z</time></trkpt><trkpt lat="40.06717689694653" lon="18.164500310737505"><ele>123.0</ele><time>2026-04-05T16:57:27.892Z</time></trkpt><trkpt lat="40.06710623088813" lon="18.164542224882183"><ele>123.0</ele><time>2026-04-05T16:57:28.892Z</time></trkpt><trkpt lat="40.067042614332514" lon="18.164566909087046"><ele>123.0</ele><time>2026-04-05T16:57:30.892Z</time></trkpt><trkpt lat="40.066969556423494" lon="18.164614457291535"><ele>123.0</ele><time>2026-04-05T16:57:33.892Z</time></trkpt><trkpt lat="40.06690911626693" lon="18.16465356441368"><ele>123.0</ele><time>2026-04-05T16:57:34.892Z</time></trkpt><trkpt lat="40.0668357225353" lon="18.164699828732957"><ele>123.00000000000001</ele><time>2026-04-05T16:57:35.891Z</time></trkpt><trkpt lat="40.06674519371151" lon="18.16475221574962"><ele>123.00000000000001</ele><time>2026-04-05T16:57:36.891Z</time></trkpt><trkpt lat="40.06663460468654" lon="18.164803261366494"><ele>123.0</ele><time>2026-04-05T16:57:37.891Z</time></trkpt><trkpt lat="40.06650302025523" lon="18.164857017238482"><ele>123.0</ele><time>2026-04-05T16:57:38.891Z</time></trkpt><trkpt lat="40.06635587164493" lon="18.16490664985455"><ele>123.0</ele><time>2026-04-05T16:57:39.891Z</time></trkpt><trkpt lat="40.06619844225318" lon="18.164960173360008"><ele>123.0</ele><time>2026-04-05T16:57:40.891Z</time></trkpt><trkpt lat="40.06604812372881" lon="18.165019620353345"><ele>123.0</ele><time>2026-04-05T16:57:41.891Z</time></trkpt><trkpt lat="40.06589730447091" lon="18.165074942376993"><ele>123.33333333333334</ele><time>2026-04-05T16:57:42.891Z</time></trkpt><trkpt lat="40.065730821510144" lon="18.16510133505919"><ele>123.66666666666667</ele><time>2026-04-05T16:57:43.891Z</time></trkpt><trkpt lat="40.06557498990498" lon="18.16512341160167"><ele>124.0</ele><time>2026-04-05T16:57:44.891Z</time></trkpt><trkpt lat="40.065425351818824" lon="18.165113195750607"><ele>124.0</ele><time>2026-04-05T16:57:45.891Z</time></trkpt><trkpt lat="40.06526103602537" lon="18.165085717324782"><ele>124.0</ele><time>2026-04-05T16:57:46.891Z</time></trkpt><trkpt lat="40.06508157692413" lon="18.165069624870444"><ele>124.0</ele><time>2026-04-05T16:57:47.891Z</time></trkpt><trkpt lat="40.064891121651534" lon="18.165082888085838"><ele>124.0</ele><time>2026-04-05T16:57:48.891Z</time></trkpt><trkpt lat="40.06470185950434" lon="18.165111304284334"><ele>124.0</ele><time>2026-04-05T16:57:49.891Z</time></trkpt><trkpt lat="40.0645172263437" lon="18.165158550245025"><ele>124.0</ele><time>2026-04-05T16:57:50.891Z</time></trkpt><trkpt lat="40.06433388567221" lon="18.165218391522508"><ele>124.0</ele><time>2026-04-05T16:57:51.891Z</time></trkpt><trkpt lat="40.064149849611695" lon="18.165289962580438"><ele>124.0</ele><time>2026-04-05T16:57:52.891Z</time></trkpt><trkpt lat="40.06397071872259" lon="18.1653811271885"><ele>124.0</ele><time>2026-04-05T16:57:53.891Z</time></trkpt><trkpt lat="40.06381563055742" lon="18.16551141991211"><ele>124.0</ele><time>2026-04-05T16:57:54.891Z</time></trkpt><trkpt lat="40.063659448855105" lon="18.165657401916963"><ele>124.0</ele><time>2026-04-05T16:57:55.891Z</time></trkpt><trkpt lat="40.06352252336192" lon="18.16583547577009"><ele>124.0</ele><time>2026-04-05T16:57:56.891Z</time></trkpt><trkpt lat="40.0633001169337" lon="18.165880833239115"><ele>124.66666666666667</ele><time>2026-04-05T16:57:57.891Z</time></trkpt><trkpt lat="40.063154341748564" lon="18.16605115218651"><ele>125.33333333333334</ele><time>2026-04-05T16:57:58.891Z</time></trkpt><trkpt lat="40.06300217342291" lon="18.166226547627957"><ele>126.0</ele><time>2026-04-05T16:57:59.891Z</time></trkpt><trkpt lat="40.06284870627426" lon="18.166393950383767"><ele>126.33333333333334</ele><time>2026-04-05T16:58:00.891Z</time></trkpt><trkpt lat="40.062695851220404" lon="18.166552535233524"><ele>126.66666666666667</ele><time>2026-04-05T16:58:01.891Z</time></trkpt><trkpt lat="40.06254311389875" lon="18.16669638590052"><ele>127.0</ele><time>2026-04-05T16:58:02.891Z</time></trkpt><trkpt lat="40.06238795782224" lon="18.16682195495952"><ele>127.0</ele><time>2026-04-05T16:58:03.891Z</time></trkpt><trkpt lat="40.0622210147927" lon="18.166927155714053"><ele>127.0</ele><time>2026-04-05T16:58:04.891Z</time></trkpt><trkpt lat="40.06204470150534" lon="18.167016513746166"><ele>127.0</ele><time>2026-04-05T16:58:05.891Z</time></trkpt><trkpt lat="40.061864918347986" lon="18.16708879445946"><ele>127.0</ele><time>2026-04-05T16:58:06.891Z</time></trkpt><trkpt lat="40.06167283452426" lon="18.167145235170903"><ele>127.0</ele><time>2026-04-05T16:58:07.891Z</time></trkpt><trkpt lat="40.06148042438435" lon="18.167192907050605"><ele>127.0</ele><time>2026-04-05T16:58:08.891Z</time></trkpt><trkpt lat="40.06128543792659" lon="18.16724379412799"><ele>127.33333333333334</ele><time>2026-04-05T16:58:09.891Z</time></trkpt><trkpt lat="40.06108979536786" lon="18.167290141931595"><ele>127.66666666666666</ele><time>2026-04-05T16:58:10.891Z</time></trkpt><trkpt lat="40.06089259189897" lon="18.16733836858869"><ele>128.0</ele><time>2026-04-05T16:58:11.891Z</time></trkpt><trkpt lat="40.06069522001316" lon="18.167390031104837"><ele>127.0</ele><time>2026-04-05T16:58:12.891Z</time></trkpt><trkpt lat="40.06049883303075" lon="18.16744609244629"><ele>126.0</ele><time>2026-04-05T16:58:13.891Z</time></trkpt><trkpt lat="40.06030236891133" lon="18.167503114509483"><ele>125.0</ele><time>2026-04-05T16:58:14.891Z</time></trkpt><trkpt lat="40.06010821528395" lon="18.167554455987062"><ele>125.33333333333333</ele><time>2026-04-05T16:58:15.891Z</time></trkpt><trkpt lat="40.0599198381867" lon="18.167606097682928"><ele>125.66666666666666</ele><time>2026-04-05T16:58:16.891Z</time></trkpt><trkpt lat="40.05973151554866" lon="18.167657682454273"><ele>126.0</ele><time>2026-04-05T16:58:17.891Z</time></trkpt><trkpt lat="40.059546662392435" lon="18.167710202291524"><ele>126.0</ele><time>2026-04-05T16:58:18.891Z</time></trkpt><trkpt lat="40.05936288753561" lon="18.16776163729194"><ele>126.0</ele><time>2026-04-05T16:58:19.891Z</time></trkpt><trkpt lat="40.05918176573477" lon="18.167810105100962"><ele>126.0</ele><time>2026-04-05T16:58:20.891Z</time></trkpt><trkpt lat="40.05899629716514" lon="18.167860182136746"><ele>126.33333333333334</ele><time>2026-04-05T16:58:21.892Z</time></trkpt><trkpt lat="40.05881396852545" lon="18.16790532682959"><ele>126.66666666666667</ele><time>2026-04-05T16:58:22.892Z</time></trkpt><trkpt lat="40.058627977363074" lon="18.167945631890774"><ele>127.0</ele><time>2026-04-05T16:58:23.892Z</time></trkpt><trkpt lat="40.05844196843878" lon="18.16799191413804"><ele>127.66666666666667</ele><time>2026-04-05T16:58:24.892Z</time></trkpt><trkpt lat="40.0582555981412" lon="18.168039907405507"><ele>128.33333333333334</ele><time>2026-04-05T16:58:25.891Z</time></trkpt><trkpt lat="40.0580693070202" lon="18.168082369428504"><ele>129.0</ele><time>2026-04-05T16:58:26.891Z</time></trkpt><trkpt lat="40.057883264077915" lon="18.168128624520012"><ele>129.0</ele><time>2026-04-05T16:58:27.892Z</time></trkpt><trkpt lat="40.057697569534675" lon="18.168176456273645"><ele>129.0</ele><time>2026-04-05T16:58:28.892Z</time></trkpt><trkpt lat="40.0575111619995" lon="18.16821937507963"><ele>129.0</ele><time>2026-04-05T16:58:29.892Z</time></trkpt><trkpt lat="40.05732299355967" lon="18.168264890640845"><ele>128.66666666666666</ele><time>2026-04-05T16:58:30.892Z</time></trkpt><trkpt lat="40.05713485671089" lon="18.168317450712024"><ele>128.33333333333331</ele><time>2026-04-05T16:58:31.891Z</time></trkpt><trkpt lat="40.05694961638493" lon="18.168366746461956"><ele>128.0</ele><time>2026-04-05T16:58:32.891Z</time></trkpt><trkpt lat="40.056765929923166" lon="18.168407387939187"><ele>128.66666666666666</ele><time>2026-04-05T16:58:33.892Z</time></trkpt><trkpt lat="40.056581181971914" lon="18.168447693114018"><ele>129.33333333333334</ele><time>2026-04-05T16:58:34.892Z</time></trkpt><trkpt lat="40.05639825467514" lon="18.168477925295786"><ele>130.0</ele><time>2026-04-05T16:58:35.892Z</time></trkpt><trkpt lat="40.05621317072726" lon="18.1685039713939"><ele>130.0</ele><time>2026-04-05T16:58:36.892Z</time></trkpt><trkpt lat="40.0560252821982" lon="18.168512385332058"><ele>130.0</ele><time>2026-04-05T16:58:37.892Z</time></trkpt><trkpt lat="40.05584212339964" lon="18.168510550937434"><ele>130.0</ele><time>2026-04-05T16:58:38.892Z</time></trkpt><trkpt lat="40.05565945426361" lon="18.16850348348084"><ele>131.33333333333334</ele><time>2026-04-05T16:58:39.892Z</time></trkpt><trkpt lat="40.055471881476024" lon="18.168494889261044"><ele>132.66666666666666</ele><time>2026-04-05T16:58:40.892Z</time></trkpt><trkpt lat="40.055282397241825" lon="18.168490539051135"><ele>134.0</ele><time>2026-04-05T16:58:41.892Z</time></trkpt><trkpt lat="40.055099010621774" lon="18.168482811727365"><ele>135.0</ele><time>2026-04-05T16:58:42.892Z</time></trkpt><trkpt lat="40.054913941988005" lon="18.168472285941775"><ele>136.0</ele><time>2026-04-05T16:58:43.892Z</time></trkpt><trkpt lat="40.05472911290768" lon="18.16846748152301"><ele>137.0</ele><time>2026-04-05T16:58:44.892Z</time></trkpt><trkpt lat="40.054541418395814" lon="18.168464498206752"><ele>137.0</ele><time>2026-04-05T16:58:45.892Z</time></trkpt><trkpt lat="40.05435824306094" lon="18.16846271120857"><ele>137.0</ele><time>2026-04-05T16:58:46.892Z</time></trkpt><trkpt lat="40.05417381831331" lon="18.168456967924175"><ele>137.0</ele><time>2026-04-05T16:58:47.892Z</time></trkpt><trkpt lat="40.0539909424435" lon="18.16844635212389"><ele>138.66666666666666</ele><time>2026-04-05T16:58:48.892Z</time></trkpt><trkpt lat="40.0538074468542" lon="18.168437733678267"><ele>140.33333333333334</ele><time>2026-04-05T16:58:49.892Z</time></trkpt><trkpt lat="40.05362139078359" lon="18.1684281865334"><ele>142.0</ele><time>2026-04-05T16:58:50.892Z</time></trkpt><trkpt lat="40.05343756803391" lon="18.168419402595575"><ele>143.66666666666669</ele><time>2026-04-05T16:58:51.892Z</time></trkpt><trkpt lat="40.053254254184885" lon="18.168417949284077"><ele>145.33333333333334</ele><time>2026-04-05T16:58:52.892Z</time></trkpt><trkpt lat="40.053073175798595" lon="18.168423378547665"><ele>147.0</ele><time>2026-04-05T16:58:53.892Z</time></trkpt><trkpt lat="40.05289156481754" lon="18.168437828747468"><ele>147.0</ele><time>2026-04-05T16:58:54.892Z</time></trkpt><trkpt lat="40.052709354578994" lon="18.168469216044137"><ele>147.0</ele><time>2026-04-05T16:58:55.892Z</time></trkpt><trkpt lat="40.052528164115415" lon="18.168511743713637"><ele>147.0</ele><time>2026-04-05T16:58:56.891Z</time></trkpt><trkpt lat="40.05234466849181" lon="18.16856428824033"><ele>148.33333333333334</ele><time>2026-04-05T16:58:57.891Z</time></trkpt><trkpt lat="40.052163663975854" lon="18.16862259816103"><ele>149.66666666666669</ele><time>2026-04-05T16:58:58.891Z</time></trkpt><trkpt lat="40.05198060230729" lon="18.168680327695018"><ele>151.0</ele><time>2026-04-05T16:58:59.891Z</time></trkpt><trkpt lat="40.05179010883974" lon="18.168727077081083"><ele>151.66666666666669</ele><time>2026-04-05T16:59:00.891Z</time></trkpt><trkpt lat="40.05160102211846" lon="18.16877097673631"><ele>152.33333333333334</ele><time>2026-04-05T16:59:01.891Z</time></trkpt><trkpt lat="40.05141158568529" lon="18.168816579193933"><ele>153.0</ele><time>2026-04-05T16:59:02.891Z</time></trkpt><trkpt lat="40.051218920933444" lon="18.16886733911421"><ele>153.0</ele><time>2026-04-05T16:59:03.891Z</time></trkpt><trkpt lat="40.05102952673497" lon="18.168918664510908"><ele>153.0</ele><time>2026-04-05T16:59:04.891Z</time></trkpt><trkpt lat="40.05083583925152" lon="18.168969975872663"><ele>153.0</ele><time>2026-04-05T16:59:05.891Z</time></trkpt><trkpt lat="40.05064206515502" lon="18.169023227503878"><ele>152.33333333333334</ele><time>2026-04-05T16:59:06.891Z</time></trkpt><trkpt lat="40.05045155406024" lon="18.169077124651754"><ele>151.66666666666669</ele><time>2026-04-05T16:59:07.891Z</time></trkpt><trkpt lat="40.05026027318737" lon="18.169132978389097"><ele>151.0</ele><time>2026-04-05T16:59:08.891Z</time></trkpt><trkpt lat="40.05006937881318" lon="18.169195674093434"><ele>152.66666666666669</ele><time>2026-04-05T16:59:09.891Z</time></trkpt><trkpt lat="40.04988206039492" lon="18.169270954573935"><ele>154.33333333333334</ele><time>2026-04-05T16:59:10.891Z</time></trkpt><trkpt lat="40.0496965926654" lon="18.169364646040172"><ele>156.0</ele><time>2026-04-05T16:59:11.891Z</time></trkpt><trkpt lat="40.049512682722195" lon="18.169474320777173"><ele>156.0</ele><time>2026-04-05T16:59:12.891Z</time></trkpt><trkpt lat="40.0493314147996" lon="18.1695842853944"><ele>156.0</ele><time>2026-04-05T16:59:13.891Z</time></trkpt><trkpt lat="40.04914436420015" lon="18.169700069866025"><ele>156.0</ele><time>2026-04-05T16:59:14.891Z</time></trkpt><trkpt lat="40.04895705507679" lon="18.16981238202512"><ele>155.33333333333334</ele><time>2026-04-05T16:59:15.891Z</time></trkpt><trkpt lat="40.048771911293144" lon="18.169923586455813"><ele>154.66666666666669</ele><time>2026-04-05T16:59:16.891Z</time></trkpt><trkpt lat="40.04858401016682" lon="18.170038171382473"><ele>154.0</ele><time>2026-04-05T16:59:17.891Z</time></trkpt><trkpt lat="40.04839835131611" lon="18.170150967150114"><ele>155.0</ele><time>2026-04-05T16:59:18.891Z</time></trkpt><trkpt lat="40.04821136371196" lon="18.1702668400205"><ele>156.0</ele><time>2026-04-05T16:59:19.891Z</time></trkpt><trkpt lat="40.048026629345586" lon="18.1703868154805"><ele>157.0</ele><time>2026-04-05T16:59:20.891Z</time></trkpt><trkpt lat="40.04783142874563" lon="18.170503589428897"><ele>157.0</ele><time>2026-04-05T16:59:21.891Z</time></trkpt><trkpt lat="40.04764321081818" lon="18.170623248373047"><ele>157.0</ele><time>2026-04-05T16:59:22.891Z</time></trkpt><trkpt lat="40.047459545296086" lon="18.17073481194291"><ele>157.0</ele><time>2026-04-05T16:59:23.891Z</time></trkpt><trkpt lat="40.047276694722065" lon="18.17084330328194"><ele>157.0</ele><time>2026-04-05T16:59:24.891Z</time></trkpt><trkpt lat="40.04708948003664" lon="18.170953027280078"><ele>157.0</ele><time>2026-04-05T16:59:25.891Z</time></trkpt><trkpt lat="40.046902691793065" lon="18.171059770123637"><ele>157.0</ele><time>2026-04-05T16:59:26.891Z</time></trkpt><trkpt lat="40.046706577197455" lon="18.17115181436134"><ele>157.66666666666669</ele><time>2026-04-05T16:59:27.891Z</time></trkpt><trkpt lat="40.046500039001224" lon="18.171228539813786"><ele>158.33333333333334</ele><time>2026-04-05T16:59:28.891Z</time></trkpt><trkpt lat="40.04628556474803" lon="18.17130834352855"><ele>159.0</ele><time>2026-04-05T16:59:29.891Z</time></trkpt><trkpt lat="40.04606469780421" lon="18.17138592661648"><ele>159.0</ele><time>2026-04-05T16:59:30.891Z</time></trkpt><trkpt lat="40.04586686906256" lon="18.171472467317376"><ele>159.0</ele><time>2026-04-05T16:59:31.891Z</time></trkpt><trkpt lat="40.045676224518445" lon="18.171551231492533"><ele>159.0</ele><time>2026-04-05T16:59:32.891Z</time></trkpt><trkpt lat="40.04548937604326" lon="18.17161580863361"><ele>159.0</ele><time>2026-04-05T16:59:33.891Z</time></trkpt><trkpt lat="40.045296722404274" lon="18.17165986734003"><ele>159.0</ele><time>2026-04-05T16:59:34.891Z</time></trkpt><trkpt lat="40.04509709862084" lon="18.17168525141489"><ele>159.0</ele><time>2026-04-05T16:59:35.891Z</time></trkpt><trkpt lat="40.04489515613989" lon="18.171686530550495"><ele>159.0</ele><time>2026-04-05T16:59:36.891Z</time></trkpt><trkpt lat="40.04468525216223" lon="18.171669062821135"><ele>159.0</ele><time>2026-04-05T16:59:37.891Z</time></trkpt><trkpt lat="40.04447648239104" lon="18.17164452473696"><ele>159.0</ele><time>2026-04-05T16:59:38.891Z</time></trkpt><trkpt lat="40.04426741783253" lon="18.171635302736316"><ele>158.0</ele><time>2026-04-05T16:59:39.891Z</time></trkpt><trkpt lat="40.04406091613384" lon="18.171641975006263"><ele>157.0</ele><time>2026-04-05T16:59:40.891Z</time></trkpt><trkpt lat="40.043864872760906" lon="18.171640960565906"><ele>156.0</ele><time>2026-04-05T16:59:41.891Z</time></trkpt><trkpt lat="40.04366420249014" lon="18.171629668810912"><ele>156.0</ele><time>2026-04-05T16:59:42.891Z</time></trkpt><trkpt lat="40.04345626759835" lon="18.17161575980385"><ele>156.0</ele><time>2026-04-05T16:59:43.891Z</time></trkpt><trkpt lat="40.043251437948854" lon="18.171600443366415"><ele>156.0</ele><time>2026-04-05T16:59:44.891Z</time></trkpt><trkpt lat="40.04304341155402" lon="18.17158777959093"><ele>156.33333333333334</ele><time>2026-04-05T16:59:45.891Z</time></trkpt><trkpt lat="40.04283954163476" lon="18.171583571169045"><ele>156.66666666666669</ele><time>2026-04-05T16:59:46.891Z</time></trkpt><trkpt lat="40.04263431461562" lon="18.171572120866873"><ele>157.0</ele><time>2026-04-05T16:59:47.891Z</time></trkpt><trkpt lat="40.042429588402335" lon="18.171555764625815"><ele>157.33333333333334</ele><time>2026-04-05T16:59:48.891Z</time></trkpt><trkpt lat="40.04222894949766" lon="18.171545860602276"><ele>157.66666666666666</ele><time>2026-04-05T16:59:49.891Z</time></trkpt><trkpt lat="40.04203116435113" lon="18.171532102643823"><ele>158.0</ele><time>2026-04-05T16:59:50.891Z</time></trkpt><trkpt lat="40.04183389667695" lon="18.171499334876597"><ele>158.33333333333331</ele><time>2026-04-05T16:59:51.891Z</time></trkpt><trkpt lat="40.04163496548811" lon="18.171432386632173"><ele>158.66666666666666</ele><time>2026-04-05T16:59:52.891Z</time></trkpt><trkpt lat="40.041442259152184" lon="18.171348266282195"><ele>159.0</ele><time>2026-04-05T16:59:53.891Z</time></trkpt><trkpt lat="40.041260831793565" lon="18.171251757563017"><ele>159.0</ele><time>2026-04-05T16:59:54.891Z</time></trkpt><trkpt lat="40.04108416217223" lon="18.171139464832013"><ele>159.0</ele><time>2026-04-05T16:59:55.891Z</time></trkpt><trkpt lat="40.04090521820302" lon="18.171033611044095"><ele>159.0</ele><time>2026-04-05T16:59:56.891Z</time></trkpt><trkpt lat="40.04072644335942" lon="18.170940578455124"><ele>160.0</ele><time>2026-04-05T16:59:57.891Z</time></trkpt><trkpt lat="40.04055200403478" lon="18.17085404994284"><ele>161.0</ele><time>2026-04-05T16:59:58.891Z</time></trkpt><trkpt lat="40.040374021761146" lon="18.17076194002454"><ele>162.0</ele><time>2026-04-05T16:59:59.891Z</time></trkpt><trkpt lat="40.04019399382401" lon="18.170662825506238"><ele>163.0</ele><time>2026-04-05T17:00:00.891Z</time></trkpt><trkpt lat="40.04001590305658" lon="18.17056273169109"><ele>164.0</ele><time>2026-04-05T17:00:01.891Z</time></trkpt><trkpt lat="40.03984202604277" lon="18.17046413418023"><ele>165.0</ele><time>2026-04-05T17:00:02.891Z</time></trkpt><trkpt lat="40.03966591493712" lon="18.170368777508223"><ele>165.33333333333334</ele><time>2026-04-05T17:00:03.891Z</time></trkpt><trkpt lat="40.03949088198564" lon="18.170273069937082"><ele>165.66666666666669</ele><time>2026-04-05T17:00:04.891Z</time></trkpt><trkpt lat="40.03932085222467" lon="18.170175984625057"><ele>166.0</ele><time>2026-04-05T17:00:05.891Z</time></trkpt><trkpt lat="40.03915609466573" lon="18.170078938867317"><ele>166.0</ele><time>2026-04-05T17:00:06.891Z</time></trkpt><trkpt lat="40.038989027854875" lon="18.169987832628262"><ele>166.0</ele><time>2026-04-05T17:00:07.891Z</time></trkpt><trkpt lat="40.038827175971505" lon="18.169903266456373"><ele>166.0</ele><time>2026-04-05T17:00:08.891Z</time></trkpt><trkpt lat="40.03865559033876" lon="18.169838513124073"><ele>165.33333333333334</ele><time>2026-04-05T17:00:09.891Z</time></trkpt><trkpt lat="40.03848264640745" lon="18.16979476798863"><ele>164.66666666666666</ele><time>2026-04-05T17:00:10.891Z</time></trkpt><trkpt lat="40.038306448314586" lon="18.169763178979622"><ele>164.0</ele><time>2026-04-05T17:00:11.891Z</time></trkpt><trkpt lat="40.03812599017845" lon="18.16974054064436"><ele>164.0</ele><time>2026-04-05T17:00:12.891Z</time></trkpt><trkpt lat="40.03794404362584" lon="18.169718459222494"><ele>164.0</ele><time>2026-04-05T17:00:13.891Z</time></trkpt><trkpt lat="40.03775971735011" lon="18.16969449440989"><ele>164.0</ele><time>2026-04-05T17:00:14.891Z</time></trkpt><trkpt lat="40.03757894638436" lon="18.169664737573008"><ele>164.33333333333331</ele><time>2026-04-05T17:00:15.891Z</time></trkpt><trkpt lat="40.037393770005416" lon="18.169620108003674"><ele>164.66666666666666</ele><time>2026-04-05T17:00:16.891Z</time></trkpt><trkpt lat="40.037209039219036" lon="18.16956409475434"><ele>165.0</ele><time>2026-04-05T17:00:17.891Z</time></trkpt><trkpt lat="40.037026265154196" lon="18.16950135543395"><ele>165.0</ele><time>2026-04-05T17:00:18.891Z</time></trkpt><trkpt lat="40.03684811732394" lon="18.169441872357076"><ele>165.0</ele><time>2026-04-05T17:00:19.891Z</time></trkpt><trkpt lat="40.036665897386776" lon="18.16938965458081"><ele>165.0</ele><time>2026-04-05T17:00:20.891Z</time></trkpt><trkpt lat="40.036487463122384" lon="18.16934692271108"><ele>164.33333333333334</ele><time>2026-04-05T17:00:21.891Z</time></trkpt><trkpt lat="40.036302232126054" lon="18.16931987212008"><ele>163.66666666666669</ele><time>2026-04-05T17:00:22.891Z</time></trkpt><trkpt lat="40.036117101105845" lon="18.169306744478824"><ele>163.0</ele><time>2026-04-05T17:00:23.891Z</time></trkpt><trkpt lat="40.035927225371886" lon="18.169298322237147"><ele>162.66666666666669</ele><time>2026-04-05T17:00:24.891Z</time></trkpt><trkpt lat="40.035739814559484" lon="18.16928817145593"><ele>162.33333333333334</ele><time>2026-04-05T17:00:25.891Z</time></trkpt><trkpt lat="40.03554890256442" lon="18.16927732197812"><ele>162.0</ele><time>2026-04-05T17:00:26.891Z</time></trkpt><trkpt lat="40.03535652585386" lon="18.16926673214631"><ele>162.0</ele><time>2026-04-05T17:00:27.891Z</time></trkpt><trkpt lat="40.03516560896866" lon="18.169254226675378"><ele>162.0</ele><time>2026-04-05T17:00:28.891Z</time></trkpt><trkpt lat="40.034970483576906" lon="18.16925104157233"><ele>162.0</ele><time>2026-04-05T17:00:29.891Z</time></trkpt><trkpt lat="40.03478718065677" lon="18.169222291924406"><ele>161.33333333333334</ele><time>2026-04-05T17:00:30.892Z</time></trkpt><trkpt lat="40.03460540041375" lon="18.169183205905007"><ele>160.66666666666669</ele><time>2026-04-05T17:00:31.892Z</time></trkpt><trkpt lat="40.03442527688349" lon="18.169125629436774"><ele>160.0</ele><time>2026-04-05T17:00:32.892Z</time></trkpt><trkpt lat="40.034240463443226" lon="18.169067558403"><ele>160.33333333333334</ele><time>2026-04-05T17:00:33.892Z</time></trkpt><trkpt lat="40.034057622048465" lon="18.16899474556378"><ele>160.66666666666666</ele><time>2026-04-05T17:00:34.891Z</time></trkpt><trkpt lat="40.03388088888172" lon="18.16892403163854"><ele>161.0</ele><time>2026-04-05T17:00:35.891Z</time></trkpt><trkpt lat="40.03368708735442" lon="18.168880550545353"><ele>161.0</ele><time>2026-04-05T17:00:36.892Z</time></trkpt><trkpt lat="40.03350264189261" lon="18.1688431908054"><ele>161.0</ele><time>2026-04-05T17:00:37.891Z</time></trkpt><trkpt lat="40.033312096759175" lon="18.16881808049535"><ele>161.0</ele><time>2026-04-05T17:00:38.891Z</time></trkpt><trkpt lat="40.03312477330254" lon="18.168785352795556"><ele>159.66666666666666</ele><time>2026-04-05T17:00:39.892Z</time></trkpt><trkpt lat="40.0329372374976" lon="18.168753762910935"><ele>158.33333333333334</ele><time>2026-04-05T17:00:40.892Z</time></trkpt><trkpt lat="40.032748142757164" lon="18.168720862410883"><ele>157.0</ele><time>2026-04-05T17:00:41.892Z</time></trkpt><trkpt lat="40.03255845435116" lon="18.16868813953392"><ele>157.0</ele><time>2026-04-05T17:00:42.892Z</time></trkpt><trkpt lat="40.0323814323401" lon="18.16865586447594"><ele>157.0</ele><time>2026-04-05T17:00:43.892Z</time></trkpt><trkpt lat="40.03220892164701" lon="18.168624573638954"><ele>157.0</ele><time>2026-04-05T17:00:44.892Z</time></trkpt><trkpt lat="40.03204282508677" lon="18.16859666366057"><ele>157.0</ele><time>2026-04-05T17:00:45.892Z</time></trkpt><trkpt lat="40.03189111317661" lon="18.168576851101328"><ele>157.0</ele><time>2026-04-05T17:00:46.892Z</time></trkpt><trkpt lat="40.0317456685561" lon="18.16857369139634"><ele>157.0</ele><time>2026-04-05T17:00:47.892Z</time></trkpt><trkpt lat="40.031614184510836" lon="18.168577164362674"><ele>157.0</ele><time>2026-04-05T17:00:48.892Z</time></trkpt><trkpt lat="40.031503815425545" lon="18.16858773016523"><ele>156.4</ele><time>2026-04-05T17:00:49.892Z</time></trkpt><trkpt lat="40.03140139630478" lon="18.168585219115734"><ele>155.79999999999998</ele><time>2026-04-05T17:00:50.892Z</time></trkpt><trkpt lat="40.03130227927778" lon="18.168557347924118"><ele>155.2</ele><time>2026-04-05T17:00:51.892Z</time></trkpt><trkpt lat="40.03120372865582" lon="18.168520707558947"><ele>154.6</ele><time>2026-04-05T17:00:52.892Z</time></trkpt><trkpt lat="40.0310999207145" lon="18.168510111499202"><ele>154.0</ele><time>2026-04-05T17:00:53.892Z</time></trkpt><trkpt lat="40.030981668800976" lon="18.168523791683107"><ele>154.0</ele><time>2026-04-05T17:00:54.892Z</time></trkpt><trkpt lat="40.030833274267714" lon="18.168522434972974"><ele>154.0</ele><time>2026-04-05T17:00:55.892Z</time></trkpt><trkpt lat="40.030659797811204" lon="18.16847909238801"><ele>154.0</ele><time>2026-04-05T17:00:56.892Z</time></trkpt><trkpt lat="40.030481051535176" lon="18.168440773984504"><ele>153.33333333333334</ele><time>2026-04-05T17:00:57.892Z</time></trkpt><trkpt lat="40.03027348361735" lon="18.168366565365503"><ele>152.66666666666666</ele><time>2026-04-05T17:00:58.892Z</time></trkpt><trkpt lat="40.0300546947848" lon="18.168280326471304"><ele>152.0</ele><time>2026-04-05T17:00:59.892Z</time></trkpt><trkpt lat="40.02982078774434" lon="18.168207318393822"><ele>151.0</ele><time>2026-04-05T17:01:00.892Z</time></trkpt><trkpt lat="40.02958755833258" lon="18.168147172358783"><ele>150.0</ele><time>2026-04-05T17:01:01.892Z</time></trkpt><trkpt lat="40.02935177424475" lon="18.168088260733384"><ele>149.0</ele><time>2026-04-05T17:01:02.892Z</time></trkpt><trkpt lat="40.02912781708652" lon="18.168001637632766"><ele>148.0</ele><time>2026-04-05T17:01:03.892Z</time></trkpt><trkpt lat="40.02890814109921" lon="18.1678845308619"><ele>148.0</ele><time>2026-04-05T17:01:04.892Z</time></trkpt><trkpt lat="40.02869197246025" lon="18.167740636255218"><ele>148.0</ele><time>2026-04-05T17:01:05.892Z</time></trkpt><trkpt lat="40.02847819436113" lon="18.167590039453277"><ele>147.66666666666669</ele><time>2026-04-05T17:01:06.892Z</time></trkpt><trkpt lat="40.02827279808121" lon="18.16744643513103"><ele>147.33333333333334</ele><time>2026-04-05T17:01:07.892Z</time></trkpt><trkpt lat="40.02808040474555" lon="18.16731667090654"><ele>147.0</ele><time>2026-04-05T17:01:08.892Z</time></trkpt><trkpt lat="40.02791119851275" lon="18.16720422664305"><ele>146.75</ele><time>2026-04-05T17:01:09.892Z</time></trkpt><trkpt lat="40.02776656946238" lon="18.167105415419787"><ele>146.5</ele><time>2026-04-05T17:01:10.892Z</time></trkpt><trkpt lat="40.02764356957224" lon="18.167026835079767"><ele>146.25</ele><time>2026-04-05T17:01:11.891Z</time></trkpt><trkpt lat="40.02754760093712" lon="18.166968827500362"><ele>146.0</ele><time>2026-04-05T17:01:12.891Z</time></trkpt><trkpt lat="40.02747735256497" lon="18.166908101977974"><ele>146.0</ele><time>2026-04-05T17:01:13.891Z</time></trkpt><trkpt lat="40.0274181062106" lon="18.166839932241892"><ele>146.0</ele><time>2026-04-05T17:01:14.891Z</time></trkpt><trkpt lat="40.02737391729953" lon="18.166764750989188"><ele>146.0</ele><time>2026-04-05T17:01:15.891Z</time></trkpt><trkpt lat="40.027339236508475" lon="18.166695939366118"><ele>146.0</ele><time>2026-04-05T17:01:16.891Z</time></trkpt><trkpt lat="40.0272627357783" lon="18.16662632741684"><ele>146.0</ele><time>2026-04-05T17:01:18.891Z</time></trkpt><trkpt lat="40.02721198978224" lon="18.166720894158058"><ele>146.0</ele><time>2026-04-05T17:01:20.891Z</time></trkpt><trkpt lat="40.02716477575424" lon="18.166801527727394"><ele>146.0</ele><time>2026-04-05T17:01:21.891Z</time></trkpt><trkpt lat="40.02711684025949" lon="18.16690769397992"><ele>146.0</ele><time>2026-04-05T17:01:22.891Z</time></trkpt><trkpt lat="40.02705371879039" lon="18.167038121165472"><ele>146.0</ele><time>2026-04-05T17:01:23.891Z</time></trkpt><trkpt lat="40.02696361947932" lon="18.167170677035216"><ele>146.0</ele><time>2026-04-05T17:01:24.891Z</time></trkpt><trkpt lat="40.02684004921109" lon="18.167312817317402"><ele>146.0</ele><time>2026-04-05T17:01:25.891Z</time></trkpt><trkpt lat="40.02669722026133" lon="18.16746712218045"><ele>146.0</ele><time>2026-04-05T17:01:26.891Z</time></trkpt><trkpt lat="40.02654535133154" lon="18.167627646190667"><ele>146.0</ele><time>2026-04-05T17:01:27.891Z</time></trkpt><trkpt lat="40.026394758856284" lon="18.167795974500244"><ele>146.0</ele><time>2026-04-05T17:01:28.891Z</time></trkpt><trkpt lat="40.026242863028905" lon="18.167970620549212"><ele>146.0</ele><time>2026-04-05T17:01:29.891Z</time></trkpt><trkpt lat="40.02609049263196" lon="18.168149770951608"><ele>146.0</ele><time>2026-04-05T17:01:30.891Z</time></trkpt><trkpt lat="40.025934274439294" lon="18.168324863632858"><ele>146.0</ele><time>2026-04-05T17:01:31.891Z</time></trkpt><trkpt lat="40.02580283813995" lon="18.168469643569505"><ele>146.0</ele><time>2026-04-05T17:01:32.891Z</time></trkpt><trkpt lat="40.025690038296005" lon="18.16859047972979"><ele>146.0</ele><time>2026-04-05T17:01:33.891Z</time></trkpt><trkpt lat="40.02560482739934" lon="18.168684212782818"><ele>146.0</ele><time>2026-04-05T17:01:34.891Z</time></trkpt><trkpt lat="40.02553479752786" lon="18.16876057165647"><ele>146.0</ele><time>2026-04-05T17:01:35.891Z</time></trkpt><trkpt lat="40.0254765818325" lon="18.168827959320385"><ele>146.0</ele><time>2026-04-05T17:01:36.891Z</time></trkpt><trkpt lat="40.02539388092147" lon="18.16892389739629"><ele>146.0</ele><time>2026-04-05T17:01:38.891Z</time></trkpt><trkpt lat="40.025330072303255" lon="18.16898810744489"><ele>146.0</ele><time>2026-04-05T17:01:40.891Z</time></trkpt><trkpt lat="40.02526153997673" lon="18.169062703980487"><ele>146.0</ele><time>2026-04-05T17:01:42.891Z</time></trkpt><trkpt lat="40.02516890436064" lon="18.169174903221975"><ele>145.5</ele><time>2026-04-05T17:01:44.891Z</time></trkpt><trkpt lat="40.02510234728912" lon="18.169253001752633"><ele>145.0</ele><time>2026-04-05T17:01:45.891Z</time></trkpt><trkpt lat="40.02501988010794" lon="18.16935014976926"><ele>144.5</ele><time>2026-04-05T17:01:46.891Z</time></trkpt><trkpt lat="40.024916968423106" lon="18.16946464106697"><ele>144.0</ele><time>2026-04-05T17:01:47.891Z</time></trkpt><trkpt lat="40.024805690867375" lon="18.16960288954419"><ele>144.0</ele><time>2026-04-05T17:01:48.891Z</time></trkpt><trkpt lat="40.024677802620076" lon="18.169749339667614"><ele>144.0</ele><time>2026-04-05T17:01:49.891Z</time></trkpt><trkpt lat="40.02454011224303" lon="18.16988799157047"><ele>144.0</ele><time>2026-04-05T17:01:50.891Z</time></trkpt><trkpt lat="40.024420193742024" lon="18.17002226492238"><ele>144.5</ele><time>2026-04-05T17:01:51.891Z</time></trkpt><trkpt lat="40.02431309177785" lon="18.170140346945562"><ele>145.0</ele><time>2026-04-05T17:01:52.891Z</time></trkpt><trkpt lat="40.02422030630107" lon="18.170248027997225"><ele>145.5</ele><time>2026-04-05T17:01:53.891Z</time></trkpt><trkpt lat="40.02413094345183" lon="18.17035046995554"><ele>146.0</ele><time>2026-04-05T17:01:54.891Z</time></trkpt><trkpt lat="40.02403923507303" lon="18.170450109167906"><ele>146.0</ele><time>2026-04-05T17:01:55.891Z</time></trkpt><trkpt lat="40.02392759357377" lon="18.1705771831364"><ele>146.0</ele><time>2026-04-05T17:01:56.891Z</time></trkpt><trkpt lat="40.0237978672379" lon="18.17072877871994"><ele>146.0</ele><time>2026-04-05T17:01:57.891Z</time></trkpt><trkpt lat="40.023653228716164" lon="18.170896059415934"><ele>145.66666666666666</ele><time>2026-04-05T17:01:58.891Z</time></trkpt><trkpt lat="40.02349695787537" lon="18.171069400694844"><ele>145.33333333333334</ele><time>2026-04-05T17:01:59.891Z</time></trkpt><trkpt lat="40.023334547340305" lon="18.17125295584872"><ele>145.0</ele><time>2026-04-05T17:02:00.891Z</time></trkpt><trkpt lat="40.02316289249131" lon="18.17144482387356"><ele>148.0</ele><time>2026-04-05T17:02:01.891Z</time></trkpt><trkpt lat="40.022989780024396" lon="18.171642751251614"><ele>151.0</ele><time>2026-04-05T17:02:02.891Z</time></trkpt><trkpt lat="40.0228125495287" lon="18.17184008895291"><ele>151.0</ele><time>2026-04-05T17:02:03.891Z</time></trkpt><trkpt lat="40.02263085894512" lon="18.172041873563693"><ele>151.0</ele><time>2026-04-05T17:02:04.891Z</time></trkpt><trkpt lat="40.02244911574652" lon="18.172247206404762"><ele>151.0</ele><time>2026-04-05T17:02:05.891Z</time></trkpt><trkpt lat="40.02226779842239" lon="18.172457919659752"><ele>151.0</ele><time>2026-04-05T17:02:06.891Z</time></trkpt><trkpt lat="40.02208379137024" lon="18.17266934377991"><ele>151.0</ele><time>2026-04-05T17:02:07.891Z</time></trkpt><trkpt lat="40.021903145745476" lon="18.172882484977134"><ele>151.0</ele><time>2026-04-05T17:02:08.891Z</time></trkpt><trkpt lat="40.021718899845446" lon="18.173092159247417"><ele>152.0</ele><time>2026-04-05T17:02:09.891Z</time></trkpt><trkpt lat="40.02153367312147" lon="18.17330226728819"><ele>153.0</ele><time>2026-04-05T17:02:10.891Z</time></trkpt><trkpt lat="40.02134698472415" lon="18.17351199857316"><ele>153.0</ele><time>2026-04-05T17:02:11.891Z</time></trkpt><trkpt lat="40.02116276176866" lon="18.173720469102"><ele>153.0</ele><time>2026-04-05T17:02:12.891Z</time></trkpt><trkpt lat="40.02097894484844" lon="18.17393129833166"><ele>152.0</ele><time>2026-04-05T17:02:13.891Z</time></trkpt><trkpt lat="40.02080828742853" lon="18.174131198774212"><ele>151.0</ele><time>2026-04-05T17:02:14.891Z</time></trkpt><trkpt lat="40.020644838685776" lon="18.174315296758518"><ele>150.0</ele><time>2026-04-05T17:02:15.891Z</time></trkpt><trkpt lat="40.02049202339278" lon="18.1744834401005"><ele>150.0</ele><time>2026-04-05T17:02:16.891Z</time></trkpt><trkpt lat="40.02034053299883" lon="18.174640228861875"><ele>150.0</ele><time>2026-04-05T17:02:17.891Z</time></trkpt><trkpt lat="40.02019638306429" lon="18.174785922744455"><ele>150.0</ele><time>2026-04-05T17:02:18.891Z</time></trkpt><trkpt lat="40.020056497097116" lon="18.174925299349475"><ele>149.33333333333334</ele><time>2026-04-05T17:02:19.891Z</time></trkpt><trkpt lat="40.01991725767653" lon="18.17504559048684"><ele>148.66666666666669</ele><time>2026-04-05T17:02:20.891Z</time></trkpt><trkpt lat="40.01978208597555" lon="18.175160944382842"><ele>148.0</ele><time>2026-04-05T17:02:21.891Z</time></trkpt><trkpt lat="40.01964302355256" lon="18.17527663759805"><ele>148.0</ele><time>2026-04-05T17:02:22.891Z</time></trkpt><trkpt lat="40.01950979922022" lon="18.17539038145915"><ele>148.0</ele><time>2026-04-05T17:02:23.891Z</time></trkpt><trkpt lat="40.01937996802994" lon="18.175496860883374"><ele>148.0</ele><time>2026-04-05T17:02:24.891Z</time></trkpt><trkpt lat="40.01925261917428" lon="18.175599194278178"><ele>148.0</ele><time>2026-04-05T17:02:25.891Z</time></trkpt><trkpt lat="40.01913577272994" lon="18.1756907539204"><ele>148.0</ele><time>2026-04-05T17:02:26.891Z</time></trkpt><trkpt lat="40.019034405728675" lon="18.17576813806403"><ele>148.0</ele><time>2026-04-05T17:02:27.891Z</time></trkpt><trkpt lat="40.01894395991101" lon="18.17583152887577"><ele>148.0</ele><time>2026-04-05T17:02:28.891Z</time></trkpt><trkpt lat="40.018859720748466" lon="18.175892219650027"><ele>148.0</ele><time>2026-04-05T17:02:29.891Z</time></trkpt><trkpt lat="40.01877974141275" lon="18.17594736796471"><ele>148.0</ele><time>2026-04-05T17:02:30.891Z</time></trkpt><trkpt lat="40.01869935285265" lon="18.176006123738947"><ele>148.0</ele><time>2026-04-05T17:02:31.891Z</time></trkpt><trkpt lat="40.018595993925565" lon="18.176074790468018"><ele>148.0</ele><time>2026-04-05T17:02:32.891Z</time></trkpt><trkpt lat="40.01848045777003" lon="18.176156514416625"><ele>148.0</ele><time>2026-04-05T17:02:33.891Z</time></trkpt><trkpt lat="40.01835355482747" lon="18.17625181210028"><ele>148.33333333333334</ele><time>2026-04-05T17:02:34.891Z</time></trkpt><trkpt lat="40.018210180600455" lon="18.176356501312185"><ele>148.66666666666666</ele><time>2026-04-05T17:02:35.891Z</time></trkpt><trkpt lat="40.01805923328394" lon="18.176470972892332"><ele>149.0</ele><time>2026-04-05T17:02:36.891Z</time></trkpt><trkpt lat="40.01789680825962" lon="18.176588765197288"><ele>148.66666666666666</ele><time>2026-04-05T17:02:37.891Z</time></trkpt><trkpt lat="40.01772702265561" lon="18.176713039821276"><ele>148.33333333333334</ele><time>2026-04-05T17:02:38.891Z</time></trkpt><trkpt lat="40.017547020176615" lon="18.176843091186008"><ele>148.0</ele><time>2026-04-05T17:02:39.891Z</time></trkpt><trkpt lat="40.01736381028374" lon="18.176975040013197"><ele>148.0</ele><time>2026-04-05T17:02:40.891Z</time></trkpt><trkpt lat="40.017181039985665" lon="18.17710836640041"><ele>148.0</ele><time>2026-04-05T17:02:41.891Z</time></trkpt><trkpt lat="40.01700048697472" lon="18.177239507627995"><ele>148.0</ele><time>2026-04-05T17:02:42.892Z</time></trkpt><trkpt lat="40.01682007793195" lon="18.177369351813258"><ele>146.33333333333334</ele><time>2026-04-05T17:02:43.891Z</time></trkpt><trkpt lat="40.016645111951185" lon="18.177501561490878"><ele>144.66666666666666</ele><time>2026-04-05T17:02:44.891Z</time></trkpt><trkpt lat="40.0164684813411" lon="18.177632034548196"><ele>143.0</ele><time>2026-04-05T17:02:45.892Z</time></trkpt><trkpt lat="40.01629482954048" lon="18.17775744607018"><ele>143.0</ele><time>2026-04-05T17:02:46.891Z</time></trkpt><trkpt lat="40.016125546114566" lon="18.177878779615696"><ele>143.0</ele><time>2026-04-05T17:02:47.891Z</time></trkpt><trkpt lat="40.01596814658848" lon="18.177995873022773"><ele>143.0</ele><time>2026-04-05T17:02:48.891Z</time></trkpt><trkpt lat="40.0158119200046" lon="18.178105794082434"><ele>142.66666666666666</ele><time>2026-04-05T17:02:49.891Z</time></trkpt><trkpt lat="40.015655337072026" lon="18.17822062021867"><ele>142.33333333333334</ele><time>2026-04-05T17:02:50.891Z</time></trkpt><trkpt lat="40.01549631452307" lon="18.178337176058537"><ele>142.0</ele><time>2026-04-05T17:02:51.891Z</time></trkpt><trkpt lat="40.015338134011074" lon="18.178455084500463"><ele>142.0</ele><time>2026-04-05T17:02:52.891Z</time></trkpt><trkpt lat="40.01518018643633" lon="18.178572792659377"><ele>142.0</ele><time>2026-04-05T17:02:53.891Z</time></trkpt><trkpt lat="40.015025797424386" lon="18.178687910298237"><ele>142.0</ele><time>2026-04-05T17:02:54.891Z</time></trkpt><trkpt lat="40.0148775636267" lon="18.178801311184433"><ele>141.0</ele><time>2026-04-05T17:02:55.891Z</time></trkpt><trkpt lat="40.01473240656745" lon="18.17891263453256"><ele>140.0</ele><time>2026-04-05T17:02:56.891Z</time></trkpt><trkpt lat="40.014593778973534" lon="18.179019809320565"><ele>139.0</ele><time>2026-04-05T17:02:57.891Z</time></trkpt><trkpt lat="40.0144639939605" lon="18.179123693793088"><ele>139.0</ele><time>2026-04-05T17:02:58.891Z</time></trkpt><trkpt lat="40.01433774430645" lon="18.179223640090825"><ele>139.0</ele><time>2026-04-05T17:02:59.891Z</time></trkpt><trkpt lat="40.01421363691298" lon="18.179322001833004"><ele>139.0</ele><time>2026-04-05T17:03:00.891Z</time></trkpt><trkpt lat="40.01409236052639" lon="18.179417131081603"><ele>139.0</ele><time>2026-04-05T17:03:01.891Z</time></trkpt><trkpt lat="40.01397837098545" lon="18.179509712552644"><ele>139.2</ele><time>2026-04-05T17:03:02.891Z</time></trkpt><trkpt lat="40.013870438512896" lon="18.179593007599948"><ele>139.4</ele><time>2026-04-05T17:03:03.891Z</time></trkpt><trkpt lat="40.01377513001619" lon="18.17967022256365"><ele>139.6</ele><time>2026-04-05T17:03:04.891Z</time></trkpt><trkpt lat="40.01368887080028" lon="18.179742482171477"><ele>139.8</ele><time>2026-04-05T17:03:05.891Z</time></trkpt><trkpt lat="40.0136118717267" lon="18.179794595954508"><ele>140.0</ele><time>2026-04-05T17:03:06.891Z</time></trkpt><trkpt lat="40.013548845681015" lon="18.179822259361732"><ele>140.0</ele><time>2026-04-05T17:03:07.891Z</time></trkpt><trkpt lat="40.01344083011177" lon="18.179800938832535"><ele>140.0</ele><time>2026-04-05T17:03:09.891Z</time></trkpt><trkpt lat="40.01335330083026" lon="18.179704977496396"><ele>140.0</ele><time>2026-04-05T17:03:11.891Z</time></trkpt><trkpt lat="40.01331791827037" lon="18.179623031925956"><ele>140.0</ele><time>2026-04-05T17:03:12.891Z</time></trkpt><trkpt lat="40.01327977364162" lon="18.179524011378142"><ele>140.0</ele><time>2026-04-05T17:03:13.891Z</time></trkpt><trkpt lat="40.0132397544374" lon="18.17939338239883"><ele>140.25</ele><time>2026-04-05T17:03:14.891Z</time></trkpt><trkpt lat="40.01319637137014" lon="18.179256139386556"><ele>140.5</ele><time>2026-04-05T17:03:15.89Z</time></trkpt><trkpt lat="40.0131556609727" lon="18.179106774179832"><ele>140.75</ele><time>2026-04-05T17:03:16.89Z</time></trkpt><trkpt lat="40.013110245900975" lon="18.178966688915537"><ele>141.0</ele><time>2026-04-05T17:03:17.89Z</time></trkpt><trkpt lat="40.01306196216766" lon="18.178816572418445"><ele>141.25</ele><time>2026-04-05T17:03:18.89Z</time></trkpt><trkpt lat="40.01300679053173" lon="18.178663989164235"><ele>141.5</ele><time>2026-04-05T17:03:19.89Z</time></trkpt><trkpt lat="40.01295917021438" lon="18.17849831626266"><ele>141.75</ele><time>2026-04-05T17:03:20.89Z</time></trkpt><trkpt lat="40.01291482875144" lon="18.17833125396842"><ele>142.0</ele><time>2026-04-05T17:03:21.89Z</time></trkpt><trkpt lat="40.01286903645142" lon="18.178171227990404"><ele>142.2</ele><time>2026-04-05T17:03:22.89Z</time></trkpt><trkpt lat="40.01282611753851" lon="18.178031724234607"><ele>142.39999999999998</ele><time>2026-04-05T17:03:23.89Z</time></trkpt><trkpt lat="40.01278661853054" lon="18.177901556256682"><ele>142.60000000000002</ele><time>2026-04-05T17:03:24.89Z</time></trkpt><trkpt lat="40.01274923637694" lon="18.17778212580035"><ele>142.8</ele><time>2026-04-05T17:03:25.89Z</time></trkpt><trkpt lat="40.012711864585754" lon="18.17767060012333"><ele>143.0</ele><time>2026-04-05T17:03:26.89Z</time></trkpt><trkpt lat="40.01267565098422" lon="18.177565436978902"><ele>143.0</ele><time>2026-04-05T17:03:27.89Z</time></trkpt><trkpt lat="40.012650243690345" lon="18.17746259090932"><ele>143.0</ele><time>2026-04-05T17:03:28.89Z</time></trkpt><trkpt lat="40.01262800946217" lon="18.17737697919795"><ele>143.0</ele><time>2026-04-05T17:03:29.89Z</time></trkpt><trkpt lat="40.01259171075303" lon="18.177295014040077"><ele>143.0</ele><time>2026-04-05T17:03:31.89Z</time></trkpt><trkpt lat="40.012503464421684" lon="18.17726848114347"><ele>143.0</ele><time>2026-04-05T17:03:34.89Z</time></trkpt><trkpt lat="40.01244248255241" lon="18.177303648576768"><ele>143.0</ele><time>2026-04-05T17:03:35.89Z</time></trkpt><trkpt lat="40.01236751989574" lon="18.17734310633212"><ele>143.16666666666666</ele><time>2026-04-05T17:03:36.89Z</time></trkpt><trkpt lat="40.01228946024089" lon="18.177352893354392"><ele>143.33333333333331</ele><time>2026-04-05T17:03:37.89Z</time></trkpt><trkpt lat="40.01222073960621" lon="18.177369475385728"><ele>143.5</ele><time>2026-04-05T17:03:38.89Z</time></trkpt><trkpt lat="40.01213573324024" lon="18.17739366328648"><ele>143.66666666666666</ele><time>2026-04-05T17:03:40.89Z</time></trkpt><trkpt lat="40.01208762711209" lon="18.177454974774925"><ele>143.83333333333334</ele><time>2026-04-05T17:03:42.89Z</time></trkpt><trkpt lat="40.0121099026291" lon="18.17756998538822"><ele>144.0</ele><time>2026-04-05T17:03:44.89Z</time></trkpt><trkpt lat="40.012144452495676" lon="18.17768465479587"><ele>144.0</ele><time>2026-04-05T17:03:46.89Z</time></trkpt><trkpt lat="40.012178587407256" lon="18.177762722511364"><ele>144.0</ele><time>2026-04-05T17:03:48.89Z</time></trkpt><trkpt lat="40.012169933977226" lon="18.177858452166934"><ele>144.0</ele><time>2026-04-05T17:03:52.89Z</time></trkpt></trkseg></trk></gpx>